<?xml version='1.0' encoding='UTF-8'?><gpx version="1.1" creator="JPX - https://github.com/jenetics/jpx" xmlns="http://www.topografix.com/GPX/1/1"><trk><trkseg><trkpt lat="45.40287448857566" lon="10.37944254643426"><ele>90.0</ele><time>2026-04-24T07:51:02Z</time></trkpt><trkpt lat="45.402803914318156" lon="10.379489903300792"><ele>90.0</ele><time>2026-04-24T07:51:05Z</time></trkpt><trkpt lat="45.40273702872177" lon="10.37950482520521"><ele>90.0</ele><time>2026-04-24T07:51:07Z</time></trkpt><trkpt lat="45.402656216822024" lon="10.379568367452581"><ele>90.0</ele><time>2026-04-24T07:51:10Z</time></trkpt><trkpt lat="45.4026163336453" lon="10.379673415223206"><ele>90.0</ele><time>2026-04-24T07:51:13Z</time></trkpt><trkpt lat="45.402585695742154" lon="10.379767080417883"><ele>90.0</ele><time>2026-04-24T07:51:15Z</time></trkpt><trkpt lat="45.40254249583024" lon="10.379855887934113"><ele>89.8</ele><time>2026-04-24T07:51:17Z</time></trkpt><trkpt lat="45.4025022703046" lon="10.379958832288185"><ele>89.6</ele><time>2026-04-24T07:51:19Z</time></trkpt><trkpt lat="45.40246748702537" lon="10.380103381037888"><ele>89.4</ele><time>2026-04-24T07:51:21Z</time></trkpt><trkpt lat="45.40242683675593" lon="10.380262659277918"><ele>89.2</ele><time>2026-04-24T07:51:23Z</time></trkpt><trkpt lat="45.4023964486623" lon="10.380410138511849"><ele>89.0</ele><time>2026-04-24T07:51:25Z</time></trkpt><trkpt lat="45.4024259666807" lon="10.380571859782284"><ele>89.0</ele><time>2026-04-24T07:51:27Z</time></trkpt><trkpt lat="45.402516334057474" lon="10.38068836906097"><ele>89.0</ele><time>2026-04-24T07:51:29Z</time></trkpt><trkpt lat="45.40262406938143" lon="10.380784039891948"><ele>89.0</ele><time>2026-04-24T07:51:31Z</time></trkpt><trkpt lat="45.40268049649846" lon="10.38083120238322"><ele>89.0</ele><time>2026-04-24T07:51:32Z</time></trkpt><trkpt lat="45.402763509974044" lon="10.380891836523123"><ele>89.0</ele><time>2026-04-24T07:51:34Z</time></trkpt><trkpt lat="45.40283227204208" lon="10.380878421101116"><ele>89.0</ele><time>2026-04-24T07:51:37Z</time></trkpt><trkpt lat="45.402905803345305" lon="10.380867242537082"><ele>89.0</ele><time>2026-04-24T07:51:39Z</time></trkpt><trkpt lat="45.40300786583206" lon="10.380896803763685"><ele>89.0</ele><time>2026-04-24T07:51:41Z</time></trkpt><trkpt lat="45.4031205235774" lon="10.380966426485815"><ele>89.0</ele><time>2026-04-24T07:51:43Z</time></trkpt><trkpt lat="45.40317992561931" lon="10.381016218729908"><ele>89.0</ele><time>2026-04-24T07:51:44Z</time></trkpt><trkpt lat="45.403270753918925" lon="10.381136173119462"><ele>89.4</ele><time>2026-04-24T07:51:46Z</time></trkpt><trkpt lat="45.403357969873475" lon="10.381245939539857"><ele>89.80000000000001</ele><time>2026-04-24T07:51:48Z</time></trkpt><trkpt lat="45.40342287450874" lon="10.381342648716258"><ele>90.19999999999999</ele><time>2026-04-24T07:51:50Z</time></trkpt><trkpt lat="45.4034846324819" lon="10.38143194688797"><ele>90.6</ele><time>2026-04-24T07:51:52Z</time></trkpt><trkpt lat="45.40354950802668" lon="10.381567948374675"><ele>91.0</ele><time>2026-04-24T07:51:54Z</time></trkpt><trkpt lat="45.40359979545211" lon="10.381666092880526"><ele>91.0</ele><time>2026-04-24T07:51:55Z</time></trkpt><trkpt lat="45.4036466209802" lon="10.381781971317487"><ele>91.0</ele><time>2026-04-24T07:51:56Z</time></trkpt><trkpt lat="45.40369784944502" lon="10.381901547444059"><ele>91.0</ele><time>2026-04-24T07:51:57Z</time></trkpt><trkpt lat="45.40375173525935" lon="10.382019077238883"><ele>91.0</ele><time>2026-04-24T07:51:58Z</time></trkpt><trkpt lat="45.40380650495254" lon="10.382137180245262"><ele>91.0</ele><time>2026-04-24T07:51:59Z</time></trkpt><trkpt lat="45.40386716556526" lon="10.382262975813239"><ele>90.19999999999999</ele><time>2026-04-24T07:52:00Z</time></trkpt><trkpt lat="45.403926225825636" lon="10.382389102886323"><ele>89.39999999999999</ele><time>2026-04-24T07:52:01Z</time></trkpt><trkpt lat="45.40398594527687" lon="10.382517029703864"><ele>88.6</ele><time>2026-04-24T07:52:02Z</time></trkpt><trkpt lat="45.404045898494445" lon="10.382644677097218"><ele>87.8</ele><time>2026-04-24T07:52:03Z</time></trkpt><trkpt lat="45.40410559402736" lon="10.382775849026917"><ele>87.0</ele><time>2026-04-24T07:52:04Z</time></trkpt><trkpt lat="45.40416747120541" lon="10.382908792312886"><ele>87.6</ele><time>2026-04-24T07:52:05Z</time></trkpt><trkpt lat="45.40423031358945" lon="10.383037209396676"><ele>88.19999999999999</ele><time>2026-04-24T07:52:06Z</time></trkpt><trkpt lat="45.40429014206849" lon="10.383165631147284"><ele>88.8</ele><time>2026-04-24T07:52:07Z</time></trkpt><trkpt lat="45.40434682073199" lon="10.38329777091353"><ele>89.4</ele><time>2026-04-24T07:52:08Z</time></trkpt><trkpt lat="45.40440468298447" lon="10.383427653756321"><ele>90.0</ele><time>2026-04-24T07:52:09Z</time></trkpt><trkpt lat="45.4044630670112" lon="10.38356045405421"><ele>90.0</ele><time>2026-04-24T07:52:10Z</time></trkpt><trkpt lat="45.404523243129624" lon="10.383687489796928"><ele>90.0</ele><time>2026-04-24T07:52:11Z</time></trkpt><trkpt lat="45.40458184040988" lon="10.38381187139585"><ele>90.0</ele><time>2026-04-24T07:52:12Z</time></trkpt><trkpt lat="45.404642018199446" lon="10.383937054445662"><ele>90.0</ele><time>2026-04-24T07:52:13Z</time></trkpt><trkpt lat="45.404698227031716" lon="10.38406711163442"><ele>90.0</ele><time>2026-04-24T07:52:14Z</time></trkpt><trkpt lat="45.40475344656063" lon="10.384200209072018"><ele>90.0</ele><time>2026-04-24T07:52:15Z</time></trkpt><trkpt lat="45.40480058596493" lon="10.384338886497227"><ele>90.0</ele><time>2026-04-24T07:52:16Z</time></trkpt><trkpt lat="45.404829739742176" lon="10.384494909499423"><ele>90.0</ele><time>2026-04-24T07:52:17Z</time></trkpt><trkpt lat="45.40483843591369" lon="10.384656126825893"><ele>90.0</ele><time>2026-04-24T07:52:18Z</time></trkpt><trkpt lat="45.404833833176646" lon="10.384817707597591"><ele>90.0</ele><time>2026-04-24T07:52:19Z</time></trkpt><trkpt lat="45.40482299098611" lon="10.384970625060582"><ele>89.8</ele><time>2026-04-24T07:52:20Z</time></trkpt><trkpt lat="45.40481019300214" lon="10.38512341189717"><ele>89.6</ele><time>2026-04-24T07:52:21Z</time></trkpt><trkpt lat="45.404796572195345" lon="10.385279131044834"><ele>89.4</ele><time>2026-04-24T07:52:22Z</time></trkpt><trkpt lat="45.404779924480685" lon="10.385436785603611"><ele>89.2</ele><time>2026-04-24T07:52:23Z</time></trkpt><trkpt lat="45.40476822193273" lon="10.385600673179054"><ele>89.0</ele><time>2026-04-24T07:52:24Z</time></trkpt><trkpt lat="45.4047564690063" lon="10.385755923402016"><ele>88.4</ele><time>2026-04-24T07:52:25Z</time></trkpt><trkpt lat="45.40474554802588" lon="10.385906920321938"><ele>87.80000000000001</ele><time>2026-04-24T07:52:26Z</time></trkpt><trkpt lat="45.40473299537138" lon="10.38605756464098"><ele>87.19999999999999</ele><time>2026-04-24T07:52:27Z</time></trkpt><trkpt lat="45.40471724772625" lon="10.386207821688776"><ele>86.6</ele><time>2026-04-24T07:52:28Z</time></trkpt><trkpt lat="45.40470737077892" lon="10.386364402302592"><ele>86.0</ele><time>2026-04-24T07:52:29Z</time></trkpt><trkpt lat="45.40469928192855" lon="10.386523029120072"><ele>86.0</ele><time>2026-04-24T07:52:30Z</time></trkpt><trkpt lat="45.40468761305411" lon="10.386687805034304"><ele>86.0</ele><time>2026-04-24T07:52:31Z</time></trkpt><trkpt lat="45.40468465662054" lon="10.386853948075066"><ele>86.0</ele><time>2026-04-24T07:52:32Z</time></trkpt><trkpt lat="45.40468083132004" lon="10.3870167928529"><ele>86.0</ele><time>2026-04-24T07:52:33Z</time></trkpt><trkpt lat="45.40469158263965" lon="10.387154733329877"><ele>86.0</ele><time>2026-04-24T07:52:34Z</time></trkpt><trkpt lat="45.40470456013546" lon="10.387281668645146"><ele>86.57142857142858</ele><time>2026-04-24T07:52:35Z</time></trkpt><trkpt lat="45.40471327251132" lon="10.387392938406636"><ele>87.14285714285714</ele><time>2026-04-24T07:52:36Z</time></trkpt><trkpt lat="45.40470585150561" lon="10.387493580680072"><ele>87.71428571428572</ele><time>2026-04-24T07:52:37Z</time></trkpt><trkpt lat="45.404678629941735" lon="10.387586876498577"><ele>88.28571428571429</ele><time>2026-04-24T07:52:38Z</time></trkpt><trkpt lat="45.404643870734766" lon="10.387682235432337"><ele>88.85714285714286</ele><time>2026-04-24T07:52:39Z</time></trkpt><trkpt lat="45.404622227579075" lon="10.387783743207272"><ele>89.42857142857143</ele><time>2026-04-24T07:52:40Z</time></trkpt><trkpt lat="45.404623472142035" lon="10.387889242382235"><ele>90.0</ele><time>2026-04-24T07:52:41Z</time></trkpt><trkpt lat="45.40463821031836" lon="10.38811243752031"><ele>90.42857142857143</ele><time>2026-04-24T07:52:43Z</time></trkpt><trkpt lat="45.40463706268724" lon="10.388216354746518"><ele>90.85714285714286</ele><time>2026-04-24T07:52:44Z</time></trkpt><trkpt lat="45.40463421367954" lon="10.388319774895322"><ele>91.28571428571429</ele><time>2026-04-24T07:52:45Z</time></trkpt><trkpt lat="45.404622290128096" lon="10.388411327420313"><ele>91.71428571428572</ele><time>2026-04-24T07:52:46Z</time></trkpt><trkpt lat="45.40462568640524" lon="10.388501433928521"><ele>92.14285714285714</ele><time>2026-04-24T07:52:47Z</time></trkpt><trkpt lat="45.40462122102983" lon="10.388639004270576"><ele>92.57142857142858</ele><time>2026-04-24T07:52:49Z</time></trkpt><trkpt lat="45.404589305866104" lon="10.388727615167756"><ele>93.0</ele><time>2026-04-24T07:52:51Z</time></trkpt><trkpt lat="45.404481535035025" lon="10.388743855377161"><ele>93.0</ele><time>2026-04-24T07:52:53Z</time></trkpt><trkpt lat="45.40441048399943" lon="10.38875053582527"><ele>93.0</ele><time>2026-04-24T07:52:54Z</time></trkpt><trkpt lat="45.40433551787069" lon="10.388749362414197"><ele>93.0</ele><time>2026-04-24T07:52:55Z</time></trkpt><trkpt lat="45.404255197177285" lon="10.388739310306173"><ele>93.0</ele><time>2026-04-24T07:52:56Z</time></trkpt><trkpt lat="45.40416884575661" lon="10.388738475898204"><ele>93.0</ele><time>2026-04-24T07:52:57Z</time></trkpt><trkpt lat="45.404078413801884" lon="10.388715608077192"><ele>93.0</ele><time>2026-04-24T07:52:58Z</time></trkpt><trkpt lat="45.40399236672658" lon="10.388680384905882"><ele>93.0</ele><time>2026-04-24T07:52:59Z</time></trkpt><trkpt lat="45.403903978309565" lon="10.388652768800455"><ele>93.0</ele><time>2026-04-24T07:53:00Z</time></trkpt><trkpt lat="45.40381968001021" lon="10.388627600501062"><ele>93.0</ele><time>2026-04-24T07:53:01Z</time></trkpt><trkpt lat="45.4037460593914" lon="10.388606013784464"><ele>93.0</ele><time>2026-04-24T07:53:02Z</time></trkpt><trkpt lat="45.403682864250996" lon="10.388597888914767"><ele>93.0</ele><time>2026-04-24T07:53:03Z</time></trkpt><trkpt lat="45.40357207013259" lon="10.388610917163604"><ele>93.0</ele><time>2026-04-24T07:53:05Z</time></trkpt><trkpt lat="45.4035404785656" lon="10.388822555222472"><ele>92.83333333333333</ele><time>2026-04-24T07:53:07Z</time></trkpt><trkpt lat="45.40354198589429" lon="10.38893501815114"><ele>92.66666666666667</ele><time>2026-04-24T07:53:08Z</time></trkpt><trkpt lat="45.4035459990942" lon="10.389055653246505"><ele>92.5</ele><time>2026-04-24T07:53:09Z</time></trkpt><trkpt lat="45.403541923472744" lon="10.389183209673714"><ele>92.33333333333334</ele><time>2026-04-24T07:53:10Z</time></trkpt><trkpt lat="45.40351893157356" lon="10.389307425693392"><ele>92.16666666666667</ele><time>2026-04-24T07:53:11Z</time></trkpt><trkpt lat="45.40350797612392" lon="10.389429442228662"><ele>92.0</ele><time>2026-04-24T07:53:12Z</time></trkpt><trkpt lat="45.40349756999554" lon="10.38954541122138"><ele>92.0</ele><time>2026-04-24T07:53:13Z</time></trkpt><trkpt lat="45.40348420652616" lon="10.389647031835159"><ele>92.0</ele><time>2026-04-24T07:53:14Z</time></trkpt><trkpt lat="45.40347055270155" lon="10.389753161611262"><ele>92.0</ele><time>2026-04-24T07:53:15Z</time></trkpt><trkpt lat="45.40346039659177" lon="10.389862162757579"><ele>92.0</ele><time>2026-04-24T07:53:16Z</time></trkpt><trkpt lat="45.40344586468002" lon="10.389971800451171"><ele>92.0</ele><time>2026-04-24T07:53:17Z</time></trkpt><trkpt lat="45.40342969954811" lon="10.390076739931482"><ele>92.0</ele><time>2026-04-24T07:53:18Z</time></trkpt><trkpt lat="45.40341343769301" lon="10.390175870594064"><ele>93.0</ele><time>2026-04-24T07:53:19Z</time></trkpt><trkpt lat="45.403372601919024" lon="10.390347131877162"><ele>94.0</ele><time>2026-04-24T07:53:21Z</time></trkpt><trkpt lat="45.403339937536735" lon="10.390447176443377"><ele>95.0</ele><time>2026-04-24T07:53:22Z</time></trkpt><trkpt lat="45.40332319334616" lon="10.390565556041118"><ele>96.0</ele><time>2026-04-24T07:53:23Z</time></trkpt><trkpt lat="45.403317470417065" lon="10.39069301567573"><ele>97.0</ele><time>2026-04-24T07:53:24Z</time></trkpt><trkpt lat="45.403310378001464" lon="10.39082031967455"><ele>97.33333333333334</ele><time>2026-04-24T07:53:25Z</time></trkpt><trkpt lat="45.403304224860854" lon="10.390948855216829"><ele>97.66666666666667</ele><time>2026-04-24T07:53:26Z</time></trkpt><trkpt lat="45.40329516118185" lon="10.391072583373452"><ele>98.0</ele><time>2026-04-24T07:53:27Z</time></trkpt><trkpt lat="45.40328861279203" lon="10.391194884828632"><ele>98.33333333333334</ele><time>2026-04-24T07:53:28Z</time></trkpt><trkpt lat="45.40328404015652" lon="10.391314310475899"><ele>98.66666666666667</ele><time>2026-04-24T07:53:29Z</time></trkpt><trkpt lat="45.40326031490355" lon="10.391420891862845"><ele>99.0</ele><time>2026-04-24T07:53:30Z</time></trkpt><trkpt lat="45.40325382345336" lon="10.391515967121768"><ele>99.28571428571429</ele><time>2026-04-24T07:53:31Z</time></trkpt><trkpt lat="45.403247029872446" lon="10.391615467454434"><ele>99.57142857142857</ele><time>2026-04-24T07:53:32Z</time></trkpt><trkpt lat="45.40325602203072" lon="10.391722304591894"><ele>99.85714285714286</ele><time>2026-04-24T07:53:33Z</time></trkpt><trkpt lat="45.40323997031255" lon="10.39182300058111"><ele>100.14285714285714</ele><time>2026-04-24T07:53:34Z</time></trkpt><trkpt lat="45.40323299173545" lon="10.391924013145927"><ele>100.42857142857142</ele><time>2026-04-24T07:53:35Z</time></trkpt><trkpt lat="45.403227477899705" lon="10.392025945066267"><ele>100.71428571428571</ele><time>2026-04-24T07:53:36Z</time></trkpt><trkpt lat="45.40322138543677" lon="10.392124332009487"><ele>101.0</ele><time>2026-04-24T07:53:37Z</time></trkpt><trkpt lat="45.40321377187854" lon="10.392224495068096"><ele>101.66666666666666</ele><time>2026-04-24T07:53:38Z</time></trkpt><trkpt lat="45.40320587190605" lon="10.392328353162869"><ele>102.33333333333333</ele><time>2026-04-24T07:53:39Z</time></trkpt><trkpt lat="45.40320177914331" lon="10.392431040045508"><ele>103.0</ele><time>2026-04-24T07:53:40Z</time></trkpt><trkpt lat="45.40317722267282" lon="10.392577708399639"><ele>103.66666666666666</ele><time>2026-04-24T07:53:42Z</time></trkpt><trkpt lat="45.40318009628672" lon="10.392718596437728"><ele>104.33333333333333</ele><time>2026-04-24T07:53:44Z</time></trkpt><trkpt lat="45.40317114737714" lon="10.392817493411144"><ele>105.0</ele><time>2026-04-24T07:53:45Z</time></trkpt><trkpt lat="45.40316898769501" lon="10.392942836984293"><ele>107.0</ele><time>2026-04-24T07:53:46Z</time></trkpt><trkpt lat="45.403177141124736" lon="10.39309854806934"><ele>109.0</ele><time>2026-04-24T07:53:47Z</time></trkpt><trkpt lat="45.4031928578671" lon="10.393264448766734"><ele>111.0</ele><time>2026-04-24T07:53:48Z</time></trkpt><trkpt lat="45.4032059655871" lon="10.39343601770634"><ele>113.0</ele><time>2026-04-24T07:53:49Z</time></trkpt><trkpt lat="45.403221523207314" lon="10.393578613726739"><ele>112.99999999999999</ele><time>2026-04-24T07:53:50Z</time></trkpt><trkpt lat="45.40322839846629" lon="10.393703226087771"><ele>113.0</ele><time>2026-04-24T07:53:51Z</time></trkpt><trkpt lat="45.40323593547178" lon="10.393821791097974"><ele>113.0</ele><time>2026-04-24T07:53:52Z</time></trkpt><trkpt lat="45.403235638770006" lon="10.393946057777569"><ele>113.0</ele><time>2026-04-24T07:53:53Z</time></trkpt><trkpt lat="45.40318845583996" lon="10.394051859389817"><ele>112.99999999999999</ele><time>2026-04-24T07:53:54Z</time></trkpt><trkpt lat="45.40314513573463" lon="10.394155915175725"><ele>113.0</ele><time>2026-04-24T07:53:55Z</time></trkpt><trkpt lat="45.40309118528501" lon="10.394278578134974"><ele>113.25</ele><time>2026-04-24T07:53:56Z</time></trkpt><trkpt lat="45.4030339121299" lon="10.394416467466534"><ele>113.5</ele><time>2026-04-24T07:53:57Z</time></trkpt><trkpt lat="45.40297881964744" lon="10.394580046544288"><ele>113.75</ele><time>2026-04-24T07:53:58Z</time></trkpt><trkpt lat="45.402944578869985" lon="10.394725208953146"><ele>114.0</ele><time>2026-04-24T07:53:59Z</time></trkpt><trkpt lat="45.40292113671516" lon="10.394867928836339"><ele>112.4</ele><time>2026-04-24T07:54:00Z</time></trkpt><trkpt lat="45.40291031373311" lon="10.39501048142667"><ele>110.80000000000001</ele><time>2026-04-24T07:54:01Z</time></trkpt><trkpt lat="45.40290371266755" lon="10.395131629882613"><ele>109.19999999999999</ele><time>2026-04-24T07:54:02Z</time></trkpt><trkpt lat="45.40292945774964" lon="10.395261739666163"><ele>107.6</ele><time>2026-04-24T07:54:04Z</time></trkpt><trkpt lat="45.40283439418953" lon="10.395355812597517"><ele>106.0</ele><time>2026-04-24T07:54:06Z</time></trkpt><trkpt lat="45.402723837665654" lon="10.39542527320292"><ele>106.0</ele><time>2026-04-24T07:54:08Z</time></trkpt><trkpt lat="45.402637885525586" lon="10.395418021829482"><ele>106.0</ele><time>2026-04-24T07:54:09Z</time></trkpt><trkpt lat="45.402547509770535" lon="10.395458546674245"><ele>106.0</ele><time>2026-04-24T07:54:10Z</time></trkpt><trkpt lat="45.402446474190626" lon="10.395531959005169"><ele>106.0</ele><time>2026-04-24T07:54:11Z</time></trkpt><trkpt lat="45.40231775312667" lon="10.395556443580448"><ele>106.0</ele><time>2026-04-24T07:54:12Z</time></trkpt><trkpt lat="45.40218029134315" lon="10.395588790487269"><ele>105.0</ele><time>2026-04-24T07:54:13Z</time></trkpt><trkpt lat="45.40204303999877" lon="10.395638525008678"><ele>104.0</ele><time>2026-04-24T07:54:14Z</time></trkpt><trkpt lat="45.401900715246434" lon="10.395687648803728"><ele>103.0</ele><time>2026-04-24T07:54:15Z</time></trkpt><trkpt lat="45.40175846148413" lon="10.395732533715693"><ele>102.0</ele><time>2026-04-24T07:54:16Z</time></trkpt><trkpt lat="45.401617743837235" lon="10.395775314109619"><ele>102.0</ele><time>2026-04-24T07:54:17Z</time></trkpt><trkpt lat="45.40147851268811" lon="10.395822185644667"><ele>102.0</ele><time>2026-04-24T07:54:18Z</time></trkpt><trkpt lat="45.401336616095875" lon="10.395886341201749"><ele>102.0</ele><time>2026-04-24T07:54:19Z</time></trkpt><trkpt lat="45.40119848289973" lon="10.395965668037734"><ele>102.0</ele><time>2026-04-24T07:54:20Z</time></trkpt><trkpt lat="45.401065863447826" lon="10.396062807719947"><ele>100.75</ele><time>2026-04-24T07:54:21Z</time></trkpt><trkpt lat="45.400933266355764" lon="10.39615871347844"><ele>99.5</ele><time>2026-04-24T07:54:22Z</time></trkpt><trkpt lat="45.4008034113066" lon="10.39625666182009"><ele>98.25</ele><time>2026-04-24T07:54:23Z</time></trkpt><trkpt lat="45.400671825175095" lon="10.396356106957624"><ele>97.0</ele><time>2026-04-24T07:54:24Z</time></trkpt><trkpt lat="45.40054211487089" lon="10.39645788634607"><ele>96.25</ele><time>2026-04-24T07:54:25Z</time></trkpt><trkpt lat="45.40041699324936" lon="10.396551458202842"><ele>95.5</ele><time>2026-04-24T07:54:26Z</time></trkpt><trkpt lat="45.40029931871754" lon="10.396653004026694"><ele>94.75</ele><time>2026-04-24T07:54:27Z</time></trkpt><trkpt lat="45.400179782924106" lon="10.396756705346437"><ele>94.0</ele><time>2026-04-24T07:54:28Z</time></trkpt><trkpt lat="45.40004478182272" lon="10.39685314005163"><ele>94.0</ele><time>2026-04-24T07:54:29Z</time></trkpt><trkpt lat="45.399907409187826" lon="10.396953443306687"><ele>94.0</ele><time>2026-04-24T07:54:30Z</time></trkpt><trkpt lat="45.3997697330203" lon="10.397061514290618"><ele>94.0</ele><time>2026-04-24T07:54:31Z</time></trkpt><trkpt lat="45.399631180300496" lon="10.397168214989954"><ele>93.66666666666666</ele><time>2026-04-24T07:54:32Z</time></trkpt><trkpt lat="45.399487488782974" lon="10.397271527349533"><ele>93.33333333333333</ele><time>2026-04-24T07:54:33Z</time></trkpt><trkpt lat="45.39934216548571" lon="10.397368363637995"><ele>93.0</ele><time>2026-04-24T07:54:34Z</time></trkpt><trkpt lat="45.39921647848053" lon="10.397461980223879"><ele>93.0</ele><time>2026-04-24T07:54:35Z</time></trkpt><trkpt lat="45.39910890165781" lon="10.397551056113727"><ele>93.0</ele><time>2026-04-24T07:54:36Z</time></trkpt><trkpt lat="45.399020574166165" lon="10.397637079036764"><ele>93.0</ele><time>2026-04-24T07:54:37Z</time></trkpt><trkpt lat="45.39894371036449" lon="10.397708486532231"><ele>93.0</ele><time>2026-04-24T07:54:38Z</time></trkpt><trkpt lat="45.398858239225696" lon="10.397748476345887"><ele>93.0</ele><time>2026-04-24T07:54:39Z</time></trkpt><trkpt lat="45.3987610392813" lon="10.397768348483853"><ele>93.25</ele><time>2026-04-24T07:54:40Z</time></trkpt><trkpt lat="45.39865589802899" lon="10.397804453024262"><ele>93.5</ele><time>2026-04-24T07:54:41Z</time></trkpt><trkpt lat="45.39855058046579" lon="10.397880131217418"><ele>93.75</ele><time>2026-04-24T07:54:42Z</time></trkpt><trkpt lat="45.39844603658586" lon="10.397970720572042"><ele>94.0</ele><time>2026-04-24T07:54:43Z</time></trkpt><trkpt lat="45.398327224830155" lon="10.398061114934588"><ele>94.0</ele><time>2026-04-24T07:54:44Z</time></trkpt><trkpt lat="45.39820192449012" lon="10.398151536705395"><ele>94.0</ele><time>2026-04-24T07:54:45Z</time></trkpt><trkpt lat="45.39806687567397" lon="10.398250343201138"><ele>94.0</ele><time>2026-04-24T07:54:46Z</time></trkpt><trkpt lat="45.39792283725327" lon="10.39835458525343"><ele>93.66666666666666</ele><time>2026-04-24T07:54:47Z</time></trkpt><trkpt lat="45.39777369710592" lon="10.39846148600004"><ele>93.33333333333333</ele><time>2026-04-24T07:54:48Z</time></trkpt><trkpt lat="45.39761750931045" lon="10.3985716730013"><ele>93.0</ele><time>2026-04-24T07:54:49Z</time></trkpt><trkpt lat="45.39746079550738" lon="10.39867978154776"><ele>93.0</ele><time>2026-04-24T07:54:50Z</time></trkpt><trkpt lat="45.39729860625492" lon="10.398798484479345"><ele>93.0</ele><time>2026-04-24T07:54:51Z</time></trkpt><trkpt lat="45.39713513785908" lon="10.398928940723964"><ele>93.0</ele><time>2026-04-24T07:54:52Z</time></trkpt><trkpt lat="45.39697265765903" lon="10.399080872062022"><ele>93.0</ele><time>2026-04-24T07:54:53Z</time></trkpt><trkpt lat="45.3968124494271" lon="10.399254126871048"><ele>93.0</ele><time>2026-04-24T07:54:54Z</time></trkpt><trkpt lat="45.39664024001416" lon="10.39940692946857"><ele>93.0</ele><time>2026-04-24T07:54:55Z</time></trkpt><trkpt lat="45.396474195455134" lon="10.399594838847781"><ele>92.66666666666667</ele><time>2026-04-24T07:54:56Z</time></trkpt><trkpt lat="45.39631327229601" lon="10.399796585047566"><ele>92.33333333333334</ele><time>2026-04-24T07:54:57Z</time></trkpt><trkpt lat="45.39617379114053" lon="10.399996951913895"><ele>92.0</ele><time>2026-04-24T07:54:58Z</time></trkpt><trkpt lat="45.39603176149257" lon="10.400165173337614"><ele>92.0</ele><time>2026-04-24T07:54:59Z</time></trkpt><trkpt lat="45.395883200560334" lon="10.400288317832654"><ele>92.0</ele><time>2026-04-24T07:55:00Z</time></trkpt><trkpt lat="45.39574289757613" lon="10.400400337521086"><ele>92.0</ele><time>2026-04-24T07:55:01Z</time></trkpt><trkpt lat="45.395602491939655" lon="10.400495724563848"><ele>91.66666666666667</ele><time>2026-04-24T07:55:02Z</time></trkpt><trkpt lat="45.395458633909634" lon="10.40057669267072"><ele>91.33333333333333</ele><time>2026-04-24T07:55:03Z</time></trkpt><trkpt lat="45.39531504454783" lon="10.400646377370498"><ele>91.0</ele><time>2026-04-24T07:55:04Z</time></trkpt><trkpt lat="45.39516288938341" lon="10.400709917338856"><ele>91.0</ele><time>2026-04-24T07:55:05Z</time></trkpt><trkpt lat="45.39500614498639" lon="10.400769530053333"><ele>91.0</ele><time>2026-04-24T07:55:06Z</time></trkpt><trkpt lat="45.39485160817128" lon="10.400831203261424"><ele>91.0</ele><time>2026-04-24T07:55:07Z</time></trkpt><trkpt lat="45.394715793937664" lon="10.400908728718274"><ele>91.0</ele><time>2026-04-24T07:55:08Z</time></trkpt><trkpt lat="45.39459039864389" lon="10.400960342401403"><ele>91.0</ele><time>2026-04-24T07:55:09Z</time></trkpt><trkpt lat="45.3944860531934" lon="10.401009280806232"><ele>91.0</ele><time>2026-04-24T07:55:10Z</time></trkpt><trkpt lat="45.394390665066034" lon="10.40105205396403"><ele>91.0</ele><time>2026-04-24T07:55:11Z</time></trkpt><trkpt lat="45.39429645598645" lon="10.401063214946998"><ele>91.0</ele><time>2026-04-24T07:55:12Z</time></trkpt><trkpt lat="45.39420922516399" lon="10.401042044759725"><ele>91.0</ele><time>2026-04-24T07:55:13Z</time></trkpt><trkpt lat="45.39411986921106" lon="10.40102672417014"><ele>91.0</ele><time>2026-04-24T07:55:14Z</time></trkpt><trkpt lat="45.39402087566956" lon="10.40104298325617"><ele>91.0</ele><time>2026-04-24T07:55:15Z</time></trkpt><trkpt lat="45.393912399557976" lon="10.401066357989473"><ele>91.0</ele><time>2026-04-24T07:55:16Z</time></trkpt><trkpt lat="45.39379478161392" lon="10.40108780577632"><ele>91.0</ele><time>2026-04-24T07:55:17Z</time></trkpt><trkpt lat="45.393668769868285" lon="10.401120446862976"><ele>90.75</ele><time>2026-04-24T07:55:18Z</time></trkpt><trkpt lat="45.39353963202891" lon="10.4011722351077"><ele>90.5</ele><time>2026-04-24T07:55:19Z</time></trkpt><trkpt lat="45.39340815899486" lon="10.401228500936032"><ele>90.25</ele><time>2026-04-24T07:55:20Z</time></trkpt><trkpt lat="45.39327546668765" lon="10.40128393261636"><ele>90.0</ele><time>2026-04-24T07:55:21Z</time></trkpt><trkpt lat="45.393146932468746" lon="10.401341365966966"><ele>90.0</ele><time>2026-04-24T07:55:22Z</time></trkpt><trkpt lat="45.39301740940148" lon="10.401409218490732"><ele>90.0</ele><time>2026-04-24T07:55:23Z</time></trkpt><trkpt lat="45.39289326584038" lon="10.401472845087035"><ele>90.0</ele><time>2026-04-24T07:55:24Z</time></trkpt><trkpt lat="45.39277103840162" lon="10.401530007387388"><ele>90.0</ele><time>2026-04-24T07:55:24.999Z</time></trkpt><trkpt lat="45.3926382734681" lon="10.401596706000905"><ele>90.0</ele><time>2026-04-24T07:55:25.999Z</time></trkpt><trkpt lat="45.3925054280412" lon="10.401678255422377"><ele>90.0</ele><time>2026-04-24T07:55:26.999Z</time></trkpt><trkpt lat="45.39237253605883" lon="10.401766644808346"><ele>90.0</ele><time>2026-04-24T07:55:27.999Z</time></trkpt><trkpt lat="45.392237802765855" lon="10.401856262096889"><ele>90.0</ele><time>2026-04-24T07:55:28.999Z</time></trkpt><trkpt lat="45.39210320767913" lon="10.401950107763614"><ele>90.66666666666667</ele><time>2026-04-24T07:55:29.999Z</time></trkpt><trkpt lat="45.3919685732205" lon="10.402052367286293"><ele>91.33333333333334</ele><time>2026-04-24T07:55:30.999Z</time></trkpt><trkpt lat="45.391832880011606" lon="10.40216961715013"><ele>92.0</ele><time>2026-04-24T07:55:31.999Z</time></trkpt><trkpt lat="45.391697768756934" lon="10.402296606388246"><ele>92.0</ele><time>2026-04-24T07:55:32.999Z</time></trkpt><trkpt lat="45.39156876934059" lon="10.402425190258397"><ele>92.0</ele><time>2026-04-24T07:55:33.999Z</time></trkpt><trkpt lat="45.391446592053015" lon="10.40255876327866"><ele>92.0</ele><time>2026-04-24T07:55:35Z</time></trkpt><trkpt lat="45.3913270442553" lon="10.402695769905963"><ele>91.66666666666667</ele><time>2026-04-24T07:55:36Z</time></trkpt><trkpt lat="45.39121099066298" lon="10.402827892915203"><ele>91.33333333333333</ele><time>2026-04-24T07:55:37Z</time></trkpt><trkpt lat="45.39109548368098" lon="10.402961781429998"><ele>91.0</ele><time>2026-04-24T07:55:38Z</time></trkpt><trkpt lat="45.39097786165416" lon="10.403099266123462"><ele>90.66666666666666</ele><time>2026-04-24T07:55:39Z</time></trkpt><trkpt lat="45.39085962330317" lon="10.40323377723403"><ele>90.33333333333333</ele><time>2026-04-24T07:55:40Z</time></trkpt><trkpt lat="45.39073674810223" lon="10.403366230205586"><ele>90.0</ele><time>2026-04-24T07:55:41Z</time></trkpt><trkpt lat="45.39062357646206" lon="10.403496022562491"><ele>90.0</ele><time>2026-04-24T07:55:42Z</time></trkpt><trkpt lat="45.39051149021167" lon="10.403629319557298"><ele>90.0</ele><time>2026-04-24T07:55:43Z</time></trkpt><trkpt lat="45.39039616682631" lon="10.403768038177844"><ele>90.0</ele><time>2026-04-24T07:55:44Z</time></trkpt><trkpt lat="45.39027848317492" lon="10.403907693281504"><ele>90.0</ele><time>2026-04-24T07:55:45Z</time></trkpt><trkpt lat="45.39016517258861" lon="10.40404873604882"><ele>90.0</ele><time>2026-04-24T07:55:46Z</time></trkpt><trkpt lat="45.39005264935793" lon="10.40419509928837"><ele>90.0</ele><time>2026-04-24T07:55:47Z</time></trkpt><trkpt lat="45.38991643482904" lon="10.404290845867052"><ele>90.0</ele><time>2026-04-24T07:55:48Z</time></trkpt><trkpt lat="45.38978567278474" lon="10.404396922069749"><ele>90.0</ele><time>2026-04-24T07:55:49Z</time></trkpt><trkpt lat="45.389656688041136" lon="10.40450229041933"><ele>90.0</ele><time>2026-04-24T07:55:50Z</time></trkpt><trkpt lat="45.389531571400454" lon="10.404629492066073"><ele>89.66666666666667</ele><time>2026-04-24T07:55:51Z</time></trkpt><trkpt lat="45.38939345867098" lon="10.404732836038393"><ele>89.33333333333334</ele><time>2026-04-24T07:55:52Z</time></trkpt><trkpt lat="45.389259643032716" lon="10.404843225795277"><ele>89.0</ele><time>2026-04-24T07:55:53Z</time></trkpt><trkpt lat="45.38912963230648" lon="10.40495824534239"><ele>89.0</ele><time>2026-04-24T07:55:54Z</time></trkpt><trkpt lat="45.389005472684964" lon="10.405063771032992"><ele>89.0</ele><time>2026-04-24T07:55:55Z</time></trkpt><trkpt lat="45.388885988410195" lon="10.405172492588184"><ele>89.0</ele><time>2026-04-24T07:55:56Z</time></trkpt><trkpt lat="45.388766356509954" lon="10.405288067874928"><ele>89.0</ele><time>2026-04-24T07:55:57Z</time></trkpt><trkpt lat="45.38864911163084" lon="10.405408956266733"><ele>88.66666666666667</ele><time>2026-04-24T07:55:58Z</time></trkpt><trkpt lat="45.38853539458908" lon="10.405545997338479"><ele>88.33333333333333</ele><time>2026-04-24T07:55:59Z</time></trkpt><trkpt lat="45.388420188972745" lon="10.40570045692407"><ele>88.0</ele><time>2026-04-24T07:56:00Z</time></trkpt><trkpt lat="45.38828085233708" lon="10.405858135125793"><ele>88.0</ele><time>2026-04-24T07:56:01Z</time></trkpt><trkpt lat="45.38814369762289" lon="10.406044346243439"><ele>88.0</ele><time>2026-04-24T07:56:02Z</time></trkpt><trkpt lat="45.38800398357469" lon="10.406236590308742"><ele>88.0</ele><time>2026-04-24T07:56:03Z</time></trkpt><trkpt lat="45.3878736365014" lon="10.406415945537885"><ele>87.5</ele><time>2026-04-24T07:56:04Z</time></trkpt><trkpt lat="45.387755058120945" lon="10.406579107273725"><ele>87.0</ele><time>2026-04-24T07:56:05Z</time></trkpt><trkpt lat="45.387651362891795" lon="10.406716902190107"><ele>86.5</ele><time>2026-04-24T07:56:06Z</time></trkpt><trkpt lat="45.38757687423339" lon="10.406842987560985"><ele>86.0</ele><time>2026-04-24T07:56:07Z</time></trkpt><trkpt lat="45.38748237854827" lon="10.406890481175285"><ele>86.0</ele><time>2026-04-24T07:56:08Z</time></trkpt><trkpt lat="45.387387611036836" lon="10.406884647475742"><ele>86.0</ele><time>2026-04-24T07:56:09Z</time></trkpt><trkpt lat="45.38730512662766" lon="10.406882291475869"><ele>86.0</ele><time>2026-04-24T07:56:10Z</time></trkpt><trkpt lat="45.387236570951565" lon="10.406924020743219"><ele>86.0</ele><time>2026-04-24T07:56:11Z</time></trkpt><trkpt lat="45.38718706336416" lon="10.407027731351615"><ele>86.0</ele><time>2026-04-24T07:56:12Z</time></trkpt><trkpt lat="45.38716193873588" lon="10.40716258668306"><ele>86.0</ele><time>2026-04-24T07:56:13Z</time></trkpt><trkpt lat="45.387204356024114" lon="10.407291561493857"><ele>86.5</ele><time>2026-04-24T07:56:14Z</time></trkpt><trkpt lat="45.38708499656996" lon="10.407391512269939"><ele>87.0</ele><time>2026-04-24T07:56:15Z</time></trkpt><trkpt lat="45.38699396007523" lon="10.407465546577908"><ele>87.5</ele><time>2026-04-24T07:56:16Z</time></trkpt><trkpt lat="45.3868932279925" lon="10.407543830748684"><ele>88.0</ele><time>2026-04-24T07:56:17Z</time></trkpt><trkpt lat="45.38677988315571" lon="10.407627604872573"><ele>88.0</ele><time>2026-04-24T07:56:18Z</time></trkpt><trkpt lat="45.38665684448657" lon="10.40771734197203"><ele>88.0</ele><time>2026-04-24T07:56:19Z</time></trkpt><trkpt lat="45.38652307069655" lon="10.40781404066235"><ele>88.0</ele><time>2026-04-24T07:56:20Z</time></trkpt><trkpt lat="45.38639048489132" lon="10.407934466502681"><ele>88.0</ele><time>2026-04-24T07:56:21Z</time></trkpt><trkpt lat="45.3862414027144" lon="10.408031546274243"><ele>87.33333333333333</ele><time>2026-04-24T07:56:22Z</time></trkpt><trkpt lat="45.38608583427549" lon="10.408134304703367"><ele>86.66666666666667</ele><time>2026-04-24T07:56:23Z</time></trkpt><trkpt lat="45.38592564483984" lon="10.408240187910183"><ele>86.0</ele><time>2026-04-24T07:56:24Z</time></trkpt><trkpt lat="45.385757907696785" lon="10.408346655719571"><ele>86.0</ele><time>2026-04-24T07:56:25Z</time></trkpt><trkpt lat="45.38558844860947" lon="10.408451231389998"><ele>86.0</ele><time>2026-04-24T07:56:26Z</time></trkpt><trkpt lat="45.38541733340532" lon="10.408557792879465"><ele>86.0</ele><time>2026-04-24T07:56:27Z</time></trkpt><trkpt lat="45.38524018243339" lon="10.408668400608606"><ele>86.0</ele><time>2026-04-24T07:56:28Z</time></trkpt><trkpt lat="45.3850576065025" lon="10.40877638534012"><ele>86.0</ele><time>2026-04-24T07:56:29Z</time></trkpt><trkpt lat="45.38487516351907" lon="10.408881093780769"><ele>86.0</ele><time>2026-04-24T07:56:30Z</time></trkpt><trkpt lat="45.38468954013086" lon="10.408989658097108"><ele>85.33333333333334</ele><time>2026-04-24T07:56:31Z</time></trkpt><trkpt lat="45.384504466831785" lon="10.409104931794275"><ele>84.66666666666667</ele><time>2026-04-24T07:56:32Z</time></trkpt><trkpt lat="45.384316336682645" lon="10.409222218360322"><ele>84.0</ele><time>2026-04-24T07:56:33Z</time></trkpt><trkpt lat="45.38412210605763" lon="10.409337891638053"><ele>84.0</ele><time>2026-04-24T07:56:34Z</time></trkpt><trkpt lat="45.38391885587603" lon="10.409438442721727"><ele>84.0</ele><time>2026-04-24T07:56:35Z</time></trkpt><trkpt lat="45.383715224584115" lon="10.409532488011711"><ele>84.0</ele><time>2026-04-24T07:56:36Z</time></trkpt><trkpt lat="45.383507509627" lon="10.40962126042528"><ele>84.0</ele><time>2026-04-24T07:56:37Z</time></trkpt><trkpt lat="45.383297776119335" lon="10.409704374843189"><ele>84.0</ele><time>2026-04-24T07:56:38Z</time></trkpt><trkpt lat="45.38308624307555" lon="10.409788011371132"><ele>84.0</ele><time>2026-04-24T07:56:39Z</time></trkpt><trkpt lat="45.38287940516699" lon="10.409893056137046"><ele>84.0</ele><time>2026-04-24T07:56:40Z</time></trkpt><trkpt lat="45.38266540964933" lon="10.40997116266373"><ele>84.0</ele><time>2026-04-24T07:56:41Z</time></trkpt><trkpt lat="45.38244977364799" lon="10.410063679756846"><ele>84.0</ele><time>2026-04-24T07:56:42Z</time></trkpt><trkpt lat="45.38222819303005" lon="10.410134889570005"><ele>83.5</ele><time>2026-04-24T07:56:43Z</time></trkpt><trkpt lat="45.382010429959514" lon="10.41022256489471"><ele>83.0</ele><time>2026-04-24T07:56:44Z</time></trkpt><trkpt lat="45.38179854692282" lon="10.410329368717216"><ele>83.0</ele><time>2026-04-24T07:56:45Z</time></trkpt><trkpt lat="45.38158797096102" lon="10.41040783352904"><ele>83.0</ele><time>2026-04-24T07:56:46Z</time></trkpt><trkpt lat="45.38137982565678" lon="10.410488651697184"><ele>83.0</ele><time>2026-04-24T07:56:47Z</time></trkpt><trkpt lat="45.381175834128534" lon="10.4105690308917"><ele>82.33333333333334</ele><time>2026-04-24T07:56:48Z</time></trkpt><trkpt lat="45.38097516873524" lon="10.410647523737431"><ele>81.66666666666667</ele><time>2026-04-24T07:56:49Z</time></trkpt><trkpt lat="45.38077787956348" lon="10.410727120190133"><ele>81.0</ele><time>2026-04-24T07:56:50Z</time></trkpt><trkpt lat="45.380592186809416" lon="10.410812163840959"><ele>80.33333333333333</ele><time>2026-04-24T07:56:51Z</time></trkpt><trkpt lat="45.38041650270983" lon="10.410914432362947"><ele>79.66666666666666</ele><time>2026-04-24T07:56:52Z</time></trkpt><trkpt lat="45.38024841652308" lon="10.411035827567089"><ele>79.0</ele><time>2026-04-24T07:56:53Z</time></trkpt><trkpt lat="45.380094353466724" lon="10.411169138584478"><ele>79.0</ele><time>2026-04-24T07:56:54Z</time></trkpt><trkpt lat="45.37995765585114" lon="10.411293509254316"><ele>79.0</ele><time>2026-04-24T07:56:55Z</time></trkpt><trkpt lat="45.37983152157274" lon="10.411375526356629"><ele>79.0</ele><time>2026-04-24T07:56:56Z</time></trkpt><trkpt lat="45.37972962252271" lon="10.411442867195188"><ele>79.0</ele><time>2026-04-24T07:56:57Z</time></trkpt><trkpt lat="45.37963533201373" lon="10.41147694849873"><ele>79.2</ele><time>2026-04-24T07:56:58Z</time></trkpt><trkpt lat="45.379555064534216" lon="10.411488510428729"><ele>79.4</ele><time>2026-04-24T07:56:59Z</time></trkpt><trkpt lat="45.379480209249856" lon="10.411450984009688"><ele>79.6</ele><time>2026-04-24T07:57:00Z</time></trkpt><trkpt lat="45.3794080052444" lon="10.411344431320089"><ele>79.8</ele><time>2026-04-24T07:57:01Z</time></trkpt><trkpt lat="45.37931314575215" lon="10.411298039777378"><ele>80.0</ele><time>2026-04-24T07:57:02Z</time></trkpt><trkpt lat="45.37921581310773" lon="10.41134530630897"><ele>80.2</ele><time>2026-04-24T07:57:03Z</time></trkpt><trkpt lat="45.379152803942524" lon="10.411394549585276"><ele>80.4</ele><time>2026-04-24T07:57:04Z</time></trkpt><trkpt lat="45.379097876704" lon="10.411511784154257"><ele>80.6</ele><time>2026-04-24T07:57:05Z</time></trkpt><trkpt lat="45.37907051760784" lon="10.4116636776216"><ele>80.8</ele><time>2026-04-24T07:57:06Z</time></trkpt><trkpt lat="45.37906054788426" lon="10.41183881498846"><ele>81.0</ele><time>2026-04-24T07:57:07Z</time></trkpt><trkpt lat="45.379128246305925" lon="10.412098910195414"><ele>81.0</ele><time>2026-04-24T07:57:08Z</time></trkpt><trkpt lat="45.37885489676181" lon="10.412075618478262"><ele>81.0</ele><time>2026-04-24T07:57:09Z</time></trkpt><trkpt lat="45.378749539565" lon="10.412216183564702"><ele>81.0</ele><time>2026-04-24T07:57:10Z</time></trkpt><trkpt lat="45.3786381655174" lon="10.4123660027351"><ele>82.33333333333333</ele><time>2026-04-24T07:57:11Z</time></trkpt><trkpt lat="45.37852621371449" lon="10.412536437888704"><ele>83.66666666666666</ele><time>2026-04-24T07:57:12Z</time></trkpt><trkpt lat="45.378410711778706" lon="10.412716409683417"><ele>85.0</ele><time>2026-04-24T07:57:13Z</time></trkpt><trkpt lat="45.37829219117403" lon="10.412899034259597"><ele>85.0</ele><time>2026-04-24T07:57:14Z</time></trkpt><trkpt lat="45.378179979112225" lon="10.41308548957105"><ele>85.0</ele><time>2026-04-24T07:57:15Z</time></trkpt><trkpt lat="45.378078376684" lon="10.4132675033837"><ele>85.0</ele><time>2026-04-24T07:57:16Z</time></trkpt><trkpt lat="45.37797456669153" lon="10.413452058194927"><ele>85.33333333333333</ele><time>2026-04-24T07:57:17Z</time></trkpt><trkpt lat="45.37786888850837" lon="10.413633289116824"><ele>85.66666666666667</ele><time>2026-04-24T07:57:18Z</time></trkpt><trkpt lat="45.377750032901034" lon="10.41379808985609"><ele>86.0</ele><time>2026-04-24T07:57:19Z</time></trkpt><trkpt lat="45.377643005640266" lon="10.413975911903153"><ele>86.0</ele><time>2026-04-24T07:57:20Z</time></trkpt><trkpt lat="45.37754339270216" lon="10.414159170147473"><ele>86.0</ele><time>2026-04-24T07:57:21Z</time></trkpt><trkpt lat="45.377416255576584" lon="10.414304793286176"><ele>86.0</ele><time>2026-04-24T07:57:22Z</time></trkpt><trkpt lat="45.37729589450678" lon="10.414453827900665"><ele>85.66666666666667</ele><time>2026-04-24T07:57:23Z</time></trkpt><trkpt lat="45.37716929822245" lon="10.414594001925082"><ele>85.33333333333333</ele><time>2026-04-24T07:57:24Z</time></trkpt><trkpt lat="45.377041506636786" lon="10.414723748787619"><ele>85.0</ele><time>2026-04-24T07:57:25Z</time></trkpt><trkpt lat="45.37691190073185" lon="10.414852620001676"><ele>85.0</ele><time>2026-04-24T07:57:26Z</time></trkpt><trkpt lat="45.37678477481158" lon="10.41497690782907"><ele>85.0</ele><time>2026-04-24T07:57:27Z</time></trkpt><trkpt lat="45.37665770293236" lon="10.415104098956183"><ele>85.0</ele><time>2026-04-24T07:57:28Z</time></trkpt><trkpt lat="45.37654265841179" lon="10.415249002720415"><ele>85.0</ele><time>2026-04-24T07:57:29Z</time></trkpt><trkpt lat="45.37641627485524" lon="10.41537375189515"><ele>85.0</ele><time>2026-04-24T07:57:30Z</time></trkpt><trkpt lat="45.37629735613225" lon="10.415513570485878"><ele>85.0</ele><time>2026-04-24T07:57:31Z</time></trkpt><trkpt lat="45.37617654933599" lon="10.415648082482024"><ele>85.66666666666666</ele><time>2026-04-24T07:57:32Z</time></trkpt><trkpt lat="45.376059805068294" lon="10.415785427096692"><ele>86.33333333333333</ele><time>2026-04-24T07:57:33Z</time></trkpt><trkpt lat="45.37593257468571" lon="10.415903604658684"><ele>87.0</ele><time>2026-04-24T07:57:34Z</time></trkpt><trkpt lat="45.37581054350957" lon="10.416050341081217"><ele>87.0</ele><time>2026-04-24T07:57:35Z</time></trkpt><trkpt lat="45.37568953446835" lon="10.416221010320635"><ele>87.0</ele><time>2026-04-24T07:57:36Z</time></trkpt><trkpt lat="45.37555752751903" lon="10.41640068350421"><ele>87.0</ele><time>2026-04-24T07:57:37Z</time></trkpt><trkpt lat="45.37542408991371" lon="10.416601408582904"><ele>88.0</ele><time>2026-04-24T07:57:38Z</time></trkpt><trkpt lat="45.37529137340918" lon="10.416804726367156"><ele>89.0</ele><time>2026-04-24T07:57:39Z</time></trkpt><trkpt lat="45.375164632291614" lon="10.417012531209489"><ele>90.0</ele><time>2026-04-24T07:57:40Z</time></trkpt><trkpt lat="45.375013346636166" lon="10.417187164967304"><ele>89.0</ele><time>2026-04-24T07:57:41Z</time></trkpt><trkpt lat="45.37486391193016" lon="10.417354116826377"><ele>88.0</ele><time>2026-04-24T07:57:42Z</time></trkpt><trkpt lat="45.37471051380528" lon="10.417515106085933"><ele>87.0</ele><time>2026-04-24T07:57:43Z</time></trkpt><trkpt lat="45.374550947629274" lon="10.417678847819184"><ele>87.0</ele><time>2026-04-24T07:57:44Z</time></trkpt><trkpt lat="45.37439529475592" lon="10.417841570711868"><ele>87.0</ele><time>2026-04-24T07:57:45Z</time></trkpt><trkpt lat="45.37423849412146" lon="10.418005493539155"><ele>87.0</ele><time>2026-04-24T07:57:46Z</time></trkpt><trkpt lat="45.37408039768819" lon="10.418168944099074"><ele>84.66666666666667</ele><time>2026-04-24T07:57:47Z</time></trkpt><trkpt lat="45.37392043266925" lon="10.418333059213252"><ele>82.33333333333334</ele><time>2026-04-24T07:57:48Z</time></trkpt><trkpt lat="45.373759672705035" lon="10.41850128352781"><ele>80.0</ele><time>2026-04-24T07:57:49Z</time></trkpt><trkpt lat="45.373611367731165" lon="10.418694233027356"><ele>80.33333333333334</ele><time>2026-04-24T07:57:50Z</time></trkpt><trkpt lat="45.37345975681786" lon="10.418873169449604"><ele>80.66666666666667</ele><time>2026-04-24T07:57:51Z</time></trkpt><trkpt lat="45.37331636186651" lon="10.419066690031308"><ele>81.0</ele><time>2026-04-24T07:57:52Z</time></trkpt><trkpt lat="45.373179749217655" lon="10.419265357116574"><ele>81.0</ele><time>2026-04-24T07:57:53Z</time></trkpt><trkpt lat="45.37304277696744" lon="10.419469333298093"><ele>81.0</ele><time>2026-04-24T07:57:54Z</time></trkpt><trkpt lat="45.372905921740596" lon="10.419668268224884"><ele>81.0</ele><time>2026-04-24T07:57:55Z</time></trkpt><trkpt lat="45.37276634341536" lon="10.419861567280046"><ele>81.0</ele><time>2026-04-24T07:57:56Z</time></trkpt><trkpt lat="45.37262606309957" lon="10.420050771852914"><ele>81.0</ele><time>2026-04-24T07:57:57Z</time></trkpt><trkpt lat="45.3724855946633" lon="10.420239734086922"><ele>81.0</ele><time>2026-04-24T07:57:58Z</time></trkpt><trkpt lat="45.37234613639208" lon="10.420429634413521"><ele>80.66666666666667</ele><time>2026-04-24T07:57:59Z</time></trkpt><trkpt lat="45.37220660881926" lon="10.42061905914059"><ele>80.33333333333334</ele><time>2026-04-24T07:58:00Z</time></trkpt><trkpt lat="45.37206828314297" lon="10.420808016344136"><ele>80.0</ele><time>2026-04-24T07:58:01Z</time></trkpt><trkpt lat="45.37191376071919" lon="10.420977649487211"><ele>79.66666666666667</ele><time>2026-04-24T07:58:02Z</time></trkpt><trkpt lat="45.37177343725028" lon="10.421166844974817"><ele>79.33333333333333</ele><time>2026-04-24T07:58:03Z</time></trkpt><trkpt lat="45.37163470088179" lon="10.421353900577168"><ele>79.0</ele><time>2026-04-24T07:58:04Z</time></trkpt><trkpt lat="45.37149735979463" lon="10.42153887678491"><ele>79.0</ele><time>2026-04-24T07:58:05Z</time></trkpt><trkpt lat="45.371371499042894" lon="10.421739800551588"><ele>79.0</ele><time>2026-04-24T07:58:06Z</time></trkpt><trkpt lat="45.37123136570952" lon="10.421929871964894"><ele>79.0</ele><time>2026-04-24T07:58:07Z</time></trkpt><trkpt lat="45.37109170429478" lon="10.422119815789731"><ele>79.0</ele><time>2026-04-24T07:58:08Z</time></trkpt><trkpt lat="45.37095084518359" lon="10.422309177683346"><ele>79.0</ele><time>2026-04-24T07:58:09Z</time></trkpt><trkpt lat="45.3708111299639" lon="10.422499360218698"><ele>79.0</ele><time>2026-04-24T07:58:10Z</time></trkpt><trkpt lat="45.37065616228104" lon="10.422665649117935"><ele>78.66666666666666</ele><time>2026-04-24T07:58:11Z</time></trkpt><trkpt lat="45.3705141537874" lon="10.42285591560472"><ele>78.33333333333333</ele><time>2026-04-24T07:58:12Z</time></trkpt><trkpt lat="45.37037259516604" lon="10.42304558161696"><ele>78.0</ele><time>2026-04-24T07:58:13Z</time></trkpt><trkpt lat="45.3702393125547" lon="10.423247512090965"><ele>78.0</ele><time>2026-04-24T07:58:14Z</time></trkpt><trkpt lat="45.37009631095836" lon="10.42343629398839"><ele>78.0</ele><time>2026-04-24T07:58:15Z</time></trkpt><trkpt lat="45.369955609081074" lon="10.423627011858677"><ele>78.0</ele><time>2026-04-24T07:58:16Z</time></trkpt><trkpt lat="45.36981464898113" lon="10.423823271216673"><ele>78.33333333333333</ele><time>2026-04-24T07:58:17Z</time></trkpt><trkpt lat="45.369669798086235" lon="10.424014177776845"><ele>78.66666666666666</ele><time>2026-04-24T07:58:18Z</time></trkpt><trkpt lat="45.36952986623379" lon="10.424203821981642"><ele>79.0</ele><time>2026-04-24T07:58:19Z</time></trkpt><trkpt lat="45.36938780046337" lon="10.424396351894755"><ele>79.0</ele><time>2026-04-24T07:58:20Z</time></trkpt><trkpt lat="45.3692437763519" lon="10.42459191324901"><ele>79.0</ele><time>2026-04-24T07:58:21Z</time></trkpt><trkpt lat="45.36909881111379" lon="10.424782939910763"><ele>79.0</ele><time>2026-04-24T07:58:22Z</time></trkpt><trkpt lat="45.36895945055186" lon="10.424980080606138"><ele>79.0</ele><time>2026-04-24T07:58:23Z</time></trkpt><trkpt lat="45.36881857442363" lon="10.425171907705547"><ele>79.0</ele><time>2026-04-24T07:58:24Z</time></trkpt><trkpt lat="45.368678001814665" lon="10.425362905557312"><ele>79.0</ele><time>2026-04-24T07:58:25Z</time></trkpt><trkpt lat="45.368542069814445" lon="10.425555144243786"><ele>78.66666666666666</ele><time>2026-04-24T07:58:26Z</time></trkpt><trkpt lat="45.36839571573651" lon="10.425730308714012"><ele>78.33333333333333</ele><time>2026-04-24T07:58:27Z</time></trkpt><trkpt lat="45.3682595279316" lon="10.425916993489329"><ele>78.0</ele><time>2026-04-24T07:58:28Z</time></trkpt><trkpt lat="45.3681240754147" lon="10.4261030072285"><ele>78.0</ele><time>2026-04-24T07:58:29Z</time></trkpt><trkpt lat="45.3680002941378" lon="10.426274490753743"><ele>78.0</ele><time>2026-04-24T07:58:30Z</time></trkpt><trkpt lat="45.367888583771666" lon="10.426431278974595"><ele>78.0</ele><time>2026-04-24T07:58:31Z</time></trkpt><trkpt lat="45.3677888755065" lon="10.426575519542423"><ele>78.0</ele><time>2026-04-24T07:58:32Z</time></trkpt><trkpt lat="45.36771030407861" lon="10.426722432631463"><ele>78.0</ele><time>2026-04-24T07:58:33Z</time></trkpt><trkpt lat="45.367634118185535" lon="10.42682782613993"><ele>78.0</ele><time>2026-04-24T07:58:34Z</time></trkpt><trkpt lat="45.36757304363579" lon="10.426903048379314"><ele>78.0</ele><time>2026-04-24T07:58:35Z</time></trkpt><trkpt lat="45.36750618187917" lon="10.426944249135156"><ele>78.0</ele><time>2026-04-24T07:58:36Z</time></trkpt><trkpt lat="45.36742530249918" lon="10.426949657864636"><ele>78.0</ele><time>2026-04-24T07:58:37Z</time></trkpt><trkpt lat="45.367342024355096" lon="10.426956755551945"><ele>78.0</ele><time>2026-04-24T07:58:38Z</time></trkpt><trkpt lat="45.36727704615694" lon="10.427018918383334"><ele>78.0</ele><time>2026-04-24T07:58:39Z</time></trkpt><trkpt lat="45.36721153070978" lon="10.427090402800001"><ele>78.0</ele><time>2026-04-24T07:58:40Z</time></trkpt><trkpt lat="45.367145903148064" lon="10.427150262599497"><ele>78.0</ele><time>2026-04-24T07:58:41Z</time></trkpt><trkpt lat="45.36710207731351" lon="10.427238925566568"><ele>78.0</ele><time>2026-04-24T07:58:42Z</time></trkpt><trkpt lat="45.367088026542284" lon="10.42734772844491"><ele>78.8</ele><time>2026-04-24T07:58:43Z</time></trkpt><trkpt lat="45.36707929015254" lon="10.42746050692525"><ele>79.6</ele><time>2026-04-24T07:58:44Z</time></trkpt><trkpt lat="45.367053002894366" lon="10.427567356086382"><ele>80.39999999999999</ele><time>2026-04-24T07:58:45Z</time></trkpt><trkpt lat="45.36699602834829" lon="10.427650019697001"><ele>81.19999999999999</ele><time>2026-04-24T07:58:46Z</time></trkpt><trkpt lat="45.366926954975376" lon="10.427750008353518"><ele>82.0</ele><time>2026-04-24T07:58:47Z</time></trkpt><trkpt lat="45.366827504580705" lon="10.427886073190479"><ele>81.33333333333333</ele><time>2026-04-24T07:58:48Z</time></trkpt><trkpt lat="45.366678643215494" lon="10.427996365053213"><ele>80.66666666666667</ele><time>2026-04-24T07:58:49Z</time></trkpt><trkpt lat="45.36654421178152" lon="10.428160927656588"><ele>80.0</ele><time>2026-04-24T07:58:50Z</time></trkpt><trkpt lat="45.36639883578998" lon="10.428331787298687"><ele>80.0</ele><time>2026-04-24T07:58:51Z</time></trkpt><trkpt lat="45.36625158188835" lon="10.42849329219595"><ele>80.0</ele><time>2026-04-24T07:58:52Z</time></trkpt><trkpt lat="45.366119192238116" lon="10.428619546241919"><ele>80.0</ele><time>2026-04-24T07:58:53Z</time></trkpt><trkpt lat="45.36598808383433" lon="10.42872843487615"><ele>79.75</ele><time>2026-04-24T07:58:54Z</time></trkpt><trkpt lat="45.36585992418227" lon="10.428848769354955"><ele>79.5</ele><time>2026-04-24T07:58:55Z</time></trkpt><trkpt lat="45.36572545026622" lon="10.42893940079794"><ele>79.25</ele><time>2026-04-24T07:58:56Z</time></trkpt><trkpt lat="45.365598480170476" lon="10.429021192966134"><ele>79.0</ele><time>2026-04-24T07:58:57Z</time></trkpt><trkpt lat="45.365472060485374" lon="10.429092550326317"><ele>78.75</ele><time>2026-04-24T07:58:58Z</time></trkpt><trkpt lat="45.36534749881596" lon="10.429164926304168"><ele>78.5</ele><time>2026-04-24T07:58:59Z</time></trkpt><trkpt lat="45.36522690224249" lon="10.429238139312107"><ele>78.25</ele><time>2026-04-24T07:59:00Z</time></trkpt><trkpt lat="45.36511339210408" lon="10.429299784796578"><ele>78.0</ele><time>2026-04-24T07:59:01Z</time></trkpt><trkpt lat="45.365008755307" lon="10.42935226621295"><ele>78.0</ele><time>2026-04-24T07:59:02Z</time></trkpt><trkpt lat="45.36491320454047" lon="10.42939161674968"><ele>78.0</ele><time>2026-04-24T07:59:03Z</time></trkpt><trkpt lat="45.36483126845283" lon="10.42941882416704"><ele>78.0</ele><time>2026-04-24T07:59:04Z</time></trkpt><trkpt lat="45.36473715916555" lon="10.429443994926357"><ele>78.0</ele><time>2026-04-24T07:59:06Z</time></trkpt><trkpt lat="45.36467179180122" lon="10.429434027435573"><ele>78.0</ele><time>2026-04-24T07:59:14Z</time></trkpt><trkpt lat="45.364581077991694" lon="10.429451292629563"><ele>78.0</ele><time>2026-04-24T07:59:18Z</time></trkpt><trkpt lat="45.36450197575567" lon="10.429496519529064"><ele>78.4</ele><time>2026-04-24T07:59:20Z</time></trkpt><trkpt lat="45.36440296763733" lon="10.429526641432455"><ele>78.8</ele><time>2026-04-24T07:59:22Z</time></trkpt><trkpt lat="45.364315676374446" lon="10.429561972583073"><ele>79.2</ele><time>2026-04-24T07:59:24Z</time></trkpt><trkpt lat="45.36420752640742" lon="10.429609732691782"><ele>79.6</ele><time>2026-04-24T07:59:26Z</time></trkpt><trkpt lat="45.364134234453445" lon="10.42963751803539"><ele>80.0</ele><time>2026-04-24T07:59:27Z</time></trkpt><trkpt lat="45.36404943599132" lon="10.429659413441106"><ele>80.2</ele><time>2026-04-24T07:59:28Z</time></trkpt><trkpt lat="45.36395259622284" lon="10.429656892354949"><ele>80.4</ele><time>2026-04-24T07:59:29Z</time></trkpt><trkpt lat="45.36385447429137" lon="10.429678469000354"><ele>80.6</ele><time>2026-04-24T07:59:30Z</time></trkpt><trkpt lat="45.36375391597937" lon="10.429700281442972"><ele>80.8</ele><time>2026-04-24T07:59:31Z</time></trkpt><trkpt lat="45.36365203426719" lon="10.429743239003992"><ele>81.0</ele><time>2026-04-24T07:59:32Z</time></trkpt><trkpt lat="45.363551474943286" lon="10.42976277790044"><ele>81.4</ele><time>2026-04-24T07:59:33Z</time></trkpt><trkpt lat="45.36344963036764" lon="10.429779162677855"><ele>81.8</ele><time>2026-04-24T07:59:34Z</time></trkpt><trkpt lat="45.36334690075315" lon="10.429791911999699"><ele>82.2</ele><time>2026-04-24T07:59:35Z</time></trkpt><trkpt lat="45.36324893128752" lon="10.429784282067555"><ele>82.60000000000001</ele><time>2026-04-24T07:59:36Z</time></trkpt><trkpt lat="45.36314955088908" lon="10.429795821701207"><ele>83.0</ele><time>2026-04-24T07:59:37Z</time></trkpt><trkpt lat="45.36306192180021" lon="10.429807754033106"><ele>82.57142857142857</ele><time>2026-04-24T07:59:38Z</time></trkpt><trkpt lat="45.36298189070163" lon="10.429814569897982"><ele>82.14285714285715</ele><time>2026-04-24T07:59:39Z</time></trkpt><trkpt lat="45.362900485574" lon="10.429819038145792"><ele>81.71428571428572</ele><time>2026-04-24T07:59:40Z</time></trkpt><trkpt lat="45.362829908402205" lon="10.429831443062707"><ele>81.28571428571428</ele><time>2026-04-24T07:59:41Z</time></trkpt><trkpt lat="45.36276984105207" lon="10.429861092355265"><ele>80.85714285714286</ele><time>2026-04-24T07:59:42Z</time></trkpt><trkpt lat="45.36271001540064" lon="10.429927838901035"><ele>80.42857142857143</ele><time>2026-04-24T07:59:43Z</time></trkpt><trkpt lat="45.3626618735624" lon="10.430009687748695"><ele>80.0</ele><time>2026-04-24T07:59:44Z</time></trkpt><trkpt lat="45.36262658699633" lon="10.430098030545844"><ele>80.0</ele><time>2026-04-24T07:59:46Z</time></trkpt><trkpt lat="45.362578283956466" lon="10.430183965164904"><ele>80.0</ele><time>2026-04-24T07:59:52Z</time></trkpt><trkpt lat="45.36251742518664" lon="10.430283774586693"><ele>80.0</ele><time>2026-04-24T07:59:54Z</time></trkpt><trkpt lat="45.36242746415282" lon="10.430376988721116"><ele>80.0</ele><time>2026-04-24T07:59:56Z</time></trkpt><trkpt lat="45.362314255390245" lon="10.430462272107315"><ele>80.0</ele><time>2026-04-24T07:59:58Z</time></trkpt><trkpt lat="45.362253411191304" lon="10.430513513844781"><ele>79.5</ele><time>2026-04-24T07:59:59Z</time></trkpt><trkpt lat="45.36219325611272" lon="10.430574362450525"><ele>79.0</ele><time>2026-04-24T08:00:00Z</time></trkpt><trkpt lat="45.36213832784982" lon="10.430633819757777"><ele>78.5</ele><time>2026-04-24T08:00:01Z</time></trkpt><trkpt lat="45.362079240855785" lon="10.430697895602234"><ele>78.0</ele><time>2026-04-24T08:00:02Z</time></trkpt><trkpt lat="45.36201602790124" lon="10.430777148169431"><ele>77.5</ele><time>2026-04-24T08:00:03Z</time></trkpt><trkpt lat="45.3619428634954" lon="10.430853368577903"><ele>77.0</ele><time>2026-04-24T08:00:04Z</time></trkpt><trkpt lat="45.36187408670538" lon="10.430925643970811"><ele>77.0</ele><time>2026-04-24T08:00:05Z</time></trkpt><trkpt lat="45.361799615677434" lon="10.430998010744426"><ele>77.0</ele><time>2026-04-24T08:00:06Z</time></trkpt><trkpt lat="45.36172244112219" lon="10.431069236854915"><ele>77.0</ele><time>2026-04-24T08:00:07Z</time></trkpt><trkpt lat="45.36164712755571" lon="10.431136701606825"><ele>77.0</ele><time>2026-04-24T08:00:08Z</time></trkpt><trkpt lat="45.36156466636992" lon="10.431208705300662"><ele>77.0</ele><time>2026-04-24T08:00:09Z</time></trkpt><trkpt lat="45.36147651852926" lon="10.431277298083376"><ele>77.16666666666667</ele><time>2026-04-24T08:00:10Z</time></trkpt><trkpt lat="45.36138730646215" lon="10.43133585296603"><ele>77.33333333333334</ele><time>2026-04-24T08:00:11Z</time></trkpt><trkpt lat="45.361306932628764" lon="10.43138221777518"><ele>77.5</ele><time>2026-04-24T08:00:12Z</time></trkpt><trkpt lat="45.36123151183055" lon="10.431426346636274"><ele>77.66666666666667</ele><time>2026-04-24T08:00:13Z</time></trkpt><trkpt lat="45.36116275494977" lon="10.431472576743337"><ele>77.83333333333333</ele><time>2026-04-24T08:00:14Z</time></trkpt><trkpt lat="45.36108116053906" lon="10.43149829082554"><ele>78.0</ele><time>2026-04-24T08:00:15Z</time></trkpt><trkpt lat="45.36099171375059" lon="10.431538634488648"><ele>78.0</ele><time>2026-04-24T08:00:16Z</time></trkpt><trkpt lat="45.36089713321577" lon="10.431577414354432"><ele>78.0</ele><time>2026-04-24T08:00:17Z</time></trkpt><trkpt lat="45.360798470826545" lon="10.431603671389926"><ele>78.0</ele><time>2026-04-24T08:00:18Z</time></trkpt><trkpt lat="45.36069588942918" lon="10.43158352063335"><ele>78.0</ele><time>2026-04-24T08:00:19Z</time></trkpt><trkpt lat="45.360591892563136" lon="10.43157084884868"><ele>78.0</ele><time>2026-04-24T08:00:20Z</time></trkpt><trkpt lat="45.36048387411646" lon="10.431554075806545"><ele>77.5</ele><time>2026-04-24T08:00:21Z</time></trkpt><trkpt lat="45.360371060934305" lon="10.431535982833415"><ele>77.0</ele><time>2026-04-24T08:00:22Z</time></trkpt><trkpt lat="45.3602505135974" lon="10.43151664946091"><ele>76.5</ele><time>2026-04-24T08:00:23Z</time></trkpt><trkpt lat="45.36012165264349" lon="10.43149713300485"><ele>76.0</ele><time>2026-04-24T08:00:24Z</time></trkpt><trkpt lat="45.359993037912126" lon="10.431480855205606"><ele>76.0</ele><time>2026-04-24T08:00:25Z</time></trkpt><trkpt lat="45.359858784683375" lon="10.431464033746687"><ele>76.0</ele><time>2026-04-24T08:00:26Z</time></trkpt><trkpt lat="45.359730153648584" lon="10.431450448644467"><ele>76.0</ele><time>2026-04-24T08:00:27Z</time></trkpt><trkpt lat="45.359617326997956" lon="10.431438532678746"><ele>76.0</ele><time>2026-04-24T08:00:28Z</time></trkpt><trkpt lat="45.35951316470125" lon="10.431427531791966"><ele>75.6</ele><time>2026-04-24T08:00:29Z</time></trkpt><trkpt lat="45.359406879476644" lon="10.431416731857327"><ele>75.19999999999999</ele><time>2026-04-24T08:00:30Z</time></trkpt><trkpt lat="45.359300955274534" lon="10.431415607006226"><ele>74.80000000000001</ele><time>2026-04-24T08:00:31Z</time></trkpt><trkpt lat="45.35919998358646" lon="10.431405203942186"><ele>74.4</ele><time>2026-04-24T08:00:32Z</time></trkpt><trkpt lat="45.359097122395916" lon="10.431393607615654"><ele>74.0</ele><time>2026-04-24T08:00:33Z</time></trkpt><trkpt lat="45.35898427659753" lon="10.431385468084232"><ele>74.25</ele><time>2026-04-24T08:00:34Z</time></trkpt><trkpt lat="45.358865185233675" lon="10.431378121830019"><ele>74.5</ele><time>2026-04-24T08:00:35Z</time></trkpt><trkpt lat="45.358747275425685" lon="10.431368666494379"><ele>74.75</ele><time>2026-04-24T08:00:36Z</time></trkpt><trkpt lat="45.358631562681694" lon="10.431355938657733"><ele>75.0</ele><time>2026-04-24T08:00:37Z</time></trkpt><trkpt lat="45.358518345152234" lon="10.431345860804239"><ele>75.0</ele><time>2026-04-24T08:00:38Z</time></trkpt><trkpt lat="45.35840152769924" lon="10.43133580752974"><ele>75.0</ele><time>2026-04-24T08:00:39Z</time></trkpt><trkpt lat="45.358277533576796" lon="10.431326036692802"><ele>75.0</ele><time>2026-04-24T08:00:40Z</time></trkpt><trkpt lat="45.35815618316955" lon="10.43131506936549"><ele>75.0</ele><time>2026-04-24T08:00:41Z</time></trkpt><trkpt lat="45.35804044021947" lon="10.431305625326278"><ele>75.0</ele><time>2026-04-24T08:00:42Z</time></trkpt><trkpt lat="45.35792562392853" lon="10.431290277826871"><ele>75.0</ele><time>2026-04-24T08:00:43Z</time></trkpt><trkpt lat="45.357811487366135" lon="10.431280090765462"><ele>75.0</ele><time>2026-04-24T08:00:44Z</time></trkpt><trkpt lat="45.357702509462904" lon="10.431269910278436"><ele>75.0</ele><time>2026-04-24T08:00:45Z</time></trkpt><trkpt lat="45.35760942958097" lon="10.431265939914585"><ele>75.0</ele><time>2026-04-24T08:00:46Z</time></trkpt><trkpt lat="45.357524478033156" lon="10.431261132361428"><ele>74.99999999999999</ele><time>2026-04-24T08:00:47Z</time></trkpt><trkpt lat="45.35744446786659" lon="10.431254548625011"><ele>75.0</ele><time>2026-04-24T08:00:48Z</time></trkpt><trkpt lat="45.35737022253804" lon="10.431247335152795"><ele>75.0</ele><time>2026-04-24T08:00:49Z</time></trkpt><trkpt lat="45.35730009402621" lon="10.4312421181252"><ele>75.0</ele><time>2026-04-24T08:00:50Z</time></trkpt><trkpt lat="45.35722833448" lon="10.431234803705925"><ele>75.0</ele><time>2026-04-24T08:00:51Z</time></trkpt><trkpt lat="45.35715674720928" lon="10.431228384330652"><ele>74.99999999999999</ele><time>2026-04-24T08:00:52Z</time></trkpt><trkpt lat="45.35708043117577" lon="10.43122211835068"><ele>75.0</ele><time>2026-04-24T08:00:53Z</time></trkpt><trkpt lat="45.35700248983048" lon="10.43121612206369"><ele>74.66666666666667</ele><time>2026-04-24T08:00:54Z</time></trkpt><trkpt lat="45.356922229475224" lon="10.431214139773463"><ele>74.33333333333333</ele><time>2026-04-24T08:00:55Z</time></trkpt><trkpt lat="45.35684745818479" lon="10.431209795999461"><ele>74.0</ele><time>2026-04-24T08:00:56Z</time></trkpt><trkpt lat="45.3567738365135" lon="10.431210709669854"><ele>73.66666666666666</ele><time>2026-04-24T08:00:57Z</time></trkpt><trkpt lat="45.35670587198161" lon="10.431213397976514"><ele>73.33333333333333</ele><time>2026-04-24T08:00:58Z</time></trkpt><trkpt lat="45.35659027429994" lon="10.431199447221747"><ele>73.0</ele><time>2026-04-24T08:01:00Z</time></trkpt><trkpt lat="45.3564947083072" lon="10.431235748944164"><ele>73.0</ele><time>2026-04-24T08:01:02Z</time></trkpt><trkpt lat="45.356438575036236" lon="10.43135144587625"><ele>73.0</ele><time>2026-04-24T08:01:04Z</time></trkpt><trkpt lat="45.35632852253677" lon="10.431396197055857"><ele>73.0</ele><time>2026-04-24T08:01:06Z</time></trkpt><trkpt lat="45.35625563221649" lon="10.431406696508624"><ele>73.0</ele><time>2026-04-24T08:01:07Z</time></trkpt><trkpt lat="45.356175027656434" lon="10.431410811908512"><ele>73.0</ele><time>2026-04-24T08:01:08Z</time></trkpt><trkpt lat="45.35608655636563" lon="10.431426019809528"><ele>72.75</ele><time>2026-04-24T08:01:09Z</time></trkpt><trkpt lat="45.355991066661616" lon="10.431445130104013"><ele>72.5</ele><time>2026-04-24T08:01:10Z</time></trkpt><trkpt lat="45.35588778904874" lon="10.431463514472332"><ele>72.25</ele><time>2026-04-24T08:01:11Z</time></trkpt><trkpt lat="45.355769404434305" lon="10.431478003468955"><ele>72.0</ele><time>2026-04-24T08:01:12Z</time></trkpt><trkpt lat="45.35563924296293" lon="10.43150159777984"><ele>72.0</ele><time>2026-04-24T08:01:13Z</time></trkpt><trkpt lat="45.35550166867049" lon="10.43152611644358"><ele>72.0</ele><time>2026-04-24T08:01:14Z</time></trkpt><trkpt lat="45.35536140515321" lon="10.431552041000675"><ele>72.0</ele><time>2026-04-24T08:01:15Z</time></trkpt><trkpt lat="45.35521150277913" lon="10.43158095126173"><ele>72.0</ele><time>2026-04-24T08:01:16Z</time></trkpt><trkpt lat="45.35506475380182" lon="10.431618993572547"><ele>72.0</ele><time>2026-04-24T08:01:17Z</time></trkpt><trkpt lat="45.354921397084716" lon="10.431658918211394"><ele>72.0</ele><time>2026-04-24T08:01:18Z</time></trkpt><trkpt lat="45.35477692597013" lon="10.431711683322028"><ele>72.0</ele><time>2026-04-24T08:01:19Z</time></trkpt><trkpt lat="45.35463870487788" lon="10.431770279631372"><ele>72.0</ele><time>2026-04-24T08:01:20Z</time></trkpt><trkpt lat="45.35450259569859" lon="10.431848208148583"><ele>71.66666666666667</ele><time>2026-04-24T08:01:21Z</time></trkpt><trkpt lat="45.35436345466811" lon="10.431942898372444"><ele>71.33333333333334</ele><time>2026-04-24T08:01:22Z</time></trkpt><trkpt lat="45.354223440787756" lon="10.432066613103274"><ele>71.0</ele><time>2026-04-24T08:01:23Z</time></trkpt><trkpt lat="45.35408320289739" lon="10.432218267332775"><ele>71.0</ele><time>2026-04-24T08:01:24Z</time></trkpt><trkpt lat="45.35393561525379" lon="10.43236371460251"><ele>71.0</ele><time>2026-04-24T08:01:25Z</time></trkpt><trkpt lat="45.35378377580014" lon="10.432511987628896"><ele>71.0</ele><time>2026-04-24T08:01:26Z</time></trkpt><trkpt lat="45.35362687867256" lon="10.432664947670965"><ele>70.66666666666667</ele><time>2026-04-24T08:01:27Z</time></trkpt><trkpt lat="45.3534684587878" lon="10.432823550631904"><ele>70.33333333333333</ele><time>2026-04-24T08:01:28Z</time></trkpt><trkpt lat="45.35331080600889" lon="10.432981844992169"><ele>70.0</ele><time>2026-04-24T08:01:29Z</time></trkpt><trkpt lat="45.3531502476057" lon="10.433138098962809"><ele>69.66666666666666</ele><time>2026-04-24T08:01:30Z</time></trkpt><trkpt lat="45.35298433341211" lon="10.433291053632622"><ele>69.33333333333333</ele><time>2026-04-24T08:01:31Z</time></trkpt><trkpt lat="45.35280528327134" lon="10.433404582172276"><ele>69.0</ele><time>2026-04-24T08:01:32Z</time></trkpt><trkpt lat="45.3526281729639" lon="10.433514946404715"><ele>69.0</ele><time>2026-04-24T08:01:33Z</time></trkpt><trkpt lat="45.35244490231923" lon="10.433600426351873"><ele>69.0</ele><time>2026-04-24T08:01:34Z</time></trkpt><trkpt lat="45.35225753159094" lon="10.433668474539955"><ele>69.0</ele><time>2026-04-24T08:01:35Z</time></trkpt><trkpt lat="45.35206625232871" lon="10.43371898045439"><ele>69.33333333333333</ele><time>2026-04-24T08:01:36Z</time></trkpt><trkpt lat="45.35187442290998" lon="10.433768079354914"><ele>69.66666666666666</ele><time>2026-04-24T08:01:37Z</time></trkpt><trkpt lat="45.351682056938294" lon="10.433814190107952"><ele>70.0</ele><time>2026-04-24T08:01:38Z</time></trkpt><trkpt lat="45.35148952540186" lon="10.43387554525762"><ele>69.66666666666666</ele><time>2026-04-24T08:01:39Z</time></trkpt><trkpt lat="45.35129056713024" lon="10.433910133828077"><ele>69.33333333333333</ele><time>2026-04-24T08:01:40Z</time></trkpt><trkpt lat="45.35109300957" lon="10.433934681480807"><ele>69.0</ele><time>2026-04-24T08:01:41Z</time></trkpt><trkpt lat="45.35089634020288" lon="10.433957568586129"><ele>69.0</ele><time>2026-04-24T08:01:42Z</time></trkpt><trkpt lat="45.35070126722533" lon="10.433980075781434"><ele>69.0</ele><time>2026-04-24T08:01:43Z</time></trkpt><trkpt lat="45.350504857295114" lon="10.43399662406503"><ele>69.0</ele><time>2026-04-24T08:01:44Z</time></trkpt><trkpt lat="45.350309050761716" lon="10.434010646811343"><ele>68.66666666666667</ele><time>2026-04-24T08:01:45Z</time></trkpt><trkpt lat="45.35011326075269" lon="10.434027230389038"><ele>68.33333333333334</ele><time>2026-04-24T08:01:46Z</time></trkpt><trkpt lat="45.34992313418801" lon="10.434043434142033"><ele>68.0</ele><time>2026-04-24T08:01:47Z</time></trkpt><trkpt lat="45.34972968289295" lon="10.434056585260546"><ele>68.33333333333334</ele><time>2026-04-24T08:01:48Z</time></trkpt><trkpt lat="45.34953891695302" lon="10.434073323834566"><ele>68.66666666666667</ele><time>2026-04-24T08:01:49Z</time></trkpt><trkpt lat="45.34934783364778" lon="10.434092579071159"><ele>69.0</ele><time>2026-04-24T08:01:50Z</time></trkpt><trkpt lat="45.349157449627484" lon="10.434110186497831"><ele>69.0</ele><time>2026-04-24T08:01:51Z</time></trkpt><trkpt lat="45.34896881941369" lon="10.434128846994701"><ele>69.0</ele><time>2026-04-24T08:01:52Z</time></trkpt><trkpt lat="45.348780775217875" lon="10.434148234749147"><ele>69.0</ele><time>2026-04-24T08:01:53Z</time></trkpt><trkpt lat="45.34859347587412" lon="10.434182193628208"><ele>69.33333333333333</ele><time>2026-04-24T08:01:54Z</time></trkpt><trkpt lat="45.34840967130083" lon="10.434235790680372"><ele>69.66666666666666</ele><time>2026-04-24T08:01:55Z</time></trkpt><trkpt lat="45.34822752100256" lon="10.434307987143407"><ele>70.0</ele><time>2026-04-24T08:01:56Z</time></trkpt><trkpt lat="45.34804671489981" lon="10.434389406504499"><ele>69.33333333333333</ele><time>2026-04-24T08:01:57Z</time></trkpt><trkpt lat="45.34787047024131" lon="10.434477322367067"><ele>68.66666666666667</ele><time>2026-04-24T08:01:58Z</time></trkpt><trkpt lat="45.347693839140376" lon="10.43455940475173"><ele>68.0</ele><time>2026-04-24T08:01:59Z</time></trkpt><trkpt lat="45.34751669152291" lon="10.434642656490762"><ele>67.66666666666667</ele><time>2026-04-24T08:02:00Z</time></trkpt><trkpt lat="45.3473357191318" lon="10.434722841216152"><ele>67.33333333333333</ele><time>2026-04-24T08:02:01Z</time></trkpt><trkpt lat="45.34715374425859" lon="10.4347962003348"><ele>67.0</ele><time>2026-04-24T08:02:02Z</time></trkpt><trkpt lat="45.346968468136275" lon="10.434854708522444"><ele>66.66666666666666</ele><time>2026-04-24T08:02:03Z</time></trkpt><trkpt lat="45.34677700645395" lon="10.434902286205167"><ele>66.33333333333333</ele><time>2026-04-24T08:02:04Z</time></trkpt><trkpt lat="45.34658562446371" lon="10.43495052539581"><ele>66.0</ele><time>2026-04-24T08:02:05Z</time></trkpt><trkpt lat="45.34639125264063" lon="10.435007566338069"><ele>65.66666666666667</ele><time>2026-04-24T08:02:06Z</time></trkpt><trkpt lat="45.3461959720032" lon="10.435073070635266"><ele>65.33333333333334</ele><time>2026-04-24T08:02:07Z</time></trkpt><trkpt lat="45.345996655089934" lon="10.435130275640153"><ele>65.0</ele><time>2026-04-24T08:02:08Z</time></trkpt><trkpt lat="45.34579062280564" lon="10.43518195386879"><ele>65.0</ele><time>2026-04-24T08:02:09Z</time></trkpt><trkpt lat="45.345580577234685" lon="10.435230730982703"><ele>65.0</ele><time>2026-04-24T08:02:10Z</time></trkpt><trkpt lat="45.34537321793039" lon="10.435281993010445"><ele>65.0</ele><time>2026-04-24T08:02:11Z</time></trkpt><trkpt lat="45.34516371622373" lon="10.435326589740626"><ele>64.66666666666667</ele><time>2026-04-24T08:02:12Z</time></trkpt><trkpt lat="45.34494928873115" lon="10.435367809900944"><ele>64.33333333333333</ele><time>2026-04-24T08:02:13Z</time></trkpt><trkpt lat="45.344734165119476" lon="10.435411712663088"><ele>64.0</ele><time>2026-04-24T08:02:14Z</time></trkpt><trkpt lat="45.344536365967954" lon="10.435482203410933"><ele>63.666666666666664</ele><time>2026-04-24T08:02:15Z</time></trkpt><trkpt lat="45.344350389290554" lon="10.435543207015115"><ele>63.33333333333333</ele><time>2026-04-24T08:02:16Z</time></trkpt><trkpt lat="45.344184151595115" lon="10.435635656900855"><ele>63.0</ele><time>2026-04-24T08:02:17Z</time></trkpt><trkpt lat="45.34403199966757" lon="10.435750470138908"><ele>63.0</ele><time>2026-04-24T08:02:18Z</time></trkpt><trkpt lat="45.34388552778929" lon="10.435885843699651"><ele>63.0</ele><time>2026-04-24T08:02:19Z</time></trkpt><trkpt lat="45.34374215226254" lon="10.436043924249587"><ele>63.0</ele><time>2026-04-24T08:02:20Z</time></trkpt><trkpt lat="45.34360987839992" lon="10.436220550363029"><ele>62.66666666666667</ele><time>2026-04-24T08:02:21Z</time></trkpt><trkpt lat="45.34348537773634" lon="10.43641081829592"><ele>62.333333333333336</ele><time>2026-04-24T08:02:22Z</time></trkpt><trkpt lat="45.343359573973125" lon="10.436599812810252"><ele>62.0</ele><time>2026-04-24T08:02:23Z</time></trkpt><trkpt lat="45.34323485266139" lon="10.436792086491367"><ele>62.0</ele><time>2026-04-24T08:02:24Z</time></trkpt><trkpt lat="45.34310750705972" lon="10.436983328912689"><ele>62.0</ele><time>2026-04-24T08:02:25Z</time></trkpt><trkpt lat="45.34298457654384" lon="10.437179703899984"><ele>62.0</ele><time>2026-04-24T08:02:26Z</time></trkpt><trkpt lat="45.34286220222041" lon="10.43736726982669"><ele>62.25</ele><time>2026-04-24T08:02:27Z</time></trkpt><trkpt lat="45.34274657743945" lon="10.437539431304254"><ele>62.5</ele><time>2026-04-24T08:02:28Z</time></trkpt><trkpt lat="45.3426446210134" lon="10.437688032782772"><ele>62.75</ele><time>2026-04-24T08:02:29Z</time></trkpt><trkpt lat="45.34255518820639" lon="10.4378119863892"><ele>63.0</ele><time>2026-04-24T08:02:30Z</time></trkpt><trkpt lat="45.34248125142997" lon="10.437911888822654"><ele>63.0</ele><time>2026-04-24T08:02:31Z</time></trkpt><trkpt lat="45.342408377091594" lon="10.437977172411854"><ele>63.0</ele><time>2026-04-24T08:02:32Z</time></trkpt><trkpt lat="45.342332852747056" lon="10.438009645271682"><ele>63.0</ele><time>2026-04-24T08:02:33Z</time></trkpt><trkpt lat="45.34224422447065" lon="10.43801985221703"><ele>63.0</ele><time>2026-04-24T08:02:34Z</time></trkpt><trkpt lat="45.3421455661564" lon="10.43802413530268"><ele>63.0</ele><time>2026-04-24T08:02:35Z</time></trkpt><trkpt lat="45.34204387735313" lon="10.43805250392321"><ele>63.0</ele><time>2026-04-24T08:02:36Z</time></trkpt><trkpt lat="45.34195512150416" lon="10.43812705871103"><ele>63.0</ele><time>2026-04-24T08:02:37Z</time></trkpt><trkpt lat="45.341886210131236" lon="10.438252289591166"><ele>63.0</ele><time>2026-04-24T08:02:38Z</time></trkpt><trkpt lat="45.3418451061487" lon="10.438412000022517"><ele>63.0</ele><time>2026-04-24T08:02:39Z</time></trkpt><trkpt lat="45.34183300689308" lon="10.438592391539213"><ele>63.0</ele><time>2026-04-24T08:02:40Z</time></trkpt><trkpt lat="45.34186472458185" lon="10.43875614104695"><ele>63.0</ele><time>2026-04-24T08:02:41Z</time></trkpt><trkpt lat="45.341911060929405" lon="10.43891818080638"><ele>63.0</ele><time>2026-04-24T08:02:42Z</time></trkpt><trkpt lat="45.341732747235675" lon="10.43908463086921"><ele>63.0</ele><time>2026-04-24T08:02:43Z</time></trkpt><trkpt lat="45.341632443547105" lon="10.439239207449589"><ele>63.0</ele><time>2026-04-24T08:02:44Z</time></trkpt><trkpt lat="45.34152420364301" lon="10.439404949963757"><ele>63.0</ele><time>2026-04-24T08:02:45Z</time></trkpt><trkpt lat="45.34140944311268" lon="10.439582941129565"><ele>62.66666666666667</ele><time>2026-04-24T08:02:46Z</time></trkpt><trkpt lat="45.34128776569834" lon="10.43976923153134"><ele>62.333333333333336</ele><time>2026-04-24T08:02:47Z</time></trkpt><trkpt lat="45.34115890138311" lon="10.439953306785867"><ele>62.0</ele><time>2026-04-24T08:02:48Z</time></trkpt><trkpt lat="45.34101269949482" lon="10.440108124326272"><ele>62.0</ele><time>2026-04-24T08:02:49Z</time></trkpt><trkpt lat="45.34084569238096" lon="10.440229384536288"><ele>62.0</ele><time>2026-04-24T08:02:50Z</time></trkpt><trkpt lat="45.34066369486259" lon="10.440307743568782"><ele>62.0</ele><time>2026-04-24T08:02:51Z</time></trkpt><trkpt lat="45.3404711299861" lon="10.440346879774394"><ele>62.333333333333336</ele><time>2026-04-24T08:02:52Z</time></trkpt><trkpt lat="45.34027337497911" lon="10.440374879959986"><ele>62.66666666666667</ele><time>2026-04-24T08:02:53Z</time></trkpt><trkpt lat="45.34007403072293" lon="10.440404801309304"><ele>63.0</ele><time>2026-04-24T08:02:54Z</time></trkpt><trkpt lat="45.33987349940795" lon="10.440436286082305"><ele>62.0</ele><time>2026-04-24T08:02:55Z</time></trkpt><trkpt lat="45.339672492536245" lon="10.440489727823392"><ele>61.0</ele><time>2026-04-24T08:02:56Z</time></trkpt><trkpt lat="45.33946548386732" lon="10.440518065703879"><ele>60.0</ele><time>2026-04-24T08:02:57Z</time></trkpt><trkpt lat="45.33925492521494" lon="10.440551523197193"><ele>60.0</ele><time>2026-04-24T08:02:58Z</time></trkpt><trkpt lat="45.33903837973212" lon="10.440590263487385"><ele>60.0</ele><time>2026-04-24T08:02:59Z</time></trkpt><trkpt lat="45.338821198987546" lon="10.440628662810896"><ele>60.0</ele><time>2026-04-24T08:03:00Z</time></trkpt><trkpt lat="45.338600164968355" lon="10.440667705469473"><ele>60.0</ele><time>2026-04-24T08:03:01Z</time></trkpt><trkpt lat="45.33837740763149" lon="10.440710012777211"><ele>60.0</ele><time>2026-04-24T08:03:02Z</time></trkpt><trkpt lat="45.338150934679504" lon="10.440753145872131"><ele>59.0</ele><time>2026-04-24T08:03:03Z</time></trkpt><trkpt lat="45.337923724009926" lon="10.440793530370861"><ele>58.0</ele><time>2026-04-24T08:03:04Z</time></trkpt><trkpt lat="45.33770421419738" lon="10.440830790229066"><ele>58.0</ele><time>2026-04-24T08:03:05Z</time></trkpt><trkpt lat="45.33748828542206" lon="10.440867550941606"><ele>58.0</ele><time>2026-04-24T08:03:06Z</time></trkpt><trkpt lat="45.33727403629372" lon="10.440901966290214"><ele>58.0</ele><time>2026-04-24T08:03:07Z</time></trkpt><trkpt lat="45.33706362640617" lon="10.44093850600149"><ele>58.33333333333333</ele><time>2026-04-24T08:03:08Z</time></trkpt><trkpt lat="45.33685211383075" lon="10.440974143458883"><ele>58.66666666666667</ele><time>2026-04-24T08:03:09Z</time></trkpt><trkpt lat="45.33664013371865" lon="10.441004990304661"><ele>59.0</ele><time>2026-04-24T08:03:10Z</time></trkpt><trkpt lat="45.336432998875296" lon="10.441041386137762"><ele>59.66666666666667</ele><time>2026-04-24T08:03:11Z</time></trkpt><trkpt lat="45.33623135832017" lon="10.441084385257923"><ele>60.33333333333333</ele><time>2026-04-24T08:03:12Z</time></trkpt><trkpt lat="45.33602561636331" lon="10.441122900797085"><ele>61.0</ele><time>2026-04-24T08:03:13Z</time></trkpt><trkpt lat="45.335820449522124" lon="10.441158988434973"><ele>61.0</ele><time>2026-04-24T08:03:14Z</time></trkpt><trkpt lat="45.33561673508149" lon="10.4411948947829"><ele>61.0</ele><time>2026-04-24T08:03:15Z</time></trkpt><trkpt lat="45.33541556933876" lon="10.441226191255693"><ele>61.0</ele><time>2026-04-24T08:03:16Z</time></trkpt><trkpt lat="45.33521450024187" lon="10.441259367951567"><ele>60.666666666666664</ele><time>2026-04-24T08:03:17Z</time></trkpt><trkpt lat="45.335011748779806" lon="10.441263158143103"><ele>60.33333333333333</ele><time>2026-04-24T08:03:18Z</time></trkpt><trkpt lat="45.33480938618" lon="10.441289239498758"><ele>60.0</ele><time>2026-04-24T08:03:19Z</time></trkpt><trkpt lat="45.33460695992367" lon="10.441334919266351"><ele>59.66666666666667</ele><time>2026-04-24T08:03:20Z</time></trkpt><trkpt lat="45.33439907788672" lon="10.441355024696016"><ele>59.333333333333336</ele><time>2026-04-24T08:03:21Z</time></trkpt><trkpt lat="45.33419270456121" lon="10.44137801426547"><ele>59.0</ele><time>2026-04-24T08:03:22Z</time></trkpt><trkpt lat="45.333984846887255" lon="10.441406850335033"><ele>59.0</ele><time>2026-04-24T08:03:23Z</time></trkpt><trkpt lat="45.33377891833266" lon="10.441438071830012"><ele>59.0</ele><time>2026-04-24T08:03:24Z</time></trkpt><trkpt lat="45.33357215687794" lon="10.441467644056111"><ele>59.0</ele><time>2026-04-24T08:03:25Z</time></trkpt><trkpt lat="45.333363740410356" lon="10.441494417624096"><ele>59.0</ele><time>2026-04-24T08:03:26Z</time></trkpt><trkpt lat="45.33315884623777" lon="10.441523821921027"><ele>59.0</ele><time>2026-04-24T08:03:27Z</time></trkpt><trkpt lat="45.332948958360525" lon="10.44154811411017"><ele>59.0</ele><time>2026-04-24T08:03:28Z</time></trkpt><trkpt lat="45.33273992064103" lon="10.441571933079125"><ele>59.0</ele><time>2026-04-24T08:03:29Z</time></trkpt><trkpt lat="45.332527932655346" lon="10.44159543348993"><ele>59.0</ele><time>2026-04-24T08:03:30Z</time></trkpt><trkpt lat="45.33231321199849" lon="10.441619084844799"><ele>59.0</ele><time>2026-04-24T08:03:31Z</time></trkpt><trkpt lat="45.33209469513414" lon="10.441648625591638"><ele>58.66666666666667</ele><time>2026-04-24T08:03:32Z</time></trkpt><trkpt lat="45.33187940955083" lon="10.441679439269503"><ele>58.33333333333333</ele><time>2026-04-24T08:03:33Z</time></trkpt><trkpt lat="45.331661580672844" lon="10.441710827364682"><ele>58.0</ele><time>2026-04-24T08:03:34Z</time></trkpt><trkpt lat="45.33144104663614" lon="10.44173536742754"><ele>58.5</ele><time>2026-04-24T08:03:35Z</time></trkpt><trkpt lat="45.33121612160912" lon="10.44176397571515"><ele>59.0</ele><time>2026-04-24T08:03:36Z</time></trkpt><trkpt lat="45.3309919374033" lon="10.441788778574477"><ele>59.0</ele><time>2026-04-24T08:03:37Z</time></trkpt><trkpt lat="45.33076941542593" lon="10.441811001819838"><ele>59.0</ele><time>2026-04-24T08:03:38Z</time></trkpt><trkpt lat="45.330544366307144" lon="10.441844563404953"><ele>59.0</ele><time>2026-04-24T08:03:39Z</time></trkpt><trkpt lat="45.33031986612371" lon="10.441877950868925"><ele>58.66666666666667</ele><time>2026-04-24T08:03:40Z</time></trkpt><trkpt lat="45.33009975511243" lon="10.441910299348638"><ele>58.33333333333333</ele><time>2026-04-24T08:03:41Z</time></trkpt><trkpt lat="45.32987473748067" lon="10.441939052188042"><ele>58.0</ele><time>2026-04-24T08:03:42Z</time></trkpt><trkpt lat="45.32965009900341" lon="10.441969976551226"><ele>57.666666666666664</ele><time>2026-04-24T08:03:43Z</time></trkpt><trkpt lat="45.32942857403562" lon="10.44200139455433"><ele>57.33333333333333</ele><time>2026-04-24T08:03:44Z</time></trkpt><trkpt lat="45.32920511708021" lon="10.442030148769442"><ele>57.0</ele><time>2026-04-24T08:03:45Z</time></trkpt><trkpt lat="45.32897977836774" lon="10.442048856790807"><ele>57.33333333333333</ele><time>2026-04-24T08:03:46Z</time></trkpt><trkpt lat="45.328756725063386" lon="10.442079225780878"><ele>57.666666666666664</ele><time>2026-04-24T08:03:47Z</time></trkpt><trkpt lat="45.328534046116474" lon="10.442108697419808"><ele>58.0</ele><time>2026-04-24T08:03:48Z</time></trkpt><trkpt lat="45.328311640554986" lon="10.442138481457299"><ele>58.0</ele><time>2026-04-24T08:03:49Z</time></trkpt><trkpt lat="45.32808698771263" lon="10.442165939532103"><ele>58.0</ele><time>2026-04-24T08:03:50Z</time></trkpt><trkpt lat="45.32786361738714" lon="10.442195037401861"><ele>57.0</ele><time>2026-04-24T08:03:51Z</time></trkpt><trkpt lat="45.32763824406924" lon="10.44222347825235"><ele>56.0</ele><time>2026-04-24T08:03:52Z</time></trkpt><trkpt lat="45.32741295294249" lon="10.442254565804573"><ele>56.333333333333336</ele><time>2026-04-24T08:03:53Z</time></trkpt><trkpt lat="45.32718916556113" lon="10.44229024106794"><ele>56.66666666666667</ele><time>2026-04-24T08:03:54Z</time></trkpt><trkpt lat="45.326966870902325" lon="10.442321610589776"><ele>57.0</ele><time>2026-04-24T08:03:55Z</time></trkpt><trkpt lat="45.32674389581359" lon="10.442352468448721"><ele>57.0</ele><time>2026-04-24T08:03:56Z</time></trkpt><trkpt lat="45.326519753372736" lon="10.442375673294935"><ele>57.0</ele><time>2026-04-24T08:03:57Z</time></trkpt><trkpt lat="45.32629764737502" lon="10.442405600824577"><ele>57.0</ele><time>2026-04-24T08:03:58Z</time></trkpt><trkpt lat="45.32607434223817" lon="10.44243501907742"><ele>56.66666666666667</ele><time>2026-04-24T08:03:59Z</time></trkpt><trkpt lat="45.325852527152435" lon="10.44246485962069"><ele>56.333333333333336</ele><time>2026-04-24T08:04:00Z</time></trkpt><trkpt lat="45.32562993639335" lon="10.44249586543207"><ele>56.0</ele><time>2026-04-24T08:04:01Z</time></trkpt><trkpt lat="45.32540564031633" lon="10.442524652686133"><ele>56.0</ele><time>2026-04-24T08:04:02Z</time></trkpt><trkpt lat="45.32518168451524" lon="10.442553525045415"><ele>56.0</ele><time>2026-04-24T08:04:03Z</time></trkpt><trkpt lat="45.324958490218336" lon="10.442578840499598"><ele>56.0</ele><time>2026-04-24T08:04:04Z</time></trkpt><trkpt lat="45.32473305306517" lon="10.442597687879067"><ele>55.5</ele><time>2026-04-24T08:04:05Z</time></trkpt><trkpt lat="45.32450740941759" lon="10.442603775184574"><ele>55.0</ele><time>2026-04-24T08:04:06Z</time></trkpt><trkpt lat="45.32428186080524" lon="10.44259616204328"><ele>55.0</ele><time>2026-04-24T08:04:07Z</time></trkpt><trkpt lat="45.32405508169525" lon="10.442581639782302"><ele>55.0</ele><time>2026-04-24T08:04:08Z</time></trkpt><trkpt lat="45.323831259536874" lon="10.442574868341147"><ele>55.5</ele><time>2026-04-24T08:04:09Z</time></trkpt><trkpt lat="45.32360544936707" lon="10.442567835867255"><ele>56.0</ele><time>2026-04-24T08:04:10Z</time></trkpt><trkpt lat="45.323381472641415" lon="10.442559357019674"><ele>56.0</ele><time>2026-04-24T08:04:11Z</time></trkpt><trkpt lat="45.32315792534309" lon="10.442558337580056"><ele>56.0</ele><time>2026-04-24T08:04:12Z</time></trkpt><trkpt lat="45.32293394233614" lon="10.44255729458476"><ele>56.0</ele><time>2026-04-24T08:04:13Z</time></trkpt><trkpt lat="45.322708322052115" lon="10.442551494404574"><ele>55.0</ele><time>2026-04-24T08:04:14Z</time></trkpt><trkpt lat="45.32250303391561" lon="10.442546718099544"><ele>54.0</ele><time>2026-04-24T08:04:15Z</time></trkpt><trkpt lat="45.32231223067563" lon="10.442542061430656"><ele>53.0</ele><time>2026-04-24T08:04:16Z</time></trkpt><trkpt lat="45.32212272538856" lon="10.442534465888928"><ele>53.0</ele><time>2026-04-24T08:04:17Z</time></trkpt><trkpt lat="45.32193393776757" lon="10.442531995982783"><ele>53.0</ele><time>2026-04-24T08:04:18Z</time></trkpt><trkpt lat="45.3217469800214" lon="10.44253123453343"><ele>53.0</ele><time>2026-04-24T08:04:19Z</time></trkpt><trkpt lat="45.321568946355804" lon="10.442525971486685"><ele>53.0</ele><time>2026-04-24T08:04:20Z</time></trkpt><trkpt lat="45.32140445336769" lon="10.442521911881272"><ele>53.0</ele><time>2026-04-24T08:04:21Z</time></trkpt><trkpt lat="45.32124786693321" lon="10.44251878825094"><ele>53.0</ele><time>2026-04-24T08:04:22Z</time></trkpt><trkpt lat="45.32110092036715" lon="10.442522715914045"><ele>53.25</ele><time>2026-04-24T08:04:23Z</time></trkpt><trkpt lat="45.320958691720904" lon="10.442550576796197"><ele>53.5</ele><time>2026-04-24T08:04:24Z</time></trkpt><trkpt lat="45.320822446966325" lon="10.442620064941737"><ele>53.75</ele><time>2026-04-24T08:04:25Z</time></trkpt><trkpt lat="45.32069972065151" lon="10.442737953649063"><ele>54.0</ele><time>2026-04-24T08:04:26Z</time></trkpt><trkpt lat="45.320591660896994" lon="10.44288906170868"><ele>53.75</ele><time>2026-04-24T08:04:27Z</time></trkpt><trkpt lat="45.32050568951519" lon="10.443070179678948"><ele>53.5</ele><time>2026-04-24T08:04:28Z</time></trkpt><trkpt lat="45.32045942585282" lon="10.44326173112359"><ele>53.25</ele><time>2026-04-24T08:04:29Z</time></trkpt><trkpt lat="45.320437472302956" lon="10.443475556534489"><ele>53.0</ele><time>2026-04-24T08:04:30Z</time></trkpt><trkpt lat="45.32043790489374" lon="10.443714120080879"><ele>53.0</ele><time>2026-04-24T08:04:31Z</time></trkpt><trkpt lat="45.320445240146014" lon="10.443975917033791"><ele>53.0</ele><time>2026-04-24T08:04:32Z</time></trkpt><trkpt lat="45.32044797625682" lon="10.44425560214659"><ele>53.0</ele><time>2026-04-24T08:04:33Z</time></trkpt><trkpt lat="45.32044557857895" lon="10.444546129490897"><ele>53.333333333333336</ele><time>2026-04-24T08:04:34Z</time></trkpt><trkpt lat="45.320442068633895" lon="10.444848380138405"><ele>53.66666666666667</ele><time>2026-04-24T08:04:35Z</time></trkpt><trkpt lat="45.320439144963075" lon="10.445165842972484"><ele>54.0</ele><time>2026-04-24T08:04:36Z</time></trkpt><trkpt lat="45.320436396807445" lon="10.445494291625957"><ele>54.5</ele><time>2026-04-24T08:04:37Z</time></trkpt><trkpt lat="45.32043140203861" lon="10.445827624797639"><ele>55.0</ele><time>2026-04-24T08:04:38Z</time></trkpt><trkpt lat="45.3204217197191" lon="10.446159021760154"><ele>55.5</ele><time>2026-04-24T08:04:39Z</time></trkpt><trkpt lat="45.320406465365686" lon="10.446489879135708"><ele>56.0</ele><time>2026-04-24T08:04:40Z</time></trkpt><trkpt lat="45.32038706169541" lon="10.446814335639703"><ele>55.5</ele><time>2026-04-24T08:04:41Z</time></trkpt><trkpt lat="45.32036276290817" lon="10.447140147596535"><ele>55.0</ele><time>2026-04-24T08:04:42Z</time></trkpt><trkpt lat="45.32034033132958" lon="10.447464202195949"><ele>55.0</ele><time>2026-04-24T08:04:43Z</time></trkpt><trkpt lat="45.32032150400196" lon="10.447792368028354"><ele>55.0</ele><time>2026-04-24T08:04:44Z</time></trkpt><trkpt lat="45.320309002846784" lon="10.448114729181036"><ele>55.5</ele><time>2026-04-24T08:04:45Z</time></trkpt><trkpt lat="45.3202987740541" lon="10.448431873831073"><ele>56.0</ele><time>2026-04-24T08:04:46Z</time></trkpt><trkpt lat="45.32028991526492" lon="10.44875363924152"><ele>56.0</ele><time>2026-04-24T08:04:47Z</time></trkpt><trkpt lat="45.32028150171583" lon="10.449075008076258"><ele>56.0</ele><time>2026-04-24T08:04:48Z</time></trkpt><trkpt lat="45.320272140537135" lon="10.449399612127706"><ele>56.0</ele><time>2026-04-24T08:04:49Z</time></trkpt><trkpt lat="45.320260966900435" lon="10.44972205409415"><ele>56.0</ele><time>2026-04-24T08:04:50Z</time></trkpt><trkpt lat="45.32024932917098" lon="10.450048736224145"><ele>56.0</ele><time>2026-04-24T08:04:51Z</time></trkpt><trkpt lat="45.320236192549686" lon="10.450367673267936"><ele>56.0</ele><time>2026-04-24T08:04:52Z</time></trkpt><trkpt lat="45.320223609545224" lon="10.450690674341109"><ele>55.5</ele><time>2026-04-24T08:04:53Z</time></trkpt><trkpt lat="45.32021395335801" lon="10.451014171524088"><ele>55.0</ele><time>2026-04-24T08:04:54Z</time></trkpt><trkpt lat="45.32020349795625" lon="10.451336477424427"><ele>55.0</ele><time>2026-04-24T08:04:55Z</time></trkpt><trkpt lat="45.3201925869728" lon="10.451658925827493"><ele>55.0</ele><time>2026-04-24T08:04:56Z</time></trkpt><trkpt lat="45.32018281346522" lon="10.451981395235025"><ele>55.0</ele><time>2026-04-24T08:04:57Z</time></trkpt><trkpt lat="45.32017383385053" lon="10.452306029545497"><ele>55.0</ele><time>2026-04-24T08:04:58Z</time></trkpt><trkpt lat="45.320163625282284" lon="10.452626527203167"><ele>55.0</ele><time>2026-04-24T08:04:59Z</time></trkpt><trkpt lat="45.32014863245014" lon="10.452948357057565"><ele>55.0</ele><time>2026-04-24T08:05:00Z</time></trkpt><trkpt lat="45.320132277599065" lon="10.453269125878554"><ele>55.5</ele><time>2026-04-24T08:05:01Z</time></trkpt><trkpt lat="45.3201178839792" lon="10.453592162983528"><ele>56.0</ele><time>2026-04-24T08:05:02Z</time></trkpt><trkpt lat="45.32010523300096" lon="10.453918258242174"><ele>56.0</ele><time>2026-04-24T08:05:03Z</time></trkpt><trkpt lat="45.32009660814008" lon="10.45424105286028"><ele>56.0</ele><time>2026-04-24T08:05:04Z</time></trkpt><trkpt lat="45.320088338330415" lon="10.454562677997776"><ele>54.0</ele><time>2026-04-24T08:05:05Z</time></trkpt><trkpt lat="45.320079908565255" lon="10.454887314780871"><ele>52.0</ele><time>2026-04-24T08:05:06Z</time></trkpt><trkpt lat="45.32006932849308" lon="10.455211226011947"><ele>52.5</ele><time>2026-04-24T08:05:07Z</time></trkpt><trkpt lat="45.320058990100556" lon="10.455537726136466"><ele>53.0</ele><time>2026-04-24T08:05:08Z</time></trkpt><trkpt lat="45.320048542219425" lon="10.455862092880626"><ele>53.0</ele><time>2026-04-24T08:05:09Z</time></trkpt><trkpt lat="45.32003755855701" lon="10.456186567755871"><ele>53.0</ele><time>2026-04-24T08:05:10Z</time></trkpt><trkpt lat="45.3200274553302" lon="10.45650850864158"><ele>53.66666666666667</ele><time>2026-04-24T08:05:11Z</time></trkpt><trkpt lat="45.320020590611435" lon="10.456818305181839"><ele>54.33333333333333</ele><time>2026-04-24T08:05:12Z</time></trkpt><trkpt lat="45.3200133731852" lon="10.457107186102311"><ele>55.0</ele><time>2026-04-24T08:05:13Z</time></trkpt><trkpt lat="45.32000509382455" lon="10.45737636910789"><ele>55.0</ele><time>2026-04-24T08:05:14Z</time></trkpt><trkpt lat="45.319995959834294" lon="10.457634204140337"><ele>55.0</ele><time>2026-04-24T08:05:15Z</time></trkpt><trkpt lat="45.31996613663201" lon="10.45787051130036"><ele>55.0</ele><time>2026-04-24T08:05:16Z</time></trkpt><trkpt lat="45.319929118487416" lon="10.458088471937497"><ele>54.666666666666664</ele><time>2026-04-24T08:05:17Z</time></trkpt><trkpt lat="45.3198672877966" lon="10.458285069736643"><ele>54.33333333333333</ele><time>2026-04-24T08:05:18Z</time></trkpt><trkpt lat="45.31978278367341" lon="10.458465625804761"><ele>54.0</ele><time>2026-04-24T08:05:19Z</time></trkpt><trkpt lat="45.31967214447182" lon="10.458607271787628"><ele>54.0</ele><time>2026-04-24T08:05:20Z</time></trkpt><trkpt lat="45.3195472372145" lon="10.45871130664544"><ele>54.0</ele><time>2026-04-24T08:05:21Z</time></trkpt><trkpt lat="45.319408381950204" lon="10.458787146100622"><ele>54.0</ele><time>2026-04-24T08:05:22Z</time></trkpt><trkpt lat="45.31924961244439" lon="10.458831032365875"><ele>54.0</ele><time>2026-04-24T08:05:23Z</time></trkpt><trkpt lat="45.319074119934406" lon="10.458881121603477"><ele>54.0</ele><time>2026-04-24T08:05:24Z</time></trkpt><trkpt lat="45.318894991095966" lon="10.4589322487254"><ele>54.0</ele><time>2026-04-24T08:05:25Z</time></trkpt><trkpt lat="45.3187105051753" lon="10.459003182266054"><ele>53.66666666666667</ele><time>2026-04-24T08:05:26Z</time></trkpt><trkpt lat="45.31851797839386" lon="10.45904833360442"><ele>53.333333333333336</ele><time>2026-04-24T08:05:27Z</time></trkpt><trkpt lat="45.318320628204205" lon="10.459101317962302"><ele>53.0</ele><time>2026-04-24T08:05:28Z</time></trkpt><trkpt lat="45.3181218387172" lon="10.459160246089159"><ele>53.66666666666667</ele><time>2026-04-24T08:05:29Z</time></trkpt><trkpt lat="45.31792031142495" lon="10.45922085611817"><ele>54.33333333333333</ele><time>2026-04-24T08:05:30Z</time></trkpt><trkpt lat="45.31771516290393" lon="10.459280780386106"><ele>55.0</ele><time>2026-04-24T08:05:31Z</time></trkpt><trkpt lat="45.31750647240406" lon="10.459341139893956"><ele>55.0</ele><time>2026-04-24T08:05:32Z</time></trkpt><trkpt lat="45.31729409919251" lon="10.459401209803502"><ele>55.0</ele><time>2026-04-24T08:05:33Z</time></trkpt><trkpt lat="45.31707606294953" lon="10.459458308507738"><ele>55.0</ele><time>2026-04-24T08:05:34Z</time></trkpt><trkpt lat="45.31685415560194" lon="10.45951847613911"><ele>55.0</ele><time>2026-04-24T08:05:35Z</time></trkpt><trkpt lat="45.316634974894846" lon="10.459579295760191"><ele>55.0</ele><time>2026-04-24T08:05:36Z</time></trkpt><trkpt lat="45.31642421733521" lon="10.459647407264232"><ele>55.0</ele><time>2026-04-24T08:05:37Z</time></trkpt><trkpt lat="45.31622110601595" lon="10.459725579784259"><ele>54.33333333333333</ele><time>2026-04-24T08:05:38Z</time></trkpt><trkpt lat="45.31602724350934" lon="10.459820440417"><ele>53.66666666666667</ele><time>2026-04-24T08:05:39Z</time></trkpt><trkpt lat="45.31584242073204" lon="10.459933767379422"><ele>53.0</ele><time>2026-04-24T08:05:40Z</time></trkpt><trkpt lat="45.31566005818213" lon="10.460056726897099"><ele>53.0</ele><time>2026-04-24T08:05:41Z</time></trkpt><trkpt lat="45.31547945472997" lon="10.460186087374728"><ele>53.0</ele><time>2026-04-24T08:05:42Z</time></trkpt><trkpt lat="45.31530341904934" lon="10.460326149425935"><ele>53.0</ele><time>2026-04-24T08:05:43Z</time></trkpt><trkpt lat="45.31513208989361" lon="10.460475477027313"><ele>52.66666666666667</ele><time>2026-04-24T08:05:44Z</time></trkpt><trkpt lat="45.31496668521258" lon="10.460641266604808"><ele>52.33333333333333</ele><time>2026-04-24T08:05:45Z</time></trkpt><trkpt lat="45.314805806882184" lon="10.460816548910564"><ele>52.0</ele><time>2026-04-24T08:05:46Z</time></trkpt><trkpt lat="45.31464118578482" lon="10.460992574886232"><ele>52.0</ele><time>2026-04-24T08:05:47Z</time></trkpt><trkpt lat="45.3144746939145" lon="10.461163120875119"><ele>52.0</ele><time>2026-04-24T08:05:48Z</time></trkpt><trkpt lat="45.314317250103954" lon="10.46134670291069"><ele>52.0</ele><time>2026-04-24T08:05:49Z</time></trkpt><trkpt lat="45.31416711698708" lon="10.461537481796093"><ele>52.0</ele><time>2026-04-24T08:05:50Z</time></trkpt><trkpt lat="45.31401947369312" lon="10.461733611595314"><ele>52.0</ele><time>2026-04-24T08:05:51Z</time></trkpt><trkpt lat="45.31387294992387" lon="10.461934082451025"><ele>52.0</ele><time>2026-04-24T08:05:52Z</time></trkpt><trkpt lat="45.31372613760216" lon="10.462130450523635"><ele>52.33333333333333</ele><time>2026-04-24T08:05:53Z</time></trkpt><trkpt lat="45.313582313916264" lon="10.462333270204049"><ele>52.66666666666667</ele><time>2026-04-24T08:05:54Z</time></trkpt><trkpt lat="45.31343922834169" lon="10.462539444822383"><ele>53.0</ele><time>2026-04-24T08:05:55Z</time></trkpt><trkpt lat="45.313298964196946" lon="10.462744713194525"><ele>53.0</ele><time>2026-04-24T08:05:56Z</time></trkpt><trkpt lat="45.31316461639397" lon="10.46293959063911"><ele>53.0</ele><time>2026-04-24T08:05:57Z</time></trkpt><trkpt lat="45.313038196304404" lon="10.46312058551893"><ele>53.0</ele><time>2026-04-24T08:05:58Z</time></trkpt><trkpt lat="45.31291431770878" lon="10.463286923851896"><ele>53.0</ele><time>2026-04-24T08:05:59Z</time></trkpt><trkpt lat="45.312769244972316" lon="10.46338927827189"><ele>53.0</ele><time>2026-04-24T08:06:00Z</time></trkpt><trkpt lat="45.312626288032796" lon="10.463457252069444"><ele>53.0</ele><time>2026-04-24T08:06:01Z</time></trkpt><trkpt lat="45.312467690323544" lon="10.463504371548966"><ele>53.0</ele><time>2026-04-24T08:06:02Z</time></trkpt><trkpt lat="45.312299786994245" lon="10.463532141715362"><ele>53.0</ele><time>2026-04-24T08:06:03Z</time></trkpt><trkpt lat="45.31211912096538" lon="10.463577003274079"><ele>53.0</ele><time>2026-04-24T08:06:04Z</time></trkpt><trkpt lat="45.31193838083722" lon="10.463651120264819"><ele>53.333333333333336</ele><time>2026-04-24T08:06:05Z</time></trkpt><trkpt lat="45.311760051810154" lon="10.46373183513271"><ele>53.66666666666667</ele><time>2026-04-24T08:06:06Z</time></trkpt><trkpt lat="45.31158965151233" lon="10.46385412557827"><ele>54.0</ele><time>2026-04-24T08:06:07Z</time></trkpt><trkpt lat="45.311430347689495" lon="10.464008012735727"><ele>53.66666666666667</ele><time>2026-04-24T08:06:08Z</time></trkpt><trkpt lat="45.311284249157566" lon="10.464175860389895"><ele>53.333333333333336</ele><time>2026-04-24T08:06:09Z</time></trkpt><trkpt lat="45.31115031701668" lon="10.464338449847888"><ele>53.0</ele><time>2026-04-24T08:06:10Z</time></trkpt><trkpt lat="45.311026311812434" lon="10.464496443403027"><ele>52.333333333333336</ele><time>2026-04-24T08:06:11Z</time></trkpt><trkpt lat="45.31090114969413" lon="10.464639796434982"><ele>51.66666666666667</ele><time>2026-04-24T08:06:12Z</time></trkpt><trkpt lat="45.31077306317436" lon="10.46476289976413"><ele>51.0</ele><time>2026-04-24T08:06:13Z</time></trkpt><trkpt lat="45.310625215521846" lon="10.464823406287511"><ele>51.0</ele><time>2026-04-24T08:06:14Z</time></trkpt><trkpt lat="45.310480738051446" lon="10.4648880872598"><ele>51.0</ele><time>2026-04-24T08:06:15Z</time></trkpt><trkpt lat="45.31033641074154" lon="10.464975672285174"><ele>51.0</ele><time>2026-04-24T08:06:16Z</time></trkpt><trkpt lat="45.31018392268066" lon="10.465033374083283"><ele>51.0</ele><time>2026-04-24T08:06:17Z</time></trkpt><trkpt lat="45.310028464109706" lon="10.465098369460438"><ele>51.0</ele><time>2026-04-24T08:06:18Z</time></trkpt><trkpt lat="45.30987571817159" lon="10.465172385361859"><ele>51.0</ele><time>2026-04-24T08:06:19Z</time></trkpt><trkpt lat="45.309724040239054" lon="10.465250898526094"><ele>51.5</ele><time>2026-04-24T08:06:20Z</time></trkpt><trkpt lat="45.309579520118405" lon="10.465328913535144"><ele>52.0</ele><time>2026-04-24T08:06:21Z</time></trkpt><trkpt lat="45.30944040053219" lon="10.465393060207202"><ele>52.5</ele><time>2026-04-24T08:06:22Z</time></trkpt><trkpt lat="45.309301628430966" lon="10.465402085418582"><ele>53.0</ele><time>2026-04-24T08:06:23Z</time></trkpt><trkpt lat="45.309157647603556" lon="10.46539061531804"><ele>53.0</ele><time>2026-04-24T08:06:24Z</time></trkpt><trkpt lat="45.30900025843176" lon="10.465381409213219"><ele>53.0</ele><time>2026-04-24T08:06:25Z</time></trkpt><trkpt lat="45.30884589054986" lon="10.465407323045598"><ele>53.0</ele><time>2026-04-24T08:06:26Z</time></trkpt><trkpt lat="45.308692538390126" lon="10.465421964055126"><ele>53.0</ele><time>2026-04-24T08:06:27Z</time></trkpt><trkpt lat="45.30853801019573" lon="10.465470163500145"><ele>53.0</ele><time>2026-04-24T08:06:28Z</time></trkpt><trkpt lat="45.30840093983083" lon="10.465558944395557"><ele>53.0</ele><time>2026-04-24T08:06:29Z</time></trkpt><trkpt lat="45.308270402861076" lon="10.465657971652051"><ele>53.0</ele><time>2026-04-24T08:06:30Z</time></trkpt><trkpt lat="45.30814460460217" lon="10.46575269318214"><ele>53.0</ele><time>2026-04-24T08:06:31Z</time></trkpt><trkpt lat="45.30802239447939" lon="10.465825163084874"><ele>53.0</ele><time>2026-04-24T08:06:32Z</time></trkpt><trkpt lat="45.30788588827912" lon="10.465872856502894"><ele>53.0</ele><time>2026-04-24T08:06:33Z</time></trkpt><trkpt lat="45.3077422415423" lon="10.465919284952731"><ele>52.5</ele><time>2026-04-24T08:06:34Z</time></trkpt><trkpt lat="45.30759981014285" lon="10.465958600204395"><ele>52.0</ele><time>2026-04-24T08:06:35Z</time></trkpt><trkpt lat="45.307455864377204" lon="10.46595480283858"><ele>51.5</ele><time>2026-04-24T08:06:36Z</time></trkpt><trkpt lat="45.30731066193303" lon="10.465955177161502"><ele>51.0</ele><time>2026-04-24T08:06:37Z</time></trkpt><trkpt lat="45.30716250100648" lon="10.465947267837887"><ele>51.0</ele><time>2026-04-24T08:06:38Z</time></trkpt><trkpt lat="45.30700813338637" lon="10.4659372556105"><ele>51.0</ele><time>2026-04-24T08:06:39Z</time></trkpt><trkpt lat="45.306849919641714" lon="10.465926993921112"><ele>51.0</ele><time>2026-04-24T08:06:40Z</time></trkpt><trkpt lat="45.30668775234315" lon="10.465916171648498"><ele>51.0</ele><time>2026-04-24T08:06:41Z</time></trkpt><trkpt lat="45.30654297467104" lon="10.465928857199263"><ele>51.0</ele><time>2026-04-24T08:06:42Z</time></trkpt><trkpt lat="45.30642050356459" lon="10.46591868762166"><ele>51.0</ele><time>2026-04-24T08:06:43Z</time></trkpt><trkpt lat="45.306301034299175" lon="10.465906437397893"><ele>51.0</ele><time>2026-04-24T08:06:44Z</time></trkpt><trkpt lat="45.3061832108204" lon="10.465894064648369"><ele>51.25</ele><time>2026-04-24T08:06:45Z</time></trkpt><trkpt lat="45.30605932675346" lon="10.465888619433615"><ele>51.5</ele><time>2026-04-24T08:06:46Z</time></trkpt><trkpt lat="45.30592853168753" lon="10.46588230699169"><ele>51.75</ele><time>2026-04-24T08:06:47Z</time></trkpt><trkpt lat="45.30579296343801" lon="10.465871813080724"><ele>52.0</ele><time>2026-04-24T08:06:48Z</time></trkpt><trkpt lat="45.3056520593271" lon="10.465861848948972"><ele>52.25</ele><time>2026-04-24T08:06:49Z</time></trkpt><trkpt lat="45.30550688067115" lon="10.465847147760767"><ele>52.5</ele><time>2026-04-24T08:06:50Z</time></trkpt><trkpt lat="45.3053616293562" lon="10.46583330953009"><ele>52.75</ele><time>2026-04-24T08:06:51Z</time></trkpt><trkpt lat="45.30522705107265" lon="10.465819585541924"><ele>53.0</ele><time>2026-04-24T08:06:52Z</time></trkpt><trkpt lat="45.30510334651519" lon="10.465805804168182"><ele>53.0</ele><time>2026-04-24T08:06:53Z</time></trkpt><trkpt lat="45.30498724115605" lon="10.46579767875558"><ele>53.0</ele><time>2026-04-24T08:06:54Z</time></trkpt><trkpt lat="45.30488028262567" lon="10.465813949625876"><ele>53.0</ele><time>2026-04-24T08:06:55Z</time></trkpt><trkpt lat="45.3047783179267" lon="10.465861060728649"><ele>53.0</ele><time>2026-04-24T08:06:56Z</time></trkpt><trkpt lat="45.30467513689925" lon="10.465944175332387"><ele>53.0</ele><time>2026-04-24T08:06:57Z</time></trkpt><trkpt lat="45.30456846411057" lon="10.466053470144049"><ele>53.0</ele><time>2026-04-24T08:06:58Z</time></trkpt><trkpt lat="45.30445688196623" lon="10.46618044153806"><ele>53.0</ele><time>2026-04-24T08:06:59Z</time></trkpt><trkpt lat="45.304339785394774" lon="10.466314347424431"><ele>53.0</ele><time>2026-04-24T08:07:00Z</time></trkpt><trkpt lat="45.30421476290161" lon="10.466446525894312"><ele>53.0</ele><time>2026-04-24T08:07:01Z</time></trkpt><trkpt lat="45.304078950711016" lon="10.466579958212524"><ele>53.0</ele><time>2026-04-24T08:07:02Z</time></trkpt><trkpt lat="45.3039356502685" lon="10.46671403810457"><ele>53.0</ele><time>2026-04-24T08:07:03Z</time></trkpt><trkpt lat="45.3037873936907" lon="10.466850149975496"><ele>53.333333333333336</ele><time>2026-04-24T08:07:04Z</time></trkpt><trkpt lat="45.30363997109225" lon="10.46698945402122"><ele>53.66666666666667</ele><time>2026-04-24T08:07:05Z</time></trkpt><trkpt lat="45.30349278483162" lon="10.467128361230444"><ele>54.0</ele><time>2026-04-24T08:07:06Z</time></trkpt><trkpt lat="45.30335136772471" lon="10.467259329030105"><ele>54.25</ele><time>2026-04-24T08:07:07Z</time></trkpt><trkpt lat="45.303221342613924" lon="10.467382505304782"><ele>54.5</ele><time>2026-04-24T08:07:08Z</time></trkpt><trkpt lat="45.303097537194894" lon="10.467496572426356"><ele>54.75</ele><time>2026-04-24T08:07:09Z</time></trkpt><trkpt lat="45.30297094541528" lon="10.46758623840917"><ele>55.0</ele><time>2026-04-24T08:07:10Z</time></trkpt><trkpt lat="45.30286349893295" lon="10.467713255637475"><ele>54.5</ele><time>2026-04-24T08:07:11Z</time></trkpt><trkpt lat="45.302747592750826" lon="10.467820688355376"><ele>54.0</ele><time>2026-04-24T08:07:12Z</time></trkpt><trkpt lat="45.302625341457734" lon="10.467928654407034"><ele>53.5</ele><time>2026-04-24T08:07:13Z</time></trkpt><trkpt lat="45.3025008855434" lon="10.468036419825744"><ele>53.0</ele><time>2026-04-24T08:07:14Z</time></trkpt><trkpt lat="45.30237672620053" lon="10.468146609957332"><ele>52.75</ele><time>2026-04-24T08:07:15Z</time></trkpt><trkpt lat="45.30225780738422" lon="10.468256614184455"><ele>52.5</ele><time>2026-04-24T08:07:16Z</time></trkpt><trkpt lat="45.3021481139573" lon="10.468362174827504"><ele>52.25</ele><time>2026-04-24T08:07:17Z</time></trkpt><trkpt lat="45.30204085873654" lon="10.468464322067328"><ele>52.0</ele><time>2026-04-24T08:07:18Z</time></trkpt><trkpt lat="45.30192892680975" lon="10.46856704057067"><ele>52.0</ele><time>2026-04-24T08:07:19Z</time></trkpt><trkpt lat="45.30181698711549" lon="10.468673348135694"><ele>52.0</ele><time>2026-04-24T08:07:20Z</time></trkpt><trkpt lat="45.301704625378385" lon="10.46877749628382"><ele>52.0</ele><time>2026-04-24T08:07:21Z</time></trkpt><trkpt lat="45.30159104880578" lon="10.468877777142502"><ele>52.0</ele><time>2026-04-24T08:07:22Z</time></trkpt><trkpt lat="45.30148255813378" lon="10.468973795388639"><ele>52.0</ele><time>2026-04-24T08:07:23Z</time></trkpt><trkpt lat="45.301381757640115" lon="10.469067722568377"><ele>52.0</ele><time>2026-04-24T08:07:24Z</time></trkpt><trkpt lat="45.30128559510088" lon="10.4691584299942"><ele>52.0</ele><time>2026-04-24T08:07:25Z</time></trkpt><trkpt lat="45.30119310023131" lon="10.469253685007946"><ele>52.0</ele><time>2026-04-24T08:07:26Z</time></trkpt><trkpt lat="45.30110043359158" lon="10.469356598751116"><ele>52.0</ele><time>2026-04-24T08:07:27Z</time></trkpt><trkpt lat="45.30101786119406" lon="10.469482987696658"><ele>52.0</ele><time>2026-04-24T08:07:28Z</time></trkpt><trkpt lat="45.30095120103176" lon="10.469630476070765"><ele>52.0</ele><time>2026-04-24T08:07:29Z</time></trkpt><trkpt lat="45.30088131288865" lon="10.469800068046146"><ele>52.0</ele><time>2026-04-24T08:07:30Z</time></trkpt><trkpt lat="45.3008125913113" lon="10.4699932640909"><ele>52.0</ele><time>2026-04-24T08:07:31Z</time></trkpt><trkpt lat="45.30074358315113" lon="10.470205765545565"><ele>52.0</ele><time>2026-04-24T08:07:32Z</time></trkpt><trkpt lat="45.300673092212854" lon="10.470417521680682"><ele>52.0</ele><time>2026-04-24T08:07:33Z</time></trkpt><trkpt lat="45.30060458761087" lon="10.47063279320485"><ele>52.33333333333333</ele><time>2026-04-24T08:07:34Z</time></trkpt><trkpt lat="45.30051091843299" lon="10.470833794871146"><ele>52.66666666666667</ele><time>2026-04-24T08:07:35Z</time></trkpt><trkpt lat="45.300433809134105" lon="10.471045089145836"><ele>53.0</ele><time>2026-04-24T08:07:36Z</time></trkpt><trkpt lat="45.30035655005264" lon="10.471256792689113"><ele>53.0</ele><time>2026-04-24T08:07:37Z</time></trkpt><trkpt lat="45.30027933224558" lon="10.471467219120218"><ele>53.0</ele><time>2026-04-24T08:07:38Z</time></trkpt><trkpt lat="45.300204124352966" lon="10.471676089850297"><ele>53.0</ele><time>2026-04-24T08:07:39Z</time></trkpt><trkpt lat="45.30013278549332" lon="10.471872570780626"><ele>53.0</ele><time>2026-04-24T08:07:40Z</time></trkpt><trkpt lat="45.3000797614388" lon="10.472055896931533"><ele>53.0</ele><time>2026-04-24T08:07:41Z</time></trkpt><trkpt lat="45.300023901493645" lon="10.472207324139049"><ele>53.0</ele><time>2026-04-24T08:07:42Z</time></trkpt><trkpt lat="45.29998032370307" lon="10.47233794633685"><ele>53.0</ele><time>2026-04-24T08:07:43Z</time></trkpt><trkpt lat="45.29994837690066" lon="10.472450047843129"><ele>53.0</ele><time>2026-04-24T08:07:44Z</time></trkpt><trkpt lat="45.29990990100915" lon="10.472613233176585"><ele>53.0</ele><time>2026-04-24T08:07:46Z</time></trkpt><trkpt lat="45.29987021012326" lon="10.472706222155782"><ele>53.0</ele><time>2026-04-24T08:07:47Z</time></trkpt><trkpt lat="45.299818944714616" lon="10.472815811389639"><ele>53.0</ele><time>2026-04-24T08:07:48Z</time></trkpt><trkpt lat="45.299763035214795" lon="10.472949531027242"><ele>53.0</ele><time>2026-04-24T08:07:49Z</time></trkpt><trkpt lat="45.29970401984228" lon="10.473098296348887"><ele>53.0</ele><time>2026-04-24T08:07:50Z</time></trkpt><trkpt lat="45.299645295298774" lon="10.473256833270646"><ele>53.0</ele><time>2026-04-24T08:07:51Z</time></trkpt><trkpt lat="45.29959346010987" lon="10.473420226225787"><ele>53.0</ele><time>2026-04-24T08:07:52Z</time></trkpt><trkpt lat="45.299554351911425" lon="10.473596716215807"><ele>53.0</ele><time>2026-04-24T08:07:53Z</time></trkpt><trkpt lat="45.29951554993687" lon="10.47378189995097"><ele>53.0</ele><time>2026-04-24T08:07:54Z</time></trkpt><trkpt lat="45.29947822640644" lon="10.473964106666294"><ele>53.0</ele><time>2026-04-24T08:07:55Z</time></trkpt><trkpt lat="45.299428908715825" lon="10.474124673620928"><ele>53.0</ele><time>2026-04-24T08:07:56Z</time></trkpt><trkpt lat="45.299392833438596" lon="10.474282118569624"><ele>53.0</ele><time>2026-04-24T08:07:57Z</time></trkpt><trkpt lat="45.299359082077494" lon="10.47443015505817"><ele>53.0</ele><time>2026-04-24T08:07:58Z</time></trkpt><trkpt lat="45.29932497206816" lon="10.474580775499291"><ele>53.0</ele><time>2026-04-24T08:07:59Z</time></trkpt><trkpt lat="45.29928907708549" lon="10.47473443107139"><ele>53.0</ele><time>2026-04-24T08:08:00Z</time></trkpt><trkpt lat="45.29925808669438" lon="10.474868052017767"><ele>53.0</ele><time>2026-04-24T08:08:01Z</time></trkpt><trkpt lat="45.29923208268392" lon="10.474980668632238"><ele>53.0</ele><time>2026-04-24T08:08:02Z</time></trkpt><trkpt lat="45.2992060658303" lon="10.47509398660108"><ele>53.0</ele><time>2026-04-24T08:08:03Z</time></trkpt><trkpt lat="45.29919172166762" lon="10.475224430837095"><ele>53.0</ele><time>2026-04-24T08:08:04Z</time></trkpt><trkpt lat="45.29915947507609" lon="10.475350909281564"><ele>53.0</ele><time>2026-04-24T08:08:05Z</time></trkpt><trkpt lat="45.299127115848435" lon="10.475486301622185"><ele>53.0</ele><time>2026-04-24T08:08:06Z</time></trkpt><trkpt lat="45.29909428974214" lon="10.475625932181664"><ele>53.0</ele><time>2026-04-24T08:08:07Z</time></trkpt><trkpt lat="45.299063097656756" lon="10.475771593588142"><ele>53.0</ele><time>2026-04-24T08:08:08Z</time></trkpt><trkpt lat="45.29903049664404" lon="10.475919824805183"><ele>53.2</ele><time>2026-04-24T08:08:09Z</time></trkpt><trkpt lat="45.29900393638836" lon="10.476047224171161"><ele>53.4</ele><time>2026-04-24T08:08:10Z</time></trkpt><trkpt lat="45.29897051356729" lon="10.476185687189954"><ele>53.60000000000001</ele><time>2026-04-24T08:08:11Z</time></trkpt><trkpt lat="45.29893807026535" lon="10.476324050848161"><ele>53.800000000000004</ele><time>2026-04-24T08:08:12Z</time></trkpt><trkpt lat="45.29890661072677" lon="10.476447911384652"><ele>54.0</ele><time>2026-04-24T08:08:13Z</time></trkpt><trkpt lat="45.29888066602599" lon="10.47656523686487"><ele>54.0</ele><time>2026-04-24T08:08:14Z</time></trkpt><trkpt lat="45.298852098111134" lon="10.4766890312571"><ele>54.00000000000001</ele><time>2026-04-24T08:08:15Z</time></trkpt><trkpt lat="45.29881997837623" lon="10.476818403377615"><ele>54.00000000000001</ele><time>2026-04-24T08:08:16Z</time></trkpt><trkpt lat="45.29879113605679" lon="10.476953920752253"><ele>54.0</ele><time>2026-04-24T08:08:17Z</time></trkpt><trkpt lat="45.29875456006163" lon="10.477085107011106"><ele>54.0</ele><time>2026-04-24T08:08:18Z</time></trkpt><trkpt lat="45.29873043527568" lon="10.477201216361074"><ele>53.833333333333336</ele><time>2026-04-24T08:08:19Z</time></trkpt><trkpt lat="45.29869820366638" lon="10.477307248377185"><ele>53.66666666666667</ele><time>2026-04-24T08:08:20Z</time></trkpt><trkpt lat="45.29866775334507" lon="10.477402329077865"><ele>53.5</ele><time>2026-04-24T08:08:21Z</time></trkpt><trkpt lat="45.29863552823218" lon="10.477490221875472"><ele>53.333333333333336</ele><time>2026-04-24T08:08:22Z</time></trkpt><trkpt lat="45.29860349813674" lon="10.477572007952029"><ele>53.16666666666667</ele><time>2026-04-24T08:08:23Z</time></trkpt><trkpt lat="45.298534211888885" lon="10.477680533717352"><ele>53.0</ele><time>2026-04-24T08:08:25Z</time></trkpt><trkpt lat="45.29843803840747" lon="10.477720771164632"><ele>53.00000000000001</ele><time>2026-04-24T08:08:27Z</time></trkpt><trkpt lat="45.29836224247805" lon="10.477713189848405"><ele>53.0</ele><time>2026-04-24T08:08:28Z</time></trkpt><trkpt lat="45.29828879765817" lon="10.477656260194717"><ele>53.0</ele><time>2026-04-24T08:08:29Z</time></trkpt><trkpt lat="45.29821608206137" lon="10.477646921657444"><ele>53.0</ele><time>2026-04-24T08:08:30Z</time></trkpt><trkpt lat="45.2981551474569" lon="10.477604709737832"><ele>53.00000000000001</ele><time>2026-04-24T08:08:31Z</time></trkpt><trkpt lat="45.29804993725402" lon="10.477571111635918"><ele>53.0</ele><time>2026-04-24T08:08:33Z</time></trkpt><trkpt lat="45.29797460748966" lon="10.477528535732434"><ele>53.16666666666667</ele><time>2026-04-24T08:08:36Z</time></trkpt><trkpt lat="45.29786693433761" lon="10.477567441371702"><ele>53.333333333333336</ele><time>2026-04-24T08:09:12Z</time></trkpt><trkpt lat="45.29780465767173" lon="10.477519512886992"><ele>53.5</ele><time>2026-04-24T08:09:14Z</time></trkpt><trkpt lat="45.297744508961145" lon="10.47748593313663"><ele>53.66666666666667</ele><time>2026-04-24T08:09:15Z</time></trkpt><trkpt lat="45.29767540016323" lon="10.477450538569656"><ele>53.833333333333336</ele><time>2026-04-24T08:09:16Z</time></trkpt><trkpt lat="45.297617475217685" lon="10.47736044751522"><ele>54.0</ele><time>2026-04-24T08:09:17Z</time></trkpt><trkpt lat="45.297537430514794" lon="10.47732423885923"><ele>54.0</ele><time>2026-04-24T08:09:18Z</time></trkpt><trkpt lat="45.29744969222061" lon="10.47728454949857"><ele>54.00000000000001</ele><time>2026-04-24T08:09:19Z</time></trkpt><trkpt lat="45.29736304696109" lon="10.477244200907741"><ele>54.00000000000001</ele><time>2026-04-24T08:09:20Z</time></trkpt><trkpt lat="45.29727407509641" lon="10.477202035255612"><ele>54.0</ele><time>2026-04-24T08:09:21Z</time></trkpt><trkpt lat="45.29718178468831" lon="10.477172353598691"><ele>54.0</ele><time>2026-04-24T08:09:22Z</time></trkpt><trkpt lat="45.29708293493883" lon="10.477122944457864"><ele>54.25</ele><time>2026-04-24T08:09:23Z</time></trkpt><trkpt lat="45.29697012286301" lon="10.477073208568129"><ele>54.5</ele><time>2026-04-24T08:09:24Z</time></trkpt><trkpt lat="45.29685562953642" lon="10.476990044611883"><ele>54.75</ele><time>2026-04-24T08:09:25Z</time></trkpt><trkpt lat="45.29673253712081" lon="10.47692409855064"><ele>55.0</ele><time>2026-04-24T08:09:26Z</time></trkpt><trkpt lat="45.29660542351101" lon="10.476856938370192"><ele>55.0</ele><time>2026-04-24T08:09:27Z</time></trkpt><trkpt lat="45.296477171610654" lon="10.47679272494491"><ele>55.0</ele><time>2026-04-24T08:09:28Z</time></trkpt><trkpt lat="45.296350976163964" lon="10.476735542076732"><ele>55.0</ele><time>2026-04-24T08:09:29Z</time></trkpt><trkpt lat="45.29622477522146" lon="10.476684689389284"><ele>55.0</ele><time>2026-04-24T08:09:30Z</time></trkpt><trkpt lat="45.29610505096304" lon="10.476640138360725"><ele>54.5</ele><time>2026-04-24T08:09:31Z</time></trkpt><trkpt lat="45.29598168299034" lon="10.476617153820127"><ele>54.0</ele><time>2026-04-24T08:09:32Z</time></trkpt><trkpt lat="45.29585775008677" lon="10.476560899908677"><ele>53.5</ele><time>2026-04-24T08:09:33Z</time></trkpt><trkpt lat="45.29573129568412" lon="10.476513276800064"><ele>53.0</ele><time>2026-04-24T08:09:34Z</time></trkpt><trkpt lat="45.29560526118603" lon="10.476475493303981"><ele>53.0</ele><time>2026-04-24T08:09:35Z</time></trkpt><trkpt lat="45.29549091635169" lon="10.476439779635006"><ele>53.0</ele><time>2026-04-24T08:09:36Z</time></trkpt><trkpt lat="45.29539672431002" lon="10.476407973538157"><ele>53.0</ele><time>2026-04-24T08:09:37Z</time></trkpt><trkpt lat="45.29531321012683" lon="10.476377728150407"><ele>53.0</ele><time>2026-04-24T08:09:38Z</time></trkpt><trkpt lat="45.295234572576774" lon="10.47634915659947"><ele>53.0</ele><time>2026-04-24T08:09:39Z</time></trkpt><trkpt lat="45.295144535972376" lon="10.4763037326225"><ele>53.0</ele><time>2026-04-24T08:09:40Z</time></trkpt><trkpt lat="45.29504133322959" lon="10.476252574292712"><ele>53.0</ele><time>2026-04-24T08:09:41Z</time></trkpt><trkpt lat="45.29492606565129" lon="10.476199451413985"><ele>53.0</ele><time>2026-04-24T08:09:42Z</time></trkpt><trkpt lat="45.29480077472561" lon="10.47613700726056"><ele>53.0</ele><time>2026-04-24T08:09:43Z</time></trkpt><trkpt lat="45.294669481550606" lon="10.476071323587908"><ele>52.75</ele><time>2026-04-24T08:09:44Z</time></trkpt><trkpt lat="45.29453433350362" lon="10.476003866777774"><ele>52.5</ele><time>2026-04-24T08:09:45Z</time></trkpt><trkpt lat="45.294400719140505" lon="10.47594192739055"><ele>52.25</ele><time>2026-04-24T08:09:46Z</time></trkpt><trkpt lat="45.294269746997344" lon="10.475881010740308"><ele>52.0</ele><time>2026-04-24T08:09:47Z</time></trkpt><trkpt lat="45.294143625814066" lon="10.47581797226451"><ele>52.0</ele><time>2026-04-24T08:09:48Z</time></trkpt><trkpt lat="45.29401903071753" lon="10.47574929665852"><ele>52.0</ele><time>2026-04-24T08:09:49Z</time></trkpt><trkpt lat="45.29389446345181" lon="10.47568010845767"><ele>52.0</ele><time>2026-04-24T08:09:50Z</time></trkpt><trkpt lat="45.29377015727528" lon="10.475610788622744"><ele>52.0</ele><time>2026-04-24T08:09:51Z</time></trkpt><trkpt lat="45.293646663492034" lon="10.475540728258672"><ele>51.75</ele><time>2026-04-24T08:09:52Z</time></trkpt><trkpt lat="45.293520111488625" lon="10.475463610627902"><ele>51.5</ele><time>2026-04-24T08:09:53Z</time></trkpt><trkpt lat="45.29339589917402" lon="10.475386602322729"><ele>51.25</ele><time>2026-04-24T08:09:54Z</time></trkpt><trkpt lat="45.293267218345434" lon="10.475308064253271"><ele>51.0</ele><time>2026-04-24T08:09:55Z</time></trkpt><trkpt lat="45.293139111147795" lon="10.475225283592623"><ele>51.0</ele><time>2026-04-24T08:09:56Z</time></trkpt><trkpt lat="45.29300361467784" lon="10.475142056042019"><ele>51.0</ele><time>2026-04-24T08:09:57Z</time></trkpt><trkpt lat="45.29286557498497" lon="10.475055232439868"><ele>51.0</ele><time>2026-04-24T08:09:58Z</time></trkpt><trkpt lat="45.29272343767128" lon="10.474965385252155"><ele>51.0</ele><time>2026-04-24T08:09:59Z</time></trkpt><trkpt lat="45.29257639167674" lon="10.474871303893066"><ele>51.0</ele><time>2026-04-24T08:10:00Z</time></trkpt><trkpt lat="45.29242790458276" lon="10.474780581386547"><ele>51.0</ele><time>2026-04-24T08:10:01Z</time></trkpt><trkpt lat="45.292273274176786" lon="10.474688755818095"><ele>51.0</ele><time>2026-04-24T08:10:02Z</time></trkpt><trkpt lat="45.29211600080838" lon="10.474590303409453"><ele>51.0</ele><time>2026-04-24T08:10:03Z</time></trkpt><trkpt lat="45.29195678978409" lon="10.474488076426832"><ele>51.0</ele><time>2026-04-24T08:10:04Z</time></trkpt><trkpt lat="45.29179813045515" lon="10.474392513346734"><ele>51.0</ele><time>2026-04-24T08:10:05Z</time></trkpt><trkpt lat="45.29163881336486" lon="10.474292907464129"><ele>51.0</ele><time>2026-04-24T08:10:06Z</time></trkpt><trkpt lat="45.29147603217466" lon="10.474199625264305"><ele>51.0</ele><time>2026-04-24T08:10:07Z</time></trkpt><trkpt lat="45.29130956848542" lon="10.474113787661059"><ele>50.66666666666667</ele><time>2026-04-24T08:10:08Z</time></trkpt><trkpt lat="45.291140647699805" lon="10.474034805713599"><ele>50.333333333333336</ele><time>2026-04-24T08:10:09Z</time></trkpt><trkpt lat="45.29097173310556" lon="10.473960209114304"><ele>50.0</ele><time>2026-04-24T08:10:10Z</time></trkpt><trkpt lat="45.29080204750826" lon="10.473897273080507"><ele>50.0</ele><time>2026-04-24T08:10:11Z</time></trkpt><trkpt lat="45.29062464951181" lon="10.473837501065908"><ele>50.0</ele><time>2026-04-24T08:10:12Z</time></trkpt><trkpt lat="45.290439128956294" lon="10.47377748781906"><ele>50.0</ele><time>2026-04-24T08:10:13Z</time></trkpt><trkpt lat="45.290248137415" lon="10.473721981157112"><ele>50.0</ele><time>2026-04-24T08:10:14Z</time></trkpt><trkpt lat="45.29005157357235" lon="10.473672073901584"><ele>50.0</ele><time>2026-04-24T08:10:15Z</time></trkpt><trkpt lat="45.289857382456724" lon="10.473635404031318"><ele>50.0</ele><time>2026-04-24T08:10:16Z</time></trkpt><trkpt lat="45.28966446484158" lon="10.47361408659053"><ele>50.0</ele><time>2026-04-24T08:10:17Z</time></trkpt><trkpt lat="45.28947413804091" lon="10.473604691935318"><ele>50.0</ele><time>2026-04-24T08:10:18Z</time></trkpt><trkpt lat="45.289282283414465" lon="10.473603429420717"><ele>50.0</ele><time>2026-04-24T08:10:19Z</time></trkpt><trkpt lat="45.28909333146021" lon="10.47360589561776"><ele>50.333333333333336</ele><time>2026-04-24T08:10:20Z</time></trkpt><trkpt lat="45.28890308375948" lon="10.47360513173109"><ele>50.66666666666667</ele><time>2026-04-24T08:10:21Z</time></trkpt><trkpt lat="45.288716077597165" lon="10.473600462572005"><ele>51.0</ele><time>2026-04-24T08:10:22Z</time></trkpt><trkpt lat="45.28853394772235" lon="10.473578824709762"><ele>51.0</ele><time>2026-04-24T08:10:23Z</time></trkpt><trkpt lat="45.28835567380401" lon="10.47353296563507"><ele>51.0</ele><time>2026-04-24T08:10:24Z</time></trkpt><trkpt lat="45.28818215588846" lon="10.473445038179587"><ele>51.0</ele><time>2026-04-24T08:10:25Z</time></trkpt><trkpt lat="45.28800370948196" lon="10.473389458018206"><ele>50.66666666666667</ele><time>2026-04-24T08:10:26Z</time></trkpt><trkpt lat="45.28782794932498" lon="10.473307745098376"><ele>50.333333333333336</ele><time>2026-04-24T08:10:27Z</time></trkpt><trkpt lat="45.28765492444001" lon="10.473223765630507"><ele>50.0</ele><time>2026-04-24T08:10:28Z</time></trkpt><trkpt lat="45.287485441515855" lon="10.473125380224348"><ele>50.0</ele><time>2026-04-24T08:10:29Z</time></trkpt><trkpt lat="45.287321624726786" lon="10.473015650141553"><ele>50.0</ele><time>2026-04-24T08:10:30Z</time></trkpt><trkpt lat="45.287154217804414" lon="10.472899270464588"><ele>50.0</ele><time>2026-04-24T08:10:31Z</time></trkpt><trkpt lat="45.28698805849812" lon="10.472784381969923"><ele>49.66666666666667</ele><time>2026-04-24T08:10:32Z</time></trkpt><trkpt lat="45.28681841169367" lon="10.472674879998284"><ele>49.33333333333333</ele><time>2026-04-24T08:10:33Z</time></trkpt><trkpt lat="45.286648594492284" lon="10.472576493807162"><ele>49.0</ele><time>2026-04-24T08:10:34Z</time></trkpt><trkpt lat="45.28647934174987" lon="10.472481309851403"><ele>49.33333333333333</ele><time>2026-04-24T08:10:35Z</time></trkpt><trkpt lat="45.286310873333875" lon="10.472390444729434"><ele>49.66666666666667</ele><time>2026-04-24T08:10:36Z</time></trkpt><trkpt lat="45.28614347629441" lon="10.472304313151692"><ele>50.0</ele><time>2026-04-24T08:10:37Z</time></trkpt><trkpt lat="45.28597354814283" lon="10.472224854792024"><ele>50.0</ele><time>2026-04-24T08:10:38Z</time></trkpt><trkpt lat="45.28580171600955" lon="10.47214940149278"><ele>50.0</ele><time>2026-04-24T08:10:39Z</time></trkpt><trkpt lat="45.285632295320994" lon="10.472074113127901"><ele>50.0</ele><time>2026-04-24T08:10:40Z</time></trkpt><trkpt lat="45.28546336993498" lon="10.471997342527011"><ele>49.66666666666667</ele><time>2026-04-24T08:10:41Z</time></trkpt><trkpt lat="45.285292107316906" lon="10.471922759120483"><ele>49.33333333333333</ele><time>2026-04-24T08:10:42Z</time></trkpt><trkpt lat="45.28512012404839" lon="10.471858661574604"><ele>49.0</ele><time>2026-04-24T08:10:43Z</time></trkpt><trkpt lat="45.284947360154334" lon="10.471804786046043"><ele>49.0</ele><time>2026-04-24T08:10:44Z</time></trkpt><trkpt lat="45.28477289344734" lon="10.471758152781062"><ele>49.0</ele><time>2026-04-24T08:10:45Z</time></trkpt><trkpt lat="45.2845967092239" lon="10.47171680894997"><ele>49.0</ele><time>2026-04-24T08:10:46Z</time></trkpt><trkpt lat="45.28442004753006" lon="10.47167866374904"><ele>49.0</ele><time>2026-04-24T08:10:47Z</time></trkpt><trkpt lat="45.284241671699974" lon="10.471644829011534"><ele>49.0</ele><time>2026-04-24T08:10:48Z</time></trkpt><trkpt lat="45.284064070033025" lon="10.47160663038927"><ele>49.0</ele><time>2026-04-24T08:10:49Z</time></trkpt><trkpt lat="45.283887666784075" lon="10.471570502835405"><ele>49.33333333333333</ele><time>2026-04-24T08:10:50Z</time></trkpt><trkpt lat="45.28371116139412" lon="10.471532481683562"><ele>49.66666666666667</ele><time>2026-04-24T08:10:51Z</time></trkpt><trkpt lat="45.28353287207516" lon="10.471497969556417"><ele>50.0</ele><time>2026-04-24T08:10:52Z</time></trkpt><trkpt lat="45.283354845869304" lon="10.471464517179768"><ele>50.0</ele><time>2026-04-24T08:10:53Z</time></trkpt><trkpt lat="45.28317627948125" lon="10.471432095885177"><ele>50.0</ele><time>2026-04-24T08:10:54Z</time></trkpt><trkpt lat="45.28299994631407" lon="10.47140079091405"><ele>50.0</ele><time>2026-04-24T08:10:55Z</time></trkpt><trkpt lat="45.28282192479105" lon="10.471372566188375"><ele>49.66666666666667</ele><time>2026-04-24T08:10:56Z</time></trkpt><trkpt lat="45.282645761145226" lon="10.471344920161576"><ele>49.33333333333333</ele><time>2026-04-24T08:10:57Z</time></trkpt><trkpt lat="45.282468250876235" lon="10.471317723232481"><ele>49.0</ele><time>2026-04-24T08:10:58Z</time></trkpt><trkpt lat="45.2822911589612" lon="10.471287157058049"><ele>49.0</ele><time>2026-04-24T08:10:59Z</time></trkpt><trkpt lat="45.28212172515845" lon="10.4712551269427"><ele>49.0</ele><time>2026-04-24T08:11:00Z</time></trkpt><trkpt lat="45.281963585577415" lon="10.47123369515683"><ele>49.0</ele><time>2026-04-24T08:11:01Z</time></trkpt><trkpt lat="45.28181345066505" lon="10.471216799892108"><ele>49.0</ele><time>2026-04-24T08:11:02Z</time></trkpt><trkpt lat="45.28167305631878" lon="10.471199220014666"><ele>49.0</ele><time>2026-04-24T08:11:03Z</time></trkpt><trkpt lat="45.281539973527" lon="10.47117996063334"><ele>49.0</ele><time>2026-04-24T08:11:04Z</time></trkpt><trkpt lat="45.281414253093565" lon="10.471158882759577"><ele>49.0</ele><time>2026-04-24T08:11:05Z</time></trkpt><trkpt lat="45.281294949127194" lon="10.47111687036313"><ele>48.400000000000006</ele><time>2026-04-24T08:11:06Z</time></trkpt><trkpt lat="45.281177388596" lon="10.47111980159963"><ele>47.8</ele><time>2026-04-24T08:11:07Z</time></trkpt><trkpt lat="45.28106675849083" lon="10.471078194340652"><ele>47.2</ele><time>2026-04-24T08:11:08Z</time></trkpt><trkpt lat="45.280964353327384" lon="10.471059980363135"><ele>46.599999999999994</ele><time>2026-04-24T08:11:09Z</time></trkpt><trkpt lat="45.28086458154574" lon="10.471042040857604"><ele>46.0</ele><time>2026-04-24T08:11:10Z</time></trkpt><trkpt lat="45.28078399329852" lon="10.471024648696797"><ele>46.0</ele><time>2026-04-24T08:11:11Z</time></trkpt><trkpt lat="45.28071825882678" lon="10.471004420787766"><ele>46.0</ele><time>2026-04-24T08:11:12Z</time></trkpt><trkpt lat="45.280625846854505" lon="10.470908620951677"><ele>46.0</ele><time>2026-04-24T08:11:14Z</time></trkpt><trkpt lat="45.28058490255266" lon="10.470815466289485"><ele>46.0</ele><time>2026-04-24T08:11:15Z</time></trkpt><trkpt lat="45.28052941434052" lon="10.47073141963004"><ele>46.0</ele><time>2026-04-24T08:11:16Z</time></trkpt><trkpt lat="45.280465229993396" lon="10.470694986755284"><ele>46.0</ele><time>2026-04-24T08:11:17Z</time></trkpt><trkpt lat="45.280392369948245" lon="10.470735455478563"><ele>46.4</ele><time>2026-04-24T08:11:18Z</time></trkpt><trkpt lat="45.28033641807476" lon="10.470822832058856"><ele>46.8</ele><time>2026-04-24T08:11:19Z</time></trkpt><trkpt lat="45.280295464764926" lon="10.470946823433446"><ele>47.199999999999996</ele><time>2026-04-24T08:11:20Z</time></trkpt><trkpt lat="45.28030279274508" lon="10.471098085134162"><ele>47.599999999999994</ele><time>2026-04-24T08:11:21Z</time></trkpt><trkpt lat="45.280192851179315" lon="10.471235559103077"><ele>48.0</ele><time>2026-04-24T08:11:22Z</time></trkpt><trkpt lat="45.28008900210362" lon="10.471358628889565"><ele>47.666666666666664</ele><time>2026-04-24T08:11:23Z</time></trkpt><trkpt lat="45.2799692930668" lon="10.471481734252732"><ele>47.33333333333333</ele><time>2026-04-24T08:11:24Z</time></trkpt><trkpt lat="45.27983980983802" lon="10.471615814890685"><ele>47.0</ele><time>2026-04-24T08:11:25Z</time></trkpt><trkpt lat="45.27970053517293" lon="10.471760034357398"><ele>47.0</ele><time>2026-04-24T08:11:26Z</time></trkpt><trkpt lat="45.27955543232079" lon="10.471910289137627"><ele>47.0</ele><time>2026-04-24T08:11:27Z</time></trkpt><trkpt lat="45.27941017415553" lon="10.472060704677828"><ele>47.0</ele><time>2026-04-24T08:11:28Z</time></trkpt><trkpt lat="45.2792674059701" lon="10.47223131812553"><ele>47.0</ele><time>2026-04-24T08:11:29Z</time></trkpt><trkpt lat="45.27911174150693" lon="10.47238520648969"><ele>47.0</ele><time>2026-04-24T08:11:30Z</time></trkpt><trkpt lat="45.2789611934825" lon="10.472540802805842"><ele>47.0</ele><time>2026-04-24T08:11:31Z</time></trkpt><trkpt lat="45.2788044667005" lon="10.472700325598668"><ele>47.0</ele><time>2026-04-24T08:11:32Z</time></trkpt><trkpt lat="45.278649570781255" lon="10.472860973214212"><ele>47.0</ele><time>2026-04-24T08:11:33Z</time></trkpt><trkpt lat="45.27849068963903" lon="10.47301868636664"><ele>47.0</ele><time>2026-04-24T08:11:34Z</time></trkpt><trkpt lat="45.27833483232592" lon="10.473179411061151"><ele>47.0</ele><time>2026-04-24T08:11:35Z</time></trkpt><trkpt lat="45.27817576206566" lon="10.473341169807968"><ele>47.0</ele><time>2026-04-24T08:11:36Z</time></trkpt><trkpt lat="45.27801660968878" lon="10.473507920121312"><ele>47.0</ele><time>2026-04-24T08:11:37Z</time></trkpt><trkpt lat="45.27785305774349" lon="10.473673576852367"><ele>46.666666666666664</ele><time>2026-04-24T08:11:38Z</time></trkpt><trkpt lat="45.277687366797586" lon="10.473843632474342"><ele>46.333333333333336</ele><time>2026-04-24T08:11:39Z</time></trkpt><trkpt lat="45.27751782722356" lon="10.474014453242521"><ele>46.0</ele><time>2026-04-24T08:11:40Z</time></trkpt><trkpt lat="45.277349436719945" lon="10.474188127206277"><ele>46.0</ele><time>2026-04-24T08:11:41Z</time></trkpt><trkpt lat="45.27718563418734" lon="10.474362576754574"><ele>46.0</ele><time>2026-04-24T08:11:42Z</time></trkpt><trkpt lat="45.277012593046194" lon="10.474509886441"><ele>46.0</ele><time>2026-04-24T08:11:43Z</time></trkpt><trkpt lat="45.276860763104814" lon="10.474664488966392"><ele>45.66666666666667</ele><time>2026-04-24T08:11:44Z</time></trkpt><trkpt lat="45.27672648806794" lon="10.474804603927518"><ele>45.333333333333336</ele><time>2026-04-24T08:11:45Z</time></trkpt><trkpt lat="45.27659825070539" lon="10.47492166436315"><ele>45.0</ele><time>2026-04-24T08:11:46Z</time></trkpt><trkpt lat="45.27646846001125" lon="10.474994629020452"><ele>45.5</ele><time>2026-04-24T08:11:47Z</time></trkpt><trkpt lat="45.276335850839885" lon="10.475010768581544"><ele>46.0</ele><time>2026-04-24T08:11:48Z</time></trkpt><trkpt lat="45.276211213313125" lon="10.475063631193567"><ele>46.5</ele><time>2026-04-24T08:11:49Z</time></trkpt><trkpt lat="45.276136845226944" lon="10.475233337104623"><ele>47.0</ele><time>2026-04-24T08:11:50Z</time></trkpt><trkpt lat="45.27603857085144" lon="10.475293566199694"><ele>47.0</ele><time>2026-04-24T08:11:51Z</time></trkpt><trkpt lat="45.27596901739513" lon="10.475393406140007"><ele>47.0</ele><time>2026-04-24T08:11:52Z</time></trkpt><trkpt lat="45.27589254076184" lon="10.475481863824314"><ele>47.0</ele><time>2026-04-24T08:11:53Z</time></trkpt><trkpt lat="45.275810220894336" lon="10.475568645794526"><ele>47.0</ele><time>2026-04-24T08:11:54Z</time></trkpt><trkpt lat="45.27570086706652" lon="10.475625952457044"><ele>47.0</ele><time>2026-04-24T08:11:55Z</time></trkpt><trkpt lat="45.27559728992287" lon="10.475716349831997"><ele>47.0</ele><time>2026-04-24T08:11:56Z</time></trkpt><trkpt lat="45.27550329655897" lon="10.475842557861151"><ele>47.0</ele><time>2026-04-24T08:11:57Z</time></trkpt><trkpt lat="45.27541890159337" lon="10.475997809160726"><ele>47.0</ele><time>2026-04-24T08:11:58Z</time></trkpt><trkpt lat="45.27532514808968" lon="10.476160275657561"><ele>47.0</ele><time>2026-04-24T08:11:59Z</time></trkpt><trkpt lat="45.2752113669633" lon="10.476305955700054"><ele>47.0</ele><time>2026-04-24T08:12:00Z</time></trkpt><trkpt lat="45.27505757274571" lon="10.476359236686243"><ele>47.0</ele><time>2026-04-24T08:12:01Z</time></trkpt><trkpt lat="45.27490156154522" lon="10.476437837407351"><ele>47.0</ele><time>2026-04-24T08:12:02Z</time></trkpt><trkpt lat="45.274736088395485" lon="10.476517692601691"><ele>47.0</ele><time>2026-04-24T08:12:03Z</time></trkpt><trkpt lat="45.274567373427935" lon="10.476588274032652"><ele>47.0</ele><time>2026-04-24T08:12:04Z</time></trkpt><trkpt lat="45.27440712423232" lon="10.476635666593905"><ele>47.0</ele><time>2026-04-24T08:12:05Z</time></trkpt><trkpt lat="45.27424854364558" lon="10.4766657163579"><ele>47.0</ele><time>2026-04-24T08:12:06Z</time></trkpt><trkpt lat="45.27408944900165" lon="10.476690306625173"><ele>47.0</ele><time>2026-04-24T08:12:07Z</time></trkpt><trkpt lat="45.27392840980703" lon="10.476708586057581"><ele>47.0</ele><time>2026-04-24T08:12:08Z</time></trkpt><trkpt lat="45.27376501214266" lon="10.476740221025574"><ele>46.666666666666664</ele><time>2026-04-24T08:12:09Z</time></trkpt><trkpt lat="45.2735914156164" lon="10.476756392361144"><ele>46.333333333333336</ele><time>2026-04-24T08:12:10Z</time></trkpt><trkpt lat="45.27341098408612" lon="10.476770287535771"><ele>46.0</ele><time>2026-04-24T08:12:11Z</time></trkpt><trkpt lat="45.273223019899426" lon="10.476787798273168"><ele>45.66666666666667</ele><time>2026-04-24T08:12:12Z</time></trkpt><trkpt lat="45.27303481368329" lon="10.476795584275928"><ele>45.333333333333336</ele><time>2026-04-24T08:12:13Z</time></trkpt><trkpt lat="45.272847091793906" lon="10.476808789937973"><ele>45.0</ele><time>2026-04-24T08:12:14Z</time></trkpt><trkpt lat="45.272655566114516" lon="10.476823497661782"><ele>45.0</ele><time>2026-04-24T08:12:15Z</time></trkpt><trkpt lat="45.272465188793944" lon="10.476834382006139"><ele>45.0</ele><time>2026-04-24T08:12:16Z</time></trkpt><trkpt lat="45.272274240263286" lon="10.47684790512299"><ele>45.0</ele><time>2026-04-24T08:12:17Z</time></trkpt><trkpt lat="45.272077852698374" lon="10.476871528005574"><ele>44.666666666666664</ele><time>2026-04-24T08:12:18Z</time></trkpt><trkpt lat="45.2718820960826" lon="10.47689768820408"><ele>44.33333333333333</ele><time>2026-04-24T08:12:19Z</time></trkpt><trkpt lat="45.27169653305477" lon="10.476909619534863"><ele>44.0</ele><time>2026-04-24T08:12:20Z</time></trkpt><trkpt lat="45.27151961073641" lon="10.476922185494384"><ele>45.33333333333333</ele><time>2026-04-24T08:12:21Z</time></trkpt><trkpt lat="45.27134272910017" lon="10.476932235456712"><ele>46.666666666666664</ele><time>2026-04-24T08:12:22Z</time></trkpt><trkpt lat="45.27116276384558" lon="10.476941823221123"><ele>48.0</ele><time>2026-04-24T08:12:23Z</time></trkpt><trkpt lat="45.27098142265895" lon="10.476955978637424"><ele>48.0</ele><time>2026-04-24T08:12:24Z</time></trkpt><trkpt lat="45.270809126295646" lon="10.476975460936583"><ele>48.0</ele><time>2026-04-24T08:12:25Z</time></trkpt><trkpt lat="45.270631817937996" lon="10.47697553913186"><ele>48.0</ele><time>2026-04-24T08:12:26Z</time></trkpt><trkpt lat="45.27043812350194" lon="10.476991642063695"><ele>47.0</ele><time>2026-04-24T08:12:27Z</time></trkpt><trkpt lat="45.270231670035166" lon="10.477008805649367"><ele>46.0</ele><time>2026-04-24T08:12:28Z</time></trkpt><trkpt lat="45.27001874117046" lon="10.477024973994208"><ele>45.0</ele><time>2026-04-24T08:12:29Z</time></trkpt><trkpt lat="45.269805513334056" lon="10.477063824516549"><ele>45.666666666666664</ele><time>2026-04-24T08:12:30Z</time></trkpt><trkpt lat="45.269592469004856" lon="10.477067266722903"><ele>46.33333333333333</ele><time>2026-04-24T08:12:31Z</time></trkpt><trkpt lat="45.269386343059104" lon="10.477077838414994"><ele>47.0</ele><time>2026-04-24T08:12:32Z</time></trkpt><trkpt lat="45.26918277424464" lon="10.477092866166688"><ele>46.33333333333333</ele><time>2026-04-24T08:12:33Z</time></trkpt><trkpt lat="45.2689813586757" lon="10.47710701496896"><ele>45.666666666666664</ele><time>2026-04-24T08:12:34Z</time></trkpt><trkpt lat="45.26878261781802" lon="10.477117186933903"><ele>45.0</ele><time>2026-04-24T08:12:35Z</time></trkpt><trkpt lat="45.26858404759316" lon="10.477128331531672"><ele>45.0</ele><time>2026-04-24T08:12:36Z</time></trkpt><trkpt lat="45.26838630638863" lon="10.47713718378294"><ele>45.0</ele><time>2026-04-24T08:12:37Z</time></trkpt><trkpt lat="45.26819139024202" lon="10.477147608399152"><ele>45.0</ele><time>2026-04-24T08:12:38Z</time></trkpt><trkpt lat="45.26799630416103" lon="10.477164125776621"><ele>44.333333333333336</ele><time>2026-04-24T08:12:39Z</time></trkpt><trkpt lat="45.26780044587537" lon="10.477176730084981"><ele>43.66666666666667</ele><time>2026-04-24T08:12:40Z</time></trkpt><trkpt lat="45.267603031199755" lon="10.477192210846496"><ele>43.0</ele><time>2026-04-24T08:12:41Z</time></trkpt><trkpt lat="45.26740639924211" lon="10.477212537404595"><ele>43.0</ele><time>2026-04-24T08:12:42Z</time></trkpt><trkpt lat="45.267210265003165" lon="10.47723058118149"><ele>43.0</ele><time>2026-04-24T08:12:43Z</time></trkpt><trkpt lat="45.26701251521794" lon="10.477249344448493"><ele>43.0</ele><time>2026-04-24T08:12:44Z</time></trkpt><trkpt lat="45.26681691914569" lon="10.477271160387577"><ele>43.0</ele><time>2026-04-24T08:12:45Z</time></trkpt><trkpt lat="45.26662211426741" lon="10.477296121934893"><ele>43.0</ele><time>2026-04-24T08:12:46Z</time></trkpt><trkpt lat="45.26642583960911" lon="10.477315823230017"><ele>43.0</ele><time>2026-04-24T08:12:47Z</time></trkpt><trkpt lat="45.26622625887568" lon="10.47732713159552"><ele>43.66666666666667</ele><time>2026-04-24T08:12:48Z</time></trkpt><trkpt lat="45.26602948123765" lon="10.47733526935752"><ele>44.333333333333336</ele><time>2026-04-24T08:12:49Z</time></trkpt><trkpt lat="45.26583170727039" lon="10.477342125677925"><ele>45.0</ele><time>2026-04-24T08:12:50Z</time></trkpt><trkpt lat="45.265636773929764" lon="10.477344311734578"><ele>44.666666666666664</ele><time>2026-04-24T08:12:51Z</time></trkpt><trkpt lat="45.26545252506449" lon="10.47734564820207"><ele>44.33333333333333</ele><time>2026-04-24T08:12:52Z</time></trkpt><trkpt lat="45.26528328812634" lon="10.477324804898707"><ele>44.0</ele><time>2026-04-24T08:12:53Z</time></trkpt><trkpt lat="45.2651285345312" lon="10.477346829566681"><ele>44.0</ele><time>2026-04-24T08:12:54Z</time></trkpt><trkpt lat="45.26499068698457" lon="10.477343237893713"><ele>44.0</ele><time>2026-04-24T08:12:55Z</time></trkpt><trkpt lat="45.26486756633287" lon="10.477334324419555"><ele>44.0</ele><time>2026-04-24T08:12:56Z</time></trkpt><trkpt lat="45.26475614341251" lon="10.477340033581243"><ele>44.0</ele><time>2026-04-24T08:12:57Z</time></trkpt><trkpt lat="45.26465452224606" lon="10.47732068634374"><ele>44.0</ele><time>2026-04-24T08:12:58Z</time></trkpt><trkpt lat="45.26455228282079" lon="10.477320016645661"><ele>44.0</ele><time>2026-04-24T08:12:59Z</time></trkpt><trkpt lat="45.26443407038501" lon="10.477333539935639"><ele>44.0</ele><time>2026-04-24T08:13:00Z</time></trkpt><trkpt lat="45.26429934585103" lon="10.477319950073648"><ele>44.0</ele><time>2026-04-24T08:13:01Z</time></trkpt><trkpt lat="45.264155836821566" lon="10.477315392535315"><ele>44.0</ele><time>2026-04-24T08:13:02Z</time></trkpt><trkpt lat="45.26400647702192" lon="10.477316401290329"><ele>44.0</ele><time>2026-04-24T08:13:03Z</time></trkpt><trkpt lat="45.263847835878195" lon="10.477318756929401"><ele>44.0</ele><time>2026-04-24T08:13:04Z</time></trkpt><trkpt lat="45.26368337067769" lon="10.477318415261161"><ele>44.33333333333333</ele><time>2026-04-24T08:13:05Z</time></trkpt><trkpt lat="45.26351061524741" lon="10.477316882028537"><ele>44.666666666666664</ele><time>2026-04-24T08:13:06Z</time></trkpt><trkpt lat="45.26333667839952" lon="10.477314471513102"><ele>45.0</ele><time>2026-04-24T08:13:07Z</time></trkpt><trkpt lat="45.26315956232928" lon="10.477312969962863"><ele>45.333333333333336</ele><time>2026-04-24T08:13:08Z</time></trkpt><trkpt lat="45.26298311069066" lon="10.477305799345942"><ele>45.66666666666667</ele><time>2026-04-24T08:13:09Z</time></trkpt><trkpt lat="45.26280407662055" lon="10.477302722316832"><ele>46.0</ele><time>2026-04-24T08:13:10Z</time></trkpt><trkpt lat="45.262623938873496" lon="10.477313075633022"><ele>46.0</ele><time>2026-04-24T08:13:11Z</time></trkpt><trkpt lat="45.262441157440314" lon="10.477315144547262"><ele>46.0</ele><time>2026-04-24T08:13:12Z</time></trkpt><trkpt lat="45.26225537612684" lon="10.477311433276727"><ele>46.0</ele><time>2026-04-24T08:13:13Z</time></trkpt><trkpt lat="45.262070076096734" lon="10.477308773086937"><ele>45.66666666666667</ele><time>2026-04-24T08:13:14Z</time></trkpt><trkpt lat="45.261889642647276" lon="10.477305852874657"><ele>45.333333333333336</ele><time>2026-04-24T08:13:15Z</time></trkpt><trkpt lat="45.261710161118124" lon="10.47730133182268"><ele>45.0</ele><time>2026-04-24T08:13:16Z</time></trkpt><trkpt lat="45.26153674554498" lon="10.477297602443162"><ele>44.666666666666664</ele><time>2026-04-24T08:13:17Z</time></trkpt><trkpt lat="45.26137483125902" lon="10.477294550990456"><ele>44.33333333333333</ele><time>2026-04-24T08:13:18Z</time></trkpt><trkpt lat="45.261225700579445" lon="10.477286126777065"><ele>44.0</ele><time>2026-04-24T08:13:19Z</time></trkpt><trkpt lat="45.26107848955413" lon="10.477265300059821"><ele>44.0</ele><time>2026-04-24T08:13:20Z</time></trkpt><trkpt lat="45.260932170699036" lon="10.477221484104891"><ele>44.0</ele><time>2026-04-24T08:13:21Z</time></trkpt><trkpt lat="45.260790198515046" lon="10.47715509381363"><ele>44.0</ele><time>2026-04-24T08:13:22Z</time></trkpt><trkpt lat="45.260649705148914" lon="10.477073247605517"><ele>43.666666666666664</ele><time>2026-04-24T08:13:23Z</time></trkpt><trkpt lat="45.260510414807484" lon="10.476976823425435"><ele>43.333333333333336</ele><time>2026-04-24T08:13:24Z</time></trkpt><trkpt lat="45.26037078643681" lon="10.476880273193537"><ele>43.0</ele><time>2026-04-24T08:13:25Z</time></trkpt><trkpt lat="45.26023160209063" lon="10.476783717254117"><ele>43.0</ele><time>2026-04-24T08:13:26Z</time></trkpt><trkpt lat="45.26009355027766" lon="10.47668994678603"><ele>43.0</ele><time>2026-04-24T08:13:27Z</time></trkpt><trkpt lat="45.25995720613701" lon="10.476601117558106"><ele>43.0</ele><time>2026-04-24T08:13:28Z</time></trkpt><trkpt lat="45.259822855055106" lon="10.476513688780878"><ele>43.25</ele><time>2026-04-24T08:13:29Z</time></trkpt><trkpt lat="45.25969830973911" lon="10.47643779586162"><ele>43.5</ele><time>2026-04-24T08:13:30Z</time></trkpt><trkpt lat="45.25957660976185" lon="10.476361536012595"><ele>43.75</ele><time>2026-04-24T08:13:31Z</time></trkpt><trkpt lat="45.25945577861222" lon="10.476277973996247"><ele>44.0</ele><time>2026-04-24T08:13:32Z</time></trkpt><trkpt lat="45.259336891570946" lon="10.476198859117034"><ele>44.0</ele><time>2026-04-24T08:13:33Z</time></trkpt><trkpt lat="45.25921602855585" lon="10.476120554915317"><ele>44.0</ele><time>2026-04-24T08:13:34Z</time></trkpt><trkpt lat="45.25909607242542" lon="10.476040562813806"><ele>44.0</ele><time>2026-04-24T08:13:35Z</time></trkpt><trkpt lat="45.2589755132291" lon="10.475958461469196"><ele>44.0</ele><time>2026-04-24T08:13:36Z</time></trkpt><trkpt lat="45.2588563755004" lon="10.475880780038292"><ele>44.0</ele><time>2026-04-24T08:13:37Z</time></trkpt><trkpt lat="45.25873999245449" lon="10.475802181346843"><ele>44.0</ele><time>2026-04-24T08:13:38Z</time></trkpt><trkpt lat="45.25862177838441" lon="10.47572101105031"><ele>44.0</ele><time>2026-04-24T08:13:39Z</time></trkpt><trkpt lat="45.25850241298409" lon="10.475639607085338"><ele>44.0</ele><time>2026-04-24T08:13:40Z</time></trkpt><trkpt lat="45.258381657445575" lon="10.475560002216634"><ele>44.0</ele><time>2026-04-24T08:13:41Z</time></trkpt><trkpt lat="45.25825748095164" lon="10.475480587429134"><ele>44.0</ele><time>2026-04-24T08:13:42Z</time></trkpt><trkpt lat="45.25813287411654" lon="10.475394607478828"><ele>44.0</ele><time>2026-04-24T08:13:43Z</time></trkpt><trkpt lat="45.258006231829164" lon="10.475310783589208"><ele>44.0</ele><time>2026-04-24T08:13:44Z</time></trkpt><trkpt lat="45.25787489678462" lon="10.475223595159013"><ele>44.0</ele><time>2026-04-24T08:13:45Z</time></trkpt><trkpt lat="45.25774124297636" lon="10.475134411795226"><ele>44.0</ele><time>2026-04-24T08:13:46Z</time></trkpt><trkpt lat="45.257608343013914" lon="10.475047828747629"><ele>44.0</ele><time>2026-04-24T08:13:47Z</time></trkpt><trkpt lat="45.25747003349213" lon="10.474971093730638"><ele>44.0</ele><time>2026-04-24T08:13:48Z</time></trkpt><trkpt lat="45.25733344140415" lon="10.474890473288157"><ele>44.0</ele><time>2026-04-24T08:13:49Z</time></trkpt><trkpt lat="45.25719916416827" lon="10.4748042197375"><ele>44.0</ele><time>2026-04-24T08:13:50Z</time></trkpt><trkpt lat="45.257064761482425" lon="10.474717611696082"><ele>44.0</ele><time>2026-04-24T08:13:51Z</time></trkpt><trkpt lat="45.25692944313545" lon="10.474631008557058"><ele>44.0</ele><time>2026-04-24T08:13:52Z</time></trkpt><trkpt lat="45.256796062710414" lon="10.474540872893396"><ele>44.0</ele><time>2026-04-24T08:13:53Z</time></trkpt><trkpt lat="45.25665852411014" lon="10.474452810985495"><ele>44.0</ele><time>2026-04-24T08:13:54Z</time></trkpt><trkpt lat="45.25651847586135" lon="10.474360434501264"><ele>44.0</ele><time>2026-04-24T08:13:55Z</time></trkpt><trkpt lat="45.25637697813829" lon="10.474266109360851"><ele>44.0</ele><time>2026-04-24T08:13:56Z</time></trkpt><trkpt lat="45.25623555395173" lon="10.474171577483052"><ele>44.0</ele><time>2026-04-24T08:13:57Z</time></trkpt><trkpt lat="45.256095799120615" lon="10.474081146105698"><ele>44.0</ele><time>2026-04-24T08:13:58Z</time></trkpt><trkpt lat="45.25595785214376" lon="10.473999016133481"><ele>44.0</ele><time>2026-04-24T08:13:59Z</time></trkpt><trkpt lat="45.255817146316886" lon="10.473918089065616"><ele>44.0</ele><time>2026-04-24T08:14:00Z</time></trkpt><trkpt lat="45.25568219780537" lon="10.473842262501664"><ele>44.0</ele><time>2026-04-24T08:14:01Z</time></trkpt><trkpt lat="45.25555865682747" lon="10.473772188337787"><ele>44.0</ele><time>2026-04-24T08:14:02Z</time></trkpt><trkpt lat="45.25544054576459" lon="10.473710211509824"><ele>44.2</ele><time>2026-04-24T08:14:03Z</time></trkpt><trkpt lat="45.2553359811661" lon="10.473666576189766"><ele>44.400000000000006</ele><time>2026-04-24T08:14:04Z</time></trkpt><trkpt lat="45.2552463475628" lon="10.47360707734948"><ele>44.6</ele><time>2026-04-24T08:14:05Z</time></trkpt><trkpt lat="45.255149451654695" lon="10.473566274761197"><ele>44.8</ele><time>2026-04-24T08:14:06Z</time></trkpt><trkpt lat="45.2550588370121" lon="10.473528117250064"><ele>45.0</ele><time>2026-04-24T08:14:07Z</time></trkpt><trkpt lat="45.254973428686135" lon="10.473492152079322"><ele>45.0</ele><time>2026-04-24T08:14:08Z</time></trkpt><trkpt lat="45.25489654826191" lon="10.473459777986445"><ele>45.0</ele><time>2026-04-24T08:14:09Z</time></trkpt><trkpt lat="45.25482412198162" lon="10.473429279540229"><ele>45.0</ele><time>2026-04-24T08:14:10Z</time></trkpt><trkpt lat="45.254715604879316" lon="10.473430863237258"><ele>45.0</ele><time>2026-04-24T08:14:12Z</time></trkpt><trkpt lat="45.254625224274356" lon="10.473411365963202"><ele>45.0</ele><time>2026-04-24T08:14:14Z</time></trkpt><trkpt lat="45.25454676118309" lon="10.473377198135687"><ele>45.0</ele><time>2026-04-24T08:14:16Z</time></trkpt><trkpt lat="45.25449433062065" lon="10.473322055777798"><ele>45.0</ele><time>2026-04-24T08:15:31Z</time></trkpt><trkpt lat="45.25440301971568" lon="10.473264051983673"><ele>45.0</ele><time>2026-04-24T08:15:33Z</time></trkpt><trkpt lat="45.254300498315494" lon="10.473277011332357"><ele>45.0</ele><time>2026-04-24T08:15:35Z</time></trkpt><trkpt lat="45.25421170241157" lon="10.473424390010525"><ele>45.0</ele><time>2026-04-24T08:15:37Z</time></trkpt><trkpt lat="45.25419502981029" lon="10.47354424670337"><ele>45.0</ele><time>2026-04-24T08:15:38Z</time></trkpt><trkpt lat="45.25418496259807" lon="10.47369324825615"><ele>45.0</ele><time>2026-04-24T08:15:39Z</time></trkpt><trkpt lat="45.25416662731312" lon="10.473860649692435"><ele>45.0</ele><time>2026-04-24T08:15:40Z</time></trkpt><trkpt lat="45.25414985490725" lon="10.474020150995702"><ele>45.0</ele><time>2026-04-24T08:15:41Z</time></trkpt><trkpt lat="45.254132139959815" lon="10.474187354671237"><ele>45.0</ele><time>2026-04-24T08:15:42Z</time></trkpt><trkpt lat="45.25411126663789" lon="10.47435927866974"><ele>45.0</ele><time>2026-04-24T08:15:43Z</time></trkpt><trkpt lat="45.254090507153904" lon="10.474533216750482"><ele>45.0</ele><time>2026-04-24T08:15:44Z</time></trkpt><trkpt lat="45.25406668230338" lon="10.474717737064129"><ele>45.0</ele><time>2026-04-24T08:15:45Z</time></trkpt><trkpt lat="45.25404196327005" lon="10.474913930331404"><ele>45.0</ele><time>2026-04-24T08:15:46Z</time></trkpt><trkpt lat="45.254015339618896" lon="10.475100306370658"><ele>45.0</ele><time>2026-04-24T08:15:47Z</time></trkpt><trkpt lat="45.25399027147625" lon="10.475302155133866"><ele>45.0</ele><time>2026-04-24T08:15:48Z</time></trkpt><trkpt lat="45.25396183312899" lon="10.475510835155143"><ele>45.0</ele><time>2026-04-24T08:15:49Z</time></trkpt><trkpt lat="45.253934799301334" lon="10.475722404641013"><ele>45.0</ele><time>2026-04-24T08:15:50Z</time></trkpt><trkpt lat="45.25390902375741" lon="10.475931404753215"><ele>45.25</ele><time>2026-04-24T08:15:51Z</time></trkpt><trkpt lat="45.253880233711996" lon="10.47613917797554"><ele>45.5</ele><time>2026-04-24T08:15:52Z</time></trkpt><trkpt lat="45.253846228438775" lon="10.476341883754724"><ele>45.75</ele><time>2026-04-24T08:15:53Z</time></trkpt><trkpt lat="45.25378081432749" lon="10.476533601988312"><ele>46.0</ele><time>2026-04-24T08:15:54Z</time></trkpt><trkpt lat="45.25373270625157" lon="10.476739472752206"><ele>46.25</ele><time>2026-04-24T08:15:55Z</time></trkpt><trkpt lat="45.2536875648052" lon="10.476945388469511"><ele>46.5</ele><time>2026-04-24T08:15:56Z</time></trkpt><trkpt lat="45.25364976754161" lon="10.477135670999893"><ele>46.75</ele><time>2026-04-24T08:15:57Z</time></trkpt><trkpt lat="45.2536198462278" lon="10.477316562357911"><ele>47.0</ele><time>2026-04-24T08:15:58Z</time></trkpt><trkpt lat="45.25359232497252" lon="10.477525122808704"><ele>46.33333333333333</ele><time>2026-04-24T08:15:59Z</time></trkpt><trkpt lat="45.25357332643675" lon="10.477752619916583"><ele>45.666666666666664</ele><time>2026-04-24T08:16:00Z</time></trkpt><trkpt lat="45.2535606583464" lon="10.477982519993605"><ele>45.0</ele><time>2026-04-24T08:16:01Z</time></trkpt><trkpt lat="45.25354872893935" lon="10.478197853468739"><ele>45.0</ele><time>2026-04-24T08:16:02Z</time></trkpt><trkpt lat="45.25353151676105" lon="10.478408524455416"><ele>45.0</ele><time>2026-04-24T08:16:03Z</time></trkpt><trkpt lat="45.253508222797215" lon="10.478612828570183"><ele>45.0</ele><time>2026-04-24T08:16:04Z</time></trkpt><trkpt lat="45.253476697307086" lon="10.478811872348427"><ele>45.0</ele><time>2026-04-24T08:16:05Z</time></trkpt><trkpt lat="45.253446296214726" lon="10.479007730763598"><ele>45.0</ele><time>2026-04-24T08:16:06Z</time></trkpt><trkpt lat="45.25341876884757" lon="10.479202299838628"><ele>45.0</ele><time>2026-04-24T08:16:07Z</time></trkpt><trkpt lat="45.25340046893872" lon="10.479394975238893"><ele>45.0</ele><time>2026-04-24T08:16:08Z</time></trkpt><trkpt lat="45.253408385194376" lon="10.479586518395879"><ele>45.0</ele><time>2026-04-24T08:16:09Z</time></trkpt><trkpt lat="45.253383719514765" lon="10.479775145151498"><ele>45.0</ele><time>2026-04-24T08:16:10Z</time></trkpt><trkpt lat="45.25337631304469" lon="10.479967590472782"><ele>45.0</ele><time>2026-04-24T08:16:11Z</time></trkpt><trkpt lat="45.25336414848539" lon="10.480160362372223"><ele>45.0</ele><time>2026-04-24T08:16:12Z</time></trkpt><trkpt lat="45.25336631502082" lon="10.480341186625202"><ele>45.0</ele><time>2026-04-24T08:16:13Z</time></trkpt><trkpt lat="45.253310926804545" lon="10.480487580398197"><ele>45.0</ele><time>2026-04-24T08:16:14Z</time></trkpt><trkpt lat="45.25327054098653" lon="10.480615256159739"><ele>45.0</ele><time>2026-04-24T08:16:15Z</time></trkpt><trkpt lat="45.253220205312196" lon="10.48073396164129"><ele>45.0</ele><time>2026-04-24T08:16:16Z</time></trkpt><trkpt lat="45.25316041800716" lon="10.480865776665523"><ele>45.0</ele><time>2026-04-24T08:16:17Z</time></trkpt><trkpt lat="45.253095452634604" lon="10.480996460391967"><ele>45.0</ele><time>2026-04-24T08:16:18Z</time></trkpt><trkpt lat="45.25303264961947" lon="10.481125867571198"><ele>45.0</ele><time>2026-04-24T08:16:19Z</time></trkpt><trkpt lat="45.25297241588031" lon="10.48124998050586"><ele>45.0</ele><time>2026-04-24T08:16:20Z</time></trkpt><trkpt lat="45.25291416199309" lon="10.481370013882968"><ele>45.0</ele><time>2026-04-24T08:16:21Z</time></trkpt><trkpt lat="45.25285712903789" lon="10.481504557004268"><ele>45.0</ele><time>2026-04-24T08:16:22Z</time></trkpt><trkpt lat="45.25279718112507" lon="10.481622080258902"><ele>45.0</ele><time>2026-04-24T08:16:23Z</time></trkpt><trkpt lat="45.25274199198264" lon="10.48174666909573"><ele>45.0</ele><time>2026-04-24T08:16:24Z</time></trkpt><trkpt lat="45.25267928241445" lon="10.481858914482046"><ele>45.0</ele><time>2026-04-24T08:16:25Z</time></trkpt><trkpt lat="45.25262323080715" lon="10.481970769074382"><ele>45.0</ele><time>2026-04-24T08:16:26Z</time></trkpt><trkpt lat="45.25257144196148" lon="10.482081328201796"><ele>45.0</ele><time>2026-04-24T08:16:27Z</time></trkpt><trkpt lat="45.25252117094675" lon="10.48218142654967"><ele>45.0</ele><time>2026-04-24T08:16:28Z</time></trkpt><trkpt lat="45.252472461098826" lon="10.482281314410756"><ele>44.6</ele><time>2026-04-24T08:16:29Z</time></trkpt><trkpt lat="45.25241954421017" lon="10.482386224465184"><ele>44.2</ele><time>2026-04-24T08:16:30Z</time></trkpt><trkpt lat="45.25236328401134" lon="10.482494794525417"><ele>43.8</ele><time>2026-04-24T08:16:31Z</time></trkpt><trkpt lat="45.252302726251514" lon="10.482609986719472"><ele>43.4</ele><time>2026-04-24T08:16:32Z</time></trkpt><trkpt lat="45.25224217193166" lon="10.48272934513891"><ele>43.0</ele><time>2026-04-24T08:16:33Z</time></trkpt><trkpt lat="45.25218007113556" lon="10.482852807138917"><ele>42.8</ele><time>2026-04-24T08:16:34Z</time></trkpt><trkpt lat="45.2521173363786" lon="10.482973110486594"><ele>42.599999999999994</ele><time>2026-04-24T08:16:35Z</time></trkpt><trkpt lat="45.25205181270632" lon="10.483097033542357"><ele>42.400000000000006</ele><time>2026-04-24T08:16:36Z</time></trkpt><trkpt lat="45.251990120320144" lon="10.483223415704051"><ele>42.2</ele><time>2026-04-24T08:16:37Z</time></trkpt><trkpt lat="45.25192544420669" lon="10.483348168002571"><ele>42.0</ele><time>2026-04-24T08:16:38Z</time></trkpt><trkpt lat="45.25186091018865" lon="10.483481136065729"><ele>42.0</ele><time>2026-04-24T08:16:39Z</time></trkpt><trkpt lat="45.25178911432278" lon="10.48361840107456"><ele>42.0</ele><time>2026-04-24T08:16:40Z</time></trkpt><trkpt lat="45.25172248128339" lon="10.483762937192834"><ele>42.0</ele><time>2026-04-24T08:16:41Z</time></trkpt><trkpt lat="45.25164015060276" lon="10.483889313745362"><ele>42.0</ele><time>2026-04-24T08:16:42Z</time></trkpt><trkpt lat="45.25157258079991" lon="10.484023737576447"><ele>42.0</ele><time>2026-04-24T08:16:43Z</time></trkpt><trkpt lat="45.251504841504484" lon="10.484158888918518"><ele>42.0</ele><time>2026-04-24T08:16:44Z</time></trkpt><trkpt lat="45.251455475821075" lon="10.484300956994076"><ele>42.0</ele><time>2026-04-24T08:16:45Z</time></trkpt><trkpt lat="45.251395135416814" lon="10.484414417739925"><ele>42.0</ele><time>2026-04-24T08:16:46Z</time></trkpt><trkpt lat="45.25133817344887" lon="10.484522207938461"><ele>42.0</ele><time>2026-04-24T08:16:47Z</time></trkpt><trkpt lat="45.25128092151847" lon="10.484630058291142"><ele>42.333333333333336</ele><time>2026-04-24T08:16:48Z</time></trkpt><trkpt lat="45.25122608781224" lon="10.484733936482078"><ele>42.666666666666664</ele><time>2026-04-24T08:16:49Z</time></trkpt><trkpt lat="45.25117311371481" lon="10.484838777272117"><ele>43.0</ele><time>2026-04-24T08:16:50Z</time></trkpt><trkpt lat="45.25112571267292" lon="10.484939001648701"><ele>43.33333333333333</ele><time>2026-04-24T08:16:51Z</time></trkpt><trkpt lat="45.25107433920044" lon="10.485039438170537"><ele>43.666666666666664</ele><time>2026-04-24T08:16:52Z</time></trkpt><trkpt lat="45.25101922108142" lon="10.485145312807669"><ele>44.0</ele><time>2026-04-24T08:16:53Z</time></trkpt><trkpt lat="45.25096752567463" lon="10.485256963948396"><ele>44.0</ele><time>2026-04-24T08:16:54Z</time></trkpt><trkpt lat="45.250913273115714" lon="10.485359209255574"><ele>44.0</ele><time>2026-04-24T08:16:55Z</time></trkpt><trkpt lat="45.25086704871326" lon="10.48545657147943"><ele>44.0</ele><time>2026-04-24T08:16:56Z</time></trkpt><trkpt lat="45.25082082197832" lon="10.485549643810929"><ele>44.0</ele><time>2026-04-24T08:16:57Z</time></trkpt><trkpt lat="45.2507744709057" lon="10.485623432494176"><ele>44.0</ele><time>2026-04-24T08:16:58Z</time></trkpt><trkpt lat="45.250718673848446" lon="10.485679609961261"><ele>44.0</ele><time>2026-04-24T08:16:59Z</time></trkpt><trkpt lat="45.25065981964619" lon="10.48572099064476"><ele>43.6</ele><time>2026-04-24T08:17:00Z</time></trkpt><trkpt lat="45.250547859615146" lon="10.485766863093701"><ele>43.2</ele><time>2026-04-24T08:17:02Z</time></trkpt><trkpt lat="45.25047067682932" lon="10.485871734923427"><ele>42.800000000000004</ele><time>2026-04-24T08:17:04Z</time></trkpt><trkpt lat="45.250458638370276" lon="10.485969962799423"><ele>42.400000000000006</ele><time>2026-04-24T08:17:05Z</time></trkpt><trkpt lat="45.250464654446006" lon="10.486082578857173"><ele>42.0</ele><time>2026-04-24T08:17:06Z</time></trkpt><trkpt lat="45.25045799231974" lon="10.48620061430079"><ele>42.0</ele><time>2026-04-24T08:17:07Z</time></trkpt><trkpt lat="45.25043774637205" lon="10.486313517833393"><ele>42.0</ele><time>2026-04-24T08:17:08Z</time></trkpt><trkpt lat="45.25039816071894" lon="10.486435311149293"><ele>42.0</ele><time>2026-04-24T08:17:09Z</time></trkpt><trkpt lat="45.2502967127701" lon="10.486540914982736"><ele>42.0</ele><time>2026-04-24T08:17:10Z</time></trkpt><trkpt lat="45.25021544087874" lon="10.486702341409563"><ele>42.0</ele><time>2026-04-24T08:17:11Z</time></trkpt><trkpt lat="45.25012488511622" lon="10.48688374189795"><ele>42.0</ele><time>2026-04-24T08:17:12Z</time></trkpt><trkpt lat="45.25002648767465" lon="10.487080170921677"><ele>42.0</ele><time>2026-04-24T08:17:13Z</time></trkpt><trkpt lat="45.24991975307593" lon="10.487290372642889"><ele>42.0</ele><time>2026-04-24T08:17:14Z</time></trkpt><trkpt lat="45.24980768705434" lon="10.48751093949559"><ele>41.666666666666664</ele><time>2026-04-24T08:17:15Z</time></trkpt><trkpt lat="45.24970714127885" lon="10.487739728304177"><ele>41.33333333333333</ele><time>2026-04-24T08:17:16Z</time></trkpt><trkpt lat="45.24958783220872" lon="10.48795866758953"><ele>41.0</ele><time>2026-04-24T08:17:17Z</time></trkpt><trkpt lat="45.24946480749506" lon="10.488191260816363"><ele>41.666666666666664</ele><time>2026-04-24T08:17:18Z</time></trkpt><trkpt lat="45.249348507743086" lon="10.488434045975012"><ele>42.333333333333336</ele><time>2026-04-24T08:17:19Z</time></trkpt><trkpt lat="45.24923257469134" lon="10.48867751146789"><ele>43.0</ele><time>2026-04-24T08:17:20Z</time></trkpt><trkpt lat="45.24911821469751" lon="10.488906709722071"><ele>43.0</ele><time>2026-04-24T08:17:21Z</time></trkpt><trkpt lat="45.24898981397271" lon="10.48912208505446"><ele>43.0</ele><time>2026-04-24T08:17:22Z</time></trkpt><trkpt lat="45.248887861642395" lon="10.48936012000633"><ele>43.0</ele><time>2026-04-24T08:17:23Z</time></trkpt><trkpt lat="45.24877419329667" lon="10.489582635060971"><ele>43.0</ele><time>2026-04-24T08:17:24Z</time></trkpt><trkpt lat="45.24866031268181" lon="10.489803388650996"><ele>43.0</ele><time>2026-04-24T08:17:25Z</time></trkpt><trkpt lat="45.24854798559795" lon="10.490024327939196"><ele>43.0</ele><time>2026-04-24T08:17:26Z</time></trkpt><trkpt lat="45.24844199748341" lon="10.49024996749463"><ele>42.333333333333336</ele><time>2026-04-24T08:17:27Z</time></trkpt><trkpt lat="45.248338788297346" lon="10.490470682874374"><ele>41.666666666666664</ele><time>2026-04-24T08:17:28Z</time></trkpt><trkpt lat="45.24824363420408" lon="10.490690316469799"><ele>41.0</ele><time>2026-04-24T08:17:29Z</time></trkpt><trkpt lat="45.24815851072542" lon="10.490898195907985"><ele>41.0</ele><time>2026-04-24T08:17:30Z</time></trkpt><trkpt lat="45.24807919692889" lon="10.491095717957391"><ele>41.0</ele><time>2026-04-24T08:17:31Z</time></trkpt><trkpt lat="45.248008833712944" lon="10.491280463541024"><ele>41.0</ele><time>2026-04-24T08:17:32Z</time></trkpt><trkpt lat="45.247939527720185" lon="10.491446257352708"><ele>41.0</ele><time>2026-04-24T08:17:33Z</time></trkpt><trkpt lat="45.24786612903368" lon="10.491582539237779"><ele>41.0</ele><time>2026-04-24T08:17:34Z</time></trkpt><trkpt lat="45.24778227792326" lon="10.491684472185183"><ele>41.0</ele><time>2026-04-24T08:17:35Z</time></trkpt><trkpt lat="45.247686900159934" lon="10.491746287205133"><ele>41.0</ele><time>2026-04-24T08:17:36Z</time></trkpt><trkpt lat="45.24758909944262" lon="10.49178169122456"><ele>41.0</ele><time>2026-04-24T08:17:37Z</time></trkpt><trkpt lat="45.24751151304872" lon="10.49183573555024"><ele>41.0</ele><time>2026-04-24T08:17:38Z</time></trkpt><trkpt lat="45.24746631404027" lon="10.49194042693442"><ele>41.0</ele><time>2026-04-24T08:17:39Z</time></trkpt><trkpt lat="45.2474387876189" lon="10.492061684155567"><ele>41.0</ele><time>2026-04-24T08:17:40Z</time></trkpt><trkpt lat="45.247456358600395" lon="10.492236154063852"><ele>41.0</ele><time>2026-04-24T08:17:41Z</time></trkpt><trkpt lat="45.24746467671539" lon="10.492418739695186"><ele>41.0</ele><time>2026-04-24T08:17:42Z</time></trkpt><trkpt lat="45.24744535935863" lon="10.492608618647896"><ele>41.0</ele><time>2026-04-24T08:17:43Z</time></trkpt><trkpt lat="45.2473756445654" lon="10.492784571970898"><ele>41.0</ele><time>2026-04-24T08:17:44Z</time></trkpt><trkpt lat="45.24729242541223" lon="10.49298464394167"><ele>41.0</ele><time>2026-04-24T08:17:45Z</time></trkpt><trkpt lat="45.24720202665367" lon="10.493194981589197"><ele>41.0</ele><time>2026-04-24T08:17:46Z</time></trkpt><trkpt lat="45.24710636594564" lon="10.493418002313298"><ele>41.0</ele><time>2026-04-24T08:17:47Z</time></trkpt><trkpt lat="45.24702055354067" lon="10.493659289629864"><ele>41.0</ele><time>2026-04-24T08:17:48Z</time></trkpt><trkpt lat="45.24691238152278" lon="10.493890230584936"><ele>41.0</ele><time>2026-04-24T08:17:49Z</time></trkpt><trkpt lat="45.24680132542492" lon="10.494131813671654"><ele>41.0</ele><time>2026-04-24T08:17:50Z</time></trkpt><trkpt lat="45.24667378365421" lon="10.494365701872384"><ele>41.0</ele><time>2026-04-24T08:17:51Z</time></trkpt><trkpt lat="45.246538572030616" lon="10.494597803745892"><ele>41.0</ele><time>2026-04-24T08:17:52Z</time></trkpt><trkpt lat="45.246399295518465" lon="10.494825864368948"><ele>41.0</ele><time>2026-04-24T08:17:53Z</time></trkpt><trkpt lat="45.24626210345169" lon="10.495050040181372"><ele>41.0</ele><time>2026-04-24T08:17:54Z</time></trkpt><trkpt lat="45.24613242811909" lon="10.495275130881023"><ele>41.0</ele><time>2026-04-24T08:17:55Z</time></trkpt><trkpt lat="45.246017223541834" lon="10.495518872972651"><ele>41.0</ele><time>2026-04-24T08:17:56Z</time></trkpt><trkpt lat="45.24591525075806" lon="10.495780445832338"><ele>41.0</ele><time>2026-04-24T08:17:57Z</time></trkpt><trkpt lat="45.245828261016555" lon="10.496060861739664"><ele>41.33333333333333</ele><time>2026-04-24T08:17:58Z</time></trkpt><trkpt lat="45.24574587674529" lon="10.496353706065493"><ele>41.666666666666664</ele><time>2026-04-24T08:17:59Z</time></trkpt><trkpt lat="45.245660612562176" lon="10.496649051846468"><ele>42.0</ele><time>2026-04-24T08:18:00Z</time></trkpt><trkpt lat="45.24557566177264" lon="10.496949554576396"><ele>42.5</ele><time>2026-04-24T08:18:01Z</time></trkpt><trkpt lat="45.245490179889075" lon="10.497246833512683"><ele>43.0</ele><time>2026-04-24T08:18:02Z</time></trkpt><trkpt lat="45.2454059141042" lon="10.497540941325132"><ele>43.0</ele><time>2026-04-24T08:18:03Z</time></trkpt><trkpt lat="45.24532112111992" lon="10.49783647725603"><ele>43.0</ele><time>2026-04-24T08:18:04Z</time></trkpt><trkpt lat="45.24523103153202" lon="10.498132761564685"><ele>42.66666666666667</ele><time>2026-04-24T08:18:05Z</time></trkpt><trkpt lat="45.2451423550255" lon="10.498427374915488"><ele>42.333333333333336</ele><time>2026-04-24T08:18:06Z</time></trkpt><trkpt lat="45.245055143607395" lon="10.498719426703369"><ele>42.0</ele><time>2026-04-24T08:18:07Z</time></trkpt><trkpt lat="45.244967544926325" lon="10.499015697820914"><ele>41.5</ele><time>2026-04-24T08:18:08Z</time></trkpt><trkpt lat="45.24488153567517" lon="10.499313567638705"><ele>41.0</ele><time>2026-04-24T08:18:09Z</time></trkpt><trkpt lat="45.24479394004499" lon="10.49960968953621"><ele>42.0</ele><time>2026-04-24T08:18:10Z</time></trkpt><trkpt lat="45.24470656232237" lon="10.499905452612403"><ele>43.0</ele><time>2026-04-24T08:18:11Z</time></trkpt><trkpt lat="45.24461901153099" lon="10.500198752028188"><ele>42.0</ele><time>2026-04-24T08:18:12Z</time></trkpt><trkpt lat="45.24452606643093" lon="10.500489845372027"><ele>41.0</ele><time>2026-04-24T08:18:13Z</time></trkpt><trkpt lat="45.244424633443636" lon="10.50077470258933"><ele>41.0</ele><time>2026-04-24T08:18:14Z</time></trkpt><trkpt lat="45.24428398771473" lon="10.501026811868245"><ele>41.0</ele><time>2026-04-24T08:18:15Z</time></trkpt><trkpt lat="45.24416271489745" lon="10.501293301246392"><ele>40.5</ele><time>2026-04-24T08:18:16Z</time></trkpt><trkpt lat="45.24404938173792" lon="10.501571512276366"><ele>40.0</ele><time>2026-04-24T08:18:17Z</time></trkpt><trkpt lat="45.243924289018004" lon="10.501840974100094"><ele>40.0</ele><time>2026-04-24T08:18:18Z</time></trkpt><trkpt lat="45.24380013676072" lon="10.502109062337528"><ele>40.0</ele><time>2026-04-24T08:18:19Z</time></trkpt><trkpt lat="45.24367434288592" lon="10.502377333306168"><ele>40.0</ele><time>2026-04-24T08:18:20Z</time></trkpt><trkpt lat="45.243551863826326" lon="10.502646617590765"><ele>40.0</ele><time>2026-04-24T08:18:21Z</time></trkpt><trkpt lat="45.243425215117476" lon="10.502912522853764"><ele>40.5</ele><time>2026-04-24T08:18:22Z</time></trkpt><trkpt lat="45.24330001568692" lon="10.503184164416842"><ele>41.0</ele><time>2026-04-24T08:18:23Z</time></trkpt><trkpt lat="45.24317698081711" lon="10.503454866417982"><ele>40.0</ele><time>2026-04-24T08:18:24Z</time></trkpt><trkpt lat="45.243052900898654" lon="10.503726135460509"><ele>39.0</ele><time>2026-04-24T08:18:25Z</time></trkpt><trkpt lat="45.24292845084942" lon="10.503995388028358"><ele>39.0</ele><time>2026-04-24T08:18:26Z</time></trkpt><trkpt lat="45.24280221438653" lon="10.504264330671546"><ele>39.0</ele><time>2026-04-24T08:18:27Z</time></trkpt><trkpt lat="45.24267646638785" lon="10.504531911702843"><ele>39.5</ele><time>2026-04-24T08:18:28Z</time></trkpt><trkpt lat="45.24255078054831" lon="10.504799660103846"><ele>40.0</ele><time>2026-04-24T08:18:29Z</time></trkpt><trkpt lat="45.242427542569374" lon="10.505068377135723"><ele>40.0</ele><time>2026-04-24T08:18:30Z</time></trkpt><trkpt lat="45.2423035296165" lon="10.505335575590088"><ele>40.0</ele><time>2026-04-24T08:18:31Z</time></trkpt><trkpt lat="45.242181672496486" lon="10.50560402657914"><ele>40.0</ele><time>2026-04-24T08:18:32Z</time></trkpt><trkpt lat="45.24205440993816" lon="10.505872087603386"><ele>40.0</ele><time>2026-04-24T08:18:33Z</time></trkpt><trkpt lat="45.24191375987123" lon="10.506099210841302"><ele>40.0</ele><time>2026-04-24T08:18:34Z</time></trkpt><trkpt lat="45.24177195079095" lon="10.50628064279618"><ele>39.66666666666667</ele><time>2026-04-24T08:18:35Z</time></trkpt><trkpt lat="45.241615599357665" lon="10.506431585862273"><ele>39.333333333333336</ele><time>2026-04-24T08:18:36Z</time></trkpt><trkpt lat="45.241446834226444" lon="10.506568124902111"><ele>39.0</ele><time>2026-04-24T08:18:37Z</time></trkpt><trkpt lat="45.24126874227751" lon="10.506704074809967"><ele>39.0</ele><time>2026-04-24T08:18:38Z</time></trkpt><trkpt lat="45.24108329607992" lon="10.506844365113594"><ele>39.0</ele><time>2026-04-24T08:18:39Z</time></trkpt><trkpt lat="45.24090174957109" lon="10.507004338151072"><ele>39.0</ele><time>2026-04-24T08:18:40Z</time></trkpt><trkpt lat="45.24070515833198" lon="10.507144573914285"><ele>38.666666666666664</ele><time>2026-04-24T08:18:41Z</time></trkpt><trkpt lat="45.240507825235134" lon="10.507287425550036"><ele>38.33333333333333</ele><time>2026-04-24T08:18:42Z</time></trkpt><trkpt lat="45.2403125762362" lon="10.507433506183245"><ele>38.0</ele><time>2026-04-24T08:18:43Z</time></trkpt><trkpt lat="45.24011763860081" lon="10.507581077604563"><ele>38.0</ele><time>2026-04-24T08:18:44Z</time></trkpt><trkpt lat="45.23992064092653" lon="10.507728556507262"><ele>38.0</ele><time>2026-04-24T08:18:45Z</time></trkpt><trkpt lat="45.23972376045078" lon="10.507876926241055"><ele>38.0</ele><time>2026-04-24T08:18:46Z</time></trkpt><trkpt lat="45.23952804615711" lon="10.508026217892194"><ele>38.33333333333333</ele><time>2026-04-24T08:18:47Z</time></trkpt><trkpt lat="45.23933713783276" lon="10.50817970004121"><ele>38.666666666666664</ele><time>2026-04-24T08:18:48Z</time></trkpt><trkpt lat="45.23914268914834" lon="10.508328335300995"><ele>39.0</ele><time>2026-04-24T08:18:49Z</time></trkpt><trkpt lat="45.238947538614106" lon="10.508477221769507"><ele>39.0</ele><time>2026-04-24T08:18:50Z</time></trkpt><trkpt lat="45.238753357946806" lon="10.508622122908392"><ele>39.0</ele><time>2026-04-24T08:18:51Z</time></trkpt><trkpt lat="45.238560877481035" lon="10.508767923890002"><ele>39.0</ele><time>2026-04-24T08:18:52Z</time></trkpt><trkpt lat="45.238369555061794" lon="10.50891720623527"><ele>39.0</ele><time>2026-04-24T08:18:53Z</time></trkpt><trkpt lat="45.2381755997826" lon="10.509063143295196"><ele>39.0</ele><time>2026-04-24T08:18:54Z</time></trkpt><trkpt lat="45.23798353173357" lon="10.509209427057607"><ele>39.0</ele><time>2026-04-24T08:18:55Z</time></trkpt><trkpt lat="45.237789693124896" lon="10.50935361506318"><ele>39.0</ele><time>2026-04-24T08:18:56Z</time></trkpt><trkpt lat="45.23759410867498" lon="10.5095001778816"><ele>39.0</ele><time>2026-04-24T08:18:57Z</time></trkpt><trkpt lat="45.23739998282139" lon="10.509650431733176"><ele>39.0</ele><time>2026-04-24T08:18:58Z</time></trkpt><trkpt lat="45.2372078044441" lon="10.509798687681906"><ele>39.666666666666664</ele><time>2026-04-24T08:18:59Z</time></trkpt><trkpt lat="45.23703405967751" lon="10.509943985501293"><ele>40.33333333333333</ele><time>2026-04-24T08:19:00Z</time></trkpt><trkpt lat="45.23687954149477" lon="10.51010388402819"><ele>41.0</ele><time>2026-04-24T08:19:01Z</time></trkpt><trkpt lat="45.23674851001037" lon="10.510282042175383"><ele>41.33333333333333</ele><time>2026-04-24T08:19:02Z</time></trkpt><trkpt lat="45.23663748740032" lon="10.510497708327831"><ele>41.666666666666664</ele><time>2026-04-24T08:19:03Z</time></trkpt><trkpt lat="45.23653160276873" lon="10.510733244612815"><ele>42.0</ele><time>2026-04-24T08:19:04Z</time></trkpt><trkpt lat="45.23641876233044" lon="10.510979426127314"><ele>42.0</ele><time>2026-04-24T08:19:05Z</time></trkpt><trkpt lat="45.23630368626524" lon="10.511234337088968"><ele>42.0</ele><time>2026-04-24T08:19:06Z</time></trkpt><trkpt lat="45.23618568215362" lon="10.511495548714295"><ele>42.0</ele><time>2026-04-24T08:19:07Z</time></trkpt><trkpt lat="45.23606507300046" lon="10.511764026249912"><ele>41.0</ele><time>2026-04-24T08:19:08Z</time></trkpt><trkpt lat="45.23594453797096" lon="10.512034338026352"><ele>40.0</ele><time>2026-04-24T08:19:09Z</time></trkpt><trkpt lat="45.23581994436571" lon="10.512304614146737"><ele>40.0</ele><time>2026-04-24T08:19:10Z</time></trkpt><trkpt lat="45.235695603559854" lon="10.512574916662052"><ele>40.0</ele><time>2026-04-24T08:19:11Z</time></trkpt><trkpt lat="45.235568378936534" lon="10.512847686292021"><ele>39.5</ele><time>2026-04-24T08:19:12Z</time></trkpt><trkpt lat="45.23544172730794" lon="10.51311729193794"><ele>39.0</ele><time>2026-04-24T08:19:13Z</time></trkpt><trkpt lat="45.23531410075096" lon="10.513387282148711"><ele>39.0</ele><time>2026-04-24T08:19:14Z</time></trkpt><trkpt lat="45.23519003878715" lon="10.513653067677065"><ele>39.0</ele><time>2026-04-24T08:19:15Z</time></trkpt><trkpt lat="45.23506734242181" lon="10.513913663188907"><ele>39.0</ele><time>2026-04-24T08:19:16Z</time></trkpt><trkpt lat="45.23494534577093" lon="10.51417742950799"><ele>39.0</ele><time>2026-04-24T08:19:17Z</time></trkpt><trkpt lat="45.234819284530545" lon="10.51444150814449"><ele>39.0</ele><time>2026-04-24T08:19:18Z</time></trkpt><trkpt lat="45.23469322746636" lon="10.514706599625544"><ele>39.0</ele><time>2026-04-24T08:19:19Z</time></trkpt><trkpt lat="45.234566722091145" lon="10.514969022416187"><ele>39.0</ele><time>2026-04-24T08:19:20Z</time></trkpt><trkpt lat="45.234441485324815" lon="10.515233553972038"><ele>39.0</ele><time>2026-04-24T08:19:21Z</time></trkpt><trkpt lat="45.23432027802283" lon="10.515501405431056"><ele>39.0</ele><time>2026-04-24T08:19:22Z</time></trkpt><trkpt lat="45.234196611863325" lon="10.515769031033177"><ele>39.0</ele><time>2026-04-24T08:19:23Z</time></trkpt><trkpt lat="45.234073239825136" lon="10.516035229692884"><ele>39.666666666666664</ele><time>2026-04-24T08:19:24Z</time></trkpt><trkpt lat="45.23395138908018" lon="10.516296131009684"><ele>40.33333333333333</ele><time>2026-04-24T08:19:25Z</time></trkpt><trkpt lat="45.23382892575274" lon="10.516556495976557"><ele>41.0</ele><time>2026-04-24T08:19:26Z</time></trkpt><trkpt lat="45.23371039270579" lon="10.516812450020186"><ele>41.0</ele><time>2026-04-24T08:19:27Z</time></trkpt><trkpt lat="45.23358914559028" lon="10.517065389052918"><ele>41.0</ele><time>2026-04-24T08:19:28Z</time></trkpt><trkpt lat="45.23346968420186" lon="10.517321480354829"><ele>41.0</ele><time>2026-04-24T08:19:29Z</time></trkpt><trkpt lat="45.233350074905154" lon="10.517576782387422"><ele>40.666666666666664</ele><time>2026-04-24T08:19:30Z</time></trkpt><trkpt lat="45.23323102434648" lon="10.517826351036646"><ele>40.333333333333336</ele><time>2026-04-24T08:19:31Z</time></trkpt><trkpt lat="45.233115447255756" lon="10.518074158719882"><ele>40.0</ele><time>2026-04-24T08:19:32Z</time></trkpt><trkpt lat="45.233001814214326" lon="10.518320830774698"><ele>40.0</ele><time>2026-04-24T08:19:33Z</time></trkpt><trkpt lat="45.23289001927362" lon="10.518568638437566"><ele>40.0</ele><time>2026-04-24T08:19:34Z</time></trkpt><trkpt lat="45.232777818957864" lon="10.518811771292071"><ele>40.0</ele><time>2026-04-24T08:19:35Z</time></trkpt><trkpt lat="45.2326656352898" lon="10.519054103686727"><ele>39.66666666666667</ele><time>2026-04-24T08:19:36Z</time></trkpt><trkpt lat="45.232547028744705" lon="10.519291729193359"><ele>39.333333333333336</ele><time>2026-04-24T08:19:37Z</time></trkpt><trkpt lat="45.2324306872721" lon="10.519534611017276"><ele>39.0</ele><time>2026-04-24T08:19:38Z</time></trkpt><trkpt lat="45.23231528783588" lon="10.51977651516506"><ele>38.666666666666664</ele><time>2026-04-24T08:19:39Z</time></trkpt><trkpt lat="45.23220161435318" lon="10.520012601040944"><ele>38.33333333333333</ele><time>2026-04-24T08:19:40Z</time></trkpt><trkpt lat="45.23208949313572" lon="10.520253029186444"><ele>38.0</ele><time>2026-04-24T08:19:41Z</time></trkpt><trkpt lat="45.23197647732511" lon="10.520496057505703"><ele>37.666666666666664</ele><time>2026-04-24T08:19:42Z</time></trkpt><trkpt lat="45.231862021638506" lon="10.520735902122466"><ele>37.333333333333336</ele><time>2026-04-24T08:19:43Z</time></trkpt><trkpt lat="45.23174874226945" lon="10.520972664090674"><ele>37.0</ele><time>2026-04-24T08:19:44Z</time></trkpt><trkpt lat="45.231634850102374" lon="10.521207797741873"><ele>37.333333333333336</ele><time>2026-04-24T08:19:45Z</time></trkpt><trkpt lat="45.23152572684205" lon="10.521439362849687"><ele>37.666666666666664</ele><time>2026-04-24T08:19:46Z</time></trkpt><trkpt lat="45.231414155533585" lon="10.521671511351721"><ele>38.0</ele><time>2026-04-24T08:19:47Z</time></trkpt><trkpt lat="45.23130252293712" lon="10.521904389101477"><ele>37.666666666666664</ele><time>2026-04-24T08:19:48Z</time></trkpt><trkpt lat="45.23119880599896" lon="10.52213013505196"><ele>37.333333333333336</ele><time>2026-04-24T08:19:49Z</time></trkpt><trkpt lat="45.231103342295384" lon="10.522342312947593"><ele>37.0</ele><time>2026-04-24T08:19:50Z</time></trkpt><trkpt lat="45.23100349783788" lon="10.522556280863228"><ele>37.0</ele><time>2026-04-24T08:19:51Z</time></trkpt><trkpt lat="45.23090175477513" lon="10.52278139864298"><ele>37.0</ele><time>2026-04-24T08:19:52Z</time></trkpt><trkpt lat="45.230799655441196" lon="10.523010563000637"><ele>37.0</ele><time>2026-04-24T08:19:53Z</time></trkpt><trkpt lat="45.2306967964617" lon="10.523245851814286"><ele>37.333333333333336</ele><time>2026-04-24T08:19:54Z</time></trkpt><trkpt lat="45.230593157620234" lon="10.523481444229594"><ele>37.666666666666664</ele><time>2026-04-24T08:19:55Z</time></trkpt><trkpt lat="45.230480358479696" lon="10.523715964315189"><ele>38.0</ele><time>2026-04-24T08:19:56Z</time></trkpt><trkpt lat="45.23036450481422" lon="10.523947867748664"><ele>38.0</ele><time>2026-04-24T08:19:57Z</time></trkpt><trkpt lat="45.23024855391057" lon="10.524181921333103"><ele>38.0</ele><time>2026-04-24T08:19:58Z</time></trkpt><trkpt lat="45.23013159220286" lon="10.524414483084954"><ele>38.0</ele><time>2026-04-24T08:19:59Z</time></trkpt><trkpt lat="45.23002353673109" lon="10.524647991123347"><ele>38.666666666666664</ele><time>2026-04-24T08:20:00Z</time></trkpt><trkpt lat="45.22991613762168" lon="10.524879243279585"><ele>39.333333333333336</ele><time>2026-04-24T08:20:01Z</time></trkpt><trkpt lat="45.22981076635921" lon="10.52510249743018"><ele>40.0</ele><time>2026-04-24T08:20:02Z</time></trkpt><trkpt lat="45.229710098121416" lon="10.525308503549505"><ele>38.66666666666667</ele><time>2026-04-24T08:20:03Z</time></trkpt><trkpt lat="45.22961341198944" lon="10.525511746482564"><ele>37.333333333333336</ele><time>2026-04-24T08:20:04Z</time></trkpt><trkpt lat="45.229516544869796" lon="10.525711749755994"><ele>36.0</ele><time>2026-04-24T08:20:05Z</time></trkpt><trkpt lat="45.2294208192429" lon="10.525915975357103"><ele>36.0</ele><time>2026-04-24T08:20:06Z</time></trkpt><trkpt lat="45.22932491041255" lon="10.52612153466986"><ele>36.0</ele><time>2026-04-24T08:20:07Z</time></trkpt><trkpt lat="45.22922747951135" lon="10.526328854915974"><ele>36.0</ele><time>2026-04-24T08:20:08Z</time></trkpt><trkpt lat="45.22912917779234" lon="10.526534686622874"><ele>36.333333333333336</ele><time>2026-04-24T08:20:09Z</time></trkpt><trkpt lat="45.229033409397545" lon="10.526732677315847"><ele>36.66666666666667</ele><time>2026-04-24T08:20:10Z</time></trkpt><trkpt lat="45.2289419287603" lon="10.526922976124764"><ele>37.0</ele><time>2026-04-24T08:20:11Z</time></trkpt><trkpt lat="45.228854431495904" lon="10.52710339991891"><ele>37.0</ele><time>2026-04-24T08:20:12Z</time></trkpt><trkpt lat="45.22877314810588" lon="10.527272410009042"><ele>37.0</ele><time>2026-04-24T08:20:13Z</time></trkpt><trkpt lat="45.22869176815687" lon="10.527437606663632"><ele>37.0</ele><time>2026-04-24T08:20:14Z</time></trkpt><trkpt lat="45.22861076516161" lon="10.527604267843746"><ele>37.0</ele><time>2026-04-24T08:20:15Z</time></trkpt><trkpt lat="45.228531767243446" lon="10.527775475749902"><ele>37.25</ele><time>2026-04-24T08:20:16Z</time></trkpt><trkpt lat="45.22845321247466" lon="10.52794775736805"><ele>37.5</ele><time>2026-04-24T08:20:17Z</time></trkpt><trkpt lat="45.2283759437713" lon="10.528118850613604"><ele>37.75</ele><time>2026-04-24T08:20:18Z</time></trkpt><trkpt lat="45.22829751717176" lon="10.528290894214251"><ele>38.0</ele><time>2026-04-24T08:20:19Z</time></trkpt><trkpt lat="45.22821453888435" lon="10.528461065520558"><ele>38.0</ele><time>2026-04-24T08:20:20Z</time></trkpt><trkpt lat="45.22813097630164" lon="10.528638128685978"><ele>38.0</ele><time>2026-04-24T08:20:21Z</time></trkpt><trkpt lat="45.22804980471541" lon="10.528817743607284"><ele>38.0</ele><time>2026-04-24T08:20:22Z</time></trkpt><trkpt lat="45.22797056438306" lon="10.528991554487584"><ele>38.0</ele><time>2026-04-24T08:20:23Z</time></trkpt><trkpt lat="45.227894828752696" lon="10.529148695240115"><ele>38.0</ele><time>2026-04-24T08:20:24Z</time></trkpt><trkpt lat="45.22782611827409" lon="10.529301351087607"><ele>38.0</ele><time>2026-04-24T08:20:25Z</time></trkpt><trkpt lat="45.22775390236451" lon="10.529455674483597"><ele>38.0</ele><time>2026-04-24T08:20:26Z</time></trkpt><trkpt lat="45.22768421826486" lon="10.529611021360527"><ele>38.0</ele><time>2026-04-24T08:20:27Z</time></trkpt><trkpt lat="45.22761458524435" lon="10.529762918157918"><ele>38.33333333333333</ele><time>2026-04-24T08:20:28Z</time></trkpt><trkpt lat="45.22754467553066" lon="10.529917163930365"><ele>38.666666666666664</ele><time>2026-04-24T08:20:29Z</time></trkpt><trkpt lat="45.2274069507281" lon="10.53021589190599"><ele>39.0</ele><time>2026-04-24T08:20:31Z</time></trkpt><trkpt lat="45.2273392684853" lon="10.530357627343832"><ele>39.25</ele><time>2026-04-24T08:20:32Z</time></trkpt><trkpt lat="45.22727068319115" lon="10.530500319752921"><ele>39.5</ele><time>2026-04-24T08:20:33Z</time></trkpt><trkpt lat="45.22720402080176" lon="10.530643672592737"><ele>39.75</ele><time>2026-04-24T08:20:34Z</time></trkpt><trkpt lat="45.22713566623089" lon="10.530788355222887"><ele>40.0</ele><time>2026-04-24T08:20:35Z</time></trkpt><trkpt lat="45.22706233551101" lon="10.530933276484884"><ele>40.0</ele><time>2026-04-24T08:20:36Z</time></trkpt><trkpt lat="45.22699490922019" lon="10.531088433327575"><ele>40.0</ele><time>2026-04-24T08:20:37Z</time></trkpt><trkpt lat="45.226925992973854" lon="10.531250705859858"><ele>40.0</ele><time>2026-04-24T08:20:38Z</time></trkpt><trkpt lat="45.22685197979566" lon="10.531414993956474"><ele>40.0</ele><time>2026-04-24T08:20:39Z</time></trkpt><trkpt lat="45.2267765110187" lon="10.53158170029006"><ele>40.0</ele><time>2026-04-24T08:20:40Z</time></trkpt><trkpt lat="45.226702311852705" lon="10.531754860895616"><ele>40.0</ele><time>2026-04-24T08:20:41Z</time></trkpt><trkpt lat="45.226626445531686" lon="10.53193366354486"><ele>40.0</ele><time>2026-04-24T08:20:42Z</time></trkpt><trkpt lat="45.226548671473886" lon="10.532106144582698"><ele>40.0</ele><time>2026-04-24T08:20:43Z</time></trkpt><trkpt lat="45.22647327014327" lon="10.532274734247313"><ele>40.0</ele><time>2026-04-24T08:20:44Z</time></trkpt><trkpt lat="45.22640102033958" lon="10.532445504087521"><ele>40.0</ele><time>2026-04-24T08:20:45Z</time></trkpt><trkpt lat="45.226332633546136" lon="10.532613744272602"><ele>40.0</ele><time>2026-04-24T08:20:46Z</time></trkpt><trkpt lat="45.226265488201236" lon="10.532775732970919"><ele>40.0</ele><time>2026-04-24T08:20:47Z</time></trkpt><trkpt lat="45.226200817198155" lon="10.532932841076292"><ele>40.0</ele><time>2026-04-24T08:20:48Z</time></trkpt><trkpt lat="45.22613538702881" lon="10.533080613146428"><ele>40.0</ele><time>2026-04-24T08:20:49Z</time></trkpt><trkpt lat="45.22607004023382" lon="10.53323250776925"><ele>40.0</ele><time>2026-04-24T08:20:50Z</time></trkpt><trkpt lat="45.226004472786485" lon="10.53338929199966"><ele>40.0</ele><time>2026-04-24T08:20:51Z</time></trkpt><trkpt lat="45.22593989359822" lon="10.533535585523648"><ele>40.0</ele><time>2026-04-24T08:20:52Z</time></trkpt><trkpt lat="45.2258856625715" lon="10.533672630937414"><ele>40.0</ele><time>2026-04-24T08:20:53Z</time></trkpt><trkpt lat="45.2258407082602" lon="10.533792277860453"><ele>40.0</ele><time>2026-04-24T08:20:54Z</time></trkpt><trkpt lat="45.225808877942825" lon="10.533895502935877"><ele>40.0</ele><time>2026-04-24T08:20:55Z</time></trkpt><trkpt lat="45.22572148634507" lon="10.53396871598413"><ele>40.0</ele><time>2026-04-24T08:20:57Z</time></trkpt><trkpt lat="45.22562676944256" lon="10.5338225456327"><ele>40.0</ele><time>2026-04-24T08:20:59Z</time></trkpt><trkpt lat="45.22556256850757" lon="10.533744628361317"><ele>40.0</ele><time>2026-04-24T08:21:00Z</time></trkpt><trkpt lat="45.225478628999625" lon="10.53364157676677"><ele>40.0</ele><time>2026-04-24T08:21:01Z</time></trkpt><trkpt lat="45.22537462108146" lon="10.533519414263466"><ele>40.0</ele><time>2026-04-24T08:21:02Z</time></trkpt><trkpt lat="45.22524660224872" lon="10.533394596115178"><ele>40.0</ele><time>2026-04-24T08:21:03Z</time></trkpt><trkpt lat="45.22509249334535" lon="10.53327783285861"><ele>40.0</ele><time>2026-04-24T08:21:04Z</time></trkpt><trkpt lat="45.22493310038429" lon="10.533132292217454"><ele>40.0</ele><time>2026-04-24T08:21:05Z</time></trkpt><trkpt lat="45.22477492818843" lon="10.532991650854532"><ele>39.333333333333336</ele><time>2026-04-24T08:21:06Z</time></trkpt><trkpt lat="45.22460887748937" lon="10.532842573831761"><ele>38.666666666666664</ele><time>2026-04-24T08:21:07Z</time></trkpt><trkpt lat="45.22443985078541" lon="10.53268430463886"><ele>38.0</ele><time>2026-04-24T08:21:08Z</time></trkpt><trkpt lat="45.22426732119467" lon="10.532521475742895"><ele>38.0</ele><time>2026-04-24T08:21:09Z</time></trkpt><trkpt lat="45.22409346056726" lon="10.53235235690054"><ele>38.0</ele><time>2026-04-24T08:21:10Z</time></trkpt><trkpt lat="45.22392101512989" lon="10.532181387568238"><ele>38.0</ele><time>2026-04-24T08:21:11Z</time></trkpt><trkpt lat="45.223746676580134" lon="10.532016400438561"><ele>36.666666666666664</ele><time>2026-04-24T08:21:12Z</time></trkpt><trkpt lat="45.22356841499058" lon="10.531849424527712"><ele>35.333333333333336</ele><time>2026-04-24T08:21:13Z</time></trkpt><trkpt lat="45.22338738414333" lon="10.531680850415123"><ele>34.0</ele><time>2026-04-24T08:21:14Z</time></trkpt><trkpt lat="45.22321106056767" lon="10.531514078819495"><ele>34.66666666666667</ele><time>2026-04-24T08:21:15Z</time></trkpt><trkpt lat="45.22303375850574" lon="10.531343789780818"><ele>35.333333333333336</ele><time>2026-04-24T08:21:16Z</time></trkpt><trkpt lat="45.222857459032035" lon="10.531173781348164"><ele>36.0</ele><time>2026-04-24T08:21:17Z</time></trkpt><trkpt lat="45.222680902852716" lon="10.53100266306785"><ele>36.0</ele><time>2026-04-24T08:21:18Z</time></trkpt><trkpt lat="45.22250667336299" lon="10.53083466766853"><ele>36.0</ele><time>2026-04-24T08:21:19Z</time></trkpt><trkpt lat="45.22232946689485" lon="10.530670743125198"><ele>36.0</ele><time>2026-04-24T08:21:20Z</time></trkpt><trkpt lat="45.22216093693408" lon="10.530492751521585"><ele>36.0</ele><time>2026-04-24T08:21:21Z</time></trkpt><trkpt lat="45.221986768979676" lon="10.530332556594892"><ele>36.0</ele><time>2026-04-24T08:21:22Z</time></trkpt><trkpt lat="45.22181408032617" lon="10.530173722284342"><ele>36.0</ele><time>2026-04-24T08:21:23Z</time></trkpt><trkpt lat="45.221641926503956" lon="10.530015379896655"><ele>36.333333333333336</ele><time>2026-04-24T08:21:24Z</time></trkpt><trkpt lat="45.221466428049034" lon="10.529867722052453"><ele>36.66666666666667</ele><time>2026-04-24T08:21:25Z</time></trkpt><trkpt lat="45.22129946538305" lon="10.5297136727371"><ele>37.0</ele><time>2026-04-24T08:21:26Z</time></trkpt><trkpt lat="45.22112840388897" lon="10.529565619915669"><ele>37.333333333333336</ele><time>2026-04-24T08:21:27Z</time></trkpt><trkpt lat="45.220961873856744" lon="10.529387156324379"><ele>37.666666666666664</ele><time>2026-04-24T08:21:28Z</time></trkpt><trkpt lat="45.220783451326376" lon="10.529221547382146"><ele>38.0</ele><time>2026-04-24T08:21:29Z</time></trkpt><trkpt lat="45.2205985018229" lon="10.529050031278171"><ele>38.0</ele><time>2026-04-24T08:21:30Z</time></trkpt><trkpt lat="45.22040414564518" lon="10.528896051281937"><ele>38.0</ele><time>2026-04-24T08:21:31Z</time></trkpt><trkpt lat="45.220217649592215" lon="10.528722023243558"><ele>38.0</ele><time>2026-04-24T08:21:32Z</time></trkpt><trkpt lat="45.22003241707241" lon="10.528545614210866"><ele>38.0</ele><time>2026-04-24T08:21:33Z</time></trkpt><trkpt lat="45.21984644912947" lon="10.528372499680854"><ele>38.0</ele><time>2026-04-24T08:21:34Z</time></trkpt><trkpt lat="45.21966396535879" lon="10.528200172388603"><ele>38.0</ele><time>2026-04-24T08:21:35Z</time></trkpt><trkpt lat="45.21947966885723" lon="10.528030220418094"><ele>37.666666666666664</ele><time>2026-04-24T08:21:36Z</time></trkpt><trkpt lat="45.21929651742366" lon="10.527858552873182"><ele>37.333333333333336</ele><time>2026-04-24T08:21:37Z</time></trkpt><trkpt lat="45.219115336870715" lon="10.527680830599662"><ele>37.0</ele><time>2026-04-24T08:21:38Z</time></trkpt><trkpt lat="45.21893462709044" lon="10.52749982976859"><ele>37.0</ele><time>2026-04-24T08:21:39Z</time></trkpt><trkpt lat="45.218752575471775" lon="10.527321279128255"><ele>37.0</ele><time>2026-04-24T08:21:40Z</time></trkpt><trkpt lat="45.21857236281004" lon="10.527143667678137"><ele>37.0</ele><time>2026-04-24T08:21:41Z</time></trkpt><trkpt lat="45.21839424055279" lon="10.52696378443198"><ele>37.0</ele><time>2026-04-24T08:21:42Z</time></trkpt><trkpt lat="45.21821130933669" lon="10.52678602021967"><ele>37.0</ele><time>2026-04-24T08:21:43Z</time></trkpt><trkpt lat="45.218027534862834" lon="10.526611942165964"><ele>37.0</ele><time>2026-04-24T08:21:44Z</time></trkpt><trkpt lat="45.217844926046084" lon="10.52643707792653"><ele>37.333333333333336</ele><time>2026-04-24T08:21:45Z</time></trkpt><trkpt lat="45.21766214789409" lon="10.526262095606805"><ele>37.666666666666664</ele><time>2026-04-24T08:21:46Z</time></trkpt><trkpt lat="45.21748719481104" lon="10.526067606060787"><ele>38.0</ele><time>2026-04-24T08:21:47Z</time></trkpt><trkpt lat="45.217304489576854" lon="10.525892739788103"><ele>38.0</ele><time>2026-04-24T08:21:48Z</time></trkpt><trkpt lat="45.21711098034018" lon="10.525739848105209"><ele>38.0</ele><time>2026-04-24T08:21:49Z</time></trkpt><trkpt lat="45.216926587617024" lon="10.525569315559466"><ele>38.0</ele><time>2026-04-24T08:21:50Z</time></trkpt><trkpt lat="45.216742535185354" lon="10.525399739393585"><ele>38.0</ele><time>2026-04-24T08:21:51Z</time></trkpt><trkpt lat="45.21656739080403" lon="10.525210736006104"><ele>38.0</ele><time>2026-04-24T08:21:52Z</time></trkpt><trkpt lat="45.21638207499778" lon="10.525041005463773"><ele>38.0</ele><time>2026-04-24T08:21:53Z</time></trkpt><trkpt lat="45.21619658804143" lon="10.52487111962845"><ele>38.0</ele><time>2026-04-24T08:21:54Z</time></trkpt><trkpt lat="45.21601063431851" lon="10.52470082664939"><ele>38.0</ele><time>2026-04-24T08:21:55Z</time></trkpt><trkpt lat="45.21582465070824" lon="10.524532210354005"><ele>38.0</ele><time>2026-04-24T08:21:56Z</time></trkpt><trkpt lat="45.215628387044006" lon="10.524380759693953"><ele>37.33333333333333</ele><time>2026-04-24T08:21:57Z</time></trkpt><trkpt lat="45.21544314850198" lon="10.524213029752794"><ele>36.666666666666664</ele><time>2026-04-24T08:21:58Z</time></trkpt><trkpt lat="45.21525950506931" lon="10.524047115940098"><ele>36.0</ele><time>2026-04-24T08:21:59Z</time></trkpt><trkpt lat="45.2150747978431" lon="10.523882288980102"><ele>36.0</ele><time>2026-04-24T08:22:00Z</time></trkpt><trkpt lat="45.21488955915347" lon="10.523716148364205"><ele>36.0</ele><time>2026-04-24T08:22:01Z</time></trkpt><trkpt lat="45.214704485259254" lon="10.523550013584723"><ele>36.0</ele><time>2026-04-24T08:22:02Z</time></trkpt><trkpt lat="45.21452986114416" lon="10.523394511671404"><ele>36.0</ele><time>2026-04-24T08:22:03Z</time></trkpt><trkpt lat="45.21436772533645" lon="10.523249360200717"><ele>36.0</ele><time>2026-04-24T08:22:04Z</time></trkpt><trkpt lat="45.21421954706001" lon="10.523104236212907"><ele>36.0</ele><time>2026-04-24T08:22:05Z</time></trkpt><trkpt lat="45.21407588845748" lon="10.522975633775722"><ele>36.333333333333336</ele><time>2026-04-24T08:22:06Z</time></trkpt><trkpt lat="45.213938175713714" lon="10.522851579183834"><ele>36.66666666666667</ele><time>2026-04-24T08:22:07Z</time></trkpt><trkpt lat="45.213813874103465" lon="10.522733754068309"><ele>37.0</ele><time>2026-04-24T08:22:08Z</time></trkpt><trkpt lat="45.21368545327984" lon="10.522620678060822"><ele>37.0</ele><time>2026-04-24T08:22:09Z</time></trkpt><trkpt lat="45.21356151081959" lon="10.522503407974543"><ele>37.0</ele><time>2026-04-24T08:22:10Z</time></trkpt><trkpt lat="45.213439590492506" lon="10.522397023394813"><ele>37.0</ele><time>2026-04-24T08:22:11Z</time></trkpt><trkpt lat="45.21332467740537" lon="10.522292633574247"><ele>37.0</ele><time>2026-04-24T08:22:12Z</time></trkpt><trkpt lat="45.21320287861021" lon="10.522181522704974"><ele>36.75</ele><time>2026-04-24T08:22:13Z</time></trkpt><trkpt lat="45.2130767273111" lon="10.522064483815885"><ele>36.5</ele><time>2026-04-24T08:22:14Z</time></trkpt><trkpt lat="45.212956334297886" lon="10.521955003619082"><ele>36.25</ele><time>2026-04-24T08:22:15Z</time></trkpt><trkpt lat="45.21284361883963" lon="10.521857920380786"><ele>36.0</ele><time>2026-04-24T08:22:16Z</time></trkpt><trkpt lat="45.2127450312097" lon="10.521768909793968"><ele>36.0</ele><time>2026-04-24T08:22:17Z</time></trkpt><trkpt lat="45.2126598496805" lon="10.521693642097894"><ele>36.0</ele><time>2026-04-24T08:22:18Z</time></trkpt><trkpt lat="45.21258437981614" lon="10.521629849105086"><ele>36.0</ele><time>2026-04-24T08:22:19Z</time></trkpt><trkpt lat="45.21247764281877" lon="10.52159193823229"><ele>36.0</ele><time>2026-04-24T08:22:21Z</time></trkpt><trkpt lat="45.21236450318708" lon="10.521738003747691"><ele>36.0</ele><time>2026-04-24T08:22:23Z</time></trkpt><trkpt lat="45.2122951271076" lon="10.521841222276704"><ele>36.0</ele><time>2026-04-24T08:22:24Z</time></trkpt><trkpt lat="45.21221128768174" lon="10.521952901059693"><ele>36.0</ele><time>2026-04-24T08:22:25Z</time></trkpt><trkpt lat="45.21212279071309" lon="10.522084559880797"><ele>36.0</ele><time>2026-04-24T08:22:26Z</time></trkpt><trkpt lat="45.21202521723156" lon="10.52222981743531"><ele>35.666666666666664</ele><time>2026-04-24T08:22:27Z</time></trkpt><trkpt lat="45.211921913788075" lon="10.522384135632704"><ele>35.33333333333333</ele><time>2026-04-24T08:22:28Z</time></trkpt><trkpt lat="45.211811048526556" lon="10.522537983579758"><ele>35.0</ele><time>2026-04-24T08:22:29Z</time></trkpt><trkpt lat="45.211693259184564" lon="10.522698359757907"><ele>35.0</ele><time>2026-04-24T08:22:30Z</time></trkpt><trkpt lat="45.211573332612595" lon="10.522867184416443"><ele>35.0</ele><time>2026-04-24T08:22:31Z</time></trkpt><trkpt lat="45.21145257612937" lon="10.523039724968529"><ele>35.0</ele><time>2026-04-24T08:22:32Z</time></trkpt><trkpt lat="45.21132985297962" lon="10.523221346035667"><ele>35.33333333333333</ele><time>2026-04-24T08:22:33Z</time></trkpt><trkpt lat="45.211208827148404" lon="10.523404886770006"><ele>35.666666666666664</ele><time>2026-04-24T08:22:34Z</time></trkpt><trkpt lat="45.211100227127595" lon="10.523579077019082"><ele>36.0</ele><time>2026-04-24T08:22:35Z</time></trkpt><trkpt lat="45.211001985071235" lon="10.523753061377178"><ele>36.0</ele><time>2026-04-24T08:22:36Z</time></trkpt><trkpt lat="45.210902466176236" lon="10.523924879703474"><ele>36.0</ele><time>2026-04-24T08:22:37Z</time></trkpt><trkpt lat="45.21080627590513" lon="10.52409841080398"><ele>36.0</ele><time>2026-04-24T08:22:38Z</time></trkpt><trkpt lat="45.210700767437906" lon="10.524256266743041"><ele>36.0</ele><time>2026-04-24T08:22:39Z</time></trkpt><trkpt lat="45.21058905360035" lon="10.524403948167015"><ele>36.0</ele><time>2026-04-24T08:22:40Z</time></trkpt><trkpt lat="45.210475549688546" lon="10.524538428248048"><ele>36.0</ele><time>2026-04-24T08:22:41Z</time></trkpt><trkpt lat="45.210362762189874" lon="10.524665152987875"><ele>36.0</ele><time>2026-04-24T08:22:42Z</time></trkpt><trkpt lat="45.210258415274836" lon="10.524795221923739"><ele>36.0</ele><time>2026-04-24T08:22:43Z</time></trkpt><trkpt lat="45.21016161371954" lon="10.524931175668186"><ele>36.0</ele><time>2026-04-24T08:22:44Z</time></trkpt><trkpt lat="45.2100697629483" lon="10.525081253562096"><ele>36.0</ele><time>2026-04-24T08:22:45Z</time></trkpt><trkpt lat="45.20998845650067" lon="10.5252505255657"><ele>36.0</ele><time>2026-04-24T08:22:46Z</time></trkpt><trkpt lat="45.2099214165257" lon="10.525436532407172"><ele>36.0</ele><time>2026-04-24T08:22:47Z</time></trkpt><trkpt lat="45.209858248961325" lon="10.525630380497956"><ele>36.0</ele><time>2026-04-24T08:22:48Z</time></trkpt><trkpt lat="45.20979006175668" lon="10.525828581864129"><ele>36.0</ele><time>2026-04-24T08:22:49Z</time></trkpt><trkpt lat="45.2097229369218" lon="10.526025667692862"><ele>36.0</ele><time>2026-04-24T08:22:50Z</time></trkpt><trkpt lat="45.20965264022623" lon="10.52621802618146"><ele>36.0</ele><time>2026-04-24T08:22:51Z</time></trkpt><trkpt lat="45.20958388288879" lon="10.526404634709206"><ele>36.0</ele><time>2026-04-24T08:22:52Z</time></trkpt><trkpt lat="45.2095121373247" lon="10.526589376422066"><ele>36.0</ele><time>2026-04-24T08:22:53Z</time></trkpt><trkpt lat="45.20944480102753" lon="10.526776755198666"><ele>36.0</ele><time>2026-04-24T08:22:54Z</time></trkpt><trkpt lat="45.20937798011341" lon="10.52696644314459"><ele>36.0</ele><time>2026-04-24T08:22:55Z</time></trkpt><trkpt lat="45.20930846837737" lon="10.527170335703987"><ele>35.666666666666664</ele><time>2026-04-24T08:22:56Z</time></trkpt><trkpt lat="45.20923385532884" lon="10.527387358089594"><ele>35.33333333333333</ele><time>2026-04-24T08:22:57Z</time></trkpt><trkpt lat="45.209154097211886" lon="10.52760593125032"><ele>35.0</ele><time>2026-04-24T08:22:58Z</time></trkpt><trkpt lat="45.20906947699017" lon="10.527832412986635"><ele>35.0</ele><time>2026-04-24T08:22:59Z</time></trkpt><trkpt lat="45.20898521879473" lon="10.528064043063416"><ele>35.0</ele><time>2026-04-24T08:23:00Z</time></trkpt><trkpt lat="45.20889930243966" lon="10.528301782451694"><ele>35.0</ele><time>2026-04-24T08:23:01Z</time></trkpt><trkpt lat="45.208812518422846" lon="10.52853950840469"><ele>35.33333333333333</ele><time>2026-04-24T08:23:02Z</time></trkpt><trkpt lat="45.20872465024555" lon="10.528773644398203"><ele>35.666666666666664</ele><time>2026-04-24T08:23:03Z</time></trkpt><trkpt lat="45.208637219625196" lon="10.52900463672322"><ele>36.0</ele><time>2026-04-24T08:23:04Z</time></trkpt><trkpt lat="45.20854871012977" lon="10.529239409136652"><ele>36.0</ele><time>2026-04-24T08:23:05Z</time></trkpt><trkpt lat="45.20846010026104" lon="10.529479660190159"><ele>36.0</ele><time>2026-04-24T08:23:06Z</time></trkpt><trkpt lat="45.20837255451226" lon="10.52972419236699"><ele>36.0</ele><time>2026-04-24T08:23:07Z</time></trkpt><trkpt lat="45.20828129450084" lon="10.529966575089276"><ele>36.333333333333336</ele><time>2026-04-24T08:23:08Z</time></trkpt><trkpt lat="45.208191369697765" lon="10.530211592864934"><ele>36.66666666666667</ele><time>2026-04-24T08:23:09Z</time></trkpt><trkpt lat="45.208101227711204" lon="10.530458997273673"><ele>37.0</ele><time>2026-04-24T08:23:10Z</time></trkpt><trkpt lat="45.20801131644201" lon="10.530707291272416"><ele>37.0</ele><time>2026-04-24T08:23:11Z</time></trkpt><trkpt lat="45.20792237530952" lon="10.530952032763153"><ele>37.0</ele><time>2026-04-24T08:23:12Z</time></trkpt><trkpt lat="45.20783439083435" lon="10.531192368823078"><ele>37.0</ele><time>2026-04-24T08:23:13Z</time></trkpt><trkpt lat="45.20774913700314" lon="10.53143402099971"><ele>37.0</ele><time>2026-04-24T08:23:14Z</time></trkpt><trkpt lat="45.207666055259295" lon="10.531671727602843"><ele>37.0</ele><time>2026-04-24T08:23:15Z</time></trkpt><trkpt lat="45.20758756312601" lon="10.531907614793495"><ele>37.0</ele><time>2026-04-24T08:23:16Z</time></trkpt><trkpt lat="45.207511516045635" lon="10.532142258183786"><ele>36.66666666666667</ele><time>2026-04-24T08:23:17Z</time></trkpt><trkpt lat="45.20744186058759" lon="10.53237500446688"><ele>36.333333333333336</ele><time>2026-04-24T08:23:18Z</time></trkpt><trkpt lat="45.20737576380273" lon="10.532613961668224"><ele>36.0</ele><time>2026-04-24T08:23:19Z</time></trkpt><trkpt lat="45.20731666106194" lon="10.532855101551556"><ele>35.666666666666664</ele><time>2026-04-24T08:23:20Z</time></trkpt><trkpt lat="45.207257791513044" lon="10.533097975764306"><ele>35.33333333333333</ele><time>2026-04-24T08:23:21Z</time></trkpt><trkpt lat="45.20720779848968" lon="10.533338572723833"><ele>35.0</ele><time>2026-04-24T08:23:22Z</time></trkpt><trkpt lat="45.20716624503547" lon="10.533578843172554"><ele>35.33333333333333</ele><time>2026-04-24T08:23:23Z</time></trkpt><trkpt lat="45.207137654479624" lon="10.533808253870342"><ele>35.666666666666664</ele><time>2026-04-24T08:23:24Z</time></trkpt><trkpt lat="45.2071140375067" lon="10.53402275153388"><ele>36.0</ele><time>2026-04-24T08:23:25Z</time></trkpt><trkpt lat="45.207099949300435" lon="10.534221797350522"><ele>36.0</ele><time>2026-04-24T08:23:26Z</time></trkpt><trkpt lat="45.207083047907254" lon="10.534415982692117"><ele>36.0</ele><time>2026-04-24T08:23:27Z</time></trkpt><trkpt lat="45.20702717122411" lon="10.534598288910049"><ele>36.0</ele><time>2026-04-24T08:23:28Z</time></trkpt><trkpt lat="45.20697364377866" lon="10.534794035741337"><ele>36.0</ele><time>2026-04-24T08:23:29Z</time></trkpt><trkpt lat="45.206911855942856" lon="10.535004139764316"><ele>36.0</ele><time>2026-04-24T08:23:30Z</time></trkpt><trkpt lat="45.20686306752108" lon="10.535231952902148"><ele>36.0</ele><time>2026-04-24T08:23:31Z</time></trkpt><trkpt lat="45.206797979157706" lon="10.535462323630526"><ele>36.0</ele><time>2026-04-24T08:23:32Z</time></trkpt><trkpt lat="45.20673336365062" lon="10.535701428704717"><ele>36.0</ele><time>2026-04-24T08:23:33Z</time></trkpt><trkpt lat="45.20666532827637" lon="10.535942613200396"><ele>36.0</ele><time>2026-04-24T08:23:34Z</time></trkpt><trkpt lat="45.206602819100866" lon="10.536182552680362"><ele>36.0</ele><time>2026-04-24T08:23:35Z</time></trkpt><trkpt lat="45.206549536129714" lon="10.536402614018925"><ele>35.666666666666664</ele><time>2026-04-24T08:23:36Z</time></trkpt><trkpt lat="45.206491330943045" lon="10.536605464931728"><ele>35.33333333333333</ele><time>2026-04-24T08:23:37Z</time></trkpt><trkpt lat="45.20639565980227" lon="10.5367760355735"><ele>35.0</ele><time>2026-04-24T08:23:38Z</time></trkpt><trkpt lat="45.206300232122146" lon="10.536965588565314"><ele>34.666666666666664</ele><time>2026-04-24T08:23:39Z</time></trkpt><trkpt lat="45.20619774356938" lon="10.537162046344093"><ele>34.333333333333336</ele><time>2026-04-24T08:23:40Z</time></trkpt><trkpt lat="45.206090009387175" lon="10.537364539676219"><ele>34.0</ele><time>2026-04-24T08:23:41Z</time></trkpt><trkpt lat="45.205990584247814" lon="10.537577950030679"><ele>34.0</ele><time>2026-04-24T08:23:42Z</time></trkpt><trkpt lat="45.205879106958726" lon="10.537754124445133"><ele>34.0</ele><time>2026-04-24T08:23:43Z</time></trkpt><trkpt lat="45.20574668879839" lon="10.537875321808352"><ele>34.0</ele><time>2026-04-24T08:23:44Z</time></trkpt><trkpt lat="45.205619441070255" lon="10.537987517831391"><ele>33.66666666666667</ele><time>2026-04-24T08:23:45Z</time></trkpt><trkpt lat="45.20548227971553" lon="10.538092409196786"><ele>33.333333333333336</ele><time>2026-04-24T08:23:46Z</time></trkpt><trkpt lat="45.20535072581205" lon="10.538219685344218"><ele>33.0</ele><time>2026-04-24T08:23:47Z</time></trkpt><trkpt lat="45.20521401913489" lon="10.538319656713021"><ele>33.0</ele><time>2026-04-24T08:23:48Z</time></trkpt><trkpt lat="45.20508211459368" lon="10.53841527006092"><ele>33.0</ele><time>2026-04-24T08:23:49Z</time></trkpt><trkpt lat="45.20495765677016" lon="10.538502010298123"><ele>33.0</ele><time>2026-04-24T08:23:50Z</time></trkpt><trkpt lat="45.2048278686962" lon="10.538583829436698"><ele>33.0</ele><time>2026-04-24T08:23:51Z</time></trkpt><trkpt lat="45.204687045775785" lon="10.53866663997094"><ele>34.0</ele><time>2026-04-24T08:23:52Z</time></trkpt><trkpt lat="45.20453748705354" lon="10.538744594728655"><ele>35.0</ele><time>2026-04-24T08:23:53Z</time></trkpt><trkpt lat="45.20438379093657" lon="10.538824045444908"><ele>36.0</ele><time>2026-04-24T08:23:54Z</time></trkpt><trkpt lat="45.20422825800689" lon="10.538914972474805"><ele>36.0</ele><time>2026-04-24T08:23:55Z</time></trkpt><trkpt lat="45.204073462806655" lon="10.53900547389529"><ele>36.0</ele><time>2026-04-24T08:23:56Z</time></trkpt><trkpt lat="45.2039263430333" lon="10.539085573774381"><ele>36.0</ele><time>2026-04-24T08:23:57Z</time></trkpt><trkpt lat="45.203782156925776" lon="10.53916953618957"><ele>36.25</ele><time>2026-04-24T08:23:58Z</time></trkpt><trkpt lat="45.20364428920594" lon="10.539251032271762"><ele>36.5</ele><time>2026-04-24T08:23:59Z</time></trkpt><trkpt lat="45.20351953255126" lon="10.539324334005677"><ele>36.75</ele><time>2026-04-24T08:24:00Z</time></trkpt><trkpt lat="45.20340703087557" lon="10.539388126835163"><ele>37.0</ele><time>2026-04-24T08:24:01Z</time></trkpt><trkpt lat="45.20330929781218" lon="10.539445012035966"><ele>37.0</ele><time>2026-04-24T08:24:02Z</time></trkpt><trkpt lat="45.203217929182" lon="10.539493973578827"><ele>37.0</ele><time>2026-04-24T08:24:03Z</time></trkpt><trkpt lat="45.20312263535235" lon="10.539556343968837"><ele>37.0</ele><time>2026-04-24T08:24:04Z</time></trkpt><trkpt lat="45.20301785820933" lon="10.53960813965125"><ele>37.0</ele><time>2026-04-24T08:24:05Z</time></trkpt><trkpt lat="45.20291363735347" lon="10.539668502263744"><ele>37.0</ele><time>2026-04-24T08:24:06Z</time></trkpt><trkpt lat="45.20279188101791" lon="10.539728901872737"><ele>36.75</ele><time>2026-04-24T08:24:07Z</time></trkpt><trkpt lat="45.202665446333505" lon="10.539795656947815"><ele>36.5</ele><time>2026-04-24T08:24:08Z</time></trkpt><trkpt lat="45.20253513245778" lon="10.539867644343275"><ele>36.25</ele><time>2026-04-24T08:24:09Z</time></trkpt><trkpt lat="45.20240075587213" lon="10.539938154158037"><ele>36.0</ele><time>2026-04-24T08:24:10Z</time></trkpt><trkpt lat="45.20226334849703" lon="10.540015886485719"><ele>36.5</ele><time>2026-04-24T08:24:11Z</time></trkpt><trkpt lat="45.20213081431241" lon="10.540097505483919"><ele>37.0</ele><time>2026-04-24T08:24:12Z</time></trkpt><trkpt lat="45.2020129422191" lon="10.540183702796135"><ele>37.5</ele><time>2026-04-24T08:24:13Z</time></trkpt><trkpt lat="45.20189777910069" lon="10.54026614844261"><ele>38.0</ele><time>2026-04-24T08:24:14Z</time></trkpt><trkpt lat="45.20179078938371" lon="10.54034571115134"><ele>38.0</ele><time>2026-04-24T08:24:15Z</time></trkpt><trkpt lat="45.20169434996048" lon="10.540422706846154"><ele>38.0</ele><time>2026-04-24T08:24:16Z</time></trkpt><trkpt lat="45.2015969844845" lon="10.540501906471857"><ele>38.0</ele><time>2026-04-24T08:24:17Z</time></trkpt><trkpt lat="45.20150633666206" lon="10.540571441187499"><ele>38.0</ele><time>2026-04-24T08:24:18Z</time></trkpt><trkpt lat="45.2014290404699" lon="10.54062500648675"><ele>38.0</ele><time>2026-04-24T08:24:19Z</time></trkpt><trkpt lat="45.20135852576337" lon="10.540676221602206"><ele>38.0</ele><time>2026-04-24T08:24:20Z</time></trkpt><trkpt lat="45.201285276701576" lon="10.540735040300222"><ele>38.0</ele><time>2026-04-24T08:24:21Z</time></trkpt><trkpt lat="45.20120343182911" lon="10.540784245494802"><ele>38.0</ele><time>2026-04-24T08:24:22Z</time></trkpt><trkpt lat="45.20112361410763" lon="10.540858460278423"><ele>38.0</ele><time>2026-04-24T08:24:23Z</time></trkpt><trkpt lat="45.20101787392297" lon="10.54091616324448"><ele>38.0</ele><time>2026-04-24T08:24:24Z</time></trkpt><trkpt lat="45.20091089263581" lon="10.541009406507076"><ele>38.0</ele><time>2026-04-24T08:24:25Z</time></trkpt><trkpt lat="45.20078979560724" lon="10.541099755725655"><ele>38.0</ele><time>2026-04-24T08:24:26Z</time></trkpt><trkpt lat="45.200671232248276" lon="10.541200091185585"><ele>38.0</ele><time>2026-04-24T08:24:27Z</time></trkpt><trkpt lat="45.20055038258729" lon="10.541306403486645"><ele>38.0</ele><time>2026-04-24T08:24:28Z</time></trkpt><trkpt lat="45.20042840201366" lon="10.541406085773376"><ele>37.666666666666664</ele><time>2026-04-24T08:24:29Z</time></trkpt><trkpt lat="45.200304178405766" lon="10.541511040534429"><ele>37.333333333333336</ele><time>2026-04-24T08:24:30Z</time></trkpt><trkpt lat="45.2001805215367" lon="10.541629649591735"><ele>37.0</ele><time>2026-04-24T08:24:31Z</time></trkpt><trkpt lat="45.20005010281775" lon="10.54175083341199"><ele>37.0</ele><time>2026-04-24T08:24:32Z</time></trkpt><trkpt lat="45.19991694076343" lon="10.541886232870825"><ele>37.0</ele><time>2026-04-24T08:24:33Z</time></trkpt><trkpt lat="45.19977908755545" lon="10.542022208309563"><ele>37.0</ele><time>2026-04-24T08:24:34Z</time></trkpt><trkpt lat="45.199636718320555" lon="10.542161393710128"><ele>37.0</ele><time>2026-04-24T08:24:35Z</time></trkpt><trkpt lat="45.19950476049406" lon="10.542304903384137"><ele>37.0</ele><time>2026-04-24T08:24:36Z</time></trkpt><trkpt lat="45.199375975013936" lon="10.542473036808744"><ele>37.0</ele><time>2026-04-24T08:24:37Z</time></trkpt><trkpt lat="45.19925688384376" lon="10.542660710767104"><ele>37.0</ele><time>2026-04-24T08:24:38Z</time></trkpt><trkpt lat="45.19914692410118" lon="10.542862453555614"><ele>37.0</ele><time>2026-04-24T08:24:39Z</time></trkpt><trkpt lat="45.19904477539931" lon="10.543059595712021"><ele>37.0</ele><time>2026-04-24T08:24:40Z</time></trkpt><trkpt lat="45.19894628371099" lon="10.54324208658745"><ele>36.5</ele><time>2026-04-24T08:24:41Z</time></trkpt><trkpt lat="45.198860256086625" lon="10.543399285527874"><ele>36.0</ele><time>2026-04-24T08:24:42Z</time></trkpt><trkpt lat="45.198781392737615" lon="10.543539642994673"><ele>35.5</ele><time>2026-04-24T08:24:43Z</time></trkpt><trkpt lat="45.19871997354147" lon="10.543682870807869"><ele>35.0</ele><time>2026-04-24T08:24:44Z</time></trkpt><trkpt lat="45.198672487469906" lon="10.54383847245369"><ele>35.0</ele><time>2026-04-24T08:24:45Z</time></trkpt><trkpt lat="45.198628631222014" lon="10.544004221954589"><ele>35.0</ele><time>2026-04-24T08:24:46Z</time></trkpt><trkpt lat="45.19859503101121" lon="10.544165824093874"><ele>35.0</ele><time>2026-04-24T08:24:47Z</time></trkpt><trkpt lat="45.1985811526328" lon="10.544311204413479"><ele>35.0</ele><time>2026-04-24T08:24:48Z</time></trkpt><trkpt lat="45.19858737003029" lon="10.544449345502354"><ele>35.0</ele><time>2026-04-24T08:24:49Z</time></trkpt><trkpt lat="45.198633884058204" lon="10.544576662377946"><ele>35.4</ele><time>2026-04-24T08:24:50Z</time></trkpt><trkpt lat="45.198733921230534" lon="10.544674939371939"><ele>35.8</ele><time>2026-04-24T08:24:51Z</time></trkpt><trkpt lat="45.198819758077356" lon="10.544781004618764"><ele>36.2</ele><time>2026-04-24T08:24:52Z</time></trkpt><trkpt lat="45.198873602537375" lon="10.544908151195827"><ele>36.6</ele><time>2026-04-24T08:24:53Z</time></trkpt><trkpt lat="45.198927729715216" lon="10.545019209363609"><ele>37.0</ele><time>2026-04-24T08:24:54Z</time></trkpt><trkpt lat="45.19888481153789" lon="10.545162149429283"><ele>37.0</ele><time>2026-04-24T08:24:55Z</time></trkpt><trkpt lat="45.19884947162357" lon="10.5452845147567"><ele>37.0</ele><time>2026-04-24T08:24:56Z</time></trkpt><trkpt lat="45.19880136309625" lon="10.545417510036387"><ele>37.0</ele><time>2026-04-24T08:24:57Z</time></trkpt><trkpt lat="45.19874177017041" lon="10.545549186685816"><ele>37.0</ele><time>2026-04-24T08:24:58Z</time></trkpt><trkpt lat="45.198675828495766" lon="10.54565179598559"><ele>37.0</ele><time>2026-04-24T08:24:59Z</time></trkpt><trkpt lat="45.19858514782064" lon="10.545750884294726"><ele>37.0</ele><time>2026-04-24T08:25:00Z</time></trkpt><trkpt lat="45.19847534396214" lon="10.545873204104595"><ele>37.0</ele><time>2026-04-24T08:25:01Z</time></trkpt><trkpt lat="45.19835947396594" lon="10.546015735690498"><ele>37.0</ele><time>2026-04-24T08:25:02Z</time></trkpt><trkpt lat="45.198254163216376" lon="10.546193865271063"><ele>36.0</ele><time>2026-04-24T08:25:03Z</time></trkpt><trkpt lat="45.198164428341634" lon="10.546405399773665"><ele>35.0</ele><time>2026-04-24T08:25:04Z</time></trkpt><trkpt lat="45.1980538958159" lon="10.546598541221675"><ele>34.0</ele><time>2026-04-24T08:25:05Z</time></trkpt><trkpt lat="45.19793683339884" lon="10.546798324989586"><ele>34.0</ele><time>2026-04-24T08:25:06Z</time></trkpt><trkpt lat="45.1978161253737" lon="10.547015519009937"><ele>34.0</ele><time>2026-04-24T08:25:07Z</time></trkpt><trkpt lat="45.197688850354105" lon="10.54724616956635"><ele>34.0</ele><time>2026-04-24T08:25:08Z</time></trkpt><trkpt lat="45.19757610952269" lon="10.547499127540254"><ele>34.0</ele><time>2026-04-24T08:25:09Z</time></trkpt><trkpt lat="45.19744451354605" lon="10.547736254048278"><ele>34.0</ele><time>2026-04-24T08:25:10Z</time></trkpt><trkpt lat="45.19731732032109" lon="10.54796780775522"><ele>34.0</ele><time>2026-04-24T08:25:11Z</time></trkpt><trkpt lat="45.197199714119265" lon="10.548186617088296"><ele>34.0</ele><time>2026-04-24T08:25:12Z</time></trkpt><trkpt lat="45.19708897818981" lon="10.548393395324414"><ele>34.0</ele><time>2026-04-24T08:25:13Z</time></trkpt><trkpt lat="45.19698330953992" lon="10.548582852322113"><ele>34.0</ele><time>2026-04-24T08:25:14Z</time></trkpt><trkpt lat="45.196890777155815" lon="10.548750014735278"><ele>34.25</ele><time>2026-04-24T08:25:15Z</time></trkpt><trkpt lat="45.196811449170944" lon="10.548906820061495"><ele>34.5</ele><time>2026-04-24T08:25:16Z</time></trkpt><trkpt lat="45.19675404933665" lon="10.549078146865796"><ele>34.75</ele><time>2026-04-24T08:25:17Z</time></trkpt><trkpt lat="45.19672081850105" lon="10.549270565160036"><ele>35.0</ele><time>2026-04-24T08:25:18Z</time></trkpt><trkpt lat="45.19671498597138" lon="10.54946118010978"><ele>34.75</ele><time>2026-04-24T08:25:19Z</time></trkpt><trkpt lat="45.19673557242178" lon="10.549640240851557"><ele>34.5</ele><time>2026-04-24T08:25:20Z</time></trkpt><trkpt lat="45.19680235741851" lon="10.549790094167935"><ele>34.25</ele><time>2026-04-24T08:25:21Z</time></trkpt><trkpt lat="45.19687081377601" lon="10.54996115543671"><ele>34.0</ele><time>2026-04-24T08:25:22Z</time></trkpt><trkpt lat="45.196984246209844" lon="10.550114890128"><ele>34.0</ele><time>2026-04-24T08:25:23Z</time></trkpt><trkpt lat="45.197117190950586" lon="10.550264997988466"><ele>34.0</ele><time>2026-04-24T08:25:24Z</time></trkpt><trkpt lat="45.19726129974789" lon="10.550405729114685"><ele>34.0</ele><time>2026-04-24T08:25:25Z</time></trkpt><trkpt lat="45.19740000017559" lon="10.550522875796869"><ele>34.0</ele><time>2026-04-24T08:25:26Z</time></trkpt><trkpt lat="45.197519874036985" lon="10.550639027746424"><ele>34.0</ele><time>2026-04-24T08:25:27Z</time></trkpt><trkpt lat="45.197605498493616" lon="10.550780567479803"><ele>34.0</ele><time>2026-04-24T08:25:28Z</time></trkpt><trkpt lat="45.19764457451997" lon="10.550953440956231"><ele>34.0</ele><time>2026-04-24T08:25:29Z</time></trkpt><trkpt lat="45.19766099756475" lon="10.551119862885885"><ele>34.0</ele><time>2026-04-24T08:25:30Z</time></trkpt><trkpt lat="45.197651033353175" lon="10.551293445263237"><ele>34.0</ele><time>2026-04-24T08:25:31Z</time></trkpt><trkpt lat="45.197615243980174" lon="10.551478558807673"><ele>34.0</ele><time>2026-04-24T08:25:32Z</time></trkpt><trkpt lat="45.19755522878042" lon="10.551674011006458"><ele>34.0</ele><time>2026-04-24T08:25:33Z</time></trkpt><trkpt lat="45.1974836735478" lon="10.551888055566634"><ele>33.66666666666667</ele><time>2026-04-24T08:25:34Z</time></trkpt><trkpt lat="45.19741002588635" lon="10.552114589837462"><ele>33.333333333333336</ele><time>2026-04-24T08:25:35Z</time></trkpt><trkpt lat="45.19733224819515" lon="10.552356193866855"><ele>33.0</ele><time>2026-04-24T08:25:36Z</time></trkpt><trkpt lat="45.19725417816855" lon="10.552605111037202"><ele>33.0</ele><time>2026-04-24T08:25:37Z</time></trkpt><trkpt lat="45.19718452614021" lon="10.552856949172336"><ele>33.0</ele><time>2026-04-24T08:25:38Z</time></trkpt><trkpt lat="45.197108028973474" lon="10.553110998707204"><ele>33.0</ele><time>2026-04-24T08:25:39Z</time></trkpt><trkpt lat="45.19702923979077" lon="10.55337236362532"><ele>33.0</ele><time>2026-04-24T08:25:40Z</time></trkpt><trkpt lat="45.19694846893866" lon="10.55363698056178"><ele>33.0</ele><time>2026-04-24T08:25:41Z</time></trkpt><trkpt lat="45.196869139889756" lon="10.553907304201434"><ele>33.0</ele><time>2026-04-24T08:25:42Z</time></trkpt><trkpt lat="45.19678992202113" lon="10.554183609165293"><ele>33.0</ele><time>2026-04-24T08:25:43Z</time></trkpt><trkpt lat="45.196711335797474" lon="10.554460058447388"><ele>33.0</ele><time>2026-04-24T08:25:44Z</time></trkpt><trkpt lat="45.19663162448284" lon="10.554730520987478"><ele>33.0</ele><time>2026-04-24T08:25:45Z</time></trkpt><trkpt lat="45.19655206107495" lon="10.555004030720285"><ele>33.0</ele><time>2026-04-24T08:25:46Z</time></trkpt><trkpt lat="45.19647060425746" lon="10.555276657034248"><ele>33.0</ele><time>2026-04-24T08:25:47Z</time></trkpt><trkpt lat="45.19638663373606" lon="10.555547799553938"><ele>33.0</ele><time>2026-04-24T08:25:48Z</time></trkpt><trkpt lat="45.196303476625474" lon="10.555823574626016"><ele>33.333333333333336</ele><time>2026-04-24T08:25:49Z</time></trkpt><trkpt lat="45.19621834164937" lon="10.556099835455177"><ele>33.66666666666667</ele><time>2026-04-24T08:25:50Z</time></trkpt><trkpt lat="45.19613253163605" lon="10.55637461628291"><ele>34.0</ele><time>2026-04-24T08:25:51Z</time></trkpt><trkpt lat="45.19604685202647" lon="10.556643923228414"><ele>34.333333333333336</ele><time>2026-04-24T08:25:52Z</time></trkpt><trkpt lat="45.195946664892574" lon="10.556900188461276"><ele>34.666666666666664</ele><time>2026-04-24T08:25:53Z</time></trkpt><trkpt lat="45.19586291595815" lon="10.5571619278426"><ele>35.0</ele><time>2026-04-24T08:25:54Z</time></trkpt><trkpt lat="45.195794220656154" lon="10.557428707378428"><ele>34.33333333333333</ele><time>2026-04-24T08:25:55Z</time></trkpt><trkpt lat="45.19570482686481" lon="10.557682652562285"><ele>33.666666666666664</ele><time>2026-04-24T08:25:56Z</time></trkpt><trkpt lat="45.195614519958134" lon="10.557934723052671"><ele>33.0</ele><time>2026-04-24T08:25:57Z</time></trkpt><trkpt lat="45.19552035367135" lon="10.558182973591588"><ele>33.0</ele><time>2026-04-24T08:25:58Z</time></trkpt><trkpt lat="45.195422792571165" lon="10.558427272171672"><ele>33.0</ele><time>2026-04-24T08:25:59Z</time></trkpt><trkpt lat="45.195318424986574" lon="10.558665568768442"><ele>33.0</ele><time>2026-04-24T08:26:00Z</time></trkpt><trkpt lat="45.195216619978545" lon="10.558899491991781"><ele>33.0</ele><time>2026-04-24T08:26:01Z</time></trkpt><trkpt lat="45.19511572061497" lon="10.559137810365405"><ele>33.0</ele><time>2026-04-24T08:26:02Z</time></trkpt><trkpt lat="45.195016358993556" lon="10.559375588057062"><ele>33.0</ele><time>2026-04-24T08:26:03Z</time></trkpt><trkpt lat="45.19491706263876" lon="10.559615420041991"><ele>32.666666666666664</ele><time>2026-04-24T08:26:04Z</time></trkpt><trkpt lat="45.194816881263996" lon="10.5598581922332"><ele>32.33333333333333</ele><time>2026-04-24T08:26:05Z</time></trkpt><trkpt lat="45.19471578821235" lon="10.560102823090165"><ele>32.0</ele><time>2026-04-24T08:26:06Z</time></trkpt><trkpt lat="45.194613546607016" lon="10.560350374321494"><ele>32.33333333333333</ele><time>2026-04-24T08:26:07Z</time></trkpt><trkpt lat="45.19451204574674" lon="10.560596121043924"><ele>32.666666666666664</ele><time>2026-04-24T08:26:08Z</time></trkpt><trkpt lat="45.19440905379107" lon="10.56084292903683"><ele>33.0</ele><time>2026-04-24T08:26:09Z</time></trkpt><trkpt lat="45.19430948646309" lon="10.561089074704036"><ele>33.0</ele><time>2026-04-24T08:26:10Z</time></trkpt><trkpt lat="45.19421033072664" lon="10.561336481230251"><ele>33.0</ele><time>2026-04-24T08:26:11Z</time></trkpt><trkpt lat="45.19410772567143" lon="10.561578486278233"><ele>33.0</ele><time>2026-04-24T08:26:12Z</time></trkpt><trkpt lat="45.19400469627015" lon="10.561816411695604"><ele>32.666666666666664</ele><time>2026-04-24T08:26:13Z</time></trkpt><trkpt lat="45.19390101854776" lon="10.562058483038049"><ele>32.33333333333333</ele><time>2026-04-24T08:26:14Z</time></trkpt><trkpt lat="45.19379721581089" lon="10.562301250063351"><ele>32.0</ele><time>2026-04-24T08:26:15Z</time></trkpt><trkpt lat="45.193691200752774" lon="10.562542857550582"><ele>32.0</ele><time>2026-04-24T08:26:16Z</time></trkpt><trkpt lat="45.19358340315442" lon="10.562780606890806"><ele>32.0</ele><time>2026-04-24T08:26:17Z</time></trkpt><trkpt lat="45.19347303926879" lon="10.563022072419034"><ele>32.0</ele><time>2026-04-24T08:26:18Z</time></trkpt><trkpt lat="45.19336986167143" lon="10.563267787141964"><ele>32.33333333333333</ele><time>2026-04-24T08:26:19Z</time></trkpt><trkpt lat="45.193267142795406" lon="10.563509436734739"><ele>32.666666666666664</ele><time>2026-04-24T08:26:20Z</time></trkpt><trkpt lat="45.193161649752206" lon="10.563751034149748"><ele>33.0</ele><time>2026-04-24T08:26:21Z</time></trkpt><trkpt lat="45.193057655757706" lon="10.563991469313288"><ele>33.0</ele><time>2026-04-24T08:26:22Z</time></trkpt><trkpt lat="45.192955513796385" lon="10.564231992055177"><ele>33.0</ele><time>2026-04-24T08:26:23Z</time></trkpt><trkpt lat="45.19285491854046" lon="10.564473409327718"><ele>33.0</ele><time>2026-04-24T08:26:24Z</time></trkpt><trkpt lat="45.1927504811891" lon="10.564715323538946"><ele>33.0</ele><time>2026-04-24T08:26:25Z</time></trkpt><trkpt lat="45.19264231219514" lon="10.564954221742603"><ele>33.0</ele><time>2026-04-24T08:26:26Z</time></trkpt><trkpt lat="45.19253391801653" lon="10.565192814338955"><ele>33.0</ele><time>2026-04-24T08:26:27Z</time></trkpt><trkpt lat="45.19241435572323" lon="10.565420416133477"><ele>32.666666666666664</ele><time>2026-04-24T08:26:28Z</time></trkpt><trkpt lat="45.19229556035993" lon="10.565637537612563"><ele>32.33333333333333</ele><time>2026-04-24T08:26:29Z</time></trkpt><trkpt lat="45.192184327948446" lon="10.56583662982798"><ele>32.0</ele><time>2026-04-24T08:26:30Z</time></trkpt><trkpt lat="45.192077376794586" lon="10.566021937414083"><ele>32.0</ele><time>2026-04-24T08:26:31Z</time></trkpt><trkpt lat="45.19197477622276" lon="10.566193927932135"><ele>32.0</ele><time>2026-04-24T08:26:32Z</time></trkpt><trkpt lat="45.19187698168458" lon="10.566355212615615"><ele>32.0</ele><time>2026-04-24T08:26:33Z</time></trkpt><trkpt lat="45.19179027285998" lon="10.566505512452784"><ele>32.0</ele><time>2026-04-24T08:26:34Z</time></trkpt><trkpt lat="45.19171502784749" lon="10.566634156459571"><ele>32.0</ele><time>2026-04-24T08:26:35Z</time></trkpt><trkpt lat="45.19164594953141" lon="10.566752709465137"><ele>32.0</ele><time>2026-04-24T08:26:36Z</time></trkpt><trkpt lat="45.19158264172106" lon="10.566851611896315"><ele>32.0</ele><time>2026-04-24T08:26:37Z</time></trkpt><trkpt lat="45.19152842299546" lon="10.566931356380982"><ele>32.0</ele><time>2026-04-24T08:26:38Z</time></trkpt><trkpt lat="45.19146158284574" lon="10.567039772346345"><ele>32.0</ele><time>2026-04-24T08:26:40Z</time></trkpt><trkpt lat="45.191491036046735" lon="10.567167128703918"><ele>32.4</ele><time>2026-04-24T08:26:55Z</time></trkpt><trkpt lat="45.191529938416316" lon="10.56726973082503"><ele>32.800000000000004</ele><time>2026-04-24T08:26:56Z</time></trkpt><trkpt lat="45.191596566865186" lon="10.567381094057307"><ele>33.2</ele><time>2026-04-24T08:26:57Z</time></trkpt><trkpt lat="45.19167163527206" lon="10.567504137906907"><ele>33.6</ele><time>2026-04-24T08:26:58Z</time></trkpt><trkpt lat="45.19174907763209" lon="10.567635191375896"><ele>34.0</ele><time>2026-04-24T08:26:59Z</time></trkpt><trkpt lat="45.191831482416994" lon="10.567773037588593"><ele>33.5</ele><time>2026-04-24T08:27:00Z</time></trkpt><trkpt lat="45.19192077479166" lon="10.567923591551418"><ele>33.0</ele><time>2026-04-24T08:27:01Z</time></trkpt><trkpt lat="45.192010634327616" lon="10.568084731098512"><ele>32.5</ele><time>2026-04-24T08:27:02Z</time></trkpt><trkpt lat="45.192099737417514" lon="10.56823636912124"><ele>32.0</ele><time>2026-04-24T08:27:03Z</time></trkpt><trkpt lat="45.1921923526363" lon="10.568389930506505"><ele>32.0</ele><time>2026-04-24T08:27:04Z</time></trkpt><trkpt lat="45.192284514717834" lon="10.568546054803797"><ele>32.0</ele><time>2026-04-24T08:27:05Z</time></trkpt><trkpt lat="45.1923743416802" lon="10.568692067499574"><ele>32.0</ele><time>2026-04-24T08:27:06Z</time></trkpt><trkpt lat="45.19246292570978" lon="10.568831433066725"><ele>32.0</ele><time>2026-04-24T08:27:07Z</time></trkpt><trkpt lat="45.192549277993784" lon="10.568977121032216"><ele>32.0</ele><time>2026-04-24T08:27:08Z</time></trkpt><trkpt lat="45.19263515079209" lon="10.56912800942794"><ele>32.0</ele><time>2026-04-24T08:27:09Z</time></trkpt><trkpt lat="45.19271821623202" lon="10.569270714676382"><ele>32.0</ele><time>2026-04-24T08:27:10Z</time></trkpt><trkpt lat="45.192795524221324" lon="10.569409831642606"><ele>32.0</ele><time>2026-04-24T08:27:11Z</time></trkpt><trkpt lat="45.192869330135174" lon="10.569535070710629"><ele>31.75</ele><time>2026-04-24T08:27:12Z</time></trkpt><trkpt lat="45.1929502409913" lon="10.569668329414252"><ele>31.5</ele><time>2026-04-24T08:27:13Z</time></trkpt><trkpt lat="45.19303305840383" lon="10.569801826003546"><ele>31.25</ele><time>2026-04-24T08:27:14Z</time></trkpt><trkpt lat="45.19311530934771" lon="10.569934992230973"><ele>31.0</ele><time>2026-04-24T08:27:15Z</time></trkpt><trkpt lat="45.193187757447795" lon="10.570052580678515"><ele>31.500000000000004</ele><time>2026-04-24T08:27:16Z</time></trkpt><trkpt lat="45.1932554596474" lon="10.57016162556605"><ele>32.0</ele><time>2026-04-24T08:27:17Z</time></trkpt><trkpt lat="45.19331590017763" lon="10.570259126665226"><ele>32.5</ele><time>2026-04-24T08:27:18Z</time></trkpt><trkpt lat="45.19337291377325" lon="10.570352498049417"><ele>33.0</ele><time>2026-04-24T08:27:19Z</time></trkpt><trkpt lat="45.19342526957381" lon="10.570437609126001"><ele>33.5</ele><time>2026-04-24T08:27:20Z</time></trkpt><trkpt lat="45.1934686807261" lon="10.570517213410895"><ele>34.0</ele><time>2026-04-24T08:27:21Z</time></trkpt><trkpt lat="45.19351185125986" lon="10.570597818857346"><ele>34.0</ele><time>2026-04-24T08:27:22Z</time></trkpt><trkpt lat="45.193547236968634" lon="10.570673706863687"><ele>34.0</ele><time>2026-04-24T08:27:23Z</time></trkpt><trkpt lat="45.19357116609781" lon="10.570847602510376"><ele>34.0</ele><time>2026-04-24T08:27:25Z</time></trkpt><trkpt lat="45.19353513904141" lon="10.570943922371267"><ele>34.0</ele><time>2026-04-24T08:27:26Z</time></trkpt><trkpt lat="45.19351915053927" lon="10.571052031131055"><ele>34.0</ele><time>2026-04-24T08:27:27Z</time></trkpt><trkpt lat="45.19349669361119" lon="10.571151533738725"><ele>34.0</ele><time>2026-04-24T08:27:28Z</time></trkpt><trkpt lat="45.19337810386793" lon="10.571217247452891"><ele>33.75</ele><time>2026-04-24T08:27:29Z</time></trkpt><trkpt lat="45.19329033740214" lon="10.571328330078497"><ele>33.5</ele><time>2026-04-24T08:27:30Z</time></trkpt><trkpt lat="45.19318800152586" lon="10.571457852666828"><ele>33.25</ele><time>2026-04-24T08:27:31Z</time></trkpt><trkpt lat="45.19307466119644" lon="10.571602672214825"><ele>33.0</ele><time>2026-04-24T08:27:32Z</time></trkpt><trkpt lat="45.19295424876609" lon="10.571759910317512"><ele>33.0</ele><time>2026-04-24T08:27:33Z</time></trkpt><trkpt lat="45.192831136815315" lon="10.571932011682675"><ele>33.0</ele><time>2026-04-24T08:27:34Z</time></trkpt><trkpt lat="45.19271739124438" lon="10.572131893606137"><ele>33.0</ele><time>2026-04-24T08:27:35Z</time></trkpt><trkpt lat="45.1925947586611" lon="10.572328398298497"><ele>32.333333333333336</ele><time>2026-04-24T08:27:36Z</time></trkpt><trkpt lat="45.192472204817506" lon="10.572536651977705"><ele>31.666666666666668</ele><time>2026-04-24T08:27:37Z</time></trkpt><trkpt lat="45.19234559386302" lon="10.572756082223414"><ele>31.0</ele><time>2026-04-24T08:27:38Z</time></trkpt><trkpt lat="45.19222106784456" lon="10.572984213510225"><ele>31.0</ele><time>2026-04-24T08:27:39Z</time></trkpt><trkpt lat="45.192098887642715" lon="10.573205848562928"><ele>31.0</ele><time>2026-04-24T08:27:40Z</time></trkpt><trkpt lat="45.1919841154307" lon="10.573427656715818"><ele>31.0</ele><time>2026-04-24T08:27:41Z</time></trkpt><trkpt lat="45.191870228455755" lon="10.573646754809795"><ele>31.333333333333336</ele><time>2026-04-24T08:27:42Z</time></trkpt><trkpt lat="45.19175506847225" lon="10.573870454919948"><ele>31.666666666666664</ele><time>2026-04-24T08:27:43Z</time></trkpt><trkpt lat="45.19164476037581" lon="10.574096163523503"><ele>32.0</ele><time>2026-04-24T08:27:44Z</time></trkpt><trkpt lat="45.19153496972338" lon="10.574322632079372"><ele>32.0</ele><time>2026-04-24T08:27:45Z</time></trkpt><trkpt lat="45.19142493515462" lon="10.574555894798248"><ele>32.0</ele><time>2026-04-24T08:27:46Z</time></trkpt><trkpt lat="45.1913125350852" lon="10.574790126060329"><ele>32.0</ele><time>2026-04-24T08:27:47Z</time></trkpt><trkpt lat="45.1911966273406" lon="10.575024864291546"><ele>32.0</ele><time>2026-04-24T08:27:48Z</time></trkpt><trkpt lat="45.19108143701239" lon="10.57526062147151"><ele>32.0</ele><time>2026-04-24T08:27:49Z</time></trkpt><trkpt lat="45.190970399595" lon="10.575500564744324"><ele>32.0</ele><time>2026-04-24T08:27:50Z</time></trkpt><trkpt lat="45.190842622769395" lon="10.575720740507395"><ele>31.666666666666664</ele><time>2026-04-24T08:27:51Z</time></trkpt><trkpt lat="45.19073753950801" lon="10.5759658959615"><ele>31.333333333333336</ele><time>2026-04-24T08:27:52Z</time></trkpt><trkpt lat="45.19061972659293" lon="10.57619908882606"><ele>31.0</ele><time>2026-04-24T08:27:53Z</time></trkpt><trkpt lat="45.190505857029386" lon="10.576429407670922"><ele>31.0</ele><time>2026-04-24T08:27:54Z</time></trkpt><trkpt lat="45.190391398290004" lon="10.576659206097078"><ele>31.0</ele><time>2026-04-24T08:27:55Z</time></trkpt><trkpt lat="45.19027564676577" lon="10.576896968430933"><ele>31.0</ele><time>2026-04-24T08:27:56Z</time></trkpt><trkpt lat="45.19016713950959" lon="10.577131653361457"><ele>31.0</ele><time>2026-04-24T08:27:57Z</time></trkpt><trkpt lat="45.19005897892922" lon="10.57736606272188"><ele>31.0</ele><time>2026-04-24T08:27:58Z</time></trkpt><trkpt lat="45.18994839401553" lon="10.577604318564655"><ele>31.0</ele><time>2026-04-24T08:27:59Z</time></trkpt><trkpt lat="45.18983275822278" lon="10.577841185517107"><ele>30.666666666666668</ele><time>2026-04-24T08:28:00Z</time></trkpt><trkpt lat="45.189688675884945" lon="10.578040799840068"><ele>30.333333333333336</ele><time>2026-04-24T08:28:01Z</time></trkpt><trkpt lat="45.18955938136691" lon="10.578257924281663"><ele>30.0</ele><time>2026-04-24T08:28:02Z</time></trkpt><trkpt lat="45.189429365103095" lon="10.57847422259189"><ele>30.666666666666664</ele><time>2026-04-24T08:28:03Z</time></trkpt><trkpt lat="45.189300701150756" lon="10.578693845211573"><ele>31.333333333333332</ele><time>2026-04-24T08:28:04Z</time></trkpt><trkpt lat="45.18917161426766" lon="10.578912570438728"><ele>32.0</ele><time>2026-04-24T08:28:05Z</time></trkpt><trkpt lat="45.18906023972622" lon="10.579150746631587"><ele>32.0</ele><time>2026-04-24T08:28:06Z</time></trkpt><trkpt lat="45.188942675658815" lon="10.57937745473876"><ele>32.0</ele><time>2026-04-24T08:28:07Z</time></trkpt><trkpt lat="45.188834652330044" lon="10.579611695775826"><ele>32.0</ele><time>2026-04-24T08:28:08Z</time></trkpt><trkpt lat="45.188726477179856" lon="10.579849240335253"><ele>32.0</ele><time>2026-04-24T08:28:09Z</time></trkpt><trkpt lat="45.18861485120368" lon="10.580082498457843"><ele>32.0</ele><time>2026-04-24T08:28:10Z</time></trkpt><trkpt lat="45.18849986131705" lon="10.580313622425814"><ele>32.0</ele><time>2026-04-24T08:28:11Z</time></trkpt><trkpt lat="45.18838680757165" lon="10.580542942546723"><ele>32.0</ele><time>2026-04-24T08:28:12Z</time></trkpt><trkpt lat="45.188277210666215" lon="10.580762541615558"><ele>32.0</ele><time>2026-04-24T08:28:13Z</time></trkpt><trkpt lat="45.18817711924532" lon="10.580961924725846"><ele>32.0</ele><time>2026-04-24T08:28:14Z</time></trkpt><trkpt lat="45.188084539123324" lon="10.58115253736655"><ele>32.0</ele><time>2026-04-24T08:28:15Z</time></trkpt><trkpt lat="45.187998420739376" lon="10.581331921973476"><ele>32.0</ele><time>2026-04-24T08:28:16Z</time></trkpt><trkpt lat="45.187912218932276" lon="10.581490996747942"><ele>32.0</ele><time>2026-04-24T08:28:17Z</time></trkpt><trkpt lat="45.1878338883991" lon="10.581636712474467"><ele>32.0</ele><time>2026-04-24T08:28:18Z</time></trkpt><trkpt lat="45.18777367299125" lon="10.581760586667581"><ele>32.0</ele><time>2026-04-24T08:28:19Z</time></trkpt><trkpt lat="45.18773346625375" lon="10.581859687511251"><ele>32.0</ele><time>2026-04-24T08:28:20Z</time></trkpt><trkpt lat="45.18773671892036" lon="10.582047636568793"><ele>32.0</ele><time>2026-04-24T08:28:22Z</time></trkpt><trkpt lat="45.187775933743204" lon="10.582153142433903"><ele>32.0</ele><time>2026-04-24T08:28:23Z</time></trkpt><trkpt lat="45.18785830934182" lon="10.582239236822524"><ele>32.0</ele><time>2026-04-24T08:28:24Z</time></trkpt><trkpt lat="45.187883642879136" lon="10.582339074496476"><ele>32.0</ele><time>2026-04-24T08:28:25Z</time></trkpt><trkpt lat="45.187830555483785" lon="10.582453431122547"><ele>32.0</ele><time>2026-04-24T08:28:26Z</time></trkpt><trkpt lat="45.18775799796879" lon="10.582559566250344"><ele>32.0</ele><time>2026-04-24T08:28:27Z</time></trkpt><trkpt lat="45.187699747062695" lon="10.58271516866207"><ele>32.0</ele><time>2026-04-24T08:28:28Z</time></trkpt><trkpt lat="45.18764340425722" lon="10.582899316762271"><ele>32.0</ele><time>2026-04-24T08:28:29Z</time></trkpt><trkpt lat="45.18758872943728" lon="10.583105705773614"><ele>32.0</ele><time>2026-04-24T08:28:30Z</time></trkpt><trkpt lat="45.187524133135305" lon="10.583319350289507"><ele>32.0</ele><time>2026-04-24T08:28:31Z</time></trkpt><trkpt lat="45.187454438989334" lon="10.583545075866931"><ele>32.0</ele><time>2026-04-24T08:28:32Z</time></trkpt><trkpt lat="45.18738145733952" lon="10.583792630274633"><ele>32.0</ele><time>2026-04-24T08:28:33Z</time></trkpt><trkpt lat="45.18730386739617" lon="10.584058181450496"><ele>32.0</ele><time>2026-04-24T08:28:34Z</time></trkpt><trkpt lat="45.187223345355946" lon="10.584333633249875"><ele>31.666666666666664</ele><time>2026-04-24T08:28:35Z</time></trkpt><trkpt lat="45.1871416320639" lon="10.584616201142367"><ele>31.333333333333336</ele><time>2026-04-24T08:28:36Z</time></trkpt><trkpt lat="45.18705853051245" lon="10.584910666789591"><ele>31.0</ele><time>2026-04-24T08:28:37Z</time></trkpt><trkpt lat="45.18697776774817" lon="10.585199443249971"><ele>31.0</ele><time>2026-04-24T08:28:38Z</time></trkpt><trkpt lat="45.18689417715081" lon="10.585489098909918"><ele>31.0</ele><time>2026-04-24T08:28:39Z</time></trkpt><trkpt lat="45.18680959437905" lon="10.585771727033977"><ele>31.0</ele><time>2026-04-24T08:28:40Z</time></trkpt><trkpt lat="45.1867250892574" lon="10.586047096702098"><ele>30.666666666666668</ele><time>2026-04-24T08:28:41Z</time></trkpt><trkpt lat="45.18664273078436" lon="10.586315764238874"><ele>30.333333333333336</ele><time>2026-04-24T08:28:42Z</time></trkpt><trkpt lat="45.186562391387625" lon="10.5865848687879"><ele>30.0</ele><time>2026-04-24T08:28:43Z</time></trkpt><trkpt lat="45.18648482176252" lon="10.586850669662596"><ele>30.666666666666664</ele><time>2026-04-24T08:28:44Z</time></trkpt><trkpt lat="45.18641040995186" lon="10.587113286353286"><ele>31.333333333333332</ele><time>2026-04-24T08:28:45Z</time></trkpt><trkpt lat="45.186335364768254" lon="10.58736985437202"><ele>32.0</ele><time>2026-04-24T08:28:46Z</time></trkpt><trkpt lat="45.186262028145954" lon="10.587617071990303"><ele>32.0</ele><time>2026-04-24T08:28:47Z</time></trkpt><trkpt lat="45.18618845029691" lon="10.58785593942922"><ele>32.0</ele><time>2026-04-24T08:28:48Z</time></trkpt><trkpt lat="45.18611677679039" lon="10.588086952321973"><ele>32.0</ele><time>2026-04-24T08:28:49Z</time></trkpt><trkpt lat="45.18604895447812" lon="10.588316121620512"><ele>32.0</ele><time>2026-04-24T08:28:50Z</time></trkpt><trkpt lat="45.18598271892722" lon="10.588536026209987"><ele>32.0</ele><time>2026-04-24T08:28:51Z</time></trkpt><trkpt lat="45.18591951900546" lon="10.588753385218702"><ele>32.0</ele><time>2026-04-24T08:28:52Z</time></trkpt><trkpt lat="45.185862419472635" lon="10.58895478709529"><ele>31.75</ele><time>2026-04-24T08:28:53Z</time></trkpt><trkpt lat="45.18580789283705" lon="10.589143352511288"><ele>31.5</ele><time>2026-04-24T08:28:54Z</time></trkpt><trkpt lat="45.18576153293414" lon="10.589322871148914"><ele>31.25</ele><time>2026-04-24T08:28:55Z</time></trkpt><trkpt lat="45.18571580264128" lon="10.589469043854283"><ele>31.0</ele><time>2026-04-24T08:28:56Z</time></trkpt><trkpt lat="45.18568729130436" lon="10.589579746037582"><ele>30.6</ele><time>2026-04-24T08:28:57Z</time></trkpt><trkpt lat="45.185686218926804" lon="10.589682202446765"><ele>30.200000000000003</ele><time>2026-04-24T08:28:58Z</time></trkpt><trkpt lat="45.18580957898295" lon="10.58984711217151"><ele>29.799999999999997</ele><time>2026-04-24T08:29:00Z</time></trkpt><trkpt lat="45.18590177121919" lon="10.589887362382923"><ele>29.4</ele><time>2026-04-24T08:29:01Z</time></trkpt><trkpt lat="45.18599215401402" lon="10.58994253729315"><ele>29.0</ele><time>2026-04-24T08:29:02Z</time></trkpt><trkpt lat="45.18606036532808" lon="10.590033604030337"><ele>29.0</ele><time>2026-04-24T08:29:03Z</time></trkpt><trkpt lat="45.186066645619164" lon="10.590146148838333"><ele>29.0</ele><time>2026-04-24T08:29:04Z</time></trkpt><trkpt lat="45.18601820442408" lon="10.59025102791854"><ele>29.0</ele><time>2026-04-24T08:29:05Z</time></trkpt><trkpt lat="45.18595605711802" lon="10.590372301637563"><ele>29.0</ele><time>2026-04-24T08:29:06Z</time></trkpt><trkpt lat="45.18588647802084" lon="10.590521231845123"><ele>29.0</ele><time>2026-04-24T08:29:07Z</time></trkpt><trkpt lat="45.18580355857874" lon="10.590687695488283"><ele>29.0</ele><time>2026-04-24T08:29:08Z</time></trkpt><trkpt lat="45.18571537132664" lon="10.590864158449984"><ele>29.0</ele><time>2026-04-24T08:29:09Z</time></trkpt><trkpt lat="45.185636011799495" lon="10.591066019307076"><ele>29.0</ele><time>2026-04-24T08:29:10Z</time></trkpt><trkpt lat="45.18553302877659" lon="10.591262552597673"><ele>29.333333333333332</ele><time>2026-04-24T08:29:11Z</time></trkpt><trkpt lat="45.185432450281695" lon="10.591465555242255"><ele>29.666666666666664</ele><time>2026-04-24T08:29:12Z</time></trkpt><trkpt lat="45.18533553012607" lon="10.591675132881758"><ele>30.0</ele><time>2026-04-24T08:29:13Z</time></trkpt><trkpt lat="45.185238316125215" lon="10.591901337054304"><ele>30.666666666666664</ele><time>2026-04-24T08:29:14Z</time></trkpt><trkpt lat="45.18514284644449" lon="10.592145914310187"><ele>31.333333333333332</ele><time>2026-04-24T08:29:15Z</time></trkpt><trkpt lat="45.18504926963496" lon="10.592387388367477"><ele>32.0</ele><time>2026-04-24T08:29:16Z</time></trkpt><trkpt lat="45.18495398730314" lon="10.592631156732201"><ele>31.0</ele><time>2026-04-24T08:29:17Z</time></trkpt><trkpt lat="45.18484084727636" lon="10.59285922936961"><ele>30.0</ele><time>2026-04-24T08:29:18Z</time></trkpt><trkpt lat="45.184755146194384" lon="10.59311754308403"><ele>29.0</ele><time>2026-04-24T08:29:19Z</time></trkpt><trkpt lat="45.18465552251464" lon="10.593364604466087"><ele>29.0</ele><time>2026-04-24T08:29:20Z</time></trkpt><trkpt lat="45.18455294343029" lon="10.593614285821019"><ele>29.0</ele><time>2026-04-24T08:29:21Z</time></trkpt><trkpt lat="45.18445346751104" lon="10.593864800264683"><ele>29.0</ele><time>2026-04-24T08:29:22Z</time></trkpt><trkpt lat="45.184359366123715" lon="10.594124968002347"><ele>29.0</ele><time>2026-04-24T08:29:23Z</time></trkpt><trkpt lat="45.18426333848283" lon="10.594384653552556"><ele>29.0</ele><time>2026-04-24T08:29:24Z</time></trkpt><trkpt lat="45.18416498462039" lon="10.594644535601656"><ele>29.0</ele><time>2026-04-24T08:29:25Z</time></trkpt><trkpt lat="45.18406718695128" lon="10.594904908476138"><ele>29.0</ele><time>2026-04-24T08:29:26Z</time></trkpt><trkpt lat="45.1839709470321" lon="10.59517023887376"><ele>29.0</ele><time>2026-04-24T08:29:27Z</time></trkpt><trkpt lat="45.18387289507101" lon="10.595438238277303"><ele>29.0</ele><time>2026-04-24T08:29:28Z</time></trkpt><trkpt lat="45.18378073974682" lon="10.59570643147054"><ele>29.0</ele><time>2026-04-24T08:29:29Z</time></trkpt><trkpt lat="45.18368854187568" lon="10.595973258282632"><ele>29.0</ele><time>2026-04-24T08:29:30Z</time></trkpt><trkpt lat="45.18359778188943" lon="10.59623754198424"><ele>29.0</ele><time>2026-04-24T08:29:31Z</time></trkpt><trkpt lat="45.18350805928366" lon="10.596499976676485"><ele>29.0</ele><time>2026-04-24T08:29:32Z</time></trkpt><trkpt lat="45.183415179454926" lon="10.596765319165256"><ele>29.0</ele><time>2026-04-24T08:29:33Z</time></trkpt><trkpt lat="45.18332328713077" lon="10.597025579123612"><ele>29.0</ele><time>2026-04-24T08:29:34Z</time></trkpt><trkpt lat="45.18322812915529" lon="10.597284251445261"><ele>29.0</ele><time>2026-04-24T08:29:35Z</time></trkpt><trkpt lat="45.183128432592454" lon="10.59754109195113"><ele>29.0</ele><time>2026-04-24T08:29:36Z</time></trkpt><trkpt lat="45.18301721837413" lon="10.597796466665192"><ele>29.0</ele><time>2026-04-24T08:29:37Z</time></trkpt><trkpt lat="45.18290676576248" lon="10.598052491972537"><ele>29.0</ele><time>2026-04-24T08:29:38Z</time></trkpt><trkpt lat="45.18279403219" lon="10.59831106531967"><ele>29.0</ele><time>2026-04-24T08:29:39Z</time></trkpt><trkpt lat="45.182682684024115" lon="10.598575283076023"><ele>29.0</ele><time>2026-04-24T08:29:40Z</time></trkpt><trkpt lat="45.182571472995846" lon="10.598840241535454"><ele>29.0</ele><time>2026-04-24T08:29:41Z</time></trkpt><trkpt lat="45.18245727595829" lon="10.599108045514132"><ele>29.0</ele><time>2026-04-24T08:29:42Z</time></trkpt><trkpt lat="45.18234219318799" lon="10.599376062206458"><ele>29.0</ele><time>2026-04-24T08:29:43Z</time></trkpt><trkpt lat="45.18222501609801" lon="10.599647494312862"><ele>29.666666666666664</ele><time>2026-04-24T08:29:44Z</time></trkpt><trkpt lat="45.182109856266685" lon="10.599921924197051"><ele>30.333333333333336</ele><time>2026-04-24T08:29:45Z</time></trkpt><trkpt lat="45.18199630847" lon="10.600193223550061"><ele>31.0</ele><time>2026-04-24T08:29:46Z</time></trkpt><trkpt lat="45.181882072830156" lon="10.600458868771835"><ele>31.0</ele><time>2026-04-24T08:29:47Z</time></trkpt><trkpt lat="45.181774780014884" lon="10.600714389789404"><ele>31.0</ele><time>2026-04-24T08:29:48Z</time></trkpt><trkpt lat="45.18167740999896" lon="10.600963478917679"><ele>31.0</ele><time>2026-04-24T08:29:49Z</time></trkpt><trkpt lat="45.18159132688571" lon="10.601217092037187"><ele>30.0</ele><time>2026-04-24T08:29:50Z</time></trkpt><trkpt lat="45.18151518263796" lon="10.601484746313101"><ele>29.0</ele><time>2026-04-24T08:29:51Z</time></trkpt><trkpt lat="45.181459573415395" lon="10.601764660884465"><ele>28.0</ele><time>2026-04-24T08:29:52Z</time></trkpt><trkpt lat="45.181397026084724" lon="10.602026627454187"><ele>28.0</ele><time>2026-04-24T08:29:53Z</time></trkpt><trkpt lat="45.18133931653878" lon="10.602272368756077"><ele>28.0</ele><time>2026-04-24T08:29:54Z</time></trkpt><trkpt lat="45.181244202537336" lon="10.60249240979501"><ele>28.0</ele><time>2026-04-24T08:29:55Z</time></trkpt><trkpt lat="45.18114861604545" lon="10.602713628229164"><ele>29.0</ele><time>2026-04-24T08:29:56Z</time></trkpt><trkpt lat="45.18105677289649" lon="10.60292038822298"><ele>30.0</ele><time>2026-04-24T08:29:57Z</time></trkpt><trkpt lat="45.18098103358605" lon="10.603115582527547"><ele>31.0</ele><time>2026-04-24T08:29:58Z</time></trkpt><trkpt lat="45.180913290502986" lon="10.6032654008674"><ele>31.000000000000004</ele><time>2026-04-24T08:29:59Z</time></trkpt><trkpt lat="45.18086405820426" lon="10.603377488357408"><ele>31.0</ele><time>2026-04-24T08:30:00Z</time></trkpt><trkpt lat="45.18083739070097" lon="10.603474146151905"><ele>31.0</ele><time>2026-04-24T08:30:01Z</time></trkpt><trkpt lat="45.180855297369895" lon="10.603573088887085"><ele>31.0</ele><time>2026-04-24T08:30:02Z</time></trkpt><trkpt lat="45.180915242835404" lon="10.603669684366187"><ele>31.000000000000004</ele><time>2026-04-24T08:30:03Z</time></trkpt><trkpt lat="45.18100072002042" lon="10.603760494087458"><ele>31.0</ele><time>2026-04-24T08:30:04Z</time></trkpt><trkpt lat="45.18109010770197" lon="10.603846174300577"><ele>31.200000000000003</ele><time>2026-04-24T08:30:05Z</time></trkpt><trkpt lat="45.18114659935759" lon="10.603950568888518"><ele>31.400000000000002</ele><time>2026-04-24T08:30:06Z</time></trkpt><trkpt lat="45.181147891067035" lon="10.604091668622464"><ele>31.6</ele><time>2026-04-24T08:30:07Z</time></trkpt><trkpt lat="45.18112347214874" lon="10.604245443134488"><ele>31.8</ele><time>2026-04-24T08:30:08Z</time></trkpt><trkpt lat="45.18109672698087" lon="10.604431855149292"><ele>32.0</ele><time>2026-04-24T08:30:09Z</time></trkpt><trkpt lat="45.18106509834986" lon="10.604637560091815"><ele>32.0</ele><time>2026-04-24T08:30:10Z</time></trkpt><trkpt lat="45.181031334646484" lon="10.604855718561025"><ele>32.0</ele><time>2026-04-24T08:30:11Z</time></trkpt><trkpt lat="45.18101044932585" lon="10.605088841119182"><ele>32.0</ele><time>2026-04-24T08:30:12Z</time></trkpt><trkpt lat="45.18096411248165" lon="10.605335056937843"><ele>32.33333333333333</ele><time>2026-04-24T08:30:13Z</time></trkpt><trkpt lat="45.1809177875516" lon="10.605591616069148"><ele>32.666666666666664</ele><time>2026-04-24T08:30:14Z</time></trkpt><trkpt lat="45.18086551877898" lon="10.60585574214923"><ele>33.0</ele><time>2026-04-24T08:30:15Z</time></trkpt><trkpt lat="45.18080739461004" lon="10.606111292467478"><ele>32.0</ele><time>2026-04-24T08:30:16Z</time></trkpt><trkpt lat="45.18074831168319" lon="10.606364448077432"><ele>31.0</ele><time>2026-04-24T08:30:17Z</time></trkpt><trkpt lat="45.18069016264424" lon="10.606615673526253"><ele>30.0</ele><time>2026-04-24T08:30:18Z</time></trkpt><trkpt lat="45.180633002429886" lon="10.606873247025211"><ele>30.333333333333336</ele><time>2026-04-24T08:30:19Z</time></trkpt><trkpt lat="45.18057594383836" lon="10.60712332856314"><ele>30.666666666666668</ele><time>2026-04-24T08:30:20Z</time></trkpt><trkpt lat="45.18050929661861" lon="10.607364234163535"><ele>31.0</ele><time>2026-04-24T08:30:21Z</time></trkpt><trkpt lat="45.180412946118814" lon="10.607583514885402"><ele>31.0</ele><time>2026-04-24T08:30:22Z</time></trkpt><trkpt lat="45.18031590305635" lon="10.607794725706903"><ele>31.0</ele><time>2026-04-24T08:30:23Z</time></trkpt><trkpt lat="45.18020426164749" lon="10.607994510850071"><ele>31.0</ele><time>2026-04-24T08:30:24Z</time></trkpt><trkpt lat="45.18010056405351" lon="10.608202148139808"><ele>31.0</ele><time>2026-04-24T08:30:25Z</time></trkpt><trkpt lat="45.179973976017656" lon="10.60838597990522"><ele>31.0</ele><time>2026-04-24T08:30:26Z</time></trkpt><trkpt lat="45.17985631812061" lon="10.608576414663794"><ele>31.0</ele><time>2026-04-24T08:30:27Z</time></trkpt><trkpt lat="45.17974888639563" lon="10.608786807429292"><ele>31.0</ele><time>2026-04-24T08:30:28Z</time></trkpt><trkpt lat="45.17962484441308" lon="10.608982406800509"><ele>31.0</ele><time>2026-04-24T08:30:29Z</time></trkpt><trkpt lat="45.1795014682334" lon="10.609179234301322"><ele>31.0</ele><time>2026-04-24T08:30:30Z</time></trkpt><trkpt lat="45.17937637240666" lon="10.609376593774016"><ele>30.333333333333336</ele><time>2026-04-24T08:30:31Z</time></trkpt><trkpt lat="45.179248616858644" lon="10.60957845415688"><ele>29.666666666666664</ele><time>2026-04-24T08:30:32Z</time></trkpt><trkpt lat="45.17912551044626" lon="10.609783533047732"><ele>29.0</ele><time>2026-04-24T08:30:33Z</time></trkpt><trkpt lat="45.17900566435525" lon="10.609989533910348"><ele>28.333333333333332</ele><time>2026-04-24T08:30:34Z</time></trkpt><trkpt lat="45.178884545857834" lon="10.610195488043649"><ele>27.666666666666664</ele><time>2026-04-24T08:30:35Z</time></trkpt><trkpt lat="45.178760308510554" lon="10.610395409919112"><ele>27.0</ele><time>2026-04-24T08:30:36Z</time></trkpt><trkpt lat="45.17863715665891" lon="10.61059526201439"><ele>26.666666666666664</ele><time>2026-04-24T08:30:37Z</time></trkpt><trkpt lat="45.178512444331915" lon="10.610797107709448"><ele>26.333333333333332</ele><time>2026-04-24T08:30:38Z</time></trkpt><trkpt lat="45.17839208825453" lon="10.611007495305836"><ele>26.0</ele><time>2026-04-24T08:30:39Z</time></trkpt><trkpt lat="45.17827805631738" lon="10.611224092078036"><ele>26.666666666666664</ele><time>2026-04-24T08:30:40Z</time></trkpt><trkpt lat="45.17816724386859" lon="10.611444214906818"><ele>27.333333333333336</ele><time>2026-04-24T08:30:41Z</time></trkpt><trkpt lat="45.17806283796829" lon="10.611670709401013"><ele>28.0</ele><time>2026-04-24T08:30:42Z</time></trkpt><trkpt lat="45.17796580825406" lon="10.611904197873228"><ele>28.333333333333336</ele><time>2026-04-24T08:30:43Z</time></trkpt><trkpt lat="45.17787495864487" lon="10.612136905156508"><ele>28.666666666666664</ele><time>2026-04-24T08:30:44Z</time></trkpt><trkpt lat="45.17778649988009" lon="10.612374581537722"><ele>29.0</ele><time>2026-04-24T08:30:45Z</time></trkpt><trkpt lat="45.177703391544966" lon="10.61261763007621"><ele>28.333333333333332</ele><time>2026-04-24T08:30:46Z</time></trkpt><trkpt lat="45.17761865743864" lon="10.61285980188552"><ele>27.666666666666664</ele><time>2026-04-24T08:30:47Z</time></trkpt><trkpt lat="45.17752890096609" lon="10.613091538152904"><ele>27.0</ele><time>2026-04-24T08:30:48Z</time></trkpt><trkpt lat="45.17743331231796" lon="10.613321390796449"><ele>27.666666666666664</ele><time>2026-04-24T08:30:49Z</time></trkpt><trkpt lat="45.17733610947557" lon="10.61354979457253"><ele>28.333333333333332</ele><time>2026-04-24T08:30:50Z</time></trkpt><trkpt lat="45.17724124415812" lon="10.613773238389209"><ele>29.0</ele><time>2026-04-24T08:30:51Z</time></trkpt><trkpt lat="45.17714393672165" lon="10.613995755671533"><ele>29.333333333333332</ele><time>2026-04-24T08:30:52Z</time></trkpt><trkpt lat="45.17705077163725" lon="10.61421002979968"><ele>29.666666666666664</ele><time>2026-04-24T08:30:53Z</time></trkpt><trkpt lat="45.1769576970932" lon="10.614422636750506"><ele>30.0</ele><time>2026-04-24T08:30:54Z</time></trkpt><trkpt lat="45.176873952715155" lon="10.614619453068329"><ele>30.0</ele><time>2026-04-24T08:30:55Z</time></trkpt><trkpt lat="45.17679468814403" lon="10.614811072715007"><ele>30.0</ele><time>2026-04-24T08:30:56Z</time></trkpt><trkpt lat="45.17671920747491" lon="10.614985202873921"><ele>30.0</ele><time>2026-04-24T08:30:57Z</time></trkpt><trkpt lat="45.17665388693447" lon="10.615137111559102"><ele>30.0</ele><time>2026-04-24T08:30:58Z</time></trkpt><trkpt lat="45.176607386857704" lon="10.615252409025693"><ele>30.0</ele><time>2026-04-24T08:30:59Z</time></trkpt><trkpt lat="45.17656685881783" lon="10.615360383152646"><ele>30.0</ele><time>2026-04-24T08:31:00Z</time></trkpt><trkpt lat="45.17651571169382" lon="10.6154336253684"><ele>30.0</ele><time>2026-04-24T08:31:01Z</time></trkpt><trkpt lat="45.176414206417356" lon="10.615466477795577"><ele>30.0</ele><time>2026-04-24T08:31:03Z</time></trkpt><trkpt lat="45.176311197717375" lon="10.61538465196582"><ele>30.0</ele><time>2026-04-24T08:31:05Z</time></trkpt><trkpt lat="45.17624190952912" lon="10.61531943222554"><ele>30.0</ele><time>2026-04-24T08:31:06Z</time></trkpt><trkpt lat="45.176168602371675" lon="10.615250319460687"><ele>30.0</ele><time>2026-04-24T08:31:07Z</time></trkpt><trkpt lat="45.1760866926393" lon="10.615190498355988"><ele>30.0</ele><time>2026-04-24T08:31:08Z</time></trkpt><trkpt lat="45.176018198573715" lon="10.615128641669195"><ele>30.0</ele><time>2026-04-24T08:31:09Z</time></trkpt><trkpt lat="45.1759561113726" lon="10.615073609783858"><ele>30.0</ele><time>2026-04-24T08:31:10Z</time></trkpt><trkpt lat="45.17589554547615" lon="10.61503422078138"><ele>30.0</ele><time>2026-04-24T08:31:11Z</time></trkpt><trkpt lat="45.17577643416992" lon="10.615061254017263"><ele>30.0</ele><time>2026-04-24T08:31:13Z</time></trkpt><trkpt lat="45.17572231215585" lon="10.615144167339539"><ele>30.0</ele><time>2026-04-24T08:31:14Z</time></trkpt><trkpt lat="45.17567636609021" lon="10.615263013653479"><ele>30.0</ele><time>2026-04-24T08:31:15Z</time></trkpt><trkpt lat="45.17562470158158" lon="10.615393593906628"><ele>30.0</ele><time>2026-04-24T08:31:16Z</time></trkpt><trkpt lat="45.17557133814136" lon="10.615520224304216"><ele>30.0</ele><time>2026-04-24T08:31:17Z</time></trkpt><trkpt lat="45.17551428361878" lon="10.615647006880328"><ele>30.0</ele><time>2026-04-24T08:31:18Z</time></trkpt><trkpt lat="45.17545465753502" lon="10.615776547122513"><ele>30.0</ele><time>2026-04-24T08:31:19Z</time></trkpt><trkpt lat="45.17538941362975" lon="10.615915692861904"><ele>30.0</ele><time>2026-04-24T08:31:20Z</time></trkpt><trkpt lat="45.17531445316867" lon="10.616053836367879"><ele>30.0</ele><time>2026-04-24T08:31:21Z</time></trkpt><trkpt lat="45.175249874982825" lon="10.616203355466833"><ele>30.0</ele><time>2026-04-24T08:31:22Z</time></trkpt><trkpt lat="45.17519387917504" lon="10.6163424970896"><ele>30.0</ele><time>2026-04-24T08:31:23Z</time></trkpt><trkpt lat="45.17512707694555" lon="10.616448654487174"><ele>30.0</ele><time>2026-04-24T08:31:24Z</time></trkpt><trkpt lat="45.17508548883499" lon="10.616578390753078"><ele>30.0</ele><time>2026-04-24T08:31:25Z</time></trkpt><trkpt lat="45.17501742022155" lon="10.616708779325604"><ele>30.0</ele><time>2026-04-24T08:31:26Z</time></trkpt><trkpt lat="45.174951482666955" lon="10.616846144935968"><ele>30.0</ele><time>2026-04-24T08:31:27Z</time></trkpt><trkpt lat="45.17488546717708" lon="10.616983339301353"><ele>30.0</ele><time>2026-04-24T08:31:28Z</time></trkpt><trkpt lat="45.17481880818242" lon="10.617124129491831"><ele>30.0</ele><time>2026-04-24T08:31:29Z</time></trkpt><trkpt lat="45.17475775936504" lon="10.617255929063893"><ele>30.0</ele><time>2026-04-24T08:31:30Z</time></trkpt><trkpt lat="45.17470161514946" lon="10.617384379698512"><ele>30.0</ele><time>2026-04-24T08:31:31Z</time></trkpt><trkpt lat="45.17464888919713" lon="10.617505917307698"><ele>30.0</ele><time>2026-04-24T08:31:32Z</time></trkpt><trkpt lat="45.17459591133856" lon="10.617620118384762"><ele>30.0</ele><time>2026-04-24T08:31:33Z</time></trkpt><trkpt lat="45.174543811776125" lon="10.617721654281548"><ele>30.0</ele><time>2026-04-24T08:31:34Z</time></trkpt><trkpt lat="45.17450221831794" lon="10.61781870005367"><ele>30.0</ele><time>2026-04-24T08:31:35Z</time></trkpt><trkpt lat="45.17444357944974" lon="10.617946785940651"><ele>30.0</ele><time>2026-04-24T08:31:37Z</time></trkpt><trkpt lat="45.17439593618835" lon="10.618034387448308"><ele>30.0</ele><time>2026-04-24T08:31:39Z</time></trkpt><trkpt lat="45.17430544172683" lon="10.618030085717585"><ele>30.0</ele><time>2026-04-24T08:31:41Z</time></trkpt><trkpt lat="45.17424283741754" lon="10.617975961155372"><ele>30.0</ele><time>2026-04-24T08:31:42Z</time></trkpt><trkpt lat="45.17417667061454" lon="10.61789579627303"><ele>30.0</ele><time>2026-04-24T08:31:43Z</time></trkpt><trkpt lat="45.17411214946931" lon="10.617810244684186"><ele>30.0</ele><time>2026-04-24T08:31:44Z</time></trkpt><trkpt lat="45.17405638722504" lon="10.617745956687463"><ele>30.0</ele><time>2026-04-24T08:31:45Z</time></trkpt><trkpt lat="45.17393466999391" lon="10.617730610373837"><ele>30.0</ele><time>2026-04-24T08:31:47Z</time></trkpt><trkpt lat="45.173868102672174" lon="10.617801728393538"><ele>30.0</ele><time>2026-04-24T08:31:48Z</time></trkpt><trkpt lat="45.17381639898386" lon="10.617937795282488"><ele>30.0</ele><time>2026-04-24T08:31:49Z</time></trkpt><trkpt lat="45.17376048088827" lon="10.618085485524144"><ele>30.0</ele><time>2026-04-24T08:31:50Z</time></trkpt><trkpt lat="45.17369730688123" lon="10.618237808841004"><ele>30.25</ele><time>2026-04-24T08:31:51Z</time></trkpt><trkpt lat="45.1736313475952" lon="10.618389108550812"><ele>30.5</ele><time>2026-04-24T08:31:52Z</time></trkpt><trkpt lat="45.173563910463216" lon="10.618552370599103"><ele>30.75</ele><time>2026-04-24T08:31:53Z</time></trkpt><trkpt lat="45.17349285852127" lon="10.618715299541105"><ele>31.0</ele><time>2026-04-24T08:31:54Z</time></trkpt><trkpt lat="45.173421974349" lon="10.618873207541576"><ele>31.0</ele><time>2026-04-24T08:31:55Z</time></trkpt><trkpt lat="45.17333287374911" lon="10.619026465742467"><ele>31.0</ele><time>2026-04-24T08:31:56Z</time></trkpt><trkpt lat="45.17327003887276" lon="10.619201195838832"><ele>31.0</ele><time>2026-04-24T08:31:57Z</time></trkpt><trkpt lat="45.17319983636873" lon="10.619346156008898"><ele>31.0</ele><time>2026-04-24T08:31:58Z</time></trkpt><trkpt lat="45.173133291312105" lon="10.619483581689554"><ele>30.8</ele><time>2026-04-24T08:31:59Z</time></trkpt><trkpt lat="45.17306861936113" lon="10.619614865705923"><ele>30.6</ele><time>2026-04-24T08:32:00Z</time></trkpt><trkpt lat="45.173016194713725" lon="10.619735825232965"><ele>30.4</ele><time>2026-04-24T08:32:01Z</time></trkpt><trkpt lat="45.172971433852354" lon="10.619832741143014"><ele>30.2</ele><time>2026-04-24T08:32:02Z</time></trkpt><trkpt lat="45.17290462964931" lon="10.619929220903096"><ele>30.0</ele><time>2026-04-24T08:32:04Z</time></trkpt><trkpt lat="45.17273959461867" lon="10.619759593892105"><ele>30.0</ele><time>2026-04-24T08:32:08Z</time></trkpt><trkpt lat="45.17266894104738" lon="10.61968996943983"><ele>30.0</ele><time>2026-04-24T08:32:09Z</time></trkpt><trkpt lat="45.17258635498985" lon="10.61960989388338"><ele>30.0</ele><time>2026-04-24T08:32:10Z</time></trkpt><trkpt lat="45.17249519273546" lon="10.619524603165873"><ele>30.0</ele><time>2026-04-24T08:32:11Z</time></trkpt><trkpt lat="45.17238575260515" lon="10.61945101337392"><ele>30.0</ele><time>2026-04-24T08:32:12Z</time></trkpt><trkpt lat="45.172298846663374" lon="10.619376361312549"><ele>29.6</ele><time>2026-04-24T08:32:13Z</time></trkpt><trkpt lat="45.172220231139924" lon="10.619316017908469"><ele>29.2</ele><time>2026-04-24T08:32:14Z</time></trkpt><trkpt lat="45.17214551858508" lon="10.619313055263714"><ele>28.799999999999997</ele><time>2026-04-24T08:32:15Z</time></trkpt><trkpt lat="45.17208607287704" lon="10.619399208741642"><ele>28.4</ele><time>2026-04-24T08:32:16Z</time></trkpt><trkpt lat="45.17201439786124" lon="10.619530368567581"><ele>28.0</ele><time>2026-04-24T08:32:17Z</time></trkpt><trkpt lat="45.17193680247072" lon="10.619673853706336"><ele>28.0</ele><time>2026-04-24T08:32:18Z</time></trkpt><trkpt lat="45.17184129043294" lon="10.619830367128763"><ele>28.0</ele><time>2026-04-24T08:32:19Z</time></trkpt><trkpt lat="45.17172426989252" lon="10.619992026858581"><ele>28.0</ele><time>2026-04-24T08:32:20Z</time></trkpt><trkpt lat="45.17161100999292" lon="10.620168573994697"><ele>28.0</ele><time>2026-04-24T08:32:21Z</time></trkpt><trkpt lat="45.17149541540601" lon="10.620347531449372"><ele>28.0</ele><time>2026-04-24T08:32:22Z</time></trkpt><trkpt lat="45.171375344071066" lon="10.620531813205224"><ele>28.0</ele><time>2026-04-24T08:32:23Z</time></trkpt><trkpt lat="45.17125114181818" lon="10.620723229132878"><ele>28.0</ele><time>2026-04-24T08:32:24Z</time></trkpt><trkpt lat="45.171110593931395" lon="10.620903221842873"><ele>28.0</ele><time>2026-04-24T08:32:25Z</time></trkpt><trkpt lat="45.17097708981951" lon="10.621099367480802"><ele>28.0</ele><time>2026-04-24T08:32:26Z</time></trkpt><trkpt lat="45.17084529349989" lon="10.621293733949994"><ele>28.0</ele><time>2026-04-24T08:32:27Z</time></trkpt><trkpt lat="45.17072009335033" lon="10.621512703329246"><ele>28.0</ele><time>2026-04-24T08:32:28Z</time></trkpt><trkpt lat="45.17058416705099" lon="10.621712421587647"><ele>28.0</ele><time>2026-04-24T08:32:29Z</time></trkpt><trkpt lat="45.17044818178889" lon="10.62191249156831"><ele>27.666666666666668</ele><time>2026-04-24T08:32:30Z</time></trkpt><trkpt lat="45.17030944424452" lon="10.622115152771743"><ele>27.333333333333336</ele><time>2026-04-24T08:32:31Z</time></trkpt><trkpt lat="45.170166403058744" lon="10.622321204163377"><ele>27.0</ele><time>2026-04-24T08:32:32Z</time></trkpt><trkpt lat="45.17001975079855" lon="10.622529841236679"><ele>27.0</ele><time>2026-04-24T08:32:33Z</time></trkpt><trkpt lat="45.16987415983545" lon="10.622743661535793"><ele>27.0</ele><time>2026-04-24T08:32:34Z</time></trkpt><trkpt lat="45.169728959007486" lon="10.62295712205562"><ele>27.0</ele><time>2026-04-24T08:32:35Z</time></trkpt><trkpt lat="45.16958453659701" lon="10.623172917563775"><ele>27.0</ele><time>2026-04-24T08:32:36Z</time></trkpt><trkpt lat="45.169441481840266" lon="10.623389088267329"><ele>27.0</ele><time>2026-04-24T08:32:37Z</time></trkpt><trkpt lat="45.169297435468394" lon="10.623607321709798"><ele>27.0</ele><time>2026-04-24T08:32:38Z</time></trkpt><trkpt lat="45.16915580422212" lon="10.62382108054244"><ele>27.0</ele><time>2026-04-24T08:32:39Z</time></trkpt><trkpt lat="45.16899998857724" lon="10.624020740434217"><ele>27.0</ele><time>2026-04-24T08:32:40Z</time></trkpt><trkpt lat="45.16885470671872" lon="10.624236556631336"><ele>27.0</ele><time>2026-04-24T08:32:41Z</time></trkpt><trkpt lat="45.16871081774763" lon="10.624450071991404"><ele>26.333333333333336</ele><time>2026-04-24T08:32:42Z</time></trkpt><trkpt lat="45.1685684073034" lon="10.624661095888058"><ele>25.666666666666668</ele><time>2026-04-24T08:32:43Z</time></trkpt><trkpt lat="45.168424770234886" lon="10.62487393737904"><ele>25.0</ele><time>2026-04-24T08:32:44Z</time></trkpt><trkpt lat="45.168281598861846" lon="10.625087375540627"><ele>25.666666666666668</ele><time>2026-04-24T08:32:45Z</time></trkpt><trkpt lat="45.168151158968406" lon="10.625317836418088"><ele>26.333333333333336</ele><time>2026-04-24T08:32:46Z</time></trkpt><trkpt lat="45.168004403367256" lon="10.625531926936437"><ele>27.0</ele><time>2026-04-24T08:32:47Z</time></trkpt><trkpt lat="45.16786090984084" lon="10.625745845463351"><ele>27.0</ele><time>2026-04-24T08:32:48Z</time></trkpt><trkpt lat="45.167717580211416" lon="10.625964453436202"><ele>27.0</ele><time>2026-04-24T08:32:49Z</time></trkpt><trkpt lat="45.16757422510645" lon="10.626178546019121"><ele>27.0</ele><time>2026-04-24T08:32:50Z</time></trkpt><trkpt lat="45.16743171632102" lon="10.62639448113808"><ele>27.0</ele><time>2026-04-24T08:32:51Z</time></trkpt><trkpt lat="45.16728912703896" lon="10.626612043377184"><ele>27.0</ele><time>2026-04-24T08:32:52Z</time></trkpt><trkpt lat="45.16714450013565" lon="10.626826836875937"><ele>27.0</ele><time>2026-04-24T08:32:53Z</time></trkpt><trkpt lat="45.16699851414161" lon="10.627040577017977"><ele>26.666666666666664</ele><time>2026-04-24T08:32:54Z</time></trkpt><trkpt lat="45.166852329590576" lon="10.627254673880653"><ele>26.333333333333332</ele><time>2026-04-24T08:32:55Z</time></trkpt><trkpt lat="45.166705525932166" lon="10.627467168880155"><ele>26.0</ele><time>2026-04-24T08:32:56Z</time></trkpt><trkpt lat="45.16656219977536" lon="10.627683645853889"><ele>26.0</ele><time>2026-04-24T08:32:57Z</time></trkpt><trkpt lat="45.16642006422931" lon="10.627901745321955"><ele>26.0</ele><time>2026-04-24T08:32:58Z</time></trkpt><trkpt lat="45.166276623867304" lon="10.6281176075079"><ele>26.0</ele><time>2026-04-24T08:32:59Z</time></trkpt><trkpt lat="45.166123996249276" lon="10.628315060471536"><ele>26.0</ele><time>2026-04-24T08:33:00Z</time></trkpt><trkpt lat="45.165990514562004" lon="10.62854007634027"><ele>26.0</ele><time>2026-04-24T08:33:01Z</time></trkpt><trkpt lat="45.165843808607775" lon="10.628753729459579"><ele>26.0</ele><time>2026-04-24T08:33:02Z</time></trkpt><trkpt lat="45.16570010359551" lon="10.62896993184185"><ele>26.0</ele><time>2026-04-24T08:33:03Z</time></trkpt><trkpt lat="45.16554676481104" lon="10.629171452114367"><ele>26.0</ele><time>2026-04-24T08:33:04Z</time></trkpt><trkpt lat="45.16540214541429" lon="10.629386012230745"><ele>26.0</ele><time>2026-04-24T08:33:05Z</time></trkpt><trkpt lat="45.165258872724614" lon="10.629598574340704"><ele>26.0</ele><time>2026-04-24T08:33:06Z</time></trkpt><trkpt lat="45.16511654205058" lon="10.629809738853728"><ele>26.0</ele><time>2026-04-24T08:33:07Z</time></trkpt><trkpt lat="45.164970793840126" lon="10.630025973693334"><ele>26.0</ele><time>2026-04-24T08:33:08Z</time></trkpt><trkpt lat="45.16482645377347" lon="10.630240119391805"><ele>26.333333333333332</ele><time>2026-04-24T08:33:09Z</time></trkpt><trkpt lat="45.16468320629653" lon="10.630452644083954"><ele>26.666666666666664</ele><time>2026-04-24T08:33:10Z</time></trkpt><trkpt lat="45.1645398200566" lon="10.63066537466271"><ele>27.0</ele><time>2026-04-24T08:33:11Z</time></trkpt><trkpt lat="45.16439537015577" lon="10.63087531420774"><ele>27.0</ele><time>2026-04-24T08:33:12Z</time></trkpt><trkpt lat="45.164249386225315" lon="10.631086929195787"><ele>27.0</ele><time>2026-04-24T08:33:13Z</time></trkpt><trkpt lat="45.16410367595781" lon="10.63129814747782"><ele>27.0</ele><time>2026-04-24T08:33:14Z</time></trkpt><trkpt lat="45.16395755191846" lon="10.631509965564318"><ele>27.0</ele><time>2026-04-24T08:33:15Z</time></trkpt><trkpt lat="45.16381114754074" lon="10.631722190021403"><ele>27.0</ele><time>2026-04-24T08:33:16Z</time></trkpt><trkpt lat="45.1636608414948" lon="10.63194007014635"><ele>27.0</ele><time>2026-04-24T08:33:17Z</time></trkpt><trkpt lat="45.16350844817058" lon="10.632160975713052"><ele>27.0</ele><time>2026-04-24T08:33:18Z</time></trkpt><trkpt lat="45.16335322281463" lon="10.632385986522843"><ele>27.0</ele><time>2026-04-24T08:33:19Z</time></trkpt><trkpt lat="45.16319791319301" lon="10.632613688839005"><ele>27.0</ele><time>2026-04-24T08:33:20Z</time></trkpt><trkpt lat="45.163059371430805" lon="10.632860587480021"><ele>27.0</ele><time>2026-04-24T08:33:21Z</time></trkpt><trkpt lat="45.16290277854335" lon="10.633079375312414"><ele>27.0</ele><time>2026-04-24T08:33:22Z</time></trkpt><trkpt lat="45.16274587784859" lon="10.633295850581925"><ele>27.0</ele><time>2026-04-24T08:33:23Z</time></trkpt><trkpt lat="45.16259198160759" lon="10.633514118253947"><ele>27.0</ele><time>2026-04-24T08:33:24Z</time></trkpt><trkpt lat="45.16243878122553" lon="10.633731258318535"><ele>27.0</ele><time>2026-04-24T08:33:25Z</time></trkpt><trkpt lat="45.162287263127624" lon="10.633953692396684"><ele>27.0</ele><time>2026-04-24T08:33:26Z</time></trkpt><trkpt lat="45.16213556524515" lon="10.63417132895839"><ele>26.666666666666664</ele><time>2026-04-24T08:33:27Z</time></trkpt><trkpt lat="45.161980661973374" lon="10.634391371430386"><ele>26.333333333333332</ele><time>2026-04-24T08:33:28Z</time></trkpt><trkpt lat="45.16182771640831" lon="10.634610281080567"><ele>26.0</ele><time>2026-04-24T08:33:29Z</time></trkpt><trkpt lat="45.161677553931916" lon="10.634830819487368"><ele>26.0</ele><time>2026-04-24T08:33:30Z</time></trkpt><trkpt lat="45.16152689784053" lon="10.635053473139873"><ele>26.0</ele><time>2026-04-24T08:33:31Z</time></trkpt><trkpt lat="45.16137786858331" lon="10.63527727424867"><ele>26.0</ele><time>2026-04-24T08:33:32Z</time></trkpt><trkpt lat="45.161227089187626" lon="10.635504950457324"><ele>26.0</ele><time>2026-04-24T08:33:33Z</time></trkpt><trkpt lat="45.161077861446316" lon="10.63572876877817"><ele>26.0</ele><time>2026-04-24T08:33:34Z</time></trkpt><trkpt lat="45.16092903858279" lon="10.635949597589823"><ele>26.0</ele><time>2026-04-24T08:33:35Z</time></trkpt><trkpt lat="45.16077789654388" lon="10.63617336102516"><ele>25.333333333333332</ele><time>2026-04-24T08:33:36Z</time></trkpt><trkpt lat="45.16062472103992" lon="10.63639571394179"><ele>24.666666666666664</ele><time>2026-04-24T08:33:37Z</time></trkpt><trkpt lat="45.16047034965598" lon="10.636617791444488"><ele>24.0</ele><time>2026-04-24T08:33:38Z</time></trkpt><trkpt lat="45.16031416892742" lon="10.636835263565253"><ele>24.0</ele><time>2026-04-24T08:33:39Z</time></trkpt><trkpt lat="45.16015917402878" lon="10.63705681406145"><ele>24.0</ele><time>2026-04-24T08:33:40Z</time></trkpt><trkpt lat="45.16000825447444" lon="10.637279795524364"><ele>24.0</ele><time>2026-04-24T08:33:41Z</time></trkpt><trkpt lat="45.159853842784514" lon="10.637504876457967"><ele>24.0</ele><time>2026-04-24T08:33:42Z</time></trkpt><trkpt lat="45.15970236404108" lon="10.63773173224971"><ele>24.0</ele><time>2026-04-24T08:33:43Z</time></trkpt><trkpt lat="45.15955177398773" lon="10.637950458553801"><ele>24.0</ele><time>2026-04-24T08:33:44Z</time></trkpt><trkpt lat="45.159398148287885" lon="10.638169927257504"><ele>24.0</ele><time>2026-04-24T08:33:45Z</time></trkpt><trkpt lat="45.1592474306016" lon="10.638389864724537"><ele>24.0</ele><time>2026-04-24T08:33:46Z</time></trkpt><trkpt lat="45.15909359318057" lon="10.638607792208635"><ele>24.0</ele><time>2026-04-24T08:33:47Z</time></trkpt><trkpt lat="45.15893937861487" lon="10.63883133749629"><ele>24.333333333333336</ele><time>2026-04-24T08:33:48Z</time></trkpt><trkpt lat="45.15878619643971" lon="10.639053103759336"><ele>24.666666666666668</ele><time>2026-04-24T08:33:49Z</time></trkpt><trkpt lat="45.15863165840593" lon="10.639275082762909"><ele>25.0</ele><time>2026-04-24T08:33:50Z</time></trkpt><trkpt lat="45.15847784554505" lon="10.63949856608957"><ele>25.0</ele><time>2026-04-24T08:33:51Z</time></trkpt><trkpt lat="45.1583230035106" lon="10.639721975655625"><ele>25.0</ele><time>2026-04-24T08:33:52Z</time></trkpt><trkpt lat="45.158166295171135" lon="10.639939305685326"><ele>25.0</ele><time>2026-04-24T08:33:53Z</time></trkpt><trkpt lat="45.15800824512458" lon="10.640154527644876"><ele>25.333333333333336</ele><time>2026-04-24T08:33:54Z</time></trkpt><trkpt lat="45.15785183147537" lon="10.640371345264134"><ele>25.666666666666664</ele><time>2026-04-24T08:33:55Z</time></trkpt><trkpt lat="45.15769673661729" lon="10.640587182553304"><ele>26.0</ele><time>2026-04-24T08:33:56Z</time></trkpt><trkpt lat="45.15754213552775" lon="10.640805534532145"><ele>26.0</ele><time>2026-04-24T08:33:57Z</time></trkpt><trkpt lat="45.15738951758621" lon="10.641025562021232"><ele>26.0</ele><time>2026-04-24T08:33:58Z</time></trkpt><trkpt lat="45.15723749958327" lon="10.64124381077952"><ele>26.0</ele><time>2026-04-24T08:33:59Z</time></trkpt><trkpt lat="45.15707911532219" lon="10.641453458822012"><ele>26.333333333333332</ele><time>2026-04-24T08:34:00Z</time></trkpt><trkpt lat="45.156921048205014" lon="10.641666662524736"><ele>26.666666666666664</ele><time>2026-04-24T08:34:01Z</time></trkpt><trkpt lat="45.15675979187394" lon="10.64187823451845"><ele>27.0</ele><time>2026-04-24T08:34:02Z</time></trkpt><trkpt lat="45.15660365825431" lon="10.642092559597618"><ele>27.333333333333336</ele><time>2026-04-24T08:34:03Z</time></trkpt><trkpt lat="45.15644392725204" lon="10.642306668060858"><ele>27.666666666666668</ele><time>2026-04-24T08:34:04Z</time></trkpt><trkpt lat="45.15629419847195" lon="10.642497802495962"><ele>28.0</ele><time>2026-04-24T08:34:05Z</time></trkpt><trkpt lat="45.15615358460109" lon="10.642676931309655"><ele>27.666666666666668</ele><time>2026-04-24T08:34:06Z</time></trkpt><trkpt lat="45.156023527320215" lon="10.642847135224466"><ele>27.333333333333336</ele><time>2026-04-24T08:34:07Z</time></trkpt><trkpt lat="45.155904570768094" lon="10.643005163756781"><ele>27.0</ele><time>2026-04-24T08:34:08Z</time></trkpt><trkpt lat="45.15580549300376" lon="10.643131043861727"><ele>27.0</ele><time>2026-04-24T08:34:09Z</time></trkpt><trkpt lat="45.15572583270789" lon="10.643233536235071"><ele>27.0</ele><time>2026-04-24T08:34:10Z</time></trkpt><trkpt lat="45.155659558940634" lon="10.643290471644285"><ele>27.0</ele><time>2026-04-24T08:34:11Z</time></trkpt><trkpt lat="45.155583613121124" lon="10.643292166452106"><ele>27.0</ele><time>2026-04-24T08:34:12Z</time></trkpt><trkpt lat="45.155518658765025" lon="10.643247770776329"><ele>27.0</ele><time>2026-04-24T08:34:13Z</time></trkpt><trkpt lat="45.15543313449868" lon="10.643142784673492"><ele>27.0</ele><time>2026-04-24T08:34:14Z</time></trkpt><trkpt lat="45.15533667481094" lon="10.643040029571223"><ele>27.25</ele><time>2026-04-24T08:34:15Z</time></trkpt><trkpt lat="45.15522501681175" lon="10.642940822955039"><ele>27.5</ele><time>2026-04-24T08:34:16Z</time></trkpt><trkpt lat="45.15510387589026" lon="10.642837244692837"><ele>27.75</ele><time>2026-04-24T08:34:17Z</time></trkpt><trkpt lat="45.15498780464359" lon="10.642741152200065"><ele>28.0</ele><time>2026-04-24T08:34:18Z</time></trkpt><trkpt lat="45.154887615271846" lon="10.642661217874155"><ele>27.599999999999998</ele><time>2026-04-24T08:34:19Z</time></trkpt><trkpt lat="45.15480723222364" lon="10.642596343313157"><ele>27.199999999999996</ele><time>2026-04-24T08:34:20Z</time></trkpt><trkpt lat="45.15474702918405" lon="10.642550844728627"><ele>26.8</ele><time>2026-04-24T08:34:21Z</time></trkpt><trkpt lat="45.15466957068793" lon="10.642497214081356"><ele>26.4</ele><time>2026-04-24T08:34:23Z</time></trkpt><trkpt lat="45.154592862255036" lon="10.642568925278576"><ele>26.0</ele><time>2026-04-24T08:34:25Z</time></trkpt><trkpt lat="45.1545654906887" lon="10.642773878888228"><ele>26.25</ele><time>2026-04-24T08:34:27Z</time></trkpt><trkpt lat="45.154535989129236" lon="10.642933262410304"><ele>26.5</ele><time>2026-04-24T08:34:28Z</time></trkpt><trkpt lat="45.15449496982052" lon="10.643109172722696"><ele>26.75</ele><time>2026-04-24T08:34:29Z</time></trkpt><trkpt lat="45.154446074751995" lon="10.643278231311097"><ele>27.0</ele><time>2026-04-24T08:34:30Z</time></trkpt><trkpt lat="45.15439146237996" lon="10.64345431742356"><ele>27.25</ele><time>2026-04-24T08:34:31Z</time></trkpt><trkpt lat="45.15433971939904" lon="10.6436440623719"><ele>27.5</ele><time>2026-04-24T08:34:32Z</time></trkpt><trkpt lat="45.15428257796683" lon="10.643841226070075"><ele>27.75</ele><time>2026-04-24T08:34:33Z</time></trkpt><trkpt lat="45.15422413464527" lon="10.644039273368582"><ele>28.0</ele><time>2026-04-24T08:34:34Z</time></trkpt><trkpt lat="45.154156753105866" lon="10.644238892827168"><ele>28.0</ele><time>2026-04-24T08:34:35Z</time></trkpt><trkpt lat="45.15409421876847" lon="10.644438465172698"><ele>28.0</ele><time>2026-04-24T08:34:36Z</time></trkpt><trkpt lat="45.15403472855164" lon="10.644638276292929"><ele>28.0</ele><time>2026-04-24T08:34:37Z</time></trkpt><trkpt lat="45.153973464265555" lon="10.644842041617549"><ele>27.333333333333336</ele><time>2026-04-24T08:34:38Z</time></trkpt><trkpt lat="45.15390907359202" lon="10.645039169305791"><ele>26.666666666666664</ele><time>2026-04-24T08:34:39Z</time></trkpt><trkpt lat="45.153845789315774" lon="10.645229743943316"><ele>26.0</ele><time>2026-04-24T08:34:40Z</time></trkpt><trkpt lat="45.15378695428106" lon="10.645423645902111"><ele>26.0</ele><time>2026-04-24T08:34:41Z</time></trkpt><trkpt lat="45.15372122909462" lon="10.64561455867657"><ele>26.0</ele><time>2026-04-24T08:34:42Z</time></trkpt><trkpt lat="45.15366422114008" lon="10.645810215394347"><ele>26.0</ele><time>2026-04-24T08:34:43Z</time></trkpt><trkpt lat="45.15360721433063" lon="10.646001711071097"><ele>26.0</ele><time>2026-04-24T08:34:44Z</time></trkpt><trkpt lat="45.1535499750204" lon="10.646188173371094"><ele>26.25</ele><time>2026-04-24T08:34:45Z</time></trkpt><trkpt lat="45.153494215151035" lon="10.646367837102957"><ele>26.5</ele><time>2026-04-24T08:34:46Z</time></trkpt><trkpt lat="45.153441123986184" lon="10.646544475890375"><ele>26.75</ele><time>2026-04-24T08:34:47Z</time></trkpt><trkpt lat="45.15339227972967" lon="10.646726412624263"><ele>27.0</ele><time>2026-04-24T08:34:48Z</time></trkpt><trkpt lat="45.153341004304934" lon="10.64690686778698"><ele>27.25</ele><time>2026-04-24T08:34:49Z</time></trkpt><trkpt lat="45.153285457321644" lon="10.647086925981732"><ele>27.5</ele><time>2026-04-24T08:34:50Z</time></trkpt><trkpt lat="45.15323327012266" lon="10.647270003345406"><ele>27.75</ele><time>2026-04-24T08:34:51Z</time></trkpt><trkpt lat="45.15317013200837" lon="10.647431018776748"><ele>28.0</ele><time>2026-04-24T08:34:52Z</time></trkpt><trkpt lat="45.153124723190615" lon="10.647577578026143"><ele>28.0</ele><time>2026-04-24T08:34:53Z</time></trkpt><trkpt lat="45.153083539285795" lon="10.647710501109648"><ele>27.999999999999996</ele><time>2026-04-24T08:34:54Z</time></trkpt><trkpt lat="45.15304602420996" lon="10.64783158292959"><ele>27.999999999999996</ele><time>2026-04-24T08:34:55Z</time></trkpt><trkpt lat="45.1530231991303" lon="10.647942729254655"><ele>28.0</ele><time>2026-04-24T08:34:56Z</time></trkpt><trkpt lat="45.1529823366507" lon="10.648023030403355"><ele>28.0</ele><time>2026-04-24T08:34:57Z</time></trkpt><trkpt lat="45.15292306904074" lon="10.648150504555282"><ele>27.75</ele><time>2026-04-24T08:34:59Z</time></trkpt><trkpt lat="45.15289581545328" lon="10.648359388731901"><ele>27.5</ele><time>2026-04-24T08:35:01Z</time></trkpt><trkpt lat="45.152850836077114" lon="10.648505108512639"><ele>27.25</ele><time>2026-04-24T08:35:02Z</time></trkpt><trkpt lat="45.15279947698248" lon="10.648673114912231"><ele>27.0</ele><time>2026-04-24T08:35:03Z</time></trkpt><trkpt lat="45.15273601312683" lon="10.648849878184167"><ele>27.0</ele><time>2026-04-24T08:35:04Z</time></trkpt><trkpt lat="45.152677979110585" lon="10.649040473423982"><ele>27.0</ele><time>2026-04-24T08:35:05Z</time></trkpt><trkpt lat="45.152619515994886" lon="10.64922529293951"><ele>27.0</ele><time>2026-04-24T08:35:06Z</time></trkpt><trkpt lat="45.15256545021194" lon="10.649403465951409"><ele>27.0</ele><time>2026-04-24T08:35:07Z</time></trkpt><trkpt lat="45.15251403966336" lon="10.649569812646053"><ele>27.333333333333332</ele><time>2026-04-24T08:35:08Z</time></trkpt><trkpt lat="45.15245086774715" lon="10.649714306044936"><ele>27.666666666666664</ele><time>2026-04-24T08:35:09Z</time></trkpt><trkpt lat="45.152410528538525" lon="10.649846533344169"><ele>28.0</ele><time>2026-04-24T08:35:10Z</time></trkpt><trkpt lat="45.15239101499624" lon="10.64995421575738"><ele>28.333333333333332</ele><time>2026-04-24T08:35:11Z</time></trkpt><trkpt lat="45.15236262201948" lon="10.650036282925829"><ele>28.666666666666664</ele><time>2026-04-24T08:35:12Z</time></trkpt><trkpt lat="45.15229615525028" lon="10.65008511942596"><ele>29.0</ele><time>2026-04-24T08:35:15Z</time></trkpt><trkpt lat="45.152199277022" lon="10.649995847063014"><ele>29.0</ele><time>2026-04-24T08:35:20Z</time></trkpt><trkpt lat="45.15212266898456" lon="10.649915561375606"><ele>29.0</ele><time>2026-04-24T08:35:21Z</time></trkpt><trkpt lat="45.15204731374816" lon="10.649837250178315"><ele>29.0</ele><time>2026-04-24T08:35:22Z</time></trkpt><trkpt lat="45.15196055500682" lon="10.649742173016234"><ele>29.0</ele><time>2026-04-24T08:35:23Z</time></trkpt><trkpt lat="45.15186599516311" lon="10.649637687095321"><ele>29.0</ele><time>2026-04-24T08:35:24Z</time></trkpt><trkpt lat="45.15177028941192" lon="10.649533013325163"><ele>28.75</ele><time>2026-04-24T08:35:25Z</time></trkpt><trkpt lat="45.15166702183076" lon="10.649427951449443"><ele>28.5</ele><time>2026-04-24T08:35:26Z</time></trkpt><trkpt lat="45.151553921900415" lon="10.649308568055703"><ele>28.25</ele><time>2026-04-24T08:35:27Z</time></trkpt><trkpt lat="45.15144128480816" lon="10.649188398321943"><ele>28.0</ele><time>2026-04-24T08:35:28Z</time></trkpt><trkpt lat="45.15134264018539" lon="10.649083219804636"><ele>27.75</ele><time>2026-04-24T08:35:29Z</time></trkpt><trkpt lat="45.15124751795969" lon="10.648975024521503"><ele>27.5</ele><time>2026-04-24T08:35:30Z</time></trkpt><trkpt lat="45.1511523134745" lon="10.648867255674316"><ele>27.25</ele><time>2026-04-24T08:35:31Z</time></trkpt><trkpt lat="45.151061719734955" lon="10.648752653047408"><ele>27.0</ele><time>2026-04-24T08:35:32Z</time></trkpt><trkpt lat="45.150971427472065" lon="10.648624559656515"><ele>26.75</ele><time>2026-04-24T08:35:33Z</time></trkpt><trkpt lat="45.15089201858276" lon="10.648484131722414"><ele>26.5</ele><time>2026-04-24T08:35:34Z</time></trkpt><trkpt lat="45.1508234474451" lon="10.648341139587613"><ele>26.25</ele><time>2026-04-24T08:35:35Z</time></trkpt><trkpt lat="45.15076436499594" lon="10.648212870746056"><ele>26.0</ele><time>2026-04-24T08:35:36Z</time></trkpt><trkpt lat="45.15070303552004" lon="10.648074482083485"><ele>26.0</ele><time>2026-04-24T08:35:37Z</time></trkpt><trkpt lat="45.150643794060485" lon="10.647923139371798"><ele>26.0</ele><time>2026-04-24T08:35:38Z</time></trkpt><trkpt lat="45.15058931341396" lon="10.647766019231229"><ele>26.0</ele><time>2026-04-24T08:35:39Z</time></trkpt><trkpt lat="45.15053418975116" lon="10.647605616379938"><ele>26.0</ele><time>2026-04-24T08:35:40Z</time></trkpt><trkpt lat="45.1504773801827" lon="10.647452461297286"><ele>26.333333333333332</ele><time>2026-04-24T08:35:41Z</time></trkpt><trkpt lat="45.1504289278595" lon="10.647321843925134"><ele>26.666666666666664</ele><time>2026-04-24T08:35:42Z</time></trkpt><trkpt lat="45.15038874033019" lon="10.647212055161468"><ele>27.0</ele><time>2026-04-24T08:35:43Z</time></trkpt><trkpt lat="45.15037490540586" lon="10.647105538904706"><ele>27.333333333333336</ele><time>2026-04-24T08:35:44Z</time></trkpt><trkpt lat="45.150350900345146" lon="10.647015165485088"><ele>27.666666666666668</ele><time>2026-04-24T08:35:45Z</time></trkpt><trkpt lat="45.15032888431532" lon="10.646925507281438"><ele>28.0</ele><time>2026-04-24T08:35:46Z</time></trkpt><trkpt lat="45.15030386951128" lon="10.646811831059766"><ele>28.0</ele><time>2026-04-24T08:35:47Z</time></trkpt><trkpt lat="45.15028366504358" lon="10.646717686509675"><ele>27.999999999999996</ele><time>2026-04-24T08:35:48Z</time></trkpt><trkpt lat="45.150253601934914" lon="10.646621734344519"><ele>27.999999999999996</ele><time>2026-04-24T08:35:50Z</time></trkpt><trkpt lat="45.150068042341836" lon="10.646674403963237"><ele>28.0</ele><time>2026-04-24T08:35:51Z</time></trkpt><trkpt lat="45.14999049710592" lon="10.646700908890844"><ele>28.0</ele><time>2026-04-24T08:35:52Z</time></trkpt><trkpt lat="45.14990725940509" lon="10.646740731009466"><ele>27.599999999999998</ele><time>2026-04-24T08:35:53Z</time></trkpt><trkpt lat="45.149814278383445" lon="10.646789418565938"><ele>27.199999999999996</ele><time>2026-04-24T08:35:54Z</time></trkpt><trkpt lat="45.14973041413331" lon="10.646820724101865"><ele>26.8</ele><time>2026-04-24T08:35:55Z</time></trkpt><trkpt lat="45.14965335626489" lon="10.64685399646657"><ele>26.4</ele><time>2026-04-24T08:35:56Z</time></trkpt><trkpt lat="45.149544499810936" lon="10.6469181044594"><ele>26.0</ele><time>2026-04-24T08:35:58Z</time></trkpt><trkpt lat="45.14944089144194" lon="10.64694990689517"><ele>26.0</ele><time>2026-04-24T08:36:00Z</time></trkpt><trkpt lat="45.149347149845624" lon="10.646987844118554"><ele>26.0</ele><time>2026-04-24T08:36:02Z</time></trkpt><trkpt lat="45.14924073068637" lon="10.647045065769047"><ele>26.0</ele><time>2026-04-24T08:36:04Z</time></trkpt><trkpt lat="45.14916499279223" lon="10.647077744434483"><ele>26.0</ele><time>2026-04-24T08:36:05Z</time></trkpt><trkpt lat="45.149072915236495" lon="10.647069605831687"><ele>26.0</ele><time>2026-04-24T08:36:06Z</time></trkpt><trkpt lat="45.14897526429411" lon="10.647063151645641"><ele>26.0</ele><time>2026-04-24T08:36:07Z</time></trkpt><trkpt lat="45.1488864153909" lon="10.647024061554372"><ele>26.0</ele><time>2026-04-24T08:36:08Z</time></trkpt><trkpt lat="45.14879004637304" lon="10.646981124497602"><ele>26.0</ele><time>2026-04-24T08:36:09Z</time></trkpt><trkpt lat="45.14871128232024" lon="10.646899656554007"><ele>26.0</ele><time>2026-04-24T08:36:10Z</time></trkpt><trkpt lat="45.14862346679078" lon="10.646798400221723"><ele>26.0</ele><time>2026-04-24T08:36:11Z</time></trkpt><trkpt lat="45.148552071311876" lon="10.64666726112436"><ele>25.8</ele><time>2026-04-24T08:36:12Z</time></trkpt><trkpt lat="45.14848044011204" lon="10.646534163082753"><ele>25.6</ele><time>2026-04-24T08:36:13Z</time></trkpt><trkpt lat="45.14841389669682" lon="10.646425412434601"><ele>25.4</ele><time>2026-04-24T08:36:14Z</time></trkpt><trkpt lat="45.14836227637467" lon="10.646319084763936"><ele>25.2</ele><time>2026-04-24T08:36:15Z</time></trkpt><trkpt lat="45.14831168320627" lon="10.646238898183029"><ele>25.0</ele><time>2026-04-24T08:36:16Z</time></trkpt><trkpt lat="45.14824934754903" lon="10.646134526141994"><ele>25.25</ele><time>2026-04-24T08:36:18Z</time></trkpt><trkpt lat="45.148120964325706" lon="10.646267460499194"><ele>25.5</ele><time>2026-04-24T08:36:19Z</time></trkpt><trkpt lat="45.148052159358684" lon="10.64635996367562"><ele>25.75</ele><time>2026-04-24T08:36:20Z</time></trkpt><trkpt lat="45.14797379664774" lon="10.646469696962994"><ele>26.0</ele><time>2026-04-24T08:36:21Z</time></trkpt><trkpt lat="45.14788639611274" lon="10.646578784812847"><ele>26.0</ele><time>2026-04-24T08:36:22Z</time></trkpt><trkpt lat="45.147817672503" lon="10.646664642143445"><ele>26.0</ele><time>2026-04-24T08:36:23Z</time></trkpt><trkpt lat="45.1477479083646" lon="10.646747069062931"><ele>26.0</ele><time>2026-04-24T08:36:24Z</time></trkpt><trkpt lat="45.14769430015264" lon="10.64682924568075"><ele>26.0</ele><time>2026-04-24T08:36:25Z</time></trkpt><trkpt lat="45.14764611241762" lon="10.64690085729801"><ele>26.0</ele><time>2026-04-24T08:36:26Z</time></trkpt><trkpt lat="45.147563736293385" lon="10.647047857299182"><ele>26.200000000000003</ele><time>2026-04-24T08:36:28Z</time></trkpt><trkpt lat="45.14752068302861" lon="10.647136684471967"><ele>26.400000000000002</ele><time>2026-04-24T08:36:29Z</time></trkpt><trkpt lat="45.14746727910155" lon="10.647253142070799"><ele>26.6</ele><time>2026-04-24T08:36:30Z</time></trkpt><trkpt lat="45.14740414291062" lon="10.647381839426547"><ele>26.8</ele><time>2026-04-24T08:36:31Z</time></trkpt><trkpt lat="45.14732080905531" lon="10.64750479417187"><ele>27.0</ele><time>2026-04-24T08:36:32Z</time></trkpt><trkpt lat="45.147253934766184" lon="10.647640269454724"><ele>27.0</ele><time>2026-04-24T08:36:33Z</time></trkpt><trkpt lat="45.14720212491901" lon="10.647781724135042"><ele>27.000000000000004</ele><time>2026-04-24T08:36:34Z</time></trkpt><trkpt lat="45.147145535173706" lon="10.647895642169638"><ele>27.000000000000004</ele><time>2026-04-24T08:36:35Z</time></trkpt><trkpt lat="45.14708700995771" lon="10.64800625373476"><ele>27.0</ele><time>2026-04-24T08:36:36Z</time></trkpt><trkpt lat="45.14702847079385" lon="10.648141487013026"><ele>27.0</ele><time>2026-04-24T08:36:37Z</time></trkpt><trkpt lat="45.14697534376722" lon="10.648241556717236"><ele>27.0</ele><time>2026-04-24T08:36:38Z</time></trkpt><trkpt lat="45.146923757685606" lon="10.648313477533142"><ele>27.000000000000004</ele><time>2026-04-24T08:36:39Z</time></trkpt><trkpt lat="45.146879785657326" lon="10.64839645135613"><ele>27.000000000000004</ele><time>2026-04-24T08:36:41Z</time></trkpt><trkpt lat="45.14688830387221" lon="10.648499769673057"><ele>27.0</ele><time>2026-04-24T08:36:43Z</time></trkpt><trkpt lat="45.14699731338852" lon="10.648641652796796"><ele>27.0</ele><time>2026-04-24T08:36:45Z</time></trkpt><trkpt lat="45.147090107671254" lon="10.648730158614766"><ele>27.0</ele><time>2026-04-24T08:36:46Z</time></trkpt><trkpt lat="45.14719394022157" lon="10.64883684750296"><ele>27.0</ele><time>2026-04-24T08:36:47Z</time></trkpt><trkpt lat="45.14729510595092" lon="10.648966285477933"><ele>27.0</ele><time>2026-04-24T08:36:48Z</time></trkpt><trkpt lat="45.14740139943332" lon="10.649101222014485"><ele>27.0</ele><time>2026-04-24T08:36:49Z</time></trkpt><trkpt lat="45.14751768300934" lon="10.649234374094343"><ele>27.0</ele><time>2026-04-24T08:36:50Z</time></trkpt><trkpt lat="45.14763065046262" lon="10.649367073473"><ele>27.0</ele><time>2026-04-24T08:36:51Z</time></trkpt><trkpt lat="45.147735699503635" lon="10.649523205018568"><ele>27.0</ele><time>2026-04-24T08:36:52Z</time></trkpt><trkpt lat="45.1478470306828" lon="10.649661419844383"><ele>27.0</ele><time>2026-04-24T08:36:53Z</time></trkpt><trkpt lat="45.147957112885" lon="10.649798084079091"><ele>27.0</ele><time>2026-04-24T08:36:54Z</time></trkpt><trkpt lat="45.148065589451946" lon="10.64993377359217"><ele>27.0</ele><time>2026-04-24T08:36:55Z</time></trkpt><trkpt lat="45.14816412848719" lon="10.65005817565444"><ele>27.0</ele><time>2026-04-24T08:36:56Z</time></trkpt><trkpt lat="45.14825015044465" lon="10.650166775391511"><ele>27.0</ele><time>2026-04-24T08:36:57Z</time></trkpt><trkpt lat="45.148325868889756" lon="10.650259019300071"><ele>26.833333333333332</ele><time>2026-04-24T08:36:58Z</time></trkpt><trkpt lat="45.148380481163336" lon="10.650330258605841"><ele>26.666666666666664</ele><time>2026-04-24T08:36:59Z</time></trkpt><trkpt lat="45.148435808019975" lon="10.650388099699766"><ele>26.5</ele><time>2026-04-24T08:37:00Z</time></trkpt><trkpt lat="45.14844382041353" lon="10.650480797243663"><ele>26.333333333333332</ele><time>2026-04-24T08:37:01Z</time></trkpt><trkpt lat="45.148372835588525" lon="10.650557472261635"><ele>26.166666666666664</ele><time>2026-04-24T08:37:02Z</time></trkpt><trkpt lat="45.14831928799684" lon="10.6506622810988"><ele>26.0</ele><time>2026-04-24T08:37:03Z</time></trkpt><trkpt lat="45.148261697167584" lon="10.650798666349381"><ele>26.0</ele><time>2026-04-24T08:37:04Z</time></trkpt><trkpt lat="45.14819599714002" lon="10.650958328666773"><ele>26.0</ele><time>2026-04-24T08:37:05Z</time></trkpt><trkpt lat="45.148126214142124" lon="10.651128483129614"><ele>26.0</ele><time>2026-04-24T08:37:06Z</time></trkpt><trkpt lat="45.148053422464045" lon="10.651300104570907"><ele>26.0</ele><time>2026-04-24T08:37:07Z</time></trkpt><trkpt lat="45.14797976725014" lon="10.651472342817208"><ele>26.0</ele><time>2026-04-24T08:37:08Z</time></trkpt><trkpt lat="45.147928347367746" lon="10.651648957902577"><ele>26.0</ele><time>2026-04-24T08:37:09Z</time></trkpt><trkpt lat="45.147871250245075" lon="10.65181248285199"><ele>26.0</ele><time>2026-04-24T08:37:10Z</time></trkpt><trkpt lat="45.14784029588137" lon="10.651974952657826"><ele>26.0</ele><time>2026-04-24T08:37:11Z</time></trkpt><trkpt lat="45.14783393142328" lon="10.652126919490255"><ele>26.25</ele><time>2026-04-24T08:37:12Z</time></trkpt><trkpt lat="45.14784726123193" lon="10.652282815479309"><ele>26.5</ele><time>2026-04-24T08:37:13Z</time></trkpt><trkpt lat="45.14786580506845" lon="10.652437386085035"><ele>26.75</ele><time>2026-04-24T08:37:14Z</time></trkpt><trkpt lat="45.1478824318453" lon="10.652599820396993"><ele>27.0</ele><time>2026-04-24T08:37:15Z</time></trkpt><trkpt lat="45.14789918259277" lon="10.652772707765465"><ele>27.0</ele><time>2026-04-24T08:37:16Z</time></trkpt><trkpt lat="45.14791966996589" lon="10.652959532811966"><ele>27.0</ele><time>2026-04-24T08:37:17Z</time></trkpt><trkpt lat="45.14793783258998" lon="10.653152303161837"><ele>27.0</ele><time>2026-04-24T08:37:18Z</time></trkpt><trkpt lat="45.14793659407082" lon="10.653349225462895"><ele>27.0</ele><time>2026-04-24T08:37:19Z</time></trkpt><trkpt lat="45.14795113824397" lon="10.65355203594572"><ele>27.25</ele><time>2026-04-24T08:37:20Z</time></trkpt><trkpt lat="45.147965565436216" lon="10.653766324011169"><ele>27.5</ele><time>2026-04-24T08:37:21Z</time></trkpt><trkpt lat="45.14798187387842" lon="10.653972740858013"><ele>27.75</ele><time>2026-04-24T08:37:22Z</time></trkpt><trkpt lat="45.14798896199999" lon="10.654175608433594"><ele>28.0</ele><time>2026-04-24T08:37:23Z</time></trkpt><trkpt lat="45.14798521388744" lon="10.654380708024512"><ele>27.75</ele><time>2026-04-24T08:37:24Z</time></trkpt><trkpt lat="45.14794215666467" lon="10.65457888206941"><ele>27.5</ele><time>2026-04-24T08:37:25Z</time></trkpt><trkpt lat="45.14790602391251" lon="10.654785110222335"><ele>27.25</ele><time>2026-04-24T08:37:26Z</time></trkpt><trkpt lat="45.147869323194584" lon="10.654993274198882"><ele>27.0</ele><time>2026-04-24T08:37:27Z</time></trkpt><trkpt lat="45.147831892704836" lon="10.65520185235295"><ele>26.75</ele><time>2026-04-24T08:37:28Z</time></trkpt><trkpt lat="45.14779409286755" lon="10.655410146650858"><ele>26.5</ele><time>2026-04-24T08:37:29Z</time></trkpt><trkpt lat="45.14777636021825" lon="10.655605375783828"><ele>26.25</ele><time>2026-04-24T08:37:30Z</time></trkpt><trkpt lat="45.14774672858452" lon="10.65576853556439"><ele>26.0</ele><time>2026-04-24T08:37:31Z</time></trkpt><trkpt lat="45.147724296825004" lon="10.655916269982669"><ele>26.0</ele><time>2026-04-24T08:37:32Z</time></trkpt><trkpt lat="45.14768701860979" lon="10.656038030689622"><ele>26.0</ele><time>2026-04-24T08:37:33Z</time></trkpt><trkpt lat="45.147664505691445" lon="10.65615176797218"><ele>26.0</ele><time>2026-04-24T08:37:34Z</time></trkpt><trkpt lat="45.147636288862195" lon="10.656273627504222"><ele>26.0</ele><time>2026-04-24T08:37:35Z</time></trkpt><trkpt lat="45.14758841173268" lon="10.656414626171985"><ele>26.0</ele><time>2026-04-24T08:37:36Z</time></trkpt><trkpt lat="45.147521175090425" lon="10.656585216545993"><ele>26.0</ele><time>2026-04-24T08:37:37Z</time></trkpt><trkpt lat="45.14744451167037" lon="10.656768181755027"><ele>26.0</ele><time>2026-04-24T08:37:38Z</time></trkpt><trkpt lat="45.147361785045035" lon="10.656963154598154"><ele>26.0</ele><time>2026-04-24T08:37:39Z</time></trkpt><trkpt lat="45.14728658797116" lon="10.657181946367249"><ele>26.333333333333332</ele><time>2026-04-24T08:37:40Z</time></trkpt><trkpt lat="45.147190009244596" lon="10.657399168910837"><ele>26.666666666666664</ele><time>2026-04-24T08:37:41Z</time></trkpt><trkpt lat="45.14708989271679" lon="10.657630123515245"><ele>27.0</ele><time>2026-04-24T08:37:42Z</time></trkpt><trkpt lat="45.14698899689493" lon="10.657867597200086"><ele>26.0</ele><time>2026-04-24T08:37:43Z</time></trkpt><trkpt lat="45.14688657389195" lon="10.658112874055263"><ele>25.0</ele><time>2026-04-24T08:37:44Z</time></trkpt><trkpt lat="45.14678123988376" lon="10.658363958640019"><ele>24.0</ele><time>2026-04-24T08:37:45Z</time></trkpt><trkpt lat="45.14668722818297" lon="10.658602781837706"><ele>24.333333333333336</ele><time>2026-04-24T08:37:46Z</time></trkpt><trkpt lat="45.14659049327189" lon="10.658842604216144"><ele>24.666666666666668</ele><time>2026-04-24T08:37:47Z</time></trkpt><trkpt lat="45.1464916873315" lon="10.659085082717866"><ele>25.0</ele><time>2026-04-24T08:37:48Z</time></trkpt><trkpt lat="45.14639011087957" lon="10.659331552111095"><ele>25.333333333333336</ele><time>2026-04-24T08:37:49Z</time></trkpt><trkpt lat="45.14629487046389" lon="10.659570690282775"><ele>25.666666666666664</ele><time>2026-04-24T08:37:50Z</time></trkpt><trkpt lat="45.146207460194056" lon="10.659790619103306"><ele>26.0</ele><time>2026-04-24T08:37:51Z</time></trkpt><trkpt lat="45.14613110735656" lon="10.659982025602607"><ele>26.0</ele><time>2026-04-24T08:37:52Z</time></trkpt><trkpt lat="45.146063469741485" lon="10.660141971818419"><ele>26.0</ele><time>2026-04-24T08:37:53Z</time></trkpt><trkpt lat="45.14600799287019" lon="10.660275766733223"><ele>26.0</ele><time>2026-04-24T08:37:54Z</time></trkpt><trkpt lat="45.145944793117216" lon="10.660337104957152"><ele>26.0</ele><time>2026-04-24T08:37:55Z</time></trkpt><trkpt lat="45.14584500400693" lon="10.66039819620368"><ele>26.0</ele><time>2026-04-24T08:37:57Z</time></trkpt><trkpt lat="45.14579050072083" lon="10.660300512293928"><ele>26.0</ele><time>2026-04-24T08:37:58Z</time></trkpt><trkpt lat="45.1457151253471" lon="10.66023517472599"><ele>26.0</ele><time>2026-04-24T08:37:59Z</time></trkpt><trkpt lat="45.14561752134839" lon="10.660147460512984"><ele>26.0</ele><time>2026-04-24T08:38:00Z</time></trkpt><trkpt lat="45.14550174971642" lon="10.660040329007407"><ele>26.0</ele><time>2026-04-24T08:38:01Z</time></trkpt><trkpt lat="45.145388070976004" lon="10.659935134349261"><ele>25.833333333333332</ele><time>2026-04-24T08:38:02Z</time></trkpt><trkpt lat="45.14529435277249" lon="10.659878360808829"><ele>25.666666666666664</ele><time>2026-04-24T08:38:03Z</time></trkpt><trkpt lat="45.14522707168636" lon="10.659814050892177"><ele>25.5</ele><time>2026-04-24T08:38:04Z</time></trkpt><trkpt lat="45.145167413513086" lon="10.659764199456719"><ele>25.333333333333336</ele><time>2026-04-24T08:38:05Z</time></trkpt><trkpt lat="45.14510222303583" lon="10.659726942991519"><ele>25.166666666666668</ele><time>2026-04-24T08:38:06Z</time></trkpt><trkpt lat="45.14502099031807" lon="10.659692489073626"><ele>25.0</ele><time>2026-04-24T08:38:07Z</time></trkpt><trkpt lat="45.14491582679142" lon="10.659681723884358"><ele>24.25</ele><time>2026-04-24T08:38:08Z</time></trkpt><trkpt lat="45.14479765907932" lon="10.65970535493975"><ele>23.5</ele><time>2026-04-24T08:38:09Z</time></trkpt><trkpt lat="45.144679661993905" lon="10.659768099380864"><ele>22.75</ele><time>2026-04-24T08:38:10Z</time></trkpt><trkpt lat="45.14456076814992" lon="10.659875939704197"><ele>22.0</ele><time>2026-04-24T08:38:11Z</time></trkpt><trkpt lat="45.14444026148841" lon="10.660001794294656"><ele>22.0</ele><time>2026-04-24T08:38:12Z</time></trkpt><trkpt lat="45.1443285094179" lon="10.660107001575632"><ele>22.0</ele><time>2026-04-24T08:38:13Z</time></trkpt><trkpt lat="45.14420958997139" lon="10.66010810642234"><ele>22.0</ele><time>2026-04-24T08:38:14Z</time></trkpt><trkpt lat="45.14410165715066" lon="10.66006242009306"><ele>22.0</ele><time>2026-04-24T08:38:15Z</time></trkpt><trkpt lat="45.14398139898568" lon="10.660006613107099"><ele>22.25</ele><time>2026-04-24T08:38:16Z</time></trkpt><trkpt lat="45.14385519673307" lon="10.659954138236825"><ele>22.5</ele><time>2026-04-24T08:38:17Z</time></trkpt><trkpt lat="45.14372869631107" lon="10.659939230957894"><ele>22.75</ele><time>2026-04-24T08:38:18Z</time></trkpt><trkpt lat="45.143603980201874" lon="10.659940572808114"><ele>23.0</ele><time>2026-04-24T08:38:19Z</time></trkpt><trkpt lat="45.143471028396974" lon="10.659989461571273"><ele>23.0</ele><time>2026-04-24T08:38:20Z</time></trkpt><trkpt lat="45.14334292690751" lon="10.660076662247096"><ele>23.0</ele><time>2026-04-24T08:38:21Z</time></trkpt><trkpt lat="45.1432368060729" lon="10.660200743350622"><ele>23.0</ele><time>2026-04-24T08:38:22Z</time></trkpt><trkpt lat="45.14314614898472" lon="10.660355478555799"><ele>23.0</ele><time>2026-04-24T08:38:23Z</time></trkpt><trkpt lat="45.14306072649641" lon="10.660528518864337"><ele>23.0</ele><time>2026-04-24T08:38:24Z</time></trkpt><trkpt lat="45.14296762973882" lon="10.660716325743751"><ele>23.0</ele><time>2026-04-24T08:38:25Z</time></trkpt><trkpt lat="45.14286974451731" lon="10.660918280742013"><ele>23.0</ele><time>2026-04-24T08:38:26Z</time></trkpt><trkpt lat="45.14277619093708" lon="10.661140269078764"><ele>24.333333333333336</ele><time>2026-04-24T08:38:27Z</time></trkpt><trkpt lat="45.14268480721601" lon="10.661360041222615"><ele>25.666666666666668</ele><time>2026-04-24T08:38:28Z</time></trkpt><trkpt lat="45.14259174355715" lon="10.66158329299921"><ele>27.0</ele><time>2026-04-24T08:38:29Z</time></trkpt><trkpt lat="45.14248738880184" lon="10.66180762202307"><ele>26.333333333333336</ele><time>2026-04-24T08:38:30Z</time></trkpt><trkpt lat="45.142348814827265" lon="10.661992163664552"><ele>25.666666666666668</ele><time>2026-04-24T08:38:31Z</time></trkpt><trkpt lat="45.1422057971859" lon="10.662177859378199"><ele>25.0</ele><time>2026-04-24T08:38:32Z</time></trkpt><trkpt lat="45.14205676606779" lon="10.662358193655791"><ele>25.0</ele><time>2026-04-24T08:38:33Z</time></trkpt><trkpt lat="45.14190698161777" lon="10.662536687077642"><ele>25.0</ele><time>2026-04-24T08:38:34Z</time></trkpt><trkpt lat="45.14176937084203" lon="10.662726425587595"><ele>25.0</ele><time>2026-04-24T08:38:35Z</time></trkpt><trkpt lat="45.14162216764495" lon="10.662899331913376"><ele>25.333333333333336</ele><time>2026-04-24T08:38:36Z</time></trkpt><trkpt lat="45.14148277289579" lon="10.663086839812028"><ele>25.666666666666664</ele><time>2026-04-24T08:38:37Z</time></trkpt><trkpt lat="45.14134671691959" lon="10.663282240287579"><ele>26.0</ele><time>2026-04-24T08:38:38Z</time></trkpt><trkpt lat="45.14121563429329" lon="10.663496539785818"><ele>26.0</ele><time>2026-04-24T08:38:39Z</time></trkpt><trkpt lat="45.14108541021878" lon="10.66371776585955"><ele>26.0</ele><time>2026-04-24T08:38:40Z</time></trkpt><trkpt lat="45.14095011714035" lon="10.663936170737845"><ele>26.0</ele><time>2026-04-24T08:38:41Z</time></trkpt><trkpt lat="45.140817978317806" lon="10.66416265192589"><ele>26.0</ele><time>2026-04-24T08:38:42Z</time></trkpt><trkpt lat="45.14068658737434" lon="10.664399350804377"><ele>26.0</ele><time>2026-04-24T08:38:43Z</time></trkpt><trkpt lat="45.14055445577998" lon="10.664642910792042"><ele>26.0</ele><time>2026-04-24T08:38:44Z</time></trkpt><trkpt lat="45.140417822517264" lon="10.664883211297303"><ele>26.0</ele><time>2026-04-24T08:38:45Z</time></trkpt><trkpt lat="45.14026506404643" lon="10.665097165059764"><ele>26.0</ele><time>2026-04-24T08:38:46Z</time></trkpt><trkpt lat="45.140144955620116" lon="10.665317170914436"><ele>26.0</ele><time>2026-04-24T08:38:47Z</time></trkpt><trkpt lat="45.14000925739248" lon="10.665485908847335"><ele>25.666666666666664</ele><time>2026-04-24T08:38:48Z</time></trkpt><trkpt lat="45.13990963942796" lon="10.665677150543361"><ele>25.333333333333336</ele><time>2026-04-24T08:38:49Z</time></trkpt><trkpt lat="45.13980861073505" lon="10.665873013535744"><ele>25.0</ele><time>2026-04-24T08:38:50Z</time></trkpt><trkpt lat="45.13972894403238" lon="10.666095583148646"><ele>25.0</ele><time>2026-04-24T08:38:51Z</time></trkpt><trkpt lat="45.13966275809134" lon="10.666343466767525"><ele>25.0</ele><time>2026-04-24T08:38:52Z</time></trkpt><trkpt lat="45.13959933394764" lon="10.66660512289538"><ele>25.0</ele><time>2026-04-24T08:38:53Z</time></trkpt><trkpt lat="45.139541398714215" lon="10.666851324118515"><ele>25.0</ele><time>2026-04-24T08:38:54Z</time></trkpt><trkpt lat="45.13947569149144" lon="10.667077858130288"><ele>25.0</ele><time>2026-04-24T08:38:55Z</time></trkpt><trkpt lat="45.13936639142613" lon="10.667274986760537"><ele>25.0</ele><time>2026-04-24T08:38:56Z</time></trkpt><trkpt lat="45.13925828136539" lon="10.667485713878328"><ele>25.0</ele><time>2026-04-24T08:38:57Z</time></trkpt><trkpt lat="45.13914984029032" lon="10.667701936183931"><ele>25.0</ele><time>2026-04-24T08:38:58Z</time></trkpt><trkpt lat="45.13904076221528" lon="10.667933990105235"><ele>25.0</ele><time>2026-04-24T08:38:59Z</time></trkpt><trkpt lat="45.13895259297255" lon="10.66819785627138"><ele>25.0</ele><time>2026-04-24T08:39:00Z</time></trkpt><trkpt lat="45.13884738510064" lon="10.668451879539447"><ele>25.0</ele><time>2026-04-24T08:39:01Z</time></trkpt><trkpt lat="45.13874822538021" lon="10.66871997930377"><ele>25.0</ele><time>2026-04-24T08:39:02Z</time></trkpt><trkpt lat="45.13864903091027" lon="10.668987125670544"><ele>25.0</ele><time>2026-04-24T08:39:03Z</time></trkpt><trkpt lat="45.13854750804027" lon="10.669263551927207"><ele>25.0</ele><time>2026-04-24T08:39:04Z</time></trkpt><trkpt lat="45.138448596128214" lon="10.669548684534046"><ele>25.0</ele><time>2026-04-24T08:39:05Z</time></trkpt><trkpt lat="45.138348665043885" lon="10.66983632715442"><ele>25.0</ele><time>2026-04-24T08:39:06Z</time></trkpt><trkpt lat="45.1382498156904" lon="10.670123748772692"><ele>25.0</ele><time>2026-04-24T08:39:07Z</time></trkpt><trkpt lat="45.13815300807485" lon="10.670408640871402"><ele>25.0</ele><time>2026-04-24T08:39:08Z</time></trkpt><trkpt lat="45.138059057454605" lon="10.670690615035914"><ele>25.0</ele><time>2026-04-24T08:39:09Z</time></trkpt><trkpt lat="45.13796380597684" lon="10.670966998189376"><ele>25.0</ele><time>2026-04-24T08:39:10Z</time></trkpt><trkpt lat="45.13787386577463" lon="10.671239125387514"><ele>25.0</ele><time>2026-04-24T08:39:11Z</time></trkpt><trkpt lat="45.13778356236554" lon="10.671496688735468"><ele>25.0</ele><time>2026-04-24T08:39:12Z</time></trkpt><trkpt lat="45.13768671419869" lon="10.671742336188123"><ele>25.0</ele><time>2026-04-24T08:39:13Z</time></trkpt><trkpt lat="45.137574180178326" lon="10.671983002792159"><ele>25.0</ele><time>2026-04-24T08:39:14Z</time></trkpt><trkpt lat="45.13742691582954" lon="10.672192045837384"><ele>24.333333333333336</ele><time>2026-04-24T08:39:15Z</time></trkpt><trkpt lat="45.137276628345276" lon="10.672394597776181"><ele>23.666666666666668</ele><time>2026-04-24T08:39:16Z</time></trkpt><trkpt lat="45.137114709080016" lon="10.672593192191636"><ele>23.0</ele><time>2026-04-24T08:39:17Z</time></trkpt><trkpt lat="45.13694721720615" lon="10.672788939675279"><ele>22.666666666666668</ele><time>2026-04-24T08:39:18Z</time></trkpt><trkpt lat="45.13677770162507" lon="10.672986300487134"><ele>22.333333333333332</ele><time>2026-04-24T08:39:19Z</time></trkpt><trkpt lat="45.136612650856016" lon="10.673189740039575"><ele>22.0</ele><time>2026-04-24T08:39:20Z</time></trkpt><trkpt lat="45.13645220808286" lon="10.673401093260306"><ele>22.666666666666664</ele><time>2026-04-24T08:39:21Z</time></trkpt><trkpt lat="45.1363116428541" lon="10.673617959700858"><ele>23.333333333333332</ele><time>2026-04-24T08:39:22Z</time></trkpt><trkpt lat="45.13617222217385" lon="10.673806458714362"><ele>24.0</ele><time>2026-04-24T08:39:23Z</time></trkpt><trkpt lat="45.13604410000533" lon="10.673990608795542"><ele>24.0</ele><time>2026-04-24T08:39:24Z</time></trkpt><trkpt lat="45.135911140152004" lon="10.674133944664247"><ele>24.0</ele><time>2026-04-24T08:39:25Z</time></trkpt><trkpt lat="45.13579001865261" lon="10.67423208899255"><ele>24.0</ele><time>2026-04-24T08:39:26Z</time></trkpt><trkpt lat="45.13569053827134" lon="10.674287700278366"><ele>24.0</ele><time>2026-04-24T08:39:27Z</time></trkpt><trkpt lat="45.13560982150205" lon="10.674296307281358"><ele>24.2</ele><time>2026-04-24T08:39:28Z</time></trkpt><trkpt lat="45.13554490705798" lon="10.674255552152433"><ele>24.4</ele><time>2026-04-24T08:39:29Z</time></trkpt><trkpt lat="45.13544501067" lon="10.67423853258493"><ele>24.6</ele><time>2026-04-24T08:39:30Z</time></trkpt><trkpt lat="45.135337444827364" lon="10.67422048900414"><ele>24.8</ele><time>2026-04-24T08:39:31Z</time></trkpt><trkpt lat="45.135237321455485" lon="10.67420902571494"><ele>25.0</ele><time>2026-04-24T08:39:32Z</time></trkpt><trkpt lat="45.135147536044315" lon="10.674201543828794"><ele>25.000000000000004</ele><time>2026-04-24T08:39:33Z</time></trkpt><trkpt lat="45.13505988349968" lon="10.674248051277814"><ele>25.0</ele><time>2026-04-24T08:39:34Z</time></trkpt><trkpt lat="45.13499685752012" lon="10.67431065478597"><ele>25.0</ele><time>2026-04-24T08:39:35Z</time></trkpt><trkpt lat="45.13494385525679" lon="10.67437972617926"><ele>25.0</ele><time>2026-04-24T08:39:36Z</time></trkpt><trkpt lat="45.134882767391225" lon="10.674527448563335"><ele>25.000000000000004</ele><time>2026-04-24T08:39:38Z</time></trkpt><trkpt lat="45.13485635704005" lon="10.674638029262711"><ele>25.0</ele><time>2026-04-24T08:39:39Z</time></trkpt><trkpt lat="45.134825955487024" lon="10.6747722460967"><ele>25.0</ele><time>2026-04-24T08:39:40Z</time></trkpt><trkpt lat="45.13479205653129" lon="10.674939724675141"><ele>25.0</ele><time>2026-04-24T08:39:41Z</time></trkpt><trkpt lat="45.13472042149399" lon="10.675110232437243"><ele>25.0</ele><time>2026-04-24T08:39:42Z</time></trkpt><trkpt lat="45.13470350716888" lon="10.675324013981076"><ele>25.0</ele><time>2026-04-24T08:39:43Z</time></trkpt><trkpt lat="45.13463364753518" lon="10.675522752145483"><ele>24.666666666666668</ele><time>2026-04-24T08:39:44Z</time></trkpt><trkpt lat="45.134535285798194" lon="10.67571384389909"><ele>24.333333333333336</ele><time>2026-04-24T08:39:45Z</time></trkpt><trkpt lat="45.13440761171719" lon="10.675889136327715"><ele>24.0</ele><time>2026-04-24T08:39:46Z</time></trkpt><trkpt lat="45.13426072073359" lon="10.676054566337145"><ele>24.0</ele><time>2026-04-24T08:39:47Z</time></trkpt><trkpt lat="45.13409980791908" lon="10.676228983108292"><ele>24.0</ele><time>2026-04-24T08:39:48Z</time></trkpt><trkpt lat="45.13393684913743" lon="10.676412112709519"><ele>24.0</ele><time>2026-04-24T08:39:49Z</time></trkpt><trkpt lat="45.133767436193985" lon="10.676595491948989"><ele>24.0</ele><time>2026-04-24T08:39:50Z</time></trkpt><trkpt lat="45.13359963608638" lon="10.676781184242213"><ele>24.0</ele><time>2026-04-24T08:39:51Z</time></trkpt><trkpt lat="45.13344842288986" lon="10.676958139497863"><ele>24.0</ele><time>2026-04-24T08:39:52Z</time></trkpt><trkpt lat="45.133301650415675" lon="10.67710997599834"><ele>24.333333333333336</ele><time>2026-04-24T08:39:53Z</time></trkpt><trkpt lat="45.133162776293204" lon="10.677245060199173"><ele>24.666666666666668</ele><time>2026-04-24T08:39:54Z</time></trkpt><trkpt lat="45.133042712589635" lon="10.677386380703947"><ele>25.0</ele><time>2026-04-24T08:39:55Z</time></trkpt><trkpt lat="45.13294847610823" lon="10.677558686429688"><ele>25.333333333333336</ele><time>2026-04-24T08:39:56Z</time></trkpt><trkpt lat="45.132865305265724" lon="10.677771065640897"><ele>25.666666666666664</ele><time>2026-04-24T08:39:57Z</time></trkpt><trkpt lat="45.132783773213" lon="10.678004175212772"><ele>26.0</ele><time>2026-04-24T08:39:58Z</time></trkpt><trkpt lat="45.13270159662602" lon="10.678244336134483"><ele>26.0</ele><time>2026-04-24T08:39:59Z</time></trkpt><trkpt lat="45.132626089773474" lon="10.678502191046334"><ele>26.0</ele><time>2026-04-24T08:40:00Z</time></trkpt><trkpt lat="45.13255824978789" lon="10.6787765544848"><ele>26.0</ele><time>2026-04-24T08:40:01Z</time></trkpt><trkpt lat="45.13249991733368" lon="10.679070382174729"><ele>25.0</ele><time>2026-04-24T08:40:02Z</time></trkpt><trkpt lat="45.13245150777566" lon="10.679368938074496"><ele>24.0</ele><time>2026-04-24T08:40:03Z</time></trkpt><trkpt lat="45.13239751794758" lon="10.679674627265602"><ele>23.0</ele><time>2026-04-24T08:40:04Z</time></trkpt><trkpt lat="45.13233854509199" lon="10.679972650710877"><ele>22.666666666666668</ele><time>2026-04-24T08:40:05Z</time></trkpt><trkpt lat="45.13227673053863" lon="10.680269161509617"><ele>22.333333333333332</ele><time>2026-04-24T08:40:06Z</time></trkpt><trkpt lat="45.132206875317365" lon="10.680564296587894"><ele>22.0</ele><time>2026-04-24T08:40:07Z</time></trkpt><trkpt lat="45.13213665602824" lon="10.680845231760411"><ele>22.333333333333332</ele><time>2026-04-24T08:40:08Z</time></trkpt><trkpt lat="45.13206881265147" lon="10.681103910791773"><ele>22.666666666666668</ele><time>2026-04-24T08:40:09Z</time></trkpt><trkpt lat="45.132003178834154" lon="10.681343470997385"><ele>23.0</ele><time>2026-04-24T08:40:10Z</time></trkpt><trkpt lat="45.13193779441593" lon="10.681566902123166"><ele>23.0</ele><time>2026-04-24T08:40:11Z</time></trkpt><trkpt lat="45.13187936660632" lon="10.681783890248457"><ele>23.0</ele><time>2026-04-24T08:40:12Z</time></trkpt><trkpt lat="45.131837020758056" lon="10.68202849578815"><ele>23.0</ele><time>2026-04-24T08:40:13Z</time></trkpt><trkpt lat="45.131807656834255" lon="10.68228548169893"><ele>22.666666666666668</ele><time>2026-04-24T08:40:14Z</time></trkpt><trkpt lat="45.1317869466038" lon="10.682546554476705"><ele>22.333333333333332</ele><time>2026-04-24T08:40:15Z</time></trkpt><trkpt lat="45.13177277859039" lon="10.682783714303921"><ele>22.0</ele><time>2026-04-24T08:40:16Z</time></trkpt><trkpt lat="45.13175509587091" lon="10.682984867691934"><ele>22.0</ele><time>2026-04-24T08:40:17Z</time></trkpt><trkpt lat="45.13172564825081" lon="10.683154249345426"><ele>22.0</ele><time>2026-04-24T08:40:18Z</time></trkpt><trkpt lat="45.131671354607235" lon="10.68329138427451"><ele>22.0</ele><time>2026-04-24T08:40:19Z</time></trkpt><trkpt lat="45.131584461158575" lon="10.683393397831697"><ele>22.0</ele><time>2026-04-24T08:40:20Z</time></trkpt><trkpt lat="45.1314656501981" lon="10.683470992178261"><ele>22.333333333333332</ele><time>2026-04-24T08:40:21Z</time></trkpt><trkpt lat="45.131319980589495" lon="10.683527643428228"><ele>22.666666666666668</ele><time>2026-04-24T08:40:22Z</time></trkpt><trkpt lat="45.131159830092294" lon="10.683583325778528"><ele>23.0</ele><time>2026-04-24T08:40:23Z</time></trkpt><trkpt lat="45.13098852609813" lon="10.683649949558696"><ele>23.333333333333336</ele><time>2026-04-24T08:40:24Z</time></trkpt><trkpt lat="45.13081104842085" lon="10.683725720101357"><ele>23.666666666666668</ele><time>2026-04-24T08:40:25Z</time></trkpt><trkpt lat="45.130624365532704" lon="10.683804956185364"><ele>24.0</ele><time>2026-04-24T08:40:26Z</time></trkpt><trkpt lat="45.13043510138873" lon="10.683897506870629"><ele>24.0</ele><time>2026-04-24T08:40:27Z</time></trkpt><trkpt lat="45.13024507386796" lon="10.684013450084068"><ele>24.0</ele><time>2026-04-24T08:40:28Z</time></trkpt><trkpt lat="45.13005447657549" lon="10.68414971861056"><ele>24.0</ele><time>2026-04-24T08:40:29Z</time></trkpt><trkpt lat="45.12986487247867" lon="10.684282609614685"><ele>23.666666666666668</ele><time>2026-04-24T08:40:30Z</time></trkpt><trkpt lat="45.129675792967525" lon="10.684407732698377"><ele>23.333333333333336</ele><time>2026-04-24T08:40:31Z</time></trkpt><trkpt lat="45.129482904110645" lon="10.68453437294573"><ele>23.0</ele><time>2026-04-24T08:40:32Z</time></trkpt><trkpt lat="45.1292862792153" lon="10.684654891793866"><ele>23.0</ele><time>2026-04-24T08:40:33Z</time></trkpt><trkpt lat="45.12908960808007" lon="10.684770215437574"><ele>23.0</ele><time>2026-04-24T08:40:34Z</time></trkpt><trkpt lat="45.12889419994103" lon="10.684880595935281"><ele>23.0</ele><time>2026-04-24T08:40:35Z</time></trkpt><trkpt lat="45.12870587226232" lon="10.685001115929014"><ele>23.333333333333336</ele><time>2026-04-24T08:40:36Z</time></trkpt><trkpt lat="45.12853358486025" lon="10.685119341764612"><ele>23.666666666666668</ele><time>2026-04-24T08:40:37Z</time></trkpt><trkpt lat="45.128373680675594" lon="10.685234780864404"><ele>24.0</ele><time>2026-04-24T08:40:38Z</time></trkpt><trkpt lat="45.12822595976284" lon="10.685352838866347"><ele>24.333333333333336</ele><time>2026-04-24T08:40:39Z</time></trkpt><trkpt lat="45.12808905600524" lon="10.685497008674185"><ele>24.666666666666668</ele><time>2026-04-24T08:40:40Z</time></trkpt><trkpt lat="45.12796085569333" lon="10.685650005848604"><ele>25.0</ele><time>2026-04-24T08:40:41Z</time></trkpt><trkpt lat="45.12782949268026" lon="10.68579572755776"><ele>25.0</ele><time>2026-04-24T08:40:42Z</time></trkpt><trkpt lat="45.12767097118293" lon="10.685901764559778"><ele>25.0</ele><time>2026-04-24T08:40:43Z</time></trkpt><trkpt lat="45.127506498000336" lon="10.686014857728198"><ele>25.0</ele><time>2026-04-24T08:40:44Z</time></trkpt><trkpt lat="45.127335934210315" lon="10.686127641290726"><ele>24.0</ele><time>2026-04-24T08:40:45Z</time></trkpt><trkpt lat="45.127159499109034" lon="10.686225424811411"><ele>23.0</ele><time>2026-04-24T08:40:46Z</time></trkpt><trkpt lat="45.12697850469376" lon="10.686322297447626"><ele>22.0</ele><time>2026-04-24T08:40:47Z</time></trkpt><trkpt lat="45.12680267978045" lon="10.68642240816771"><ele>22.0</ele><time>2026-04-24T08:40:48Z</time></trkpt><trkpt lat="45.12664730880312" lon="10.686522375525414"><ele>22.0</ele><time>2026-04-24T08:40:49Z</time></trkpt><trkpt lat="45.12649786028107" lon="10.686630974087228"><ele>22.0</ele><time>2026-04-24T08:40:50Z</time></trkpt><trkpt lat="45.1263591946707" lon="10.686740560526703"><ele>23.0</ele><time>2026-04-24T08:40:51Z</time></trkpt><trkpt lat="45.126220383957765" lon="10.686853609424245"><ele>24.0</ele><time>2026-04-24T08:40:52Z</time></trkpt><trkpt lat="45.12607309404106" lon="10.686977137612203"><ele>25.0</ele><time>2026-04-24T08:40:53Z</time></trkpt><trkpt lat="45.12592825601713" lon="10.687121529560779"><ele>25.0</ele><time>2026-04-24T08:40:54Z</time></trkpt><trkpt lat="45.12576907781916" lon="10.68725985714575"><ele>25.0</ele><time>2026-04-24T08:40:55Z</time></trkpt><trkpt lat="45.12560356409345" lon="10.687403520739085"><ele>25.0</ele><time>2026-04-24T08:40:56Z</time></trkpt><trkpt lat="45.12542825060498" lon="10.687543951160231"><ele>25.333333333333336</ele><time>2026-04-24T08:40:57Z</time></trkpt><trkpt lat="45.12524243478805" lon="10.687668508756506"><ele>25.666666666666664</ele><time>2026-04-24T08:40:58Z</time></trkpt><trkpt lat="45.125060057752485" lon="10.687820846646858"><ele>26.0</ele><time>2026-04-24T08:40:59Z</time></trkpt><trkpt lat="45.12489063709267" lon="10.688003668687877"><ele>25.333333333333332</ele><time>2026-04-24T08:41:00Z</time></trkpt><trkpt lat="45.124714716553264" lon="10.688183591733383"><ele>24.666666666666664</ele><time>2026-04-24T08:41:01Z</time></trkpt><trkpt lat="45.12453966702641" lon="10.688366340160627"><ele>24.0</ele><time>2026-04-24T08:41:02Z</time></trkpt><trkpt lat="45.12436664406207" lon="10.68854287201548"><ele>23.75</ele><time>2026-04-24T08:41:03Z</time></trkpt><trkpt lat="45.124227503802416" lon="10.688685585513351"><ele>23.5</ele><time>2026-04-24T08:41:04Z</time></trkpt><trkpt lat="45.12410521188206" lon="10.688813335367392"><ele>23.25</ele><time>2026-04-24T08:41:05Z</time></trkpt><trkpt lat="45.12398700300645" lon="10.688871300716725"><ele>23.0</ele><time>2026-04-24T08:41:06Z</time></trkpt><trkpt lat="45.123881007815044" lon="10.688912834264556"><ele>23.0</ele><time>2026-04-24T08:41:07Z</time></trkpt><trkpt lat="45.12379242723865" lon="10.688832755205212"><ele>23.0</ele><time>2026-04-24T08:41:08Z</time></trkpt><trkpt lat="45.1236624376851" lon="10.68881745952537"><ele>23.0</ele><time>2026-04-24T08:41:09Z</time></trkpt><trkpt lat="45.123513399771035" lon="10.688795993844874"><ele>23.0</ele><time>2026-04-24T08:41:10Z</time></trkpt><trkpt lat="45.12334956811853" lon="10.688771900958063"><ele>23.0</ele><time>2026-04-24T08:41:11Z</time></trkpt><trkpt lat="45.123186796690874" lon="10.688747963981177"><ele>23.0</ele><time>2026-04-24T08:41:12Z</time></trkpt><trkpt lat="45.12302081152577" lon="10.688724766702835"><ele>23.0</ele><time>2026-04-24T08:41:13Z</time></trkpt><trkpt lat="45.122859509548064" lon="10.68872066437837"><ele>23.0</ele><time>2026-04-24T08:41:14Z</time></trkpt><trkpt lat="45.122701705552664" lon="10.688698786972479"><ele>23.0</ele><time>2026-04-24T08:41:15Z</time></trkpt><trkpt lat="45.12254071648267" lon="10.688677719423751"><ele>23.0</ele><time>2026-04-24T08:41:16Z</time></trkpt><trkpt lat="45.122381765017124" lon="10.688657850112245"><ele>23.0</ele><time>2026-04-24T08:41:17Z</time></trkpt><trkpt lat="45.1222241926435" lon="10.688634039798444"><ele>23.0</ele><time>2026-04-24T08:41:18Z</time></trkpt><trkpt lat="45.122061868757434" lon="10.688612184353566"><ele>23.0</ele><time>2026-04-24T08:41:19Z</time></trkpt><trkpt lat="45.121903397190245" lon="10.688582775332108"><ele>23.0</ele><time>2026-04-24T08:41:20Z</time></trkpt><trkpt lat="45.1217450185413" lon="10.688552392056582"><ele>23.0</ele><time>2026-04-24T08:41:21Z</time></trkpt><trkpt lat="45.121585329751284" lon="10.68852167859993"><ele>23.0</ele><time>2026-04-24T08:41:22Z</time></trkpt><trkpt lat="45.121424149971396" lon="10.688486781290385"><ele>23.333333333333336</ele><time>2026-04-24T08:41:23Z</time></trkpt><trkpt lat="45.12126154823611" lon="10.688450832785138"><ele>23.666666666666668</ele><time>2026-04-24T08:41:24Z</time></trkpt><trkpt lat="45.121099848546265" lon="10.688393045011807"><ele>24.0</ele><time>2026-04-24T08:41:25Z</time></trkpt><trkpt lat="45.120931080962286" lon="10.688359459699488"><ele>24.0</ele><time>2026-04-24T08:41:26Z</time></trkpt><trkpt lat="45.12077480464434" lon="10.688331139647149"><ele>24.0</ele><time>2026-04-24T08:41:27Z</time></trkpt><trkpt lat="45.12063286328119" lon="10.688304519037667"><ele>24.0</ele><time>2026-04-24T08:41:28Z</time></trkpt><trkpt lat="45.12050523596162" lon="10.68827927774391"><ele>24.0</ele><time>2026-04-24T08:41:29Z</time></trkpt><trkpt lat="45.12039291340716" lon="10.688257061645736"><ele>24.0</ele><time>2026-04-24T08:41:30Z</time></trkpt><trkpt lat="45.120293696561035" lon="10.688237437743442"><ele>24.0</ele><time>2026-04-24T08:41:31Z</time></trkpt><trkpt lat="45.120208280407" lon="10.688245646442951"><ele>24.0</ele><time>2026-04-24T08:41:32Z</time></trkpt><trkpt lat="45.12014181194529" lon="10.688237821660618"><ele>24.0</ele><time>2026-04-24T08:41:33Z</time></trkpt><trkpt lat="45.12007024033119" lon="10.688247051501776"><ele>24.0</ele><time>2026-04-24T08:41:35Z</time></trkpt><trkpt lat="45.12000051568074" lon="10.688223756110586"><ele>24.0</ele><time>2026-04-24T08:41:48Z</time></trkpt><trkpt lat="45.11990337485568" lon="10.688182733806627"><ele>24.0</ele><time>2026-04-24T08:41:49Z</time></trkpt><trkpt lat="45.119790185608856" lon="10.68813892830782"><ele>24.0</ele><time>2026-04-24T08:41:50Z</time></trkpt><trkpt lat="45.11968483936406" lon="10.68804163506538"><ele>24.0</ele><time>2026-04-24T08:41:51Z</time></trkpt><trkpt lat="45.11956386785429" lon="10.687995588438191"><ele>24.0</ele><time>2026-04-24T08:41:52Z</time></trkpt><trkpt lat="45.11943284697299" lon="10.68794381819606"><ele>24.0</ele><time>2026-04-24T08:41:53Z</time></trkpt><trkpt lat="45.11928870720436" lon="10.687886864304868"><ele>24.0</ele><time>2026-04-24T08:41:54Z</time></trkpt><trkpt lat="45.11913877110854" lon="10.687827620111952"><ele>24.0</ele><time>2026-04-24T08:41:55Z</time></trkpt><trkpt lat="45.118979143627215" lon="10.687765715090203"><ele>23.0</ele><time>2026-04-24T08:41:56Z</time></trkpt><trkpt lat="45.11881839790645" lon="10.687703616304422"><ele>22.0</ele><time>2026-04-24T08:41:57Z</time></trkpt><trkpt lat="45.118652027492736" lon="10.68763934459254"><ele>21.0</ele><time>2026-04-24T08:41:58Z</time></trkpt><trkpt lat="45.11848111435373" lon="10.687573317967669"><ele>21.0</ele><time>2026-04-24T08:41:59Z</time></trkpt><trkpt lat="45.11830119103136" lon="10.687503810545444"><ele>21.0</ele><time>2026-04-24T08:42:00Z</time></trkpt><trkpt lat="45.11812375252014" lon="10.687435478432329"><ele>21.0</ele><time>2026-04-24T08:42:01Z</time></trkpt><trkpt lat="45.11794648274094" lon="10.687391719246587"><ele>20.666666666666668</ele><time>2026-04-24T08:42:02Z</time></trkpt><trkpt lat="45.11777576093929" lon="10.687325353960118"><ele>20.333333333333336</ele><time>2026-04-24T08:42:03Z</time></trkpt><trkpt lat="45.11760181438661" lon="10.687255660625528"><ele>20.0</ele><time>2026-04-24T08:42:04Z</time></trkpt><trkpt lat="45.1174217158385" lon="10.687186138331777"><ele>20.0</ele><time>2026-04-24T08:42:05Z</time></trkpt><trkpt lat="45.11724038351724" lon="10.68711166664928"><ele>20.0</ele><time>2026-04-24T08:42:06Z</time></trkpt><trkpt lat="45.11706051693222" lon="10.687043150768707"><ele>20.0</ele><time>2026-04-24T08:42:07Z</time></trkpt><trkpt lat="45.11688137734283" lon="10.686978270372471"><ele>20.0</ele><time>2026-04-24T08:42:08Z</time></trkpt><trkpt lat="45.11670274179809" lon="10.68691279065641"><ele>20.0</ele><time>2026-04-24T08:42:09Z</time></trkpt><trkpt lat="45.11652319963398" lon="10.686842081873676"><ele>20.0</ele><time>2026-04-24T08:42:10Z</time></trkpt><trkpt lat="45.11635949305755" lon="10.686775358066829"><ele>20.0</ele><time>2026-04-24T08:42:11Z</time></trkpt><trkpt lat="45.11620924674506" lon="10.686723646850673"><ele>20.0</ele><time>2026-04-24T08:42:12Z</time></trkpt><trkpt lat="45.11606911855552" lon="10.686671692638889"><ele>20.0</ele><time>2026-04-24T08:42:13Z</time></trkpt><trkpt lat="45.11594898004282" lon="10.686621866772676"><ele>20.0</ele><time>2026-04-24T08:42:14Z</time></trkpt><trkpt lat="45.11585246072394" lon="10.686588660630493"><ele>20.0</ele><time>2026-04-24T08:42:15Z</time></trkpt><trkpt lat="45.11578293709108" lon="10.686529391120734"><ele>20.0</ele><time>2026-04-24T08:42:16Z</time></trkpt><trkpt lat="45.115714889495834" lon="10.686394278788793"><ele>20.0</ele><time>2026-04-24T08:42:18Z</time></trkpt><trkpt lat="45.11572207241768" lon="10.686293964509396"><ele>20.0</ele><time>2026-04-24T08:42:19Z</time></trkpt><trkpt lat="45.115757031816955" lon="10.686162272835631"><ele>20.0</ele><time>2026-04-24T08:42:20Z</time></trkpt><trkpt lat="45.115790597016776" lon="10.685991508239695"><ele>20.0</ele><time>2026-04-24T08:42:21Z</time></trkpt><trkpt lat="45.11582446169603" lon="10.685812033361552"><ele>20.0</ele><time>2026-04-24T08:42:22Z</time></trkpt><trkpt lat="45.11585035411171" lon="10.685646101103696"><ele>20.0</ele><time>2026-04-24T08:42:23Z</time></trkpt><trkpt lat="45.11583321497652" lon="10.685494159112505"><ele>20.0</ele><time>2026-04-24T08:42:24Z</time></trkpt><trkpt lat="45.11580935775642" lon="10.685359605370829"><ele>19.8</ele><time>2026-04-24T08:42:25Z</time></trkpt><trkpt lat="45.11575707228811" lon="10.685242672552596"><ele>19.6</ele><time>2026-04-24T08:42:26Z</time></trkpt><trkpt lat="45.115672916606336" lon="10.685156820835905"><ele>19.4</ele><time>2026-04-24T08:42:27Z</time></trkpt><trkpt lat="45.1155674562566" lon="10.685107655538408"><ele>19.2</ele><time>2026-04-24T08:42:28Z</time></trkpt><trkpt lat="45.11543616850228" lon="10.685085549931014"><ele>19.0</ele><time>2026-04-24T08:42:29Z</time></trkpt><trkpt lat="45.11527855212314" lon="10.685065342758323"><ele>19.0</ele><time>2026-04-24T08:42:30Z</time></trkpt><trkpt lat="45.115103402180324" lon="10.685056011519869"><ele>19.0</ele><time>2026-04-24T08:42:31Z</time></trkpt><trkpt lat="45.114916764979384" lon="10.685039081696223"><ele>19.0</ele><time>2026-04-24T08:42:32Z</time></trkpt><trkpt lat="45.11472461764627" lon="10.68501189098074"><ele>19.0</ele><time>2026-04-24T08:42:33Z</time></trkpt><trkpt lat="45.11453564556419" lon="10.684990882774411"><ele>19.0</ele><time>2026-04-24T08:42:34Z</time></trkpt><trkpt lat="45.11434787810379" lon="10.684966952442796"><ele>19.0</ele><time>2026-04-24T08:42:35Z</time></trkpt><trkpt lat="45.114155570843565" lon="10.684944023516392"><ele>20.0</ele><time>2026-04-24T08:42:36Z</time></trkpt><trkpt lat="45.11395792446691" lon="10.68491872091636"><ele>21.0</ele><time>2026-04-24T08:42:37Z</time></trkpt><trkpt lat="45.113755355469074" lon="10.684889935555917"><ele>22.0</ele><time>2026-04-24T08:42:38Z</time></trkpt><trkpt lat="45.11355246063714" lon="10.684857573751657"><ele>22.0</ele><time>2026-04-24T08:42:39Z</time></trkpt><trkpt lat="45.113348362818705" lon="10.68482878140571"><ele>22.0</ele><time>2026-04-24T08:42:40Z</time></trkpt><trkpt lat="45.1131425086048" lon="10.684800758269109"><ele>22.0</ele><time>2026-04-24T08:42:41Z</time></trkpt><trkpt lat="45.11293400873566" lon="10.68477010300334"><ele>21.666666666666664</ele><time>2026-04-24T08:42:42Z</time></trkpt><trkpt lat="45.11272529658948" lon="10.684706289761905"><ele>21.333333333333332</ele><time>2026-04-24T08:42:43Z</time></trkpt><trkpt lat="45.11251285395037" lon="10.684654501396928"><ele>21.0</ele><time>2026-04-24T08:42:44Z</time></trkpt><trkpt lat="45.112301321163336" lon="10.684592827166211"><ele>21.0</ele><time>2026-04-24T08:42:45Z</time></trkpt><trkpt lat="45.112092430187126" lon="10.68452492279373"><ele>21.0</ele><time>2026-04-24T08:42:46Z</time></trkpt><trkpt lat="45.11188475019031" lon="10.684453715603283"><ele>21.0</ele><time>2026-04-24T08:42:47Z</time></trkpt><trkpt lat="45.111669514341656" lon="10.684398924776223"><ele>20.666666666666668</ele><time>2026-04-24T08:42:48Z</time></trkpt><trkpt lat="45.11145882860052" lon="10.684319713778539"><ele>20.333333333333336</ele><time>2026-04-24T08:42:49Z</time></trkpt><trkpt lat="45.11124690800472" lon="10.684242746876876"><ele>20.0</ele><time>2026-04-24T08:42:50Z</time></trkpt><trkpt lat="45.11103426680588" lon="10.684161992178533"><ele>20.0</ele><time>2026-04-24T08:42:51Z</time></trkpt><trkpt lat="45.1108189517958" lon="10.684082701798207"><ele>20.0</ele><time>2026-04-24T08:42:52Z</time></trkpt><trkpt lat="45.11060586356417" lon="10.684004246530767"><ele>20.0</ele><time>2026-04-24T08:42:53Z</time></trkpt><trkpt lat="45.110393558839704" lon="10.683923550981232"><ele>20.0</ele><time>2026-04-24T08:42:54Z</time></trkpt><trkpt lat="45.110181623014654" lon="10.683843475221146"><ele>20.0</ele><time>2026-04-24T08:42:55Z</time></trkpt><trkpt lat="45.109970792355085" lon="10.683766842634098"><ele>20.0</ele><time>2026-04-24T08:42:56Z</time></trkpt><trkpt lat="45.109758229557315" lon="10.683695287049293"><ele>20.0</ele><time>2026-04-24T08:42:57Z</time></trkpt><trkpt lat="45.10954518058102" lon="10.683620220756698"><ele>20.0</ele><time>2026-04-24T08:42:58Z</time></trkpt><trkpt lat="45.109332665383384" lon="10.68354468827473"><ele>20.0</ele><time>2026-04-24T08:42:59Z</time></trkpt><trkpt lat="45.109119256825444" lon="10.68346946464526"><ele>19.666666666666668</ele><time>2026-04-24T08:43:00Z</time></trkpt><trkpt lat="45.10891127270952" lon="10.683369890989917"><ele>19.333333333333332</ele><time>2026-04-24T08:43:01Z</time></trkpt><trkpt lat="45.10869734140776" lon="10.683293253477649"><ele>19.0</ele><time>2026-04-24T08:43:02Z</time></trkpt><trkpt lat="45.108483470514976" lon="10.683238883819874"><ele>19.0</ele><time>2026-04-24T08:43:03Z</time></trkpt><trkpt lat="45.10828706243904" lon="10.683169904986793"><ele>19.0</ele><time>2026-04-24T08:43:04Z</time></trkpt><trkpt lat="45.108105251977776" lon="10.683100376132547"><ele>19.0</ele><time>2026-04-24T08:43:05Z</time></trkpt><trkpt lat="45.10793314295265" lon="10.683041003884787"><ele>19.333333333333332</ele><time>2026-04-24T08:43:06Z</time></trkpt><trkpt lat="45.107771192726396" lon="10.682982597126491"><ele>19.666666666666668</ele><time>2026-04-24T08:43:07Z</time></trkpt><trkpt lat="45.10761573302167" lon="10.682923135691178"><ele>20.0</ele><time>2026-04-24T08:43:08Z</time></trkpt><trkpt lat="45.10745589081956" lon="10.682866577380294"><ele>19.666666666666668</ele><time>2026-04-24T08:43:09Z</time></trkpt><trkpt lat="45.10729767529799" lon="10.6828099918706"><ele>19.333333333333332</ele><time>2026-04-24T08:43:10Z</time></trkpt><trkpt lat="45.107151655540285" lon="10.682754360585252"><ele>19.0</ele><time>2026-04-24T08:43:11Z</time></trkpt><trkpt lat="45.107016663526814" lon="10.682700304186103"><ele>18.8</ele><time>2026-04-24T08:43:12Z</time></trkpt><trkpt lat="45.10689074311263" lon="10.682650522418358"><ele>18.599999999999998</ele><time>2026-04-24T08:43:13Z</time></trkpt><trkpt lat="45.1067829698274" lon="10.682614779857959"><ele>18.4</ele><time>2026-04-24T08:43:14Z</time></trkpt><trkpt lat="45.10669468653634" lon="10.682605550435264"><ele>18.2</ele><time>2026-04-24T08:43:15Z</time></trkpt><trkpt lat="45.10662197344674" lon="10.682637969859718"><ele>18.0</ele><time>2026-04-24T08:43:16Z</time></trkpt><trkpt lat="45.10656859842617" lon="10.682743187353498"><ele>18.25</ele><time>2026-04-24T08:43:17Z</time></trkpt><trkpt lat="45.10653616588909" lon="10.682888385048276"><ele>18.5</ele><time>2026-04-24T08:43:18Z</time></trkpt><trkpt lat="45.106512348025404" lon="10.683062962418951"><ele>18.75</ele><time>2026-04-24T08:43:19Z</time></trkpt><trkpt lat="45.10648227926778" lon="10.683250288680586"><ele>19.0</ele><time>2026-04-24T08:43:20Z</time></trkpt><trkpt lat="45.10644273938793" lon="10.68345351991885"><ele>19.333333333333332</ele><time>2026-04-24T08:43:21Z</time></trkpt><trkpt lat="45.10639995634106" lon="10.6836700921268"><ele>19.666666666666668</ele><time>2026-04-24T08:43:22Z</time></trkpt><trkpt lat="45.10635150853409" lon="10.683895570585152"><ele>20.0</ele><time>2026-04-24T08:43:23Z</time></trkpt><trkpt lat="45.10630373849034" lon="10.684119425986657"><ele>20.0</ele><time>2026-04-24T08:43:24Z</time></trkpt><trkpt lat="45.1062635428421" lon="10.684322235016117"><ele>20.0</ele><time>2026-04-24T08:43:25Z</time></trkpt><trkpt lat="45.106202506772235" lon="10.684500692051547"><ele>20.0</ele><time>2026-04-24T08:43:26Z</time></trkpt><trkpt lat="45.10614861321778" lon="10.684685558582617"><ele>20.0</ele><time>2026-04-24T08:43:27Z</time></trkpt><trkpt lat="45.10609183095141" lon="10.684863454336128"><ele>20.4</ele><time>2026-04-24T08:43:28Z</time></trkpt><trkpt lat="45.106050854058495" lon="10.68502630471803"><ele>20.8</ele><time>2026-04-24T08:43:29Z</time></trkpt><trkpt lat="45.10600496413356" lon="10.685164247240513"><ele>21.200000000000003</ele><time>2026-04-24T08:43:30Z</time></trkpt><trkpt lat="45.10596471690834" lon="10.685266184235134"><ele>21.6</ele><time>2026-04-24T08:43:31Z</time></trkpt><trkpt lat="45.105916078905324" lon="10.685386143535393"><ele>22.0</ele><time>2026-04-24T08:43:33Z</time></trkpt><trkpt lat="45.10588385172178" lon="10.685495690384315"><ele>22.200000000000003</ele><time>2026-04-24T08:43:36Z</time></trkpt><trkpt lat="45.10584147085305" lon="10.685567913554937"><ele>22.4</ele><time>2026-04-24T08:43:37Z</time></trkpt><trkpt lat="45.10579077956405" lon="10.685707986424394"><ele>22.6</ele><time>2026-04-24T08:43:38Z</time></trkpt><trkpt lat="45.1057503880083" lon="10.685884418721171"><ele>22.799999999999997</ele><time>2026-04-24T08:43:39Z</time></trkpt><trkpt lat="45.10568691550569" lon="10.686057747931452"><ele>23.0</ele><time>2026-04-24T08:43:40Z</time></trkpt><trkpt lat="45.10561980949596" lon="10.686240754006954"><ele>23.0</ele><time>2026-04-24T08:43:41Z</time></trkpt><trkpt lat="45.10555278557351" lon="10.686424258652037"><ele>23.0</ele><time>2026-04-24T08:43:42Z</time></trkpt><trkpt lat="45.10548224117743" lon="10.686614744811422"><ele>23.0</ele><time>2026-04-24T08:43:43Z</time></trkpt><trkpt lat="45.10541288668416" lon="10.686814824031051"><ele>22.333333333333336</ele><time>2026-04-24T08:43:44Z</time></trkpt><trkpt lat="45.1053390672795" lon="10.687020808585128"><ele>21.666666666666668</ele><time>2026-04-24T08:43:45Z</time></trkpt><trkpt lat="45.1052627555793" lon="10.687230425215601"><ele>21.0</ele><time>2026-04-24T08:43:46Z</time></trkpt><trkpt lat="45.10518917003435" lon="10.687439650737229"><ele>21.0</ele><time>2026-04-24T08:43:47Z</time></trkpt><trkpt lat="45.105118586567" lon="10.687642296626697"><ele>21.0</ele><time>2026-04-24T08:43:48Z</time></trkpt><trkpt lat="45.10505185792717" lon="10.687820891369423"><ele>21.0</ele><time>2026-04-24T08:43:49Z</time></trkpt><trkpt lat="45.10498617067303" lon="10.687984107362476"><ele>21.0</ele><time>2026-04-24T08:43:50Z</time></trkpt><trkpt lat="45.10489937454665" lon="10.688131744813283"><ele>20.666666666666668</ele><time>2026-04-24T08:43:51Z</time></trkpt><trkpt lat="45.10479095412746" lon="10.68825893058267"><ele>20.333333333333336</ele><time>2026-04-24T08:43:52Z</time></trkpt><trkpt lat="45.104654072593426" lon="10.688345042309628"><ele>20.0</ele><time>2026-04-24T08:43:53Z</time></trkpt><trkpt lat="45.10449633516662" lon="10.688413080702693"><ele>20.0</ele><time>2026-04-24T08:43:54Z</time></trkpt><trkpt lat="45.10433011723725" lon="10.688468111300491"><ele>20.0</ele><time>2026-04-24T08:43:55Z</time></trkpt><trkpt lat="45.104157833703816" lon="10.688537541756274"><ele>20.0</ele><time>2026-04-24T08:43:56Z</time></trkpt><trkpt lat="45.10397708071088" lon="10.688611914686213"><ele>20.0</ele><time>2026-04-24T08:43:57Z</time></trkpt><trkpt lat="45.10379875621409" lon="10.688684615396602"><ele>20.0</ele><time>2026-04-24T08:43:58Z</time></trkpt><trkpt lat="45.10361805697859" lon="10.688760762464053"><ele>20.0</ele><time>2026-04-24T08:43:59Z</time></trkpt><trkpt lat="45.10343322454389" lon="10.688845393804097"><ele>20.333333333333336</ele><time>2026-04-24T08:44:00Z</time></trkpt><trkpt lat="45.10324463235807" lon="10.688930748902632"><ele>20.666666666666668</ele><time>2026-04-24T08:44:01Z</time></trkpt><trkpt lat="45.103050642563005" lon="10.689015098388008"><ele>21.0</ele><time>2026-04-24T08:44:02Z</time></trkpt><trkpt lat="45.10285550459001" lon="10.689103110564792"><ele>21.0</ele><time>2026-04-24T08:44:03Z</time></trkpt><trkpt lat="45.10265915399663" lon="10.68919614663151"><ele>21.0</ele><time>2026-04-24T08:44:04Z</time></trkpt><trkpt lat="45.10246355033078" lon="10.689285270155198"><ele>21.0</ele><time>2026-04-24T08:44:05Z</time></trkpt><trkpt lat="45.1022666235261" lon="10.689374777040037"><ele>20.0</ele><time>2026-04-24T08:44:06Z</time></trkpt><trkpt lat="45.10206858701562" lon="10.689468750670471"><ele>19.0</ele><time>2026-04-24T08:44:07Z</time></trkpt><trkpt lat="45.101869079379355" lon="10.68956140643484"><ele>18.0</ele><time>2026-04-24T08:44:08Z</time></trkpt><trkpt lat="45.10167290189003" lon="10.689653484849702"><ele>18.333333333333332</ele><time>2026-04-24T08:44:09Z</time></trkpt><trkpt lat="45.10148048287208" lon="10.689742485616126"><ele>18.666666666666664</ele><time>2026-04-24T08:44:10Z</time></trkpt><trkpt lat="45.10129822929819" lon="10.689822709548006"><ele>19.0</ele><time>2026-04-24T08:44:11Z</time></trkpt><trkpt lat="45.101131058323" lon="10.689902442952379"><ele>19.0</ele><time>2026-04-24T08:44:12Z</time></trkpt><trkpt lat="45.10096688397299" lon="10.689972536076782"><ele>19.0</ele><time>2026-04-24T08:44:13Z</time></trkpt><trkpt lat="45.10080581977354" lon="10.690022145571122"><ele>19.0</ele><time>2026-04-24T08:44:14Z</time></trkpt><trkpt lat="45.10063702160246" lon="10.690048236691707"><ele>18.666666666666664</ele><time>2026-04-24T08:44:15Z</time></trkpt><trkpt lat="45.100458407038154" lon="10.690046644828062"><ele>18.333333333333332</ele><time>2026-04-24T08:44:16Z</time></trkpt><trkpt lat="45.10027560870876" lon="10.689980082568951"><ele>18.0</ele><time>2026-04-24T08:44:17Z</time></trkpt><trkpt lat="45.10008555655586" lon="10.689968029110283"><ele>18.333333333333332</ele><time>2026-04-24T08:44:18Z</time></trkpt><trkpt lat="45.099889731311386" lon="10.689958252946706"><ele>18.666666666666664</ele><time>2026-04-24T08:44:19Z</time></trkpt><trkpt lat="45.09969155645067" lon="10.68994708148907"><ele>19.0</ele><time>2026-04-24T08:44:20Z</time></trkpt><trkpt lat="45.099493824186375" lon="10.689934581537008"><ele>19.0</ele><time>2026-04-24T08:44:21Z</time></trkpt><trkpt lat="45.09930596397049" lon="10.689953873568347"><ele>19.0</ele><time>2026-04-24T08:44:22Z</time></trkpt><trkpt lat="45.099113040574764" lon="10.689965371721566"><ele>19.0</ele><time>2026-04-24T08:44:23Z</time></trkpt><trkpt lat="45.098920028737226" lon="10.690008232766028"><ele>19.666666666666664</ele><time>2026-04-24T08:44:24Z</time></trkpt><trkpt lat="45.098734685418584" lon="10.6900839525839"><ele>20.333333333333332</ele><time>2026-04-24T08:44:25Z</time></trkpt><trkpt lat="45.09856793645045" lon="10.690170078869613"><ele>21.0</ele><time>2026-04-24T08:44:26Z</time></trkpt><trkpt lat="45.098424301934294" lon="10.690261755955651"><ele>21.0</ele><time>2026-04-24T08:44:27Z</time></trkpt><trkpt lat="45.098289638168296" lon="10.69033561762826"><ele>21.0</ele><time>2026-04-24T08:44:28Z</time></trkpt><trkpt lat="45.09816002946157" lon="10.690344599387014"><ele>21.0</ele><time>2026-04-24T08:44:29Z</time></trkpt><trkpt lat="45.09804055036204" lon="10.690335277872517"><ele>21.0</ele><time>2026-04-24T08:44:30Z</time></trkpt><trkpt lat="45.09791660929138" lon="10.690311810366456"><ele>21.0</ele><time>2026-04-24T08:44:31Z</time></trkpt><trkpt lat="45.09777808166713" lon="10.690284720325428"><ele>21.0</ele><time>2026-04-24T08:44:32Z</time></trkpt><trkpt lat="45.09762796875189" lon="10.690255177881738"><ele>21.0</ele><time>2026-04-24T08:44:33Z</time></trkpt><trkpt lat="45.09747105696561" lon="10.69022392417721"><ele>21.333333333333332</ele><time>2026-04-24T08:44:34Z</time></trkpt><trkpt lat="45.0973114241123" lon="10.690190997890282"><ele>21.666666666666664</ele><time>2026-04-24T08:44:35Z</time></trkpt><trkpt lat="45.09715524162359" lon="10.690155802675251"><ele>22.0</ele><time>2026-04-24T08:44:36Z</time></trkpt><trkpt lat="45.097006593336275" lon="10.690116784880756"><ele>22.0</ele><time>2026-04-24T08:44:37Z</time></trkpt><trkpt lat="45.096853707524986" lon="10.690066774057474"><ele>22.0</ele><time>2026-04-24T08:44:38Z</time></trkpt><trkpt lat="45.096699809555986" lon="10.6899853746547"><ele>22.0</ele><time>2026-04-24T08:44:39Z</time></trkpt><trkpt lat="45.0965427990391" lon="10.689894410266673"><ele>22.0</ele><time>2026-04-24T08:44:40Z</time></trkpt><trkpt lat="45.09639195322951" lon="10.689803946994415"><ele>22.0</ele><time>2026-04-24T08:44:41Z</time></trkpt><trkpt lat="45.09624011737524" lon="10.689720742467019"><ele>22.0</ele><time>2026-04-24T08:44:42Z</time></trkpt><trkpt lat="45.09608743977613" lon="10.689677113030388"><ele>22.0</ele><time>2026-04-24T08:44:43Z</time></trkpt><trkpt lat="45.09595608819396" lon="10.68962246460728"><ele>22.0</ele><time>2026-04-24T08:44:44Z</time></trkpt><trkpt lat="45.09582948561329" lon="10.689583604303863"><ele>22.0</ele><time>2026-04-24T08:44:45Z</time></trkpt><trkpt lat="45.095719345798756" lon="10.689574396459072"><ele>22.0</ele><time>2026-04-24T08:44:46Z</time></trkpt><trkpt lat="45.09564034749949" lon="10.689615362347826"><ele>22.0</ele><time>2026-04-24T08:44:47Z</time></trkpt><trkpt lat="45.09557078375286" lon="10.689691503299834"><ele>22.0</ele><time>2026-04-24T08:44:49Z</time></trkpt><trkpt lat="45.09558823246896" lon="10.689825264290894"><ele>22.0</ele><time>2026-04-24T08:44:52Z</time></trkpt><trkpt lat="45.09560946165442" lon="10.689920049218289"><ele>22.0</ele><time>2026-04-24T08:44:53Z</time></trkpt><trkpt lat="45.095630055530236" lon="10.690031953083382"><ele>22.0</ele><time>2026-04-24T08:44:54Z</time></trkpt><trkpt lat="45.09566975433586" lon="10.690171160956668"><ele>22.0</ele><time>2026-04-24T08:44:55Z</time></trkpt><trkpt lat="45.09571287744997" lon="10.690323467142232"><ele>22.0</ele><time>2026-04-24T08:44:56Z</time></trkpt><trkpt lat="45.09576892243303" lon="10.690499102645775"><ele>22.0</ele><time>2026-04-24T08:44:57Z</time></trkpt><trkpt lat="45.0958314326599" lon="10.690681906657936"><ele>22.0</ele><time>2026-04-24T08:44:58Z</time></trkpt><trkpt lat="45.0958900086935" lon="10.690862391763057"><ele>22.0</ele><time>2026-04-24T08:44:59Z</time></trkpt><trkpt lat="45.0959509273375" lon="10.69104264205716"><ele>21.75</ele><time>2026-04-24T08:45:00Z</time></trkpt><trkpt lat="45.09601710460995" lon="10.691229501349634"><ele>21.5</ele><time>2026-04-24T08:45:01Z</time></trkpt><trkpt lat="45.09608075089709" lon="10.691419504775686"><ele>21.25</ele><time>2026-04-24T08:45:02Z</time></trkpt><trkpt lat="45.09614373028827" lon="10.691614831157887"><ele>21.0</ele><time>2026-04-24T08:45:03Z</time></trkpt><trkpt lat="45.09621088244656" lon="10.691814026850384"><ele>21.0</ele><time>2026-04-24T08:45:04Z</time></trkpt><trkpt lat="45.096277095150306" lon="10.692011656375994"><ele>21.0</ele><time>2026-04-24T08:45:05Z</time></trkpt><trkpt lat="45.09634635895191" lon="10.692210624002026"><ele>21.0</ele><time>2026-04-24T08:45:06Z</time></trkpt><trkpt lat="45.096413936793326" lon="10.69241575483721"><ele>21.0</ele><time>2026-04-24T08:45:07Z</time></trkpt><trkpt lat="45.09648154628779" lon="10.692621857275917"><ele>21.0</ele><time>2026-04-24T08:45:08Z</time></trkpt><trkpt lat="45.09654892943983" lon="10.692820576215786"><ele>21.0</ele><time>2026-04-24T08:45:09Z</time></trkpt><trkpt lat="45.096620106934935" lon="10.693028664634365"><ele>21.333333333333332</ele><time>2026-04-24T08:45:10Z</time></trkpt><trkpt lat="45.09669118727489" lon="10.693239505817"><ele>21.666666666666664</ele><time>2026-04-24T08:45:11Z</time></trkpt><trkpt lat="45.096763689823206" lon="10.693453923381385"><ele>22.0</ele><time>2026-04-24T08:45:12Z</time></trkpt><trkpt lat="45.09683801440767" lon="10.693671107278282"><ele>21.0</ele><time>2026-04-24T08:45:13Z</time></trkpt><trkpt lat="45.096892947782834" lon="10.693900718161649"><ele>20.0</ele><time>2026-04-24T08:45:14Z</time></trkpt><trkpt lat="45.09696280949372" lon="10.694119089765694"><ele>19.0</ele><time>2026-04-24T08:45:15Z</time></trkpt><trkpt lat="45.09703314359038" lon="10.694336024320124"><ele>19.333333333333332</ele><time>2026-04-24T08:45:16Z</time></trkpt><trkpt lat="45.09710467496004" lon="10.69455665193114"><ele>19.666666666666668</ele><time>2026-04-24T08:45:17Z</time></trkpt><trkpt lat="45.09718993584078" lon="10.694768570695743"><ele>20.0</ele><time>2026-04-24T08:45:18Z</time></trkpt><trkpt lat="45.09726080394076" lon="10.694991518917314"><ele>20.0</ele><time>2026-04-24T08:45:19Z</time></trkpt><trkpt lat="45.09733031503756" lon="10.695206300443092"><ele>20.0</ele><time>2026-04-24T08:45:20Z</time></trkpt><trkpt lat="45.09739735084784" lon="10.695417742350804"><ele>20.0</ele><time>2026-04-24T08:45:21Z</time></trkpt><trkpt lat="45.09746005747034" lon="10.695626115462577"><ele>20.0</ele><time>2026-04-24T08:45:22Z</time></trkpt><trkpt lat="45.09752007599046" lon="10.695826369695514"><ele>20.0</ele><time>2026-04-24T08:45:23Z</time></trkpt><trkpt lat="45.09757819447096" lon="10.696004185606384"><ele>20.0</ele><time>2026-04-24T08:45:24Z</time></trkpt><trkpt lat="45.09763027120377" lon="10.696167735764432"><ele>20.0</ele><time>2026-04-24T08:45:25Z</time></trkpt><trkpt lat="45.09767985122654" lon="10.696321838959072"><ele>20.0</ele><time>2026-04-24T08:45:26Z</time></trkpt><trkpt lat="45.09773005845557" lon="10.69646599661488"><ele>20.0</ele><time>2026-04-24T08:45:27Z</time></trkpt><trkpt lat="45.09778671142171" lon="10.696625578356844"><ele>20.0</ele><time>2026-04-24T08:45:28Z</time></trkpt><trkpt lat="45.09783341377984" lon="10.696813373213505"><ele>20.0</ele><time>2026-04-24T08:45:29Z</time></trkpt><trkpt lat="45.097894644194355" lon="10.697003828852113"><ele>19.666666666666668</ele><time>2026-04-24T08:45:30Z</time></trkpt><trkpt lat="45.0979567746956" lon="10.697196053410051"><ele>19.333333333333332</ele><time>2026-04-24T08:45:31Z</time></trkpt><trkpt lat="45.09803237381662" lon="10.69739443723911"><ele>19.0</ele><time>2026-04-24T08:45:32Z</time></trkpt><trkpt lat="45.098097254066325" lon="10.697608618789841"><ele>19.333333333333332</ele><time>2026-04-24T08:45:33Z</time></trkpt><trkpt lat="45.09816323253299" lon="10.697828717522443"><ele>19.666666666666668</ele><time>2026-04-24T08:45:34Z</time></trkpt><trkpt lat="45.098238171676655" lon="10.69804969952628"><ele>20.0</ele><time>2026-04-24T08:45:35Z</time></trkpt><trkpt lat="45.09830763410213" lon="10.698264908705163"><ele>19.666666666666668</ele><time>2026-04-24T08:45:36Z</time></trkpt><trkpt lat="45.098379402798635" lon="10.69848772315546"><ele>19.333333333333332</ele><time>2026-04-24T08:45:37Z</time></trkpt><trkpt lat="45.09845291285703" lon="10.698713238214141"><ele>19.0</ele><time>2026-04-24T08:45:38Z</time></trkpt><trkpt lat="45.09852932424053" lon="10.698941185444678"><ele>19.0</ele><time>2026-04-24T08:45:39Z</time></trkpt><trkpt lat="45.09860330821935" lon="10.69917416050942"><ele>19.0</ele><time>2026-04-24T08:45:40Z</time></trkpt><trkpt lat="45.098678209089066" lon="10.699414478177117"><ele>19.0</ele><time>2026-04-24T08:45:41Z</time></trkpt><trkpt lat="45.09875441776441" lon="10.699660748273462"><ele>19.333333333333332</ele><time>2026-04-24T08:45:42Z</time></trkpt><trkpt lat="45.09883560682995" lon="10.699915979521204"><ele>19.666666666666668</ele><time>2026-04-24T08:45:43Z</time></trkpt><trkpt lat="45.098921200646544" lon="10.700177111610953"><ele>20.0</ele><time>2026-04-24T08:45:44Z</time></trkpt><trkpt lat="45.09900676827539" lon="10.700444824174015"><ele>19.666666666666668</ele><time>2026-04-24T08:45:45Z</time></trkpt><trkpt lat="45.09909380231439" lon="10.700713916898353"><ele>19.333333333333332</ele><time>2026-04-24T08:45:46Z</time></trkpt><trkpt lat="45.099181206959045" lon="10.700990795440568"><ele>19.0</ele><time>2026-04-24T08:45:47Z</time></trkpt><trkpt lat="45.099269265741846" lon="10.70126460732907"><ele>19.0</ele><time>2026-04-24T08:45:48Z</time></trkpt><trkpt lat="45.099358581102436" lon="10.7015336520956"><ele>19.0</ele><time>2026-04-24T08:45:49Z</time></trkpt><trkpt lat="45.099448066408485" lon="10.701805045082597"><ele>19.0</ele><time>2026-04-24T08:45:50Z</time></trkpt><trkpt lat="45.099537135827276" lon="10.702076267044138"><ele>18.666666666666664</ele><time>2026-04-24T08:45:51Z</time></trkpt><trkpt lat="45.09962613196305" lon="10.702348375670631"><ele>18.333333333333332</ele><time>2026-04-24T08:45:52Z</time></trkpt><trkpt lat="45.099714084329094" lon="10.7026199969286"><ele>18.0</ele><time>2026-04-24T08:45:53Z</time></trkpt><trkpt lat="45.099798600945185" lon="10.702883089714625"><ele>18.0</ele><time>2026-04-24T08:45:54Z</time></trkpt><trkpt lat="45.09988164465764" lon="10.703140988079836"><ele>18.0</ele><time>2026-04-24T08:45:55Z</time></trkpt><trkpt lat="45.09996151972792" lon="10.70339311800594"><ele>18.0</ele><time>2026-04-24T08:45:56Z</time></trkpt><trkpt lat="45.100040616668736" lon="10.70362258984439"><ele>17.666666666666668</ele><time>2026-04-24T08:45:57Z</time></trkpt><trkpt lat="45.100113461277274" lon="10.703847151032711"><ele>17.333333333333336</ele><time>2026-04-24T08:45:58Z</time></trkpt><trkpt lat="45.10018502142769" lon="10.704073938867488"><ele>17.0</ele><time>2026-04-24T08:45:59Z</time></trkpt><trkpt lat="45.10025248418445" lon="10.70429991080318"><ele>17.0</ele><time>2026-04-24T08:46:00Z</time></trkpt><trkpt lat="45.100324667711256" lon="10.704521797267889"><ele>17.0</ele><time>2026-04-24T08:46:01Z</time></trkpt><trkpt lat="45.10039353039828" lon="10.704732365157248"><ele>17.0</ele><time>2026-04-24T08:46:02Z</time></trkpt><trkpt lat="45.100461268666535" lon="10.704931421435314"><ele>17.0</ele><time>2026-04-24T08:46:03Z</time></trkpt><trkpt lat="45.10052831180025" lon="10.705130516519072"><ele>17.0</ele><time>2026-04-24T08:46:04Z</time></trkpt><trkpt lat="45.10058956278446" lon="10.705316408983725"><ele>17.0</ele><time>2026-04-24T08:46:05Z</time></trkpt><trkpt lat="45.100646702175204" lon="10.705486127603878"><ele>17.0</ele><time>2026-04-24T08:46:06Z</time></trkpt><trkpt lat="45.10069600558877" lon="10.705645201171437"><ele>17.6</ele><time>2026-04-24T08:46:07Z</time></trkpt><trkpt lat="45.10074358416876" lon="10.705795977220758"><ele>18.2</ele><time>2026-04-24T08:46:08Z</time></trkpt><trkpt lat="45.1007784913559" lon="10.705915146530314"><ele>18.8</ele><time>2026-04-24T08:46:09Z</time></trkpt><trkpt lat="45.10077806570777" lon="10.70604457142058"><ele>19.4</ele><time>2026-04-24T08:46:11Z</time></trkpt><trkpt lat="45.10065778942034" lon="10.706147113526999"><ele>20.0</ele><time>2026-04-24T08:46:13Z</time></trkpt><trkpt lat="45.10055892840956" lon="10.70616200580259"><ele>20.75</ele><time>2026-04-24T08:46:14Z</time></trkpt><trkpt lat="45.10045215504026" lon="10.70611419736627"><ele>21.5</ele><time>2026-04-24T08:46:15Z</time></trkpt><trkpt lat="45.1003354399211" lon="10.706136230624978"><ele>22.25</ele><time>2026-04-24T08:46:16Z</time></trkpt><trkpt lat="45.10020986782583" lon="10.70613467297814"><ele>23.0</ele><time>2026-04-24T08:46:17Z</time></trkpt><trkpt lat="45.100076485510456" lon="10.706162908573688"><ele>23.0</ele><time>2026-04-24T08:46:18Z</time></trkpt><trkpt lat="45.09993331072504" lon="10.70619823902701"><ele>23.0</ele><time>2026-04-24T08:46:19Z</time></trkpt><trkpt lat="45.099791377280546" lon="10.706242386583227"><ele>23.0</ele><time>2026-04-24T08:46:20Z</time></trkpt><trkpt lat="45.09964737376366" lon="10.706290734245748"><ele>23.0</ele><time>2026-04-24T08:46:21Z</time></trkpt><trkpt lat="45.09949525566357" lon="10.706347044260605"><ele>23.0</ele><time>2026-04-24T08:46:22Z</time></trkpt><trkpt lat="45.099339469614954" lon="10.706401733744718"><ele>23.0</ele><time>2026-04-24T08:46:23Z</time></trkpt><trkpt lat="45.09918703953638" lon="10.706456787947014"><ele>23.0</ele><time>2026-04-24T08:46:24Z</time></trkpt><trkpt lat="45.099040675213395" lon="10.706510185512354"><ele>22.5</ele><time>2026-04-24T08:46:25Z</time></trkpt><trkpt lat="45.098898971530346" lon="10.706559630095962"><ele>22.0</ele><time>2026-04-24T08:46:26Z</time></trkpt><trkpt lat="45.0987708463039" lon="10.706604307729782"><ele>21.5</ele><time>2026-04-24T08:46:27Z</time></trkpt><trkpt lat="45.09864567279358" lon="10.70664310495562"><ele>21.0</ele><time>2026-04-24T08:46:28Z</time></trkpt><trkpt lat="45.09853347090326" lon="10.70667329830242"><ele>21.0</ele><time>2026-04-24T08:46:29Z</time></trkpt><trkpt lat="45.09843941610721" lon="10.70669632507289"><ele>21.0</ele><time>2026-04-24T08:46:30Z</time></trkpt><trkpt lat="45.098363484413085" lon="10.706712252899031"><ele>21.0</ele><time>2026-04-24T08:46:31Z</time></trkpt><trkpt lat="45.09825549349161" lon="10.706709026811376"><ele>21.0</ele><time>2026-04-24T08:46:33Z</time></trkpt><trkpt lat="45.0981858027742" lon="10.706643112897389"><ele>21.0</ele><time>2026-04-24T08:47:00Z</time></trkpt><trkpt lat="45.09811115110415" lon="10.706650093664372"><ele>21.0</ele><time>2026-04-24T08:47:01Z</time></trkpt><trkpt lat="45.09803524823885" lon="10.706648259575642"><ele>20.8</ele><time>2026-04-24T08:47:02Z</time></trkpt><trkpt lat="45.09795662034751" lon="10.706663710303335"><ele>20.6</ele><time>2026-04-24T08:47:03Z</time></trkpt><trkpt lat="45.09786634096501" lon="10.706682178802897"><ele>20.4</ele><time>2026-04-24T08:47:04Z</time></trkpt><trkpt lat="45.097765861972825" lon="10.706709583100213"><ele>20.2</ele><time>2026-04-24T08:47:05Z</time></trkpt><trkpt lat="45.0976559420298" lon="10.70674429021728"><ele>20.0</ele><time>2026-04-24T08:47:06Z</time></trkpt><trkpt lat="45.09753271861746" lon="10.706757783128861"><ele>20.0</ele><time>2026-04-24T08:47:07Z</time></trkpt><trkpt lat="45.09739931318271" lon="10.70677137421869"><ele>20.0</ele><time>2026-04-24T08:47:08Z</time></trkpt><trkpt lat="45.09726184501733" lon="10.70678807660246"><ele>20.0</ele><time>2026-04-24T08:47:09Z</time></trkpt><trkpt lat="45.09710765811439" lon="10.706793104880813"><ele>20.0</ele><time>2026-04-24T08:47:10Z</time></trkpt><trkpt lat="45.09694990960953" lon="10.7067906967842"><ele>20.0</ele><time>2026-04-24T08:47:11Z</time></trkpt><trkpt lat="45.09678516337998" lon="10.706784771181352"><ele>20.0</ele><time>2026-04-24T08:47:12Z</time></trkpt><trkpt lat="45.096634545539274" lon="10.706781037148103"><ele>20.0</ele><time>2026-04-24T08:47:13Z</time></trkpt><trkpt lat="45.09650410017066" lon="10.706778979641285"><ele>20.0</ele><time>2026-04-24T08:47:14Z</time></trkpt><trkpt lat="45.09638025450474" lon="10.706779847712532"><ele>20.0</ele><time>2026-04-24T08:47:15Z</time></trkpt><trkpt lat="45.096251191726225" lon="10.706764643831699"><ele>20.0</ele><time>2026-04-24T08:47:16Z</time></trkpt><trkpt lat="45.0961141790224" lon="10.70674736510962"><ele>20.0</ele><time>2026-04-24T08:47:17Z</time></trkpt><trkpt lat="45.09597708022123" lon="10.706712161687946"><ele>20.0</ele><time>2026-04-24T08:47:18Z</time></trkpt><trkpt lat="45.0958211665464" lon="10.70672499983315"><ele>19.75</ele><time>2026-04-24T08:47:19Z</time></trkpt><trkpt lat="45.09567786009201" lon="10.706718891752107"><ele>19.5</ele><time>2026-04-24T08:47:20Z</time></trkpt><trkpt lat="45.09553325507165" lon="10.706716763679772"><ele>19.25</ele><time>2026-04-24T08:47:21Z</time></trkpt><trkpt lat="45.09538304236382" lon="10.70671826004739"><ele>19.0</ele><time>2026-04-24T08:47:22Z</time></trkpt><trkpt lat="45.095224419438615" lon="10.706725396916063"><ele>19.0</ele><time>2026-04-24T08:47:23Z</time></trkpt><trkpt lat="45.09506075782076" lon="10.706752155040173"><ele>19.0</ele><time>2026-04-24T08:47:24Z</time></trkpt><trkpt lat="45.09488264703698" lon="10.706805419069799"><ele>19.0</ele><time>2026-04-24T08:47:25Z</time></trkpt><trkpt lat="45.09469703650215" lon="10.706879893489377"><ele>19.333333333333332</ele><time>2026-04-24T08:47:26Z</time></trkpt><trkpt lat="45.09450044343467" lon="10.70694878183327"><ele>19.666666666666668</ele><time>2026-04-24T08:47:27Z</time></trkpt><trkpt lat="45.09429697617542" lon="10.707027143212084"><ele>20.0</ele><time>2026-04-24T08:47:28Z</time></trkpt><trkpt lat="45.09409598979106" lon="10.707100060733719"><ele>20.0</ele><time>2026-04-24T08:47:29Z</time></trkpt><trkpt lat="45.09389050698646" lon="10.707166828983066"><ele>20.0</ele><time>2026-04-24T08:47:30Z</time></trkpt><trkpt lat="45.09367875536299" lon="10.707218328561467"><ele>20.0</ele><time>2026-04-24T08:47:31Z</time></trkpt><trkpt lat="45.09347219259767" lon="10.707265936304868"><ele>20.0</ele><time>2026-04-24T08:47:32Z</time></trkpt><trkpt lat="45.09327300597308" lon="10.707316854218835"><ele>20.0</ele><time>2026-04-24T08:47:33Z</time></trkpt><trkpt lat="45.09307959014627" lon="10.707334993652529"><ele>20.0</ele><time>2026-04-24T08:47:34Z</time></trkpt><trkpt lat="45.092896665425904" lon="10.707394780472006"><ele>20.333333333333336</ele><time>2026-04-24T08:47:35Z</time></trkpt><trkpt lat="45.09271492375085" lon="10.707395645449814"><ele>20.666666666666668</ele><time>2026-04-24T08:47:36Z</time></trkpt><trkpt lat="45.09253778853878" lon="10.707397982882023"><ele>21.0</ele><time>2026-04-24T08:47:37Z</time></trkpt><trkpt lat="45.09235699608663" lon="10.707382757805448"><ele>21.333333333333332</ele><time>2026-04-24T08:47:38Z</time></trkpt><trkpt lat="45.09217033798891" lon="10.707352916767181"><ele>21.666666666666664</ele><time>2026-04-24T08:47:39Z</time></trkpt><trkpt lat="45.091977285438745" lon="10.707326034311777"><ele>22.0</ele><time>2026-04-24T08:47:40Z</time></trkpt><trkpt lat="45.091794514925084" lon="10.707335856498506"><ele>22.0</ele><time>2026-04-24T08:47:41Z</time></trkpt><trkpt lat="45.09161345302446" lon="10.707333432784266"><ele>22.0</ele><time>2026-04-24T08:47:42Z</time></trkpt><trkpt lat="45.091421501665465" lon="10.707359339536664"><ele>22.0</ele><time>2026-04-24T08:47:43Z</time></trkpt><trkpt lat="45.09122431219846" lon="10.707407857206649"><ele>21.333333333333332</ele><time>2026-04-24T08:47:44Z</time></trkpt><trkpt lat="45.091019664634416" lon="10.707455182754597"><ele>20.666666666666668</ele><time>2026-04-24T08:47:45Z</time></trkpt><trkpt lat="45.090808645860754" lon="10.70750568242325"><ele>20.0</ele><time>2026-04-24T08:47:46Z</time></trkpt><trkpt lat="45.09059588043537" lon="10.707522518561138"><ele>20.0</ele><time>2026-04-24T08:47:47Z</time></trkpt><trkpt lat="45.09038507953643" lon="10.707552494462178"><ele>20.0</ele><time>2026-04-24T08:47:48Z</time></trkpt><trkpt lat="45.09017867189951" lon="10.707581575364808"><ele>20.0</ele><time>2026-04-24T08:47:49Z</time></trkpt><trkpt lat="45.08997308641469" lon="10.70760694280461"><ele>19.333333333333336</ele><time>2026-04-24T08:47:50Z</time></trkpt><trkpt lat="45.089772403883266" lon="10.707631705278398"><ele>18.666666666666668</ele><time>2026-04-24T08:47:51Z</time></trkpt><trkpt lat="45.08957057986789" lon="10.707663558451475"><ele>18.0</ele><time>2026-04-24T08:47:52Z</time></trkpt><trkpt lat="45.08936980195176" lon="10.707726241607332"><ele>18.666666666666668</ele><time>2026-04-24T08:47:53Z</time></trkpt><trkpt lat="45.08916270215921" lon="10.70778209665689"><ele>19.333333333333336</ele><time>2026-04-24T08:47:54Z</time></trkpt><trkpt lat="45.08895975353726" lon="10.707857263206451"><ele>20.0</ele><time>2026-04-24T08:47:55Z</time></trkpt><trkpt lat="45.08875575700983" lon="10.7079374147659"><ele>20.333333333333336</ele><time>2026-04-24T08:47:56Z</time></trkpt><trkpt lat="45.08855089567823" lon="10.708022331739395"><ele>20.666666666666668</ele><time>2026-04-24T08:47:57Z</time></trkpt><trkpt lat="45.088350489721435" lon="10.708123507068823"><ele>21.0</ele><time>2026-04-24T08:47:58Z</time></trkpt><trkpt lat="45.08814497886038" lon="10.708222175244948"><ele>20.666666666666668</ele><time>2026-04-24T08:47:59Z</time></trkpt><trkpt lat="45.08794817110921" lon="10.708336502653733"><ele>20.333333333333336</ele><time>2026-04-24T08:48:00Z</time></trkpt><trkpt lat="45.08774910169613" lon="10.708459930912978"><ele>20.0</ele><time>2026-04-24T08:48:01Z</time></trkpt><trkpt lat="45.087553587601455" lon="10.708594964748414"><ele>19.333333333333336</ele><time>2026-04-24T08:48:02Z</time></trkpt><trkpt lat="45.087353880723235" lon="10.708723589692385"><ele>18.666666666666668</ele><time>2026-04-24T08:48:03Z</time></trkpt><trkpt lat="45.087159305975725" lon="10.708849264545107"><ele>18.0</ele><time>2026-04-24T08:48:04Z</time></trkpt><trkpt lat="45.08696343225" lon="10.70897565545954"><ele>18.0</ele><time>2026-04-24T08:48:05Z</time></trkpt><trkpt lat="45.086771485208885" lon="10.709110680145509"><ele>18.0</ele><time>2026-04-24T08:48:06Z</time></trkpt><trkpt lat="45.08657818881341" lon="10.709246412564667"><ele>18.0</ele><time>2026-04-24T08:48:07Z</time></trkpt><trkpt lat="45.08638493070712" lon="10.709386466890614"><ele>18.666666666666668</ele><time>2026-04-24T08:48:08Z</time></trkpt><trkpt lat="45.0861958562497" lon="10.70953112563934"><ele>19.333333333333336</ele><time>2026-04-24T08:48:09Z</time></trkpt><trkpt lat="45.08601979686923" lon="10.709672530187893"><ele>20.0</ele><time>2026-04-24T08:48:10Z</time></trkpt><trkpt lat="45.085855153976816" lon="10.709801521954901"><ele>19.333333333333336</ele><time>2026-04-24T08:48:11Z</time></trkpt><trkpt lat="45.085694558240704" lon="10.709930224529304"><ele>18.666666666666668</ele><time>2026-04-24T08:48:12Z</time></trkpt><trkpt lat="45.08553897189929" lon="10.710058260733009"><ele>18.0</ele><time>2026-04-24T08:48:13Z</time></trkpt><trkpt lat="45.08539084272102" lon="10.710202355729614"><ele>18.333333333333332</ele><time>2026-04-24T08:48:14Z</time></trkpt><trkpt lat="45.085250734553625" lon="10.710380103019757"><ele>18.666666666666664</ele><time>2026-04-24T08:48:15Z</time></trkpt><trkpt lat="45.08511910420879" lon="10.710591359260713"><ele>19.0</ele><time>2026-04-24T08:48:16Z</time></trkpt><trkpt lat="45.08499080622092" lon="10.710811905686118"><ele>18.333333333333332</ele><time>2026-04-24T08:48:17Z</time></trkpt><trkpt lat="45.084861297614324" lon="10.711041501059022"><ele>17.666666666666668</ele><time>2026-04-24T08:48:18Z</time></trkpt><trkpt lat="45.08472626024637" lon="10.711271250786247"><ele>17.0</ele><time>2026-04-24T08:48:19Z</time></trkpt><trkpt lat="45.08458985880181" lon="10.711503346985438"><ele>17.0</ele><time>2026-04-24T08:48:20Z</time></trkpt><trkpt lat="45.08445145422236" lon="10.71174859810116"><ele>17.0</ele><time>2026-04-24T08:48:21Z</time></trkpt><trkpt lat="45.084309085091384" lon="10.711994195984905"><ele>17.0</ele><time>2026-04-24T08:48:22Z</time></trkpt><trkpt lat="45.084168227410025" lon="10.712238265816756"><ele>17.0</ele><time>2026-04-24T08:48:23Z</time></trkpt><trkpt lat="45.08403468888361" lon="10.712485680800324"><ele>17.0</ele><time>2026-04-24T08:48:24Z</time></trkpt><trkpt lat="45.083914311298926" lon="10.712737537355164"><ele>17.0</ele><time>2026-04-24T08:48:25Z</time></trkpt><trkpt lat="45.08381274393471" lon="10.713000507893318"><ele>17.0</ele><time>2026-04-24T08:48:26Z</time></trkpt><trkpt lat="45.08373239110533" lon="10.713271999140687"><ele>17.0</ele><time>2026-04-24T08:48:27Z</time></trkpt><trkpt lat="45.08366794442662" lon="10.71355234768488"><ele>17.0</ele><time>2026-04-24T08:48:28Z</time></trkpt><trkpt lat="45.08360746625178" lon="10.713841554479917"><ele>17.333333333333336</ele><time>2026-04-24T08:48:29Z</time></trkpt><trkpt lat="45.083550833376115" lon="10.714127069213822"><ele>17.666666666666668</ele><time>2026-04-24T08:48:30Z</time></trkpt><trkpt lat="45.08350267266258" lon="10.714414247332762"><ele>18.0</ele><time>2026-04-24T08:48:31Z</time></trkpt><trkpt lat="45.08346294104653" lon="10.71470689967011"><ele>18.333333333333332</ele><time>2026-04-24T08:48:32Z</time></trkpt><trkpt lat="45.0834223909607" lon="10.715006188795154"><ele>18.666666666666664</ele><time>2026-04-24T08:48:33Z</time></trkpt><trkpt lat="45.08337721234304" lon="10.715308618664228"><ele>19.0</ele><time>2026-04-24T08:48:34Z</time></trkpt><trkpt lat="45.083334118462425" lon="10.715613001645636"><ele>19.0</ele><time>2026-04-24T08:48:35Z</time></trkpt><trkpt lat="45.08326888380611" lon="10.715911871563762"><ele>19.0</ele><time>2026-04-24T08:48:36Z</time></trkpt><trkpt lat="45.08321940310683" lon="10.716216824205087"><ele>19.0</ele><time>2026-04-24T08:48:37Z</time></trkpt><trkpt lat="45.08325449250528" lon="10.716538976981218"><ele>18.666666666666664</ele><time>2026-04-24T08:48:38Z</time></trkpt><trkpt lat="45.08324398633605" lon="10.716849305475327"><ele>18.333333333333332</ele><time>2026-04-24T08:48:39Z</time></trkpt><trkpt lat="45.08323898101994" lon="10.717157476261772"><ele>18.0</ele><time>2026-04-24T08:48:40Z</time></trkpt><trkpt lat="45.08323399928696" lon="10.717464106670354"><ele>18.0</ele><time>2026-04-24T08:48:41Z</time></trkpt><trkpt lat="45.0832265399198" lon="10.717771387070442"><ele>18.0</ele><time>2026-04-24T08:48:42Z</time></trkpt><trkpt lat="45.08321561012447" lon="10.718081826584102"><ele>18.0</ele><time>2026-04-24T08:48:43Z</time></trkpt><trkpt lat="45.083193911251605" lon="10.718392272711078"><ele>18.0</ele><time>2026-04-24T08:48:44Z</time></trkpt><trkpt lat="45.083165481536774" lon="10.71869986100213"><ele>18.0</ele><time>2026-04-24T08:48:45Z</time></trkpt><trkpt lat="45.083133428510656" lon="10.719001928284646"><ele>18.0</ele><time>2026-04-24T08:48:46Z</time></trkpt><trkpt lat="45.08309166046979" lon="10.719307830630415"><ele>18.333333333333332</ele><time>2026-04-24T08:48:47Z</time></trkpt><trkpt lat="45.08304534666028" lon="10.71960653705063"><ele>18.666666666666664</ele><time>2026-04-24T08:48:48Z</time></trkpt><trkpt lat="45.08299156010425" lon="10.719903816927875"><ele>19.0</ele><time>2026-04-24T08:48:49Z</time></trkpt><trkpt lat="45.082949635319444" lon="10.720204419615357"><ele>19.0</ele><time>2026-04-24T08:48:50Z</time></trkpt><trkpt lat="45.082920639184515" lon="10.720510739119868"><ele>19.0</ele><time>2026-04-24T08:48:51Z</time></trkpt><trkpt lat="45.08290432557206" lon="10.720818069096685"><ele>19.0</ele><time>2026-04-24T08:48:52Z</time></trkpt><trkpt lat="45.08289145868538" lon="10.721127124286353"><ele>19.0</ele><time>2026-04-24T08:48:53Z</time></trkpt><trkpt lat="45.0828718746667" lon="10.721432720500744"><ele>19.0</ele><time>2026-04-24T08:48:54Z</time></trkpt><trkpt lat="45.082841407164075" lon="10.721736607142393"><ele>19.0</ele><time>2026-04-24T08:48:55Z</time></trkpt><trkpt lat="45.08279446264158" lon="10.722040056904412"><ele>19.0</ele><time>2026-04-24T08:48:56Z</time></trkpt><trkpt lat="45.08273353316082" lon="10.722342738610356"><ele>19.0</ele><time>2026-04-24T08:48:57Z</time></trkpt><trkpt lat="45.082659058074334" lon="10.72262962381428"><ele>19.0</ele><time>2026-04-24T08:48:58Z</time></trkpt><trkpt lat="45.08257575938562" lon="10.722884957178112"><ele>19.0</ele><time>2026-04-24T08:48:59Z</time></trkpt><trkpt lat="45.082492234604295" lon="10.723121199072548"><ele>19.0</ele><time>2026-04-24T08:49:00Z</time></trkpt><trkpt lat="45.082420618862656" lon="10.723345855776628"><ele>19.0</ele><time>2026-04-24T08:49:01Z</time></trkpt><trkpt lat="45.08235446823481" lon="10.723556757121973"><ele>19.0</ele><time>2026-04-24T08:49:02Z</time></trkpt><trkpt lat="45.08230286644328" lon="10.723764851378336"><ele>19.0</ele><time>2026-04-24T08:49:03Z</time></trkpt><trkpt lat="45.08227674850531" lon="10.723979231922065"><ele>19.0</ele><time>2026-04-24T08:49:04Z</time></trkpt><trkpt lat="45.08227063798379" lon="10.724210232631945"><ele>18.666666666666664</ele><time>2026-04-24T08:49:05Z</time></trkpt><trkpt lat="45.0822813332789" lon="10.72445309982783"><ele>18.333333333333332</ele><time>2026-04-24T08:49:06Z</time></trkpt><trkpt lat="45.08230491450385" lon="10.724710459494926"><ele>18.0</ele><time>2026-04-24T08:49:07Z</time></trkpt><trkpt lat="45.082339159803105" lon="10.724975091719804"><ele>17.666666666666668</ele><time>2026-04-24T08:49:08Z</time></trkpt><trkpt lat="45.08238460832523" lon="10.72524013536993"><ele>17.333333333333336</ele><time>2026-04-24T08:49:09Z</time></trkpt><trkpt lat="45.082438424480685" lon="10.725512923889974"><ele>17.0</ele><time>2026-04-24T08:49:10Z</time></trkpt><trkpt lat="45.08249037451891" lon="10.725789317322695"><ele>17.333333333333336</ele><time>2026-04-24T08:49:11Z</time></trkpt><trkpt lat="45.08254101032528" lon="10.726069261728046"><ele>17.666666666666668</ele><time>2026-04-24T08:49:12Z</time></trkpt><trkpt lat="45.08258871744055" lon="10.726349870606962"><ele>18.0</ele><time>2026-04-24T08:49:13Z</time></trkpt><trkpt lat="45.08263630821351" lon="10.72662526249865"><ele>18.0</ele><time>2026-04-24T08:49:14Z</time></trkpt><trkpt lat="45.08268278462301" lon="10.72689426731091"><ele>18.0</ele><time>2026-04-24T08:49:15Z</time></trkpt><trkpt lat="45.08272749401498" lon="10.727159641854"><ele>18.0</ele><time>2026-04-24T08:49:16Z</time></trkpt><trkpt lat="45.08276960971376" lon="10.727426195468126"><ele>18.0</ele><time>2026-04-24T08:49:17Z</time></trkpt><trkpt lat="45.08281190585287" lon="10.727688700502945"><ele>18.0</ele><time>2026-04-24T08:49:18Z</time></trkpt><trkpt lat="45.08285212239526" lon="10.727947935093363"><ele>18.0</ele><time>2026-04-24T08:49:19Z</time></trkpt><trkpt lat="45.082894533775224" lon="10.728203352754793"><ele>18.0</ele><time>2026-04-24T08:49:20Z</time></trkpt><trkpt lat="45.08293526569658" lon="10.728449951066434"><ele>18.0</ele><time>2026-04-24T08:49:21Z</time></trkpt><trkpt lat="45.082975437723704" lon="10.72869529590126"><ele>18.0</ele><time>2026-04-24T08:49:22Z</time></trkpt><trkpt lat="45.083012718931066" lon="10.72893864783374"><ele>18.0</ele><time>2026-04-24T08:49:23Z</time></trkpt><trkpt lat="45.08305351894012" lon="10.729185790048536"><ele>18.0</ele><time>2026-04-24T08:49:24Z</time></trkpt><trkpt lat="45.08309341304483" lon="10.729430166528045"><ele>18.0</ele><time>2026-04-24T08:49:25Z</time></trkpt><trkpt lat="45.083130172787975" lon="10.729680499974274"><ele>18.0</ele><time>2026-04-24T08:49:26Z</time></trkpt><trkpt lat="45.08317204996642" lon="10.7299340892871"><ele>18.0</ele><time>2026-04-24T08:49:27Z</time></trkpt><trkpt lat="45.083213537965904" lon="10.730189519511406"><ele>18.0</ele><time>2026-04-24T08:49:28Z</time></trkpt><trkpt lat="45.083255074013145" lon="10.730447666326091"><ele>18.333333333333332</ele><time>2026-04-24T08:49:29Z</time></trkpt><trkpt lat="45.08329519443589" lon="10.730713326238648"><ele>18.666666666666664</ele><time>2026-04-24T08:49:30Z</time></trkpt><trkpt lat="45.083337593463845" lon="10.730986759145763"><ele>19.0</ele><time>2026-04-24T08:49:31Z</time></trkpt><trkpt lat="45.08337882226393" lon="10.731263025927868"><ele>19.0</ele><time>2026-04-24T08:49:32Z</time></trkpt><trkpt lat="45.08342350467129" lon="10.73153775544561"><ele>19.0</ele><time>2026-04-24T08:49:33Z</time></trkpt><trkpt lat="45.08346743705393" lon="10.731817251353485"><ele>19.0</ele><time>2026-04-24T08:49:34Z</time></trkpt><trkpt lat="45.08351190565253" lon="10.732096490718645"><ele>19.0</ele><time>2026-04-24T08:49:35Z</time></trkpt><trkpt lat="45.08355660734396" lon="10.732381246382408"><ele>19.0</ele><time>2026-04-24T08:49:36Z</time></trkpt><trkpt lat="45.0836027040453" lon="10.732665305539072"><ele>19.0</ele><time>2026-04-24T08:49:37Z</time></trkpt><trkpt lat="45.08364538697391" lon="10.732949061182861"><ele>19.333333333333332</ele><time>2026-04-24T08:49:38Z</time></trkpt><trkpt lat="45.08368858844985" lon="10.733232586042705"><ele>19.666666666666668</ele><time>2026-04-24T08:49:39Z</time></trkpt><trkpt lat="45.08373259454686" lon="10.733509671295888"><ele>20.0</ele><time>2026-04-24T08:49:40Z</time></trkpt><trkpt lat="45.08377555353351" lon="10.7337807480954"><ele>20.0</ele><time>2026-04-24T08:49:41Z</time></trkpt><trkpt lat="45.08382094450035" lon="10.734039369866766"><ele>20.0</ele><time>2026-04-24T08:49:42Z</time></trkpt><trkpt lat="45.083861304882504" lon="10.734293443540807"><ele>20.0</ele><time>2026-04-24T08:49:43Z</time></trkpt><trkpt lat="45.08389853746297" lon="10.73452907039985"><ele>19.666666666666668</ele><time>2026-04-24T08:49:44Z</time></trkpt><trkpt lat="45.08393732153431" lon="10.734760574986"><ele>19.333333333333332</ele><time>2026-04-24T08:49:45Z</time></trkpt><trkpt lat="45.08397171275773" lon="10.734979884657152"><ele>19.0</ele><time>2026-04-24T08:49:46Z</time></trkpt><trkpt lat="45.084002089301514" lon="10.735174361577272"><ele>19.2</ele><time>2026-04-24T08:49:47Z</time></trkpt><trkpt lat="45.08402877880667" lon="10.73534472371834"><ele>19.4</ele><time>2026-04-24T08:49:48Z</time></trkpt><trkpt lat="45.084048919808914" lon="10.735493446007562"><ele>19.6</ele><time>2026-04-24T08:49:49Z</time></trkpt><trkpt lat="45.08403758741825" lon="10.735621812070908"><ele>19.8</ele><time>2026-04-24T08:49:50Z</time></trkpt><trkpt lat="45.084027978944356" lon="10.735732986752426"><ele>20.0</ele><time>2026-04-24T08:49:51Z</time></trkpt><trkpt lat="45.08399699268791" lon="10.735832472004947"><ele>20.0</ele><time>2026-04-24T08:49:52Z</time></trkpt><trkpt lat="45.0839531323304" lon="10.735917359535252"><ele>20.0</ele><time>2026-04-24T08:49:53Z</time></trkpt><trkpt lat="45.08389004504456" lon="10.735987405737772"><ele>20.0</ele><time>2026-04-24T08:49:54Z</time></trkpt><trkpt lat="45.08381818344211" lon="10.736067980999705"><ele>20.0</ele><time>2026-04-24T08:49:55Z</time></trkpt><trkpt lat="45.08370560768496" lon="10.736044149551859"><ele>20.0</ele><time>2026-04-24T08:49:56Z</time></trkpt><trkpt lat="45.083586153603335" lon="10.73607616630318"><ele>20.0</ele><time>2026-04-24T08:49:57Z</time></trkpt><trkpt lat="45.08345409239374" lon="10.736112250076012"><ele>20.0</ele><time>2026-04-24T08:49:58Z</time></trkpt><trkpt lat="45.08331151357979" lon="10.736151207554165"><ele>20.0</ele><time>2026-04-24T08:49:59Z</time></trkpt><trkpt lat="45.083158085039614" lon="10.736193129561402"><ele>20.0</ele><time>2026-04-24T08:50:00Z</time></trkpt><trkpt lat="45.082993231642895" lon="10.736238383108065"><ele>20.333333333333336</ele><time>2026-04-24T08:50:01Z</time></trkpt><trkpt lat="45.08282220329323" lon="10.736309977683373"><ele>20.666666666666668</ele><time>2026-04-24T08:50:02Z</time></trkpt><trkpt lat="45.082638958545665" lon="10.736362079166035"><ele>21.0</ele><time>2026-04-24T08:50:03Z</time></trkpt><trkpt lat="45.082448371637575" lon="10.736397628052863"><ele>20.333333333333332</ele><time>2026-04-24T08:50:04Z</time></trkpt><trkpt lat="45.08226812050421" lon="10.736464266168342"><ele>19.666666666666664</ele><time>2026-04-24T08:50:05Z</time></trkpt><trkpt lat="45.08207206647965" lon="10.736522228502757"><ele>19.0</ele><time>2026-04-24T08:50:06Z</time></trkpt><trkpt lat="45.08187426089514" lon="10.736576865262727"><ele>19.0</ele><time>2026-04-24T08:50:07Z</time></trkpt><trkpt lat="45.08167569495874" lon="10.736630270146692"><ele>19.0</ele><time>2026-04-24T08:50:08Z</time></trkpt><trkpt lat="45.08148468800952" lon="10.736686188332444"><ele>19.0</ele><time>2026-04-24T08:50:09Z</time></trkpt><trkpt lat="45.08129077243104" lon="10.736742952191825"><ele>19.333333333333332</ele><time>2026-04-24T08:50:10Z</time></trkpt><trkpt lat="45.08109443017516" lon="10.736794632833941"><ele>19.666666666666668</ele><time>2026-04-24T08:50:11Z</time></trkpt><trkpt lat="45.08089855856524" lon="10.736845584191853"><ele>20.0</ele><time>2026-04-24T08:50:12Z</time></trkpt><trkpt lat="45.080701380812194" lon="10.736895682078082"><ele>20.0</ele><time>2026-04-24T08:50:13Z</time></trkpt><trkpt lat="45.080504767046236" lon="10.736945874021306"><ele>20.0</ele><time>2026-04-24T08:50:14Z</time></trkpt><trkpt lat="45.080306843495485" lon="10.73699764164437"><ele>20.0</ele><time>2026-04-24T08:50:15Z</time></trkpt><trkpt lat="45.080112717821265" lon="10.737048735742192"><ele>19.666666666666668</ele><time>2026-04-24T08:50:16Z</time></trkpt><trkpt lat="45.07992002639505" lon="10.737101335170035"><ele>19.333333333333332</ele><time>2026-04-24T08:50:17Z</time></trkpt><trkpt lat="45.079726777661826" lon="10.737160005058973"><ele>19.0</ele><time>2026-04-24T08:50:18Z</time></trkpt><trkpt lat="45.07952950204482" lon="10.737215049570525"><ele>19.0</ele><time>2026-04-24T08:50:19Z</time></trkpt><trkpt lat="45.07933269023646" lon="10.73726701944516"><ele>19.0</ele><time>2026-04-24T08:50:20Z</time></trkpt><trkpt lat="45.079136047579816" lon="10.737317420180084"><ele>19.0</ele><time>2026-04-24T08:50:21Z</time></trkpt><trkpt lat="45.07893156266176" lon="10.737374398885574"><ele>19.0</ele><time>2026-04-24T08:50:22Z</time></trkpt><trkpt lat="45.078722179734235" lon="10.737434685757476"><ele>19.0</ele><time>2026-04-24T08:50:23Z</time></trkpt><trkpt lat="45.07850920323808" lon="10.73749390387729"><ele>19.0</ele><time>2026-04-24T08:50:24Z</time></trkpt><trkpt lat="45.078290082776945" lon="10.73755047898764"><ele>19.0</ele><time>2026-04-24T08:50:25Z</time></trkpt><trkpt lat="45.07807182097477" lon="10.737613225288458"><ele>19.0</ele><time>2026-04-24T08:50:26Z</time></trkpt><trkpt lat="45.07785404099781" lon="10.73767572320169"><ele>19.0</ele><time>2026-04-24T08:50:27Z</time></trkpt><trkpt lat="45.0776388158351" lon="10.737731746392525"><ele>18.666666666666664</ele><time>2026-04-24T08:50:28Z</time></trkpt><trkpt lat="45.07742448343145" lon="10.737784895135022"><ele>18.333333333333332</ele><time>2026-04-24T08:50:29Z</time></trkpt><trkpt lat="45.077209344240295" lon="10.737835603648579"><ele>18.0</ele><time>2026-04-24T08:50:30Z</time></trkpt><trkpt lat="45.07699200308954" lon="10.737852823395695"><ele>18.0</ele><time>2026-04-24T08:50:31Z</time></trkpt><trkpt lat="45.076775615573645" lon="10.737877743885639"><ele>18.0</ele><time>2026-04-24T08:50:32Z</time></trkpt><trkpt lat="45.0765568014924" lon="10.737926864777782"><ele>18.0</ele><time>2026-04-24T08:50:33Z</time></trkpt><trkpt lat="45.07633449646025" lon="10.737939718213541"><ele>18.0</ele><time>2026-04-24T08:50:34Z</time></trkpt><trkpt lat="45.07611263064601" lon="10.737960941651089"><ele>18.0</ele><time>2026-04-24T08:50:35Z</time></trkpt><trkpt lat="45.07589699168903" lon="10.737983225651753"><ele>18.0</ele><time>2026-04-24T08:50:36Z</time></trkpt><trkpt lat="45.07568280995339" lon="10.738000454444798"><ele>18.666666666666668</ele><time>2026-04-24T08:50:37Z</time></trkpt><trkpt lat="45.075470379166184" lon="10.73801144035083"><ele>19.333333333333336</ele><time>2026-04-24T08:50:38Z</time></trkpt><trkpt lat="45.0752575797611" lon="10.738009002748564"><ele>20.0</ele><time>2026-04-24T08:50:39Z</time></trkpt><trkpt lat="45.07504595397466" lon="10.737960841707137"><ele>20.0</ele><time>2026-04-24T08:50:40Z</time></trkpt><trkpt lat="45.074833758366765" lon="10.737928324227767"><ele>20.0</ele><time>2026-04-24T08:50:41Z</time></trkpt><trkpt lat="45.07462086770966" lon="10.737900378546694"><ele>20.0</ele><time>2026-04-24T08:50:42Z</time></trkpt><trkpt lat="45.074407718232536" lon="10.737898241329852"><ele>20.0</ele><time>2026-04-24T08:50:43Z</time></trkpt><trkpt lat="45.07419379494928" lon="10.737872117893467"><ele>20.0</ele><time>2026-04-24T08:50:44Z</time></trkpt><trkpt lat="45.07397938565554" lon="10.737850098800765"><ele>20.0</ele><time>2026-04-24T08:50:45Z</time></trkpt><trkpt lat="45.07376789727922" lon="10.73782985750009"><ele>19.666666666666668</ele><time>2026-04-24T08:50:46Z</time></trkpt><trkpt lat="45.07355681372559" lon="10.737806693200309"><ele>19.333333333333332</ele><time>2026-04-24T08:50:47Z</time></trkpt><trkpt lat="45.073344589348565" lon="10.737789634453419"><ele>19.0</ele><time>2026-04-24T08:50:48Z</time></trkpt><trkpt lat="45.07313144718492" lon="10.73776891186463"><ele>18.666666666666664</ele><time>2026-04-24T08:50:49Z</time></trkpt><trkpt lat="45.072919121738096" lon="10.73774640345358"><ele>18.333333333333332</ele><time>2026-04-24T08:50:50Z</time></trkpt><trkpt lat="45.072707868010255" lon="10.737727972851989"><ele>18.0</ele><time>2026-04-24T08:50:51Z</time></trkpt><trkpt lat="45.07249450600873" lon="10.737710317883218"><ele>18.666666666666668</ele><time>2026-04-24T08:50:52Z</time></trkpt><trkpt lat="45.07227906569273" lon="10.737692784463198"><ele>19.333333333333336</ele><time>2026-04-24T08:50:53Z</time></trkpt><trkpt lat="45.07206541262388" lon="10.737679956210386"><ele>20.0</ele><time>2026-04-24T08:50:54Z</time></trkpt><trkpt lat="45.0718526990472" lon="10.737667749696005"><ele>20.0</ele><time>2026-04-24T08:50:55Z</time></trkpt><trkpt lat="45.071637861710414" lon="10.737651910250861"><ele>20.0</ele><time>2026-04-24T08:50:56Z</time></trkpt><trkpt lat="45.07142389307393" lon="10.737624443141035"><ele>20.0</ele><time>2026-04-24T08:50:57Z</time></trkpt><trkpt lat="45.07120658760388" lon="10.737609984396673"><ele>19.666666666666668</ele><time>2026-04-24T08:50:58Z</time></trkpt><trkpt lat="45.07099055229207" lon="10.737592639668613"><ele>19.333333333333332</ele><time>2026-04-24T08:50:59Z</time></trkpt><trkpt lat="45.07077616955011" lon="10.737574904279962"><ele>19.0</ele><time>2026-04-24T08:51:00Z</time></trkpt><trkpt lat="45.07056337872834" lon="10.737555221372759"><ele>19.0</ele><time>2026-04-24T08:51:01Z</time></trkpt><trkpt lat="45.07035178974506" lon="10.73754167826079"><ele>19.0</ele><time>2026-04-24T08:51:02Z</time></trkpt><trkpt lat="45.07014030683667" lon="10.737531711883918"><ele>19.0</ele><time>2026-04-24T08:51:03Z</time></trkpt><trkpt lat="45.069927928564894" lon="10.73749151926608"><ele>19.0</ele><time>2026-04-24T08:51:04Z</time></trkpt><trkpt lat="45.06971385645487" lon="10.737469771526962"><ele>19.0</ele><time>2026-04-24T08:51:05Z</time></trkpt><trkpt lat="45.06950055379086" lon="10.737444385254143"><ele>19.0</ele><time>2026-04-24T08:51:06Z</time></trkpt><trkpt lat="45.06928573096277" lon="10.737416110600485"><ele>19.333333333333332</ele><time>2026-04-24T08:51:07Z</time></trkpt><trkpt lat="45.0690707440758" lon="10.737374117466086"><ele>19.666666666666668</ele><time>2026-04-24T08:51:08Z</time></trkpt><trkpt lat="45.06885959395439" lon="10.737326579705114"><ele>20.0</ele><time>2026-04-24T08:51:09Z</time></trkpt><trkpt lat="45.06864229560118" lon="10.737305883477038"><ele>20.0</ele><time>2026-04-24T08:51:10Z</time></trkpt><trkpt lat="45.068429772434314" lon="10.73725044507085"><ele>20.0</ele><time>2026-04-24T08:51:11Z</time></trkpt><trkpt lat="45.068214517375154" lon="10.737213142217772"><ele>20.0</ele><time>2026-04-24T08:51:12Z</time></trkpt><trkpt lat="45.06800176943063" lon="10.737177735362682"><ele>19.333333333333336</ele><time>2026-04-24T08:51:13Z</time></trkpt><trkpt lat="45.06778761177941" lon="10.737147343400151"><ele>18.666666666666668</ele><time>2026-04-24T08:51:14Z</time></trkpt><trkpt lat="45.06759214275884" lon="10.737117218564187"><ele>18.0</ele><time>2026-04-24T08:51:15Z</time></trkpt><trkpt lat="45.06740784803163" lon="10.737089129820736"><ele>18.0</ele><time>2026-04-24T08:51:16Z</time></trkpt><trkpt lat="45.06723569392521" lon="10.737063639460597"><ele>18.0</ele><time>2026-04-24T08:51:17Z</time></trkpt><trkpt lat="45.06706958096302" lon="10.73703719842092"><ele>18.0</ele><time>2026-04-24T08:51:18Z</time></trkpt><trkpt lat="45.066901237456854" lon="10.737015009269205"><ele>18.0</ele><time>2026-04-24T08:51:19Z</time></trkpt><trkpt lat="45.06672573169917" lon="10.736998490882037"><ele>18.0</ele><time>2026-04-24T08:51:20Z</time></trkpt><trkpt lat="45.066546820436756" lon="10.736990231669012"><ele>18.0</ele><time>2026-04-24T08:51:21Z</time></trkpt><trkpt lat="45.06637034785097" lon="10.736990043467262"><ele>17.666666666666668</ele><time>2026-04-24T08:51:22Z</time></trkpt><trkpt lat="45.06619217134199" lon="10.736993846434212"><ele>17.333333333333336</ele><time>2026-04-24T08:51:23Z</time></trkpt><trkpt lat="45.066010876128864" lon="10.737003569851264"><ele>17.0</ele><time>2026-04-24T08:51:24Z</time></trkpt><trkpt lat="45.065839716470265" lon="10.737023452043834"><ele>17.0</ele><time>2026-04-24T08:51:25Z</time></trkpt><trkpt lat="45.0656766201839" lon="10.737036390464828"><ele>17.0</ele><time>2026-04-24T08:51:26Z</time></trkpt><trkpt lat="45.06551314946652" lon="10.737044634304597"><ele>17.0</ele><time>2026-04-24T08:51:27Z</time></trkpt><trkpt lat="45.06534928864228" lon="10.737063172163367"><ele>17.0</ele><time>2026-04-24T08:51:28Z</time></trkpt><trkpt lat="45.06517743782398" lon="10.737072917541035"><ele>17.0</ele><time>2026-04-24T08:51:29Z</time></trkpt><trkpt lat="45.06499938558149" lon="10.737087674922854"><ele>17.0</ele><time>2026-04-24T08:51:30Z</time></trkpt><trkpt lat="45.0648163742859" lon="10.73709894876313"><ele>16.666666666666668</ele><time>2026-04-24T08:51:31Z</time></trkpt><trkpt lat="45.06463014090646" lon="10.737106479955992"><ele>16.333333333333332</ele><time>2026-04-24T08:51:32Z</time></trkpt><trkpt lat="45.06443929066907" lon="10.737112927639036"><ele>16.0</ele><time>2026-04-24T08:51:33Z</time></trkpt><trkpt lat="45.06424684929546" lon="10.73711572592048"><ele>16.333333333333332</ele><time>2026-04-24T08:51:34Z</time></trkpt><trkpt lat="45.06406069572811" lon="10.737115324314482"><ele>16.666666666666668</ele><time>2026-04-24T08:51:35Z</time></trkpt><trkpt lat="45.06387467057927" lon="10.737112763465138"><ele>17.0</ele><time>2026-04-24T08:51:36Z</time></trkpt><trkpt lat="45.06368888061586" lon="10.737099239373256"><ele>17.0</ele><time>2026-04-24T08:51:37Z</time></trkpt><trkpt lat="45.06350588515011" lon="10.737067205979578"><ele>17.0</ele><time>2026-04-24T08:51:38Z</time></trkpt><trkpt lat="45.063324874525094" lon="10.737019126597987"><ele>17.0</ele><time>2026-04-24T08:51:39Z</time></trkpt><trkpt lat="45.0631416271434" lon="10.736960229483044"><ele>17.333333333333336</ele><time>2026-04-24T08:51:40Z</time></trkpt><trkpt lat="45.06295951719962" lon="10.73690707489669"><ele>17.666666666666668</ele><time>2026-04-24T08:51:41Z</time></trkpt><trkpt lat="45.062779848837785" lon="10.736861052952426"><ele>18.0</ele><time>2026-04-24T08:51:42Z</time></trkpt><trkpt lat="45.062599662753335" lon="10.736819337150187"><ele>18.333333333333332</ele><time>2026-04-24T08:51:43Z</time></trkpt><trkpt lat="45.062421516860134" lon="10.736774229308292"><ele>18.666666666666664</ele><time>2026-04-24T08:51:44Z</time></trkpt><trkpt lat="45.06224686037054" lon="10.736727032877937"><ele>19.0</ele><time>2026-04-24T08:51:45Z</time></trkpt><trkpt lat="45.06207407992592" lon="10.73668130385144"><ele>19.0</ele><time>2026-04-24T08:51:46Z</time></trkpt><trkpt lat="45.061902787379104" lon="10.7366415133335"><ele>19.0</ele><time>2026-04-24T08:51:47Z</time></trkpt><trkpt lat="45.061745695141106" lon="10.736605774275647"><ele>19.0</ele><time>2026-04-24T08:51:48Z</time></trkpt><trkpt lat="45.06159904561527" lon="10.73657501988691"><ele>18.5</ele><time>2026-04-24T08:51:49Z</time></trkpt><trkpt lat="45.061470775980844" lon="10.736545868598755"><ele>18.0</ele><time>2026-04-24T08:51:50Z</time></trkpt><trkpt lat="45.061358955096445" lon="10.73653560930062"><ele>17.5</ele><time>2026-04-24T08:51:51Z</time></trkpt><trkpt lat="45.061257712079986" lon="10.736560911879947"><ele>17.0</ele><time>2026-04-24T08:51:52Z</time></trkpt><trkpt lat="45.06115118508479" lon="10.736618430294728"><ele>17.0</ele><time>2026-04-24T08:51:53Z</time></trkpt><trkpt lat="45.06103959003296" lon="10.736712936518016"><ele>17.0</ele><time>2026-04-24T08:51:54Z</time></trkpt><trkpt lat="45.06091629699675" lon="10.736834170404714"><ele>17.0</ele><time>2026-04-24T08:51:55Z</time></trkpt><trkpt lat="45.06077854222405" lon="10.736968977069957"><ele>17.0</ele><time>2026-04-24T08:51:56Z</time></trkpt><trkpt lat="45.060630471715065" lon="10.737103235249874"><ele>17.0</ele><time>2026-04-24T08:51:57Z</time></trkpt><trkpt lat="45.06047320655826" lon="10.73723851386176"><ele>17.0</ele><time>2026-04-24T08:51:58Z</time></trkpt><trkpt lat="45.06030880632893" lon="10.737381389318076"><ele>17.0</ele><time>2026-04-24T08:51:59Z</time></trkpt><trkpt lat="45.06014116152666" lon="10.737524155254226"><ele>17.0</ele><time>2026-04-24T08:52:00Z</time></trkpt><trkpt lat="45.059982077978475" lon="10.737662709713115"><ele>17.0</ele><time>2026-04-24T08:52:01Z</time></trkpt><trkpt lat="45.05982187239334" lon="10.737801726744195"><ele>17.0</ele><time>2026-04-24T08:52:02Z</time></trkpt><trkpt lat="45.05966084316971" lon="10.737936248243704"><ele>16.333333333333336</ele><time>2026-04-24T08:52:03Z</time></trkpt><trkpt lat="45.059499171974956" lon="10.738073025947099"><ele>15.666666666666668</ele><time>2026-04-24T08:52:04Z</time></trkpt><trkpt lat="45.05933719923837" lon="10.73821541022728"><ele>15.0</ele><time>2026-04-24T08:52:05Z</time></trkpt><trkpt lat="45.0591728381352" lon="10.738360006026335"><ele>15.666666666666668</ele><time>2026-04-24T08:52:06Z</time></trkpt><trkpt lat="45.059004408961705" lon="10.738495897368416"><ele>16.333333333333336</ele><time>2026-04-24T08:52:07Z</time></trkpt><trkpt lat="45.058834792008945" lon="10.738627588628766"><ele>17.0</ele><time>2026-04-24T08:52:08Z</time></trkpt><trkpt lat="45.058668581780985" lon="10.738766621854916"><ele>17.0</ele><time>2026-04-24T08:52:09Z</time></trkpt><trkpt lat="45.05850335279766" lon="10.73890061912399"><ele>17.0</ele><time>2026-04-24T08:52:10Z</time></trkpt><trkpt lat="45.05833671630177" lon="10.739035922676475"><ele>17.0</ele><time>2026-04-24T08:52:11Z</time></trkpt><trkpt lat="45.058169991051926" lon="10.739165542235925"><ele>17.0</ele><time>2026-04-24T08:52:12Z</time></trkpt><trkpt lat="45.05801102314027" lon="10.73928535089541"><ele>17.0</ele><time>2026-04-24T08:52:13Z</time></trkpt><trkpt lat="45.05785992987974" lon="10.739389616902708"><ele>17.0</ele><time>2026-04-24T08:52:14Z</time></trkpt><trkpt lat="45.05771776346959" lon="10.739477420485025"><ele>17.0</ele><time>2026-04-24T08:52:15Z</time></trkpt><trkpt lat="45.05758375182733" lon="10.739561429510863"><ele>17.0</ele><time>2026-04-24T08:52:16Z</time></trkpt><trkpt lat="45.05745403091302" lon="10.739652061499283"><ele>17.0</ele><time>2026-04-24T08:52:17Z</time></trkpt><trkpt lat="45.057327038220706" lon="10.73975510636912"><ele>17.0</ele><time>2026-04-24T08:52:18Z</time></trkpt><trkpt lat="45.05720029045408" lon="10.739871695898431"><ele>17.0</ele><time>2026-04-24T08:52:19Z</time></trkpt><trkpt lat="45.05708632742063" lon="10.739993565580479"><ele>17.0</ele><time>2026-04-24T08:52:20Z</time></trkpt><trkpt lat="45.05697850662214" lon="10.740108445591531"><ele>17.0</ele><time>2026-04-24T08:52:21Z</time></trkpt><trkpt lat="45.05688112190627" lon="10.740210217724718"><ele>17.0</ele><time>2026-04-24T08:52:22Z</time></trkpt><trkpt lat="45.056797668048645" lon="10.74029908975968"><ele>17.2</ele><time>2026-04-24T08:52:23Z</time></trkpt><trkpt lat="45.05672706410445" lon="10.740371579453003"><ele>17.4</ele><time>2026-04-24T08:52:24Z</time></trkpt><trkpt lat="45.05661160394218" lon="10.74041802422156"><ele>17.6</ele><time>2026-04-24T08:52:26Z</time></trkpt><trkpt lat="45.056507073394116" lon="10.740479337880501"><ele>17.8</ele><time>2026-04-24T08:52:28Z</time></trkpt><trkpt lat="45.05646496691878" lon="10.74055371642696"><ele>18.0</ele><time>2026-04-24T08:52:29Z</time></trkpt><trkpt lat="45.05639997587291" lon="10.740677572494642"><ele>17.75</ele><time>2026-04-24T08:52:30Z</time></trkpt><trkpt lat="45.05632599469736" lon="10.740806813814045"><ele>17.5</ele><time>2026-04-24T08:52:31Z</time></trkpt><trkpt lat="45.05623869071727" lon="10.740942251032488"><ele>17.25</ele><time>2026-04-24T08:52:32Z</time></trkpt><trkpt lat="45.05613415069369" lon="10.741079176557712"><ele>17.0</ele><time>2026-04-24T08:52:33Z</time></trkpt><trkpt lat="45.056018553574724" lon="10.741223607548532"><ele>17.0</ele><time>2026-04-24T08:52:34Z</time></trkpt><trkpt lat="45.05589752502585" lon="10.7413716199967"><ele>17.0</ele><time>2026-04-24T08:52:35Z</time></trkpt><trkpt lat="45.055776203635475" lon="10.741522672813538"><ele>17.0</ele><time>2026-04-24T08:52:36Z</time></trkpt><trkpt lat="45.055649494284076" lon="10.741681270786277"><ele>16.666666666666668</ele><time>2026-04-24T08:52:37Z</time></trkpt><trkpt lat="45.05552116787413" lon="10.741853973172692"><ele>16.333333333333332</ele><time>2026-04-24T08:52:38Z</time></trkpt><trkpt lat="45.055388288725744" lon="10.742037041921568"><ele>16.0</ele><time>2026-04-24T08:52:39Z</time></trkpt><trkpt lat="45.05525515343474" lon="10.742234378246337"><ele>15.666666666666666</ele><time>2026-04-24T08:52:40Z</time></trkpt><trkpt lat="45.05512492045237" lon="10.742444604632288"><ele>15.333333333333332</ele><time>2026-04-24T08:52:41Z</time></trkpt><trkpt lat="45.05499265458103" lon="10.742657532474084"><ele>15.0</ele><time>2026-04-24T08:52:42Z</time></trkpt><trkpt lat="45.054871628656635" lon="10.742870357619562"><ele>15.666666666666668</ele><time>2026-04-24T08:52:43Z</time></trkpt><trkpt lat="45.054747356184045" lon="10.74308631056084"><ele>16.333333333333336</ele><time>2026-04-24T08:52:44Z</time></trkpt><trkpt lat="45.05462722622632" lon="10.743307347212122"><ele>17.0</ele><time>2026-04-24T08:52:45Z</time></trkpt><trkpt lat="45.05451180656978" lon="10.743532443595706"><ele>17.0</ele><time>2026-04-24T08:52:46Z</time></trkpt><trkpt lat="45.054396031012395" lon="10.743755193178487"><ele>17.0</ele><time>2026-04-24T08:52:47Z</time></trkpt><trkpt lat="45.05428942036867" lon="10.74397424833752"><ele>17.0</ele><time>2026-04-24T08:52:48Z</time></trkpt><trkpt lat="45.05419534819056" lon="10.74418174587079"><ele>17.0</ele><time>2026-04-24T08:52:49Z</time></trkpt><trkpt lat="45.054105714122564" lon="10.744393329940403"><ele>17.0</ele><time>2026-04-24T08:52:50Z</time></trkpt><trkpt lat="45.05402725048887" lon="10.744605389583045"><ele>17.0</ele><time>2026-04-24T08:52:51Z</time></trkpt><trkpt lat="45.05395865324741" lon="10.744821302021188"><ele>17.0</ele><time>2026-04-24T08:52:52Z</time></trkpt><trkpt lat="45.05389484950684" lon="10.745047766403472"><ele>17.0</ele><time>2026-04-24T08:52:53Z</time></trkpt><trkpt lat="45.053839929560375" lon="10.745282731034155"><ele>17.0</ele><time>2026-04-24T08:52:54Z</time></trkpt><trkpt lat="45.05379168877368" lon="10.745518834179041"><ele>17.333333333333336</ele><time>2026-04-24T08:52:55Z</time></trkpt><trkpt lat="45.05374879869159" lon="10.745758719992528"><ele>17.666666666666668</ele><time>2026-04-24T08:52:56Z</time></trkpt><trkpt lat="45.053711746539776" lon="10.7460028898017"><ele>18.0</ele><time>2026-04-24T08:52:57Z</time></trkpt><trkpt lat="45.05367892960411" lon="10.746247514991637"><ele>18.333333333333332</ele><time>2026-04-24T08:52:58Z</time></trkpt><trkpt lat="45.05364321162077" lon="10.746497123879307"><ele>18.666666666666664</ele><time>2026-04-24T08:52:59Z</time></trkpt><trkpt lat="45.05360632529603" lon="10.746750159779758"><ele>19.0</ele><time>2026-04-24T08:53:00Z</time></trkpt><trkpt lat="45.05357018890358" lon="10.747008795766472"><ele>19.0</ele><time>2026-04-24T08:53:01Z</time></trkpt><trkpt lat="45.05353377280499" lon="10.747266556285549"><ele>19.0</ele><time>2026-04-24T08:53:02Z</time></trkpt><trkpt lat="45.05349674561122" lon="10.747526970260552"><ele>19.0</ele><time>2026-04-24T08:53:03Z</time></trkpt><trkpt lat="45.053461273491166" lon="10.747785092676002"><ele>19.0</ele><time>2026-04-24T08:53:04Z</time></trkpt><trkpt lat="45.05342644997577" lon="10.748047036876402"><ele>19.0</ele><time>2026-04-24T08:53:05Z</time></trkpt><trkpt lat="45.05339120767335" lon="10.748299293188548"><ele>19.0</ele><time>2026-04-24T08:53:06Z</time></trkpt><trkpt lat="45.053353971660954" lon="10.748550203238063"><ele>19.0</ele><time>2026-04-24T08:53:07Z</time></trkpt><trkpt lat="45.0533210121723" lon="10.748795259644814"><ele>19.0</ele><time>2026-04-24T08:53:08Z</time></trkpt><trkpt lat="45.05328657202075" lon="10.749041971563669"><ele>19.0</ele><time>2026-04-24T08:53:09Z</time></trkpt><trkpt lat="45.05325091973791" lon="10.749286969174863"><ele>19.333333333333332</ele><time>2026-04-24T08:53:10Z</time></trkpt><trkpt lat="45.053217900245556" lon="10.749530822540743"><ele>19.666666666666668</ele><time>2026-04-24T08:53:11Z</time></trkpt><trkpt lat="45.053184101130576" lon="10.749771595462093"><ele>20.0</ele><time>2026-04-24T08:53:12Z</time></trkpt><trkpt lat="45.05315189319872" lon="10.750006104134828"><ele>19.75</ele><time>2026-04-24T08:53:13Z</time></trkpt><trkpt lat="45.05312107736097" lon="10.750223547223408"><ele>19.5</ele><time>2026-04-24T08:53:14Z</time></trkpt><trkpt lat="45.05309434706614" lon="10.750424737114653"><ele>19.25</ele><time>2026-04-24T08:53:15Z</time></trkpt><trkpt lat="45.05306731687774" lon="10.750591917656466"><ele>19.0</ele><time>2026-04-24T08:53:16Z</time></trkpt><trkpt lat="45.05302361692518" lon="10.750722916421097"><ele>19.0</ele><time>2026-04-24T08:53:17Z</time></trkpt><trkpt lat="45.05299429422434" lon="10.750845790307714"><ele>19.0</ele><time>2026-04-24T08:53:18Z</time></trkpt><trkpt lat="45.05298330698489" lon="10.750951489924777"><ele>19.0</ele><time>2026-04-24T08:53:19Z</time></trkpt><trkpt lat="45.05294498080301" lon="10.75108269274596"><ele>19.0</ele><time>2026-04-24T08:53:21Z</time></trkpt><trkpt lat="45.052904807848755" lon="10.751199493568036"><ele>19.0</ele><time>2026-04-24T08:53:23Z</time></trkpt><trkpt lat="45.052850248198915" lon="10.751309578907277"><ele>19.166666666666664</ele><time>2026-04-24T08:53:25Z</time></trkpt><trkpt lat="45.05281183544291" lon="10.751380554332254"><ele>19.333333333333332</ele><time>2026-04-24T08:53:26Z</time></trkpt><trkpt lat="45.0527616458736" lon="10.751461900457322"><ele>19.5</ele><time>2026-04-24T08:53:27Z</time></trkpt><trkpt lat="45.05268560825413" lon="10.751546692806524"><ele>19.666666666666668</ele><time>2026-04-24T08:53:28Z</time></trkpt><trkpt lat="45.05259977346932" lon="10.751606033230066"><ele>19.833333333333336</ele><time>2026-04-24T08:53:29Z</time></trkpt><trkpt lat="45.05250561064409" lon="10.751618196691764"><ele>20.0</ele><time>2026-04-24T08:53:30Z</time></trkpt><trkpt lat="45.05241498582621" lon="10.751659872952827"><ele>20.0</ele><time>2026-04-24T08:53:31Z</time></trkpt><trkpt lat="45.05231368087402" lon="10.751493328344347"><ele>20.0</ele><time>2026-04-24T08:53:32Z</time></trkpt><trkpt lat="45.05219945544931" lon="10.751438176896865"><ele>20.0</ele><time>2026-04-24T08:53:33Z</time></trkpt><trkpt lat="45.05206965604065" lon="10.751371291728283"><ele>20.0</ele><time>2026-04-24T08:53:34Z</time></trkpt><trkpt lat="45.05192876042386" lon="10.751300468584432"><ele>20.0</ele><time>2026-04-24T08:53:35Z</time></trkpt><trkpt lat="45.05178034419916" lon="10.751245129512904"><ele>20.0</ele><time>2026-04-24T08:53:36Z</time></trkpt><trkpt lat="45.051634020652834" lon="10.751167593822244"><ele>20.0</ele><time>2026-04-24T08:53:37Z</time></trkpt><trkpt lat="45.05148931093325" lon="10.751092327680025"><ele>20.5</ele><time>2026-04-24T08:53:38Z</time></trkpt><trkpt lat="45.05135938425559" lon="10.751021279879884"><ele>21.0</ele><time>2026-04-24T08:53:39Z</time></trkpt><trkpt lat="45.051234406770845" lon="10.750949847801834"><ele>21.5</ele><time>2026-04-24T08:53:40Z</time></trkpt><trkpt lat="45.051108131468524" lon="10.750884409551542"><ele>22.0</ele><time>2026-04-24T08:53:41Z</time></trkpt><trkpt lat="45.050980189815746" lon="10.750817663782339"><ele>22.0</ele><time>2026-04-24T08:53:42Z</time></trkpt><trkpt lat="45.05085011689571" lon="10.750768561932684"><ele>22.0</ele><time>2026-04-24T08:53:43Z</time></trkpt><trkpt lat="45.05072311901352" lon="10.750702648780406"><ele>22.0</ele><time>2026-04-24T08:53:44Z</time></trkpt><trkpt lat="45.05059741120937" lon="10.750640898648369"><ele>22.0</ele><time>2026-04-24T08:53:45Z</time></trkpt><trkpt lat="45.050469670596414" lon="10.75057627316944"><ele>22.0</ele><time>2026-04-24T08:53:46Z</time></trkpt><trkpt lat="45.0503378224548" lon="10.750512096329436"><ele>22.0</ele><time>2026-04-24T08:53:47Z</time></trkpt><trkpt lat="45.050207544747856" lon="10.750446741074283"><ele>22.0</ele><time>2026-04-24T08:53:48Z</time></trkpt><trkpt lat="45.050077673986735" lon="10.750380010326827"><ele>22.0</ele><time>2026-04-24T08:53:49Z</time></trkpt><trkpt lat="45.04994464692781" lon="10.750310773654862"><ele>22.0</ele><time>2026-04-24T08:53:50Z</time></trkpt><trkpt lat="45.04980816759604" lon="10.750241366436176"><ele>22.0</ele><time>2026-04-24T08:53:51Z</time></trkpt><trkpt lat="45.04967532515309" lon="10.750177146515616"><ele>22.0</ele><time>2026-04-24T08:53:52Z</time></trkpt><trkpt lat="45.04954834157185" lon="10.750110227581581"><ele>22.0</ele><time>2026-04-24T08:53:53Z</time></trkpt><trkpt lat="45.049437626621405" lon="10.750047721561852"><ele>22.0</ele><time>2026-04-24T08:53:54Z</time></trkpt><trkpt lat="45.04933666840106" lon="10.74999280193077"><ele>22.0</ele><time>2026-04-24T08:53:55Z</time></trkpt><trkpt lat="45.04924638062109" lon="10.749940070801955"><ele>22.0</ele><time>2026-04-24T08:53:56Z</time></trkpt><trkpt lat="45.049168402478145" lon="10.749896523035245"><ele>22.0</ele><time>2026-04-24T08:53:57Z</time></trkpt><trkpt lat="45.04909439319337" lon="10.749862943806683"><ele>22.0</ele><time>2026-04-24T08:53:58Z</time></trkpt><trkpt lat="45.04902877804559" lon="10.749890557846308"><ele>22.0</ele><time>2026-04-24T08:53:59Z</time></trkpt><trkpt lat="45.04898763924929" lon="10.749977303049919"><ele>21.8</ele><time>2026-04-24T08:54:01Z</time></trkpt><trkpt lat="45.048983139318246" lon="10.750084444118807"><ele>21.6</ele><time>2026-04-24T08:54:03Z</time></trkpt><trkpt lat="45.04902281726193" lon="10.750222741470967"><ele>21.400000000000002</ele><time>2026-04-24T08:54:04Z</time></trkpt><trkpt lat="45.049075588370165" lon="10.750371050410733"><ele>21.200000000000003</ele><time>2026-04-24T08:54:05Z</time></trkpt><trkpt lat="45.04913118591472" lon="10.750512333883355"><ele>21.0</ele><time>2026-04-24T08:54:06Z</time></trkpt><trkpt lat="45.04915979245464" lon="10.750669361290484"><ele>21.5</ele><time>2026-04-24T08:54:07Z</time></trkpt><trkpt lat="45.04920041086443" lon="10.750824090565937"><ele>22.0</ele><time>2026-04-24T08:54:08Z</time></trkpt><trkpt lat="45.04922342948048" lon="10.75098926763024"><ele>22.5</ele><time>2026-04-24T08:54:09Z</time></trkpt><trkpt lat="45.04924660491482" lon="10.751169307250109"><ele>23.0</ele><time>2026-04-24T08:54:10Z</time></trkpt><trkpt lat="45.049268141686866" lon="10.751357653682922"><ele>23.0</ele><time>2026-04-24T08:54:11Z</time></trkpt><trkpt lat="45.049287874641465" lon="10.751545493297785"><ele>23.0</ele><time>2026-04-24T08:54:12Z</time></trkpt><trkpt lat="45.04930328203502" lon="10.751725447992008"><ele>23.0</ele><time>2026-04-24T08:54:13Z</time></trkpt><trkpt lat="45.04931626569064" lon="10.75190943795208"><ele>23.0</ele><time>2026-04-24T08:54:14Z</time></trkpt><trkpt lat="45.04933658406454" lon="10.752090677372562"><ele>23.0</ele><time>2026-04-24T08:54:15Z</time></trkpt><trkpt lat="45.0493126236294" lon="10.752238738337143"><ele>23.0</ele><time>2026-04-24T08:54:16Z</time></trkpt><trkpt lat="45.04929355965453" lon="10.75236681961238"><ele>23.0</ele><time>2026-04-24T08:54:17Z</time></trkpt><trkpt lat="45.04927175331418" lon="10.75247612032333"><ele>23.0</ele><time>2026-04-24T08:54:18Z</time></trkpt><trkpt lat="45.049248131173414" lon="10.752559957589398"><ele>23.0</ele><time>2026-04-24T08:54:19Z</time></trkpt><trkpt lat="45.04916107918149" lon="10.752605936629395"><ele>23.0</ele><time>2026-04-24T08:54:21Z</time></trkpt><trkpt lat="45.04913475151865" lon="10.752478885817494"><ele>22.5</ele><time>2026-04-24T08:54:22Z</time></trkpt><trkpt lat="45.049062528391914" lon="10.752414740025664"><ele>22.0</ele><time>2026-04-24T08:54:23Z</time></trkpt><trkpt lat="45.04894391809509" lon="10.752447947217252"><ele>21.5</ele><time>2026-04-24T08:54:24Z</time></trkpt><trkpt lat="45.04881821821045" lon="10.75247556118601"><ele>21.0</ele><time>2026-04-24T08:54:25Z</time></trkpt><trkpt lat="45.04866573950191" lon="10.752519964624264"><ele>21.0</ele><time>2026-04-24T08:54:26Z</time></trkpt><trkpt lat="45.04851394257601" lon="10.75255486120935"><ele>21.0</ele><time>2026-04-24T08:54:27Z</time></trkpt><trkpt lat="45.04835272904738" lon="10.752575985783414"><ele>21.0</ele><time>2026-04-24T08:54:28Z</time></trkpt><trkpt lat="45.04821231073046" lon="10.75247844388122"><ele>20.5</ele><time>2026-04-24T08:54:29Z</time></trkpt><trkpt lat="45.04807675998004" lon="10.752416340788967"><ele>20.0</ele><time>2026-04-24T08:54:30Z</time></trkpt><trkpt lat="45.047946711507784" lon="10.752374910544171"><ele>19.5</ele><time>2026-04-24T08:54:31Z</time></trkpt><trkpt lat="45.04783934430591" lon="10.752392042586248"><ele>19.0</ele><time>2026-04-24T08:54:32Z</time></trkpt><trkpt lat="45.04774955423895" lon="10.752461697636512"><ele>19.0</ele><time>2026-04-24T08:54:33Z</time></trkpt><trkpt lat="45.04765287031993" lon="10.75254073057806"><ele>19.0</ele><time>2026-04-24T08:54:34Z</time></trkpt><trkpt lat="45.04758461213942" lon="10.752680611649707"><ele>19.0</ele><time>2026-04-24T08:54:35Z</time></trkpt><trkpt lat="45.04753840774562" lon="10.752838712375079"><ele>19.0</ele><time>2026-04-24T08:54:36Z</time></trkpt><trkpt lat="45.04753353840416" lon="10.753017730631916"><ele>19.5</ele><time>2026-04-24T08:54:37Z</time></trkpt><trkpt lat="45.0475580640258" lon="10.753172155610155"><ele>20.0</ele><time>2026-04-24T08:54:38Z</time></trkpt><trkpt lat="45.04760643919126" lon="10.753322426760558"><ele>20.5</ele><time>2026-04-24T08:54:39Z</time></trkpt><trkpt lat="45.04767490259873" lon="10.753482175237114"><ele>21.0</ele><time>2026-04-24T08:54:40Z</time></trkpt><trkpt lat="45.04771927166321" lon="10.753626391335452"><ele>21.0</ele><time>2026-04-24T08:54:41Z</time></trkpt><trkpt lat="45.04777094549501" lon="10.753712114498846"><ele>21.0</ele><time>2026-04-24T08:54:42Z</time></trkpt><trkpt lat="45.047819152073906" lon="10.753781604961445"><ele>21.0</ele><time>2026-04-24T08:54:44Z</time></trkpt><trkpt lat="45.04792192894922" lon="10.75369692268773"><ele>21.0</ele><time>2026-04-24T08:54:45Z</time></trkpt><trkpt lat="45.04800903028565" lon="10.753633929860086"><ele>21.0</ele><time>2026-04-24T08:54:46Z</time></trkpt><trkpt lat="45.048106456280344" lon="10.753563445601014"><ele>20.75</ele><time>2026-04-24T08:54:47Z</time></trkpt><trkpt lat="45.0482179751654" lon="10.753483395252012"><ele>20.5</ele><time>2026-04-24T08:54:48Z</time></trkpt><trkpt lat="45.04833301110878" lon="10.753400969022223"><ele>20.25</ele><time>2026-04-24T08:54:49Z</time></trkpt><trkpt lat="45.04845497633474" lon="10.75331736788676"><ele>20.0</ele><time>2026-04-24T08:54:50Z</time></trkpt><trkpt lat="45.04858839014716" lon="10.753234922714155"><ele>20.0</ele><time>2026-04-24T08:54:51Z</time></trkpt><trkpt lat="45.048730318656304" lon="10.75316788992545"><ele>20.0</ele><time>2026-04-24T08:54:52Z</time></trkpt><trkpt lat="45.04886985349793" lon="10.753105157562466"><ele>20.0</ele><time>2026-04-24T08:54:53Z</time></trkpt><trkpt lat="45.04899552228192" lon="10.753057402127558"><ele>20.0</ele><time>2026-04-24T08:54:54Z</time></trkpt><trkpt lat="45.04910257158013" lon="10.75302002952431"><ele>20.166666666666668</ele><time>2026-04-24T08:54:55Z</time></trkpt><trkpt lat="45.04918539444018" lon="10.753006073105803"><ele>20.333333333333336</ele><time>2026-04-24T08:54:56Z</time></trkpt><trkpt lat="45.04924825488749" lon="10.75303089684222"><ele>20.5</ele><time>2026-04-24T08:54:57Z</time></trkpt><trkpt lat="45.04929467696773" lon="10.75310620239909"><ele>20.666666666666668</ele><time>2026-04-24T08:54:58Z</time></trkpt><trkpt lat="45.04932139848858" lon="10.753229553626044"><ele>20.833333333333332</ele><time>2026-04-24T08:54:59Z</time></trkpt><trkpt lat="45.04934099489286" lon="10.753382937003607"><ele>21.0</ele><time>2026-04-24T08:55:00Z</time></trkpt><trkpt lat="45.049357155829895" lon="10.753560562096073"><ele>21.0</ele><time>2026-04-24T08:55:01Z</time></trkpt><trkpt lat="45.049337253780855" lon="10.75375951067347"><ele>21.0</ele><time>2026-04-24T08:55:02Z</time></trkpt><trkpt lat="45.04935980086437" lon="10.753962116541553"><ele>21.0</ele><time>2026-04-24T08:55:03Z</time></trkpt><trkpt lat="45.04937867063432" lon="10.754180686116657"><ele>21.0</ele><time>2026-04-24T08:55:04Z</time></trkpt><trkpt lat="45.04939481845677" lon="10.754402143820878"><ele>21.4</ele><time>2026-04-24T08:55:05Z</time></trkpt><trkpt lat="45.049406702797846" lon="10.754598151165906"><ele>21.8</ele><time>2026-04-24T08:55:06Z</time></trkpt><trkpt lat="45.049414196552334" lon="10.754771099147872"><ele>22.2</ele><time>2026-04-24T08:55:07Z</time></trkpt><trkpt lat="45.049433596407326" lon="10.754904697516372"><ele>22.599999999999998</ele><time>2026-04-24T08:55:08Z</time></trkpt><trkpt lat="45.049428061442015" lon="10.754996672561854"><ele>23.0</ele><time>2026-04-24T08:55:09Z</time></trkpt><trkpt lat="45.04927626141216" lon="10.755063207486895"><ele>23.0</ele><time>2026-04-24T08:55:19Z</time></trkpt><trkpt lat="45.0491615990091" lon="10.755086674242884"><ele>23.0</ele><time>2026-04-24T08:55:20Z</time></trkpt><trkpt lat="45.04906327900387" lon="10.75510182277672"><ele>23.0</ele><time>2026-04-24T08:55:21Z</time></trkpt><trkpt lat="45.04895368743723" lon="10.75512432660861"><ele>23.0</ele><time>2026-04-24T08:55:22Z</time></trkpt><trkpt lat="45.04882982239876" lon="10.755152432910467"><ele>23.0</ele><time>2026-04-24T08:55:23Z</time></trkpt><trkpt lat="45.0486971206785" lon="10.755180539839024"><ele>23.0</ele><time>2026-04-24T08:55:24Z</time></trkpt><trkpt lat="45.04856053434649" lon="10.75520511063528"><ele>23.0</ele><time>2026-04-24T08:55:25Z</time></trkpt><trkpt lat="45.04841377030805" lon="10.755233058616517"><ele>23.0</ele><time>2026-04-24T08:55:26Z</time></trkpt><trkpt lat="45.048267509147564" lon="10.755252961257346"><ele>22.333333333333336</ele><time>2026-04-24T08:55:27Z</time></trkpt><trkpt lat="45.04811140931405" lon="10.755280829287198"><ele>21.666666666666668</ele><time>2026-04-24T08:55:28Z</time></trkpt><trkpt lat="45.04794999374739" lon="10.75531308779325"><ele>21.0</ele><time>2026-04-24T08:55:29Z</time></trkpt><trkpt lat="45.04778420995753" lon="10.755340028436242"><ele>21.0</ele><time>2026-04-24T08:55:30Z</time></trkpt><trkpt lat="45.04761973266396" lon="10.755362033435715"><ele>21.0</ele><time>2026-04-24T08:55:31Z</time></trkpt><trkpt lat="45.04744904990414" lon="10.755390775288"><ele>21.0</ele><time>2026-04-24T08:55:32Z</time></trkpt><trkpt lat="45.04726976166035" lon="10.755419942668693"><ele>19.333333333333332</ele><time>2026-04-24T08:55:33Z</time></trkpt><trkpt lat="45.047091990648696" lon="10.755451758413988"><ele>17.666666666666664</ele><time>2026-04-24T08:55:34Z</time></trkpt><trkpt lat="45.046916580773356" lon="10.755481584219046"><ele>16.0</ele><time>2026-04-24T08:55:35Z</time></trkpt><trkpt lat="45.04673977681086" lon="10.755511000851135"><ele>15.0</ele><time>2026-04-24T08:55:36Z</time></trkpt><trkpt lat="45.04656290261537" lon="10.755537399099454"><ele>14.0</ele><time>2026-04-24T08:55:37Z</time></trkpt><trkpt lat="45.04638689986873" lon="10.755563010487577"><ele>13.0</ele><time>2026-04-24T08:55:38Z</time></trkpt><trkpt lat="45.04621212705871" lon="10.755593292024193"><ele>13.0</ele><time>2026-04-24T08:55:39Z</time></trkpt><trkpt lat="45.04603776619396" lon="10.755623138997098"><ele>13.0</ele><time>2026-04-24T08:55:40Z</time></trkpt><trkpt lat="45.04586777564137" lon="10.75564821057951"><ele>13.0</ele><time>2026-04-24T08:55:41Z</time></trkpt><trkpt lat="45.04570064845041" lon="10.75567561332939"><ele>13.0</ele><time>2026-04-24T08:55:42Z</time></trkpt><trkpt lat="45.0455379254605" lon="10.75570239505188"><ele>13.0</ele><time>2026-04-24T08:55:43Z</time></trkpt><trkpt lat="45.04537779721894" lon="10.755725712107532"><ele>13.0</ele><time>2026-04-24T08:55:44Z</time></trkpt><trkpt lat="45.04523018577807" lon="10.755751948203763"><ele>13.0</ele><time>2026-04-24T08:55:45Z</time></trkpt><trkpt lat="45.04509238343736" lon="10.75577332250075"><ele>13.0</ele><time>2026-04-24T08:55:46Z</time></trkpt><trkpt lat="45.04495664783583" lon="10.755797239418854"><ele>13.0</ele><time>2026-04-24T08:55:47Z</time></trkpt><trkpt lat="45.044814087641896" lon="10.755821354947901"><ele>13.0</ele><time>2026-04-24T08:55:48Z</time></trkpt><trkpt lat="45.04467131120162" lon="10.755824077735106"><ele>14.5</ele><time>2026-04-24T08:55:49Z</time></trkpt><trkpt lat="45.04454021143326" lon="10.755843533993005"><ele>16.0</ele><time>2026-04-24T08:55:50Z</time></trkpt><trkpt lat="45.04441563693589" lon="10.755862977221048"><ele>17.5</ele><time>2026-04-24T08:55:51Z</time></trkpt><trkpt lat="45.04428737454953" lon="10.75588320362631"><ele>19.0</ele><time>2026-04-24T08:55:52Z</time></trkpt><trkpt lat="45.044147218523854" lon="10.755908766611398"><ele>20.0</ele><time>2026-04-24T08:55:53Z</time></trkpt><trkpt lat="45.0440050372704" lon="10.755935754079118"><ele>21.0</ele><time>2026-04-24T08:55:54Z</time></trkpt><trkpt lat="45.043882047084495" lon="10.755957767814975"><ele>22.0</ele><time>2026-04-24T08:55:55Z</time></trkpt><trkpt lat="45.04377825699437" lon="10.755973238103586"><ele>23.0</ele><time>2026-04-24T08:55:56Z</time></trkpt><trkpt lat="45.04370025420785" lon="10.755982915082368"><ele>23.0</ele><time>2026-04-24T08:55:57Z</time></trkpt><trkpt lat="45.04362958019003" lon="10.75601603313109"><ele>23.0</ele><time>2026-04-24T08:56:08Z</time></trkpt><trkpt lat="45.043536268401844" lon="10.756013637064783"><ele>23.0</ele><time>2026-04-24T08:56:10Z</time></trkpt><trkpt lat="45.04344120294794" lon="10.756023078191646"><ele>23.0</ele><time>2026-04-24T08:56:12Z</time></trkpt><trkpt lat="45.04336946094535" lon="10.756115381423587"><ele>23.0</ele><time>2026-04-24T08:56:14Z</time></trkpt><trkpt lat="45.04336416082488" lon="10.75630347656892"><ele>22.799999999999997</ele><time>2026-04-24T08:56:16Z</time></trkpt><trkpt lat="45.04337514341528" lon="10.756422962398425"><ele>22.6</ele><time>2026-04-24T08:56:17Z</time></trkpt><trkpt lat="45.04337495449113" lon="10.756557469527014"><ele>22.4</ele><time>2026-04-24T08:56:18Z</time></trkpt><trkpt lat="45.043374764373006" lon="10.75670816441305"><ele>22.200000000000003</ele><time>2026-04-24T08:56:19Z</time></trkpt><trkpt lat="45.043375184345564" lon="10.756866697568759"><ele>22.0</ele><time>2026-04-24T08:56:20Z</time></trkpt><trkpt lat="45.04336374685946" lon="10.75704063318987"><ele>22.0</ele><time>2026-04-24T08:56:21Z</time></trkpt><trkpt lat="45.04334000568947" lon="10.7572151938908"><ele>22.0</ele><time>2026-04-24T08:56:22Z</time></trkpt><trkpt lat="45.043308671550605" lon="10.757384095962776"><ele>22.0</ele><time>2026-04-24T08:56:23Z</time></trkpt><trkpt lat="45.04326789359011" lon="10.757555742461946"><ele>22.0</ele><time>2026-04-24T08:56:24Z</time></trkpt><trkpt lat="45.04321841839031" lon="10.757734161461324"><ele>21.25</ele><time>2026-04-24T08:56:25Z</time></trkpt><trkpt lat="45.04315201861957" lon="10.757910992956552"><ele>20.5</ele><time>2026-04-24T08:56:26Z</time></trkpt><trkpt lat="45.0430665717738" lon="10.758083966370826"><ele>19.75</ele><time>2026-04-24T08:56:27Z</time></trkpt><trkpt lat="45.0429699826638" lon="10.75824715889586"><ele>19.0</ele><time>2026-04-24T08:56:28Z</time></trkpt><trkpt lat="45.042857727732326" lon="10.758401712479898"><ele>18.666666666666664</ele><time>2026-04-24T08:56:29Z</time></trkpt><trkpt lat="45.042737814146115" lon="10.758550524823622"><ele>18.333333333333332</ele><time>2026-04-24T08:56:30Z</time></trkpt><trkpt lat="45.04259849960436" lon="10.7586683442465"><ele>18.0</ele><time>2026-04-24T08:56:31Z</time></trkpt><trkpt lat="45.04246104847235" lon="10.758786245873518"><ele>18.0</ele><time>2026-04-24T08:56:32Z</time></trkpt><trkpt lat="45.042316055916366" lon="10.75888824375653"><ele>18.0</ele><time>2026-04-24T08:56:33Z</time></trkpt><trkpt lat="45.04216568759415" lon="10.75897089717126"><ele>18.0</ele><time>2026-04-24T08:56:34Z</time></trkpt><trkpt lat="45.0420128642252" lon="10.759041942466782"><ele>18.0</ele><time>2026-04-24T08:56:35Z</time></trkpt><trkpt lat="45.04185523855832" lon="10.75910275154559"><ele>18.0</ele><time>2026-04-24T08:56:36Z</time></trkpt><trkpt lat="45.04169688500822" lon="10.759151165498489"><ele>18.0</ele><time>2026-04-24T08:56:37Z</time></trkpt><trkpt lat="45.041538015660755" lon="10.759193891333151"><ele>17.666666666666668</ele><time>2026-04-24T08:56:38Z</time></trkpt><trkpt lat="45.04138086905601" lon="10.759232215227657"><ele>17.333333333333336</ele><time>2026-04-24T08:56:39Z</time></trkpt><trkpt lat="45.04122686290205" lon="10.759288901245398"><ele>17.0</ele><time>2026-04-24T08:56:40Z</time></trkpt><trkpt lat="45.04107088342016" lon="10.759319627227821"><ele>17.0</ele><time>2026-04-24T08:56:41Z</time></trkpt><trkpt lat="45.04091378742583" lon="10.759351360631456"><ele>17.0</ele><time>2026-04-24T08:56:42Z</time></trkpt><trkpt lat="45.04075664261352" lon="10.759380710195417"><ele>17.0</ele><time>2026-04-24T08:56:43Z</time></trkpt><trkpt lat="45.040601386413634" lon="10.759409360755011"><ele>17.0</ele><time>2026-04-24T08:56:44Z</time></trkpt><trkpt lat="45.040444946544696" lon="10.759444687650676"><ele>17.0</ele><time>2026-04-24T08:56:45Z</time></trkpt><trkpt lat="45.04029136675648" lon="10.759482683711564"><ele>17.0</ele><time>2026-04-24T08:56:46Z</time></trkpt><trkpt lat="45.040138188866635" lon="10.759517372621005"><ele>17.0</ele><time>2026-04-24T08:56:47Z</time></trkpt><trkpt lat="45.03998628329243" lon="10.759554945464101"><ele>17.0</ele><time>2026-04-24T08:56:48Z</time></trkpt><trkpt lat="45.03983687691714" lon="10.759588192709872"><ele>17.0</ele><time>2026-04-24T08:56:49Z</time></trkpt><trkpt lat="45.039687751049115" lon="10.75961940270293"><ele>17.333333333333336</ele><time>2026-04-24T08:56:50Z</time></trkpt><trkpt lat="45.039539505452815" lon="10.759647272627689"><ele>17.666666666666668</ele><time>2026-04-24T08:56:51Z</time></trkpt><trkpt lat="45.03938472747524" lon="10.75967978627002"><ele>18.0</ele><time>2026-04-24T08:56:52Z</time></trkpt><trkpt lat="45.039228499837904" lon="10.759712530340218"><ele>18.0</ele><time>2026-04-24T08:56:53Z</time></trkpt><trkpt lat="45.03907425003126" lon="10.759746054697581"><ele>18.0</ele><time>2026-04-24T08:56:54Z</time></trkpt><trkpt lat="45.03892381535849" lon="10.7597831743376"><ele>18.0</ele><time>2026-04-24T08:56:55Z</time></trkpt><trkpt lat="45.03877641987676" lon="10.759817761650568"><ele>18.0</ele><time>2026-04-24T08:56:56Z</time></trkpt><trkpt lat="45.038630235868524" lon="10.75985133297622"><ele>18.0</ele><time>2026-04-24T08:56:57Z</time></trkpt><trkpt lat="45.038483697056996" lon="10.759881571465575"><ele>18.0</ele><time>2026-04-24T08:56:58Z</time></trkpt><trkpt lat="45.03819067280307" lon="10.759940766338277"><ele>17.333333333333332</ele><time>2026-04-24T08:57:00Z</time></trkpt><trkpt lat="45.03803903795403" lon="10.759980306342925"><ele>16.666666666666664</ele><time>2026-04-24T08:57:01Z</time></trkpt><trkpt lat="45.03788404360338" lon="10.760019692612403"><ele>16.0</ele><time>2026-04-24T08:57:02Z</time></trkpt><trkpt lat="45.037725786290906" lon="10.760057131419059"><ele>16.0</ele><time>2026-04-24T08:57:03Z</time></trkpt><trkpt lat="45.03756887094782" lon="10.760095343442691"><ele>16.0</ele><time>2026-04-24T08:57:04Z</time></trkpt><trkpt lat="45.03741117861181" lon="10.760133182905705"><ele>16.0</ele><time>2026-04-24T08:57:05Z</time></trkpt><trkpt lat="45.03726041452448" lon="10.760166850251375"><ele>16.0</ele><time>2026-04-24T08:57:06Z</time></trkpt><trkpt lat="45.03712154878924" lon="10.760197055489911"><ele>16.0</ele><time>2026-04-24T08:57:07Z</time></trkpt><trkpt lat="45.03698026050601" lon="10.76022395455732"><ele>16.0</ele><time>2026-04-24T08:57:08Z</time></trkpt><trkpt lat="45.036841300302164" lon="10.760253993234002"><ele>16.0</ele><time>2026-04-24T08:57:09Z</time></trkpt><trkpt lat="45.03669753582749" lon="10.760291038965615"><ele>16.0</ele><time>2026-04-24T08:57:10Z</time></trkpt><trkpt lat="45.03656019339162" lon="10.76032247030475"><ele>16.0</ele><time>2026-04-24T08:57:11Z</time></trkpt><trkpt lat="45.03643502796429" lon="10.76034998931588"><ele>16.0</ele><time>2026-04-24T08:57:12Z</time></trkpt><trkpt lat="45.03631844843418" lon="10.760372880485994"><ele>16.0</ele><time>2026-04-24T08:57:13Z</time></trkpt><trkpt lat="45.03620986565291" lon="10.76039501608325"><ele>16.0</ele><time>2026-04-24T08:57:14Z</time></trkpt><trkpt lat="45.03610167767" lon="10.760422217222972"><ele>16.0</ele><time>2026-04-24T08:57:15Z</time></trkpt><trkpt lat="45.03598224473577" lon="10.760455863775976"><ele>16.0</ele><time>2026-04-24T08:57:16Z</time></trkpt><trkpt lat="45.03585212754054" lon="10.760488372106424"><ele>16.0</ele><time>2026-04-24T08:57:17Z</time></trkpt><trkpt lat="45.03572034288277" lon="10.760531641976288"><ele>16.0</ele><time>2026-04-24T08:57:18Z</time></trkpt><trkpt lat="45.0355857331547" lon="10.760581394641187"><ele>16.0</ele><time>2026-04-24T08:57:19Z</time></trkpt><trkpt lat="45.035449528036146" lon="10.760636753594762"><ele>16.0</ele><time>2026-04-24T08:57:20Z</time></trkpt><trkpt lat="45.03531150426805" lon="10.760700722961046"><ele>16.0</ele><time>2026-04-24T08:57:21Z</time></trkpt><trkpt lat="45.03517554187719" lon="10.760774564187859"><ele>16.0</ele><time>2026-04-24T08:57:22Z</time></trkpt><trkpt lat="45.03503980974998" lon="10.760851479762055"><ele>16.0</ele><time>2026-04-24T08:57:23Z</time></trkpt><trkpt lat="45.03491333452074" lon="10.760940330117503"><ele>16.0</ele><time>2026-04-24T08:57:24Z</time></trkpt><trkpt lat="45.03478854212015" lon="10.76103373876469"><ele>16.0</ele><time>2026-04-24T08:57:25Z</time></trkpt><trkpt lat="45.03467307978764" lon="10.76113128477478"><ele>16.25</ele><time>2026-04-24T08:57:26Z</time></trkpt><trkpt lat="45.034565061369385" lon="10.761228538758145"><ele>16.5</ele><time>2026-04-24T08:57:27Z</time></trkpt><trkpt lat="45.034469879980676" lon="10.761322505993364"><ele>16.75</ele><time>2026-04-24T08:57:28Z</time></trkpt><trkpt lat="45.03437412642111" lon="10.761415107799131"><ele>17.0</ele><time>2026-04-24T08:57:29Z</time></trkpt><trkpt lat="45.034269477123495" lon="10.761509669470264"><ele>17.0</ele><time>2026-04-24T08:57:30Z</time></trkpt><trkpt lat="45.03415986693888" lon="10.761609391115257"><ele>17.0</ele><time>2026-04-24T08:57:31Z</time></trkpt><trkpt lat="45.03404727777868" lon="10.76171556273438"><ele>17.0</ele><time>2026-04-24T08:57:32Z</time></trkpt><trkpt lat="45.033934132302456" lon="10.761824975430558"><ele>17.0</ele><time>2026-04-24T08:57:33Z</time></trkpt><trkpt lat="45.03380717578977" lon="10.761922091903605"><ele>17.333333333333336</ele><time>2026-04-24T08:57:34Z</time></trkpt><trkpt lat="45.03367746986285" lon="10.762041369964058"><ele>17.666666666666668</ele><time>2026-04-24T08:57:35Z</time></trkpt><trkpt lat="45.03353697152503" lon="10.762170767795949"><ele>18.0</ele><time>2026-04-24T08:57:36Z</time></trkpt><trkpt lat="45.03338868139815" lon="10.762308932873323"><ele>18.333333333333332</ele><time>2026-04-24T08:57:37Z</time></trkpt><trkpt lat="45.03323619827423" lon="10.762451004614737"><ele>18.666666666666664</ele><time>2026-04-24T08:57:38Z</time></trkpt><trkpt lat="45.03308066700952" lon="10.762595915949564"><ele>19.0</ele><time>2026-04-24T08:57:39Z</time></trkpt><trkpt lat="45.03294561925741" lon="10.762765822661443"><ele>18.333333333333332</ele><time>2026-04-24T08:57:40Z</time></trkpt><trkpt lat="45.032802735739516" lon="10.76289097857715"><ele>17.666666666666668</ele><time>2026-04-24T08:57:41Z</time></trkpt><trkpt lat="45.032669992610636" lon="10.763005981213833"><ele>17.0</ele><time>2026-04-24T08:57:42Z</time></trkpt><trkpt lat="45.032546729229175" lon="10.76311308283317"><ele>17.5</ele><time>2026-04-24T08:57:43Z</time></trkpt><trkpt lat="45.03243195361152" lon="10.763218740972691"><ele>18.0</ele><time>2026-04-24T08:57:44Z</time></trkpt><trkpt lat="45.032316770368766" lon="10.763322526255166"><ele>18.5</ele><time>2026-04-24T08:57:45Z</time></trkpt><trkpt lat="45.03219549845179" lon="10.763425221525674"><ele>19.0</ele><time>2026-04-24T08:57:46Z</time></trkpt><trkpt lat="45.03208335457746" lon="10.763528227998462"><ele>19.0</ele><time>2026-04-24T08:57:47Z</time></trkpt><trkpt lat="45.031980061579816" lon="10.763626372046895"><ele>19.0</ele><time>2026-04-24T08:57:48Z</time></trkpt><trkpt lat="45.03188409779717" lon="10.763712819399329"><ele>19.0</ele><time>2026-04-24T08:57:49Z</time></trkpt><trkpt lat="45.03179842939453" lon="10.763791558392654"><ele>19.0</ele><time>2026-04-24T08:57:50Z</time></trkpt><trkpt lat="45.03171858097599" lon="10.763858825260952"><ele>19.0</ele><time>2026-04-24T08:57:51Z</time></trkpt><trkpt lat="45.03163943159167" lon="10.763926791628988"><ele>19.0</ele><time>2026-04-24T08:57:52Z</time></trkpt><trkpt lat="45.031566178887175" lon="10.763990859374216"><ele>19.0</ele><time>2026-04-24T08:57:53Z</time></trkpt><trkpt lat="45.03149852001779" lon="10.764048313417822"><ele>19.0</ele><time>2026-04-24T08:57:54Z</time></trkpt><trkpt lat="45.03143718101329" lon="10.764106026604066"><ele>19.0</ele><time>2026-04-24T08:57:55Z</time></trkpt><trkpt lat="45.03137562512728" lon="10.764174090991665"><ele>19.0</ele><time>2026-04-24T08:57:56Z</time></trkpt><trkpt lat="45.03131184649019" lon="10.764229638465473"><ele>19.0</ele><time>2026-04-24T08:57:57Z</time></trkpt><trkpt lat="45.031252047940605" lon="10.764272927766216"><ele>19.0</ele><time>2026-04-24T08:57:58Z</time></trkpt><trkpt lat="45.031168021966316" lon="10.764329774920139"><ele>19.0</ele><time>2026-04-24T08:58:00Z</time></trkpt><trkpt lat="45.031081764586" lon="10.764343738172634"><ele>19.0</ele><time>2026-04-24T08:58:02Z</time></trkpt><trkpt lat="45.03096062639527" lon="10.764333151760557"><ele>19.0</ele><time>2026-04-24T08:58:04Z</time></trkpt><trkpt lat="45.03088302135682" lon="10.764340667715482"><ele>19.0</ele><time>2026-04-24T08:58:05Z</time></trkpt><trkpt lat="45.030810226216815" lon="10.764382912087832"><ele>18.599999999999998</ele><time>2026-04-24T08:58:06Z</time></trkpt><trkpt lat="45.03075145262901" lon="10.764463832884953"><ele>18.2</ele><time>2026-04-24T08:58:07Z</time></trkpt><trkpt lat="45.03071203418889" lon="10.764567798688075"><ele>17.799999999999997</ele><time>2026-04-24T08:58:08Z</time></trkpt><trkpt lat="45.03067584343473" lon="10.764692229161426"><ele>17.4</ele><time>2026-04-24T08:58:09Z</time></trkpt><trkpt lat="45.03061695450368" lon="10.764827847584474"><ele>17.0</ele><time>2026-04-24T08:58:10Z</time></trkpt><trkpt lat="45.03054267031166" lon="10.764971024183039"><ele>17.0</ele><time>2026-04-24T08:58:11Z</time></trkpt><trkpt lat="45.030412779900054" lon="10.765054065122069"><ele>17.0</ele><time>2026-04-24T08:58:12Z</time></trkpt><trkpt lat="45.03029572814126" lon="10.765161628179154"><ele>17.0</ele><time>2026-04-24T08:58:13Z</time></trkpt><trkpt lat="45.030183012700114" lon="10.765278956845888"><ele>17.0</ele><time>2026-04-24T08:58:14Z</time></trkpt><trkpt lat="45.03006386151474" lon="10.765387446893593"><ele>17.25</ele><time>2026-04-24T08:58:15Z</time></trkpt><trkpt lat="45.029943794379804" lon="10.765503102489006"><ele>17.5</ele><time>2026-04-24T08:58:16Z</time></trkpt><trkpt lat="45.02982074968751" lon="10.765618531444737"><ele>17.75</ele><time>2026-04-24T08:58:17Z</time></trkpt><trkpt lat="45.029697868945156" lon="10.765735891490978"><ele>18.0</ele><time>2026-04-24T08:58:18Z</time></trkpt><trkpt lat="45.02957668378689" lon="10.765852023180749"><ele>18.0</ele><time>2026-04-24T08:58:19Z</time></trkpt><trkpt lat="45.02945607829854" lon="10.765963689516722"><ele>18.0</ele><time>2026-04-24T08:58:20Z</time></trkpt><trkpt lat="45.02934160493254" lon="10.76606819421303"><ele>18.0</ele><time>2026-04-24T08:58:21Z</time></trkpt><trkpt lat="45.029235917615715" lon="10.766167240761911"><ele>18.0</ele><time>2026-04-24T08:58:22Z</time></trkpt><trkpt lat="45.02912569717316" lon="10.766256368148065"><ele>17.75</ele><time>2026-04-24T08:58:23Z</time></trkpt><trkpt lat="45.02902235152476" lon="10.766349412667125"><ele>17.5</ele><time>2026-04-24T08:58:24Z</time></trkpt><trkpt lat="45.0289186025281" lon="10.766449549529266"><ele>17.25</ele><time>2026-04-24T08:58:25Z</time></trkpt><trkpt lat="45.02882087471219" lon="10.766540557323738"><ele>17.0</ele><time>2026-04-24T08:58:26Z</time></trkpt><trkpt lat="45.02873360256246" lon="10.766615984870006"><ele>17.0</ele><time>2026-04-24T08:58:27Z</time></trkpt><trkpt lat="45.02864739203686" lon="10.766700564506776"><ele>17.0</ele><time>2026-04-24T08:58:28Z</time></trkpt><trkpt lat="45.028550447222436" lon="10.766785913042977"><ele>17.0</ele><time>2026-04-24T08:58:29Z</time></trkpt><trkpt lat="45.02844989243593" lon="10.766874680643182"><ele>17.0</ele><time>2026-04-24T08:58:30Z</time></trkpt><trkpt lat="45.02834757063304" lon="10.766965913926484"><ele>18.0</ele><time>2026-04-24T08:58:31Z</time></trkpt><trkpt lat="45.02824320524744" lon="10.767048793488797"><ele>19.0</ele><time>2026-04-24T08:58:32Z</time></trkpt><trkpt lat="45.02814518447643" lon="10.767123900325242"><ele>20.0</ele><time>2026-04-24T08:58:33Z</time></trkpt><trkpt lat="45.02804765138024" lon="10.767193381069392"><ele>21.0</ele><time>2026-04-24T08:58:34Z</time></trkpt><trkpt lat="45.027947233841026" lon="10.767260473389705"><ele>21.0</ele><time>2026-04-24T08:58:35Z</time></trkpt><trkpt lat="45.02784477244924" lon="10.767322229493592"><ele>21.0</ele><time>2026-04-24T08:58:36Z</time></trkpt><trkpt lat="45.02774186690342" lon="10.767381112350972"><ele>21.0</ele><time>2026-04-24T08:58:37Z</time></trkpt><trkpt lat="45.02763830410556" lon="10.767434650495726"><ele>21.0</ele><time>2026-04-24T08:58:38Z</time></trkpt><trkpt lat="45.027533982228476" lon="10.767485560823522"><ele>21.0</ele><time>2026-04-24T08:58:39Z</time></trkpt><trkpt lat="45.027428556713645" lon="10.767542952988132"><ele>21.0</ele><time>2026-04-24T08:58:40Z</time></trkpt><trkpt lat="45.02731940579732" lon="10.767590688136016"><ele>21.0</ele><time>2026-04-24T08:58:41Z</time></trkpt><trkpt lat="45.02720295783855" lon="10.767631017978866"><ele>21.0</ele><time>2026-04-24T08:58:42Z</time></trkpt><trkpt lat="45.02708564310306" lon="10.7676725235361"><ele>21.0</ele><time>2026-04-24T08:58:43Z</time></trkpt><trkpt lat="45.02697850767848" lon="10.76770786731635"><ele>20.6</ele><time>2026-04-24T08:58:44Z</time></trkpt><trkpt lat="45.026876103620026" lon="10.767734256627598"><ele>20.200000000000003</ele><time>2026-04-24T08:58:45Z</time></trkpt><trkpt lat="45.02676594507353" lon="10.76775867805667"><ele>19.799999999999997</ele><time>2026-04-24T08:58:46Z</time></trkpt><trkpt lat="45.02665741255879" lon="10.76778001362734"><ele>19.4</ele><time>2026-04-24T08:58:47Z</time></trkpt><trkpt lat="45.02654470862416" lon="10.767797610126976"><ele>19.0</ele><time>2026-04-24T08:58:48Z</time></trkpt><trkpt lat="45.02642688148007" lon="10.767813848179449"><ele>18.75</ele><time>2026-04-24T08:58:49Z</time></trkpt><trkpt lat="45.026299364704016" lon="10.767831770912625"><ele>18.5</ele><time>2026-04-24T08:58:50Z</time></trkpt><trkpt lat="45.026168184797505" lon="10.767844825568671"><ele>18.25</ele><time>2026-04-24T08:58:51Z</time></trkpt><trkpt lat="45.02603659971541" lon="10.767848714559381"><ele>18.0</ele><time>2026-04-24T08:58:52Z</time></trkpt><trkpt lat="45.02590105280819" lon="10.767847147003001"><ele>17.5</ele><time>2026-04-24T08:58:53Z</time></trkpt><trkpt lat="45.02576528235267" lon="10.76781417912948"><ele>17.0</ele><time>2026-04-24T08:58:54Z</time></trkpt><trkpt lat="45.02562837316556" lon="10.767821586030964"><ele>16.5</ele><time>2026-04-24T08:58:55Z</time></trkpt><trkpt lat="45.02549475066829" lon="10.76780085315013"><ele>16.0</ele><time>2026-04-24T08:58:56Z</time></trkpt><trkpt lat="45.02536928309059" lon="10.767780872262287"><ele>16.0</ele><time>2026-04-24T08:58:57Z</time></trkpt><trkpt lat="45.025248790108364" lon="10.767764187671347"><ele>16.0</ele><time>2026-04-24T08:58:58Z</time></trkpt><trkpt lat="45.02513129778814" lon="10.767747757262757"><ele>16.0</ele><time>2026-04-24T08:58:59Z</time></trkpt><trkpt lat="45.025024496730204" lon="10.767728724653082"><ele>16.0</ele><time>2026-04-24T08:59:00Z</time></trkpt><trkpt lat="45.02491218717009" lon="10.767709693299945"><ele>16.0</ele><time>2026-04-24T08:59:01Z</time></trkpt><trkpt lat="45.0247902324788" lon="10.767694629714699"><ele>16.0</ele><time>2026-04-24T08:59:02Z</time></trkpt><trkpt lat="45.02466509237261" lon="10.767677771849847"><ele>16.0</ele><time>2026-04-24T08:59:03Z</time></trkpt><trkpt lat="45.024550664833015" lon="10.76765916002612"><ele>16.0</ele><time>2026-04-24T08:59:04Z</time></trkpt><trkpt lat="45.02443324184874" lon="10.767642020159363"><ele>16.25</ele><time>2026-04-24T08:59:05Z</time></trkpt><trkpt lat="45.02430967177483" lon="10.767623592520103"><ele>16.5</ele><time>2026-04-24T08:59:06Z</time></trkpt><trkpt lat="45.02418852328986" lon="10.767604063087813"><ele>16.75</ele><time>2026-04-24T08:59:07Z</time></trkpt><trkpt lat="45.02407354838557" lon="10.767592074392056"><ele>17.0</ele><time>2026-04-24T08:59:08Z</time></trkpt><trkpt lat="45.02394499190556" lon="10.767576318256681"><ele>17.0</ele><time>2026-04-24T08:59:09Z</time></trkpt><trkpt lat="45.02381496719967" lon="10.767573225430649"><ele>17.0</ele><time>2026-04-24T08:59:10Z</time></trkpt><trkpt lat="45.02369372153981" lon="10.767563067396635"><ele>17.0</ele><time>2026-04-24T08:59:11Z</time></trkpt><trkpt lat="45.02359758863589" lon="10.767532358762335"><ele>17.0</ele><time>2026-04-24T08:59:12Z</time></trkpt><trkpt lat="45.023523112655866" lon="10.767523960093921"><ele>17.0</ele><time>2026-04-24T08:59:13Z</time></trkpt><trkpt lat="45.023425241289125" lon="10.767513008794989"><ele>16.75</ele><time>2026-04-24T08:59:15Z</time></trkpt><trkpt lat="45.02336826448811" lon="10.767706454447342"><ele>16.5</ele><time>2026-04-24T08:59:16Z</time></trkpt><trkpt lat="45.023358451706095" lon="10.767864268333952"><ele>16.25</ele><time>2026-04-24T08:59:17Z</time></trkpt><trkpt lat="45.02334951905978" lon="10.768023428668998"><ele>16.0</ele><time>2026-04-24T08:59:18Z</time></trkpt><trkpt lat="45.02334082759894" lon="10.76821163653412"><ele>16.0</ele><time>2026-04-24T08:59:19Z</time></trkpt><trkpt lat="45.023329064464264" lon="10.768402591175747"><ele>16.0</ele><time>2026-04-24T08:59:20Z</time></trkpt><trkpt lat="45.02332079766658" lon="10.768593484687058"><ele>16.0</ele><time>2026-04-24T08:59:21Z</time></trkpt><trkpt lat="45.02331030598058" lon="10.768782332062656"><ele>16.0</ele><time>2026-04-24T08:59:22Z</time></trkpt><trkpt lat="45.02330287242527" lon="10.768964982168782"><ele>16.2</ele><time>2026-04-24T08:59:23Z</time></trkpt><trkpt lat="45.02329544835631" lon="10.769119796035197"><ele>16.400000000000002</ele><time>2026-04-24T08:59:24Z</time></trkpt><trkpt lat="45.023291058685096" lon="10.769258950176138"><ele>16.6</ele><time>2026-04-24T08:59:25Z</time></trkpt><trkpt lat="45.023294068314236" lon="10.769386764015925"><ele>16.8</ele><time>2026-04-24T08:59:26Z</time></trkpt><trkpt lat="45.02332333853733" lon="10.769514588126768"><ele>17.0</ele><time>2026-04-24T08:59:27Z</time></trkpt><trkpt lat="45.0233877087033" lon="10.769646820297941"><ele>17.0</ele><time>2026-04-24T08:59:28Z</time></trkpt><trkpt lat="45.02348350167272" lon="10.76976712977709"><ele>17.0</ele><time>2026-04-24T08:59:29Z</time></trkpt><trkpt lat="45.02359775718092" lon="10.769876942435886"><ele>17.0</ele><time>2026-04-24T08:59:30Z</time></trkpt><trkpt lat="45.02373216017686" lon="10.769981223354312"><ele>17.0</ele><time>2026-04-24T08:59:31Z</time></trkpt><trkpt lat="45.0238844929511" lon="10.770072576741656"><ele>17.0</ele><time>2026-04-24T08:59:32Z</time></trkpt><trkpt lat="45.02403252974189" lon="10.770148337880388"><ele>17.0</ele><time>2026-04-24T08:59:33Z</time></trkpt><trkpt lat="45.0241739727736" lon="10.77021991096505"><ele>17.0</ele><time>2026-04-24T08:59:34Z</time></trkpt><trkpt lat="45.0242981422547" lon="10.770283513382239"><ele>17.0</ele><time>2026-04-24T08:59:35Z</time></trkpt><trkpt lat="45.02440697442557" lon="10.770345633284135"><ele>17.25</ele><time>2026-04-24T08:59:36Z</time></trkpt><trkpt lat="45.024498350400066" lon="10.770422380411583"><ele>17.5</ele><time>2026-04-24T08:59:37Z</time></trkpt><trkpt lat="45.02457798992381" lon="10.770522911840219"><ele>17.75</ele><time>2026-04-24T08:59:38Z</time></trkpt><trkpt lat="45.024622513591105" lon="10.770682769924143"><ele>18.0</ele><time>2026-04-24T08:59:39Z</time></trkpt><trkpt lat="45.024661137476436" lon="10.770849464492382"><ele>18.0</ele><time>2026-04-24T08:59:40Z</time></trkpt><trkpt lat="45.02467703066171" lon="10.77104525135282"><ele>18.0</ele><time>2026-04-24T08:59:41Z</time></trkpt><trkpt lat="45.024695343315386" lon="10.771262132621882"><ele>18.0</ele><time>2026-04-24T08:59:42Z</time></trkpt><trkpt lat="45.024719121169774" lon="10.771483039996259"><ele>18.0</ele><time>2026-04-24T08:59:43Z</time></trkpt><trkpt lat="45.02476101021396" lon="10.771707946126263"><ele>18.0</ele><time>2026-04-24T08:59:44Z</time></trkpt><trkpt lat="45.024786979888866" lon="10.77193939735299"><ele>18.0</ele><time>2026-04-24T08:59:45Z</time></trkpt><trkpt lat="45.02481606724021" lon="10.772168006066243"><ele>17.666666666666668</ele><time>2026-04-24T08:59:46Z</time></trkpt><trkpt lat="45.02483566358356" lon="10.77240430540356"><ele>17.333333333333336</ele><time>2026-04-24T08:59:47Z</time></trkpt><trkpt lat="45.024868432056486" lon="10.772633909121506"><ele>17.0</ele><time>2026-04-24T08:59:48Z</time></trkpt><trkpt lat="45.02491183542317" lon="10.772856010143563"><ele>17.0</ele><time>2026-04-24T08:59:49Z</time></trkpt><trkpt lat="45.02494652445651" lon="10.77308291825827"><ele>17.0</ele><time>2026-04-24T08:59:50Z</time></trkpt><trkpt lat="45.02498400657738" lon="10.77330764207529"><ele>17.0</ele><time>2026-04-24T08:59:51Z</time></trkpt><trkpt lat="45.02502158167901" lon="10.77352453310507"><ele>16.666666666666668</ele><time>2026-04-24T08:59:52Z</time></trkpt><trkpt lat="45.02505934209292" lon="10.773742901987735"><ele>16.333333333333332</ele><time>2026-04-24T08:59:53Z</time></trkpt><trkpt lat="45.02509833024698" lon="10.773963604624154"><ele>16.0</ele><time>2026-04-24T08:59:54Z</time></trkpt><trkpt lat="45.025138622926576" lon="10.774186488780556"><ele>16.0</ele><time>2026-04-24T08:59:55Z</time></trkpt><trkpt lat="45.025179521666864" lon="10.774421714195038"><ele>16.0</ele><time>2026-04-24T08:59:56Z</time></trkpt><trkpt lat="45.02522605339439" lon="10.774670425624054"><ele>16.0</ele><time>2026-04-24T08:59:57Z</time></trkpt><trkpt lat="45.02527261918355" lon="10.774913016920319"><ele>16.0</ele><time>2026-04-24T08:59:58Z</time></trkpt><trkpt lat="45.02531185022726" lon="10.775154475119306"><ele>16.0</ele><time>2026-04-24T08:59:59Z</time></trkpt><trkpt lat="45.02530681534485" lon="10.775377317087374"><ele>16.0</ele><time>2026-04-24T09:00:00Z</time></trkpt><trkpt lat="45.025320402413335" lon="10.775594639432894"><ele>17.0</ele><time>2026-04-24T09:00:01Z</time></trkpt><trkpt lat="45.02535929684869" lon="10.775817715820342"><ele>18.0</ele><time>2026-04-24T09:00:02Z</time></trkpt><trkpt lat="45.025437804006685" lon="10.776042649162568"><ele>19.0</ele><time>2026-04-24T09:00:03Z</time></trkpt><trkpt lat="45.02550892514066" lon="10.776276975434802"><ele>19.333333333333332</ele><time>2026-04-24T09:00:04Z</time></trkpt><trkpt lat="45.025590077273726" lon="10.776515000774626"><ele>19.666666666666668</ele><time>2026-04-24T09:00:05Z</time></trkpt><trkpt lat="45.02567425924756" lon="10.776734684640429"><ele>20.0</ele><time>2026-04-24T09:00:06Z</time></trkpt><trkpt lat="45.02574800476533" lon="10.776938472288284"><ele>19.666666666666668</ele><time>2026-04-24T09:00:07Z</time></trkpt><trkpt lat="45.02582112744067" lon="10.777138231999942"><ele>19.333333333333332</ele><time>2026-04-24T09:00:08Z</time></trkpt><trkpt lat="45.025889879370695" lon="10.777345136462468"><ele>19.0</ele><time>2026-04-24T09:00:09Z</time></trkpt><trkpt lat="45.02595803575069" lon="10.777560262982984"><ele>19.0</ele><time>2026-04-24T09:00:10Z</time></trkpt><trkpt lat="45.026026760611835" lon="10.777777284369586"><ele>19.0</ele><time>2026-04-24T09:00:11Z</time></trkpt><trkpt lat="45.02609466280658" lon="10.777995497388236"><ele>19.0</ele><time>2026-04-24T09:00:12Z</time></trkpt><trkpt lat="45.026131736682295" lon="10.778204254539252"><ele>19.0</ele><time>2026-04-24T09:00:13Z</time></trkpt><trkpt lat="45.026171686374695" lon="10.778396002983397"><ele>19.0</ele><time>2026-04-24T09:00:14Z</time></trkpt><trkpt lat="45.02619929364225" lon="10.77859072888496"><ele>19.0</ele><time>2026-04-24T09:00:15Z</time></trkpt><trkpt lat="45.02621314096217" lon="10.778800072845126"><ele>19.0</ele><time>2026-04-24T09:00:16Z</time></trkpt><trkpt lat="45.026214861463174" lon="10.779020936240373"><ele>18.666666666666664</ele><time>2026-04-24T09:00:17Z</time></trkpt><trkpt lat="45.026209998624786" lon="10.779258636458607"><ele>18.333333333333332</ele><time>2026-04-24T09:00:18Z</time></trkpt><trkpt lat="45.026194854913406" lon="10.779506693371085"><ele>18.0</ele><time>2026-04-24T09:00:19Z</time></trkpt><trkpt lat="45.026166121871526" lon="10.77976562059666"><ele>18.0</ele><time>2026-04-24T09:00:20Z</time></trkpt><trkpt lat="45.0261309702898" lon="10.780034816187785"><ele>18.0</ele><time>2026-04-24T09:00:21Z</time></trkpt><trkpt lat="45.02609302214663" lon="10.780312849028746"><ele>18.0</ele><time>2026-04-24T09:00:22Z</time></trkpt><trkpt lat="45.026052801791444" lon="10.78058900072935"><ele>18.0</ele><time>2026-04-24T09:00:23Z</time></trkpt><trkpt lat="45.026023375696674" lon="10.780864529269314"><ele>18.0</ele><time>2026-04-24T09:00:24Z</time></trkpt><trkpt lat="45.02597367713828" lon="10.781128015934534"><ele>18.0</ele><time>2026-04-24T09:00:25Z</time></trkpt><trkpt lat="45.02591515620759" lon="10.781397771303581"><ele>18.0</ele><time>2026-04-24T09:00:26Z</time></trkpt><trkpt lat="45.02582773686772" lon="10.78166016049562"><ele>18.0</ele><time>2026-04-24T09:00:27Z</time></trkpt><trkpt lat="45.025741636708865" lon="10.78192394717029"><ele>18.0</ele><time>2026-04-24T09:00:28Z</time></trkpt><trkpt lat="45.02564763516203" lon="10.782174989821925"><ele>18.0</ele><time>2026-04-24T09:00:29Z</time></trkpt><trkpt lat="45.025544478751854" lon="10.782418072225292"><ele>18.0</ele><time>2026-04-24T09:00:30Z</time></trkpt><trkpt lat="45.025435208041216" lon="10.782650498790169"><ele>18.0</ele><time>2026-04-24T09:00:31Z</time></trkpt><trkpt lat="45.025314502935686" lon="10.782863182291074"><ele>18.0</ele><time>2026-04-24T09:00:32Z</time></trkpt><trkpt lat="45.02518001866474" lon="10.783057019097914"><ele>18.0</ele><time>2026-04-24T09:00:33Z</time></trkpt><trkpt lat="45.025038418217875" lon="10.783241158169709"><ele>18.0</ele><time>2026-04-24T09:00:34Z</time></trkpt><trkpt lat="45.0248882354445" lon="10.783418771509561"><ele>18.333333333333332</ele><time>2026-04-24T09:00:35Z</time></trkpt><trkpt lat="45.024738994521265" lon="10.783592593591052"><ele>18.666666666666664</ele><time>2026-04-24T09:00:36Z</time></trkpt><trkpt lat="45.02459050803347" lon="10.783764084063614"><ele>19.0</ele><time>2026-04-24T09:00:37Z</time></trkpt><trkpt lat="45.02444533410964" lon="10.783932405888807"><ele>19.0</ele><time>2026-04-24T09:00:38Z</time></trkpt><trkpt lat="45.02430541188379" lon="10.784097648920808"><ele>19.0</ele><time>2026-04-24T09:00:39Z</time></trkpt><trkpt lat="45.02418611906604" lon="10.784273031470217"><ele>19.0</ele><time>2026-04-24T09:00:40Z</time></trkpt><trkpt lat="45.02406357893384" lon="10.78442569519099"><ele>19.333333333333332</ele><time>2026-04-24T09:00:41Z</time></trkpt><trkpt lat="45.023942968493316" lon="10.784589087577636"><ele>19.666666666666668</ele><time>2026-04-24T09:00:42Z</time></trkpt><trkpt lat="45.023817772807945" lon="10.784761920053173"><ele>20.0</ele><time>2026-04-24T09:00:43Z</time></trkpt><trkpt lat="45.023691156712204" lon="10.784938409607244"><ele>20.0</ele><time>2026-04-24T09:00:44Z</time></trkpt><trkpt lat="45.02356168166782" lon="10.785116937188123"><ele>20.0</ele><time>2026-04-24T09:00:45Z</time></trkpt><trkpt lat="45.02342712225707" lon="10.78530178712697"><ele>20.0</ele><time>2026-04-24T09:00:46Z</time></trkpt><trkpt lat="45.02328818642355" lon="10.78549003591582"><ele>20.0</ele><time>2026-04-24T09:00:47Z</time></trkpt><trkpt lat="45.02314808734153" lon="10.785682814922342"><ele>20.0</ele><time>2026-04-24T09:00:48Z</time></trkpt><trkpt lat="45.023012618325126" lon="10.785875657168184"><ele>20.0</ele><time>2026-04-24T09:00:49Z</time></trkpt><trkpt lat="45.02287814780319" lon="10.786075595358573"><ele>19.333333333333336</ele><time>2026-04-24T09:00:50Z</time></trkpt><trkpt lat="45.02275292896203" lon="10.786291235706862"><ele>18.666666666666668</ele><time>2026-04-24T09:00:51Z</time></trkpt><trkpt lat="45.022640868299725" lon="10.786522580726398"><ele>18.0</ele><time>2026-04-24T09:00:52Z</time></trkpt><trkpt lat="45.02253288034459" lon="10.786755304963531"><ele>18.0</ele><time>2026-04-24T09:00:53Z</time></trkpt><trkpt lat="45.02243973448737" lon="10.787000625262156"><ele>18.0</ele><time>2026-04-24T09:00:54Z</time></trkpt><trkpt lat="45.022355928217955" lon="10.787245595036724"><ele>18.0</ele><time>2026-04-24T09:00:55Z</time></trkpt><trkpt lat="45.02228873646347" lon="10.78748243829399"><ele>18.5</ele><time>2026-04-24T09:00:56Z</time></trkpt><trkpt lat="45.02222821614469" lon="10.787693932482398"><ele>19.0</ele><time>2026-04-24T09:00:57Z</time></trkpt><trkpt lat="45.022176236333856" lon="10.787885966848858"><ele>19.5</ele><time>2026-04-24T09:00:58Z</time></trkpt><trkpt lat="45.02213094787447" lon="10.788069649010344"><ele>20.0</ele><time>2026-04-24T09:00:59Z</time></trkpt><trkpt lat="45.02209291204621" lon="10.78826543562672"><ele>20.0</ele><time>2026-04-24T09:01:00Z</time></trkpt><trkpt lat="45.022067609373806" lon="10.788481189302642"><ele>20.0</ele><time>2026-04-24T09:01:01Z</time></trkpt><trkpt lat="45.022063029081956" lon="10.788713620969562"><ele>20.0</ele><time>2026-04-24T09:01:02Z</time></trkpt><trkpt lat="45.02205879570368" lon="10.78894415742149"><ele>20.0</ele><time>2026-04-24T09:01:03Z</time></trkpt><trkpt lat="45.02206343033551" lon="10.789163032406696"><ele>20.0</ele><time>2026-04-24T09:01:04Z</time></trkpt><trkpt lat="45.022074531274065" lon="10.78937735538182"><ele>20.0</ele><time>2026-04-24T09:01:05Z</time></trkpt><trkpt lat="45.02209501160581" lon="10.789584984857042"><ele>20.0</ele><time>2026-04-24T09:01:06Z</time></trkpt><trkpt lat="45.02213167482881" lon="10.789789255224356"><ele>20.0</ele><time>2026-04-24T09:01:07Z</time></trkpt><trkpt lat="45.02218415809505" lon="10.78996925555127"><ele>20.0</ele><time>2026-04-24T09:01:08Z</time></trkpt><trkpt lat="45.02224742510942" lon="10.790123485378272"><ele>20.0</ele><time>2026-04-24T09:01:09Z</time></trkpt><trkpt lat="45.022325992677835" lon="10.79026549299861"><ele>19.666666666666668</ele><time>2026-04-24T09:01:10Z</time></trkpt><trkpt lat="45.02243885648712" lon="10.79040097274231"><ele>19.333333333333332</ele><time>2026-04-24T09:01:11Z</time></trkpt><trkpt lat="45.022578446641376" lon="10.790518570424586"><ele>19.0</ele><time>2026-04-24T09:01:12Z</time></trkpt><trkpt lat="45.02272953407069" lon="10.79064269294657"><ele>19.0</ele><time>2026-04-24T09:01:13Z</time></trkpt><trkpt lat="45.02288633778416" lon="10.79077350396373"><ele>19.0</ele><time>2026-04-24T09:01:14Z</time></trkpt><trkpt lat="45.023041331237756" lon="10.790915040693944"><ele>19.0</ele><time>2026-04-24T09:01:15Z</time></trkpt><trkpt lat="45.02319284609082" lon="10.791066348924181"><ele>19.0</ele><time>2026-04-24T09:01:16Z</time></trkpt><trkpt lat="45.0233456364725" lon="10.791217482083477"><ele>19.0</ele><time>2026-04-24T09:01:17Z</time></trkpt><trkpt lat="45.02350491152079" lon="10.791366581013461"><ele>19.0</ele><time>2026-04-24T09:01:18Z</time></trkpt><trkpt lat="45.023663395785995" lon="10.791507338747511"><ele>19.0</ele><time>2026-04-24T09:01:19Z</time></trkpt><trkpt lat="45.023820307047245" lon="10.791639858143116"><ele>19.0</ele><time>2026-04-24T09:01:20Z</time></trkpt><trkpt lat="45.02396673354316" lon="10.79176799360125"><ele>19.0</ele><time>2026-04-24T09:01:21Z</time></trkpt><trkpt lat="45.0240878738486" lon="10.791917204254187"><ele>19.0</ele><time>2026-04-24T09:01:22Z</time></trkpt><trkpt lat="45.02420915245956" lon="10.792043165486977"><ele>19.0</ele><time>2026-04-24T09:01:23Z</time></trkpt><trkpt lat="45.024331665380856" lon="10.792151435395473"><ele>19.0</ele><time>2026-04-24T09:01:24Z</time></trkpt><trkpt lat="45.02444231243478" lon="10.792267901793743"><ele>19.0</ele><time>2026-04-24T09:01:25Z</time></trkpt><trkpt lat="45.024543718771454" lon="10.792379434188621"><ele>19.0</ele><time>2026-04-24T09:01:26Z</time></trkpt><trkpt lat="45.02463417817345" lon="10.79246984554501"><ele>19.0</ele><time>2026-04-24T09:01:27Z</time></trkpt><trkpt lat="45.02469996908229" lon="10.792538641782212"><ele>19.0</ele><time>2026-04-24T09:01:28Z</time></trkpt><trkpt lat="45.024760919326894" lon="10.792595172524107"><ele>19.0</ele><time>2026-04-24T09:01:29Z</time></trkpt><trkpt lat="45.02484452111473" lon="10.792670457912516"><ele>19.0</ele><time>2026-04-24T09:01:30Z</time></trkpt><trkpt lat="45.02494896913214" lon="10.792758716179835"><ele>18.333333333333332</ele><time>2026-04-24T09:01:31Z</time></trkpt><trkpt lat="45.025070906427985" lon="10.792854143574079"><ele>17.666666666666668</ele><time>2026-04-24T09:01:32Z</time></trkpt><trkpt lat="45.02521773269041" lon="10.792941192160953"><ele>17.0</ele><time>2026-04-24T09:01:33Z</time></trkpt><trkpt lat="45.025388916447504" lon="10.793009674231246"><ele>17.0</ele><time>2026-04-24T09:01:34Z</time></trkpt><trkpt lat="45.02556261865119" lon="10.793064949874434"><ele>17.0</ele><time>2026-04-24T09:01:35Z</time></trkpt><trkpt lat="45.025710941886025" lon="10.793102585378042"><ele>17.0</ele><time>2026-04-24T09:01:36Z</time></trkpt><trkpt lat="45.02584152953724" lon="10.793134892552214"><ele>17.0</ele><time>2026-04-24T09:01:37Z</time></trkpt><trkpt lat="45.02594603446589" lon="10.79316192129321"><ele>17.0</ele><time>2026-04-24T09:01:38Z</time></trkpt><trkpt lat="45.02601966255912" lon="10.793182031837864"><ele>17.0</ele><time>2026-04-24T09:01:39Z</time></trkpt><trkpt lat="45.02607763194501" lon="10.793268419294876"><ele>17.0</ele><time>2026-04-24T09:01:41Z</time></trkpt><trkpt lat="45.02601060891606" lon="10.793376732456487"><ele>17.0</ele><time>2026-04-24T09:01:42Z</time></trkpt><trkpt lat="45.0259862002549" lon="10.793503540685924"><ele>17.0</ele><time>2026-04-24T09:01:43Z</time></trkpt><trkpt lat="45.025956575892" lon="10.793659112440793"><ele>17.0</ele><time>2026-04-24T09:01:44Z</time></trkpt><trkpt lat="45.025914935826705" lon="10.793831287446698"><ele>17.0</ele><time>2026-04-24T09:01:45Z</time></trkpt><trkpt lat="45.02585971863134" lon="10.794014518887142"><ele>17.0</ele><time>2026-04-24T09:01:46Z</time></trkpt><trkpt lat="45.02578457903704" lon="10.79420213295552"><ele>16.666666666666668</ele><time>2026-04-24T09:01:47Z</time></trkpt><trkpt lat="45.02569793345654" lon="10.794391839195574"><ele>16.333333333333332</ele><time>2026-04-24T09:01:48Z</time></trkpt><trkpt lat="45.025609512373336" lon="10.794579384796492"><ele>16.0</ele><time>2026-04-24T09:01:49Z</time></trkpt><trkpt lat="45.02551788804671" lon="10.794769973965852"><ele>16.0</ele><time>2026-04-24T09:01:50Z</time></trkpt><trkpt lat="45.02543875319283" lon="10.794970644203186"><ele>16.0</ele><time>2026-04-24T09:01:51Z</time></trkpt><trkpt lat="45.02534077927929" lon="10.795169818105416"><ele>16.0</ele><time>2026-04-24T09:01:52Z</time></trkpt><trkpt lat="45.025243069548466" lon="10.795379685021366"><ele>16.0</ele><time>2026-04-24T09:01:53Z</time></trkpt><trkpt lat="45.02514172943679" lon="10.795589496900266"><ele>16.0</ele><time>2026-04-24T09:01:54Z</time></trkpt><trkpt lat="45.02504201071675" lon="10.795795933581424"><ele>16.0</ele><time>2026-04-24T09:01:55Z</time></trkpt><trkpt lat="45.02494116661587" lon="10.796003021433318"><ele>16.25</ele><time>2026-04-24T09:01:56Z</time></trkpt><trkpt lat="45.02483979611671" lon="10.796197166134428"><ele>16.5</ele><time>2026-04-24T09:01:57Z</time></trkpt><trkpt lat="45.024728482718366" lon="10.796335548244098"><ele>16.75</ele><time>2026-04-24T09:01:58Z</time></trkpt><trkpt lat="45.02461801430428" lon="10.796419619788468"><ele>17.0</ele><time>2026-04-24T09:01:59Z</time></trkpt><trkpt lat="45.024502557658145" lon="10.796463752999657"><ele>17.0</ele><time>2026-04-24T09:02:00Z</time></trkpt><trkpt lat="45.02436724279898" lon="10.796518992407751"><ele>17.0</ele><time>2026-04-24T09:02:01Z</time></trkpt><trkpt lat="45.02421565854129" lon="10.79658111893138"><ele>17.0</ele><time>2026-04-24T09:02:02Z</time></trkpt><trkpt lat="45.02405783438929" lon="10.796648039017217"><ele>17.333333333333336</ele><time>2026-04-24T09:02:03Z</time></trkpt><trkpt lat="45.0238905765672" lon="10.796718959249175"><ele>17.666666666666668</ele><time>2026-04-24T09:02:04Z</time></trkpt><trkpt lat="45.02372018220763" lon="10.796814666796557"><ele>18.0</ele><time>2026-04-24T09:02:05Z</time></trkpt><trkpt lat="45.02354571610566" lon="10.796878995064935"><ele>18.0</ele><time>2026-04-24T09:02:06Z</time></trkpt><trkpt lat="45.02336310357298" lon="10.796952888888494"><ele>18.0</ele><time>2026-04-24T09:02:07Z</time></trkpt><trkpt lat="45.02317818428516" lon="10.797032167591446"><ele>18.0</ele><time>2026-04-24T09:02:08Z</time></trkpt><trkpt lat="45.02298807732814" lon="10.797117106116428"><ele>17.333333333333332</ele><time>2026-04-24T09:02:09Z</time></trkpt><trkpt lat="45.02280559419299" lon="10.797200894887794"><ele>16.666666666666664</ele><time>2026-04-24T09:02:10Z</time></trkpt><trkpt lat="45.022639445855674" lon="10.79727908472987"><ele>16.0</ele><time>2026-04-24T09:02:11Z</time></trkpt><trkpt lat="45.02247441381672" lon="10.797369676308728"><ele>16.0</ele><time>2026-04-24T09:02:12Z</time></trkpt><trkpt lat="45.02230931518692" lon="10.797484113707478"><ele>16.0</ele><time>2026-04-24T09:02:13Z</time></trkpt><trkpt lat="45.022147839526504" lon="10.797613889734091"><ele>16.0</ele><time>2026-04-24T09:02:14Z</time></trkpt><trkpt lat="45.02199089480997" lon="10.797754232996601"><ele>16.0</ele><time>2026-04-24T09:02:15Z</time></trkpt><trkpt lat="45.02183632660793" lon="10.797907687302695"><ele>16.0</ele><time>2026-04-24T09:02:16Z</time></trkpt><trkpt lat="45.02168946429985" lon="10.798062447108133"><ele>16.0</ele><time>2026-04-24T09:02:17Z</time></trkpt><trkpt lat="45.02155569022738" lon="10.798209718785438"><ele>16.0</ele><time>2026-04-24T09:02:18Z</time></trkpt><trkpt lat="45.02143562847992" lon="10.798346604228549"><ele>16.0</ele><time>2026-04-24T09:02:19Z</time></trkpt><trkpt lat="45.02132079141843" lon="10.798459104089417"><ele>16.0</ele><time>2026-04-24T09:02:20Z</time></trkpt><trkpt lat="45.021196385557595" lon="10.798519958564988"><ele>16.0</ele><time>2026-04-24T09:02:21Z</time></trkpt><trkpt lat="45.02107340711226" lon="10.798574145076165"><ele>15.5</ele><time>2026-04-24T09:02:22Z</time></trkpt><trkpt lat="45.02093734276069" lon="10.798610314382584"><ele>15.0</ele><time>2026-04-24T09:02:23Z</time></trkpt><trkpt lat="45.02079156125751" lon="10.798640172140425"><ele>14.5</ele><time>2026-04-24T09:02:24Z</time></trkpt><trkpt lat="45.020638380695885" lon="10.798658196094049"><ele>14.0</ele><time>2026-04-24T09:02:25Z</time></trkpt><trkpt lat="45.02049054605052" lon="10.79864415966194"><ele>14.0</ele><time>2026-04-24T09:02:26Z</time></trkpt><trkpt lat="45.020352925635436" lon="10.798617118401092"><ele>14.0</ele><time>2026-04-24T09:02:27Z</time></trkpt><trkpt lat="45.02022350749407" lon="10.798560643335863"><ele>14.0</ele><time>2026-04-24T09:02:28Z</time></trkpt><trkpt lat="45.0201030191803" lon="10.798481510397677"><ele>14.0</ele><time>2026-04-24T09:02:29Z</time></trkpt><trkpt lat="45.019993090817685" lon="10.798410016388422"><ele>14.166666666666668</ele><time>2026-04-24T09:02:30Z</time></trkpt><trkpt lat="45.019894487908644" lon="10.798364728954024"><ele>14.333333333333334</ele><time>2026-04-24T09:02:31Z</time></trkpt><trkpt lat="45.01981254348059" lon="10.798347264596428"><ele>14.5</ele><time>2026-04-24T09:02:32Z</time></trkpt><trkpt lat="45.01973297024202" lon="10.798380456881077"><ele>14.666666666666668</ele><time>2026-04-24T09:02:33Z</time></trkpt><trkpt lat="45.0196636767437" lon="10.798435419225068"><ele>14.833333333333334</ele><time>2026-04-24T09:02:34Z</time></trkpt><trkpt lat="45.01960525355452" lon="10.798533074043133"><ele>15.0</ele><time>2026-04-24T09:02:35Z</time></trkpt><trkpt lat="45.01954976407141" lon="10.798667074911393"><ele>15.0</ele><time>2026-04-24T09:02:36Z</time></trkpt><trkpt lat="45.01948117131603" lon="10.798822319003216"><ele>15.0</ele><time>2026-04-24T09:02:37Z</time></trkpt><trkpt lat="45.01940340185158" lon="10.799013183463796"><ele>15.0</ele><time>2026-04-24T09:02:38Z</time></trkpt><trkpt lat="45.019322855655176" lon="10.799222964263308"><ele>15.333333333333332</ele><time>2026-04-24T09:02:39Z</time></trkpt><trkpt lat="45.01924044676724" lon="10.799428316271205"><ele>15.666666666666666</ele><time>2026-04-24T09:02:40Z</time></trkpt><trkpt lat="45.0191544474851" lon="10.799620139489315"><ele>16.0</ele><time>2026-04-24T09:02:41Z</time></trkpt><trkpt lat="45.018961311617446" lon="10.799896518754178"><ele>16.25</ele><time>2026-04-24T09:02:43Z</time></trkpt><trkpt lat="45.018850659890965" lon="10.800010443058104"><ele>16.5</ele><time>2026-04-24T09:02:44Z</time></trkpt><trkpt lat="45.018717680500686" lon="10.800109670133407"><ele>16.75</ele><time>2026-04-24T09:02:45Z</time></trkpt><trkpt lat="45.018568868623845" lon="10.800194796577014"><ele>17.0</ele><time>2026-04-24T09:02:46Z</time></trkpt><trkpt lat="45.01841072487938" lon="10.800277429079484"><ele>17.0</ele><time>2026-04-24T09:02:47Z</time></trkpt><trkpt lat="45.01824611757638" lon="10.800341711566675"><ele>17.0</ele><time>2026-04-24T09:02:48Z</time></trkpt><trkpt lat="45.01808027251151" lon="10.800351959597306"><ele>17.0</ele><time>2026-04-24T09:02:49Z</time></trkpt><trkpt lat="45.017907958672005" lon="10.800329133948177"><ele>17.0</ele><time>2026-04-24T09:02:50Z</time></trkpt><trkpt lat="45.01772913795195" lon="10.800291519757202"><ele>17.0</ele><time>2026-04-24T09:02:51Z</time></trkpt><trkpt lat="45.017541480253136" lon="10.80025042121486"><ele>17.0</ele><time>2026-04-24T09:02:52Z</time></trkpt><trkpt lat="45.01734797136775" lon="10.80020804300157"><ele>17.0</ele><time>2026-04-24T09:02:53Z</time></trkpt><trkpt lat="45.01714953728501" lon="10.800164750521075"><ele>17.0</ele><time>2026-04-24T09:02:54Z</time></trkpt><trkpt lat="45.016942033626236" lon="10.800140880520303"><ele>17.0</ele><time>2026-04-24T09:02:55Z</time></trkpt><trkpt lat="45.01673073685455" lon="10.800095270186864"><ele>16.666666666666668</ele><time>2026-04-24T09:02:56Z</time></trkpt><trkpt lat="45.01652136928764" lon="10.800045623693995"><ele>16.333333333333332</ele><time>2026-04-24T09:02:57Z</time></trkpt><trkpt lat="45.01630713162312" lon="10.799993726048038"><ele>16.0</ele><time>2026-04-24T09:02:58Z</time></trkpt><trkpt lat="45.01608872202493" lon="10.799943349921355"><ele>16.0</ele><time>2026-04-24T09:02:59Z</time></trkpt><trkpt lat="45.01586742873683" lon="10.799897933137151"><ele>16.0</ele><time>2026-04-24T09:03:00Z</time></trkpt><trkpt lat="45.015648082166706" lon="10.799852028711516"><ele>16.0</ele><time>2026-04-24T09:03:01Z</time></trkpt><trkpt lat="45.01543090826122" lon="10.799802103290038"><ele>16.333333333333332</ele><time>2026-04-24T09:03:02Z</time></trkpt><trkpt lat="45.01521280942849" lon="10.799756604031236"><ele>16.666666666666668</ele><time>2026-04-24T09:03:03Z</time></trkpt><trkpt lat="45.01499779753866" lon="10.799710625706116"><ele>17.0</ele><time>2026-04-24T09:03:04Z</time></trkpt><trkpt lat="45.014785858520234" lon="10.799667589195504"><ele>16.333333333333336</ele><time>2026-04-24T09:03:05Z</time></trkpt><trkpt lat="45.01457730970099" lon="10.799621354574818"><ele>15.666666666666668</ele><time>2026-04-24T09:03:06Z</time></trkpt><trkpt lat="45.01436883835086" lon="10.799575827356126"><ele>15.0</ele><time>2026-04-24T09:03:07Z</time></trkpt><trkpt lat="45.014161866802546" lon="10.799532449594253"><ele>15.666666666666668</ele><time>2026-04-24T09:03:08Z</time></trkpt><trkpt lat="45.01395456665154" lon="10.799485678721595"><ele>16.333333333333336</ele><time>2026-04-24T09:03:09Z</time></trkpt><trkpt lat="45.01374527286289" lon="10.799446602420828"><ele>17.0</ele><time>2026-04-24T09:03:10Z</time></trkpt><trkpt lat="45.01353341655837" lon="10.799402805991317"><ele>17.0</ele><time>2026-04-24T09:03:11Z</time></trkpt><trkpt lat="45.01332020455908" lon="10.799358328362379"><ele>17.0</ele><time>2026-04-24T09:03:12Z</time></trkpt><trkpt lat="45.01310959052988" lon="10.799313328315819"><ele>17.0</ele><time>2026-04-24T09:03:13Z</time></trkpt><trkpt lat="45.01289900400227" lon="10.799263676949677"><ele>17.0</ele><time>2026-04-24T09:03:14Z</time></trkpt><trkpt lat="45.01268965379438" lon="10.799222952988243"><ele>17.0</ele><time>2026-04-24T09:03:15Z</time></trkpt><trkpt lat="45.0125002373949" lon="10.79918452153025"><ele>17.0</ele><time>2026-04-24T09:03:16Z</time></trkpt><trkpt lat="45.01232920003795" lon="10.799149495243823"><ele>16.666666666666668</ele><time>2026-04-24T09:03:17Z</time></trkpt><trkpt lat="45.01216566874416" lon="10.7991196334799"><ele>16.333333333333332</ele><time>2026-04-24T09:03:18Z</time></trkpt><trkpt lat="45.01200829979745" lon="10.799110651453347"><ele>16.0</ele><time>2026-04-24T09:03:19Z</time></trkpt><trkpt lat="45.01184995845907" lon="10.79912360264954"><ele>16.0</ele><time>2026-04-24T09:03:20Z</time></trkpt><trkpt lat="45.01168736050159" lon="10.799152889980064"><ele>16.0</ele><time>2026-04-24T09:03:21Z</time></trkpt><trkpt lat="45.01152168072152" lon="10.799181570930177"><ele>16.0</ele><time>2026-04-24T09:03:22Z</time></trkpt><trkpt lat="45.01135069013924" lon="10.79921241731771"><ele>16.333333333333332</ele><time>2026-04-24T09:03:23Z</time></trkpt><trkpt lat="45.01117256063317" lon="10.799244663368242"><ele>16.666666666666668</ele><time>2026-04-24T09:03:24Z</time></trkpt><trkpt lat="45.010985220894085" lon="10.799284765402824"><ele>17.0</ele><time>2026-04-24T09:03:25Z</time></trkpt><trkpt lat="45.01079408516551" lon="10.799325109456616"><ele>16.333333333333336</ele><time>2026-04-24T09:03:26Z</time></trkpt><trkpt lat="45.01059879379087" lon="10.7993707612127"><ele>15.666666666666668</ele><time>2026-04-24T09:03:27Z</time></trkpt><trkpt lat="45.01040444458608" lon="10.7994320648713"><ele>15.0</ele><time>2026-04-24T09:03:28Z</time></trkpt><trkpt lat="45.01021360709094" lon="10.799497615563103"><ele>15.0</ele><time>2026-04-24T09:03:29Z</time></trkpt><trkpt lat="45.01002507469537" lon="10.799571120667371"><ele>15.0</ele><time>2026-04-24T09:03:30Z</time></trkpt><trkpt lat="45.00983740838535" lon="10.79964848682052"><ele>15.0</ele><time>2026-04-24T09:03:31Z</time></trkpt><trkpt lat="45.00965421037486" lon="10.799727516181186"><ele>15.0</ele><time>2026-04-24T09:03:32Z</time></trkpt><trkpt lat="45.009471613078574" lon="10.79980981326866"><ele>15.0</ele><time>2026-04-24T09:03:33Z</time></trkpt><trkpt lat="45.00929020126783" lon="10.799890468149611"><ele>15.0</ele><time>2026-04-24T09:03:34Z</time></trkpt><trkpt lat="45.00910729004741" lon="10.799963934990505"><ele>15.0</ele><time>2026-04-24T09:03:35Z</time></trkpt><trkpt lat="45.008923329613694" lon="10.800040330030093"><ele>15.0</ele><time>2026-04-24T09:03:36Z</time></trkpt><trkpt lat="45.00874019001441" lon="10.80012155933235"><ele>15.0</ele><time>2026-04-24T09:03:37Z</time></trkpt><trkpt lat="45.00855793969851" lon="10.800200902743606"><ele>15.0</ele><time>2026-04-24T09:03:38Z</time></trkpt><trkpt lat="45.008367730738875" lon="10.80025587803417"><ele>15.0</ele><time>2026-04-24T09:03:39Z</time></trkpt><trkpt lat="45.00818185663855" lon="10.8003332816009"><ele>15.0</ele><time>2026-04-24T09:03:40Z</time></trkpt><trkpt lat="45.00799797571061" lon="10.800409855123634"><ele>15.333333333333332</ele><time>2026-04-24T09:03:41Z</time></trkpt><trkpt lat="45.00781287109009" lon="10.80048693827439"><ele>15.666666666666666</ele><time>2026-04-24T09:03:42Z</time></trkpt><trkpt lat="45.00762732028175" lon="10.800564207217025"><ele>16.0</ele><time>2026-04-24T09:03:43Z</time></trkpt><trkpt lat="45.00744871053346" lon="10.800661371287855"><ele>16.0</ele><time>2026-04-24T09:03:44Z</time></trkpt><trkpt lat="45.0072625481606" lon="10.8007334801468"><ele>16.0</ele><time>2026-04-24T09:03:45Z</time></trkpt><trkpt lat="45.007079183878275" lon="10.800810271529224"><ele>16.0</ele><time>2026-04-24T09:03:46Z</time></trkpt><trkpt lat="45.006896109008665" lon="10.800887206497293"><ele>16.0</ele><time>2026-04-24T09:03:47Z</time></trkpt><trkpt lat="45.00671098350072" lon="10.80096433239487"><ele>16.0</ele><time>2026-04-24T09:03:48Z</time></trkpt><trkpt lat="45.00652762739065" lon="10.801044808157647"><ele>16.0</ele><time>2026-04-24T09:03:49Z</time></trkpt><trkpt lat="45.0063447876854" lon="10.801123528726109"><ele>16.0</ele><time>2026-04-24T09:03:50Z</time></trkpt><trkpt lat="45.00615998719222" lon="10.801201191821782"><ele>16.0</ele><time>2026-04-24T09:03:51Z</time></trkpt><trkpt lat="45.005973965807016" lon="10.801277711768572"><ele>16.0</ele><time>2026-04-24T09:03:52Z</time></trkpt><trkpt lat="45.00579134663538" lon="10.801357947154031"><ele>16.0</ele><time>2026-04-24T09:03:53Z</time></trkpt><trkpt lat="45.00560724443232" lon="10.801446776502063"><ele>16.0</ele><time>2026-04-24T09:03:54Z</time></trkpt><trkpt lat="45.00542554427106" lon="10.80153441260975"><ele>16.0</ele><time>2026-04-24T09:03:55Z</time></trkpt><trkpt lat="45.005243099655495" lon="10.801621811430474"><ele>16.0</ele><time>2026-04-24T09:03:56Z</time></trkpt><trkpt lat="45.00506004178717" lon="10.80170585871379"><ele>16.0</ele><time>2026-04-24T09:03:57Z</time></trkpt><trkpt lat="45.00487455899386" lon="10.801779790877118"><ele>16.0</ele><time>2026-04-24T09:03:58Z</time></trkpt><trkpt lat="45.00469012125204" lon="10.801858785260135"><ele>16.333333333333332</ele><time>2026-04-24T09:03:59Z</time></trkpt><trkpt lat="45.00450720165635" lon="10.801944176128966"><ele>16.666666666666668</ele><time>2026-04-24T09:04:00Z</time></trkpt><trkpt lat="45.0043242712251" lon="10.80203124813296"><ele>17.0</ele><time>2026-04-24T09:04:01Z</time></trkpt><trkpt lat="45.0041421762226" lon="10.802115585463083"><ele>16.333333333333336</ele><time>2026-04-24T09:04:02Z</time></trkpt><trkpt lat="45.00396205563969" lon="10.802203009917577"><ele>15.666666666666668</ele><time>2026-04-24T09:04:03Z</time></trkpt><trkpt lat="45.003782051470196" lon="10.802293886320793"><ele>15.0</ele><time>2026-04-24T09:04:04Z</time></trkpt><trkpt lat="45.00359728397967" lon="10.802354320670181"><ele>15.0</ele><time>2026-04-24T09:04:05Z</time></trkpt><trkpt lat="45.00341638927431" lon="10.80243680257684"><ele>15.0</ele><time>2026-04-24T09:04:06Z</time></trkpt><trkpt lat="45.00323422806524" lon="10.802519938700264"><ele>15.0</ele><time>2026-04-24T09:04:07Z</time></trkpt><trkpt lat="45.00306353927097" lon="10.802623646104704"><ele>15.0</ele><time>2026-04-24T09:04:08Z</time></trkpt><trkpt lat="45.0028990772108" lon="10.802694424115009"><ele>15.0</ele><time>2026-04-24T09:04:09Z</time></trkpt><trkpt lat="45.002737813030826" lon="10.802724507668088"><ele>15.0</ele><time>2026-04-24T09:04:10Z</time></trkpt><trkpt lat="45.002573738231604" lon="10.802770264165034"><ele>15.0</ele><time>2026-04-24T09:04:11Z</time></trkpt><trkpt lat="45.00240231656238" lon="10.802810977158389"><ele>15.0</ele><time>2026-04-24T09:04:12Z</time></trkpt><trkpt lat="45.002221028962126" lon="10.802849615539083"><ele>15.0</ele><time>2026-04-24T09:04:13Z</time></trkpt><trkpt lat="45.00203396372823" lon="10.802889176138807"><ele>15.0</ele><time>2026-04-24T09:04:14Z</time></trkpt><trkpt lat="45.00184441735232" lon="10.802930946376353"><ele>15.0</ele><time>2026-04-24T09:04:15Z</time></trkpt><trkpt lat="45.001650821386264" lon="10.802973608998254"><ele>15.0</ele><time>2026-04-24T09:04:16Z</time></trkpt><trkpt lat="45.00146876022728" lon="10.803009969615113"><ele>15.333333333333332</ele><time>2026-04-24T09:04:17Z</time></trkpt><trkpt lat="45.001301289149424" lon="10.803046953267145"><ele>15.666666666666666</ele><time>2026-04-24T09:04:18Z</time></trkpt><trkpt lat="45.001149822535126" lon="10.803097031743132"><ele>16.0</ele><time>2026-04-24T09:04:19Z</time></trkpt><trkpt lat="45.00102462544171" lon="10.803171572185569"><ele>16.0</ele><time>2026-04-24T09:04:20Z</time></trkpt><trkpt lat="45.00090836135702" lon="10.803246014774624"><ele>16.0</ele><time>2026-04-24T09:04:21Z</time></trkpt><trkpt lat="45.000800215625986" lon="10.803355463854144"><ele>16.0</ele><time>2026-04-24T09:04:22Z</time></trkpt><trkpt lat="45.000691662704575" lon="10.803489035366518"><ele>16.0</ele><time>2026-04-24T09:04:23Z</time></trkpt><trkpt lat="45.00058944181249" lon="10.803621437051092"><ele>16.2</ele><time>2026-04-24T09:04:24Z</time></trkpt><trkpt lat="45.00048538032525" lon="10.803734925550549"><ele>16.400000000000002</ele><time>2026-04-24T09:04:25Z</time></trkpt><trkpt lat="45.00039394609055" lon="10.803843968785005"><ele>16.6</ele><time>2026-04-24T09:04:26Z</time></trkpt><trkpt lat="45.00031638279907" lon="10.803937942321975"><ele>16.8</ele><time>2026-04-24T09:04:27Z</time></trkpt><trkpt lat="45.000235638567105" lon="10.80399838290634"><ele>17.0</ele><time>2026-04-24T09:04:28Z</time></trkpt><trkpt lat="45.000174100419166" lon="10.804093172179321"><ele>17.0</ele><time>2026-04-24T09:04:29Z</time></trkpt><trkpt lat="45.00009561580198" lon="10.804178148014964"><ele>17.0</ele><time>2026-04-24T09:04:30Z</time></trkpt><trkpt lat="45.00000687102197" lon="10.804276102008636"><ele>17.0</ele><time>2026-04-24T09:04:31Z</time></trkpt><trkpt lat="44.99991190292638" lon="10.804385241512502"><ele>17.0</ele><time>2026-04-24T09:04:32Z</time></trkpt><trkpt lat="44.999808367463395" lon="10.804493157719593"><ele>17.0</ele><time>2026-04-24T09:04:33Z</time></trkpt><trkpt lat="44.99969730206834" lon="10.804606851557423"><ele>17.0</ele><time>2026-04-24T09:04:34Z</time></trkpt><trkpt lat="44.999581431561595" lon="10.804733525719577"><ele>17.0</ele><time>2026-04-24T09:04:35Z</time></trkpt><trkpt lat="44.99946264920445" lon="10.804865097104445"><ele>17.0</ele><time>2026-04-24T09:04:36Z</time></trkpt><trkpt lat="44.99933828831837" lon="10.804995786269044"><ele>17.0</ele><time>2026-04-24T09:04:37Z</time></trkpt><trkpt lat="44.99920756221539" lon="10.805135315227997"><ele>17.0</ele><time>2026-04-24T09:04:38Z</time></trkpt><trkpt lat="44.99907953887628" lon="10.805281937538036"><ele>17.0</ele><time>2026-04-24T09:04:39Z</time></trkpt><trkpt lat="44.99895298176088" lon="10.805427681880179"><ele>17.333333333333336</ele><time>2026-04-24T09:04:40Z</time></trkpt><trkpt lat="44.99882245836749" lon="10.805576701480245"><ele>17.666666666666668</ele><time>2026-04-24T09:04:41Z</time></trkpt><trkpt lat="44.998692146138964" lon="10.805719268492643"><ele>18.0</ele><time>2026-04-24T09:04:42Z</time></trkpt><trkpt lat="44.99856342845023" lon="10.805853656092756"><ele>18.0</ele><time>2026-04-24T09:04:43Z</time></trkpt><trkpt lat="44.99843752247833" lon="10.80598864319805"><ele>18.0</ele><time>2026-04-24T09:04:44Z</time></trkpt><trkpt lat="44.99831666103849" lon="10.806123941639575"><ele>18.0</ele><time>2026-04-24T09:04:45Z</time></trkpt><trkpt lat="44.99819151165201" lon="10.806236747440096"><ele>17.75</ele><time>2026-04-24T09:04:46Z</time></trkpt><trkpt lat="44.99807677880956" lon="10.80636047578214"><ele>17.5</ele><time>2026-04-24T09:04:47Z</time></trkpt><trkpt lat="44.99797537489427" lon="10.80646977806521"><ele>17.25</ele><time>2026-04-24T09:04:48Z</time></trkpt><trkpt lat="44.997881077439146" lon="10.806571756057494"><ele>17.0</ele><time>2026-04-24T09:04:49Z</time></trkpt><trkpt lat="44.99779893942864" lon="10.806663058307954"><ele>17.0</ele><time>2026-04-24T09:04:50Z</time></trkpt><trkpt lat="44.99773779458688" lon="10.806755474017468"><ele>17.0</ele><time>2026-04-24T09:04:51Z</time></trkpt><trkpt lat="44.99768190551167" lon="10.806814268455192"><ele>17.0</ele><time>2026-04-24T09:04:52Z</time></trkpt><trkpt lat="44.99762913151193" lon="10.806866373981068"><ele>17.0</ele><time>2026-04-24T09:04:54Z</time></trkpt><trkpt lat="44.99756073512836" lon="10.806772487520515"><ele>17.0</ele><time>2026-04-24T09:04:57Z</time></trkpt><trkpt lat="44.997487102558914" lon="10.806726641808433"><ele>17.0</ele><time>2026-04-24T09:04:58Z</time></trkpt><trkpt lat="44.99740449815923" lon="10.806676282122364"><ele>17.0</ele><time>2026-04-24T09:04:59Z</time></trkpt><trkpt lat="44.99731277491554" lon="10.806622835829176"><ele>17.0</ele><time>2026-04-24T09:05:00Z</time></trkpt><trkpt lat="44.99720807920602" lon="10.806561830624958"><ele>17.0</ele><time>2026-04-24T09:05:01Z</time></trkpt><trkpt lat="44.99709986795347" lon="10.806499352986908"><ele>17.0</ele><time>2026-04-24T09:05:02Z</time></trkpt><trkpt lat="44.99698352511358" lon="10.806433023466562"><ele>17.0</ele><time>2026-04-24T09:05:03Z</time></trkpt><trkpt lat="44.99685861762187" lon="10.806372545988797"><ele>17.0</ele><time>2026-04-24T09:05:04Z</time></trkpt><trkpt lat="44.99673409739121" lon="10.806303054446461"><ele>17.0</ele><time>2026-04-24T09:05:05Z</time></trkpt><trkpt lat="44.99660671534388" lon="10.806229268676375"><ele>17.0</ele><time>2026-04-24T09:05:06Z</time></trkpt><trkpt lat="44.99646942826715" lon="10.80615307240875"><ele>17.0</ele><time>2026-04-24T09:05:07Z</time></trkpt><trkpt lat="44.99632272389517" lon="10.8060720281379"><ele>17.0</ele><time>2026-04-24T09:05:08Z</time></trkpt><trkpt lat="44.99616989255705" lon="10.805991535406031"><ele>17.0</ele><time>2026-04-24T09:05:09Z</time></trkpt><trkpt lat="44.99601128659507" lon="10.80590333662106"><ele>17.0</ele><time>2026-04-24T09:05:10Z</time></trkpt><trkpt lat="44.995860525961184" lon="10.805798459725581"><ele>17.0</ele><time>2026-04-24T09:05:11Z</time></trkpt><trkpt lat="44.99570084497211" lon="10.80570772438349"><ele>17.0</ele><time>2026-04-24T09:05:12Z</time></trkpt><trkpt lat="44.99553644059241" lon="10.805615173812617"><ele>16.666666666666668</ele><time>2026-04-24T09:05:13Z</time></trkpt><trkpt lat="44.99536552320242" lon="10.805531050534785"><ele>16.333333333333332</ele><time>2026-04-24T09:05:14Z</time></trkpt><trkpt lat="44.99519398896803" lon="10.80543449278827"><ele>16.0</ele><time>2026-04-24T09:05:15Z</time></trkpt><trkpt lat="44.99501835884975" lon="10.805337880978367"><ele>16.0</ele><time>2026-04-24T09:05:16Z</time></trkpt><trkpt lat="44.994839053860225" lon="10.805241685730715"><ele>16.0</ele><time>2026-04-24T09:05:17Z</time></trkpt><trkpt lat="44.99465926379093" lon="10.805147434788088"><ele>16.0</ele><time>2026-04-24T09:05:18Z</time></trkpt><trkpt lat="44.994484340198994" lon="10.805051337095835"><ele>16.0</ele><time>2026-04-24T09:05:19Z</time></trkpt><trkpt lat="44.99430879136086" lon="10.804950504902289"><ele>16.0</ele><time>2026-04-24T09:05:20Z</time></trkpt><trkpt lat="44.99413039301667" lon="10.804842347828995"><ele>16.0</ele><time>2026-04-24T09:05:21Z</time></trkpt><trkpt lat="44.9939581783297" lon="10.804727248948982"><ele>16.0</ele><time>2026-04-24T09:05:22Z</time></trkpt><trkpt lat="44.99380450628345" lon="10.804570942541133"><ele>16.0</ele><time>2026-04-24T09:05:23Z</time></trkpt><trkpt lat="44.99365006239614" lon="10.804427481697049"><ele>16.0</ele><time>2026-04-24T09:05:24Z</time></trkpt><trkpt lat="44.99349838241434" lon="10.804281991538753"><ele>16.0</ele><time>2026-04-24T09:05:25Z</time></trkpt><trkpt lat="44.99334558606536" lon="10.80413713509599"><ele>16.0</ele><time>2026-04-24T09:05:26Z</time></trkpt><trkpt lat="44.99317776973243" lon="10.804006546364233"><ele>16.0</ele><time>2026-04-24T09:05:27Z</time></trkpt><trkpt lat="44.99301416554481" lon="10.803859574650437"><ele>16.333333333333332</ele><time>2026-04-24T09:05:28Z</time></trkpt><trkpt lat="44.9928438946398" lon="10.80371933902174"><ele>16.666666666666668</ele><time>2026-04-24T09:05:29Z</time></trkpt><trkpt lat="44.9926700935001" lon="10.80357914513944"><ele>17.0</ele><time>2026-04-24T09:05:30Z</time></trkpt><trkpt lat="44.99249067844892" lon="10.80343711138688"><ele>17.333333333333336</ele><time>2026-04-24T09:05:31Z</time></trkpt><trkpt lat="44.992308503438906" lon="10.803293838477252"><ele>17.666666666666668</ele><time>2026-04-24T09:05:32Z</time></trkpt><trkpt lat="44.99212504718892" lon="10.803152199317395"><ele>18.0</ele><time>2026-04-24T09:05:33Z</time></trkpt><trkpt lat="44.99194653456758" lon="10.803006646283297"><ele>18.0</ele><time>2026-04-24T09:05:34Z</time></trkpt><trkpt lat="44.99178605593787" lon="10.802838569840777"><ele>18.0</ele><time>2026-04-24T09:05:35Z</time></trkpt><trkpt lat="44.99161433022126" lon="10.802705258591283"><ele>18.0</ele><time>2026-04-24T09:05:36Z</time></trkpt><trkpt lat="44.99145471483772" lon="10.802557112494148"><ele>17.0</ele><time>2026-04-24T09:05:37Z</time></trkpt><trkpt lat="44.991286540098876" lon="10.802416355576957"><ele>16.0</ele><time>2026-04-24T09:05:38Z</time></trkpt><trkpt lat="44.99111786364102" lon="10.802289331251577"><ele>15.0</ele><time>2026-04-24T09:05:39Z</time></trkpt><trkpt lat="44.99094484696684" lon="10.802169244992264"><ele>15.333333333333332</ele><time>2026-04-24T09:05:40Z</time></trkpt><trkpt lat="44.99076852843315" lon="10.802060354115087"><ele>15.666666666666666</ele><time>2026-04-24T09:05:41Z</time></trkpt><trkpt lat="44.99059189385335" lon="10.801966979837028"><ele>16.0</ele><time>2026-04-24T09:05:42Z</time></trkpt><trkpt lat="44.99040918203482" lon="10.801881371517547"><ele>16.666666666666664</ele><time>2026-04-24T09:05:43Z</time></trkpt><trkpt lat="44.9902250379072" lon="10.801798615210304"><ele>17.333333333333332</ele><time>2026-04-24T09:05:44Z</time></trkpt><trkpt lat="44.990042863829" lon="10.801719272296381"><ele>18.0</ele><time>2026-04-24T09:05:45Z</time></trkpt><trkpt lat="44.98985867677626" lon="10.801643897337474"><ele>18.0</ele><time>2026-04-24T09:05:46Z</time></trkpt><trkpt lat="44.98967482896023" lon="10.801574584642243"><ele>18.0</ele><time>2026-04-24T09:05:47Z</time></trkpt><trkpt lat="44.989487315081895" lon="10.801511526202868"><ele>18.0</ele><time>2026-04-24T09:05:48Z</time></trkpt><trkpt lat="44.989295077445014" lon="10.801447364134606"><ele>17.0</ele><time>2026-04-24T09:05:49Z</time></trkpt><trkpt lat="44.98910136675408" lon="10.801394526661092"><ele>16.0</ele><time>2026-04-24T09:05:50Z</time></trkpt><trkpt lat="44.988903642760334" lon="10.801366291816443"><ele>15.0</ele><time>2026-04-24T09:05:51Z</time></trkpt><trkpt lat="44.98870596374379" lon="10.801354069175908"><ele>15.0</ele><time>2026-04-24T09:05:52Z</time></trkpt><trkpt lat="44.98850920422731" lon="10.80135348330151"><ele>15.0</ele><time>2026-04-24T09:05:53Z</time></trkpt><trkpt lat="44.98832788361062" lon="10.801353506843544"><ele>15.0</ele><time>2026-04-24T09:05:54Z</time></trkpt><trkpt lat="44.98815751501094" lon="10.801351017908118"><ele>15.666666666666668</ele><time>2026-04-24T09:05:55Z</time></trkpt><trkpt lat="44.98798745713019" lon="10.801352658713355"><ele>16.333333333333336</ele><time>2026-04-24T09:05:56Z</time></trkpt><trkpt lat="44.987818296316725" lon="10.801359063510722"><ele>17.0</ele><time>2026-04-24T09:05:57Z</time></trkpt><trkpt lat="44.987642497081666" lon="10.80137653072013"><ele>17.333333333333336</ele><time>2026-04-24T09:05:58Z</time></trkpt><trkpt lat="44.98746790932723" lon="10.801409364993368"><ele>17.666666666666668</ele><time>2026-04-24T09:05:59Z</time></trkpt><trkpt lat="44.98730246450358" lon="10.801453017044622"><ele>18.0</ele><time>2026-04-24T09:06:00Z</time></trkpt><trkpt lat="44.98715048479741" lon="10.801501031654722"><ele>18.0</ele><time>2026-04-24T09:06:01Z</time></trkpt><trkpt lat="44.98701535546272" lon="10.801539308094398"><ele>18.0</ele><time>2026-04-24T09:06:02Z</time></trkpt><trkpt lat="44.986895487033486" lon="10.801578142762626"><ele>18.0</ele><time>2026-04-24T09:06:03Z</time></trkpt><trkpt lat="44.98679551522818" lon="10.801608990207693"><ele>18.0</ele><time>2026-04-24T09:06:04Z</time></trkpt><trkpt lat="44.986710884660546" lon="10.801632800469624"><ele>18.0</ele><time>2026-04-24T09:06:05Z</time></trkpt><trkpt lat="44.98664131243025" lon="10.801643919604556"><ele>17.833333333333332</ele><time>2026-04-24T09:06:06Z</time></trkpt><trkpt lat="44.98654874709887" lon="10.801631901040775"><ele>17.666666666666668</ele><time>2026-04-24T09:06:08Z</time></trkpt><trkpt lat="44.98648127635638" lon="10.801596293295757"><ele>17.5</ele><time>2026-04-24T09:06:14Z</time></trkpt><trkpt lat="44.98639103128474" lon="10.801565145045844"><ele>17.333333333333336</ele><time>2026-04-24T09:06:16Z</time></trkpt><trkpt lat="44.98629291392218" lon="10.80154135983617"><ele>17.166666666666668</ele><time>2026-04-24T09:06:17Z</time></trkpt><trkpt lat="44.98620421926753" lon="10.801552457418252"><ele>17.0</ele><time>2026-04-24T09:06:18Z</time></trkpt><trkpt lat="44.98613234505249" lon="10.801649466631611"><ele>17.0</ele><time>2026-04-24T09:06:19Z</time></trkpt><trkpt lat="44.98605513467547" lon="10.801746872847161"><ele>17.0</ele><time>2026-04-24T09:06:20Z</time></trkpt><trkpt lat="44.98601194860871" lon="10.801888208600277"><ele>17.0</ele><time>2026-04-24T09:06:21Z</time></trkpt><trkpt lat="44.98585771710079" lon="10.801909084044384"><ele>17.0</ele><time>2026-04-24T09:06:22Z</time></trkpt><trkpt lat="44.985727530365054" lon="10.801944566676717"><ele>17.0</ele><time>2026-04-24T09:06:23Z</time></trkpt><trkpt lat="44.98559605182015" lon="10.801984850743946"><ele>17.0</ele><time>2026-04-24T09:06:24Z</time></trkpt><trkpt lat="44.985464312853544" lon="10.802026737334904"><ele>17.0</ele><time>2026-04-24T09:06:25Z</time></trkpt><trkpt lat="44.985331974806684" lon="10.802079694566359"><ele>17.0</ele><time>2026-04-24T09:06:26Z</time></trkpt><trkpt lat="44.98519926935226" lon="10.80214801088063"><ele>17.0</ele><time>2026-04-24T09:06:27Z</time></trkpt><trkpt lat="44.985076290654334" lon="10.802236439365055"><ele>17.0</ele><time>2026-04-24T09:06:28Z</time></trkpt><trkpt lat="44.984948150555006" lon="10.80230092935079"><ele>17.0</ele><time>2026-04-24T09:06:29Z</time></trkpt><trkpt lat="44.98482406426215" lon="10.802370708077454"><ele>17.0</ele><time>2026-04-24T09:06:30Z</time></trkpt><trkpt lat="44.98470019831257" lon="10.802440493796503"><ele>17.0</ele><time>2026-04-24T09:06:31Z</time></trkpt><trkpt lat="44.9845744841204" lon="10.802509827055566"><ele>17.0</ele><time>2026-04-24T09:06:32Z</time></trkpt><trkpt lat="44.98445237339678" lon="10.802581819009449"><ele>17.0</ele><time>2026-04-24T09:06:33Z</time></trkpt><trkpt lat="44.984338156697504" lon="10.802661815451216"><ele>17.0</ele><time>2026-04-24T09:06:34Z</time></trkpt><trkpt lat="44.98422794797959" lon="10.802749948867586"><ele>17.5</ele><time>2026-04-24T09:06:35Z</time></trkpt><trkpt lat="44.984120326273874" lon="10.80285005465983"><ele>18.0</ele><time>2026-04-24T09:06:36Z</time></trkpt><trkpt lat="44.984021061087184" lon="10.802951273423675"><ele>18.5</ele><time>2026-04-24T09:06:37Z</time></trkpt><trkpt lat="44.98393270402028" lon="10.803069235510982"><ele>19.0</ele><time>2026-04-24T09:06:38Z</time></trkpt><trkpt lat="44.983852653925986" lon="10.803192214135356"><ele>19.0</ele><time>2026-04-24T09:06:39Z</time></trkpt><trkpt lat="44.98377290588128" lon="10.803330813804187"><ele>19.0</ele><time>2026-04-24T09:06:40Z</time></trkpt><trkpt lat="44.983691425555854" lon="10.803464943977907"><ele>19.0</ele><time>2026-04-24T09:06:41Z</time></trkpt><trkpt lat="44.983607447691625" lon="10.803611361906064"><ele>19.0</ele><time>2026-04-24T09:06:42Z</time></trkpt><trkpt lat="44.98352609816617" lon="10.803764252073542"><ele>19.0</ele><time>2026-04-24T09:06:43Z</time></trkpt><trkpt lat="44.98344462237933" lon="10.803913771197966"><ele>19.0</ele><time>2026-04-24T09:06:44Z</time></trkpt><trkpt lat="44.983362458033405" lon="10.804061451190439"><ele>19.0</ele><time>2026-04-24T09:06:45Z</time></trkpt><trkpt lat="44.983281248981505" lon="10.804200779319142"><ele>19.0</ele><time>2026-04-24T09:06:46Z</time></trkpt><trkpt lat="44.98319944130661" lon="10.804344203692386"><ele>18.75</ele><time>2026-04-24T09:06:47Z</time></trkpt><trkpt lat="44.98311434980705" lon="10.80448639004762"><ele>18.5</ele><time>2026-04-24T09:06:48Z</time></trkpt><trkpt lat="44.9830273567198" lon="10.804630224087196"><ele>18.25</ele><time>2026-04-24T09:06:49Z</time></trkpt><trkpt lat="44.98294392093491" lon="10.804772969225407"><ele>18.0</ele><time>2026-04-24T09:06:50Z</time></trkpt><trkpt lat="44.98286020798394" lon="10.80491666021169"><ele>18.0</ele><time>2026-04-24T09:06:51Z</time></trkpt><trkpt lat="44.98277766414817" lon="10.805057793097658"><ele>18.0</ele><time>2026-04-24T09:06:52Z</time></trkpt><trkpt lat="44.98267728855632" lon="10.805182351836512"><ele>18.0</ele><time>2026-04-24T09:06:53Z</time></trkpt><trkpt lat="44.98258451714239" lon="10.805312235051362"><ele>18.0</ele><time>2026-04-24T09:06:54Z</time></trkpt><trkpt lat="44.98249396906051" lon="10.805440687919155"><ele>18.25</ele><time>2026-04-24T09:06:55Z</time></trkpt><trkpt lat="44.982405674190396" lon="10.805564150662583"><ele>18.5</ele><time>2026-04-24T09:06:56Z</time></trkpt><trkpt lat="44.98232097992566" lon="10.805681866357125"><ele>18.75</ele><time>2026-04-24T09:06:57Z</time></trkpt><trkpt lat="44.98223455533721" lon="10.805800323415738"><ele>19.0</ele><time>2026-04-24T09:06:58Z</time></trkpt><trkpt lat="44.98214942065471" lon="10.805917012477543"><ele>19.2</ele><time>2026-04-24T09:06:59Z</time></trkpt><trkpt lat="44.982068074006094" lon="10.806028509493657"><ele>19.4</ele><time>2026-04-24T09:07:00Z</time></trkpt><trkpt lat="44.9819940550497" lon="10.806127999005703"><ele>19.6</ele><time>2026-04-24T09:07:01Z</time></trkpt><trkpt lat="44.98191953386174" lon="10.80622689844816"><ele>19.8</ele><time>2026-04-24T09:07:02Z</time></trkpt><trkpt lat="44.98183593112088" lon="10.806329151083657"><ele>20.0</ele><time>2026-04-24T09:07:03Z</time></trkpt><trkpt lat="44.98174291935968" lon="10.806429076298068"><ele>20.0</ele><time>2026-04-24T09:07:04Z</time></trkpt><trkpt lat="44.98163807750358" lon="10.806534619223218"><ele>20.0</ele><time>2026-04-24T09:07:05Z</time></trkpt><trkpt lat="44.98152614365856" lon="10.806640553260703"><ele>20.0</ele><time>2026-04-24T09:07:06Z</time></trkpt><trkpt lat="44.98140180082945" lon="10.80674211474562"><ele>20.0</ele><time>2026-04-24T09:07:07Z</time></trkpt><trkpt lat="44.98126282856039" lon="10.806840320416217"><ele>20.0</ele><time>2026-04-24T09:07:08Z</time></trkpt><trkpt lat="44.98111707551139" lon="10.806933942440187"><ele>20.0</ele><time>2026-04-24T09:07:09Z</time></trkpt><trkpt lat="44.98097962472921" lon="10.807038615010416"><ele>20.0</ele><time>2026-04-24T09:07:10Z</time></trkpt><trkpt lat="44.98082647891411" lon="10.807124544525877"><ele>19.0</ele><time>2026-04-24T09:07:11Z</time></trkpt><trkpt lat="44.98067080786317" lon="10.807218508944604"><ele>18.0</ele><time>2026-04-24T09:07:12Z</time></trkpt><trkpt lat="44.98051682863773" lon="10.807311970093012"><ele>17.0</ele><time>2026-04-24T09:07:13Z</time></trkpt><trkpt lat="44.980367290476195" lon="10.807413037147906"><ele>17.0</ele><time>2026-04-24T09:07:14Z</time></trkpt><trkpt lat="44.98022006014902" lon="10.807534221399697"><ele>17.0</ele><time>2026-04-24T09:07:15Z</time></trkpt><trkpt lat="44.980078597024225" lon="10.80767173836261"><ele>17.0</ele><time>2026-04-24T09:07:16Z</time></trkpt><trkpt lat="44.9799387426285" lon="10.807819267639259"><ele>17.0</ele><time>2026-04-24T09:07:17Z</time></trkpt><trkpt lat="44.979801473643704" lon="10.807972194352654"><ele>17.0</ele><time>2026-04-24T09:07:18Z</time></trkpt><trkpt lat="44.97966870020781" lon="10.808134687880921"><ele>17.0</ele><time>2026-04-24T09:07:19Z</time></trkpt><trkpt lat="44.979538499123755" lon="10.808311443882117"><ele>17.333333333333336</ele><time>2026-04-24T09:07:20Z</time></trkpt><trkpt lat="44.97941332533066" lon="10.808504210608378"><ele>17.666666666666668</ele><time>2026-04-24T09:07:21Z</time></trkpt><trkpt lat="44.97927960822297" lon="10.808698940883788"><ele>18.0</ele><time>2026-04-24T09:07:22Z</time></trkpt><trkpt lat="44.97915011632041" lon="10.808900460649465"><ele>17.666666666666668</ele><time>2026-04-24T09:07:23Z</time></trkpt><trkpt lat="44.979016323826315" lon="10.809104050023738"><ele>17.333333333333336</ele><time>2026-04-24T09:07:24Z</time></trkpt><trkpt lat="44.978878527103305" lon="10.809309306183108"><ele>17.0</ele><time>2026-04-24T09:07:25Z</time></trkpt><trkpt lat="44.97873674792649" lon="10.809521210912537"><ele>17.0</ele><time>2026-04-24T09:07:26Z</time></trkpt><trkpt lat="44.97859044707769" lon="10.809733454199357"><ele>17.0</ele><time>2026-04-24T09:07:27Z</time></trkpt><trkpt lat="44.978445917929314" lon="10.80994521398369"><ele>17.0</ele><time>2026-04-24T09:07:28Z</time></trkpt><trkpt lat="44.97830314504012" lon="10.810158681851206"><ele>16.333333333333336</ele><time>2026-04-24T09:07:29Z</time></trkpt><trkpt lat="44.97816752648884" lon="10.810372528930532"><ele>15.666666666666668</ele><time>2026-04-24T09:07:30Z</time></trkpt><trkpt lat="44.978038146718006" lon="10.810586335547036"><ele>15.0</ele><time>2026-04-24T09:07:31Z</time></trkpt><trkpt lat="44.97790916575251" lon="10.81080326325448"><ele>15.666666666666668</ele><time>2026-04-24T09:07:32Z</time></trkpt><trkpt lat="44.97778749111804" lon="10.811017948506567"><ele>16.333333333333336</ele><time>2026-04-24T09:07:33Z</time></trkpt><trkpt lat="44.97767757530659" lon="10.811218809465709"><ele>17.0</ele><time>2026-04-24T09:07:34Z</time></trkpt><trkpt lat="44.97757299635738" lon="10.811409807721358"><ele>17.0</ele><time>2026-04-24T09:07:35Z</time></trkpt><trkpt lat="44.97747194842015" lon="10.811602145640439"><ele>17.0</ele><time>2026-04-24T09:07:36Z</time></trkpt><trkpt lat="44.977382546532105" lon="10.811774758926274"><ele>17.0</ele><time>2026-04-24T09:07:37Z</time></trkpt><trkpt lat="44.9773087677757" lon="10.811935661959948"><ele>17.666666666666668</ele><time>2026-04-24T09:07:38Z</time></trkpt><trkpt lat="44.977228516222425" lon="10.812108735057299"><ele>18.333333333333332</ele><time>2026-04-24T09:07:39Z</time></trkpt><trkpt lat="44.97714319780554" lon="10.812297549845043"><ele>19.0</ele><time>2026-04-24T09:07:40Z</time></trkpt><trkpt lat="44.977055380198195" lon="10.812498745995699"><ele>19.0</ele><time>2026-04-24T09:07:41Z</time></trkpt><trkpt lat="44.97696795629406" lon="10.812704597222055"><ele>19.0</ele><time>2026-04-24T09:07:42Z</time></trkpt><trkpt lat="44.97687551270757" lon="10.812908022352287"><ele>19.0</ele><time>2026-04-24T09:07:43Z</time></trkpt><trkpt lat="44.976782430844445" lon="10.813114876156204"><ele>19.0</ele><time>2026-04-24T09:07:44Z</time></trkpt><trkpt lat="44.97669557354849" lon="10.813302988376224"><ele>19.0</ele><time>2026-04-24T09:07:45Z</time></trkpt><trkpt lat="44.97660100813595" lon="10.813462654824919"><ele>19.0</ele><time>2026-04-24T09:07:46Z</time></trkpt><trkpt lat="44.976523013457246" lon="10.813617929030642"><ele>19.0</ele><time>2026-04-24T09:07:47Z</time></trkpt><trkpt lat="44.97645752168727" lon="10.813770179140988"><ele>18.8</ele><time>2026-04-24T09:07:48Z</time></trkpt><trkpt lat="44.976378253940524" lon="10.813905956870743"><ele>18.599999999999998</ele><time>2026-04-24T09:07:49Z</time></trkpt><trkpt lat="44.97630145433233" lon="10.814039327355886"><ele>18.4</ele><time>2026-04-24T09:07:50Z</time></trkpt><trkpt lat="44.97623103466099" lon="10.814152223410028"><ele>18.2</ele><time>2026-04-24T09:07:51Z</time></trkpt><trkpt lat="44.97615891121836" lon="10.814197505693922"><ele>18.0</ele><time>2026-04-24T09:07:52Z</time></trkpt><trkpt lat="44.97609348745758" lon="10.814229489413803"><ele>18.0</ele><time>2026-04-24T09:07:53Z</time></trkpt><trkpt lat="44.97602181937268" lon="10.814185045838537"><ele>18.0</ele><time>2026-04-24T09:07:54Z</time></trkpt><trkpt lat="44.97596215923893" lon="10.814100844286408"><ele>18.0</ele><time>2026-04-24T09:07:55Z</time></trkpt><trkpt lat="44.975855713910256" lon="10.814017872208732"><ele>18.0</ele><time>2026-04-24T09:07:56Z</time></trkpt><trkpt lat="44.97572876278539" lon="10.813921849184766"><ele>18.0</ele><time>2026-04-24T09:07:57Z</time></trkpt><trkpt lat="44.97560304221762" lon="10.813835983267001"><ele>17.75</ele><time>2026-04-24T09:07:58Z</time></trkpt><trkpt lat="44.975486745613004" lon="10.813781162053424"><ele>17.5</ele><time>2026-04-24T09:07:59Z</time></trkpt><trkpt lat="44.97537501224694" lon="10.813738406898057"><ele>17.25</ele><time>2026-04-24T09:08:00Z</time></trkpt><trkpt lat="44.97525057959706" lon="10.81374407126279"><ele>17.0</ele><time>2026-04-24T09:08:01Z</time></trkpt><trkpt lat="44.97511559201093" lon="10.813795726046182"><ele>16.333333333333336</ele><time>2026-04-24T09:08:02Z</time></trkpt><trkpt lat="44.97497160336715" lon="10.81389127054955"><ele>15.666666666666668</ele><time>2026-04-24T09:08:03Z</time></trkpt><trkpt lat="44.974822548934235" lon="10.813995903082585"><ele>15.0</ele><time>2026-04-24T09:08:04Z</time></trkpt><trkpt lat="44.97466002499137" lon="10.814096232725001"><ele>15.0</ele><time>2026-04-24T09:08:05Z</time></trkpt><trkpt lat="44.97449027601395" lon="10.814196500573772"><ele>15.0</ele><time>2026-04-24T09:08:06Z</time></trkpt><trkpt lat="44.97431455952689" lon="10.814300788730948"><ele>15.0</ele><time>2026-04-24T09:08:07Z</time></trkpt><trkpt lat="44.97413314959752" lon="10.814411233469423"><ele>15.0</ele><time>2026-04-24T09:08:08Z</time></trkpt><trkpt lat="44.97395128727121" lon="10.814519825663064"><ele>15.0</ele><time>2026-04-24T09:08:09Z</time></trkpt><trkpt lat="44.97376873459065" lon="10.814627117925255"><ele>15.0</ele><time>2026-04-24T09:08:10Z</time></trkpt><trkpt lat="44.97358226743398" lon="10.814729681957374"><ele>15.0</ele><time>2026-04-24T09:08:11Z</time></trkpt><trkpt lat="44.97339454558294" lon="10.814829950070354"><ele>15.0</ele><time>2026-04-24T09:08:12Z</time></trkpt><trkpt lat="44.97320839517752" lon="10.814939391217413"><ele>15.0</ele><time>2026-04-24T09:08:13Z</time></trkpt><trkpt lat="44.97302253940484" lon="10.815046184923064"><ele>15.0</ele><time>2026-04-24T09:08:14Z</time></trkpt><trkpt lat="44.972839320158144" lon="10.815159430972287"><ele>15.0</ele><time>2026-04-24T09:08:15Z</time></trkpt><trkpt lat="44.97265569956624" lon="10.815271684482658"><ele>15.0</ele><time>2026-04-24T09:08:16Z</time></trkpt><trkpt lat="44.972465466810405" lon="10.815381793682192"><ele>15.0</ele><time>2026-04-24T09:08:17Z</time></trkpt><trkpt lat="44.97227759220497" lon="10.81549641586355"><ele>15.0</ele><time>2026-04-24T09:08:18Z</time></trkpt><trkpt lat="44.97208099573818" lon="10.815586219771882"><ele>15.0</ele><time>2026-04-24T09:08:19Z</time></trkpt><trkpt lat="44.97189299315403" lon="10.81569594321452"><ele>15.0</ele><time>2026-04-24T09:08:20Z</time></trkpt><trkpt lat="44.97170568215064" lon="10.815805263033484"><ele>15.0</ele><time>2026-04-24T09:08:21Z</time></trkpt><trkpt lat="44.97151941958342" lon="10.815913970956744"><ele>15.0</ele><time>2026-04-24T09:08:22Z</time></trkpt><trkpt lat="44.97133810619458" lon="10.816019781063515"><ele>15.0</ele><time>2026-04-24T09:08:23Z</time></trkpt><trkpt lat="44.971160724037254" lon="10.816123292440553"><ele>15.0</ele><time>2026-04-24T09:08:24Z</time></trkpt><trkpt lat="44.97099780403148" lon="10.816218364421848"><ele>15.0</ele><time>2026-04-24T09:08:25Z</time></trkpt><trkpt lat="44.97082995100216" lon="10.81631631507872"><ele>15.333333333333332</ele><time>2026-04-24T09:08:26Z</time></trkpt><trkpt lat="44.97065996688254" lon="10.816415509315252"><ele>15.666666666666666</ele><time>2026-04-24T09:08:27Z</time></trkpt><trkpt lat="44.970487850467265" lon="10.81651594785107"><ele>16.0</ele><time>2026-04-24T09:08:28Z</time></trkpt><trkpt lat="44.97031005284548" lon="10.816619701684347"><ele>16.0</ele><time>2026-04-24T09:08:29Z</time></trkpt><trkpt lat="44.97013058797784" lon="10.816724428430788"><ele>16.0</ele><time>2026-04-24T09:08:30Z</time></trkpt><trkpt lat="44.96995234624725" lon="10.816828441381956"><ele>16.0</ele><time>2026-04-24T09:08:31Z</time></trkpt><trkpt lat="44.96977225455674" lon="10.816933533907358"><ele>15.666666666666666</ele><time>2026-04-24T09:08:32Z</time></trkpt><trkpt lat="44.96959237972157" lon="10.817038556180622"><ele>15.333333333333332</ele><time>2026-04-24T09:08:33Z</time></trkpt><trkpt lat="44.96941351072958" lon="10.817143418500455"><ele>15.0</ele><time>2026-04-24T09:08:34Z</time></trkpt><trkpt lat="44.969238339238174" lon="10.817246113170578"><ele>15.0</ele><time>2026-04-24T09:08:35Z</time></trkpt><trkpt lat="44.969061453609825" lon="10.81734981275809"><ele>15.0</ele><time>2026-04-24T09:08:36Z</time></trkpt><trkpt lat="44.968885327764276" lon="10.817453066901514"><ele>15.0</ele><time>2026-04-24T09:08:37Z</time></trkpt><trkpt lat="44.96870711294459" lon="10.817557545716333"><ele>15.333333333333332</ele><time>2026-04-24T09:08:38Z</time></trkpt><trkpt lat="44.96852872030546" lon="10.817661797003257"><ele>15.666666666666666</ele><time>2026-04-24T09:08:39Z</time></trkpt><trkpt lat="44.968351636657204" lon="10.817764982467846"><ele>16.0</ele><time>2026-04-24T09:08:40Z</time></trkpt><trkpt lat="44.96817257836856" lon="10.817869318692038"><ele>15.333333333333332</ele><time>2026-04-24T09:08:41Z</time></trkpt><trkpt lat="44.9679928742446" lon="10.817974031227829"><ele>14.666666666666668</ele><time>2026-04-24T09:08:42Z</time></trkpt><trkpt lat="44.967816751970766" lon="10.81807665663482"><ele>14.0</ele><time>2026-04-24T09:08:43Z</time></trkpt><trkpt lat="44.9676395152515" lon="10.818179931442636"><ele>13.666666666666668</ele><time>2026-04-24T09:08:44Z</time></trkpt><trkpt lat="44.96746104495685" lon="10.818283925007828"><ele>13.333333333333332</ele><time>2026-04-24T09:08:45Z</time></trkpt><trkpt lat="44.96728084777479" lon="10.818388924849401"><ele>13.0</ele><time>2026-04-24T09:08:46Z</time></trkpt><trkpt lat="44.96710161891782" lon="10.818492540806835"><ele>13.666666666666666</ele><time>2026-04-24T09:08:47Z</time></trkpt><trkpt lat="44.96692622419186" lon="10.81859360175424"><ele>14.333333333333332</ele><time>2026-04-24T09:08:48Z</time></trkpt><trkpt lat="44.96675121856854" lon="10.818694438549613"><ele>15.0</ele><time>2026-04-24T09:08:49Z</time></trkpt><trkpt lat="44.966572560654" lon="10.818797419529005"><ele>15.666666666666668</ele><time>2026-04-24T09:08:50Z</time></trkpt><trkpt lat="44.96639548555651" lon="10.81889948638108"><ele>16.333333333333336</ele><time>2026-04-24T09:08:51Z</time></trkpt><trkpt lat="44.96621597741136" lon="10.81900295565054"><ele>17.0</ele><time>2026-04-24T09:08:52Z</time></trkpt><trkpt lat="44.96603894537866" lon="10.81910524447463"><ele>16.666666666666668</ele><time>2026-04-24T09:08:53Z</time></trkpt><trkpt lat="44.9658614103553" lon="10.819208526351185"><ele>16.333333333333332</ele><time>2026-04-24T09:08:54Z</time></trkpt><trkpt lat="44.96568164154821" lon="10.819313107743946"><ele>16.0</ele><time>2026-04-24T09:08:55Z</time></trkpt><trkpt lat="44.96550137859857" lon="10.819417976605367"><ele>16.0</ele><time>2026-04-24T09:08:56Z</time></trkpt><trkpt lat="44.96532396509447" lon="10.819521187780056"><ele>16.0</ele><time>2026-04-24T09:08:57Z</time></trkpt><trkpt lat="44.96514504564014" lon="10.819625275055156"><ele>16.0</ele><time>2026-04-24T09:08:58Z</time></trkpt><trkpt lat="44.96496745473074" lon="10.819728589441594"><ele>16.0</ele><time>2026-04-24T09:08:59Z</time></trkpt><trkpt lat="44.96478913009943" lon="10.81983232265269"><ele>16.0</ele><time>2026-04-24T09:09:00Z</time></trkpt><trkpt lat="44.9646118160908" lon="10.819934890707511"><ele>16.0</ele><time>2026-04-24T09:09:01Z</time></trkpt><trkpt lat="44.96443270335207" lon="10.82003849925023"><ele>16.0</ele><time>2026-04-24T09:09:02Z</time></trkpt><trkpt lat="44.964254181872185" lon="10.82014176586233"><ele>16.0</ele><time>2026-04-24T09:09:03Z</time></trkpt><trkpt lat="44.96407801279052" lon="10.820244386531623"><ele>16.0</ele><time>2026-04-24T09:09:04Z</time></trkpt><trkpt lat="44.963900612031615" lon="10.820347635348844"><ele>16.0</ele><time>2026-04-24T09:09:05Z</time></trkpt><trkpt lat="44.96372156463609" lon="10.820451842513334"><ele>16.0</ele><time>2026-04-24T09:09:06Z</time></trkpt><trkpt lat="44.96354274127276" lon="10.82055585762503"><ele>16.0</ele><time>2026-04-24T09:09:07Z</time></trkpt><trkpt lat="44.96336554037341" lon="10.82065888506786"><ele>15.333333333333332</ele><time>2026-04-24T09:09:08Z</time></trkpt><trkpt lat="44.963190039950284" lon="10.820760923825102"><ele>14.666666666666668</ele><time>2026-04-24T09:09:09Z</time></trkpt><trkpt lat="44.963018226451744" lon="10.820860818950743"><ele>14.0</ele><time>2026-04-24T09:09:10Z</time></trkpt><trkpt lat="44.9628599209666" lon="10.820952860289065"><ele>14.25</ele><time>2026-04-24T09:09:11Z</time></trkpt><trkpt lat="44.962717042031656" lon="10.821058341936403"><ele>14.5</ele><time>2026-04-24T09:09:12Z</time></trkpt><trkpt lat="44.962570340330664" lon="10.821103445077748"><ele>14.75</ele><time>2026-04-24T09:09:13Z</time></trkpt><trkpt lat="44.96243580144173" lon="10.821146575914291"><ele>15.0</ele><time>2026-04-24T09:09:14Z</time></trkpt><trkpt lat="44.96230147936984" lon="10.821158757840722"><ele>15.0</ele><time>2026-04-24T09:09:15Z</time></trkpt><trkpt lat="44.96214932793631" lon="10.821215510269393"><ele>15.0</ele><time>2026-04-24T09:09:16Z</time></trkpt><trkpt lat="44.9619787778213" lon="10.82120398089165"><ele>15.0</ele><time>2026-04-24T09:09:17Z</time></trkpt><trkpt lat="44.96179434374776" lon="10.821180395144234"><ele>15.333333333333332</ele><time>2026-04-24T09:09:18Z</time></trkpt><trkpt lat="44.96160097753694" lon="10.821153353989262"><ele>15.666666666666666</ele><time>2026-04-24T09:09:19Z</time></trkpt><trkpt lat="44.96140550990467" lon="10.821091785682999"><ele>16.0</ele><time>2026-04-24T09:09:20Z</time></trkpt><trkpt lat="44.96120921816052" lon="10.821059967426137"><ele>16.0</ele><time>2026-04-24T09:09:21Z</time></trkpt><trkpt lat="44.96101735131129" lon="10.821042191961611"><ele>16.0</ele><time>2026-04-24T09:09:22Z</time></trkpt><trkpt lat="44.96082843946926" lon="10.821054386446868"><ele>16.0</ele><time>2026-04-24T09:09:23Z</time></trkpt><trkpt lat="44.96064443578423" lon="10.821040537344109"><ele>16.0</ele><time>2026-04-24T09:09:24Z</time></trkpt><trkpt lat="44.960459900770246" lon="10.82102790971886"><ele>16.0</ele><time>2026-04-24T09:09:25Z</time></trkpt><trkpt lat="44.96027650416097" lon="10.82100097121696"><ele>16.0</ele><time>2026-04-24T09:09:26Z</time></trkpt><trkpt lat="44.96009958413985" lon="10.820931676289677"><ele>16.0</ele><time>2026-04-24T09:09:27Z</time></trkpt><trkpt lat="44.95993005814473" lon="10.820868126540615"><ele>16.0</ele><time>2026-04-24T09:09:28Z</time></trkpt><trkpt lat="44.9597679713767" lon="10.8208038690933"><ele>16.0</ele><time>2026-04-24T09:09:29Z</time></trkpt><trkpt lat="44.95961376006962" lon="10.820742367979252"><ele>16.0</ele><time>2026-04-24T09:09:30Z</time></trkpt><trkpt lat="44.95946962578235" lon="10.820684885700091"><ele>16.0</ele><time>2026-04-24T09:09:31Z</time></trkpt><trkpt lat="44.95932971442144" lon="10.820629087520725"><ele>16.0</ele><time>2026-04-24T09:09:32Z</time></trkpt><trkpt lat="44.959192532744176" lon="10.820577002643866"><ele>16.0</ele><time>2026-04-24T09:09:33Z</time></trkpt><trkpt lat="44.959063758063074" lon="10.820551639551821"><ele>16.25</ele><time>2026-04-24T09:09:34Z</time></trkpt><trkpt lat="44.95894715577886" lon="10.820504968726011"><ele>16.5</ele><time>2026-04-24T09:09:35Z</time></trkpt><trkpt lat="44.95883824896517" lon="10.820453710609211"><ele>16.75</ele><time>2026-04-24T09:09:36Z</time></trkpt><trkpt lat="44.95872685513232" lon="10.820409703721122"><ele>17.0</ele><time>2026-04-24T09:09:37Z</time></trkpt><trkpt lat="44.95861812594212" lon="10.820369900864684"><ele>17.0</ele><time>2026-04-24T09:09:38Z</time></trkpt><trkpt lat="44.95851401200432" lon="10.820332125794007"><ele>17.0</ele><time>2026-04-24T09:09:39Z</time></trkpt><trkpt lat="44.95840449486569" lon="10.820293812876217"><ele>17.0</ele><time>2026-04-24T09:09:40Z</time></trkpt><trkpt lat="44.95829187682417" lon="10.82025812098947"><ele>17.0</ele><time>2026-04-24T09:09:41Z</time></trkpt><trkpt lat="44.958176585031325" lon="10.820191302410457"><ele>17.0</ele><time>2026-04-24T09:09:42Z</time></trkpt><trkpt lat="44.95806388127919" lon="10.82014824056428"><ele>17.0</ele><time>2026-04-24T09:09:43Z</time></trkpt><trkpt lat="44.9579585487953" lon="10.820107788282993"><ele>17.0</ele><time>2026-04-24T09:09:44Z</time></trkpt><trkpt lat="44.95785324159885" lon="10.820090882759493"><ele>17.0</ele><time>2026-04-24T09:09:45Z</time></trkpt><trkpt lat="44.95774737101104" lon="10.820048289302106"><ele>17.0</ele><time>2026-04-24T09:09:46Z</time></trkpt><trkpt lat="44.95764300857257" lon="10.819986607017544"><ele>17.0</ele><time>2026-04-24T09:09:47Z</time></trkpt><trkpt lat="44.95752594043333" lon="10.81996722740284"><ele>17.0</ele><time>2026-04-24T09:09:48Z</time></trkpt><trkpt lat="44.95740876499153" lon="10.819923174670459"><ele>17.0</ele><time>2026-04-24T09:09:49Z</time></trkpt><trkpt lat="44.9572989098376" lon="10.819881774643793"><ele>17.0</ele><time>2026-04-24T09:09:50Z</time></trkpt><trkpt lat="44.95719738398879" lon="10.819843428798654"><ele>17.0</ele><time>2026-04-24T09:09:51Z</time></trkpt><trkpt lat="44.95710185898858" lon="10.819803983828507"><ele>17.0</ele><time>2026-04-24T09:09:52Z</time></trkpt><trkpt lat="44.957014088009736" lon="10.819768061755436"><ele>17.0</ele><time>2026-04-24T09:09:53Z</time></trkpt><trkpt lat="44.95694040226621" lon="10.819685692157504"><ele>17.0</ele><time>2026-04-24T09:09:54Z</time></trkpt><trkpt lat="44.95685576930062" lon="10.819637445130686"><ele>17.0</ele><time>2026-04-24T09:09:55Z</time></trkpt><trkpt lat="44.9567671272651" lon="10.819586912628353"><ele>17.333333333333336</ele><time>2026-04-24T09:09:56Z</time></trkpt><trkpt lat="44.95668017986173" lon="10.819536119192039"><ele>17.666666666666668</ele><time>2026-04-24T09:09:57Z</time></trkpt><trkpt lat="44.956593773856746" lon="10.81948523769032"><ele>18.0</ele><time>2026-04-24T09:09:58Z</time></trkpt><trkpt lat="44.95651523382269" lon="10.819438866955466"><ele>18.333333333333332</ele><time>2026-04-24T09:09:59Z</time></trkpt><trkpt lat="44.956443165782716" lon="10.819396317288446"><ele>18.666666666666664</ele><time>2026-04-24T09:10:00Z</time></trkpt><trkpt lat="44.95638030802105" lon="10.819356369418307"><ele>19.0</ele><time>2026-04-24T09:10:01Z</time></trkpt><trkpt lat="44.95628063178185" lon="10.819294391532548"><ele>19.0</ele><time>2026-04-24T09:10:03Z</time></trkpt><trkpt lat="44.95618933818502" lon="10.819241887374103"><ele>19.0</ele><time>2026-04-24T09:10:05Z</time></trkpt><trkpt lat="44.95611852689964" lon="10.81920480929933"><ele>19.0</ele><time>2026-04-24T09:10:07Z</time></trkpt><trkpt lat="44.95603830606746" lon="10.81916628166667"><ele>19.0</ele><time>2026-04-24T09:10:10Z</time></trkpt><trkpt lat="44.95595368291659" lon="10.819133719684018"><ele>19.0</ele><time>2026-04-24T09:10:13Z</time></trkpt><trkpt lat="44.95586268387652" lon="10.819123928194301"><ele>19.0</ele><time>2026-04-24T09:10:15Z</time></trkpt><trkpt lat="44.95579295603124" lon="10.819121359045106"><ele>19.25</ele><time>2026-04-24T09:10:16Z</time></trkpt><trkpt lat="44.95569505224992" lon="10.819106913627015"><ele>19.5</ele><time>2026-04-24T09:10:17Z</time></trkpt><trkpt lat="44.95558918088068" lon="10.819049637388346"><ele>19.75</ele><time>2026-04-24T09:10:18Z</time></trkpt><trkpt lat="44.95547168901333" lon="10.819027527545552"><ele>20.0</ele><time>2026-04-24T09:10:19Z</time></trkpt><trkpt lat="44.95535020355307" lon="10.81897628272877"><ele>20.0</ele><time>2026-04-24T09:10:20Z</time></trkpt><trkpt lat="44.955227892262386" lon="10.81892929113361"><ele>20.0</ele><time>2026-04-24T09:10:21Z</time></trkpt><trkpt lat="44.955120865492766" lon="10.818886020704792"><ele>20.0</ele><time>2026-04-24T09:10:22Z</time></trkpt><trkpt lat="44.955033729776964" lon="10.818851464148542"><ele>20.0</ele><time>2026-04-24T09:10:23Z</time></trkpt><trkpt lat="44.95496322139452" lon="10.81882049146292"><ele>20.0</ele><time>2026-04-24T09:10:24Z</time></trkpt><trkpt lat="44.95488268254134" lon="10.818801617306036"><ele>20.166666666666668</ele><time>2026-04-24T09:10:25Z</time></trkpt><trkpt lat="44.95480189642144" lon="10.818754175956657"><ele>20.333333333333336</ele><time>2026-04-24T09:10:26Z</time></trkpt><trkpt lat="44.95472061744985" lon="10.818742728082183"><ele>20.5</ele><time>2026-04-24T09:10:27Z</time></trkpt><trkpt lat="44.954657512947115" lon="10.818689572345301"><ele>20.666666666666668</ele><time>2026-04-24T09:10:28Z</time></trkpt><trkpt lat="44.95459247845984" lon="10.818541262978503"><ele>20.833333333333332</ele><time>2026-04-24T09:10:30Z</time></trkpt><trkpt lat="44.95461635907826" lon="10.818432452187555"><ele>21.0</ele><time>2026-04-24T09:10:31Z</time></trkpt><trkpt lat="44.95460674970885" lon="10.818322724022497"><ele>21.0</ele><time>2026-04-24T09:10:32Z</time></trkpt><trkpt lat="44.95463075269808" lon="10.818193168250415"><ele>21.0</ele><time>2026-04-24T09:10:33Z</time></trkpt><trkpt lat="44.95466061380573" lon="10.818034543902957"><ele>21.0</ele><time>2026-04-24T09:10:34Z</time></trkpt><trkpt lat="44.95469577549314" lon="10.81785317230843"><ele>21.0</ele><time>2026-04-24T09:10:35Z</time></trkpt><trkpt lat="44.954734953516336" lon="10.817658984636964"><ele>20.8</ele><time>2026-04-24T09:10:36Z</time></trkpt><trkpt lat="44.954759511297475" lon="10.817465866554553"><ele>20.6</ele><time>2026-04-24T09:10:37Z</time></trkpt><trkpt lat="44.95479678347308" lon="10.817304473528104"><ele>20.4</ele><time>2026-04-24T09:10:38Z</time></trkpt><trkpt lat="44.954834285057295" lon="10.81715637401977"><ele>20.2</ele><time>2026-04-24T09:10:39Z</time></trkpt><trkpt lat="44.95485411054677" lon="10.81707011751209"><ele>20.0</ele><time>2026-04-24T09:10:40Z</time></trkpt><trkpt lat="44.95485419113959" lon="10.816955594654061"><ele>20.0</ele><time>2026-04-24T09:10:42Z</time></trkpt><trkpt lat="44.9547383695716" lon="10.816889276722893"><ele>20.0</ele><time>2026-04-24T09:10:46Z</time></trkpt><trkpt lat="44.954645988386446" lon="10.81685720981008"><ele>20.0</ele><time>2026-04-24T09:10:47Z</time></trkpt><trkpt lat="44.954548422915856" lon="10.816819716331507"><ele>20.0</ele><time>2026-04-24T09:10:47.999Z</time></trkpt><trkpt lat="44.95446571862258" lon="10.816807307630343"><ele>20.0</ele><time>2026-04-24T09:10:48.999Z</time></trkpt><trkpt lat="44.95437843461432" lon="10.816840503739241"><ele>20.0</ele><time>2026-04-24T09:10:49.999Z</time></trkpt><trkpt lat="44.95430673697547" lon="10.816920308988065"><ele>20.0</ele><time>2026-04-24T09:10:50.999Z</time></trkpt><trkpt lat="44.95425324416237" lon="10.817036786736228"><ele>20.0</ele><time>2026-04-24T09:10:51.999Z</time></trkpt><trkpt lat="44.95421959193797" lon="10.817192723256854"><ele>20.0</ele><time>2026-04-24T09:10:52.999Z</time></trkpt><trkpt lat="44.9541901937741" lon="10.81736504200944"><ele>20.0</ele><time>2026-04-24T09:10:53.999Z</time></trkpt><trkpt lat="44.9541631884691" lon="10.817557053246034"><ele>20.0</ele><time>2026-04-24T09:10:54.999Z</time></trkpt><trkpt lat="44.95412992446331" lon="10.817738838487417"><ele>20.0</ele><time>2026-04-24T09:10:55.999Z</time></trkpt><trkpt lat="44.954096851587686" lon="10.817905743336167"><ele>20.0</ele><time>2026-04-24T09:10:56.999Z</time></trkpt><trkpt lat="44.95404964921826" lon="10.818065824456436"><ele>20.0</ele><time>2026-04-24T09:10:57.999Z</time></trkpt><trkpt lat="44.95401519137192" lon="10.818227994413624"><ele>20.25</ele><time>2026-04-24T09:10:58.999Z</time></trkpt><trkpt lat="44.95396252657014" lon="10.818541489341262"><ele>20.5</ele><time>2026-04-24T09:11:00.999Z</time></trkpt><trkpt lat="44.95391801961328" lon="10.818671649764578"><ele>20.75</ele><time>2026-04-24T09:11:01.999Z</time></trkpt><trkpt lat="44.95389148815052" lon="10.81879133373739"><ele>21.0</ele><time>2026-04-24T09:11:02.999Z</time></trkpt><trkpt lat="44.95386576866648" lon="10.818907354879288"><ele>21.0</ele><time>2026-04-24T09:11:03.999Z</time></trkpt><trkpt lat="44.95383798444097" lon="10.819029842201669"><ele>21.0</ele><time>2026-04-24T09:11:04.999Z</time></trkpt><trkpt lat="44.95380902961839" lon="10.819157568844902"><ele>21.0</ele><time>2026-04-24T09:11:05.999Z</time></trkpt><trkpt lat="44.95377940870447" lon="10.819288233777531"><ele>21.0</ele><time>2026-04-24T09:11:06.999Z</time></trkpt><trkpt lat="44.95374835995037" lon="10.819425197238031"><ele>21.0</ele><time>2026-04-24T09:11:07.999Z</time></trkpt><trkpt lat="44.95371446000727" lon="10.819574737986688"><ele>21.0</ele><time>2026-04-24T09:11:09Z</time></trkpt><trkpt lat="44.95367846070268" lon="10.81972998935925"><ele>21.0</ele><time>2026-04-24T09:11:10Z</time></trkpt><trkpt lat="44.95364235414913" lon="10.81988519469192"><ele>21.0</ele><time>2026-04-24T09:11:11Z</time></trkpt><trkpt lat="44.95360662042894" lon="10.820038797368982"><ele>21.0</ele><time>2026-04-24T09:11:12Z</time></trkpt><trkpt lat="44.95357097348883" lon="10.820192027020894"><ele>21.0</ele><time>2026-04-24T09:11:13Z</time></trkpt><trkpt lat="44.953534976927955" lon="10.820346759535592"><ele>21.0</ele><time>2026-04-24T09:11:14Z</time></trkpt><trkpt lat="44.95350848023612" lon="10.820508337083886"><ele>21.0</ele><time>2026-04-24T09:11:15Z</time></trkpt><trkpt lat="44.95346930330463" lon="10.820666342823841"><ele>21.0</ele><time>2026-04-24T09:11:16Z</time></trkpt><trkpt lat="44.95343385095685" lon="10.820830324606826"><ele>21.0</ele><time>2026-04-24T09:11:17Z</time></trkpt><trkpt lat="44.953396932171216" lon="10.820992880363777"><ele>21.0</ele><time>2026-04-24T09:11:18Z</time></trkpt><trkpt lat="44.953362458883745" lon="10.821152667884842"><ele>21.0</ele><time>2026-04-24T09:11:19Z</time></trkpt><trkpt lat="44.953325169684945" lon="10.821310221566337"><ele>21.0</ele><time>2026-04-24T09:11:20Z</time></trkpt><trkpt lat="44.9532889477749" lon="10.821461355198112"><ele>21.0</ele><time>2026-04-24T09:11:21Z</time></trkpt><trkpt lat="44.953258051766895" lon="10.821607039440133"><ele>21.0</ele><time>2026-04-24T09:11:22Z</time></trkpt><trkpt lat="44.95321821170028" lon="10.821729999892773"><ele>21.0</ele><time>2026-04-24T09:11:23Z</time></trkpt><trkpt lat="44.95319228707058" lon="10.82185280175075"><ele>21.0</ele><time>2026-04-24T09:11:24Z</time></trkpt><trkpt lat="44.953168160006996" lon="10.821959217316307"><ele>21.0</ele><time>2026-04-24T09:11:25Z</time></trkpt><trkpt lat="44.953145337236954" lon="10.822055757343554"><ele>21.0</ele><time>2026-04-24T09:11:26Z</time></trkpt><trkpt lat="44.95312236245525" lon="10.82214367884483"><ele>20.8</ele><time>2026-04-24T09:11:27Z</time></trkpt><trkpt lat="44.953076266516824" lon="10.822293515596387"><ele>20.6</ele><time>2026-04-24T09:11:29Z</time></trkpt><trkpt lat="44.953052262605944" lon="10.822390245901678"><ele>20.4</ele><time>2026-04-24T09:11:31Z</time></trkpt><trkpt lat="44.95302382945636" lon="10.822510692270015"><ele>20.2</ele><time>2026-04-24T09:11:34Z</time></trkpt><trkpt lat="44.952989736172725" lon="10.822679453666648"><ele>20.0</ele><time>2026-04-24T09:11:42Z</time></trkpt><trkpt lat="44.95294610483159" lon="10.822751673586128"><ele>20.0</ele><time>2026-04-24T09:11:43Z</time></trkpt><trkpt lat="44.95288061766631" lon="10.822794091850454"><ele>20.0</ele><time>2026-04-24T09:11:44Z</time></trkpt><trkpt lat="44.95280510147149" lon="10.822789346856483"><ele>20.0</ele><time>2026-04-24T09:11:45Z</time></trkpt><trkpt lat="44.95272371533885" lon="10.82280210428038"><ele>20.0</ele><time>2026-04-24T09:11:46Z</time></trkpt><trkpt lat="44.952642132688965" lon="10.822800918168578"><ele>20.0</ele><time>2026-04-24T09:11:47Z</time></trkpt><trkpt lat="44.952578547090845" lon="10.822832089183985"><ele>20.0</ele><time>2026-04-24T09:11:48Z</time></trkpt><trkpt lat="44.952530289870545" lon="10.82291446567339"><ele>19.8</ele><time>2026-04-24T09:11:49Z</time></trkpt><trkpt lat="44.95249526500176" lon="10.82302581873213"><ele>19.6</ele><time>2026-04-24T09:11:50Z</time></trkpt><trkpt lat="44.952468172543384" lon="10.823166300676164"><ele>19.4</ele><time>2026-04-24T09:11:51Z</time></trkpt><trkpt lat="44.95244049624228" lon="10.823317467536906"><ele>19.2</ele><time>2026-04-24T09:11:52Z</time></trkpt><trkpt lat="44.95240830137773" lon="10.823476667282812"><ele>19.0</ele><time>2026-04-24T09:11:53Z</time></trkpt><trkpt lat="44.952373165975345" lon="10.823639251264774"><ele>19.0</ele><time>2026-04-24T09:11:54Z</time></trkpt><trkpt lat="44.952336894051534" lon="10.823807779861937"><ele>19.0</ele><time>2026-04-24T09:11:55Z</time></trkpt><trkpt lat="44.952299459715555" lon="10.823990702844505"><ele>19.0</ele><time>2026-04-24T09:11:56Z</time></trkpt><trkpt lat="44.95225515309291" lon="10.824179199018143"><ele>19.0</ele><time>2026-04-24T09:11:57Z</time></trkpt><trkpt lat="44.952206329056686" lon="10.824373768830222"><ele>19.0</ele><time>2026-04-24T09:11:58Z</time></trkpt><trkpt lat="44.9521558378035" lon="10.824577511027439"><ele>19.0</ele><time>2026-04-24T09:11:59Z</time></trkpt><trkpt lat="44.952111464639486" lon="10.824773711540553"><ele>19.0</ele><time>2026-04-24T09:12:00Z</time></trkpt><trkpt lat="44.952062878484675" lon="10.824965778959951"><ele>19.0</ele><time>2026-04-24T09:12:01Z</time></trkpt><trkpt lat="44.95201781836995" lon="10.825170530587885"><ele>19.0</ele><time>2026-04-24T09:12:02Z</time></trkpt><trkpt lat="44.95196701065247" lon="10.825378488521046"><ele>19.0</ele><time>2026-04-24T09:12:03Z</time></trkpt><trkpt lat="44.951919289349945" lon="10.82559502410558"><ele>19.0</ele><time>2026-04-24T09:12:04Z</time></trkpt><trkpt lat="44.951871442197685" lon="10.825813305334385"><ele>18.333333333333332</ele><time>2026-04-24T09:12:05Z</time></trkpt><trkpt lat="44.95182065037244" lon="10.826032383042046"><ele>17.666666666666668</ele><time>2026-04-24T09:12:06Z</time></trkpt><trkpt lat="44.95177098821177" lon="10.826250324115556"><ele>17.0</ele><time>2026-04-24T09:12:07Z</time></trkpt><trkpt lat="44.951716722478444" lon="10.826467841903863"><ele>17.0</ele><time>2026-04-24T09:12:08Z</time></trkpt><trkpt lat="44.95166497208441" lon="10.82668509328987"><ele>17.0</ele><time>2026-04-24T09:12:09Z</time></trkpt><trkpt lat="44.95161614922664" lon="10.826898690303002"><ele>17.0</ele><time>2026-04-24T09:12:10Z</time></trkpt><trkpt lat="44.95156208897573" lon="10.827115907891727"><ele>17.0</ele><time>2026-04-24T09:12:11Z</time></trkpt><trkpt lat="44.9515136409054" lon="10.827335023192168"><ele>17.0</ele><time>2026-04-24T09:12:12Z</time></trkpt><trkpt lat="44.951463670145806" lon="10.827562704310054"><ele>17.0</ele><time>2026-04-24T09:12:13Z</time></trkpt><trkpt lat="44.951409416050446" lon="10.82779642549917"><ele>16.333333333333336</ele><time>2026-04-24T09:12:14Z</time></trkpt><trkpt lat="44.9513557753352" lon="10.828038532070035"><ele>15.666666666666668</ele><time>2026-04-24T09:12:15Z</time></trkpt><trkpt lat="44.951298534475036" lon="10.828283953203186"><ele>15.0</ele><time>2026-04-24T09:12:16Z</time></trkpt><trkpt lat="44.951240346303386" lon="10.828538523774661"><ele>14.666666666666668</ele><time>2026-04-24T09:12:17Z</time></trkpt><trkpt lat="44.95118261172957" lon="10.828791771691927"><ele>14.333333333333334</ele><time>2026-04-24T09:12:18Z</time></trkpt><trkpt lat="44.951122676483664" lon="10.829047664721386"><ele>14.0</ele><time>2026-04-24T09:12:19Z</time></trkpt><trkpt lat="44.95106425415367" lon="10.829302016100947"><ele>13.666666666666668</ele><time>2026-04-24T09:12:20Z</time></trkpt><trkpt lat="44.95100697138208" lon="10.829553744107068"><ele>13.333333333333332</ele><time>2026-04-24T09:12:21Z</time></trkpt><trkpt lat="44.95094950031591" lon="10.829806944848995"><ele>13.0</ele><time>2026-04-24T09:12:22Z</time></trkpt><trkpt lat="44.95089350296719" lon="10.830058426820758"><ele>14.0</ele><time>2026-04-24T09:12:23Z</time></trkpt><trkpt lat="44.950835890283" lon="10.830302710893337"><ele>15.0</ele><time>2026-04-24T09:12:24Z</time></trkpt><trkpt lat="44.95077664439333" lon="10.830554824730436"><ele>16.0</ele><time>2026-04-24T09:12:25Z</time></trkpt><trkpt lat="44.95071901602424" lon="10.830805716287593"><ele>16.0</ele><time>2026-04-24T09:12:26Z</time></trkpt><trkpt lat="44.950659554194644" lon="10.831057027073978"><ele>16.0</ele><time>2026-04-24T09:12:27Z</time></trkpt><trkpt lat="44.95060079332058" lon="10.831309242495877"><ele>16.0</ele><time>2026-04-24T09:12:28Z</time></trkpt><trkpt lat="44.95054640819316" lon="10.831561828836438"><ele>15.666666666666666</ele><time>2026-04-24T09:12:29Z</time></trkpt><trkpt lat="44.950490236798544" lon="10.83181376594018"><ele>15.333333333333332</ele><time>2026-04-24T09:12:30Z</time></trkpt><trkpt lat="44.95043041664484" lon="10.832065144894969"><ele>15.0</ele><time>2026-04-24T09:12:31Z</time></trkpt><trkpt lat="44.95037225448859" lon="10.83231605582208"><ele>15.0</ele><time>2026-04-24T09:12:32Z</time></trkpt><trkpt lat="44.95031163885118" lon="10.832570141126995"><ele>15.0</ele><time>2026-04-24T09:12:33Z</time></trkpt><trkpt lat="44.950251628119105" lon="10.832820127964993"><ele>15.0</ele><time>2026-04-24T09:12:34Z</time></trkpt><trkpt lat="44.950192871965506" lon="10.833067586530653"><ele>14.666666666666668</ele><time>2026-04-24T09:12:35Z</time></trkpt><trkpt lat="44.9501357889849" lon="10.83331559833926"><ele>14.333333333333334</ele><time>2026-04-24T09:12:36Z</time></trkpt><trkpt lat="44.95007890860124" lon="10.833566148577814"><ele>14.0</ele><time>2026-04-24T09:12:37Z</time></trkpt><trkpt lat="44.95002457509487" lon="10.833819617244284"><ele>14.0</ele><time>2026-04-24T09:12:38Z</time></trkpt><trkpt lat="44.949965606554294" lon="10.834068905492227"><ele>14.0</ele><time>2026-04-24T09:12:39Z</time></trkpt><trkpt lat="44.94990569408542" lon="10.834323009943988"><ele>14.0</ele><time>2026-04-24T09:12:40Z</time></trkpt><trkpt lat="44.949845131170434" lon="10.834574149610962"><ele>14.333333333333334</ele><time>2026-04-24T09:12:41Z</time></trkpt><trkpt lat="44.94978770255556" lon="10.834821923163577"><ele>14.666666666666668</ele><time>2026-04-24T09:12:42Z</time></trkpt><trkpt lat="44.94973033885264" lon="10.835073035384623"><ele>15.0</ele><time>2026-04-24T09:12:43Z</time></trkpt><trkpt lat="44.94967200892824" lon="10.835322881544682"><ele>15.0</ele><time>2026-04-24T09:12:44Z</time></trkpt><trkpt lat="44.94961394004232" lon="10.835571164353372"><ele>15.0</ele><time>2026-04-24T09:12:45Z</time></trkpt><trkpt lat="44.949556517950754" lon="10.83582524589071"><ele>15.0</ele><time>2026-04-24T09:12:46Z</time></trkpt><trkpt lat="44.949499769501216" lon="10.836088284484378"><ele>15.333333333333332</ele><time>2026-04-24T09:12:47Z</time></trkpt><trkpt lat="44.94944268636557" lon="10.836350767387302"><ele>15.666666666666666</ele><time>2026-04-24T09:12:48Z</time></trkpt><trkpt lat="44.94938518973474" lon="10.836610775092064"><ele>16.0</ele><time>2026-04-24T09:12:49Z</time></trkpt><trkpt lat="44.949326609333724" lon="10.836868384215279"><ele>16.333333333333332</ele><time>2026-04-24T09:12:50Z</time></trkpt><trkpt lat="44.94926507501929" lon="10.837127619020858"><ele>16.666666666666668</ele><time>2026-04-24T09:12:51Z</time></trkpt><trkpt lat="44.9492031484126" lon="10.837389739958073"><ele>17.0</ele><time>2026-04-24T09:12:52Z</time></trkpt><trkpt lat="44.94914262013768" lon="10.83765427027854"><ele>16.333333333333336</ele><time>2026-04-24T09:12:53Z</time></trkpt><trkpt lat="44.9490805952588" lon="10.837920403218446"><ele>15.666666666666668</ele><time>2026-04-24T09:12:54Z</time></trkpt><trkpt lat="44.949019851467796" lon="10.838188070342227"><ele>15.0</ele><time>2026-04-24T09:12:55Z</time></trkpt><trkpt lat="44.9489597216505" lon="10.83845576156512"><ele>15.333333333333332</ele><time>2026-04-24T09:12:56Z</time></trkpt><trkpt lat="44.94889836635681" lon="10.838720612333924"><ele>15.666666666666666</ele><time>2026-04-24T09:12:57Z</time></trkpt><trkpt lat="44.948838448349434" lon="10.838986600832362"><ele>16.0</ele><time>2026-04-24T09:12:58Z</time></trkpt><trkpt lat="44.948779859215456" lon="10.839249167233344"><ele>16.333333333333332</ele><time>2026-04-24T09:12:59Z</time></trkpt><trkpt lat="44.94871950121466" lon="10.83951539870807"><ele>16.666666666666668</ele><time>2026-04-24T09:13:00Z</time></trkpt><trkpt lat="44.94865877106185" lon="10.839779909774482"><ele>17.0</ele><time>2026-04-24T09:13:01Z</time></trkpt><trkpt lat="44.94859529648558" lon="10.84004560998243"><ele>17.0</ele><time>2026-04-24T09:13:02Z</time></trkpt><trkpt lat="44.948534392721946" lon="10.840310755237107"><ele>17.0</ele><time>2026-04-24T09:13:03Z</time></trkpt><trkpt lat="44.94847477141064" lon="10.840572509020086"><ele>17.0</ele><time>2026-04-24T09:13:04Z</time></trkpt><trkpt lat="44.9484062139582" lon="10.840834258991297"><ele>17.333333333333336</ele><time>2026-04-24T09:13:05Z</time></trkpt><trkpt lat="44.948334755760804" lon="10.84109095997897"><ele>17.666666666666668</ele><time>2026-04-24T09:13:06Z</time></trkpt><trkpt lat="44.94822934327447" lon="10.841326634186139"><ele>18.0</ele><time>2026-04-24T09:13:07Z</time></trkpt><trkpt lat="44.94812447340807" lon="10.841556756018512"><ele>18.0</ele><time>2026-04-24T09:13:08Z</time></trkpt><trkpt lat="44.94800891805435" lon="10.841774470829652"><ele>18.0</ele><time>2026-04-24T09:13:09Z</time></trkpt><trkpt lat="44.947887106942325" lon="10.841985932544127"><ele>18.0</ele><time>2026-04-24T09:13:10Z</time></trkpt><trkpt lat="44.94775996450223" lon="10.842197516279139"><ele>18.0</ele><time>2026-04-24T09:13:11Z</time></trkpt><trkpt lat="44.94763094651374" lon="10.842409541825239"><ele>18.0</ele><time>2026-04-24T09:13:12Z</time></trkpt><trkpt lat="44.94750821340189" lon="10.84263080565868"><ele>18.0</ele><time>2026-04-24T09:13:13Z</time></trkpt><trkpt lat="44.94738100657812" lon="10.842844231120864"><ele>18.0</ele><time>2026-04-24T09:13:14Z</time></trkpt><trkpt lat="44.94725631251012" lon="10.843063580793869"><ele>18.0</ele><time>2026-04-24T09:13:15Z</time></trkpt><trkpt lat="44.94713453413589" lon="10.843281787825584"><ele>18.0</ele><time>2026-04-24T09:13:16Z</time></trkpt><trkpt lat="44.94702460392326" lon="10.843511364354706"><ele>17.666666666666668</ele><time>2026-04-24T09:13:17Z</time></trkpt><trkpt lat="44.94693007204957" lon="10.843755251705415"><ele>17.333333333333336</ele><time>2026-04-24T09:13:18Z</time></trkpt><trkpt lat="44.94684531992992" lon="10.844009924070216"><ele>17.0</ele><time>2026-04-24T09:13:19Z</time></trkpt><trkpt lat="44.94677362318713" lon="10.844269688991062"><ele>17.333333333333336</ele><time>2026-04-24T09:13:20Z</time></trkpt><trkpt lat="44.94671020603193" lon="10.844535985946285"><ele>17.666666666666668</ele><time>2026-04-24T09:13:21Z</time></trkpt><trkpt lat="44.946653976682505" lon="10.844805301287229"><ele>18.0</ele><time>2026-04-24T09:13:22Z</time></trkpt><trkpt lat="44.94659627954885" lon="10.845072760994919"><ele>17.666666666666668</ele><time>2026-04-24T09:13:23Z</time></trkpt><trkpt lat="44.946541266564026" lon="10.845343506576489"><ele>17.333333333333336</ele><time>2026-04-24T09:13:24Z</time></trkpt><trkpt lat="44.946485837611384" lon="10.845612988685332"><ele>17.0</ele><time>2026-04-24T09:13:25Z</time></trkpt><trkpt lat="44.946431072197655" lon="10.845877615886108"><ele>17.0</ele><time>2026-04-24T09:13:26Z</time></trkpt><trkpt lat="44.94637594796876" lon="10.846142597068152"><ele>17.0</ele><time>2026-04-24T09:13:27Z</time></trkpt><trkpt lat="44.946318961018314" lon="10.846406968118487"><ele>17.0</ele><time>2026-04-24T09:13:28Z</time></trkpt><trkpt lat="44.946259048123395" lon="10.846672174354575"><ele>16.666666666666668</ele><time>2026-04-24T09:13:29Z</time></trkpt><trkpt lat="44.946197329981196" lon="10.846937743596502"><ele>16.333333333333332</ele><time>2026-04-24T09:13:30Z</time></trkpt><trkpt lat="44.94613672636265" lon="10.847204621856932"><ele>16.0</ele><time>2026-04-24T09:13:31Z</time></trkpt><trkpt lat="44.9460755665989" lon="10.84747261195099"><ele>15.666666666666666</ele><time>2026-04-24T09:13:32Z</time></trkpt><trkpt lat="44.94601728824805" lon="10.847737524751933"><ele>15.333333333333332</ele><time>2026-04-24T09:13:33Z</time></trkpt><trkpt lat="44.94596079720567" lon="10.848000944293997"><ele>15.0</ele><time>2026-04-24T09:13:34Z</time></trkpt><trkpt lat="44.94590086877185" lon="10.848267091758904"><ele>15.0</ele><time>2026-04-24T09:13:35Z</time></trkpt><trkpt lat="44.94584499680654" lon="10.848529303773931"><ele>15.0</ele><time>2026-04-24T09:13:36Z</time></trkpt><trkpt lat="44.94578814540195" lon="10.848791936162419"><ele>15.0</ele><time>2026-04-24T09:13:37Z</time></trkpt><trkpt lat="44.94572896530068" lon="10.849061197763929"><ele>15.333333333333332</ele><time>2026-04-24T09:13:38Z</time></trkpt><trkpt lat="44.945669194515396" lon="10.849327256888836"><ele>15.666666666666666</ele><time>2026-04-24T09:13:39Z</time></trkpt><trkpt lat="44.94561192382895" lon="10.849596692028692"><ele>16.0</ele><time>2026-04-24T09:13:40Z</time></trkpt><trkpt lat="44.945558425172834" lon="10.849863235608856"><ele>16.666666666666664</ele><time>2026-04-24T09:13:41Z</time></trkpt><trkpt lat="44.94550263912314" lon="10.850131459525231"><ele>17.333333333333332</ele><time>2026-04-24T09:13:42Z</time></trkpt><trkpt lat="44.94544431670097" lon="10.850396522530607"><ele>18.0</ele><time>2026-04-24T09:13:43Z</time></trkpt><trkpt lat="44.945387775242835" lon="10.850663760889205"><ele>18.0</ele><time>2026-04-24T09:13:44Z</time></trkpt><trkpt lat="44.94533024812659" lon="10.85092827310747"><ele>18.0</ele><time>2026-04-24T09:13:45Z</time></trkpt><trkpt lat="44.94527491651685" lon="10.851176932304686"><ele>18.0</ele><time>2026-04-24T09:13:46Z</time></trkpt><trkpt lat="44.945207854774864" lon="10.851401623296855"><ele>18.0</ele><time>2026-04-24T09:13:47Z</time></trkpt><trkpt lat="44.9451586524774" lon="10.851621722006545"><ele>18.0</ele><time>2026-04-24T09:13:48Z</time></trkpt><trkpt lat="44.94511275140541" lon="10.851825021393898"><ele>18.0</ele><time>2026-04-24T09:13:49Z</time></trkpt><trkpt lat="44.94506754518288" lon="10.852019651824854"><ele>18.0</ele><time>2026-04-24T09:13:50Z</time></trkpt><trkpt lat="44.94503363005512" lon="10.852204707902532"><ele>18.0</ele><time>2026-04-24T09:13:51Z</time></trkpt><trkpt lat="44.94498987452655" lon="10.852373368864614"><ele>18.0</ele><time>2026-04-24T09:13:52Z</time></trkpt><trkpt lat="44.94494135638425" lon="10.852531887933427"><ele>18.0</ele><time>2026-04-24T09:13:53Z</time></trkpt><trkpt lat="44.944877758686616" lon="10.852695855043024"><ele>18.0</ele><time>2026-04-24T09:13:54Z</time></trkpt><trkpt lat="44.94481229040202" lon="10.852852271867041"><ele>18.0</ele><time>2026-04-24T09:13:55Z</time></trkpt><trkpt lat="44.94474145779325" lon="10.853003989281722"><ele>18.0</ele><time>2026-04-24T09:13:56Z</time></trkpt><trkpt lat="44.944662281288004" lon="10.853149635617042"><ele>18.0</ele><time>2026-04-24T09:13:57Z</time></trkpt><trkpt lat="44.944578308901654" lon="10.853294244043399"><ele>18.0</ele><time>2026-04-24T09:13:58Z</time></trkpt><trkpt lat="44.94448813262426" lon="10.85343647262702"><ele>18.0</ele><time>2026-04-24T09:13:59Z</time></trkpt><trkpt lat="44.944389191141184" lon="10.853577744655341"><ele>18.0</ele><time>2026-04-24T09:14:00Z</time></trkpt><trkpt lat="44.94428713435703" lon="10.853719854213749"><ele>18.0</ele><time>2026-04-24T09:14:01Z</time></trkpt><trkpt lat="44.9441750254838" lon="10.853853975834681"><ele>18.0</ele><time>2026-04-24T09:14:02Z</time></trkpt><trkpt lat="44.944069672678204" lon="10.85399349142863"><ele>18.0</ele><time>2026-04-24T09:14:03Z</time></trkpt><trkpt lat="44.943958895649466" lon="10.854122868202221"><ele>18.0</ele><time>2026-04-24T09:14:04Z</time></trkpt><trkpt lat="44.94384698426474" lon="10.854256367091136"><ele>18.0</ele><time>2026-04-24T09:14:05Z</time></trkpt><trkpt lat="44.94372904744268" lon="10.854392333618794"><ele>18.333333333333332</ele><time>2026-04-24T09:14:06Z</time></trkpt><trkpt lat="44.94361091511347" lon="10.854531269993416"><ele>18.666666666666664</ele><time>2026-04-24T09:14:07Z</time></trkpt><trkpt lat="44.94349041017664" lon="10.854674182711689"><ele>19.0</ele><time>2026-04-24T09:14:08Z</time></trkpt><trkpt lat="44.943365142136685" lon="10.854815371126003"><ele>19.0</ele><time>2026-04-24T09:14:09Z</time></trkpt><trkpt lat="44.94324741738883" lon="10.854944103139799"><ele>19.0</ele><time>2026-04-24T09:14:10Z</time></trkpt><trkpt lat="44.94314663930737" lon="10.855067858737591"><ele>19.0</ele><time>2026-04-24T09:14:11Z</time></trkpt><trkpt lat="44.94305043400011" lon="10.855193925413259"><ele>19.0</ele><time>2026-04-24T09:14:12Z</time></trkpt><trkpt lat="44.94295862885566" lon="10.855330830966276"><ele>19.0</ele><time>2026-04-24T09:14:13Z</time></trkpt><trkpt lat="44.94287927619316" lon="10.855477656209537"><ele>19.0</ele><time>2026-04-24T09:14:14Z</time></trkpt><trkpt lat="44.94280843441526" lon="10.855628588441439"><ele>19.0</ele><time>2026-04-24T09:14:15Z</time></trkpt><trkpt lat="44.94274446233715" lon="10.855795028284842"><ele>19.0</ele><time>2026-04-24T09:14:16Z</time></trkpt><trkpt lat="44.94268610555996" lon="10.855976647297027"><ele>19.333333333333332</ele><time>2026-04-24T09:14:17Z</time></trkpt><trkpt lat="44.94263370860608" lon="10.856174427620793"><ele>19.666666666666668</ele><time>2026-04-24T09:14:18Z</time></trkpt><trkpt lat="44.94258641165147" lon="10.85638111855802"><ele>20.0</ele><time>2026-04-24T09:14:19Z</time></trkpt><trkpt lat="44.942545114095545" lon="10.856596199766704"><ele>19.666666666666668</ele><time>2026-04-24T09:14:20Z</time></trkpt><trkpt lat="44.94251676502292" lon="10.856820255351044"><ele>19.333333333333332</ele><time>2026-04-24T09:14:21Z</time></trkpt><trkpt lat="44.94249882180921" lon="10.857053305818525"><ele>19.0</ele><time>2026-04-24T09:14:22Z</time></trkpt><trkpt lat="44.94248458617004" lon="10.857284383113633"><ele>19.0</ele><time>2026-04-24T09:14:23Z</time></trkpt><trkpt lat="44.94246914447375" lon="10.857514317164904"><ele>19.0</ele><time>2026-04-24T09:14:24Z</time></trkpt><trkpt lat="44.942455756096706" lon="10.857747759691442"><ele>19.0</ele><time>2026-04-24T09:14:25Z</time></trkpt><trkpt lat="44.94244505880406" lon="10.857985129145389"><ele>18.666666666666664</ele><time>2026-04-24T09:14:26Z</time></trkpt><trkpt lat="44.94242973888037" lon="10.858225452785085"><ele>18.333333333333332</ele><time>2026-04-24T09:14:27Z</time></trkpt><trkpt lat="44.94241478054307" lon="10.858466297777234"><ele>18.0</ele><time>2026-04-24T09:14:28Z</time></trkpt><trkpt lat="44.94239770727211" lon="10.858703825711013"><ele>18.0</ele><time>2026-04-24T09:14:29Z</time></trkpt><trkpt lat="44.94238405122279" lon="10.858946013291941"><ele>18.0</ele><time>2026-04-24T09:14:30Z</time></trkpt><trkpt lat="44.94237267319923" lon="10.85919578736628"><ele>18.0</ele><time>2026-04-24T09:14:31Z</time></trkpt><trkpt lat="44.94234746797023" lon="10.859445805472056"><ele>18.0</ele><time>2026-04-24T09:14:32Z</time></trkpt><trkpt lat="44.94233047694154" lon="10.859699894985493"><ele>18.0</ele><time>2026-04-24T09:14:33Z</time></trkpt><trkpt lat="44.942312922130725" lon="10.859958427437212"><ele>18.0</ele><time>2026-04-24T09:14:34Z</time></trkpt><trkpt lat="44.94229173314316" lon="10.860212803254404"><ele>18.0</ele><time>2026-04-24T09:14:35Z</time></trkpt><trkpt lat="44.94227008182796" lon="10.860467324517252"><ele>18.0</ele><time>2026-04-24T09:14:36Z</time></trkpt><trkpt lat="44.942250562459726" lon="10.860717955377375"><ele>18.0</ele><time>2026-04-24T09:14:37Z</time></trkpt><trkpt lat="44.94223184005706" lon="10.860972194508616"><ele>18.0</ele><time>2026-04-24T09:14:38Z</time></trkpt><trkpt lat="44.942213692195615" lon="10.861232501774612"><ele>18.0</ele><time>2026-04-24T09:14:39Z</time></trkpt><trkpt lat="44.94219877737012" lon="10.86149122740255"><ele>18.0</ele><time>2026-04-24T09:14:40Z</time></trkpt><trkpt lat="44.94218206788951" lon="10.861750016964962"><ele>17.666666666666668</ele><time>2026-04-24T09:14:41Z</time></trkpt><trkpt lat="44.94216620364186" lon="10.86201413785044"><ele>17.333333333333336</ele><time>2026-04-24T09:14:42Z</time></trkpt><trkpt lat="44.94215050138601" lon="10.862275095748808"><ele>17.0</ele><time>2026-04-24T09:14:43Z</time></trkpt><trkpt lat="44.94213089262844" lon="10.862535209909053"><ele>17.666666666666668</ele><time>2026-04-24T09:14:44Z</time></trkpt><trkpt lat="44.94211262137925" lon="10.862791882252488"><ele>18.333333333333332</ele><time>2026-04-24T09:14:45Z</time></trkpt><trkpt lat="44.942093191499566" lon="10.863049270645899"><ele>19.0</ele><time>2026-04-24T09:14:46Z</time></trkpt><trkpt lat="44.94207534657029" lon="10.863308605216949"><ele>19.333333333333332</ele><time>2026-04-24T09:14:47Z</time></trkpt><trkpt lat="44.9420564716083" lon="10.863571877508406"><ele>19.666666666666668</ele><time>2026-04-24T09:14:48Z</time></trkpt><trkpt lat="44.942040168817265" lon="10.863841422510044"><ele>20.0</ele><time>2026-04-24T09:14:49Z</time></trkpt><trkpt lat="44.9420223246401" lon="10.86410943420795"><ele>19.333333333333336</ele><time>2026-04-24T09:14:50Z</time></trkpt><trkpt lat="44.942002044835704" lon="10.864376050144116"><ele>18.666666666666668</ele><time>2026-04-24T09:14:51Z</time></trkpt><trkpt lat="44.94198217549945" lon="10.864640464199843"><ele>18.0</ele><time>2026-04-24T09:14:52Z</time></trkpt><trkpt lat="44.94196380383504" lon="10.864907687048674"><ele>17.0</ele><time>2026-04-24T09:14:53Z</time></trkpt><trkpt lat="44.94194609387964" lon="10.865174329888022"><ele>16.0</ele><time>2026-04-24T09:14:54Z</time></trkpt><trkpt lat="44.94192856332723" lon="10.8654478874714"><ele>15.0</ele><time>2026-04-24T09:14:55Z</time></trkpt><trkpt lat="44.94190700141837" lon="10.865718173167439"><ele>15.666666666666668</ele><time>2026-04-24T09:14:56Z</time></trkpt><trkpt lat="44.94188590012946" lon="10.865999329466161"><ele>16.333333333333336</ele><time>2026-04-24T09:14:57Z</time></trkpt><trkpt lat="44.9418670324029" lon="10.86626638802084"><ele>17.0</ele><time>2026-04-24T09:14:58Z</time></trkpt><trkpt lat="44.941847017137846" lon="10.866539525496265"><ele>17.0</ele><time>2026-04-24T09:14:59Z</time></trkpt><trkpt lat="44.94182963053804" lon="10.866810693239316"><ele>17.0</ele><time>2026-04-24T09:15:00Z</time></trkpt><trkpt lat="44.941811752517346" lon="10.867084006618914"><ele>17.0</ele><time>2026-04-24T09:15:01Z</time></trkpt><trkpt lat="44.94179234577468" lon="10.867358968245037"><ele>17.0</ele><time>2026-04-24T09:15:02Z</time></trkpt><trkpt lat="44.94177318615594" lon="10.867632266090139"><ele>17.0</ele><time>2026-04-24T09:15:03Z</time></trkpt><trkpt lat="44.9417532293733" lon="10.867907373449789"><ele>17.0</ele><time>2026-04-24T09:15:04Z</time></trkpt><trkpt lat="44.94173626767349" lon="10.868180634838332"><ele>17.0</ele><time>2026-04-24T09:15:05Z</time></trkpt><trkpt lat="44.94171752658509" lon="10.868451485168517"><ele>17.0</ele><time>2026-04-24T09:15:06Z</time></trkpt><trkpt lat="44.94170126552177" lon="10.868722415944811"><ele>17.0</ele><time>2026-04-24T09:15:07Z</time></trkpt><trkpt lat="44.941683425488286" lon="10.8689954836549"><ele>16.666666666666668</ele><time>2026-04-24T09:15:08Z</time></trkpt><trkpt lat="44.94166768923984" lon="10.869266375695428"><ele>16.333333333333332</ele><time>2026-04-24T09:15:09Z</time></trkpt><trkpt lat="44.941652508916384" lon="10.869537513517997"><ele>16.0</ele><time>2026-04-24T09:15:10Z</time></trkpt><trkpt lat="44.94163478499266" lon="10.869811901054776"><ele>15.333333333333332</ele><time>2026-04-24T09:15:11Z</time></trkpt><trkpt lat="44.94161571684672" lon="10.870082560532454"><ele>14.666666666666668</ele><time>2026-04-24T09:15:12Z</time></trkpt><trkpt lat="44.941598190719496" lon="10.870355273546814"><ele>14.0</ele><time>2026-04-24T09:15:13Z</time></trkpt><trkpt lat="44.94158321603444" lon="10.87063098727564"><ele>14.0</ele><time>2026-04-24T09:15:14Z</time></trkpt><trkpt lat="44.94157059529798" lon="10.870903247988474"><ele>14.0</ele><time>2026-04-24T09:15:15Z</time></trkpt><trkpt lat="44.94156014447039" lon="10.871177192431757"><ele>14.0</ele><time>2026-04-24T09:15:16Z</time></trkpt><trkpt lat="44.94154040472528" lon="10.871449916782288"><ele>14.0</ele><time>2026-04-24T09:15:17Z</time></trkpt><trkpt lat="44.94152291970306" lon="10.871722678385211"><ele>14.0</ele><time>2026-04-24T09:15:18Z</time></trkpt><trkpt lat="44.94150895354084" lon="10.871998418688841"><ele>14.0</ele><time>2026-04-24T09:15:19Z</time></trkpt><trkpt lat="44.94149689159019" lon="10.872269127197365"><ele>14.0</ele><time>2026-04-24T09:15:20Z</time></trkpt><trkpt lat="44.94148309806188" lon="10.872545177910052"><ele>14.0</ele><time>2026-04-24T09:15:21Z</time></trkpt><trkpt lat="44.94147082032442" lon="10.872821211489123"><ele>14.0</ele><time>2026-04-24T09:15:22Z</time></trkpt><trkpt lat="44.941459450071314" lon="10.873095415052576"><ele>14.333333333333334</ele><time>2026-04-24T09:15:23Z</time></trkpt><trkpt lat="44.941433702833955" lon="10.87336459175874"><ele>14.666666666666668</ele><time>2026-04-24T09:15:24Z</time></trkpt><trkpt lat="44.94143993838118" lon="10.873639532633662"><ele>15.0</ele><time>2026-04-24T09:15:25Z</time></trkpt><trkpt lat="44.941420081824255" lon="10.873912568188462"><ele>15.666666666666668</ele><time>2026-04-24T09:15:26Z</time></trkpt><trkpt lat="44.94140064977726" lon="10.874183530813868"><ele>16.333333333333336</ele><time>2026-04-24T09:15:27Z</time></trkpt><trkpt lat="44.941382073729585" lon="10.874456524085385"><ele>17.0</ele><time>2026-04-24T09:15:28Z</time></trkpt><trkpt lat="44.94136660630955" lon="10.874729811172658"><ele>17.0</ele><time>2026-04-24T09:15:29Z</time></trkpt><trkpt lat="44.94134941633408" lon="10.875004190422244"><ele>17.0</ele><time>2026-04-24T09:15:30Z</time></trkpt><trkpt lat="44.94133477914606" lon="10.875280975283014"><ele>17.0</ele><time>2026-04-24T09:15:31Z</time></trkpt><trkpt lat="44.94132005788134" lon="10.875560016516342"><ele>17.0</ele><time>2026-04-24T09:15:32Z</time></trkpt><trkpt lat="44.94130496418127" lon="10.875844459737639"><ele>17.0</ele><time>2026-04-24T09:15:33Z</time></trkpt><trkpt lat="44.94129061109283" lon="10.876126570282196"><ele>17.0</ele><time>2026-04-24T09:15:34Z</time></trkpt><trkpt lat="44.941273214326394" lon="10.876410365579936"><ele>17.0</ele><time>2026-04-24T09:15:35Z</time></trkpt><trkpt lat="44.941253016062284" lon="10.876689968240846"><ele>17.0</ele><time>2026-04-24T09:15:36Z</time></trkpt><trkpt lat="44.94123726475894" lon="10.876968483739514"><ele>17.0</ele><time>2026-04-24T09:15:37Z</time></trkpt><trkpt lat="44.941221578420496" lon="10.87724765561371"><ele>17.333333333333336</ele><time>2026-04-24T09:15:38Z</time></trkpt><trkpt lat="44.94120479348427" lon="10.877528608521523"><ele>17.666666666666668</ele><time>2026-04-24T09:15:39Z</time></trkpt><trkpt lat="44.94118912159424" lon="10.877806239613193"><ele>18.0</ele><time>2026-04-24T09:15:40Z</time></trkpt><trkpt lat="44.94117404565999" lon="10.878085943116766"><ele>18.0</ele><time>2026-04-24T09:15:41Z</time></trkpt><trkpt lat="44.941158109327795" lon="10.878365278124148"><ele>18.0</ele><time>2026-04-24T09:15:42Z</time></trkpt><trkpt lat="44.94113640325113" lon="10.878642123371657"><ele>18.0</ele><time>2026-04-24T09:15:43Z</time></trkpt><trkpt lat="44.941111194841255" lon="10.878921284059912"><ele>18.0</ele><time>2026-04-24T09:15:44Z</time></trkpt><trkpt lat="44.9410857087746" lon="10.879200592438321"><ele>18.0</ele><time>2026-04-24T09:15:45Z</time></trkpt><trkpt lat="44.94106284183827" lon="10.87947900555857"><ele>18.0</ele><time>2026-04-24T09:15:46Z</time></trkpt><trkpt lat="44.94103741764625" lon="10.879756916128434"><ele>17.333333333333332</ele><time>2026-04-24T09:15:47Z</time></trkpt><trkpt lat="44.94101346481236" lon="10.880036824529425"><ele>16.666666666666664</ele><time>2026-04-24T09:15:48Z</time></trkpt><trkpt lat="44.940986827295305" lon="10.8803117980113"><ele>16.0</ele><time>2026-04-24T09:15:49Z</time></trkpt><trkpt lat="44.94095831489694" lon="10.880585272909018"><ele>16.0</ele><time>2026-04-24T09:15:50Z</time></trkpt><trkpt lat="44.94092785121663" lon="10.880860514129791"><ele>16.0</ele><time>2026-04-24T09:15:51Z</time></trkpt><trkpt lat="44.940899980429435" lon="10.881141223134462"><ele>16.0</ele><time>2026-04-24T09:15:52Z</time></trkpt><trkpt lat="44.940870427181736" lon="10.881419444600402"><ele>16.0</ele><time>2026-04-24T09:15:53Z</time></trkpt><trkpt lat="44.940837476668555" lon="10.881695573999888"><ele>16.0</ele><time>2026-04-24T09:15:54Z</time></trkpt><trkpt lat="44.94080032393827" lon="10.881972341004941"><ele>16.0</ele><time>2026-04-24T09:15:55Z</time></trkpt><trkpt lat="44.940766070859205" lon="10.882249195209422"><ele>16.0</ele><time>2026-04-24T09:15:56Z</time></trkpt><trkpt lat="44.94073189003086" lon="10.882525705241225"><ele>16.0</ele><time>2026-04-24T09:15:57Z</time></trkpt><trkpt lat="44.94069330375844" lon="10.882801394473463"><ele>16.0</ele><time>2026-04-24T09:15:58Z</time></trkpt><trkpt lat="44.940651367036594" lon="10.88307778695175"><ele>16.0</ele><time>2026-04-24T09:15:59Z</time></trkpt><trkpt lat="44.940610052058595" lon="10.883351474393603"><ele>16.0</ele><time>2026-04-24T09:16:00Z</time></trkpt><trkpt lat="44.94057293226808" lon="10.883625570194113"><ele>16.0</ele><time>2026-04-24T09:16:01Z</time></trkpt><trkpt lat="44.94052925994621" lon="10.883899543456888"><ele>16.333333333333332</ele><time>2026-04-24T09:16:02Z</time></trkpt><trkpt lat="44.9404839467425" lon="10.884173351220674"><ele>16.666666666666668</ele><time>2026-04-24T09:16:03Z</time></trkpt><trkpt lat="44.94043585168864" lon="10.884444436242894"><ele>17.0</ele><time>2026-04-24T09:16:04Z</time></trkpt><trkpt lat="44.94038688519063" lon="10.884715029410536"><ele>17.0</ele><time>2026-04-24T09:16:05Z</time></trkpt><trkpt lat="44.94033017173098" lon="10.884983359706045"><ele>17.0</ele><time>2026-04-24T09:16:06Z</time></trkpt><trkpt lat="44.94026625874083" lon="10.88525294692334"><ele>17.0</ele><time>2026-04-24T09:16:07Z</time></trkpt><trkpt lat="44.940194789889226" lon="10.885516680328836"><ele>16.333333333333336</ele><time>2026-04-24T09:16:08Z</time></trkpt><trkpt lat="44.940097011674716" lon="10.88576317476407"><ele>15.666666666666668</ele><time>2026-04-24T09:16:09Z</time></trkpt><trkpt lat="44.94000668914244" lon="10.886009646284373"><ele>15.0</ele><time>2026-04-24T09:16:10Z</time></trkpt><trkpt lat="44.93990806299994" lon="10.886252975636753"><ele>15.0</ele><time>2026-04-24T09:16:11Z</time></trkpt><trkpt lat="44.93980175237303" lon="10.886489497671485"><ele>15.0</ele><time>2026-04-24T09:16:12Z</time></trkpt><trkpt lat="44.93969087171698" lon="10.886721728104561"><ele>15.0</ele><time>2026-04-24T09:16:13Z</time></trkpt><trkpt lat="44.93957905511562" lon="10.886952767162631"><ele>15.0</ele><time>2026-04-24T09:16:14Z</time></trkpt><trkpt lat="44.93947991661621" lon="10.887199424020801"><ele>15.0</ele><time>2026-04-24T09:16:15Z</time></trkpt><trkpt lat="44.93935539156821" lon="10.887420714451567"><ele>15.0</ele><time>2026-04-24T09:16:16Z</time></trkpt><trkpt lat="44.93925669326532" lon="10.887663001611442"><ele>15.333333333333332</ele><time>2026-04-24T09:16:17Z</time></trkpt><trkpt lat="44.93914161021251" lon="10.887891851360479"><ele>15.666666666666666</ele><time>2026-04-24T09:16:18Z</time></trkpt><trkpt lat="44.939029646407555" lon="10.888120937823142"><ele>16.0</ele><time>2026-04-24T09:16:19Z</time></trkpt><trkpt lat="44.938917681046476" lon="10.888351660060582"><ele>16.333333333333332</ele><time>2026-04-24T09:16:20Z</time></trkpt><trkpt lat="44.938807229130376" lon="10.888585041359956"><ele>16.666666666666668</ele><time>2026-04-24T09:16:21Z</time></trkpt><trkpt lat="44.938693798515814" lon="10.888813996728127"><ele>17.0</ele><time>2026-04-24T09:16:22Z</time></trkpt><trkpt lat="44.93858451091228" lon="10.889046120578053"><ele>16.666666666666668</ele><time>2026-04-24T09:16:23Z</time></trkpt><trkpt lat="44.93847521693032" lon="10.889281419109103"><ele>16.333333333333332</ele><time>2026-04-24T09:16:24Z</time></trkpt><trkpt lat="44.93835931627369" lon="10.889517910462096"><ele>16.0</ele><time>2026-04-24T09:16:25Z</time></trkpt><trkpt lat="44.938243515111616" lon="10.889758179394963"><ele>16.0</ele><time>2026-04-24T09:16:26Z</time></trkpt><trkpt lat="44.9381278114206" lon="10.890006246560919"><ele>16.0</ele><time>2026-04-24T09:16:27Z</time></trkpt><trkpt lat="44.93801509583953" lon="10.890250642186158"><ele>16.0</ele><time>2026-04-24T09:16:28Z</time></trkpt><trkpt lat="44.93790897148889" lon="10.890498900841385"><ele>16.0</ele><time>2026-04-24T09:16:29Z</time></trkpt><trkpt lat="44.937801605106436" lon="10.890747934117929"><ele>16.0</ele><time>2026-04-24T09:16:30Z</time></trkpt><trkpt lat="44.93769614688327" lon="10.890997531174499"><ele>16.0</ele><time>2026-04-24T09:16:31Z</time></trkpt><trkpt lat="44.93759402908895" lon="10.891245185328518"><ele>16.333333333333332</ele><time>2026-04-24T09:16:32Z</time></trkpt><trkpt lat="44.93749088910803" lon="10.891497293339881"><ele>16.666666666666668</ele><time>2026-04-24T09:16:33Z</time></trkpt><trkpt lat="44.93739411490911" lon="10.891751448389448"><ele>17.0</ele><time>2026-04-24T09:16:34Z</time></trkpt><trkpt lat="44.937299002852264" lon="10.892005502978293"><ele>17.0</ele><time>2026-04-24T09:16:35Z</time></trkpt><trkpt lat="44.937205444756835" lon="10.89226429599527"><ele>17.0</ele><time>2026-04-24T09:16:36Z</time></trkpt><trkpt lat="44.93711648980553" lon="10.892522056880223"><ele>17.0</ele><time>2026-04-24T09:16:37Z</time></trkpt><trkpt lat="44.93702414707941" lon="10.892776216092818"><ele>17.0</ele><time>2026-04-24T09:16:38Z</time></trkpt><trkpt lat="44.93693068948257" lon="10.893034269848254"><ele>17.0</ele><time>2026-04-24T09:16:39Z</time></trkpt><trkpt lat="44.93684451263498" lon="10.89329492238601"><ele>17.0</ele><time>2026-04-24T09:16:40Z</time></trkpt><trkpt lat="44.93675907497556" lon="10.893551780734926"><ele>17.0</ele><time>2026-04-24T09:16:41Z</time></trkpt><trkpt lat="44.93667673195724" lon="10.893809206002423"><ele>17.0</ele><time>2026-04-24T09:16:42Z</time></trkpt><trkpt lat="44.93659264274711" lon="10.894066962897098"><ele>17.0</ele><time>2026-04-24T09:16:43Z</time></trkpt><trkpt lat="44.93650771566752" lon="10.89432671992544"><ele>17.0</ele><time>2026-04-24T09:16:44Z</time></trkpt><trkpt lat="44.936420415891895" lon="10.894586685582857"><ele>17.0</ele><time>2026-04-24T09:16:45Z</time></trkpt><trkpt lat="44.9363283692773" lon="10.894843911523447"><ele>17.0</ele><time>2026-04-24T09:16:46Z</time></trkpt><trkpt lat="44.93622783623615" lon="10.895093542727249"><ele>17.0</ele><time>2026-04-24T09:16:47Z</time></trkpt><trkpt lat="44.93611339974293" lon="10.895332888848385"><ele>17.0</ele><time>2026-04-24T09:16:48Z</time></trkpt><trkpt lat="44.935985820559765" lon="10.895563126748616"><ele>17.0</ele><time>2026-04-24T09:16:49Z</time></trkpt><trkpt lat="44.935836446127134" lon="10.895759493466134"><ele>17.333333333333336</ele><time>2026-04-24T09:16:50Z</time></trkpt><trkpt lat="44.93569110881792" lon="10.895962407163422"><ele>17.666666666666668</ele><time>2026-04-24T09:16:51Z</time></trkpt><trkpt lat="44.93554487467227" lon="10.896163071081336"><ele>18.0</ele><time>2026-04-24T09:16:52Z</time></trkpt><trkpt lat="44.93540583148613" lon="10.896380151425905"><ele>18.0</ele><time>2026-04-24T09:16:53Z</time></trkpt><trkpt lat="44.9352553987856" lon="10.896577397602297"><ele>18.0</ele><time>2026-04-24T09:16:54Z</time></trkpt><trkpt lat="44.935109471583154" lon="10.896778791331869"><ele>18.0</ele><time>2026-04-24T09:16:55Z</time></trkpt><trkpt lat="44.93496547926811" lon="10.896977098117086"><ele>18.0</ele><time>2026-04-24T09:16:56Z</time></trkpt><trkpt lat="44.93481870393844" lon="10.897177784898648"><ele>18.0</ele><time>2026-04-24T09:16:57Z</time></trkpt><trkpt lat="44.93466970269091" lon="10.897380554080948"><ele>18.0</ele><time>2026-04-24T09:16:58Z</time></trkpt><trkpt lat="44.93452226531872" lon="10.897582509583893"><ele>18.0</ele><time>2026-04-24T09:16:59Z</time></trkpt><trkpt lat="44.93437421663773" lon="10.89778467317535"><ele>18.0</ele><time>2026-04-24T09:17:00Z</time></trkpt><trkpt lat="44.934226548405455" lon="10.897985526643982"><ele>18.0</ele><time>2026-04-24T09:17:01Z</time></trkpt><trkpt lat="44.93408055362567" lon="10.898187690116954"><ele>18.0</ele><time>2026-04-24T09:17:02Z</time></trkpt><trkpt lat="44.933936523081144" lon="10.89839218186886"><ele>18.0</ele><time>2026-04-24T09:17:03Z</time></trkpt><trkpt lat="44.933795278179744" lon="10.898600143785846"><ele>18.0</ele><time>2026-04-24T09:17:04Z</time></trkpt><trkpt lat="44.93365446268166" lon="10.898807754720917"><ele>18.0</ele><time>2026-04-24T09:17:05Z</time></trkpt><trkpt lat="44.93352909229433" lon="10.899034041619851"><ele>18.0</ele><time>2026-04-24T09:17:06Z</time></trkpt><trkpt lat="44.933403346810664" lon="10.899261124386557"><ele>18.0</ele><time>2026-04-24T09:17:07Z</time></trkpt><trkpt lat="44.93328307123571" lon="10.899494781628794"><ele>17.666666666666668</ele><time>2026-04-24T09:17:08Z</time></trkpt><trkpt lat="44.93316567690162" lon="10.899734641451161"><ele>17.333333333333336</ele><time>2026-04-24T09:17:09Z</time></trkpt><trkpt lat="44.93305128712064" lon="10.899975183441983"><ele>17.0</ele><time>2026-04-24T09:17:10Z</time></trkpt><trkpt lat="44.932938652281415" lon="10.900218618462427"><ele>17.0</ele><time>2026-04-24T09:17:11Z</time></trkpt><trkpt lat="44.932822961905664" lon="10.900456815865454"><ele>17.0</ele><time>2026-04-24T09:17:12Z</time></trkpt><trkpt lat="44.93270882093723" lon="10.900691051650416"><ele>17.0</ele><time>2026-04-24T09:17:13Z</time></trkpt><trkpt lat="44.93259199225642" lon="10.900928973917123"><ele>17.0</ele><time>2026-04-24T09:17:14Z</time></trkpt><trkpt lat="44.93247631416117" lon="10.9011680716916"><ele>17.0</ele><time>2026-04-24T09:17:15Z</time></trkpt><trkpt lat="44.93235883161525" lon="10.901406811028062"><ele>17.0</ele><time>2026-04-24T09:17:16Z</time></trkpt><trkpt lat="44.93224345879611" lon="10.9016467060201"><ele>17.0</ele><time>2026-04-24T09:17:17Z</time></trkpt><trkpt lat="44.93212757045785" lon="10.90188397725451"><ele>17.0</ele><time>2026-04-24T09:17:18Z</time></trkpt><trkpt lat="44.932014186141124" lon="10.902120561117538"><ele>17.0</ele><time>2026-04-24T09:17:19Z</time></trkpt><trkpt lat="44.931900915737245" lon="10.902356140780393"><ele>17.333333333333336</ele><time>2026-04-24T09:17:20Z</time></trkpt><trkpt lat="44.93178342334996" lon="10.902590536289235"><ele>17.666666666666668</ele><time>2026-04-24T09:17:21Z</time></trkpt><trkpt lat="44.93166564173434" lon="10.902824962238272"><ele>18.0</ele><time>2026-04-24T09:17:22Z</time></trkpt><trkpt lat="44.93155376017249" lon="10.903060078215136"><ele>18.666666666666668</ele><time>2026-04-24T09:17:23Z</time></trkpt><trkpt lat="44.93143872326491" lon="10.903297141415225"><ele>19.333333333333336</ele><time>2026-04-24T09:17:24Z</time></trkpt><trkpt lat="44.93132374952091" lon="10.903538345160927"><ele>20.0</ele><time>2026-04-24T09:17:25Z</time></trkpt><trkpt lat="44.93120787236625" lon="10.90377712197433"><ele>20.0</ele><time>2026-04-24T09:17:26Z</time></trkpt><trkpt lat="44.9310903637197" lon="10.904014647917712"><ele>20.0</ele><time>2026-04-24T09:17:27Z</time></trkpt><trkpt lat="44.93097420646639" lon="10.904251031775157"><ele>20.0</ele><time>2026-04-24T09:17:28Z</time></trkpt><trkpt lat="44.93085773695212" lon="10.904487243633827"><ele>20.0</ele><time>2026-04-24T09:17:29Z</time></trkpt><trkpt lat="44.93074383662951" lon="10.90472772987556"><ele>20.0</ele><time>2026-04-24T09:17:30Z</time></trkpt><trkpt lat="44.93062297247412" lon="10.904966304451644"><ele>20.0</ele><time>2026-04-24T09:17:31Z</time></trkpt><trkpt lat="44.930501816045904" lon="10.905199224416945"><ele>20.0</ele><time>2026-04-24T09:17:32Z</time></trkpt><trkpt lat="44.93038406878239" lon="10.90543796492272"><ele>20.0</ele><time>2026-04-24T09:17:33Z</time></trkpt><trkpt lat="44.93026696459186" lon="10.90567359063194"><ele>20.0</ele><time>2026-04-24T09:17:34Z</time></trkpt><trkpt lat="44.93014962555192" lon="10.905908099043707"><ele>19.666666666666668</ele><time>2026-04-24T09:17:35Z</time></trkpt><trkpt lat="44.9300327448733" lon="10.90614073501428"><ele>19.333333333333332</ele><time>2026-04-24T09:17:36Z</time></trkpt><trkpt lat="44.929916294213164" lon="10.90637483922652"><ele>19.0</ele><time>2026-04-24T09:17:37Z</time></trkpt><trkpt lat="44.929800612961905" lon="10.906614288479556"><ele>18.666666666666664</ele><time>2026-04-24T09:17:38Z</time></trkpt><trkpt lat="44.929682341582584" lon="10.906852129623275"><ele>18.333333333333332</ele><time>2026-04-24T09:17:39Z</time></trkpt><trkpt lat="44.92956299268313" lon="10.907083816009102"><ele>18.0</ele><time>2026-04-24T09:17:40Z</time></trkpt><trkpt lat="44.92944769131698" lon="10.90731864672453"><ele>18.0</ele><time>2026-04-24T09:17:41Z</time></trkpt><trkpt lat="44.92933299081136" lon="10.907552683255865"><ele>18.0</ele><time>2026-04-24T09:17:42Z</time></trkpt><trkpt lat="44.92921365210595" lon="10.907784965246586"><ele>18.0</ele><time>2026-04-24T09:17:43Z</time></trkpt><trkpt lat="44.92909664939075" lon="10.908020479483582"><ele>18.0</ele><time>2026-04-24T09:17:44Z</time></trkpt><trkpt lat="44.92898500869111" lon="10.90824158986059"><ele>18.0</ele><time>2026-04-24T09:17:45Z</time></trkpt><trkpt lat="44.92887942342955" lon="10.908446972974568"><ele>18.0</ele><time>2026-04-24T09:17:46Z</time></trkpt><trkpt lat="44.92878360212558" lon="10.908642678668425"><ele>18.25</ele><time>2026-04-24T09:17:47Z</time></trkpt><trkpt lat="44.928696533043606" lon="10.908828071374387"><ele>18.5</ele><time>2026-04-24T09:17:48Z</time></trkpt><trkpt lat="44.9286135419822" lon="10.908997223988367"><ele>18.75</ele><time>2026-04-24T09:17:49Z</time></trkpt><trkpt lat="44.92853591922853" lon="10.909155040471974"><ele>19.0</ele><time>2026-04-24T09:17:50Z</time></trkpt><trkpt lat="44.92846355693162" lon="10.909303986866194"><ele>19.0</ele><time>2026-04-24T09:17:51Z</time></trkpt><trkpt lat="44.92839936575041" lon="10.909444408007706"><ele>19.0</ele><time>2026-04-24T09:17:52Z</time></trkpt><trkpt lat="44.92833842368119" lon="10.909569454973335"><ele>19.0</ele><time>2026-04-24T09:17:53Z</time></trkpt><trkpt lat="44.928270796893365" lon="10.909703860092137"><ele>19.0</ele><time>2026-04-24T09:17:54Z</time></trkpt><trkpt lat="44.92819836137675" lon="10.909846648545264"><ele>19.0</ele><time>2026-04-24T09:17:55Z</time></trkpt><trkpt lat="44.92813328979846" lon="10.909975796558726"><ele>19.0</ele><time>2026-04-24T09:17:56Z</time></trkpt><trkpt lat="44.928071247532145" lon="10.910095399529949"><ele>19.0</ele><time>2026-04-24T09:17:57Z</time></trkpt><trkpt lat="44.92800985878461" lon="10.910205806287573"><ele>19.0</ele><time>2026-04-24T09:17:58Z</time></trkpt><trkpt lat="44.9279478131647" lon="10.910304871717214"><ele>19.0</ele><time>2026-04-24T09:17:59Z</time></trkpt><trkpt lat="44.927874176452484" lon="10.91040912513772"><ele>19.0</ele><time>2026-04-24T09:18:01Z</time></trkpt><trkpt lat="44.92787602009625" lon="10.910510171159567"><ele>19.0</ele><time>2026-04-24T09:18:05Z</time></trkpt><trkpt lat="44.92787499387716" lon="10.910602406124065"><ele>19.0</ele><time>2026-04-24T09:18:06Z</time></trkpt><trkpt lat="44.92790623170366" lon="10.91068830254285"><ele>19.0</ele><time>2026-04-24T09:18:07Z</time></trkpt><trkpt lat="44.9279610684538" lon="10.910821897968669"><ele>19.0</ele><time>2026-04-24T09:18:08Z</time></trkpt><trkpt lat="44.92801828741783" lon="10.910951918438577"><ele>19.0</ele><time>2026-04-24T09:18:09Z</time></trkpt><trkpt lat="44.9281225392736" lon="10.911229503719861"><ele>19.4</ele><time>2026-04-24T09:18:11Z</time></trkpt><trkpt lat="44.92818379441391" lon="10.91136266435705"><ele>19.799999999999997</ele><time>2026-04-24T09:18:12Z</time></trkpt><trkpt lat="44.92824377394108" lon="10.911496444264161"><ele>20.200000000000003</ele><time>2026-04-24T09:18:13Z</time></trkpt><trkpt lat="44.928301225214064" lon="10.911633498408099"><ele>20.6</ele><time>2026-04-24T09:18:14Z</time></trkpt><trkpt lat="44.928352931246465" lon="10.91177021393645"><ele>21.0</ele><time>2026-04-24T09:18:15Z</time></trkpt><trkpt lat="44.92840672339468" lon="10.911906503412787"><ele>21.200000000000003</ele><time>2026-04-24T09:18:16Z</time></trkpt><trkpt lat="44.92846042871679" lon="10.912042553254446"><ele>21.400000000000002</ele><time>2026-04-24T09:18:17Z</time></trkpt><trkpt lat="44.928515127969696" lon="10.912178745762988"><ele>21.6</ele><time>2026-04-24T09:18:18Z</time></trkpt><trkpt lat="44.9285707126531" lon="10.912317769265314"><ele>21.8</ele><time>2026-04-24T09:18:19Z</time></trkpt><trkpt lat="44.92862338561367" lon="10.912455015023024"><ele>22.0</ele><time>2026-04-24T09:18:20Z</time></trkpt><trkpt lat="44.928675105325354" lon="10.912591552139068"><ele>22.0</ele><time>2026-04-24T09:18:21Z</time></trkpt><trkpt lat="44.9287265909003" lon="10.912732044382853"><ele>22.0</ele><time>2026-04-24T09:18:22Z</time></trkpt><trkpt lat="44.92877956075287" lon="10.9128752399467"><ele>22.0</ele><time>2026-04-24T09:18:23Z</time></trkpt><trkpt lat="44.9288369795532" lon="10.913018335969717"><ele>22.0</ele><time>2026-04-24T09:18:24Z</time></trkpt><trkpt lat="44.92889604096833" lon="10.913166134901582"><ele>22.0</ele><time>2026-04-24T09:18:25Z</time></trkpt><trkpt lat="44.9289511495453" lon="10.913315560932062"><ele>22.0</ele><time>2026-04-24T09:18:26Z</time></trkpt><trkpt lat="44.929006733926514" lon="10.913466270039576"><ele>22.0</ele><time>2026-04-24T09:18:27Z</time></trkpt><trkpt lat="44.92906291056836" lon="10.913622350129362"><ele>22.0</ele><time>2026-04-24T09:18:28Z</time></trkpt><trkpt lat="44.92911997904923" lon="10.91377813269764"><ele>21.75</ele><time>2026-04-24T09:18:29Z</time></trkpt><trkpt lat="44.92917710906276" lon="10.913933599549734"><ele>21.5</ele><time>2026-04-24T09:18:30Z</time></trkpt><trkpt lat="44.92923569276029" lon="10.91408972565777"><ele>21.25</ele><time>2026-04-24T09:18:31Z</time></trkpt><trkpt lat="44.92929636438547" lon="10.914241718263336"><ele>21.0</ele><time>2026-04-24T09:18:32Z</time></trkpt><trkpt lat="44.92935227830761" lon="10.91439457938442"><ele>21.0</ele><time>2026-04-24T09:18:33Z</time></trkpt><trkpt lat="44.92940484286556" lon="10.91454141782266"><ele>21.0</ele><time>2026-04-24T09:18:34Z</time></trkpt><trkpt lat="44.929455016384374" lon="10.91467467060116"><ele>21.0</ele><time>2026-04-24T09:18:35Z</time></trkpt><trkpt lat="44.92949804220651" lon="10.914792651691224"><ele>21.0</ele><time>2026-04-24T09:18:36Z</time></trkpt><trkpt lat="44.92953070031142" lon="10.91490516894856"><ele>21.0</ele><time>2026-04-24T09:18:37Z</time></trkpt><trkpt lat="44.92955295295169" lon="10.915005297951986"><ele>20.5</ele><time>2026-04-24T09:18:38Z</time></trkpt><trkpt lat="44.929565874295854" lon="10.915098353667032"><ele>20.0</ele><time>2026-04-24T09:18:39Z</time></trkpt><trkpt lat="44.92953562088567" lon="10.915232877004524"><ele>19.5</ele><time>2026-04-24T09:18:41Z</time></trkpt><trkpt lat="44.92947021541251" lon="10.915312065428614"><ele>19.0</ele><time>2026-04-24T09:18:43Z</time></trkpt><trkpt lat="44.929415837408854" lon="10.915365716981107"><ele>18.5</ele><time>2026-04-24T09:18:44Z</time></trkpt><trkpt lat="44.92935021600466" lon="10.915422146002042"><ele>18.0</ele><time>2026-04-24T09:18:45Z</time></trkpt><trkpt lat="44.92927140779015" lon="10.91547673873334"><ele>18.0</ele><time>2026-04-24T09:18:46Z</time></trkpt><trkpt lat="44.92918321457306" lon="10.915534035451119"><ele>18.0</ele><time>2026-04-24T09:18:47Z</time></trkpt><trkpt lat="44.92909311837578" lon="10.915598757260485"><ele>18.0</ele><time>2026-04-24T09:18:48Z</time></trkpt><trkpt lat="44.92900052752093" lon="10.915665344430446"><ele>18.0</ele><time>2026-04-24T09:18:49Z</time></trkpt><trkpt lat="44.92891020019119" lon="10.91572922379773"><ele>18.0</ele><time>2026-04-24T09:18:50Z</time></trkpt><trkpt lat="44.92881555372085" lon="10.915791853708287"><ele>18.0</ele><time>2026-04-24T09:18:51Z</time></trkpt><trkpt lat="44.92871702668635" lon="10.915860214931502"><ele>18.0</ele><time>2026-04-24T09:18:52Z</time></trkpt><trkpt lat="44.928614045992774" lon="10.915928069387988"><ele>18.0</ele><time>2026-04-24T09:18:53Z</time></trkpt><trkpt lat="44.928506331737736" lon="10.916007707266367"><ele>18.0</ele><time>2026-04-24T09:18:54Z</time></trkpt><trkpt lat="44.92839407491468" lon="10.916092110162852"><ele>18.5</ele><time>2026-04-24T09:18:55Z</time></trkpt><trkpt lat="44.928280201802444" lon="10.916173087043013"><ele>19.0</ele><time>2026-04-24T09:18:56Z</time></trkpt><trkpt lat="44.92816268251361" lon="10.916255545564292"><ele>19.5</ele><time>2026-04-24T09:18:57Z</time></trkpt><trkpt lat="44.9280429235611" lon="10.916340414872966"><ele>20.0</ele><time>2026-04-24T09:18:58Z</time></trkpt><trkpt lat="44.927919246324606" lon="10.916423351460075"><ele>20.0</ele><time>2026-04-24T09:18:59Z</time></trkpt><trkpt lat="44.92779514561262" lon="10.916507082566334"><ele>20.0</ele><time>2026-04-24T09:19:00Z</time></trkpt><trkpt lat="44.92767446453716" lon="10.916588950874212"><ele>20.0</ele><time>2026-04-24T09:19:01Z</time></trkpt><trkpt lat="44.92755585580871" lon="10.916674687586367"><ele>20.0</ele><time>2026-04-24T09:19:02Z</time></trkpt><trkpt lat="44.927438407821775" lon="10.916759639089493"><ele>20.0</ele><time>2026-04-24T09:19:03Z</time></trkpt><trkpt lat="44.92732060531889" lon="10.916846162904033"><ele>20.0</ele><time>2026-04-24T09:19:04Z</time></trkpt><trkpt lat="44.92719600942535" lon="10.916941885297838"><ele>20.0</ele><time>2026-04-24T09:19:05Z</time></trkpt><trkpt lat="44.92706670290417" lon="10.917033925005827"><ele>20.0</ele><time>2026-04-24T09:19:06Z</time></trkpt><trkpt lat="44.926936510965305" lon="10.917130192281471"><ele>20.0</ele><time>2026-04-24T09:19:07Z</time></trkpt><trkpt lat="44.92680491041036" lon="10.917226027207912"><ele>20.0</ele><time>2026-04-24T09:19:08Z</time></trkpt><trkpt lat="44.926672701811306" lon="10.91732418379588"><ele>20.0</ele><time>2026-04-24T09:19:09Z</time></trkpt><trkpt lat="44.926541446082524" lon="10.917417691091746"><ele>20.0</ele><time>2026-04-24T09:19:10Z</time></trkpt><trkpt lat="44.9264192466542" lon="10.917501440488135"><ele>20.2</ele><time>2026-04-24T09:19:11Z</time></trkpt><trkpt lat="44.92630159786732" lon="10.91758481449519"><ele>20.4</ele><time>2026-04-24T09:19:12Z</time></trkpt><trkpt lat="44.926194737678244" lon="10.917654985668634"><ele>20.6</ele><time>2026-04-24T09:19:13Z</time></trkpt><trkpt lat="44.9261033838815" lon="10.917717647685429"><ele>20.8</ele><time>2026-04-24T09:19:14Z</time></trkpt><trkpt lat="44.92602314555503" lon="10.91774435465948"><ele>21.0</ele><time>2026-04-24T09:19:15Z</time></trkpt><trkpt lat="44.925927630384805" lon="10.917797878570703"><ele>21.0</ele><time>2026-04-24T09:19:17Z</time></trkpt><trkpt lat="44.925991343438696" lon="10.917998148737322"><ele>21.0</ele><time>2026-04-24T09:19:18Z</time></trkpt><trkpt lat="44.926021067822475" lon="10.918096942379647"><ele>21.0</ele><time>2026-04-24T09:19:19Z</time></trkpt><trkpt lat="44.926077021035056" lon="10.91819633512542"><ele>21.0</ele><time>2026-04-24T09:19:20Z</time></trkpt><trkpt lat="44.92616551829133" lon="10.918306179589564"><ele>21.0</ele><time>2026-04-24T09:19:21Z</time></trkpt><trkpt lat="44.92625863363796" lon="10.918437552728578"><ele>20.5</ele><time>2026-04-24T09:19:22Z</time></trkpt><trkpt lat="44.9263606554375" lon="10.918586872749819"><ele>20.0</ele><time>2026-04-24T09:19:23Z</time></trkpt><trkpt lat="44.92646832797877" lon="10.918732224187751"><ele>19.5</ele><time>2026-04-24T09:19:24Z</time></trkpt><trkpt lat="44.926557299327804" lon="10.918873624581142"><ele>19.0</ele><time>2026-04-24T09:19:25Z</time></trkpt><trkpt lat="44.92660794276883" lon="10.919044158840666"><ele>19.0</ele><time>2026-04-24T09:19:26Z</time></trkpt><trkpt lat="44.92665769793853" lon="10.919209913854342"><ele>19.0</ele><time>2026-04-24T09:19:27Z</time></trkpt><trkpt lat="44.92669667809107" lon="10.919379063758576"><ele>19.0</ele><time>2026-04-24T09:19:28Z</time></trkpt><trkpt lat="44.926722618876866" lon="10.919553521330458"><ele>19.0</ele><time>2026-04-24T09:19:29Z</time></trkpt><trkpt lat="44.92673872032917" lon="10.91973210919451"><ele>18.75</ele><time>2026-04-24T09:19:30Z</time></trkpt><trkpt lat="44.92674920567757" lon="10.919913134588054"><ele>18.5</ele><time>2026-04-24T09:19:31Z</time></trkpt><trkpt lat="44.92677384694154" lon="10.920094399951468"><ele>18.25</ele><time>2026-04-24T09:19:32Z</time></trkpt><trkpt lat="44.92677666199524" lon="10.920276501564327"><ele>18.0</ele><time>2026-04-24T09:19:33Z</time></trkpt><trkpt lat="44.926787896997126" lon="10.920459752030443"><ele>18.0</ele><time>2026-04-24T09:19:34Z</time></trkpt><trkpt lat="44.92680193079905" lon="10.92065254932908"><ele>18.0</ele><time>2026-04-24T09:19:35Z</time></trkpt><trkpt lat="44.92681987350671" lon="10.92086412959258"><ele>18.0</ele><time>2026-04-24T09:19:36Z</time></trkpt><trkpt lat="44.92683933600044" lon="10.921091983168806"><ele>17.666666666666668</ele><time>2026-04-24T09:19:37Z</time></trkpt><trkpt lat="44.926858109386245" lon="10.921319988406779"><ele>17.333333333333336</ele><time>2026-04-24T09:19:38Z</time></trkpt><trkpt lat="44.92687900461449" lon="10.921551959765615"><ele>17.0</ele><time>2026-04-24T09:19:39Z</time></trkpt><trkpt lat="44.92690183860477" lon="10.921794702075118"><ele>17.666666666666668</ele><time>2026-04-24T09:19:40Z</time></trkpt><trkpt lat="44.926929859695946" lon="10.922048712551254"><ele>18.333333333333332</ele><time>2026-04-24T09:19:41Z</time></trkpt><trkpt lat="44.92696074613255" lon="10.922310781214575"><ele>19.0</ele><time>2026-04-24T09:19:42Z</time></trkpt><trkpt lat="44.92699442321825" lon="10.922570298020613"><ele>19.0</ele><time>2026-04-24T09:19:43Z</time></trkpt><trkpt lat="44.92702832857485" lon="10.922824400529088"><ele>19.0</ele><time>2026-04-24T09:19:44Z</time></trkpt><trkpt lat="44.92706340701131" lon="10.923083233100982"><ele>19.0</ele><time>2026-04-24T09:19:45Z</time></trkpt><trkpt lat="44.92709623585369" lon="10.923340588888129"><ele>18.666666666666664</ele><time>2026-04-24T09:19:46Z</time></trkpt><trkpt lat="44.92712480994657" lon="10.923596508450643"><ele>18.333333333333332</ele><time>2026-04-24T09:19:47Z</time></trkpt><trkpt lat="44.927151355641854" lon="10.923851724896505"><ele>18.0</ele><time>2026-04-24T09:19:48Z</time></trkpt><trkpt lat="44.92717880758065" lon="10.924103231288864"><ele>18.0</ele><time>2026-04-24T09:19:49Z</time></trkpt><trkpt lat="44.927200388222424" lon="10.924348613190457"><ele>18.0</ele><time>2026-04-24T09:19:50Z</time></trkpt><trkpt lat="44.92721870112352" lon="10.924588970901395"><ele>18.0</ele><time>2026-04-24T09:19:51Z</time></trkpt><trkpt lat="44.927233444548214" lon="10.924825964559604"><ele>18.0</ele><time>2026-04-24T09:19:52Z</time></trkpt><trkpt lat="44.92721171755436" lon="10.92505336004936"><ele>18.0</ele><time>2026-04-24T09:19:53Z</time></trkpt><trkpt lat="44.92718556409634" lon="10.925277764038624"><ele>18.0</ele><time>2026-04-24T09:19:54Z</time></trkpt><trkpt lat="44.92714906641426" lon="10.925503528031546"><ele>17.666666666666668</ele><time>2026-04-24T09:19:55Z</time></trkpt><trkpt lat="44.927117871924864" lon="10.925742313291043"><ele>17.333333333333336</ele><time>2026-04-24T09:19:56Z</time></trkpt><trkpt lat="44.9270640188783" lon="10.925976996084028"><ele>17.0</ele><time>2026-04-24T09:19:57Z</time></trkpt><trkpt lat="44.92701140489132" lon="10.926226053390183"><ele>17.0</ele><time>2026-04-24T09:19:58Z</time></trkpt><trkpt lat="44.9269527418487" lon="10.92647273314851"><ele>17.0</ele><time>2026-04-24T09:19:59Z</time></trkpt><trkpt lat="44.92688419567587" lon="10.92671392561933"><ele>17.0</ele><time>2026-04-24T09:20:00Z</time></trkpt><trkpt lat="44.92677547214171" lon="10.926931744118788"><ele>17.333333333333336</ele><time>2026-04-24T09:20:01Z</time></trkpt><trkpt lat="44.9266710138942" lon="10.927153876150223"><ele>17.666666666666668</ele><time>2026-04-24T09:20:02Z</time></trkpt><trkpt lat="44.92656808976559" lon="10.927383682026777"><ele>18.0</ele><time>2026-04-24T09:20:03Z</time></trkpt><trkpt lat="44.92647518660087" lon="10.927624415572778"><ele>17.333333333333332</ele><time>2026-04-24T09:20:04Z</time></trkpt><trkpt lat="44.92636523380879" lon="10.927857346903782"><ele>16.666666666666664</ele><time>2026-04-24T09:20:05Z</time></trkpt><trkpt lat="44.92626065285715" lon="10.928084829978685"><ele>16.0</ele><time>2026-04-24T09:20:06Z</time></trkpt><trkpt lat="44.926161238615116" lon="10.928316614837797"><ele>16.666666666666664</ele><time>2026-04-24T09:20:07Z</time></trkpt><trkpt lat="44.92606824106588" lon="10.928551748244846"><ele>17.333333333333332</ele><time>2026-04-24T09:20:08Z</time></trkpt><trkpt lat="44.925992824549965" lon="10.928783215995317"><ele>18.0</ele><time>2026-04-24T09:20:09Z</time></trkpt><trkpt lat="44.925932205754464" lon="10.929015703997095"><ele>17.666666666666668</ele><time>2026-04-24T09:20:10Z</time></trkpt><trkpt lat="44.925874101351496" lon="10.929259408836788"><ele>17.333333333333336</ele><time>2026-04-24T09:20:11Z</time></trkpt><trkpt lat="44.92582046083682" lon="10.929503207225405"><ele>17.0</ele><time>2026-04-24T09:20:12Z</time></trkpt><trkpt lat="44.92577407074409" lon="10.929743780991279"><ele>17.0</ele><time>2026-04-24T09:20:13Z</time></trkpt><trkpt lat="44.9257323980181" lon="10.929987127900073"><ele>17.0</ele><time>2026-04-24T09:20:14Z</time></trkpt><trkpt lat="44.92571045525441" lon="10.930219858548188"><ele>17.0</ele><time>2026-04-24T09:20:15Z</time></trkpt><trkpt lat="44.9256944813704" lon="10.930456478670141"><ele>17.0</ele><time>2026-04-24T09:20:16Z</time></trkpt><trkpt lat="44.925679612974115" lon="10.93068524322143"><ele>17.0</ele><time>2026-04-24T09:20:17Z</time></trkpt><trkpt lat="44.92566316258905" lon="10.93091097953392"><ele>17.0</ele><time>2026-04-24T09:20:18Z</time></trkpt><trkpt lat="44.92565526421597" lon="10.931145308618307"><ele>17.666666666666668</ele><time>2026-04-24T09:20:19Z</time></trkpt><trkpt lat="44.925661567801455" lon="10.931384358288131"><ele>18.333333333333332</ele><time>2026-04-24T09:20:20Z</time></trkpt><trkpt lat="44.92567745495011" lon="10.931612857162136"><ele>19.0</ele><time>2026-04-24T09:20:21Z</time></trkpt><trkpt lat="44.92568895373058" lon="10.931821647865712"><ele>19.0</ele><time>2026-04-24T09:20:22Z</time></trkpt><trkpt lat="44.92568389398722" lon="10.932036818727589"><ele>19.0</ele><time>2026-04-24T09:20:23Z</time></trkpt><trkpt lat="44.925632778942955" lon="10.932255295274818"><ele>19.0</ele><time>2026-04-24T09:20:24Z</time></trkpt><trkpt lat="44.92559066814284" lon="10.932488578337514"><ele>19.0</ele><time>2026-04-24T09:20:25Z</time></trkpt><trkpt lat="44.9255639588488" lon="10.932739289503239"><ele>19.0</ele><time>2026-04-24T09:20:26Z</time></trkpt><trkpt lat="44.92551873872695" lon="10.93299489383051"><ele>19.0</ele><time>2026-04-24T09:20:27Z</time></trkpt><trkpt lat="44.92547410807613" lon="10.9332594853633"><ele>19.0</ele><time>2026-04-24T09:20:28Z</time></trkpt><trkpt lat="44.925427231728975" lon="10.933529820216389"><ele>19.0</ele><time>2026-04-24T09:20:29Z</time></trkpt><trkpt lat="44.925381650713575" lon="10.933808351473399"><ele>19.0</ele><time>2026-04-24T09:20:30Z</time></trkpt><trkpt lat="44.92534107230058" lon="10.934094294066254"><ele>19.0</ele><time>2026-04-24T09:20:31Z</time></trkpt><trkpt lat="44.92529820819409" lon="10.934382090209628"><ele>19.0</ele><time>2026-04-24T09:20:32Z</time></trkpt><trkpt lat="44.92525390387538" lon="10.934671835639866"><ele>19.0</ele><time>2026-04-24T09:20:33Z</time></trkpt><trkpt lat="44.92520987695776" lon="10.934965633921923"><ele>18.666666666666664</ele><time>2026-04-24T09:20:34Z</time></trkpt><trkpt lat="44.92516981305538" lon="10.935248874336189"><ele>18.333333333333332</ele><time>2026-04-24T09:20:35Z</time></trkpt><trkpt lat="44.92513304648087" lon="10.935528992331793"><ele>18.0</ele><time>2026-04-24T09:20:36Z</time></trkpt><trkpt lat="44.925104496441584" lon="10.935819478379956"><ele>18.0</ele><time>2026-04-24T09:20:37Z</time></trkpt><trkpt lat="44.925087098900526" lon="10.936119445419997"><ele>18.0</ele><time>2026-04-24T09:20:38Z</time></trkpt><trkpt lat="44.92508215352477" lon="10.936423673308417"><ele>18.0</ele><time>2026-04-24T09:20:39Z</time></trkpt><trkpt lat="44.92508356981594" lon="10.936732988808293"><ele>18.0</ele><time>2026-04-24T09:20:40Z</time></trkpt><trkpt lat="44.92508575335578" lon="10.93704105740565"><ele>18.0</ele><time>2026-04-24T09:20:41Z</time></trkpt><trkpt lat="44.92508368499351" lon="10.937349535183797"><ele>18.0</ele><time>2026-04-24T09:20:42Z</time></trkpt><trkpt lat="44.92508348575731" lon="10.937654101107578"><ele>18.333333333333332</ele><time>2026-04-24T09:20:43Z</time></trkpt><trkpt lat="44.925081999110475" lon="10.937956877257957"><ele>18.666666666666664</ele><time>2026-04-24T09:20:44Z</time></trkpt><trkpt lat="44.92508352913619" lon="10.938261829255879"><ele>19.0</ele><time>2026-04-24T09:20:45Z</time></trkpt><trkpt lat="44.92508400587152" lon="10.938560724777373"><ele>19.0</ele><time>2026-04-24T09:20:46Z</time></trkpt><trkpt lat="44.92508422994031" lon="10.93885609917771"><ele>19.0</ele><time>2026-04-24T09:20:47Z</time></trkpt><trkpt lat="44.925085316824344" lon="10.939146555784967"><ele>19.0</ele><time>2026-04-24T09:20:48Z</time></trkpt><trkpt lat="44.92509186736999" lon="10.939434517722258"><ele>18.666666666666664</ele><time>2026-04-24T09:20:49Z</time></trkpt><trkpt lat="44.92510256728582" lon="10.939719852204318"><ele>18.333333333333332</ele><time>2026-04-24T09:20:50Z</time></trkpt><trkpt lat="44.925118822040524" lon="10.939998463154273"><ele>18.0</ele><time>2026-04-24T09:20:51Z</time></trkpt><trkpt lat="44.925134028444674" lon="10.940269301928305"><ele>18.0</ele><time>2026-04-24T09:20:52Z</time></trkpt><trkpt lat="44.92515795515417" lon="10.94053370115724"><ele>18.0</ele><time>2026-04-24T09:20:53Z</time></trkpt><trkpt lat="44.92518315808919" lon="10.940795447915429"><ele>18.0</ele><time>2026-04-24T09:20:54Z</time></trkpt><trkpt lat="44.925214138066025" lon="10.941051261630106"><ele>17.666666666666668</ele><time>2026-04-24T09:20:55Z</time></trkpt><trkpt lat="44.92524138988529" lon="10.941300948950381"><ele>17.333333333333336</ele><time>2026-04-24T09:20:56Z</time></trkpt><trkpt lat="44.925269040961204" lon="10.941541653561863"><ele>17.0</ele><time>2026-04-24T09:20:57Z</time></trkpt><trkpt lat="44.92529675932303" lon="10.941787690103107"><ele>17.666666666666668</ele><time>2026-04-24T09:20:58Z</time></trkpt><trkpt lat="44.92532689320242" lon="10.942025136442615"><ele>18.333333333333332</ele><time>2026-04-24T09:20:59Z</time></trkpt><trkpt lat="44.92536738060851" lon="10.94226210743832"><ele>19.0</ele><time>2026-04-24T09:21:00Z</time></trkpt><trkpt lat="44.92542618598801" lon="10.942498904126408"><ele>19.333333333333332</ele><time>2026-04-24T09:21:01Z</time></trkpt><trkpt lat="44.925504304554174" lon="10.942735217306982"><ele>19.666666666666668</ele><time>2026-04-24T09:21:02Z</time></trkpt><trkpt lat="44.925588104220274" lon="10.942971645291228"><ele>20.0</ele><time>2026-04-24T09:21:03Z</time></trkpt><trkpt lat="44.92566226315937" lon="10.943184660885"><ele>20.0</ele><time>2026-04-24T09:21:04Z</time></trkpt><trkpt lat="44.92573225917982" lon="10.943378070138003"><ele>20.0</ele><time>2026-04-24T09:21:05Z</time></trkpt><trkpt lat="44.925784897564256" lon="10.943542030096268"><ele>20.0</ele><time>2026-04-24T09:21:06Z</time></trkpt><trkpt lat="44.925819930870794" lon="10.943674538621046"><ele>20.0</ele><time>2026-04-24T09:21:07Z</time></trkpt><trkpt lat="44.92580585293558" lon="10.943798805326747"><ele>20.0</ele><time>2026-04-24T09:21:08Z</time></trkpt><trkpt lat="44.925763631336274" lon="10.943898758111722"><ele>20.0</ele><time>2026-04-24T09:21:09Z</time></trkpt><trkpt lat="44.92568342683767" lon="10.943942792784384"><ele>20.0</ele><time>2026-04-24T09:21:10Z</time></trkpt><trkpt lat="44.925596920190536" lon="10.94403490263931"><ele>20.0</ele><time>2026-04-24T09:21:11Z</time></trkpt><trkpt lat="44.92552324323843" lon="10.944134496170536"><ele>20.0</ele><time>2026-04-24T09:21:12Z</time></trkpt><trkpt lat="44.92548121345708" lon="10.944245874719744"><ele>20.0</ele><time>2026-04-24T09:21:13Z</time></trkpt><trkpt lat="44.925468962661306" lon="10.944342297876092"><ele>20.0</ele><time>2026-04-24T09:21:14Z</time></trkpt><trkpt lat="44.92548657304523" lon="10.94444836298772"><ele>20.0</ele><time>2026-04-24T09:21:15Z</time></trkpt><trkpt lat="44.92553455926722" lon="10.944542021987758"><ele>20.0</ele><time>2026-04-24T09:21:16Z</time></trkpt><trkpt lat="44.92559674844235" lon="10.94464747075976"><ele>20.0</ele><time>2026-04-24T09:21:17Z</time></trkpt><trkpt lat="44.92566942587257" lon="10.94478148499218"><ele>20.0</ele><time>2026-04-24T09:21:18Z</time></trkpt><trkpt lat="44.925740966598624" lon="10.944935678637872"><ele>20.0</ele><time>2026-04-24T09:21:19Z</time></trkpt><trkpt lat="44.92581931735305" lon="10.945109057904986"><ele>20.0</ele><time>2026-04-24T09:21:20Z</time></trkpt><trkpt lat="44.92590528492933" lon="10.945298505928397"><ele>20.0</ele><time>2026-04-24T09:21:21Z</time></trkpt><trkpt lat="44.92599769605823" lon="10.945504179909472"><ele>19.666666666666668</ele><time>2026-04-24T09:21:22Z</time></trkpt><trkpt lat="44.926093522977716" lon="10.945721403269902"><ele>19.333333333333332</ele><time>2026-04-24T09:21:23Z</time></trkpt><trkpt lat="44.92618841175416" lon="10.945946356714394"><ele>19.0</ele><time>2026-04-24T09:21:24Z</time></trkpt><trkpt lat="44.926280029871634" lon="10.94615860502986"><ele>18.666666666666664</ele><time>2026-04-24T09:21:25Z</time></trkpt><trkpt lat="44.926374292981656" lon="10.946372911880891"><ele>18.333333333333332</ele><time>2026-04-24T09:21:26Z</time></trkpt><trkpt lat="44.9264688851616" lon="10.946592157014901"><ele>18.0</ele><time>2026-04-24T09:21:27Z</time></trkpt><trkpt lat="44.92656116072282" lon="10.946818504449707"><ele>18.0</ele><time>2026-04-24T09:21:28Z</time></trkpt><trkpt lat="44.92665638946223" lon="10.947044197571518"><ele>18.0</ele><time>2026-04-24T09:21:29Z</time></trkpt><trkpt lat="44.92675430868056" lon="10.947265853147222"><ele>18.0</ele><time>2026-04-24T09:21:30Z</time></trkpt><trkpt lat="44.92685235280837" lon="10.947477541654"><ele>18.666666666666668</ele><time>2026-04-24T09:21:31Z</time></trkpt><trkpt lat="44.92695446140119" lon="10.947687806104474"><ele>19.333333333333336</ele><time>2026-04-24T09:21:32Z</time></trkpt><trkpt lat="44.92705523582399" lon="10.947903196590286"><ele>20.0</ele><time>2026-04-24T09:21:33Z</time></trkpt><trkpt lat="44.92715445754096" lon="10.948119765922774"><ele>20.0</ele><time>2026-04-24T09:21:34Z</time></trkpt><trkpt lat="44.92725014338046" lon="10.94833727846419"><ele>20.0</ele><time>2026-04-24T09:21:35Z</time></trkpt><trkpt lat="44.927345482737174" lon="10.94855556235523"><ele>20.0</ele><time>2026-04-24T09:21:36Z</time></trkpt><trkpt lat="44.927444964898605" lon="10.94877121875785"><ele>20.0</ele><time>2026-04-24T09:21:37Z</time></trkpt><trkpt lat="44.92754198905992" lon="10.948984986334304"><ele>20.0</ele><time>2026-04-24T09:21:38Z</time></trkpt><trkpt lat="44.927630988924605" lon="10.949182991204971"><ele>20.0</ele><time>2026-04-24T09:21:39Z</time></trkpt><trkpt lat="44.927714066011006" lon="10.949362233021626"><ele>20.0</ele><time>2026-04-24T09:21:40Z</time></trkpt><trkpt lat="44.92778829153043" lon="10.949535291640352"><ele>20.0</ele><time>2026-04-24T09:21:41Z</time></trkpt><trkpt lat="44.92786200504107" lon="10.949694902153533"><ele>20.0</ele><time>2026-04-24T09:21:42Z</time></trkpt><trkpt lat="44.927929721224764" lon="10.949846406080155"><ele>20.0</ele><time>2026-04-24T09:21:43Z</time></trkpt><trkpt lat="44.92799407344545" lon="10.949984114591826"><ele>20.4</ele><time>2026-04-24T09:21:44Z</time></trkpt><trkpt lat="44.92806007627044" lon="10.950112285744789"><ele>20.8</ele><time>2026-04-24T09:21:45Z</time></trkpt><trkpt lat="44.928125094674385" lon="10.95022559273739"><ele>21.200000000000003</ele><time>2026-04-24T09:21:46Z</time></trkpt><trkpt lat="44.92819498137854" lon="10.950326969385813"><ele>21.6</ele><time>2026-04-24T09:21:47Z</time></trkpt><trkpt lat="44.928261644851716" lon="10.950409178369737"><ele>22.0</ele><time>2026-04-24T09:21:48Z</time></trkpt><trkpt lat="44.92832027905679" lon="10.95047267534422"><ele>22.0</ele><time>2026-04-24T09:21:49Z</time></trkpt><trkpt lat="44.928365242332404" lon="10.950537347986476"><ele>22.0</ele><time>2026-04-24T09:21:50Z</time></trkpt><trkpt lat="44.92837870723862" lon="10.950625265297194"><ele>22.0</ele><time>2026-04-24T09:21:51Z</time></trkpt><trkpt lat="44.92833361797516" lon="10.950726696384692"><ele>22.0</ele><time>2026-04-24T09:21:52Z</time></trkpt><trkpt lat="44.928265283219844" lon="10.950818047376735"><ele>22.0</ele><time>2026-04-24T09:21:53Z</time></trkpt><trkpt lat="44.928200289473665" lon="10.950957820026325"><ele>22.0</ele><time>2026-04-24T09:21:54Z</time></trkpt><trkpt lat="44.92810775010006" lon="10.951097548777645"><ele>22.0</ele><time>2026-04-24T09:21:55Z</time></trkpt><trkpt lat="44.92798248933176" lon="10.951221490097057"><ele>22.0</ele><time>2026-04-24T09:21:56Z</time></trkpt><trkpt lat="44.927833117351085" lon="10.951325217166248"><ele>22.0</ele><time>2026-04-24T09:21:57Z</time></trkpt><trkpt lat="44.92768606189968" lon="10.951439503993182"><ele>21.25</ele><time>2026-04-24T09:21:58Z</time></trkpt><trkpt lat="44.92754310188115" lon="10.951547576277857"><ele>20.5</ele><time>2026-04-24T09:21:59Z</time></trkpt><trkpt lat="44.92741860893298" lon="10.951642945285041"><ele>19.75</ele><time>2026-04-24T09:22:00Z</time></trkpt><trkpt lat="44.927312672165655" lon="10.95174156541996"><ele>19.0</ele><time>2026-04-24T09:22:01Z</time></trkpt><trkpt lat="44.92721650171733" lon="10.951812255114055"><ele>18.833333333333332</ele><time>2026-04-24T09:22:02Z</time></trkpt><trkpt lat="44.92714852092798" lon="10.951886972013874"><ele>18.666666666666664</ele><time>2026-04-24T09:22:03Z</time></trkpt><trkpt lat="44.927106241181406" lon="10.951966439958857"><ele>18.5</ele><time>2026-04-24T09:22:04Z</time></trkpt><trkpt lat="44.92709151236661" lon="10.952060843287633"><ele>18.333333333333332</ele><time>2026-04-24T09:22:05Z</time></trkpt><trkpt lat="44.9271078537897" lon="10.9521568922943"><ele>18.166666666666668</ele><time>2026-04-24T09:22:06Z</time></trkpt><trkpt lat="44.927151018117534" lon="10.952264726748693"><ele>18.0</ele><time>2026-04-24T09:22:07Z</time></trkpt><trkpt lat="44.92720992797013" lon="10.952398459608817"><ele>18.75</ele><time>2026-04-24T09:22:08Z</time></trkpt><trkpt lat="44.927279033313425" lon="10.95254626845618"><ele>19.5</ele><time>2026-04-24T09:22:09Z</time></trkpt><trkpt lat="44.927343738660326" lon="10.952696019496004"><ele>20.25</ele><time>2026-04-24T09:22:10Z</time></trkpt><trkpt lat="44.92739866643181" lon="10.95284966792996"><ele>21.0</ele><time>2026-04-24T09:22:11Z</time></trkpt><trkpt lat="44.92743761637182" lon="10.953014385311443"><ele>21.0</ele><time>2026-04-24T09:22:12Z</time></trkpt><trkpt lat="44.92743555676384" lon="10.953193456254397"><ele>21.0</ele><time>2026-04-24T09:22:13Z</time></trkpt><trkpt lat="44.927400815274765" lon="10.95336909544317"><ele>21.0</ele><time>2026-04-24T09:22:14Z</time></trkpt><trkpt lat="44.92733410122173" lon="10.953544817605147"><ele>21.0</ele><time>2026-04-24T09:22:15Z</time></trkpt><trkpt lat="44.92725892817263" lon="10.95374130025361"><ele>21.0</ele><time>2026-04-24T09:22:16Z</time></trkpt><trkpt lat="44.92718066941043" lon="10.953947533500942"><ele>21.0</ele><time>2026-04-24T09:22:17Z</time></trkpt><trkpt lat="44.92710922354199" lon="10.954164887931663"><ele>21.0</ele><time>2026-04-24T09:22:18Z</time></trkpt><trkpt lat="44.92704128140106" lon="10.954354230457477"><ele>21.0</ele><time>2026-04-24T09:22:19Z</time></trkpt><trkpt lat="44.92697636896688" lon="10.954551334413596"><ele>21.0</ele><time>2026-04-24T09:22:20Z</time></trkpt><trkpt lat="44.92691560902635" lon="10.95476598931246"><ele>21.0</ele><time>2026-04-24T09:22:21Z</time></trkpt><trkpt lat="44.92686517197869" lon="10.954990134773471"><ele>21.333333333333332</ele><time>2026-04-24T09:22:22Z</time></trkpt><trkpt lat="44.92682861935969" lon="10.955216455635314"><ele>21.666666666666664</ele><time>2026-04-24T09:22:23Z</time></trkpt><trkpt lat="44.92679130826141" lon="10.955431074540936"><ele>22.0</ele><time>2026-04-24T09:22:24Z</time></trkpt><trkpt lat="44.92675776729929" lon="10.955625207943141"><ele>22.25</ele><time>2026-04-24T09:22:25Z</time></trkpt><trkpt lat="44.92671743595647" lon="10.955803319576328"><ele>22.5</ele><time>2026-04-24T09:22:26Z</time></trkpt><trkpt lat="44.92664817364112" lon="10.955949470939473"><ele>22.75</ele><time>2026-04-24T09:22:27Z</time></trkpt><trkpt lat="44.926570343401416" lon="10.956098461109685"><ele>23.0</ele><time>2026-04-24T09:22:28Z</time></trkpt><trkpt lat="44.92648573883248" lon="10.95625986446852"><ele>23.0</ele><time>2026-04-24T09:22:29Z</time></trkpt><trkpt lat="44.92638815072718" lon="10.956419276821451"><ele>23.0</ele><time>2026-04-24T09:22:30Z</time></trkpt><trkpt lat="44.92629897744169" lon="10.956560740210783"><ele>23.0</ele><time>2026-04-24T09:22:31Z</time></trkpt><trkpt lat="44.92621482173421" lon="10.956686203589976"><ele>23.0</ele><time>2026-04-24T09:22:32Z</time></trkpt><trkpt lat="44.926144630617436" lon="10.95680728497727"><ele>22.799999999999997</ele><time>2026-04-24T09:22:33Z</time></trkpt><trkpt lat="44.926076050840386" lon="10.95690364860443"><ele>22.6</ele><time>2026-04-24T09:22:34Z</time></trkpt><trkpt lat="44.92599052818525" lon="10.956945258442238"><ele>22.4</ele><time>2026-04-24T09:22:35Z</time></trkpt><trkpt lat="44.925911365370695" lon="10.956986187816918"><ele>22.200000000000003</ele><time>2026-04-24T09:22:36Z</time></trkpt><trkpt lat="44.92580850702671" lon="10.956931374450985"><ele>22.0</ele><time>2026-04-24T09:22:37Z</time></trkpt><trkpt lat="44.92570114728021" lon="10.956873999052526"><ele>22.0</ele><time>2026-04-24T09:22:38Z</time></trkpt><trkpt lat="44.925578812651466" lon="10.956789618543942"><ele>22.0</ele><time>2026-04-24T09:22:39Z</time></trkpt><trkpt lat="44.92544353274207" lon="10.956691406438768"><ele>22.0</ele><time>2026-04-24T09:22:40Z</time></trkpt><trkpt lat="44.92529202331157" lon="10.956610671012724"><ele>21.666666666666664</ele><time>2026-04-24T09:22:41Z</time></trkpt><trkpt lat="44.925147142006416" lon="10.956508832582772"><ele>21.333333333333332</ele><time>2026-04-24T09:22:42Z</time></trkpt><trkpt lat="44.92499255817251" lon="10.956409072460866"><ele>21.0</ele><time>2026-04-24T09:22:43Z</time></trkpt><trkpt lat="44.92482694911284" lon="10.95631429118602"><ele>20.666666666666668</ele><time>2026-04-24T09:22:44Z</time></trkpt><trkpt lat="44.92465160885971" lon="10.95623397140279"><ele>20.333333333333336</ele><time>2026-04-24T09:22:45Z</time></trkpt><trkpt lat="44.92447152473315" lon="10.95617250064719"><ele>20.0</ele><time>2026-04-24T09:22:46Z</time></trkpt><trkpt lat="44.92429060989925" lon="10.956126540452436"><ele>19.666666666666668</ele><time>2026-04-24T09:22:47Z</time></trkpt><trkpt lat="44.92410867916197" lon="10.956081587651108"><ele>19.333333333333332</ele><time>2026-04-24T09:22:48Z</time></trkpt><trkpt lat="44.92392150114713" lon="10.95603075151602"><ele>19.0</ele><time>2026-04-24T09:22:49Z</time></trkpt><trkpt lat="44.923733919393804" lon="10.955984035406768"><ele>19.0</ele><time>2026-04-24T09:22:50Z</time></trkpt><trkpt lat="44.923548250449876" lon="10.95594484883844"><ele>19.0</ele><time>2026-04-24T09:22:51Z</time></trkpt><trkpt lat="44.923364507935176" lon="10.955903811857574"><ele>19.0</ele><time>2026-04-24T09:22:52Z</time></trkpt><trkpt lat="44.923193372350255" lon="10.955875869814882"><ele>19.0</ele><time>2026-04-24T09:22:53Z</time></trkpt><trkpt lat="44.92303410269593" lon="10.955851072846073"><ele>19.0</ele><time>2026-04-24T09:22:54Z</time></trkpt><trkpt lat="44.92288586641857" lon="10.955813955276538"><ele>19.0</ele><time>2026-04-24T09:22:55Z</time></trkpt><trkpt lat="44.92274832176263" lon="10.955784485145047"><ele>19.0</ele><time>2026-04-24T09:22:56Z</time></trkpt><trkpt lat="44.922616065822254" lon="10.955755549674516"><ele>19.0</ele><time>2026-04-24T09:22:57Z</time></trkpt><trkpt lat="44.92249514479708" lon="10.955720664926327"><ele>19.0</ele><time>2026-04-24T09:22:58Z</time></trkpt><trkpt lat="44.92237860106443" lon="10.955690085151849"><ele>19.0</ele><time>2026-04-24T09:22:59Z</time></trkpt><trkpt lat="44.92227318334631" lon="10.955661315033781"><ele>19.6</ele><time>2026-04-24T09:23:00Z</time></trkpt><trkpt lat="44.922172823553645" lon="10.955635690463614"><ele>20.2</ele><time>2026-04-24T09:23:01Z</time></trkpt><trkpt lat="44.922073540663305" lon="10.955614237662163"><ele>20.8</ele><time>2026-04-24T09:23:02Z</time></trkpt><trkpt lat="44.921973114723755" lon="10.955606002609217"><ele>21.400000000000002</ele><time>2026-04-24T09:23:03Z</time></trkpt><trkpt lat="44.9218626091365" lon="10.955610377018244"><ele>22.0</ele><time>2026-04-24T09:23:04Z</time></trkpt><trkpt lat="44.92175121305221" lon="10.955639261020698"><ele>21.75</ele><time>2026-04-24T09:23:05Z</time></trkpt><trkpt lat="44.921639116966446" lon="10.955690500038697"><ele>21.5</ele><time>2026-04-24T09:23:06Z</time></trkpt><trkpt lat="44.92152930962173" lon="10.955775565068329"><ele>21.25</ele><time>2026-04-24T09:23:07Z</time></trkpt><trkpt lat="44.92142159857102" lon="10.955898449079744"><ele>21.0</ele><time>2026-04-24T09:23:08Z</time></trkpt><trkpt lat="44.92131178686395" lon="10.956045340380786"><ele>21.666666666666668</ele><time>2026-04-24T09:23:09Z</time></trkpt><trkpt lat="44.92119916502536" lon="10.956206531869196"><ele>22.333333333333336</ele><time>2026-04-24T09:23:10Z</time></trkpt><trkpt lat="44.92108040390176" lon="10.95637001919895"><ele>23.0</ele><time>2026-04-24T09:23:11Z</time></trkpt><trkpt lat="44.920957150617966" lon="10.956541609452202"><ele>22.333333333333336</ele><time>2026-04-24T09:23:12Z</time></trkpt><trkpt lat="44.92084008246564" lon="10.956716580594529"><ele>21.666666666666668</ele><time>2026-04-24T09:23:13Z</time></trkpt><trkpt lat="44.92073885882182" lon="10.956878500889715"><ele>21.0</ele><time>2026-04-24T09:23:14Z</time></trkpt><trkpt lat="44.92064966768627" lon="10.957053850166663"><ele>21.0</ele><time>2026-04-24T09:23:15Z</time></trkpt><trkpt lat="44.92057143220952" lon="10.957249698598224"><ele>21.0</ele><time>2026-04-24T09:23:16Z</time></trkpt><trkpt lat="44.92051274905198" lon="10.957445659652706"><ele>21.0</ele><time>2026-04-24T09:23:17Z</time></trkpt><trkpt lat="44.92047954713922" lon="10.957627921015645"><ele>21.0</ele><time>2026-04-24T09:23:18Z</time></trkpt><trkpt lat="44.92046319761117" lon="10.957803932368785"><ele>21.5</ele><time>2026-04-24T09:23:19Z</time></trkpt><trkpt lat="44.92046105516936" lon="10.95798676543268"><ele>22.0</ele><time>2026-04-24T09:23:20Z</time></trkpt><trkpt lat="44.92047222814885" lon="10.958184410389993"><ele>22.5</ele><time>2026-04-24T09:23:21Z</time></trkpt><trkpt lat="44.92047910155882" lon="10.958383746120674"><ele>23.0</ele><time>2026-04-24T09:23:22Z</time></trkpt><trkpt lat="44.92049676605673" lon="10.958586391277887"><ele>23.25</ele><time>2026-04-24T09:23:23Z</time></trkpt><trkpt lat="44.920520361316925" lon="10.958780156237447"><ele>23.5</ele><time>2026-04-24T09:23:24Z</time></trkpt><trkpt lat="44.920547365296535" lon="10.958955027307715"><ele>23.75</ele><time>2026-04-24T09:23:25Z</time></trkpt><trkpt lat="44.920586626695815" lon="10.95913042341612"><ele>24.0</ele><time>2026-04-24T09:23:26Z</time></trkpt><trkpt lat="44.92064169359642" lon="10.95930132064969"><ele>23.5</ele><time>2026-04-24T09:23:27Z</time></trkpt><trkpt lat="44.92070523763903" lon="10.95944499546387"><ele>23.0</ele><time>2026-04-24T09:23:28Z</time></trkpt><trkpt lat="44.92076215554028" lon="10.959585414482175"><ele>22.5</ele><time>2026-04-24T09:23:29Z</time></trkpt><trkpt lat="44.920781148645396" lon="10.95975258381543"><ele>22.0</ele><time>2026-04-24T09:23:30Z</time></trkpt><trkpt lat="44.92077650615398" lon="10.959933770019525"><ele>21.75</ele><time>2026-04-24T09:23:31Z</time></trkpt><trkpt lat="44.920761985451264" lon="10.960122928392613"><ele>21.5</ele><time>2026-04-24T09:23:32Z</time></trkpt><trkpt lat="44.92073335890502" lon="10.960317553028535"><ele>21.25</ele><time>2026-04-24T09:23:33Z</time></trkpt><trkpt lat="44.920688831709754" lon="10.960505182442983"><ele>21.0</ele><time>2026-04-24T09:23:34Z</time></trkpt><trkpt lat="44.920630893631866" lon="10.960684336748848"><ele>21.0</ele><time>2026-04-24T09:23:35Z</time></trkpt><trkpt lat="44.92054385656817" lon="10.960865577615648"><ele>21.0</ele><time>2026-04-24T09:23:36Z</time></trkpt><trkpt lat="44.92044175010395" lon="10.961085924094103"><ele>21.0</ele><time>2026-04-24T09:23:37Z</time></trkpt><trkpt lat="44.92032069219004" lon="10.961355699590781"><ele>21.0</ele><time>2026-04-24T09:23:38Z</time></trkpt><trkpt lat="44.92019014819596" lon="10.961660548201582"><ele>21.0</ele><time>2026-04-24T09:23:39Z</time></trkpt><trkpt lat="44.920064139186074" lon="10.961958108045229"><ele>21.0</ele><time>2026-04-24T09:23:40Z</time></trkpt><trkpt lat="44.919959681773605" lon="10.962206484934514"><ele>21.0</ele><time>2026-04-24T09:23:41Z</time></trkpt><trkpt lat="44.91985901753708" lon="10.962450222506089"><ele>21.0</ele><time>2026-04-24T09:23:42Z</time></trkpt><trkpt lat="44.91972678340333" lon="10.962639762728669"><ele>21.333333333333332</ele><time>2026-04-24T09:23:43Z</time></trkpt><trkpt lat="44.91960588441547" lon="10.96283987020021"><ele>21.666666666666664</ele><time>2026-04-24T09:23:44Z</time></trkpt><trkpt lat="44.919500462038265" lon="10.96305136229569"><ele>22.0</ele><time>2026-04-24T09:23:45Z</time></trkpt><trkpt lat="44.91939038667782" lon="10.963250758332595"><ele>22.333333333333332</ele><time>2026-04-24T09:23:46Z</time></trkpt><trkpt lat="44.91928570761734" lon="10.963456796723456"><ele>22.666666666666668</ele><time>2026-04-24T09:23:47Z</time></trkpt><trkpt lat="44.9191943674499" lon="10.963663835902183"><ele>23.0</ele><time>2026-04-24T09:23:48Z</time></trkpt><trkpt lat="44.91911589766809" lon="10.963880514393697"><ele>22.666666666666668</ele><time>2026-04-24T09:23:49Z</time></trkpt><trkpt lat="44.919051509876475" lon="10.964108761337842"><ele>22.333333333333332</ele><time>2026-04-24T09:23:50Z</time></trkpt><trkpt lat="44.91899239062445" lon="10.96434684488196"><ele>22.0</ele><time>2026-04-24T09:23:51Z</time></trkpt><trkpt lat="44.91892574782135" lon="10.964572779441536"><ele>22.0</ele><time>2026-04-24T09:23:52Z</time></trkpt><trkpt lat="44.918833680637796" lon="10.96475322674735"><ele>22.0</ele><time>2026-04-24T09:23:53Z</time></trkpt><trkpt lat="44.9187672290881" lon="10.964933113249852"><ele>22.0</ele><time>2026-04-24T09:23:54Z</time></trkpt><trkpt lat="44.91870340889202" lon="10.96508164446031"><ele>22.0</ele><time>2026-04-24T09:23:55Z</time></trkpt><trkpt lat="44.91865929898279" lon="10.965222314935302"><ele>22.25</ele><time>2026-04-24T09:23:56Z</time></trkpt><trkpt lat="44.9186469967914" lon="10.965354972286354"><ele>22.5</ele><time>2026-04-24T09:23:57Z</time></trkpt><trkpt lat="44.918652509212386" lon="10.96550052519681"><ele>22.75</ele><time>2026-04-24T09:23:58Z</time></trkpt><trkpt lat="44.918687250700025" lon="10.965698540281037"><ele>23.0</ele><time>2026-04-24T09:23:59Z</time></trkpt><trkpt lat="44.91873064605888" lon="10.965907679249474"><ele>23.333333333333336</ele><time>2026-04-24T09:24:00Z</time></trkpt><trkpt lat="44.918773294188846" lon="10.966132978934313"><ele>23.666666666666668</ele><time>2026-04-24T09:24:01Z</time></trkpt><trkpt lat="44.91881559556571" lon="10.9663660216375"><ele>24.0</ele><time>2026-04-24T09:24:02Z</time></trkpt><trkpt lat="44.91885381828587" lon="10.966586580934235"><ele>23.75</ele><time>2026-04-24T09:24:03Z</time></trkpt><trkpt lat="44.91887745568815" lon="10.966785844157116"><ele>23.5</ele><time>2026-04-24T09:24:04Z</time></trkpt><trkpt lat="44.91887479016522" lon="10.966974109053716"><ele>23.25</ele><time>2026-04-24T09:24:05Z</time></trkpt><trkpt lat="44.91883137875556" lon="10.967154825867862"><ele>23.0</ele><time>2026-04-24T09:24:06Z</time></trkpt><trkpt lat="44.91877877955306" lon="10.96734506196334"><ele>22.5</ele><time>2026-04-24T09:24:07Z</time></trkpt><trkpt lat="44.918713947199045" lon="10.967536945134713"><ele>22.0</ele><time>2026-04-24T09:24:08Z</time></trkpt><trkpt lat="44.9186403473462" lon="10.96770506624489"><ele>21.5</ele><time>2026-04-24T09:24:09Z</time></trkpt><trkpt lat="44.91854932763666" lon="10.967841651240631"><ele>21.0</ele><time>2026-04-24T09:24:10Z</time></trkpt><trkpt lat="44.91842317507802" lon="10.967926245024358"><ele>21.0</ele><time>2026-04-24T09:24:11Z</time></trkpt><trkpt lat="44.9182791489319" lon="10.968019805623491"><ele>21.0</ele><time>2026-04-24T09:24:12Z</time></trkpt><trkpt lat="44.91811786169782" lon="10.968110816496566"><ele>21.0</ele><time>2026-04-24T09:24:13Z</time></trkpt><trkpt lat="44.91795023941092" lon="10.968215642274776"><ele>21.0</ele><time>2026-04-24T09:24:14Z</time></trkpt><trkpt lat="44.91777843421662" lon="10.968323984317925"><ele>21.0</ele><time>2026-04-24T09:24:15Z</time></trkpt><trkpt lat="44.91760241851937" lon="10.96843460282848"><ele>21.0</ele><time>2026-04-24T09:24:16Z</time></trkpt><trkpt lat="44.91743921445699" lon="10.968553182413933"><ele>20.666666666666668</ele><time>2026-04-24T09:24:17Z</time></trkpt><trkpt lat="44.91728310794546" lon="10.968641032220082"><ele>20.333333333333336</ele><time>2026-04-24T09:24:18Z</time></trkpt><trkpt lat="44.917138399936405" lon="10.968719729617982"><ele>20.0</ele><time>2026-04-24T09:24:19Z</time></trkpt><trkpt lat="44.917003819952775" lon="10.96879324522703"><ele>20.0</ele><time>2026-04-24T09:24:20Z</time></trkpt><trkpt lat="44.916877864038135" lon="10.96886540898978"><ele>20.0</ele><time>2026-04-24T09:24:21Z</time></trkpt><trkpt lat="44.916763725962866" lon="10.968947367453818"><ele>20.0</ele><time>2026-04-24T09:24:22Z</time></trkpt><trkpt lat="44.91665962797799" lon="10.96905592405399"><ele>20.0</ele><time>2026-04-24T09:24:23Z</time></trkpt><trkpt lat="44.916567433865524" lon="10.969213399916365"><ele>21.0</ele><time>2026-04-24T09:24:24Z</time></trkpt><trkpt lat="44.916491573972046" lon="10.969406548532676"><ele>22.0</ele><time>2026-04-24T09:24:25Z</time></trkpt><trkpt lat="44.91642707638192" lon="10.969617665974448"><ele>23.0</ele><time>2026-04-24T09:24:26Z</time></trkpt><trkpt lat="44.91637470455562" lon="10.969845944767172"><ele>22.666666666666668</ele><time>2026-04-24T09:24:27Z</time></trkpt><trkpt lat="44.91633445826352" lon="10.970087291704832"><ele>22.333333333333332</ele><time>2026-04-24T09:24:28Z</time></trkpt><trkpt lat="44.91630833213442" lon="10.970341082137825"><ele>22.0</ele><time>2026-04-24T09:24:29Z</time></trkpt><trkpt lat="44.916298583072745" lon="10.970606965722274"><ele>22.0</ele><time>2026-04-24T09:24:30Z</time></trkpt><trkpt lat="44.91629921967136" lon="10.970872454905793"><ele>22.0</ele><time>2026-04-24T09:24:31Z</time></trkpt><trkpt lat="44.91629934327533" lon="10.971122328629612"><ele>22.0</ele><time>2026-04-24T09:24:32Z</time></trkpt><trkpt lat="44.91629076396266" lon="10.971357641390018"><ele>22.0</ele><time>2026-04-24T09:24:33Z</time></trkpt><trkpt lat="44.9162566683501" lon="10.971584341173326"><ele>22.0</ele><time>2026-04-24T09:24:34Z</time></trkpt><trkpt lat="44.91617720890923" lon="10.971776903204379"><ele>22.0</ele><time>2026-04-24T09:24:35Z</time></trkpt><trkpt lat="44.91609812013919" lon="10.971974348110985"><ele>21.333333333333332</ele><time>2026-04-24T09:24:36Z</time></trkpt><trkpt lat="44.91601624764761" lon="10.972168148079774"><ele>20.666666666666668</ele><time>2026-04-24T09:24:37Z</time></trkpt><trkpt lat="44.91592968859959" lon="10.972367275832871"><ele>20.0</ele><time>2026-04-24T09:24:38Z</time></trkpt><trkpt lat="44.91584393709189" lon="10.972563978200332"><ele>20.0</ele><time>2026-04-24T09:24:39Z</time></trkpt><trkpt lat="44.915754659453924" lon="10.972754415162347"><ele>20.0</ele><time>2026-04-24T09:24:40Z</time></trkpt><trkpt lat="44.91565951259819" lon="10.972941345435796"><ele>20.0</ele><time>2026-04-24T09:24:41Z</time></trkpt><trkpt lat="44.915560899840585" lon="10.973124581937975"><ele>20.0</ele><time>2026-04-24T09:24:42Z</time></trkpt><trkpt lat="44.91546168639705" lon="10.973297825929329"><ele>20.0</ele><time>2026-04-24T09:24:43Z</time></trkpt><trkpt lat="44.915366855518" lon="10.973450118327605"><ele>20.0</ele><time>2026-04-24T09:24:44Z</time></trkpt><trkpt lat="44.915262680033905" lon="10.973588668755692"><ele>20.0</ele><time>2026-04-24T09:24:45Z</time></trkpt><trkpt lat="44.915138925124126" lon="10.973700631778742"><ele>20.666666666666668</ele><time>2026-04-24T09:24:46Z</time></trkpt><trkpt lat="44.91499364601016" lon="10.973795670924526"><ele>21.333333333333332</ele><time>2026-04-24T09:24:47Z</time></trkpt><trkpt lat="44.914844587714335" lon="10.973885128852563"><ele>22.0</ele><time>2026-04-24T09:24:48Z</time></trkpt><trkpt lat="44.91471844569143" lon="10.973988652134677"><ele>22.0</ele><time>2026-04-24T09:24:49Z</time></trkpt><trkpt lat="44.91459797814798" lon="10.974068950327661"><ele>22.0</ele><time>2026-04-24T09:24:50Z</time></trkpt><trkpt lat="44.914485946085065" lon="10.974173287187076"><ele>22.0</ele><time>2026-04-24T09:24:51Z</time></trkpt><trkpt lat="44.91438329167699" lon="10.97430037423938"><ele>22.0</ele><time>2026-04-24T09:24:52Z</time></trkpt><trkpt lat="44.914292071321206" lon="10.974463082093276"><ele>21.666666666666664</ele><time>2026-04-24T09:24:53Z</time></trkpt><trkpt lat="44.91420607946558" lon="10.974648126096342"><ele>21.333333333333332</ele><time>2026-04-24T09:24:54Z</time></trkpt><trkpt lat="44.9141182037698" lon="10.974838463639234"><ele>21.0</ele><time>2026-04-24T09:24:55Z</time></trkpt><trkpt lat="44.914027716089905" lon="10.975036475682735"><ele>21.0</ele><time>2026-04-24T09:24:56Z</time></trkpt><trkpt lat="44.9138953131012" lon="10.975175140339548"><ele>21.0</ele><time>2026-04-24T09:24:57Z</time></trkpt><trkpt lat="44.91376062106629" lon="10.975314276406053"><ele>21.0</ele><time>2026-04-24T09:24:58Z</time></trkpt><trkpt lat="44.91363855608896" lon="10.97545360832193"><ele>21.0</ele><time>2026-04-24T09:24:59Z</time></trkpt><trkpt lat="44.913534800769256" lon="10.975606560829814"><ele>21.0</ele><time>2026-04-24T09:25:00Z</time></trkpt><trkpt lat="44.913430232375546" lon="10.975769398787168"><ele>21.0</ele><time>2026-04-24T09:25:01Z</time></trkpt><trkpt lat="44.91334072821189" lon="10.97595902698316"><ele>20.333333333333332</ele><time>2026-04-24T09:25:02Z</time></trkpt><trkpt lat="44.913261543562626" lon="10.97616659880193"><ele>19.666666666666664</ele><time>2026-04-24T09:25:03Z</time></trkpt><trkpt lat="44.913192813653666" lon="10.976389119460265"><ele>19.0</ele><time>2026-04-24T09:25:04Z</time></trkpt><trkpt lat="44.91312817515001" lon="10.976624006315035"><ele>19.0</ele><time>2026-04-24T09:25:05Z</time></trkpt><trkpt lat="44.913071784162845" lon="10.976844072904152"><ele>19.0</ele><time>2026-04-24T09:25:06Z</time></trkpt><trkpt lat="44.9130279184621" lon="10.977048728815102"><ele>19.0</ele><time>2026-04-24T09:25:07Z</time></trkpt><trkpt lat="44.9130012364131" lon="10.977244277026555"><ele>19.0</ele><time>2026-04-24T09:25:08Z</time></trkpt><trkpt lat="44.912983007928936" lon="10.97742944460531"><ele>19.0</ele><time>2026-04-24T09:25:09Z</time></trkpt><trkpt lat="44.91295027767403" lon="10.977600242188284"><ele>19.0</ele><time>2026-04-24T09:25:10Z</time></trkpt><trkpt lat="44.91288822691909" lon="10.977756080383354"><ele>19.0</ele><time>2026-04-24T09:25:11Z</time></trkpt><trkpt lat="44.91277255551948" lon="10.97784766538518"><ele>19.0</ele><time>2026-04-24T09:25:12Z</time></trkpt><trkpt lat="44.91265225555979" lon="10.977917734908416"><ele>19.0</ele><time>2026-04-24T09:25:13Z</time></trkpt><trkpt lat="44.912516813884366" lon="10.978004524714835"><ele>19.0</ele><time>2026-04-24T09:25:14Z</time></trkpt><trkpt lat="44.91237698317787" lon="10.978094127378114"><ele>19.0</ele><time>2026-04-24T09:25:15Z</time></trkpt><trkpt lat="44.91223545116319" lon="10.97818614335067"><ele>20.0</ele><time>2026-04-24T09:25:16Z</time></trkpt><trkpt lat="44.91194158530522" lon="10.978399188853793"><ele>21.0</ele><time>2026-04-24T09:25:18Z</time></trkpt><trkpt lat="44.91179125479648" lon="10.978496000640062"><ele>20.666666666666668</ele><time>2026-04-24T09:25:19Z</time></trkpt><trkpt lat="44.9116396436016" lon="10.978593562776025"><ele>20.333333333333336</ele><time>2026-04-24T09:25:20Z</time></trkpt><trkpt lat="44.911487386277045" lon="10.978690940275285"><ele>20.0</ele><time>2026-04-24T09:25:21Z</time></trkpt><trkpt lat="44.911331983995076" lon="10.978787256639285"><ele>20.0</ele><time>2026-04-24T09:25:22Z</time></trkpt><trkpt lat="44.91117813311406" lon="10.978879127773858"><ele>20.0</ele><time>2026-04-24T09:25:23Z</time></trkpt><trkpt lat="44.911028503949886" lon="10.97897761888714"><ele>20.0</ele><time>2026-04-24T09:25:24Z</time></trkpt><trkpt lat="44.91088173883286" lon="10.979076949210244"><ele>20.0</ele><time>2026-04-24T09:25:25Z</time></trkpt><trkpt lat="44.91073328433017" lon="10.979169766599078"><ele>20.0</ele><time>2026-04-24T09:25:26Z</time></trkpt><trkpt lat="44.910587000092434" lon="10.979261246350314"><ele>20.0</ele><time>2026-04-24T09:25:27Z</time></trkpt><trkpt lat="44.9104424446921" lon="10.979351867923008"><ele>20.0</ele><time>2026-04-24T09:25:28Z</time></trkpt><trkpt lat="44.910301707114684" lon="10.979445125608203"><ele>20.0</ele><time>2026-04-24T09:25:29Z</time></trkpt><trkpt lat="44.91016245974573" lon="10.9795394886588"><ele>20.0</ele><time>2026-04-24T09:25:30Z</time></trkpt><trkpt lat="44.910023976562755" lon="10.979633755809434"><ele>20.0</ele><time>2026-04-24T09:25:31Z</time></trkpt><trkpt lat="44.90988383335265" lon="10.979725476642846"><ele>20.0</ele><time>2026-04-24T09:25:32Z</time></trkpt><trkpt lat="44.90975299871085" lon="10.979810423110273"><ele>20.0</ele><time>2026-04-24T09:25:33Z</time></trkpt><trkpt lat="44.90963397234216" lon="10.979890323147725"><ele>20.0</ele><time>2026-04-24T09:25:34Z</time></trkpt><trkpt lat="44.90953022437993" lon="10.979959025356655"><ele>20.333333333333336</ele><time>2026-04-24T09:25:35Z</time></trkpt><trkpt lat="44.90943621903968" lon="10.980017769248262"><ele>20.666666666666668</ele><time>2026-04-24T09:25:36Z</time></trkpt><trkpt lat="44.90935622472849" lon="10.980069120565114"><ele>21.0</ele><time>2026-04-24T09:25:37Z</time></trkpt><trkpt lat="44.90928618544894" lon="10.98011272488361"><ele>21.333333333333332</ele><time>2026-04-24T09:25:38Z</time></trkpt><trkpt lat="44.90922443393181" lon="10.980151896965536"><ele>21.666666666666664</ele><time>2026-04-24T09:25:40Z</time></trkpt><trkpt lat="44.909247716335024" lon="10.980290352944236"><ele>22.0</ele><time>2026-04-24T09:25:56Z</time></trkpt><trkpt lat="44.909257802205495" lon="10.98040680687372"><ele>22.0</ele><time>2026-04-24T09:25:57Z</time></trkpt><trkpt lat="44.90929554823327" lon="10.980555073839863"><ele>22.0</ele><time>2026-04-24T09:25:58Z</time></trkpt><trkpt lat="44.90934927633636" lon="10.980718915082344"><ele>22.0</ele><time>2026-04-24T09:25:59Z</time></trkpt><trkpt lat="44.90939960457328" lon="10.980895602377942"><ele>22.0</ele><time>2026-04-24T09:26:00Z</time></trkpt><trkpt lat="44.9094567164275" lon="10.981078895783847"><ele>22.25</ele><time>2026-04-24T09:26:01Z</time></trkpt><trkpt lat="44.909515789081325" lon="10.981264417942311"><ele>22.5</ele><time>2026-04-24T09:26:02Z</time></trkpt><trkpt lat="44.90957066337472" lon="10.981447815623538"><ele>22.75</ele><time>2026-04-24T09:26:03Z</time></trkpt><trkpt lat="44.90963018822164" lon="10.981641895221179"><ele>23.0</ele><time>2026-04-24T09:26:04Z</time></trkpt><trkpt lat="44.909758219329746" lon="10.982052568014346"><ele>23.25</ele><time>2026-04-24T09:26:06Z</time></trkpt><trkpt lat="44.90982299492105" lon="10.982250938914506"><ele>23.5</ele><time>2026-04-24T09:26:07Z</time></trkpt><trkpt lat="44.90989069229857" lon="10.982431237996083"><ele>23.75</ele><time>2026-04-24T09:26:08Z</time></trkpt><trkpt lat="44.909964528583416" lon="10.982590585917121"><ele>24.0</ele><time>2026-04-24T09:26:09Z</time></trkpt><trkpt lat="44.91003993657668" lon="10.982722427710318"><ele>23.4</ele><time>2026-04-24T09:26:10Z</time></trkpt><trkpt lat="44.910112731762275" lon="10.982828040104911"><ele>22.799999999999997</ele><time>2026-04-24T09:26:11Z</time></trkpt><trkpt lat="44.91018530250756" lon="10.982913152834863"><ele>22.200000000000003</ele><time>2026-04-24T09:26:12Z</time></trkpt><trkpt lat="44.910265059019935" lon="10.982985781445933"><ele>21.6</ele><time>2026-04-24T09:26:13Z</time></trkpt><trkpt lat="44.91035715023832" lon="10.983054303776274"><ele>21.0</ele><time>2026-04-24T09:26:14Z</time></trkpt><trkpt lat="44.91045195815516" lon="10.983119716720333"><ele>21.0</ele><time>2026-04-24T09:26:15Z</time></trkpt><trkpt lat="44.91054878607635" lon="10.983198135384166"><ele>21.0</ele><time>2026-04-24T09:26:16Z</time></trkpt><trkpt lat="44.91064910352033" lon="10.983278082777197"><ele>21.0</ele><time>2026-04-24T09:26:17Z</time></trkpt><trkpt lat="44.91074169584142" lon="10.983359070579784"><ele>21.0</ele><time>2026-04-24T09:26:18Z</time></trkpt><trkpt lat="44.91083148883897" lon="10.983426250068984"><ele>21.0</ele><time>2026-04-24T09:26:19Z</time></trkpt><trkpt lat="44.910906787665255" lon="10.98348700171912"><ele>21.0</ele><time>2026-04-24T09:26:20Z</time></trkpt><trkpt lat="44.91097696078602" lon="10.983543602080013"><ele>21.0</ele><time>2026-04-24T09:26:21Z</time></trkpt><trkpt lat="44.91104144724812" lon="10.983594170436144"><ele>21.0</ele><time>2026-04-24T09:26:22Z</time></trkpt><trkpt lat="44.91110217803647" lon="10.98363949349035"><ele>21.0</ele><time>2026-04-24T09:26:23Z</time></trkpt><trkpt lat="44.91116574160075" lon="10.9836616448209"><ele>21.0</ele><time>2026-04-24T09:26:24Z</time></trkpt><trkpt lat="44.91126641630793" lon="10.983585565983583"><ele>21.0</ele><time>2026-04-24T09:26:26Z</time></trkpt><trkpt lat="44.91130709946081" lon="10.983488976457814"><ele>21.0</ele><time>2026-04-24T09:26:27Z</time></trkpt><trkpt lat="44.911352705716475" lon="10.983356146272929"><ele>21.0</ele><time>2026-04-24T09:26:28Z</time></trkpt><trkpt lat="44.911402786296755" lon="10.983197304390352"><ele>21.0</ele><time>2026-04-24T09:26:29Z</time></trkpt><trkpt lat="44.91145440757316" lon="10.98303158742714"><ele>21.0</ele><time>2026-04-24T09:26:30Z</time></trkpt><trkpt lat="44.91150312697789" lon="10.982885078903072"><ele>21.4</ele><time>2026-04-24T09:26:31Z</time></trkpt><trkpt lat="44.91156355994746" lon="10.982758832540492"><ele>21.8</ele><time>2026-04-24T09:26:32Z</time></trkpt><trkpt lat="44.911633862836034" lon="10.982654761847076"><ele>22.2</ele><time>2026-04-24T09:26:33Z</time></trkpt><trkpt lat="44.91171212856452" lon="10.982577527957545"><ele>22.599999999999998</ele><time>2026-04-24T09:26:34Z</time></trkpt><trkpt lat="44.911788305220014" lon="10.98252566714594"><ele>23.0</ele><time>2026-04-24T09:26:35Z</time></trkpt><trkpt lat="44.911850937801134" lon="10.982505999846166"><ele>23.0</ele><time>2026-04-24T09:26:36Z</time></trkpt><trkpt lat="44.91193233227366" lon="10.982617777955769"><ele>23.0</ele><time>2026-04-24T09:26:38Z</time></trkpt><trkpt lat="44.911920083950655" lon="10.982713612660184"><ele>23.0</ele><time>2026-04-24T09:26:39Z</time></trkpt><trkpt lat="44.91185520858111" lon="10.982799192185677"><ele>23.0</ele><time>2026-04-24T09:26:40Z</time></trkpt><trkpt lat="44.911779507795984" lon="10.982894287882175"><ele>23.0</ele><time>2026-04-24T09:26:41Z</time></trkpt><trkpt lat="44.911701503549345" lon="10.983023497135742"><ele>23.0</ele><time>2026-04-24T09:26:42Z</time></trkpt><trkpt lat="44.91163291204612" lon="10.98319146444063"><ele>23.0</ele><time>2026-04-24T09:26:43Z</time></trkpt><trkpt lat="44.91155665343162" lon="10.98334647159962"><ele>23.0</ele><time>2026-04-24T09:26:44Z</time></trkpt><trkpt lat="44.91148503918835" lon="10.983501112300578"><ele>23.0</ele><time>2026-04-24T09:26:45Z</time></trkpt><trkpt lat="44.911400702341865" lon="10.983656736200688"><ele>22.5</ele><time>2026-04-24T09:26:46Z</time></trkpt><trkpt lat="44.9113035463906" lon="10.983807542600987"><ele>22.0</ele><time>2026-04-24T09:26:47Z</time></trkpt><trkpt lat="44.911206483675336" lon="10.983960924693225"><ele>21.5</ele><time>2026-04-24T09:26:48Z</time></trkpt><trkpt lat="44.91110491411281" lon="10.984115170812332"><ele>21.0</ele><time>2026-04-24T09:26:49Z</time></trkpt><trkpt lat="44.91100274873018" lon="10.984265473093437"><ele>21.0</ele><time>2026-04-24T09:26:50Z</time></trkpt><trkpt lat="44.9109060063101" lon="10.984427506501074"><ele>21.0</ele><time>2026-04-24T09:26:51Z</time></trkpt><trkpt lat="44.91080945554442" lon="10.984583721958836"><ele>21.0</ele><time>2026-04-24T09:26:52Z</time></trkpt><trkpt lat="44.91070185516709" lon="10.98471523484533"><ele>21.0</ele><time>2026-04-24T09:26:53Z</time></trkpt><trkpt lat="44.91060498013444" lon="10.984855671988647"><ele>21.0</ele><time>2026-04-24T09:26:54Z</time></trkpt><trkpt lat="44.91050641948322" lon="10.984989635233406"><ele>21.0</ele><time>2026-04-24T09:26:55Z</time></trkpt><trkpt lat="44.9104017978031" lon="10.985123518167761"><ele>21.0</ele><time>2026-04-24T09:26:56Z</time></trkpt><trkpt lat="44.91029370735157" lon="10.985253124951026"><ele>21.0</ele><time>2026-04-24T09:26:57Z</time></trkpt><trkpt lat="44.910179802949855" lon="10.985385720117998"><ele>21.0</ele><time>2026-04-24T09:26:58Z</time></trkpt><trkpt lat="44.91006662532279" lon="10.985511927984327"><ele>21.0</ele><time>2026-04-24T09:26:59Z</time></trkpt><trkpt lat="44.909946451988056" lon="10.985630349368922"><ele>21.0</ele><time>2026-04-24T09:27:00Z</time></trkpt><trkpt lat="44.90982006639314" lon="10.985744420405847"><ele>21.0</ele><time>2026-04-24T09:27:01Z</time></trkpt><trkpt lat="44.909691539344834" lon="10.985839672763362"><ele>21.333333333333332</ele><time>2026-04-24T09:27:02Z</time></trkpt><trkpt lat="44.90955622458994" lon="10.98592969421744"><ele>21.666666666666664</ele><time>2026-04-24T09:27:03Z</time></trkpt><trkpt lat="44.90941687643612" lon="10.986015641092278"><ele>22.0</ele><time>2026-04-24T09:27:04Z</time></trkpt><trkpt lat="44.90927076269809" lon="10.986098721924076"><ele>22.0</ele><time>2026-04-24T09:27:05Z</time></trkpt><trkpt lat="44.90912384688272" lon="10.986175750399829"><ele>22.0</ele><time>2026-04-24T09:27:06Z</time></trkpt><trkpt lat="44.90898732070923" lon="10.986242683238379"><ele>22.0</ele><time>2026-04-24T09:27:07Z</time></trkpt><trkpt lat="44.90885966307679" lon="10.986294210413329"><ele>22.0</ele><time>2026-04-24T09:27:08Z</time></trkpt><trkpt lat="44.90874089454063" lon="10.986313996416879"><ele>22.0</ele><time>2026-04-24T09:27:09Z</time></trkpt><trkpt lat="44.908622823167846" lon="10.98630305139775"><ele>22.0</ele><time>2026-04-24T09:27:10Z</time></trkpt><trkpt lat="44.90850554448162" lon="10.986262404624531"><ele>22.0</ele><time>2026-04-24T09:27:11Z</time></trkpt><trkpt lat="44.908383005925124" lon="10.98620430887322"><ele>22.0</ele><time>2026-04-24T09:27:12Z</time></trkpt><trkpt lat="44.90829656853241" lon="10.986110066986168"><ele>22.25</ele><time>2026-04-24T09:27:13Z</time></trkpt><trkpt lat="44.90820584011365" lon="10.985999694871584"><ele>22.5</ele><time>2026-04-24T09:27:14Z</time></trkpt><trkpt lat="44.90811217972088" lon="10.985861828812574"><ele>22.75</ele><time>2026-04-24T09:27:15Z</time></trkpt><trkpt lat="44.90801321982416" lon="10.985707664705027"><ele>23.0</ele><time>2026-04-24T09:27:16Z</time></trkpt><trkpt lat="44.90791057079888" lon="10.9855424771796"><ele>23.333333333333336</ele><time>2026-04-24T09:27:17Z</time></trkpt><trkpt lat="44.90779755691386" lon="10.985388412733945"><ele>23.666666666666668</ele><time>2026-04-24T09:27:18Z</time></trkpt><trkpt lat="44.90770433927428" lon="10.985221654732193"><ele>24.0</ele><time>2026-04-24T09:27:19Z</time></trkpt><trkpt lat="44.9076058855621" lon="10.985053027956107"><ele>23.333333333333332</ele><time>2026-04-24T09:27:20Z</time></trkpt><trkpt lat="44.907493079845764" lon="10.984881706507464"><ele>22.666666666666664</ele><time>2026-04-24T09:27:21Z</time></trkpt><trkpt lat="44.90737681687704" lon="10.984711111917864"><ele>22.0</ele><time>2026-04-24T09:27:22Z</time></trkpt><trkpt lat="44.9072665518864" lon="10.98455395263722"><ele>22.0</ele><time>2026-04-24T09:27:23Z</time></trkpt><trkpt lat="44.90716595000926" lon="10.98441496492796"><ele>22.0</ele><time>2026-04-24T09:27:24Z</time></trkpt><trkpt lat="44.90706815620329" lon="10.984301072081557"><ele>22.0</ele><time>2026-04-24T09:27:25Z</time></trkpt><trkpt lat="44.906971660361826" lon="10.984201485333738"><ele>22.0</ele><time>2026-04-24T09:27:26Z</time></trkpt><trkpt lat="44.90687225201573" lon="10.984121857835124"><ele>22.0</ele><time>2026-04-24T09:27:27Z</time></trkpt><trkpt lat="44.90677624721857" lon="10.98406626938354"><ele>22.0</ele><time>2026-04-24T09:27:28Z</time></trkpt><trkpt lat="44.90667660010113" lon="10.984065101756094"><ele>22.0</ele><time>2026-04-24T09:27:29Z</time></trkpt><trkpt lat="44.906577866654" lon="10.984109683633545"><ele>22.0</ele><time>2026-04-24T09:27:30Z</time></trkpt><trkpt lat="44.906463858856206" lon="10.984201065612945"><ele>22.0</ele><time>2026-04-24T09:27:31Z</time></trkpt><trkpt lat="44.90635185323937" lon="10.984324379331571"><ele>21.666666666666664</ele><time>2026-04-24T09:27:32Z</time></trkpt><trkpt lat="44.90623800332296" lon="10.984462499131926"><ele>21.333333333333332</ele><time>2026-04-24T09:27:33Z</time></trkpt><trkpt lat="44.90611006392703" lon="10.98460507219888"><ele>21.0</ele><time>2026-04-24T09:27:34Z</time></trkpt><trkpt lat="44.90597694527299" lon="10.984747303148897"><ele>20.666666666666668</ele><time>2026-04-24T09:27:35Z</time></trkpt><trkpt lat="44.90583172072072" lon="10.984895933882626"><ele>20.333333333333336</ele><time>2026-04-24T09:27:36Z</time></trkpt><trkpt lat="44.90568511996654" lon="10.985038755962146"><ele>20.0</ele><time>2026-04-24T09:27:37Z</time></trkpt><trkpt lat="44.90553950798095" lon="10.985182788311523"><ele>19.333333333333336</ele><time>2026-04-24T09:27:38Z</time></trkpt><trkpt lat="44.905389661148114" lon="10.985332759355373"><ele>18.666666666666668</ele><time>2026-04-24T09:27:39Z</time></trkpt><trkpt lat="44.90524301461117" lon="10.985477425161248"><ele>18.0</ele><time>2026-04-24T09:27:40Z</time></trkpt><trkpt lat="44.905092315838274" lon="10.98562111365467"><ele>18.333333333333332</ele><time>2026-04-24T09:27:41Z</time></trkpt><trkpt lat="44.904938282224336" lon="10.985765941542725"><ele>18.666666666666664</ele><time>2026-04-24T09:27:42Z</time></trkpt><trkpt lat="44.90478566689719" lon="10.985913440960202"><ele>19.0</ele><time>2026-04-24T09:27:43Z</time></trkpt><trkpt lat="44.904633426612754" lon="10.986057953323995"><ele>19.333333333333332</ele><time>2026-04-24T09:27:44Z</time></trkpt><trkpt lat="44.904483114637486" lon="10.98619996272831"><ele>19.666666666666668</ele><time>2026-04-24T09:27:45Z</time></trkpt><trkpt lat="44.90434370806495" lon="10.986333121286394"><ele>20.0</ele><time>2026-04-24T09:27:46Z</time></trkpt><trkpt lat="44.904213389048905" lon="10.986461468476927"><ele>20.0</ele><time>2026-04-24T09:27:47Z</time></trkpt><trkpt lat="44.904091308267894" lon="10.986580005596045"><ele>20.0</ele><time>2026-04-24T09:27:48Z</time></trkpt><trkpt lat="44.90396672538785" lon="10.98667789575293"><ele>20.0</ele><time>2026-04-24T09:27:49Z</time></trkpt><trkpt lat="44.90386436603033" lon="10.98681091379236"><ele>20.0</ele><time>2026-04-24T09:27:50Z</time></trkpt><trkpt lat="44.90376286181199" lon="10.986939325103853"><ele>19.75</ele><time>2026-04-24T09:27:51Z</time></trkpt><trkpt lat="44.90367339116791" lon="10.987083820172147"><ele>19.5</ele><time>2026-04-24T09:27:52Z</time></trkpt><trkpt lat="44.903590755302865" lon="10.987230961078337"><ele>19.25</ele><time>2026-04-24T09:27:53Z</time></trkpt><trkpt lat="44.90351286708109" lon="10.987372995490631"><ele>19.0</ele><time>2026-04-24T09:27:54Z</time></trkpt><trkpt lat="44.90342942023464" lon="10.987513422201419"><ele>19.25</ele><time>2026-04-24T09:27:55Z</time></trkpt><trkpt lat="44.903339103481215" lon="10.987666325330371"><ele>19.5</ele><time>2026-04-24T09:27:56Z</time></trkpt><trkpt lat="44.90324568058509" lon="10.987820246573754"><ele>19.75</ele><time>2026-04-24T09:27:57Z</time></trkpt><trkpt lat="44.90314791391164" lon="10.987981334188918"><ele>20.0</ele><time>2026-04-24T09:27:58Z</time></trkpt><trkpt lat="44.90304284845026" lon="10.988147795043764"><ele>20.0</ele><time>2026-04-24T09:27:59Z</time></trkpt><trkpt lat="44.90293611514062" lon="10.98832143325854"><ele>20.0</ele><time>2026-04-24T09:28:00Z</time></trkpt><trkpt lat="44.90282929598068" lon="10.988498657425179"><ele>20.0</ele><time>2026-04-24T09:28:01Z</time></trkpt><trkpt lat="44.902722970310215" lon="10.988676249003749"><ele>19.666666666666668</ele><time>2026-04-24T09:28:02Z</time></trkpt><trkpt lat="44.90261340216154" lon="10.988857947364892"><ele>19.333333333333332</ele><time>2026-04-24T09:28:03Z</time></trkpt><trkpt lat="44.90250529941382" lon="10.989053671863903"><ele>19.0</ele><time>2026-04-24T09:28:04Z</time></trkpt><trkpt lat="44.902380744954066" lon="10.989233246326025"><ele>19.666666666666664</ele><time>2026-04-24T09:28:05Z</time></trkpt><trkpt lat="44.902267031265275" lon="10.989441828463782"><ele>20.333333333333332</ele><time>2026-04-24T09:28:06Z</time></trkpt><trkpt lat="44.90217411218951" lon="10.989678977712167"><ele>21.0</ele><time>2026-04-24T09:28:07Z</time></trkpt><trkpt lat="44.902068465599335" lon="10.989897040018414"><ele>20.666666666666668</ele><time>2026-04-24T09:28:08Z</time></trkpt><trkpt lat="44.901973713905555" lon="10.990119190850777"><ele>20.333333333333336</ele><time>2026-04-24T09:28:09Z</time></trkpt><trkpt lat="44.901882629197125" lon="10.990338580153537"><ele>20.0</ele><time>2026-04-24T09:28:10Z</time></trkpt><trkpt lat="44.90179178947788" lon="10.990551151951571"><ele>20.0</ele><time>2026-04-24T09:28:11Z</time></trkpt><trkpt lat="44.90170192686386" lon="10.990757399936415"><ele>20.0</ele><time>2026-04-24T09:28:12Z</time></trkpt><trkpt lat="44.90161373699864" lon="10.990958123825479"><ele>20.0</ele><time>2026-04-24T09:28:13Z</time></trkpt><trkpt lat="44.90152376990934" lon="10.991164191203328"><ele>20.0</ele><time>2026-04-24T09:28:14Z</time></trkpt><trkpt lat="44.9014359044985" lon="10.99137706232407"><ele>20.0</ele><time>2026-04-24T09:28:15Z</time></trkpt><trkpt lat="44.90134871492901" lon="10.991589525266638"><ele>20.0</ele><time>2026-04-24T09:28:16Z</time></trkpt><trkpt lat="44.9012511547366" lon="10.991784680741787"><ele>20.0</ele><time>2026-04-24T09:28:17Z</time></trkpt><trkpt lat="44.901173817527194" lon="10.99197493965257"><ele>20.0</ele><time>2026-04-24T09:28:18Z</time></trkpt><trkpt lat="44.901099036378426" lon="10.992158910593597"><ele>20.0</ele><time>2026-04-24T09:28:19Z</time></trkpt><trkpt lat="44.90103026681601" lon="10.99232582581371"><ele>20.0</ele><time>2026-04-24T09:28:20Z</time></trkpt><trkpt lat="44.90096890985934" lon="10.99247291191695"><ele>20.0</ele><time>2026-04-24T09:28:21Z</time></trkpt><trkpt lat="44.90091222763275" lon="10.992602137914265"><ele>20.0</ele><time>2026-04-24T09:28:22Z</time></trkpt><trkpt lat="44.90086873747248" lon="10.992720432738572"><ele>20.0</ele><time>2026-04-24T09:28:23Z</time></trkpt><trkpt lat="44.9008133700459" lon="10.992793235810558"><ele>20.0</ele><time>2026-04-24T09:28:24Z</time></trkpt><trkpt lat="44.90075545904149" lon="10.992840702449918"><ele>20.0</ele><time>2026-04-24T09:28:25Z</time></trkpt><trkpt lat="44.900681461007586" lon="10.99290826002722"><ele>20.0</ele><time>2026-04-24T09:28:27Z</time></trkpt><trkpt lat="44.90057399695917" lon="10.992809174709565"><ele>20.0</ele><time>2026-04-24T09:28:28Z</time></trkpt><trkpt lat="44.90048066199198" lon="10.992775739109838"><ele>20.0</ele><time>2026-04-24T09:28:29Z</time></trkpt><trkpt lat="44.90036801872344" lon="10.992756793666107"><ele>20.0</ele><time>2026-04-24T09:28:30Z</time></trkpt><trkpt lat="44.900243998629335" lon="10.99269772983699"><ele>20.0</ele><time>2026-04-24T09:28:31Z</time></trkpt><trkpt lat="44.90010704469229" lon="10.99263499925997"><ele>20.0</ele><time>2026-04-24T09:28:32Z</time></trkpt><trkpt lat="44.899961651278204" lon="10.992565412883009"><ele>20.0</ele><time>2026-04-24T09:28:33Z</time></trkpt><trkpt lat="44.89980783067605" lon="10.992490085717117"><ele>20.0</ele><time>2026-04-24T09:28:34Z</time></trkpt><trkpt lat="44.899651460726645" lon="10.992409307547401"><ele>20.0</ele><time>2026-04-24T09:28:35Z</time></trkpt><trkpt lat="44.8994960113485" lon="10.99232462037817"><ele>20.0</ele><time>2026-04-24T09:28:36Z</time></trkpt><trkpt lat="44.899339758054516" lon="10.992235056610125"><ele>20.0</ele><time>2026-04-24T09:28:37Z</time></trkpt><trkpt lat="44.89918856565229" lon="10.992145403571877"><ele>19.666666666666668</ele><time>2026-04-24T09:28:38Z</time></trkpt><trkpt lat="44.899037277134056" lon="10.99205351442812"><ele>19.333333333333332</ele><time>2026-04-24T09:28:39Z</time></trkpt><trkpt lat="44.89888307150432" lon="10.99196422454784"><ele>19.0</ele><time>2026-04-24T09:28:40Z</time></trkpt><trkpt lat="44.89872951113431" lon="10.99187605734278"><ele>19.0</ele><time>2026-04-24T09:28:41Z</time></trkpt><trkpt lat="44.89857547544689" lon="10.99179036710716"><ele>19.0</ele><time>2026-04-24T09:28:42Z</time></trkpt><trkpt lat="44.89842274502402" lon="10.991705152260755"><ele>19.0</ele><time>2026-04-24T09:28:43Z</time></trkpt><trkpt lat="44.898268598230764" lon="10.991616839966174"><ele>19.333333333333332</ele><time>2026-04-24T09:28:44Z</time></trkpt><trkpt lat="44.89811406919811" lon="10.991527114509726"><ele>19.666666666666668</ele><time>2026-04-24T09:28:45Z</time></trkpt><trkpt lat="44.8979615510266" lon="10.99144021627473"><ele>20.0</ele><time>2026-04-24T09:28:46Z</time></trkpt><trkpt lat="44.89781071776219" lon="10.991353853863725"><ele>20.0</ele><time>2026-04-24T09:28:47Z</time></trkpt><trkpt lat="44.89765846825425" lon="10.991273262365024"><ele>20.0</ele><time>2026-04-24T09:28:48Z</time></trkpt><trkpt lat="44.897506853408" lon="10.991187739707124"><ele>20.0</ele><time>2026-04-24T09:28:49Z</time></trkpt><trkpt lat="44.89735415475813" lon="10.991097512559806"><ele>19.333333333333336</ele><time>2026-04-24T09:28:50Z</time></trkpt><trkpt lat="44.89720368107093" lon="10.99100909477964"><ele>18.666666666666668</ele><time>2026-04-24T09:28:51Z</time></trkpt><trkpt lat="44.89705149710097" lon="10.99092190791415"><ele>18.0</ele><time>2026-04-24T09:28:52Z</time></trkpt><trkpt lat="44.89690018752234" lon="10.990836621274264"><ele>19.0</ele><time>2026-04-24T09:28:53Z</time></trkpt><trkpt lat="44.89674758799247" lon="10.990752901627227"><ele>20.0</ele><time>2026-04-24T09:28:54Z</time></trkpt><trkpt lat="44.89659337473059" lon="10.990663295340644"><ele>21.0</ele><time>2026-04-24T09:28:55Z</time></trkpt><trkpt lat="44.89644142866177" lon="10.990574810306832"><ele>21.0</ele><time>2026-04-24T09:28:56Z</time></trkpt><trkpt lat="44.89628999349219" lon="10.99049079701647"><ele>21.0</ele><time>2026-04-24T09:28:57Z</time></trkpt><trkpt lat="44.896137694939725" lon="10.990405905083254"><ele>21.0</ele><time>2026-04-24T09:28:58Z</time></trkpt><trkpt lat="44.89598344537677" lon="10.990317262179275"><ele>20.666666666666668</ele><time>2026-04-24T09:28:59Z</time></trkpt><trkpt lat="44.89583019465037" lon="10.990233008228424"><ele>20.333333333333336</ele><time>2026-04-24T09:29:00Z</time></trkpt><trkpt lat="44.895675656714175" lon="10.990150322814134"><ele>20.0</ele><time>2026-04-24T09:29:01Z</time></trkpt><trkpt lat="44.895523886410125" lon="10.990060472993294"><ele>20.0</ele><time>2026-04-24T09:29:02Z</time></trkpt><trkpt lat="44.89537141971556" lon="10.989973608022874"><ele>20.0</ele><time>2026-04-24T09:29:03Z</time></trkpt><trkpt lat="44.89522007493347" lon="10.98989048662112"><ele>20.0</ele><time>2026-04-24T09:29:04Z</time></trkpt><trkpt lat="44.89506691090248" lon="10.989809934405464"><ele>19.666666666666668</ele><time>2026-04-24T09:29:05Z</time></trkpt><trkpt lat="44.894913761606524" lon="10.989729132494947"><ele>19.333333333333332</ele><time>2026-04-24T09:29:06Z</time></trkpt><trkpt lat="44.89476270001293" lon="10.989652805372328"><ele>19.0</ele><time>2026-04-24T09:29:07Z</time></trkpt><trkpt lat="44.89460852804745" lon="10.989577044450817"><ele>19.0</ele><time>2026-04-24T09:29:08Z</time></trkpt><trkpt lat="44.894452801903874" lon="10.989503002542058"><ele>19.0</ele><time>2026-04-24T09:29:09Z</time></trkpt><trkpt lat="44.89429725925194" lon="10.989425170523534"><ele>19.0</ele><time>2026-04-24T09:29:10Z</time></trkpt><trkpt lat="44.89413994931237" lon="10.989348127503908"><ele>19.0</ele><time>2026-04-24T09:29:11Z</time></trkpt><trkpt lat="44.893985906410265" lon="10.989276639596504"><ele>19.0</ele><time>2026-04-24T09:29:12Z</time></trkpt><trkpt lat="44.89386500721167" lon="10.989224565939228"><ele>19.0</ele><time>2026-04-24T09:29:13Z</time></trkpt><trkpt lat="44.89377741194311" lon="10.989183632151304"><ele>19.0</ele><time>2026-04-24T09:29:14Z</time></trkpt><trkpt lat="44.89371266826462" lon="10.989154538463541"><ele>19.0</ele><time>2026-04-24T09:29:15Z</time></trkpt><trkpt lat="44.89360635526274" lon="10.98910796331605"><ele>19.2</ele><time>2026-04-24T09:29:40Z</time></trkpt><trkpt lat="44.89353113578995" lon="10.9890571632877"><ele>19.4</ele><time>2026-04-24T09:29:41Z</time></trkpt><trkpt lat="44.89345470107676" lon="10.98901577344307"><ele>19.6</ele><time>2026-04-24T09:29:42Z</time></trkpt><trkpt lat="44.89337590945784" lon="10.988979937557021"><ele>19.8</ele><time>2026-04-24T09:29:43Z</time></trkpt><trkpt lat="44.89327089124421" lon="10.988945826873397"><ele>20.0</ele><time>2026-04-24T09:29:44Z</time></trkpt><trkpt lat="44.893152680238465" lon="10.988895591195625"><ele>20.0</ele><time>2026-04-24T09:29:45Z</time></trkpt><trkpt lat="44.89302145777094" lon="10.988825374556507"><ele>20.0</ele><time>2026-04-24T09:29:46Z</time></trkpt><trkpt lat="44.892883475902806" lon="10.988752932708618"><ele>20.0</ele><time>2026-04-24T09:29:47Z</time></trkpt><trkpt lat="44.89274023897705" lon="10.988682459088887"><ele>20.0</ele><time>2026-04-24T09:29:48Z</time></trkpt><trkpt lat="44.89258456041984" lon="10.988602985852978"><ele>20.333333333333336</ele><time>2026-04-24T09:29:49Z</time></trkpt><trkpt lat="44.89242125168587" lon="10.988522876414846"><ele>20.666666666666668</ele><time>2026-04-24T09:29:50Z</time></trkpt><trkpt lat="44.89225963635744" lon="10.98844533255394"><ele>21.0</ele><time>2026-04-24T09:29:51Z</time></trkpt><trkpt lat="44.89208548089901" lon="10.988366413534582"><ele>20.666666666666668</ele><time>2026-04-24T09:29:52Z</time></trkpt><trkpt lat="44.891907407733505" lon="10.988281465002718"><ele>20.333333333333336</ele><time>2026-04-24T09:29:53Z</time></trkpt><trkpt lat="44.89173235369042" lon="10.988197178094994"><ele>20.0</ele><time>2026-04-24T09:29:54Z</time></trkpt><trkpt lat="44.89155080883238" lon="10.988105823889635"><ele>19.333333333333336</ele><time>2026-04-24T09:29:55Z</time></trkpt><trkpt lat="44.89136436745097" lon="10.98801458654467"><ele>18.666666666666668</ele><time>2026-04-24T09:29:56Z</time></trkpt><trkpt lat="44.89117198182505" lon="10.987918744495463"><ele>18.0</ele><time>2026-04-24T09:29:57Z</time></trkpt><trkpt lat="44.89098086993751" lon="10.987827489886794"><ele>18.333333333333332</ele><time>2026-04-24T09:29:58Z</time></trkpt><trkpt lat="44.89079421704024" lon="10.987733365673865"><ele>18.666666666666664</ele><time>2026-04-24T09:29:59Z</time></trkpt><trkpt lat="44.89060886672702" lon="10.987642220911571"><ele>19.0</ele><time>2026-04-24T09:30:00Z</time></trkpt><trkpt lat="44.89042187464319" lon="10.987553007643502"><ele>19.333333333333332</ele><time>2026-04-24T09:30:01Z</time></trkpt><trkpt lat="44.89023779139254" lon="10.98746626073965"><ele>19.666666666666668</ele><time>2026-04-24T09:30:02Z</time></trkpt><trkpt lat="44.89005103219814" lon="10.987378772418507"><ele>20.0</ele><time>2026-04-24T09:30:03Z</time></trkpt><trkpt lat="44.88985895063153" lon="10.98728724411468"><ele>20.0</ele><time>2026-04-24T09:30:04Z</time></trkpt><trkpt lat="44.88966155233333" lon="10.987202314900328"><ele>20.0</ele><time>2026-04-24T09:30:05Z</time></trkpt><trkpt lat="44.88945926233245" lon="10.987129731918763"><ele>20.0</ele><time>2026-04-24T09:30:06Z</time></trkpt><trkpt lat="44.88925470074777" lon="10.98706874274015"><ele>19.333333333333336</ele><time>2026-04-24T09:30:07Z</time></trkpt><trkpt lat="44.88904867878179" lon="10.9870121448255"><ele>18.666666666666668</ele><time>2026-04-24T09:30:08Z</time></trkpt><trkpt lat="44.88884567076686" lon="10.98695673585535"><ele>18.0</ele><time>2026-04-24T09:30:09Z</time></trkpt><trkpt lat="44.8886433631425" lon="10.986903339897443"><ele>18.0</ele><time>2026-04-24T09:30:10Z</time></trkpt><trkpt lat="44.888440736190695" lon="10.98684941740844"><ele>18.0</ele><time>2026-04-24T09:30:11Z</time></trkpt><trkpt lat="44.88823905941342" lon="10.986802245810104"><ele>18.0</ele><time>2026-04-24T09:30:12Z</time></trkpt><trkpt lat="44.88803650709518" lon="10.986751930334647"><ele>18.0</ele><time>2026-04-24T09:30:13Z</time></trkpt><trkpt lat="44.8878303749796" lon="10.986705167700553"><ele>18.0</ele><time>2026-04-24T09:30:14Z</time></trkpt><trkpt lat="44.88762753153583" lon="10.986657717122517"><ele>18.0</ele><time>2026-04-24T09:30:15Z</time></trkpt><trkpt lat="44.88742468905652" lon="10.986609789777473"><ele>17.0</ele><time>2026-04-24T09:30:16Z</time></trkpt><trkpt lat="44.887219161917045" lon="10.986556534213296"><ele>16.0</ele><time>2026-04-24T09:30:17Z</time></trkpt><trkpt lat="44.887013930601114" lon="10.986505384210092"><ele>15.0</ele><time>2026-04-24T09:30:18Z</time></trkpt><trkpt lat="44.88680786709429" lon="10.98644991742072"><ele>16.0</ele><time>2026-04-24T09:30:19Z</time></trkpt><trkpt lat="44.886606910700756" lon="10.986396944334844"><ele>17.0</ele><time>2026-04-24T09:30:20Z</time></trkpt><trkpt lat="44.88640419908479" lon="10.986350114208435"><ele>18.0</ele><time>2026-04-24T09:30:21Z</time></trkpt><trkpt lat="44.88620006209062" lon="10.986300454944406"><ele>18.0</ele><time>2026-04-24T09:30:22Z</time></trkpt><trkpt lat="44.885995726442616" lon="10.986251307147004"><ele>18.0</ele><time>2026-04-24T09:30:23Z</time></trkpt><trkpt lat="44.88579326595468" lon="10.986211809086578"><ele>18.0</ele><time>2026-04-24T09:30:24Z</time></trkpt><trkpt lat="44.88558877099358" lon="10.98619217889173"><ele>18.0</ele><time>2026-04-24T09:30:25Z</time></trkpt><trkpt lat="44.88539642926351" lon="10.986201971546427"><ele>18.0</ele><time>2026-04-24T09:30:26Z</time></trkpt><trkpt lat="44.8852166581595" lon="10.986236751646762"><ele>18.0</ele><time>2026-04-24T09:30:27Z</time></trkpt><trkpt lat="44.88505065842512" lon="10.986287719329482"><ele>18.0</ele><time>2026-04-24T09:30:28Z</time></trkpt><trkpt lat="44.884896950824654" lon="10.986352144696905"><ele>18.0</ele><time>2026-04-24T09:30:29Z</time></trkpt><trkpt lat="44.88475421165715" lon="10.986425065789142"><ele>18.0</ele><time>2026-04-24T09:30:30Z</time></trkpt><trkpt lat="44.88462383445395" lon="10.986508421661513"><ele>18.0</ele><time>2026-04-24T09:30:31Z</time></trkpt><trkpt lat="44.8845001836759" lon="10.986608418663009"><ele>18.0</ele><time>2026-04-24T09:30:32Z</time></trkpt><trkpt lat="44.88437135464687" lon="10.986722603554258"><ele>18.0</ele><time>2026-04-24T09:30:33Z</time></trkpt><trkpt lat="44.88424043525172" lon="10.986856766164433"><ele>18.666666666666668</ele><time>2026-04-24T09:30:34Z</time></trkpt><trkpt lat="44.884111318575684" lon="10.987000986186493"><ele>19.333333333333336</ele><time>2026-04-24T09:30:35Z</time></trkpt><trkpt lat="44.883986158987604" lon="10.987155066440089"><ele>20.0</ele><time>2026-04-24T09:30:36Z</time></trkpt><trkpt lat="44.88386557457717" lon="10.987312550116096"><ele>20.0</ele><time>2026-04-24T09:30:37Z</time></trkpt><trkpt lat="44.883744543829664" lon="10.987461084773916"><ele>20.0</ele><time>2026-04-24T09:30:38Z</time></trkpt><trkpt lat="44.88362596373665" lon="10.987609516395732"><ele>20.0</ele><time>2026-04-24T09:30:39Z</time></trkpt><trkpt lat="44.88351252956777" lon="10.987757470090171"><ele>20.333333333333336</ele><time>2026-04-24T09:30:40Z</time></trkpt><trkpt lat="44.883398455347916" lon="10.987902378676921"><ele>20.666666666666668</ele><time>2026-04-24T09:30:41Z</time></trkpt><trkpt lat="44.883280666437685" lon="10.988050851649918"><ele>21.0</ele><time>2026-04-24T09:30:42Z</time></trkpt><trkpt lat="44.88315794197839" lon="10.988202328918543"><ele>21.0</ele><time>2026-04-24T09:30:43Z</time></trkpt><trkpt lat="44.88302712614443" lon="10.988357548838133"><ele>21.0</ele><time>2026-04-24T09:30:44Z</time></trkpt><trkpt lat="44.88289010313873" lon="10.988522392254058"><ele>21.0</ele><time>2026-04-24T09:30:45Z</time></trkpt><trkpt lat="44.88275024101965" lon="10.988692793936929"><ele>21.0</ele><time>2026-04-24T09:30:46Z</time></trkpt><trkpt lat="44.882605398159484" lon="10.988856971184937"><ele>21.0</ele><time>2026-04-24T09:30:47Z</time></trkpt><trkpt lat="44.88245398083457" lon="10.98900722775437"><ele>21.0</ele><time>2026-04-24T09:30:48Z</time></trkpt><trkpt lat="44.88229174704195" lon="10.989141728861837"><ele>21.0</ele><time>2026-04-24T09:30:49Z</time></trkpt><trkpt lat="44.88211992125997" lon="10.98925662916284"><ele>21.0</ele><time>2026-04-24T09:30:50Z</time></trkpt><trkpt lat="44.881937077179614" lon="10.989324614356864"><ele>21.0</ele><time>2026-04-24T09:30:51Z</time></trkpt><trkpt lat="44.88175501158471" lon="10.98939270210037"><ele>20.666666666666668</ele><time>2026-04-24T09:30:52Z</time></trkpt><trkpt lat="44.88157140345129" lon="10.98945666942618"><ele>20.333333333333336</ele><time>2026-04-24T09:30:53Z</time></trkpt><trkpt lat="44.881390395664944" lon="10.989545373802109"><ele>20.0</ele><time>2026-04-24T09:30:54Z</time></trkpt><trkpt lat="44.881201877097006" lon="10.989604049383452"><ele>20.0</ele><time>2026-04-24T09:30:55Z</time></trkpt><trkpt lat="44.881013608743956" lon="10.989669508377261"><ele>20.0</ele><time>2026-04-24T09:30:56Z</time></trkpt><trkpt lat="44.88082150285292" lon="10.989729753904127"><ele>20.0</ele><time>2026-04-24T09:30:57Z</time></trkpt><trkpt lat="44.8806347587924" lon="10.989793232660437"><ele>20.0</ele><time>2026-04-24T09:30:58Z</time></trkpt><trkpt lat="44.88044586625989" lon="10.98986272509913"><ele>20.0</ele><time>2026-04-24T09:30:59Z</time></trkpt><trkpt lat="44.88026021442642" lon="10.989944494876227"><ele>20.0</ele><time>2026-04-24T09:31:00Z</time></trkpt><trkpt lat="44.880074939293834" lon="10.990029662923707"><ele>19.333333333333336</ele><time>2026-04-24T09:31:01Z</time></trkpt><trkpt lat="44.87989646174389" lon="10.990129128842758"><ele>18.666666666666668</ele><time>2026-04-24T09:31:02Z</time></trkpt><trkpt lat="44.8797183444966" lon="10.99024363573437"><ele>18.0</ele><time>2026-04-24T09:31:03Z</time></trkpt><trkpt lat="44.879545543964056" lon="10.990375177059766"><ele>18.0</ele><time>2026-04-24T09:31:04Z</time></trkpt><trkpt lat="44.87936845127559" lon="10.990502587061576"><ele>18.0</ele><time>2026-04-24T09:31:05Z</time></trkpt><trkpt lat="44.87919378844568" lon="10.990639650002992"><ele>18.0</ele><time>2026-04-24T09:31:06Z</time></trkpt><trkpt lat="44.879023378930974" lon="10.990780995888922"><ele>18.666666666666668</ele><time>2026-04-24T09:31:07Z</time></trkpt><trkpt lat="44.87885257183231" lon="10.99091803522692"><ele>19.333333333333336</ele><time>2026-04-24T09:31:08Z</time></trkpt><trkpt lat="44.87868401012149" lon="10.991056494585846"><ele>20.0</ele><time>2026-04-24T09:31:09Z</time></trkpt><trkpt lat="44.87851588295103" lon="10.991194747804094"><ele>20.333333333333336</ele><time>2026-04-24T09:31:10Z</time></trkpt><trkpt lat="44.8783464200812" lon="10.991331965455188"><ele>20.666666666666668</ele><time>2026-04-24T09:31:11Z</time></trkpt><trkpt lat="44.878175703004445" lon="10.991468344370718"><ele>21.0</ele><time>2026-04-24T09:31:12Z</time></trkpt><trkpt lat="44.87800435921397" lon="10.991603238203792"><ele>20.333333333333332</ele><time>2026-04-24T09:31:13Z</time></trkpt><trkpt lat="44.8778326641306" lon="10.99173598967376"><ele>19.666666666666664</ele><time>2026-04-24T09:31:14Z</time></trkpt><trkpt lat="44.87766030722147" lon="10.991870612288771"><ele>19.0</ele><time>2026-04-24T09:31:15Z</time></trkpt><trkpt lat="44.877491043683925" lon="10.992008880981505"><ele>18.0</ele><time>2026-04-24T09:31:16Z</time></trkpt><trkpt lat="44.877320016454526" lon="10.99214362088895"><ele>17.0</ele><time>2026-04-24T09:31:17Z</time></trkpt><trkpt lat="44.87715180734143" lon="10.992278922453021"><ele>16.0</ele><time>2026-04-24T09:31:18Z</time></trkpt><trkpt lat="44.87698167230889" lon="10.992418319848131"><ele>16.0</ele><time>2026-04-24T09:31:19Z</time></trkpt><trkpt lat="44.87681125415365" lon="10.992555430960444"><ele>16.0</ele><time>2026-04-24T09:31:20Z</time></trkpt><trkpt lat="44.876641430950464" lon="10.992691038646337"><ele>16.0</ele><time>2026-04-24T09:31:21Z</time></trkpt><trkpt lat="44.87646948458354" lon="10.992829709286653"><ele>16.0</ele><time>2026-04-24T09:31:22Z</time></trkpt><trkpt lat="44.87629697476276" lon="10.992964719094646"><ele>16.0</ele><time>2026-04-24T09:31:23Z</time></trkpt><trkpt lat="44.8761225726581" lon="10.993096150287002"><ele>16.0</ele><time>2026-04-24T09:31:24Z</time></trkpt><trkpt lat="44.87595088640311" lon="10.993232081182171"><ele>16.333333333333332</ele><time>2026-04-24T09:31:25Z</time></trkpt><trkpt lat="44.875778202308794" lon="10.993365594666303"><ele>16.666666666666668</ele><time>2026-04-24T09:31:26Z</time></trkpt><trkpt lat="44.875607557314964" lon="10.993504328887377"><ele>17.0</ele><time>2026-04-24T09:31:27Z</time></trkpt><trkpt lat="44.875437978141875" lon="10.993645219610427"><ele>17.0</ele><time>2026-04-24T09:31:28Z</time></trkpt><trkpt lat="44.87526581196603" lon="10.993778558709463"><ele>17.0</ele><time>2026-04-24T09:31:29Z</time></trkpt><trkpt lat="44.87509311377052" lon="10.993911634168025"><ele>17.0</ele><time>2026-04-24T09:31:30Z</time></trkpt><trkpt lat="44.87491849418281" lon="10.99404491224582"><ele>17.0</ele><time>2026-04-24T09:31:31Z</time></trkpt><trkpt lat="44.87474657416543" lon="10.994186307737062"><ele>17.0</ele><time>2026-04-24T09:31:32Z</time></trkpt><trkpt lat="44.87458110651817" lon="10.994327674823214"><ele>17.0</ele><time>2026-04-24T09:31:33Z</time></trkpt><trkpt lat="44.87443069406557" lon="10.994465661367418"><ele>17.0</ele><time>2026-04-24T09:31:34Z</time></trkpt><trkpt lat="44.874289194753466" lon="10.994616404163587"><ele>17.0</ele><time>2026-04-24T09:31:35Z</time></trkpt><trkpt lat="44.874155249856656" lon="10.994786986853994"><ele>17.0</ele><time>2026-04-24T09:31:36Z</time></trkpt><trkpt lat="44.874026721542556" lon="10.994971127503293"><ele>16.666666666666668</ele><time>2026-04-24T09:31:37Z</time></trkpt><trkpt lat="44.87389233697743" lon="10.995151512436754"><ele>16.333333333333332</ele><time>2026-04-24T09:31:38Z</time></trkpt><trkpt lat="44.87376067061285" lon="10.995332551354567"><ele>16.0</ele><time>2026-04-24T09:31:39Z</time></trkpt><trkpt lat="44.873629232747916" lon="10.9955124567926"><ele>16.0</ele><time>2026-04-24T09:31:40Z</time></trkpt><trkpt lat="44.873497983344784" lon="10.995690094473353"><ele>16.0</ele><time>2026-04-24T09:31:41Z</time></trkpt><trkpt lat="44.87336251317427" lon="10.995860877723526"><ele>16.0</ele><time>2026-04-24T09:31:42Z</time></trkpt><trkpt lat="44.873222861121164" lon="10.996019523704982"><ele>16.333333333333332</ele><time>2026-04-24T09:31:43Z</time></trkpt><trkpt lat="44.87307245260798" lon="10.996125259819989"><ele>16.666666666666668</ele><time>2026-04-24T09:31:44Z</time></trkpt><trkpt lat="44.87293076978912" lon="10.99622523723878"><ele>17.0</ele><time>2026-04-24T09:31:45Z</time></trkpt><trkpt lat="44.87279429668083" lon="10.996297153510316"><ele>17.0</ele><time>2026-04-24T09:31:46Z</time></trkpt><trkpt lat="44.87265520738111" lon="10.996370825134653"><ele>17.0</ele><time>2026-04-24T09:31:47Z</time></trkpt><trkpt lat="44.87252103447426" lon="10.996464482449754"><ele>17.0</ele><time>2026-04-24T09:31:48Z</time></trkpt><trkpt lat="44.872378204298506" lon="10.99653492699844"><ele>17.0</ele><time>2026-04-24T09:31:49Z</time></trkpt><trkpt lat="44.872232191632314" lon="10.99660509806069"><ele>17.0</ele><time>2026-04-24T09:31:50Z</time></trkpt><trkpt lat="44.87208417805511" lon="10.99667687791598"><ele>17.0</ele><time>2026-04-24T09:31:51Z</time></trkpt><trkpt lat="44.871937546911575" lon="10.996747691336184"><ele>17.0</ele><time>2026-04-24T09:31:52Z</time></trkpt><trkpt lat="44.87179109237933" lon="10.996815061084003"><ele>17.0</ele><time>2026-04-24T09:31:53Z</time></trkpt><trkpt lat="44.87163143505414" lon="10.996882253811977"><ele>17.0</ele><time>2026-04-24T09:31:54Z</time></trkpt><trkpt lat="44.871463499082" lon="10.99694387096458"><ele>17.333333333333336</ele><time>2026-04-24T09:31:55Z</time></trkpt><trkpt lat="44.871288029833345" lon="10.997003627548022"><ele>17.666666666666668</ele><time>2026-04-24T09:31:56Z</time></trkpt><trkpt lat="44.871116770993915" lon="10.99706589516973"><ele>18.0</ele><time>2026-04-24T09:31:57Z</time></trkpt><trkpt lat="44.87094669560796" lon="10.99712360390962"><ele>18.0</ele><time>2026-04-24T09:31:58Z</time></trkpt><trkpt lat="44.87077303320954" lon="10.997180047925127"><ele>18.0</ele><time>2026-04-24T09:31:59Z</time></trkpt><trkpt lat="44.87059464570675" lon="10.997235069759505"><ele>18.0</ele><time>2026-04-24T09:32:00Z</time></trkpt><trkpt lat="44.8704151849056" lon="10.997287708212706"><ele>18.0</ele><time>2026-04-24T09:32:01Z</time></trkpt><trkpt lat="44.870230969936074" lon="10.997351324264205"><ele>18.0</ele><time>2026-04-24T09:32:02Z</time></trkpt><trkpt lat="44.87004332164417" lon="10.997424725511298"><ele>18.0</ele><time>2026-04-24T09:32:03Z</time></trkpt><trkpt lat="44.86985552282431" lon="10.99751056737158"><ele>18.333333333333332</ele><time>2026-04-24T09:32:04Z</time></trkpt><trkpt lat="44.869679369126004" lon="10.997606372718154"><ele>18.666666666666664</ele><time>2026-04-24T09:32:05Z</time></trkpt><trkpt lat="44.869508540443675" lon="10.997719585350115"><ele>19.0</ele><time>2026-04-24T09:32:06Z</time></trkpt><trkpt lat="44.86934318647208" lon="10.997845914709657"><ele>19.0</ele><time>2026-04-24T09:32:07Z</time></trkpt><trkpt lat="44.869175389699315" lon="10.997966358986087"><ele>19.0</ele><time>2026-04-24T09:32:08Z</time></trkpt><trkpt lat="44.868997894669214" lon="10.998032326130955"><ele>19.0</ele><time>2026-04-24T09:32:09Z</time></trkpt><trkpt lat="44.86881276950716" lon="10.998083033861315"><ele>19.0</ele><time>2026-04-24T09:32:10Z</time></trkpt><trkpt lat="44.868618475986274" lon="10.99813048415805"><ele>19.0</ele><time>2026-04-24T09:32:11Z</time></trkpt><trkpt lat="44.86842596782442" lon="10.998195695850566"><ele>19.0</ele><time>2026-04-24T09:32:12Z</time></trkpt><trkpt lat="44.86824131333753" lon="10.998236225675534"><ele>18.333333333333332</ele><time>2026-04-24T09:32:13Z</time></trkpt><trkpt lat="44.86806288902559" lon="10.998276726853712"><ele>17.666666666666668</ele><time>2026-04-24T09:32:14Z</time></trkpt><trkpt lat="44.86788915076742" lon="10.998317295376015"><ele>17.0</ele><time>2026-04-24T09:32:15Z</time></trkpt><trkpt lat="44.86772128230961" lon="10.998371681547479"><ele>17.0</ele><time>2026-04-24T09:32:16Z</time></trkpt><trkpt lat="44.86755008396554" lon="10.998449145420366"><ele>17.0</ele><time>2026-04-24T09:32:17Z</time></trkpt><trkpt lat="44.867378465299836" lon="10.998544256254878"><ele>17.0</ele><time>2026-04-24T09:32:18Z</time></trkpt><trkpt lat="44.86721563458254" lon="10.998664228412935"><ele>17.0</ele><time>2026-04-24T09:32:19Z</time></trkpt><trkpt lat="44.86707257998698" lon="10.998789982382759"><ele>17.0</ele><time>2026-04-24T09:32:20Z</time></trkpt><trkpt lat="44.86694315378755" lon="10.998910003062292"><ele>17.0</ele><time>2026-04-24T09:32:21Z</time></trkpt><trkpt lat="44.866818512770436" lon="10.99902613503186"><ele>17.0</ele><time>2026-04-24T09:32:22Z</time></trkpt><trkpt lat="44.866685817621274" lon="10.99914277938553"><ele>17.0</ele><time>2026-04-24T09:32:23Z</time></trkpt><trkpt lat="44.86654491436449" lon="10.999252200165438"><ele>17.0</ele><time>2026-04-24T09:32:24Z</time></trkpt><trkpt lat="44.86638588668758" lon="10.999327690109343"><ele>17.333333333333336</ele><time>2026-04-24T09:32:25Z</time></trkpt><trkpt lat="44.866225537937005" lon="10.999391401402447"><ele>17.666666666666668</ele><time>2026-04-24T09:32:26Z</time></trkpt><trkpt lat="44.86605647836487" lon="10.999428573145622"><ele>18.0</ele><time>2026-04-24T09:32:27Z</time></trkpt><trkpt lat="44.86587883264314" lon="10.999461550073502"><ele>18.0</ele><time>2026-04-24T09:32:28Z</time></trkpt><trkpt lat="44.86571363621393" lon="10.999492417829229"><ele>18.0</ele><time>2026-04-24T09:32:29Z</time></trkpt><trkpt lat="44.86555890139932" lon="10.999544651901429"><ele>18.0</ele><time>2026-04-24T09:32:30Z</time></trkpt><trkpt lat="44.86540774893316" lon="10.99956983073748"><ele>18.0</ele><time>2026-04-24T09:32:31Z</time></trkpt><trkpt lat="44.865255351385905" lon="10.999599320449823"><ele>18.0</ele><time>2026-04-24T09:32:32Z</time></trkpt><trkpt lat="44.86509421972543" lon="10.999652914905077"><ele>18.0</ele><time>2026-04-24T09:32:33Z</time></trkpt><trkpt lat="44.864931543495196" lon="10.999736008745586"><ele>18.0</ele><time>2026-04-24T09:32:34Z</time></trkpt><trkpt lat="44.864769012924306" lon="10.999836150457527"><ele>18.0</ele><time>2026-04-24T09:32:35Z</time></trkpt><trkpt lat="44.86461157302198" lon="10.999944848194035"><ele>18.0</ele><time>2026-04-24T09:32:36Z</time></trkpt><trkpt lat="44.86446872384133" lon="11.000053282220687"><ele>18.0</ele><time>2026-04-24T09:32:37Z</time></trkpt><trkpt lat="44.86433229113841" lon="11.00016411447537"><ele>18.0</ele><time>2026-04-24T09:32:38Z</time></trkpt><trkpt lat="44.86419197240653" lon="11.000276542432537"><ele>18.0</ele><time>2026-04-24T09:32:39Z</time></trkpt><trkpt lat="44.86405205134567" lon="11.000387191477095"><ele>18.0</ele><time>2026-04-24T09:32:40Z</time></trkpt><trkpt lat="44.86390838217093" lon="11.00049118400452"><ele>18.0</ele><time>2026-04-24T09:32:41Z</time></trkpt><trkpt lat="44.86375768457301" lon="11.000594036486651"><ele>18.0</ele><time>2026-04-24T09:32:42Z</time></trkpt><trkpt lat="44.86360415591066" lon="11.000702464673674"><ele>18.0</ele><time>2026-04-24T09:32:43Z</time></trkpt><trkpt lat="44.86344918777518" lon="11.00080475629399"><ele>18.0</ele><time>2026-04-24T09:32:44Z</time></trkpt><trkpt lat="44.86330010877042" lon="11.00090186542032"><ele>18.0</ele><time>2026-04-24T09:32:45Z</time></trkpt><trkpt lat="44.86316040346548" lon="11.000996377187388"><ele>18.25</ele><time>2026-04-24T09:32:46Z</time></trkpt><trkpt lat="44.8630294136309" lon="11.00108516786523"><ele>18.5</ele><time>2026-04-24T09:32:47Z</time></trkpt><trkpt lat="44.86290638314296" lon="11.00116828748806"><ele>18.75</ele><time>2026-04-24T09:32:48Z</time></trkpt><trkpt lat="44.86278947984894" lon="11.00124379037058"><ele>19.0</ele><time>2026-04-24T09:32:49Z</time></trkpt><trkpt lat="44.86267648103057" lon="11.00131338045826"><ele>18.75</ele><time>2026-04-24T09:32:50Z</time></trkpt><trkpt lat="44.86256374141003" lon="11.001376687786916"><ele>18.5</ele><time>2026-04-24T09:32:51Z</time></trkpt><trkpt lat="44.86244428838966" lon="11.001425130868107"><ele>18.25</ele><time>2026-04-24T09:32:52Z</time></trkpt><trkpt lat="44.86231875296091" lon="11.001420402087664"><ele>18.0</ele><time>2026-04-24T09:32:53Z</time></trkpt><trkpt lat="44.862194901067355" lon="11.001416845939225"><ele>18.0</ele><time>2026-04-24T09:32:54Z</time></trkpt><trkpt lat="44.86207369842491" lon="11.001390191287863"><ele>18.0</ele><time>2026-04-24T09:32:55Z</time></trkpt><trkpt lat="44.86195825289681" lon="11.001346163829114"><ele>18.0</ele><time>2026-04-24T09:32:56Z</time></trkpt><trkpt lat="44.86185073983968" lon="11.001278458339183"><ele>18.0</ele><time>2026-04-24T09:32:57Z</time></trkpt><trkpt lat="44.86175154503529" lon="11.001199971738455"><ele>18.0</ele><time>2026-04-24T09:32:58Z</time></trkpt><trkpt lat="44.8616590850285" lon="11.001118856962025"><ele>18.0</ele><time>2026-04-24T09:32:59Z</time></trkpt><trkpt lat="44.86157818148868" lon="11.001061162333917"><ele>18.0</ele><time>2026-04-24T09:33:00Z</time></trkpt><trkpt lat="44.86150022799541" lon="11.00099192457553"><ele>18.0</ele><time>2026-04-24T09:33:01Z</time></trkpt><trkpt lat="44.86142806377044" lon="11.000940683134191"><ele>18.0</ele><time>2026-04-24T09:33:02Z</time></trkpt><trkpt lat="44.861352385418975" lon="11.000929120572312"><ele>18.0</ele><time>2026-04-24T09:33:03Z</time></trkpt><trkpt lat="44.86128071790412" lon="11.000963672246634"><ele>18.0</ele><time>2026-04-24T09:33:04Z</time></trkpt><trkpt lat="44.86121052690616" lon="11.00104372964923"><ele>18.0</ele><time>2026-04-24T09:33:05Z</time></trkpt><trkpt lat="44.86113000704582" lon="11.00116525088859"><ele>18.0</ele><time>2026-04-24T09:33:06Z</time></trkpt><trkpt lat="44.861045685832714" lon="11.001309663276595"><ele>18.0</ele><time>2026-04-24T09:33:07Z</time></trkpt><trkpt lat="44.86094702849725" lon="11.001473098499952"><ele>18.333333333333332</ele><time>2026-04-24T09:33:08Z</time></trkpt><trkpt lat="44.86083482743679" lon="11.001651735788426"><ele>18.666666666666664</ele><time>2026-04-24T09:33:09Z</time></trkpt><trkpt lat="44.860716892392915" lon="11.00183644998022"><ele>19.0</ele><time>2026-04-24T09:33:10Z</time></trkpt><trkpt lat="44.86059255537906" lon="11.002034893499227"><ele>19.0</ele><time>2026-04-24T09:33:11Z</time></trkpt><trkpt lat="44.86044665629034" lon="11.00223345597819"><ele>19.0</ele><time>2026-04-24T09:33:12Z</time></trkpt><trkpt lat="44.86030141886645" lon="11.002452439944982"><ele>19.0</ele><time>2026-04-24T09:33:13Z</time></trkpt><trkpt lat="44.860153369051254" lon="11.00267768497835"><ele>18.0</ele><time>2026-04-24T09:33:14Z</time></trkpt><trkpt lat="44.859999594044254" lon="11.002908323750255"><ele>17.0</ele><time>2026-04-24T09:33:15Z</time></trkpt><trkpt lat="44.85984466527298" lon="11.003139824278884"><ele>17.666666666666668</ele><time>2026-04-24T09:33:16Z</time></trkpt><trkpt lat="44.859693647784184" lon="11.003368088667653"><ele>18.333333333333332</ele><time>2026-04-24T09:33:17Z</time></trkpt><trkpt lat="44.859555677429306" lon="11.003609150749114"><ele>19.0</ele><time>2026-04-24T09:33:18Z</time></trkpt><trkpt lat="44.859405054444494" lon="11.003828478335612"><ele>18.666666666666664</ele><time>2026-04-24T09:33:19Z</time></trkpt><trkpt lat="44.859254502049936" lon="11.004046026044733"><ele>18.333333333333332</ele><time>2026-04-24T09:33:20Z</time></trkpt><trkpt lat="44.85910384482641" lon="11.00425905048136"><ele>18.0</ele><time>2026-04-24T09:33:21Z</time></trkpt><trkpt lat="44.85894627519153" lon="11.004457044639187"><ele>17.666666666666668</ele><time>2026-04-24T09:33:22Z</time></trkpt><trkpt lat="44.85876742207126" lon="11.004599461597234"><ele>17.333333333333336</ele><time>2026-04-24T09:33:23Z</time></trkpt><trkpt lat="44.85858029620891" lon="11.004749680542561"><ele>17.0</ele><time>2026-04-24T09:33:24Z</time></trkpt><trkpt lat="44.85838096747404" lon="11.004905062318695"><ele>17.5</ele><time>2026-04-24T09:33:25Z</time></trkpt><trkpt lat="44.858176660171424" lon="11.005064325140388"><ele>18.0</ele><time>2026-04-24T09:33:26Z</time></trkpt><trkpt lat="44.85795737470267" lon="11.005235263548705"><ele>18.0</ele><time>2026-04-24T09:33:27Z</time></trkpt><trkpt lat="44.8577263936258" lon="11.005418621967411"><ele>18.0</ele><time>2026-04-24T09:33:28Z</time></trkpt><trkpt lat="44.85751051895404" lon="11.00559208536695"><ele>18.5</ele><time>2026-04-24T09:33:29Z</time></trkpt><trkpt lat="44.85730908426436" lon="11.005757514156768"><ele>19.0</ele><time>2026-04-24T09:33:30Z</time></trkpt><trkpt lat="44.85712242898184" lon="11.005912596722371"><ele>19.0</ele><time>2026-04-24T09:33:31Z</time></trkpt><trkpt lat="44.856955395167056" lon="11.006075096891266"><ele>19.0</ele><time>2026-04-24T09:33:32Z</time></trkpt><trkpt lat="44.85677622173991" lon="11.006198952414993"><ele>19.0</ele><time>2026-04-24T09:33:33Z</time></trkpt><trkpt lat="44.85659598290127" lon="11.006314255740314"><ele>19.0</ele><time>2026-04-24T09:33:34Z</time></trkpt><trkpt lat="44.85640406252376" lon="11.006382158458855"><ele>19.0</ele><time>2026-04-24T09:33:35Z</time></trkpt><trkpt lat="44.85622251995757" lon="11.006488072067492"><ele>19.0</ele><time>2026-04-24T09:33:36Z</time></trkpt><trkpt lat="44.85603739892473" lon="11.006567089864374"><ele>18.666666666666664</ele><time>2026-04-24T09:33:37Z</time></trkpt><trkpt lat="44.85585580604105" lon="11.006647565423735"><ele>18.333333333333332</ele><time>2026-04-24T09:33:38Z</time></trkpt><trkpt lat="44.85567366559721" lon="11.006724822828795"><ele>18.0</ele><time>2026-04-24T09:33:39Z</time></trkpt><trkpt lat="44.855494106483846" lon="11.006800153909019"><ele>18.0</ele><time>2026-04-24T09:33:40Z</time></trkpt><trkpt lat="44.855318773766065" lon="11.006879710178676"><ele>18.0</ele><time>2026-04-24T09:33:41Z</time></trkpt><trkpt lat="44.8551431059678" lon="11.006976779677244"><ele>18.0</ele><time>2026-04-24T09:33:42Z</time></trkpt><trkpt lat="44.8549751096412" lon="11.007105675166137"><ele>18.0</ele><time>2026-04-24T09:33:43Z</time></trkpt><trkpt lat="44.85481572484195" lon="11.00726029389723"><ele>18.0</ele><time>2026-04-24T09:33:44Z</time></trkpt><trkpt lat="44.85466359507408" lon="11.007436601795241"><ele>18.0</ele><time>2026-04-24T09:33:45Z</time></trkpt><trkpt lat="44.85451677891571" lon="11.007631196681007"><ele>18.0</ele><time>2026-04-24T09:33:46Z</time></trkpt><trkpt lat="44.85437233884252" lon="11.007833375555034"><ele>18.0</ele><time>2026-04-24T09:33:47Z</time></trkpt><trkpt lat="44.85422299189787" lon="11.008031979146951"><ele>18.0</ele><time>2026-04-24T09:33:48Z</time></trkpt><trkpt lat="44.85407396362508" lon="11.008231266806657"><ele>18.0</ele><time>2026-04-24T09:33:49Z</time></trkpt><trkpt lat="44.85391032883586" lon="11.008404492673623"><ele>18.0</ele><time>2026-04-24T09:33:50Z</time></trkpt><trkpt lat="44.85375478063222" lon="11.008596623151234"><ele>18.0</ele><time>2026-04-24T09:33:51Z</time></trkpt><trkpt lat="44.85360168542711" lon="11.008785723751979"><ele>18.0</ele><time>2026-04-24T09:33:52Z</time></trkpt><trkpt lat="44.85344650319442" lon="11.008977402275532"><ele>18.0</ele><time>2026-04-24T09:33:53Z</time></trkpt><trkpt lat="44.85329193112508" lon="11.009169686269793"><ele>18.0</ele><time>2026-04-24T09:33:54Z</time></trkpt><trkpt lat="44.85314023365101" lon="11.009371034182946"><ele>18.333333333333332</ele><time>2026-04-24T09:33:55Z</time></trkpt><trkpt lat="44.85300677210274" lon="11.00959510405169"><ele>18.666666666666664</ele><time>2026-04-24T09:33:56Z</time></trkpt><trkpt lat="44.85286912887717" lon="11.009807943684983"><ele>19.0</ele><time>2026-04-24T09:33:57Z</time></trkpt><trkpt lat="44.852737980268884" lon="11.01003208162662"><ele>19.333333333333332</ele><time>2026-04-24T09:33:58Z</time></trkpt><trkpt lat="44.852608180635144" lon="11.010261159279526"><ele>19.666666666666668</ele><time>2026-04-24T09:33:59Z</time></trkpt><trkpt lat="44.85247791047252" lon="11.010486929595203"><ele>20.0</ele><time>2026-04-24T09:34:00Z</time></trkpt><trkpt lat="44.85234256506116" lon="11.010710787134624"><ele>20.333333333333336</ele><time>2026-04-24T09:34:01Z</time></trkpt><trkpt lat="44.85220789842883" lon="11.010937061326581"><ele>20.666666666666668</ele><time>2026-04-24T09:34:02Z</time></trkpt><trkpt lat="44.852073300856325" lon="11.011161395177137"><ele>21.0</ele><time>2026-04-24T09:34:03Z</time></trkpt><trkpt lat="44.851939272458516" lon="11.011383208190509"><ele>21.0</ele><time>2026-04-24T09:34:04Z</time></trkpt><trkpt lat="44.85180494513161" lon="11.011602008706172"><ele>21.0</ele><time>2026-04-24T09:34:05Z</time></trkpt><trkpt lat="44.851669934749914" lon="11.011815587181124"><ele>21.0</ele><time>2026-04-24T09:34:06Z</time></trkpt><trkpt lat="44.851538313829074" lon="11.012029527095583"><ele>20.333333333333332</ele><time>2026-04-24T09:34:07Z</time></trkpt><trkpt lat="44.851406032072354" lon="11.012247541031085"><ele>19.666666666666664</ele><time>2026-04-24T09:34:08Z</time></trkpt><trkpt lat="44.85127587039487" lon="11.012462528349866"><ele>19.0</ele><time>2026-04-24T09:34:09Z</time></trkpt><trkpt lat="44.85115224558116" lon="11.012678280042952"><ele>19.0</ele><time>2026-04-24T09:34:10Z</time></trkpt><trkpt lat="44.8510369946058" lon="11.01290189691389"><ele>19.0</ele><time>2026-04-24T09:34:11Z</time></trkpt><trkpt lat="44.85093630657134" lon="11.013142988781222"><ele>19.0</ele><time>2026-04-24T09:34:12Z</time></trkpt><trkpt lat="44.850854545894656" lon="11.013397078186745"><ele>19.0</ele><time>2026-04-24T09:34:13Z</time></trkpt><trkpt lat="44.85078803478404" lon="11.013670706684746"><ele>19.0</ele><time>2026-04-24T09:34:14Z</time></trkpt><trkpt lat="44.85072702034454" lon="11.013944415044284"><ele>19.0</ele><time>2026-04-24T09:34:15Z</time></trkpt><trkpt lat="44.85065890105557" lon="11.014219103640931"><ele>18.666666666666664</ele><time>2026-04-24T09:34:16Z</time></trkpt><trkpt lat="44.85058469141579" lon="11.014486388728676"><ele>18.333333333333332</ele><time>2026-04-24T09:34:17Z</time></trkpt><trkpt lat="44.850511432740284" lon="11.014750074059746"><ele>18.0</ele><time>2026-04-24T09:34:18Z</time></trkpt><trkpt lat="44.85043037691762" lon="11.015005677806164"><ele>18.0</ele><time>2026-04-24T09:34:19Z</time></trkpt><trkpt lat="44.85031916398197" lon="11.015235204913962"><ele>18.0</ele><time>2026-04-24T09:34:20Z</time></trkpt><trkpt lat="44.85020242524216" lon="11.015451062924475"><ele>18.0</ele><time>2026-04-24T09:34:21Z</time></trkpt><trkpt lat="44.85006701595687" lon="11.015657648621614"><ele>18.333333333333332</ele><time>2026-04-24T09:34:22Z</time></trkpt><trkpt lat="44.84991664752655" lon="11.015852252775517"><ele>18.666666666666664</ele><time>2026-04-24T09:34:23Z</time></trkpt><trkpt lat="44.84976495681733" lon="11.016047939033749"><ele>19.0</ele><time>2026-04-24T09:34:24Z</time></trkpt><trkpt lat="44.84961329560185" lon="11.016243587755227"><ele>19.0</ele><time>2026-04-24T09:34:25Z</time></trkpt><trkpt lat="44.84947008368067" lon="11.016453600278222"><ele>19.0</ele><time>2026-04-24T09:34:26Z</time></trkpt><trkpt lat="44.84931676395513" lon="11.016642039239127"><ele>19.0</ele><time>2026-04-24T09:34:27Z</time></trkpt><trkpt lat="44.84916550650668" lon="11.01683542273534"><ele>19.666666666666664</ele><time>2026-04-24T09:34:28Z</time></trkpt><trkpt lat="44.849013496618824" lon="11.017025684235321"><ele>20.333333333333332</ele><time>2026-04-24T09:34:29Z</time></trkpt><trkpt lat="44.84886597189814" lon="11.01721458499946"><ele>21.0</ele><time>2026-04-24T09:34:30Z</time></trkpt><trkpt lat="44.84872060207073" lon="11.017409303658644"><ele>20.666666666666668</ele><time>2026-04-24T09:34:31Z</time></trkpt><trkpt lat="44.84858137861743" lon="11.017604716371684"><ele>20.333333333333336</ele><time>2026-04-24T09:34:32Z</time></trkpt><trkpt lat="44.84843662613575" lon="11.017788877483383"><ele>20.0</ele><time>2026-04-24T09:34:33Z</time></trkpt><trkpt lat="44.84830793983351" lon="11.017957706905245"><ele>20.0</ele><time>2026-04-24T09:34:34Z</time></trkpt><trkpt lat="44.84818536181266" lon="11.018120571451538"><ele>20.0</ele><time>2026-04-24T09:34:35Z</time></trkpt><trkpt lat="44.84806389380582" lon="11.01827917166147"><ele>20.0</ele><time>2026-04-24T09:34:36Z</time></trkpt><trkpt lat="44.84795115853247" lon="11.018429773860676"><ele>20.0</ele><time>2026-04-24T09:34:37Z</time></trkpt><trkpt lat="44.84784547468531" lon="11.018568025424752"><ele>20.0</ele><time>2026-04-24T09:34:38Z</time></trkpt><trkpt lat="44.847751290644375" lon="11.01868553542472"><ele>20.0</ele><time>2026-04-24T09:34:39Z</time></trkpt><trkpt lat="44.847672774998884" lon="11.018782829484516"><ele>20.0</ele><time>2026-04-24T09:34:40Z</time></trkpt><trkpt lat="44.84761354686522" lon="11.018849628718069"><ele>20.0</ele><time>2026-04-24T09:34:41Z</time></trkpt><trkpt lat="44.84751355010856" lon="11.018900941386853"><ele>20.0</ele><time>2026-04-24T09:34:43Z</time></trkpt><trkpt lat="44.847432964840046" lon="11.018918838900328"><ele>20.0</ele><time>2026-04-24T09:34:48Z</time></trkpt><trkpt lat="44.84729954034491" lon="11.018990893914951"><ele>20.0</ele><time>2026-04-24T09:34:50Z</time></trkpt><trkpt lat="44.84722505746626" lon="11.019083367262349"><ele>20.0</ele><time>2026-04-24T09:34:51Z</time></trkpt><trkpt lat="44.847172956248144" lon="11.019217085418978"><ele>19.75</ele><time>2026-04-24T09:34:52Z</time></trkpt><trkpt lat="44.847131488265326" lon="11.01937007147295"><ele>19.5</ele><time>2026-04-24T09:34:53Z</time></trkpt><trkpt lat="44.84709639601261" lon="11.01952597234992"><ele>19.25</ele><time>2026-04-24T09:34:54Z</time></trkpt><trkpt lat="44.847048475298045" lon="11.019666134292361"><ele>19.0</ele><time>2026-04-24T09:34:55Z</time></trkpt><trkpt lat="44.84697494057869" lon="11.019809552835238"><ele>19.0</ele><time>2026-04-24T09:34:56Z</time></trkpt><trkpt lat="44.8468782722854" lon="11.019952366746857"><ele>19.0</ele><time>2026-04-24T09:34:57Z</time></trkpt><trkpt lat="44.84675978527929" lon="11.02009589668184"><ele>19.0</ele><time>2026-04-24T09:34:58Z</time></trkpt><trkpt lat="44.84662274336945" lon="11.02024232245589"><ele>19.0</ele><time>2026-04-24T09:34:59Z</time></trkpt><trkpt lat="44.846486268538186" lon="11.020383053101504"><ele>19.0</ele><time>2026-04-24T09:35:00Z</time></trkpt><trkpt lat="44.84634544170911" lon="11.020534436956572"><ele>19.0</ele><time>2026-04-24T09:35:01Z</time></trkpt><trkpt lat="44.84620051960582" lon="11.020702420018809"><ele>19.0</ele><time>2026-04-24T09:35:02Z</time></trkpt><trkpt lat="44.84605323038091" lon="11.020877081629601"><ele>19.0</ele><time>2026-04-24T09:35:03Z</time></trkpt><trkpt lat="44.845907057109585" lon="11.021051814490141"><ele>19.0</ele><time>2026-04-24T09:35:04Z</time></trkpt><trkpt lat="44.84576307346889" lon="11.021221190483185"><ele>19.0</ele><time>2026-04-24T09:35:05Z</time></trkpt><trkpt lat="44.84561497243603" lon="11.02138909975249"><ele>19.0</ele><time>2026-04-24T09:35:06Z</time></trkpt><trkpt lat="44.84546576793966" lon="11.021552739901228"><ele>19.0</ele><time>2026-04-24T09:35:07Z</time></trkpt><trkpt lat="44.84531774547016" lon="11.021718097066332"><ele>19.0</ele><time>2026-04-24T09:35:08Z</time></trkpt><trkpt lat="44.84517014242346" lon="11.021878613677485"><ele>19.0</ele><time>2026-04-24T09:35:09Z</time></trkpt><trkpt lat="44.845020957258164" lon="11.022034458094526"><ele>19.0</ele><time>2026-04-24T09:35:10Z</time></trkpt><trkpt lat="44.844869823722505" lon="11.022186103455269"><ele>19.333333333333332</ele><time>2026-04-24T09:35:11Z</time></trkpt><trkpt lat="44.844729687342124" lon="11.022332497146465"><ele>19.666666666666668</ele><time>2026-04-24T09:35:12Z</time></trkpt><trkpt lat="44.84459599879048" lon="11.022470246432896"><ele>20.0</ele><time>2026-04-24T09:35:13Z</time></trkpt><trkpt lat="44.84445823836577" lon="11.022612605240226"><ele>20.0</ele><time>2026-04-24T09:35:14Z</time></trkpt><trkpt lat="44.844320649675446" lon="11.022761662808618"><ele>20.0</ele><time>2026-04-24T09:35:15Z</time></trkpt><trkpt lat="44.8441930254837" lon="11.022895367963766"><ele>20.0</ele><time>2026-04-24T09:35:16Z</time></trkpt><trkpt lat="44.84407516778389" lon="11.023014211972267"><ele>20.0</ele><time>2026-04-24T09:35:17Z</time></trkpt><trkpt lat="44.843971788608584" lon="11.023125671669883"><ele>20.0</ele><time>2026-04-24T09:35:18Z</time></trkpt><trkpt lat="44.84387766061298" lon="11.023225298483986"><ele>20.0</ele><time>2026-04-24T09:35:19Z</time></trkpt><trkpt lat="44.843783844403205" lon="11.02328808497271"><ele>20.0</ele><time>2026-04-24T09:35:20Z</time></trkpt><trkpt lat="44.84368257533968" lon="11.023311779128397"><ele>20.0</ele><time>2026-04-24T09:35:21Z</time></trkpt><trkpt lat="44.84356532743292" lon="11.0233137541721"><ele>20.0</ele><time>2026-04-24T09:35:22Z</time></trkpt><trkpt lat="44.843451286195894" lon="11.02331285698129"><ele>20.0</ele><time>2026-04-24T09:35:23Z</time></trkpt><trkpt lat="44.843356437765046" lon="11.023299512461872"><ele>20.0</ele><time>2026-04-24T09:35:24Z</time></trkpt><trkpt lat="44.84328026599154" lon="11.023304386402938"><ele>20.0</ele><time>2026-04-24T09:35:25Z</time></trkpt><trkpt lat="44.84322756893125" lon="11.023365403031901"><ele>20.0</ele><time>2026-04-24T09:35:26Z</time></trkpt><trkpt lat="44.84318578540627" lon="11.023461832228083"><ele>20.0</ele><time>2026-04-24T09:35:27Z</time></trkpt><trkpt lat="44.84315276324764" lon="11.023609235649689"><ele>20.0</ele><time>2026-04-24T09:35:28Z</time></trkpt><trkpt lat="44.843100327566454" lon="11.023754570940289"><ele>20.0</ele><time>2026-04-24T09:35:29Z</time></trkpt><trkpt lat="44.842991302257374" lon="11.023878285130497"><ele>20.0</ele><time>2026-04-24T09:35:30Z</time></trkpt><trkpt lat="44.84286591219604" lon="11.023981335088132"><ele>20.0</ele><time>2026-04-24T09:35:31Z</time></trkpt><trkpt lat="44.84272370352971" lon="11.024072005729561"><ele>20.0</ele><time>2026-04-24T09:35:32Z</time></trkpt><trkpt lat="44.842573251619484" lon="11.024153355261948"><ele>20.0</ele><time>2026-04-24T09:35:33Z</time></trkpt><trkpt lat="44.84241263971587" lon="11.024226897555796"><ele>20.0</ele><time>2026-04-24T09:35:34Z</time></trkpt><trkpt lat="44.84225264618652" lon="11.024294361558738"><ele>20.0</ele><time>2026-04-24T09:35:35Z</time></trkpt><trkpt lat="44.842110261059204" lon="11.024349435794068"><ele>20.0</ele><time>2026-04-24T09:35:36Z</time></trkpt><trkpt lat="44.84197801810338" lon="11.024391799179284"><ele>20.0</ele><time>2026-04-24T09:35:37Z</time></trkpt><trkpt lat="44.84184871006053" lon="11.024415978917066"><ele>20.0</ele><time>2026-04-24T09:35:38Z</time></trkpt><trkpt lat="44.841732988117165" lon="11.024392984272776"><ele>20.0</ele><time>2026-04-24T09:35:39Z</time></trkpt><trkpt lat="44.841638146624035" lon="11.024394101206195"><ele>20.0</ele><time>2026-04-24T09:35:40Z</time></trkpt><trkpt lat="44.84156043246795" lon="11.024394101206344"><ele>20.0</ele><time>2026-04-24T09:35:41Z</time></trkpt><trkpt lat="44.841474767730986" lon="11.024401452004362"><ele>19.5</ele><time>2026-04-24T09:35:43Z</time></trkpt><trkpt lat="44.841380375690186" lon="11.024405495935948"><ele>19.0</ele><time>2026-04-24T09:36:09Z</time></trkpt><trkpt lat="44.8412990197606" lon="11.024404746650957"><ele>18.5</ele><time>2026-04-24T09:36:10Z</time></trkpt><trkpt lat="44.84121436940084" lon="11.024413048780277"><ele>18.0</ele><time>2026-04-24T09:36:11Z</time></trkpt><trkpt lat="44.84114359058338" lon="11.024419217318387"><ele>17.5</ele><time>2026-04-24T09:36:12Z</time></trkpt><trkpt lat="44.84104109751313" lon="11.024399939818343"><ele>17.0</ele><time>2026-04-24T09:36:14Z</time></trkpt><trkpt lat="44.841001586580994" lon="11.024629196878083"><ele>17.8</ele><time>2026-04-24T09:36:15Z</time></trkpt><trkpt lat="44.840962448479104" lon="11.024744877436984"><ele>18.6</ele><time>2026-04-24T09:36:16Z</time></trkpt><trkpt lat="44.840923938335244" lon="11.024877928505674"><ele>19.400000000000002</ele><time>2026-04-24T09:36:17Z</time></trkpt><trkpt lat="44.84088679775218" lon="11.025026513296808"><ele>20.2</ele><time>2026-04-24T09:36:18Z</time></trkpt><trkpt lat="44.840837520973196" lon="11.025167554336956"><ele>21.0</ele><time>2026-04-24T09:36:19Z</time></trkpt><trkpt lat="44.840790755592714" lon="11.02531350396396"><ele>21.200000000000003</ele><time>2026-04-24T09:36:20Z</time></trkpt><trkpt lat="44.84073816178829" lon="11.025452348810683"><ele>21.400000000000002</ele><time>2026-04-24T09:36:21Z</time></trkpt><trkpt lat="44.840679107333195" lon="11.02557899054529"><ele>21.6</ele><time>2026-04-24T09:36:22Z</time></trkpt><trkpt lat="44.84061033221367" lon="11.025677030980917"><ele>21.8</ele><time>2026-04-24T09:36:23Z</time></trkpt><trkpt lat="44.84054398668446" lon="11.025783152009518"><ele>22.0</ele><time>2026-04-24T09:36:24Z</time></trkpt><trkpt lat="44.840476681720446" lon="11.025884899325504"><ele>22.200000000000003</ele><time>2026-04-24T09:36:25Z</time></trkpt><trkpt lat="44.8404173343051" lon="11.02597631199618"><ele>22.4</ele><time>2026-04-24T09:36:26Z</time></trkpt><trkpt lat="44.840361158064674" lon="11.026062840121254"><ele>22.6</ele><time>2026-04-24T09:36:27Z</time></trkpt><trkpt lat="44.840302133877294" lon="11.026153754931329"><ele>22.799999999999997</ele><time>2026-04-24T09:36:28Z</time></trkpt><trkpt lat="44.840234379980075" lon="11.026257450430592"><ele>23.0</ele><time>2026-04-24T09:36:29Z</time></trkpt><trkpt lat="44.8401579540237" lon="11.026374314427585"><ele>22.75</ele><time>2026-04-24T09:36:30Z</time></trkpt><trkpt lat="44.84007279517786" lon="11.026503986275783"><ele>22.5</ele><time>2026-04-24T09:36:31Z</time></trkpt><trkpt lat="44.839983169326906" lon="11.026640460050782"><ele>22.25</ele><time>2026-04-24T09:36:32Z</time></trkpt><trkpt lat="44.839891839941934" lon="11.026779527816204"><ele>22.0</ele><time>2026-04-24T09:36:33Z</time></trkpt><trkpt lat="44.83980937064535" lon="11.026939404087052"><ele>22.0</ele><time>2026-04-24T09:36:34Z</time></trkpt><trkpt lat="44.83970469289587" lon="11.027065206826265"><ele>22.0</ele><time>2026-04-24T09:36:35Z</time></trkpt><trkpt lat="44.83960796390314" lon="11.027213313631732"><ele>22.0</ele><time>2026-04-24T09:36:36Z</time></trkpt><trkpt lat="44.83952112832117" lon="11.027376024268507"><ele>22.0</ele><time>2026-04-24T09:36:37Z</time></trkpt><trkpt lat="44.83942092711273" lon="11.027518732121813"><ele>22.0</ele><time>2026-04-24T09:36:38Z</time></trkpt><trkpt lat="44.839323416609055" lon="11.027664027569863"><ele>22.0</ele><time>2026-04-24T09:36:39Z</time></trkpt><trkpt lat="44.839223253498815" lon="11.027818106950917"><ele>22.0</ele><time>2026-04-24T09:36:40Z</time></trkpt><trkpt lat="44.8391225401252" lon="11.027973142974783"><ele>22.0</ele><time>2026-04-24T09:36:41Z</time></trkpt><trkpt lat="44.83902004049842" lon="11.028133155048883"><ele>22.0</ele><time>2026-04-24T09:36:42Z</time></trkpt><trkpt lat="44.838917508837554" lon="11.028294537472727"><ele>22.0</ele><time>2026-04-24T09:36:43Z</time></trkpt><trkpt lat="44.838812275330405" lon="11.02845213032052"><ele>22.0</ele><time>2026-04-24T09:36:44Z</time></trkpt><trkpt lat="44.83870983026888" lon="11.028604828586818"><ele>22.0</ele><time>2026-04-24T09:36:45Z</time></trkpt><trkpt lat="44.838613240628" lon="11.02875479207869"><ele>22.0</ele><time>2026-04-24T09:36:46Z</time></trkpt><trkpt lat="44.83851429431286" lon="11.028886446711644"><ele>22.0</ele><time>2026-04-24T09:36:47Z</time></trkpt><trkpt lat="44.838430385893474" lon="11.029014245986316"><ele>22.0</ele><time>2026-04-24T09:36:48Z</time></trkpt><trkpt lat="44.838358888431266" lon="11.029125682237632"><ele>21.833333333333332</ele><time>2026-04-24T09:36:49Z</time></trkpt><trkpt lat="44.83830486796166" lon="11.029220441660456"><ele>21.666666666666664</ele><time>2026-04-24T09:36:50Z</time></trkpt><trkpt lat="44.83825720021626" lon="11.02930240340707"><ele>21.5</ele><time>2026-04-24T09:36:51Z</time></trkpt><trkpt lat="44.83820863325055" lon="11.029368846940738"><ele>21.333333333333332</ele><time>2026-04-24T09:36:52Z</time></trkpt><trkpt lat="44.838119489165635" lon="11.029487059851203"><ele>21.166666666666668</ele><time>2026-04-24T09:36:54Z</time></trkpt><trkpt lat="44.83806858665626" lon="11.029560754782262"><ele>21.0</ele><time>2026-04-24T09:36:55Z</time></trkpt><trkpt lat="44.83801036602036" lon="11.029641372022098"><ele>21.0</ele><time>2026-04-24T09:36:56Z</time></trkpt><trkpt lat="44.837952837035914" lon="11.029729067577634"><ele>21.0</ele><time>2026-04-24T09:36:57Z</time></trkpt><trkpt lat="44.837902670495474" lon="11.029811208490308"><ele>21.0</ele><time>2026-04-24T09:36:58Z</time></trkpt><trkpt lat="44.83785941893447" lon="11.029882020648495"><ele>21.0</ele><time>2026-04-24T09:36:59Z</time></trkpt><trkpt lat="44.83779076964903" lon="11.029983748148242"><ele>21.0</ele><time>2026-04-24T09:37:01Z</time></trkpt><trkpt lat="44.837792227316335" lon="11.030077218599892"><ele>21.0</ele><time>2026-04-24T09:39:43Z</time></trkpt><trkpt lat="44.83781531135255" lon="11.030162211737487"><ele>20.857142857142858</ele><time>2026-04-24T09:39:52Z</time></trkpt><trkpt lat="44.837759754660006" lon="11.030113317169894"><ele>20.714285714285715</ele><time>2026-04-24T09:40:01Z</time></trkpt><trkpt lat="44.8377741711754" lon="11.030202355475609"><ele>20.57142857142857</ele><time>2026-04-24T09:40:42Z</time></trkpt><trkpt lat="44.83775431085242" lon="11.030299247433694"><ele>20.42857142857143</ele><time>2026-04-24T09:41:07Z</time></trkpt><trkpt lat="44.837705466858836" lon="11.030355603526518"><ele>20.285714285714285</ele><time>2026-04-24T09:41:14Z</time></trkpt><trkpt lat="44.837770662815956" lon="11.03034913321504"><ele>20.142857142857142</ele><time>2026-04-24T09:41:47Z</time></trkpt><trkpt lat="44.83778691339452" lon="11.030261114494902"><ele>20.0</ele><time>2026-04-24T09:41:56Z</time></trkpt><trkpt lat="44.83791658489411" lon="11.030241383253044"><ele>20.0</ele><time>2026-04-24T09:44:00Z</time></trkpt><trkpt lat="44.83784035729425" lon="11.030229963914282"><ele>20.0</ele><time>2026-04-24T09:44:06Z</time></trkpt><trkpt lat="44.83775252363088" lon="11.03026630149499"><ele>20.0</ele><time>2026-04-24T09:44:09Z</time></trkpt><trkpt lat="44.83774347033767" lon="11.030125702700506"><ele>20.0</ele><time>2026-04-24T09:47:16Z</time></trkpt><trkpt lat="44.83774288666183" lon="11.030020355675848"><ele>20.0</ele><time>2026-04-24T09:47:28Z</time></trkpt><trkpt lat="44.837766522725005" lon="11.03010393712153"><ele>20.0</ele><time>2026-04-24T09:48:53Z</time></trkpt><trkpt lat="44.837744531042595" lon="11.030020671119921"><ele>20.0</ele><time>2026-04-24T09:48:57Z</time></trkpt><trkpt lat="44.83777888382124" lon="11.030114055661489"><ele>20.0</ele><time>2026-04-24T09:59:29Z</time></trkpt><trkpt lat="44.837735755296244" lon="11.030180734997163"><ele>20.0</ele><time>2026-04-24T09:59:31Z</time></trkpt><trkpt lat="44.83765120060822" lon="11.030176409941934"><ele>20.0</ele><time>2026-04-24T09:59:35Z</time></trkpt><trkpt lat="44.83758543640529" lon="11.030098776126342"><ele>20.0</ele><time>2026-04-24T09:59:38Z</time></trkpt><trkpt lat="44.83753497745035" lon="11.029995189429892"><ele>20.0</ele><time>2026-04-24T09:59:40Z</time></trkpt><trkpt lat="44.83751732173856" lon="11.0298411370648"><ele>20.5</ele><time>2026-04-24T09:59:42Z</time></trkpt><trkpt lat="44.8374980437254" lon="11.029707508172379"><ele>21.0</ele><time>2026-04-24T09:59:44Z</time></trkpt><trkpt lat="44.83745467493182" lon="11.029630174155097"><ele>21.5</ele><time>2026-04-24T09:59:46Z</time></trkpt><trkpt lat="44.837379034201" lon="11.02961125485957"><ele>22.0</ele><time>2026-04-24T09:59:48Z</time></trkpt><trkpt lat="44.837260476514196" lon="11.029666166397762"><ele>22.5</ele><time>2026-04-24T09:59:50Z</time></trkpt><trkpt lat="44.83719968059359" lon="11.02972772532775"><ele>23.0</ele><time>2026-04-24T09:59:51Z</time></trkpt><trkpt lat="44.83714035366602" lon="11.02979167823719"><ele>23.0</ele><time>2026-04-24T09:59:52Z</time></trkpt><trkpt lat="44.837074479258405" lon="11.029861714083012"><ele>23.0</ele><time>2026-04-24T09:59:53Z</time></trkpt><trkpt lat="44.83700705426415" lon="11.029941246093166"><ele>23.0</ele><time>2026-04-24T09:59:54Z</time></trkpt><trkpt lat="44.83693623772343" lon="11.030020669121681"><ele>23.0</ele><time>2026-04-24T09:59:55Z</time></trkpt><trkpt lat="44.83686607913596" lon="11.030107516554713"><ele>23.0</ele><time>2026-04-24T09:59:56Z</time></trkpt><trkpt lat="44.836798992211286" lon="11.030194777523642"><ele>23.0</ele><time>2026-04-24T09:59:57Z</time></trkpt><trkpt lat="44.836734042616726" lon="11.030266464037112"><ele>23.5</ele><time>2026-04-24T09:59:58Z</time></trkpt><trkpt lat="44.83668188356778" lon="11.030331045705207"><ele>24.0</ele><time>2026-04-24T09:59:59Z</time></trkpt><trkpt lat="44.83658894585454" lon="11.030442465551067"><ele>24.5</ele><time>2026-04-24T10:00:01Z</time></trkpt><trkpt lat="44.8365391960199" lon="11.030500857078728"><ele>25.0</ele><time>2026-04-24T10:00:02Z</time></trkpt><trkpt lat="44.836471401550945" lon="11.030549243202591"><ele>25.499999999999996</ele><time>2026-04-24T10:00:03Z</time></trkpt><trkpt lat="44.836409642338054" lon="11.030624385253718"><ele>26.0</ele><time>2026-04-24T10:00:04Z</time></trkpt><trkpt lat="44.8363473091157" lon="11.030715665935782"><ele>26.0</ele><time>2026-04-24T10:00:05Z</time></trkpt><trkpt lat="44.8362748563685" lon="11.030802541896282"><ele>26.0</ele><time>2026-04-24T10:00:06Z</time></trkpt><trkpt lat="44.836201606041" lon="11.030888114892086"><ele>26.0</ele><time>2026-04-24T10:00:07Z</time></trkpt><trkpt lat="44.836128532219796" lon="11.030986839236375"><ele>26.0</ele><time>2026-04-24T10:00:08Z</time></trkpt><trkpt lat="44.83606219800157" lon="11.031095901707767"><ele>26.0</ele><time>2026-04-24T10:00:09Z</time></trkpt><trkpt lat="44.83599524195454" lon="11.031197882081718"><ele>25.8</ele><time>2026-04-24T10:00:10Z</time></trkpt><trkpt lat="44.83592323535398" lon="11.031303055958189"><ele>25.6</ele><time>2026-04-24T10:00:11Z</time></trkpt><trkpt lat="44.835846290178694" lon="11.031407460925104"><ele>25.4</ele><time>2026-04-24T10:00:12Z</time></trkpt><trkpt lat="44.83576554304363" lon="11.031513674991498"><ele>25.2</ele><time>2026-04-24T10:00:13Z</time></trkpt><trkpt lat="44.835680142056546" lon="11.031620129045496"><ele>25.0</ele><time>2026-04-24T10:00:14Z</time></trkpt><trkpt lat="44.83559148579022" lon="11.031732533154948"><ele>24.75</ele><time>2026-04-24T10:00:15Z</time></trkpt><trkpt lat="44.83549862209889" lon="11.031845464217726"><ele>24.5</ele><time>2026-04-24T10:00:16Z</time></trkpt><trkpt lat="44.835402915657355" lon="11.031968507390248"><ele>24.25</ele><time>2026-04-24T10:00:17Z</time></trkpt><trkpt lat="44.83530764095222" lon="11.032089629844746"><ele>24.0</ele><time>2026-04-24T10:00:18Z</time></trkpt><trkpt lat="44.8352117377269" lon="11.032217748068852"><ele>23.75</ele><time>2026-04-24T10:00:19Z</time></trkpt><trkpt lat="44.83511419363779" lon="11.0323443534511"><ele>23.5</ele><time>2026-04-24T10:00:20Z</time></trkpt><trkpt lat="44.83501271766043" lon="11.032474406449834"><ele>23.25</ele><time>2026-04-24T10:00:21Z</time></trkpt><trkpt lat="44.834909721147255" lon="11.032601598273809"><ele>23.0</ele><time>2026-04-24T10:00:22Z</time></trkpt><trkpt lat="44.8348023882579" lon="11.032733285825032"><ele>23.0</ele><time>2026-04-24T10:00:23Z</time></trkpt><trkpt lat="44.83469806474533" lon="11.032870315091527"><ele>23.0</ele><time>2026-04-24T10:00:24Z</time></trkpt><trkpt lat="44.834595480349726" lon="11.033010174828348"><ele>23.0</ele><time>2026-04-24T10:00:25Z</time></trkpt><trkpt lat="44.83448610138776" lon="11.03314558739585"><ele>23.0</ele><time>2026-04-24T10:00:26Z</time></trkpt><trkpt lat="44.83437323848359" lon="11.033276249279368"><ele>22.75</ele><time>2026-04-24T10:00:27Z</time></trkpt><trkpt lat="44.83427260211445" lon="11.033390165718219"><ele>22.5</ele><time>2026-04-24T10:00:28Z</time></trkpt><trkpt lat="44.8341723620781" lon="11.033464286515166"><ele>22.25</ele><time>2026-04-24T10:00:29Z</time></trkpt><trkpt lat="44.83407996397438" lon="11.033550690109687"><ele>22.0</ele><time>2026-04-24T10:00:30Z</time></trkpt><trkpt lat="44.83397801541509" lon="11.033643833040367"><ele>22.0</ele><time>2026-04-24T10:00:31Z</time></trkpt><trkpt lat="44.83387389034929" lon="11.033740155270799"><ele>22.0</ele><time>2026-04-24T10:00:32Z</time></trkpt><trkpt lat="44.83377172418681" lon="11.033847642680822"><ele>22.0</ele><time>2026-04-24T10:00:33Z</time></trkpt><trkpt lat="44.83366427199882" lon="11.033947746341578"><ele>22.0</ele><time>2026-04-24T10:00:34Z</time></trkpt><trkpt lat="44.83357067911941" lon="11.034038458085183"><ele>22.0</ele><time>2026-04-24T10:00:35Z</time></trkpt><trkpt lat="44.83349208573243" lon="11.034116450011286"><ele>22.0</ele><time>2026-04-24T10:00:36Z</time></trkpt><trkpt lat="44.83342611225044" lon="11.034171101031369"><ele>22.0</ele><time>2026-04-24T10:00:37Z</time></trkpt><trkpt lat="44.83332480283698" lon="11.034200605669131"><ele>22.0</ele><time>2026-04-24T10:00:39Z</time></trkpt><trkpt lat="44.83332088240815" lon="11.034093727672426"><ele>22.0</ele><time>2026-04-24T10:00:40Z</time></trkpt><trkpt lat="44.83326469969093" lon="11.034022831690084"><ele>22.0</ele><time>2026-04-24T10:00:41Z</time></trkpt><trkpt lat="44.83319508414391" lon="11.0339323389162"><ele>22.25</ele><time>2026-04-24T10:00:42Z</time></trkpt><trkpt lat="44.833109745917255" lon="11.03382100048155"><ele>22.5</ele><time>2026-04-24T10:00:43Z</time></trkpt><trkpt lat="44.833019004054286" lon="11.03370261203053"><ele>22.75</ele><time>2026-04-24T10:00:44Z</time></trkpt><trkpt lat="44.83292557800545" lon="11.03358072164609"><ele>23.0</ele><time>2026-04-24T10:00:45Z</time></trkpt><trkpt lat="44.832829551499486" lon="11.0334867041797"><ele>23.0</ele><time>2026-04-24T10:00:46Z</time></trkpt><trkpt lat="44.83276115461236" lon="11.033394602308245"><ele>23.0</ele><time>2026-04-24T10:00:47Z</time></trkpt><trkpt lat="44.83270147759244" lon="11.03331753172588"><ele>23.0</ele><time>2026-04-24T10:00:48Z</time></trkpt><trkpt lat="44.832641950356525" lon="11.03323677242391"><ele>23.0</ele><time>2026-04-24T10:00:49Z</time></trkpt><trkpt lat="44.83257113548454" lon="11.033139947470447"><ele>23.0</ele><time>2026-04-24T10:00:50Z</time></trkpt><trkpt lat="44.832495504342276" lon="11.03303632448354"><ele>22.5</ele><time>2026-04-24T10:00:51Z</time></trkpt><trkpt lat="44.832415110194454" lon="11.032923231527281"><ele>22.0</ele><time>2026-04-24T10:00:52Z</time></trkpt><trkpt lat="44.8323266989962" lon="11.032804010542987"><ele>21.5</ele><time>2026-04-24T10:00:53Z</time></trkpt><trkpt lat="44.83223648896406" lon="11.032684831076452"><ele>21.0</ele><time>2026-04-24T10:00:54Z</time></trkpt><trkpt lat="44.83215703713318" lon="11.032577658710261"><ele>21.0</ele><time>2026-04-24T10:00:55Z</time></trkpt><trkpt lat="44.832089025807456" lon="11.032485964304971"><ele>21.0</ele><time>2026-04-24T10:00:56Z</time></trkpt><trkpt lat="44.83202745993538" lon="11.032402598704085"><ele>21.0</ele><time>2026-04-24T10:00:57Z</time></trkpt><trkpt lat="44.83197193829738" lon="11.03232931228929"><ele>21.0</ele><time>2026-04-24T10:00:58Z</time></trkpt><trkpt lat="44.831912913550994" lon="11.032255718021798"><ele>21.0</ele><time>2026-04-24T10:01:00Z</time></trkpt><trkpt lat="44.831765102713604" lon="11.032400394519353"><ele>21.0</ele><time>2026-04-24T10:01:05Z</time></trkpt><trkpt lat="44.83171437063572" lon="11.032522143969862"><ele>21.0</ele><time>2026-04-24T10:01:06Z</time></trkpt><trkpt lat="44.83165163748908" lon="11.03265078364335"><ele>21.0</ele><time>2026-04-24T10:01:07Z</time></trkpt><trkpt lat="44.83157994971811" lon="11.032782728228746"><ele>21.0</ele><time>2026-04-24T10:01:08Z</time></trkpt><trkpt lat="44.83149843826357" lon="11.032920977454411"><ele>21.0</ele><time>2026-04-24T10:01:09Z</time></trkpt><trkpt lat="44.83141274790436" lon="11.033071144768904"><ele>21.0</ele><time>2026-04-24T10:01:10Z</time></trkpt><trkpt lat="44.83132670828304" lon="11.033221976667175"><ele>21.0</ele><time>2026-04-24T10:01:11Z</time></trkpt><trkpt lat="44.831238365213466" lon="11.033375904976802"><ele>21.0</ele><time>2026-04-24T10:01:12Z</time></trkpt><trkpt lat="44.83114432605883" lon="11.0335322222137"><ele>21.0</ele><time>2026-04-24T10:01:13Z</time></trkpt><trkpt lat="44.8310446871928" lon="11.033687390858619"><ele>21.0</ele><time>2026-04-24T10:01:14Z</time></trkpt><trkpt lat="44.83094861985585" lon="11.03384848401874"><ele>21.0</ele><time>2026-04-24T10:01:15Z</time></trkpt><trkpt lat="44.830850797511125" lon="11.034016218768569"><ele>21.333333333333332</ele><time>2026-04-24T10:01:16Z</time></trkpt><trkpt lat="44.83075404199081" lon="11.034186959847144"><ele>21.666666666666664</ele><time>2026-04-24T10:01:17Z</time></trkpt><trkpt lat="44.830658239891925" lon="11.034351821681863"><ele>22.0</ele><time>2026-04-24T10:01:18Z</time></trkpt><trkpt lat="44.830563533659465" lon="11.034512096841077"><ele>22.0</ele><time>2026-04-24T10:01:19Z</time></trkpt><trkpt lat="44.830473084418834" lon="11.034668143982001"><ele>22.0</ele><time>2026-04-24T10:01:20Z</time></trkpt><trkpt lat="44.830383954550356" lon="11.034819571169706"><ele>22.0</ele><time>2026-04-24T10:01:21Z</time></trkpt><trkpt lat="44.8302931116146" lon="11.034967436530529"><ele>22.0</ele><time>2026-04-24T10:01:22Z</time></trkpt><trkpt lat="44.83020604295512" lon="11.035107402968519"><ele>21.8</ele><time>2026-04-24T10:01:23Z</time></trkpt><trkpt lat="44.83012852516788" lon="11.03523192043709"><ele>21.6</ele><time>2026-04-24T10:01:24Z</time></trkpt><trkpt lat="44.83005596820961" lon="11.035343049147293"><ele>21.400000000000002</ele><time>2026-04-24T10:01:25Z</time></trkpt><trkpt lat="44.829994258044565" lon="11.035447676838897"><ele>21.200000000000003</ele><time>2026-04-24T10:01:26Z</time></trkpt><trkpt lat="44.82993469377149" lon="11.03553885813854"><ele>21.0</ele><time>2026-04-24T10:01:27Z</time></trkpt><trkpt lat="44.82987876416049" lon="11.035620553235853"><ele>21.0</ele><time>2026-04-24T10:01:28Z</time></trkpt><trkpt lat="44.82982584793196" lon="11.035691807032844"><ele>21.0</ele><time>2026-04-24T10:01:29Z</time></trkpt><trkpt lat="44.829715727549" lon="11.035779196437808"><ele>21.0</ele><time>2026-04-24T10:01:31Z</time></trkpt><trkpt lat="44.829636822993" lon="11.035816402971419"><ele>21.0</ele><time>2026-04-24T10:01:32Z</time></trkpt><trkpt lat="44.82954338690856" lon="11.035853061303268"><ele>21.0</ele><time>2026-04-24T10:01:33Z</time></trkpt><trkpt lat="44.829438621124545" lon="11.035891965008716"><ele>21.0</ele><time>2026-04-24T10:01:34Z</time></trkpt><trkpt lat="44.829323918711225" lon="11.035933877601662"><ele>21.0</ele><time>2026-04-24T10:01:35Z</time></trkpt><trkpt lat="44.82921346465962" lon="11.035973074330313"><ele>21.0</ele><time>2026-04-24T10:01:36Z</time></trkpt><trkpt lat="44.829118956297364" lon="11.036009345140661"><ele>21.0</ele><time>2026-04-24T10:01:37Z</time></trkpt><trkpt lat="44.82902100902979" lon="11.036043890820764"><ele>21.0</ele><time>2026-04-24T10:01:38Z</time></trkpt><trkpt lat="44.82892353278713" lon="11.036078659019058"><ele>21.0</ele><time>2026-04-24T10:01:39Z</time></trkpt><trkpt lat="44.828828998124216" lon="11.036108170203129"><ele>21.0</ele><time>2026-04-24T10:01:40Z</time></trkpt><trkpt lat="44.82873508882924" lon="11.036136782188931"><ele>21.0</ele><time>2026-04-24T10:01:41Z</time></trkpt><trkpt lat="44.82864576719767" lon="11.03617156545853"><ele>21.0</ele><time>2026-04-24T10:01:42Z</time></trkpt><trkpt lat="44.82855933782633" lon="11.036209070661847"><ele>21.0</ele><time>2026-04-24T10:01:43Z</time></trkpt><trkpt lat="44.82847391704835" lon="11.036244234857246"><ele>21.0</ele><time>2026-04-24T10:01:44Z</time></trkpt><trkpt lat="44.82839378072019" lon="11.036273706257312"><ele>21.0</ele><time>2026-04-24T10:01:45Z</time></trkpt><trkpt lat="44.82831357414175" lon="11.036306413264233"><ele>21.0</ele><time>2026-04-24T10:01:46Z</time></trkpt><trkpt lat="44.82823491405748" lon="11.036335010989548"><ele>21.0</ele><time>2026-04-24T10:01:47Z</time></trkpt><trkpt lat="44.82815810595617" lon="11.036363517446132"><ele>21.0</ele><time>2026-04-24T10:01:48Z</time></trkpt><trkpt lat="44.82808505739477" lon="11.036387835425037"><ele>21.0</ele><time>2026-04-24T10:01:49Z</time></trkpt><trkpt lat="44.82801573521469" lon="11.036412185387062"><ele>21.0</ele><time>2026-04-24T10:01:50Z</time></trkpt><trkpt lat="44.827950944439415" lon="11.036438716068773"><ele>21.0</ele><time>2026-04-24T10:01:51Z</time></trkpt><trkpt lat="44.827884067376" lon="11.03646578985125"><ele>21.0</ele><time>2026-04-24T10:01:52Z</time></trkpt><trkpt lat="44.827815861771825" lon="11.036490823305684"><ele>21.0</ele><time>2026-04-24T10:01:53Z</time></trkpt><trkpt lat="44.82774751938722" lon="11.036513624883833"><ele>21.0</ele><time>2026-04-24T10:01:54Z</time></trkpt><trkpt lat="44.82768169495133" lon="11.03653725094202"><ele>21.0</ele><time>2026-04-24T10:01:55Z</time></trkpt><trkpt lat="44.827617783916814" lon="11.036561145048719"><ele>21.0</ele><time>2026-04-24T10:01:56Z</time></trkpt><trkpt lat="44.82750335913495" lon="11.03660240709434"><ele>21.200000000000003</ele><time>2026-04-24T10:01:58Z</time></trkpt><trkpt lat="44.82740469431124" lon="11.036636576264838"><ele>21.400000000000002</ele><time>2026-04-24T10:02:00Z</time></trkpt><trkpt lat="44.82730716048568" lon="11.03666966673647"><ele>21.6</ele><time>2026-04-24T10:02:02Z</time></trkpt><trkpt lat="44.82721287036176" lon="11.036706746738565"><ele>21.8</ele><time>2026-04-24T10:02:04Z</time></trkpt><trkpt lat="44.82709603848253" lon="11.036758984696588"><ele>22.0</ele><time>2026-04-24T10:02:06Z</time></trkpt><trkpt lat="44.82702664549415" lon="11.036792667854717"><ele>22.0</ele><time>2026-04-24T10:02:07Z</time></trkpt><trkpt lat="44.82695250240801" lon="11.036821600713049"><ele>22.0</ele><time>2026-04-24T10:02:08Z</time></trkpt><trkpt lat="44.82687435102643" lon="11.036852160865736"><ele>22.0</ele><time>2026-04-24T10:02:09Z</time></trkpt><trkpt lat="44.82679173926679" lon="11.036883729239703"><ele>22.0</ele><time>2026-04-24T10:02:10Z</time></trkpt><trkpt lat="44.826700636915994" lon="11.03691995464917"><ele>22.0</ele><time>2026-04-24T10:02:11Z</time></trkpt><trkpt lat="44.82660659895758" lon="11.036954845334973"><ele>22.0</ele><time>2026-04-24T10:02:12Z</time></trkpt><trkpt lat="44.82651325831708" lon="11.036979637240158"><ele>21.666666666666664</ele><time>2026-04-24T10:02:13Z</time></trkpt><trkpt lat="44.82643093091444" lon="11.036981014948942"><ele>21.333333333333332</ele><time>2026-04-24T10:02:14Z</time></trkpt><trkpt lat="44.826358564407855" lon="11.036959428087496"><ele>21.0</ele><time>2026-04-24T10:02:15Z</time></trkpt><trkpt lat="44.826296315957066" lon="11.03691951245217"><ele>20.666666666666668</ele><time>2026-04-24T10:02:16Z</time></trkpt><trkpt lat="44.82623840745171" lon="11.03688201044344"><ele>20.333333333333336</ele><time>2026-04-24T10:02:17Z</time></trkpt><trkpt lat="44.82614965175234" lon="11.036826511675876"><ele>20.0</ele><time>2026-04-24T10:02:19Z</time></trkpt><trkpt lat="44.82607492718552" lon="11.036851525517276"><ele>20.0</ele><time>2026-04-24T10:02:26Z</time></trkpt><trkpt lat="44.825957044825614" lon="11.036989795612444"><ele>20.0</ele><time>2026-04-24T10:02:28Z</time></trkpt><trkpt lat="44.82589431791321" lon="11.037095879298773"><ele>20.0</ele><time>2026-04-24T10:02:29Z</time></trkpt><trkpt lat="44.82583106242339" lon="11.03721845469957"><ele>20.0</ele><time>2026-04-24T10:02:30Z</time></trkpt><trkpt lat="44.8257659389872" lon="11.037356162275378"><ele>20.25</ele><time>2026-04-24T10:02:31Z</time></trkpt><trkpt lat="44.82569735633332" lon="11.037495361118724"><ele>20.5</ele><time>2026-04-24T10:02:32Z</time></trkpt><trkpt lat="44.82562257615928" lon="11.037651459871963"><ele>20.75</ele><time>2026-04-24T10:02:33Z</time></trkpt><trkpt lat="44.82553735853895" lon="11.037816684045449"><ele>21.0</ele><time>2026-04-24T10:02:34Z</time></trkpt><trkpt lat="44.82545360469135" lon="11.03798737846714"><ele>21.0</ele><time>2026-04-24T10:02:35Z</time></trkpt><trkpt lat="44.82537269699745" lon="11.03815487116654"><ele>21.0</ele><time>2026-04-24T10:02:36Z</time></trkpt><trkpt lat="44.82528444334519" lon="11.038329655537474"><ele>21.0</ele><time>2026-04-24T10:02:37Z</time></trkpt><trkpt lat="44.82519037247618" lon="11.038504313054197"><ele>20.666666666666668</ele><time>2026-04-24T10:02:38Z</time></trkpt><trkpt lat="44.82509985636301" lon="11.038681592906153"><ele>20.333333333333336</ele><time>2026-04-24T10:02:39Z</time></trkpt><trkpt lat="44.82501032664677" lon="11.03886959746814"><ele>20.0</ele><time>2026-04-24T10:02:40Z</time></trkpt><trkpt lat="44.82491261105727" lon="11.039055237663707"><ele>20.333333333333336</ele><time>2026-04-24T10:02:41Z</time></trkpt><trkpt lat="44.824810492067286" lon="11.039240495391462"><ele>20.666666666666668</ele><time>2026-04-24T10:02:42Z</time></trkpt><trkpt lat="44.824710319061424" lon="11.039434122465318"><ele>21.0</ele><time>2026-04-24T10:02:43Z</time></trkpt><trkpt lat="44.82461214688581" lon="11.039624365497048"><ele>21.0</ele><time>2026-04-24T10:02:44Z</time></trkpt><trkpt lat="44.824513457620476" lon="11.039818606916636"><ele>21.0</ele><time>2026-04-24T10:02:45Z</time></trkpt><trkpt lat="44.824412468222285" lon="11.040016644037696"><ele>21.0</ele><time>2026-04-24T10:02:46Z</time></trkpt><trkpt lat="44.82430953101397" lon="11.040216417445162"><ele>21.0</ele><time>2026-04-24T10:02:47Z</time></trkpt><trkpt lat="44.82421089921613" lon="11.040419623668802"><ele>21.0</ele><time>2026-04-24T10:02:48Z</time></trkpt><trkpt lat="44.824109235367715" lon="11.040625138175685"><ele>21.0</ele><time>2026-04-24T10:02:49Z</time></trkpt><trkpt lat="44.824001450891664" lon="11.040826434896218"><ele>22.0</ele><time>2026-04-24T10:02:50Z</time></trkpt><trkpt lat="44.82389804592624" lon="11.04103058304561"><ele>23.0</ele><time>2026-04-24T10:02:51Z</time></trkpt><trkpt lat="44.823794346042376" lon="11.041235075422824"><ele>24.0</ele><time>2026-04-24T10:02:52Z</time></trkpt><trkpt lat="44.82368733646143" lon="11.041442910675027"><ele>23.666666666666668</ele><time>2026-04-24T10:02:53Z</time></trkpt><trkpt lat="44.82358018172992" lon="11.041650686619425"><ele>23.333333333333336</ele><time>2026-04-24T10:02:54Z</time></trkpt><trkpt lat="44.82346537833398" lon="11.041852961845336"><ele>23.0</ele><time>2026-04-24T10:02:55Z</time></trkpt><trkpt lat="44.82334427856049" lon="11.042048509631812"><ele>22.666666666666668</ele><time>2026-04-24T10:02:56Z</time></trkpt><trkpt lat="44.823227419696366" lon="11.042238106535471"><ele>22.333333333333332</ele><time>2026-04-24T10:02:57Z</time></trkpt><trkpt lat="44.82311209673597" lon="11.042424993780676"><ele>22.0</ele><time>2026-04-24T10:02:58Z</time></trkpt><trkpt lat="44.82299916448341" lon="11.042607978186929"><ele>22.0</ele><time>2026-04-24T10:02:59Z</time></trkpt><trkpt lat="44.82288855584615" lon="11.042791847668985"><ele>22.0</ele><time>2026-04-24T10:03:00Z</time></trkpt><trkpt lat="44.82277941884375" lon="11.042972048122495"><ele>22.0</ele><time>2026-04-24T10:03:01Z</time></trkpt><trkpt lat="44.822671089431374" lon="11.043148600917462"><ele>21.666666666666664</ele><time>2026-04-24T10:03:02Z</time></trkpt><trkpt lat="44.82256289298414" lon="11.043321309705213"><ele>21.333333333333332</ele><time>2026-04-24T10:03:03Z</time></trkpt><trkpt lat="44.822465168336095" lon="11.04347988222779"><ele>21.0</ele><time>2026-04-24T10:03:04Z</time></trkpt><trkpt lat="44.82237681558626" lon="11.043629000825659"><ele>21.0</ele><time>2026-04-24T10:03:05Z</time></trkpt><trkpt lat="44.82229750856488" lon="11.043759384760726"><ele>21.0</ele><time>2026-04-24T10:03:06Z</time></trkpt><trkpt lat="44.822228037916375" lon="11.043875059974233"><ele>21.0</ele><time>2026-04-24T10:03:07Z</time></trkpt><trkpt lat="44.82216532751928" lon="11.0439597814782"><ele>21.0</ele><time>2026-04-24T10:03:08Z</time></trkpt><trkpt lat="44.82209882697893" lon="11.044019039343672"><ele>21.0</ele><time>2026-04-24T10:03:09Z</time></trkpt><trkpt lat="44.822040562963615" lon="11.044071989708447"><ele>21.0</ele><time>2026-04-24T10:03:10Z</time></trkpt><trkpt lat="44.8219208575057" lon="11.044045749747013"><ele>21.0</ele><time>2026-04-24T10:03:11Z</time></trkpt><trkpt lat="44.82181310389919" lon="11.044039207806415"><ele>21.0</ele><time>2026-04-24T10:03:12Z</time></trkpt><trkpt lat="44.82170330524202" lon="11.04406204073381"><ele>21.0</ele><time>2026-04-24T10:03:13Z</time></trkpt><trkpt lat="44.821609868615404" lon="11.04412458813313"><ele>21.0</ele><time>2026-04-24T10:03:14Z</time></trkpt><trkpt lat="44.82153245436291" lon="11.044223946474563"><ele>20.0</ele><time>2026-04-24T10:03:15Z</time></trkpt><trkpt lat="44.82147354164854" lon="11.044352846024166"><ele>19.0</ele><time>2026-04-24T10:03:16Z</time></trkpt><trkpt lat="44.82144348478342" lon="11.044509911945987"><ele>18.0</ele><time>2026-04-24T10:03:17Z</time></trkpt><trkpt lat="44.82143939105444" lon="11.044681314283984"><ele>17.0</ele><time>2026-04-24T10:03:18Z</time></trkpt><trkpt lat="44.82146836166986" lon="11.044862504538509"><ele>17.75</ele><time>2026-04-24T10:03:19Z</time></trkpt><trkpt lat="44.821441736842694" lon="11.045014255015948"><ele>18.5</ele><time>2026-04-24T10:03:20Z</time></trkpt><trkpt lat="44.82139922079743" lon="11.045171739507351"><ele>19.25</ele><time>2026-04-24T10:03:21Z</time></trkpt><trkpt lat="44.82126973693553" lon="11.04528403330115"><ele>20.0</ele><time>2026-04-24T10:03:22Z</time></trkpt><trkpt lat="44.82118237298761" lon="11.04546470974498"><ele>20.0</ele><time>2026-04-24T10:03:23Z</time></trkpt><trkpt lat="44.8210945503667" lon="11.045657980127073"><ele>20.0</ele><time>2026-04-24T10:03:24Z</time></trkpt><trkpt lat="44.82101028567537" lon="11.045876727278975"><ele>20.0</ele><time>2026-04-24T10:03:25Z</time></trkpt><trkpt lat="44.82091189973452" lon="11.046097844402007"><ele>19.333333333333336</ele><time>2026-04-24T10:03:26Z</time></trkpt><trkpt lat="44.82081069167169" lon="11.046317219766491"><ele>18.666666666666668</ele><time>2026-04-24T10:03:27Z</time></trkpt><trkpt lat="44.82070849119852" lon="11.046543772675584"><ele>18.0</ele><time>2026-04-24T10:03:28Z</time></trkpt><trkpt lat="44.82060216493468" lon="11.046780894544414"><ele>18.0</ele><time>2026-04-24T10:03:29Z</time></trkpt><trkpt lat="44.82049361027271" lon="11.047022153658858"><ele>18.0</ele><time>2026-04-24T10:03:30Z</time></trkpt><trkpt lat="44.820380250764806" lon="11.047267565341697"><ele>18.0</ele><time>2026-04-24T10:03:31Z</time></trkpt><trkpt lat="44.820271376210236" lon="11.047504638972429"><ele>18.0</ele><time>2026-04-24T10:03:32Z</time></trkpt><trkpt lat="44.82016272809259" lon="11.047745300854649"><ele>18.0</ele><time>2026-04-24T10:03:33Z</time></trkpt><trkpt lat="44.82004436256141" lon="11.047987520372182"><ele>18.0</ele><time>2026-04-24T10:03:34Z</time></trkpt><trkpt lat="44.81993408206199" lon="11.048237796438842"><ele>18.666666666666668</ele><time>2026-04-24T10:03:35Z</time></trkpt><trkpt lat="44.819824281001914" lon="11.048484440307561"><ele>19.333333333333336</ele><time>2026-04-24T10:03:36Z</time></trkpt><trkpt lat="44.81970908367665" lon="11.048730545685087"><ele>20.0</ele><time>2026-04-24T10:03:37Z</time></trkpt><trkpt lat="44.8195937510897" lon="11.048979899007534"><ele>19.666666666666668</ele><time>2026-04-24T10:03:38Z</time></trkpt><trkpt lat="44.81947880534634" lon="11.049233528569669"><ele>19.333333333333332</ele><time>2026-04-24T10:03:39Z</time></trkpt><trkpt lat="44.81936582356508" lon="11.049487815996992"><ele>19.0</ele><time>2026-04-24T10:03:40Z</time></trkpt><trkpt lat="44.81925230859865" lon="11.04974628780757"><ele>19.0</ele><time>2026-04-24T10:03:41Z</time></trkpt><trkpt lat="44.8191344862703" lon="11.050001258452625"><ele>19.0</ele><time>2026-04-24T10:03:42Z</time></trkpt><trkpt lat="44.8190172395477" lon="11.050260007567593"><ele>19.0</ele><time>2026-04-24T10:03:43Z</time></trkpt><trkpt lat="44.81889679289166" lon="11.05051667417781"><ele>19.0</ele><time>2026-04-24T10:03:44Z</time></trkpt><trkpt lat="44.8187796285628" lon="11.050775227247598"><ele>19.0</ele><time>2026-04-24T10:03:45Z</time></trkpt><trkpt lat="44.81866251046899" lon="11.051032134211216"><ele>19.0</ele><time>2026-04-24T10:03:46Z</time></trkpt><trkpt lat="44.81854598543628" lon="11.051286503849136"><ele>17.666666666666664</ele><time>2026-04-24T10:03:47Z</time></trkpt><trkpt lat="44.81843065341793" lon="11.051543721037207"><ele>16.333333333333332</ele><time>2026-04-24T10:03:48Z</time></trkpt><trkpt lat="44.81831415579037" lon="11.051801703316714"><ele>15.0</ele><time>2026-04-24T10:03:49Z</time></trkpt><trkpt lat="44.81819669948746" lon="11.052063554295371"><ele>15.0</ele><time>2026-04-24T10:03:50Z</time></trkpt><trkpt lat="44.8180786687978" lon="11.052321177364158"><ele>15.0</ele><time>2026-04-24T10:03:51Z</time></trkpt><trkpt lat="44.817960756828704" lon="11.052579050857739"><ele>15.0</ele><time>2026-04-24T10:03:52Z</time></trkpt><trkpt lat="44.81784210249702" lon="11.05283597957882"><ele>15.0</ele><time>2026-04-24T10:03:53Z</time></trkpt><trkpt lat="44.817722814144076" lon="11.053092539010036"><ele>15.0</ele><time>2026-04-24T10:03:54Z</time></trkpt><trkpt lat="44.817607536800246" lon="11.053352855683869"><ele>15.0</ele><time>2026-04-24T10:03:55Z</time></trkpt><trkpt lat="44.81749138421314" lon="11.053610045355004"><ele>15.0</ele><time>2026-04-24T10:03:56Z</time></trkpt><trkpt lat="44.81737658992358" lon="11.053862905569954"><ele>15.0</ele><time>2026-04-24T10:03:57Z</time></trkpt><trkpt lat="44.817260963204944" lon="11.05411697019464"><ele>15.0</ele><time>2026-04-24T10:03:58Z</time></trkpt><trkpt lat="44.8171451876802" lon="11.05437136257013"><ele>15.0</ele><time>2026-04-24T10:03:59Z</time></trkpt><trkpt lat="44.81703128637907" lon="11.054629510950047"><ele>15.0</ele><time>2026-04-24T10:04:00Z</time></trkpt><trkpt lat="44.81691495229628" lon="11.054885099573688"><ele>15.0</ele><time>2026-04-24T10:04:01Z</time></trkpt><trkpt lat="44.816798433434116" lon="11.055144498398247"><ele>15.0</ele><time>2026-04-24T10:04:02Z</time></trkpt><trkpt lat="44.816681785704844" lon="11.05540039702453"><ele>15.0</ele><time>2026-04-24T10:04:03Z</time></trkpt><trkpt lat="44.81656481463072" lon="11.055655907160517"><ele>15.0</ele><time>2026-04-24T10:04:04Z</time></trkpt><trkpt lat="44.81644753911724" lon="11.055913168246326"><ele>15.333333333333332</ele><time>2026-04-24T10:04:05Z</time></trkpt><trkpt lat="44.81632897323762" lon="11.056166865457255"><ele>15.666666666666666</ele><time>2026-04-24T10:04:06Z</time></trkpt><trkpt lat="44.81621381869592" lon="11.0564262072197"><ele>16.0</ele><time>2026-04-24T10:04:07Z</time></trkpt><trkpt lat="44.81610035880449" lon="11.056687115117937"><ele>16.0</ele><time>2026-04-24T10:04:08Z</time></trkpt><trkpt lat="44.81598529797822" lon="11.056943876007523"><ele>16.0</ele><time>2026-04-24T10:04:09Z</time></trkpt><trkpt lat="44.815871514424956" lon="11.057201550315003"><ele>16.0</ele><time>2026-04-24T10:04:10Z</time></trkpt><trkpt lat="44.815754675698976" lon="11.057457368498309"><ele>16.0</ele><time>2026-04-24T10:04:11Z</time></trkpt><trkpt lat="44.815638676349316" lon="11.05771297194638"><ele>16.0</ele><time>2026-04-24T10:04:12Z</time></trkpt><trkpt lat="44.81551889020466" lon="11.057966857032383"><ele>16.0</ele><time>2026-04-24T10:04:13Z</time></trkpt><trkpt lat="44.81540290449931" lon="11.058224503433342"><ele>16.0</ele><time>2026-04-24T10:04:14Z</time></trkpt><trkpt lat="44.81528646951899" lon="11.058479823322743"><ele>16.0</ele><time>2026-04-24T10:04:15Z</time></trkpt><trkpt lat="44.8151674208783" lon="11.058735142822377"><ele>16.0</ele><time>2026-04-24T10:04:16Z</time></trkpt><trkpt lat="44.815048518609764" lon="11.05899067980313"><ele>16.0</ele><time>2026-04-24T10:04:17Z</time></trkpt><trkpt lat="44.81493180964298" lon="11.059246805863639"><ele>16.0</ele><time>2026-04-24T10:04:18Z</time></trkpt><trkpt lat="44.81481639084515" lon="11.05950572961086"><ele>16.0</ele><time>2026-04-24T10:04:19Z</time></trkpt><trkpt lat="44.814703475921895" lon="11.059760351075521"><ele>15.666666666666666</ele><time>2026-04-24T10:04:20Z</time></trkpt><trkpt lat="44.81458593010242" lon="11.060014360138137"><ele>15.333333333333332</ele><time>2026-04-24T10:04:21Z</time></trkpt><trkpt lat="44.81447022337843" lon="11.060266587729455"><ele>15.0</ele><time>2026-04-24T10:04:22Z</time></trkpt><trkpt lat="44.81435150784568" lon="11.060519288947086"><ele>15.666666666666668</ele><time>2026-04-24T10:04:23Z</time></trkpt><trkpt lat="44.81423501522476" lon="11.060775834636285"><ele>16.333333333333336</ele><time>2026-04-24T10:04:24Z</time></trkpt><trkpt lat="44.81411566654137" lon="11.061032756213226"><ele>17.0</ele><time>2026-04-24T10:04:25Z</time></trkpt><trkpt lat="44.813998116617576" lon="11.061293638823726"><ele>17.333333333333336</ele><time>2026-04-24T10:04:26Z</time></trkpt><trkpt lat="44.81388234904174" lon="11.06155161999195"><ele>17.666666666666668</ele><time>2026-04-24T10:04:27Z</time></trkpt><trkpt lat="44.81376735912892" lon="11.061811583017267"><ele>18.0</ele><time>2026-04-24T10:04:28Z</time></trkpt><trkpt lat="44.81365220462829" lon="11.06207254083879"><ele>17.666666666666668</ele><time>2026-04-24T10:04:29Z</time></trkpt><trkpt lat="44.81353499184906" lon="11.062327934554412"><ele>17.333333333333336</ele><time>2026-04-24T10:04:30Z</time></trkpt><trkpt lat="44.813418406192156" lon="11.062580915043938"><ele>17.0</ele><time>2026-04-24T10:04:31Z</time></trkpt><trkpt lat="44.813300843082956" lon="11.06283871131799"><ele>17.0</ele><time>2026-04-24T10:04:32Z</time></trkpt><trkpt lat="44.81318242939322" lon="11.063097639349799"><ele>17.0</ele><time>2026-04-24T10:04:33Z</time></trkpt><trkpt lat="44.81306664117171" lon="11.063356253906377"><ele>17.0</ele><time>2026-04-24T10:04:34Z</time></trkpt><trkpt lat="44.81295279706427" lon="11.063612871784894"><ele>17.0</ele><time>2026-04-24T10:04:35Z</time></trkpt><trkpt lat="44.8128365473554" lon="11.063866726696842"><ele>17.0</ele><time>2026-04-24T10:04:36Z</time></trkpt><trkpt lat="44.81272216879142" lon="11.064123469840606"><ele>17.0</ele><time>2026-04-24T10:04:37Z</time></trkpt><trkpt lat="44.81260744293848" lon="11.064382152112113"><ele>17.0</ele><time>2026-04-24T10:04:38Z</time></trkpt><trkpt lat="44.81249630789965" lon="11.064640924397796"><ele>17.0</ele><time>2026-04-24T10:04:39Z</time></trkpt><trkpt lat="44.812385719198396" lon="11.06490019533679"><ele>17.0</ele><time>2026-04-24T10:04:40Z</time></trkpt><trkpt lat="44.81227168667666" lon="11.065162757203165"><ele>16.333333333333336</ele><time>2026-04-24T10:04:41Z</time></trkpt><trkpt lat="44.81216016883211" lon="11.065426394569377"><ele>15.666666666666668</ele><time>2026-04-24T10:04:42Z</time></trkpt><trkpt lat="44.81205025530183" lon="11.065684939568664"><ele>15.0</ele><time>2026-04-24T10:04:43Z</time></trkpt><trkpt lat="44.81194139535438" lon="11.065946179948453"><ele>15.0</ele><time>2026-04-24T10:04:44Z</time></trkpt><trkpt lat="44.81182712353367" lon="11.06620592888337"><ele>15.0</ele><time>2026-04-24T10:04:45Z</time></trkpt><trkpt lat="44.8117141843917" lon="11.066471733033346"><ele>15.0</ele><time>2026-04-24T10:04:46Z</time></trkpt><trkpt lat="44.811602100312875" lon="11.066732044749141"><ele>15.0</ele><time>2026-04-24T10:04:47Z</time></trkpt><trkpt lat="44.81149435123602" lon="11.066990991115977"><ele>15.0</ele><time>2026-04-24T10:04:48Z</time></trkpt><trkpt lat="44.81138687212161" lon="11.067253759998012"><ele>15.0</ele><time>2026-04-24T10:04:49Z</time></trkpt><trkpt lat="44.811281217319305" lon="11.067514440836145"><ele>15.0</ele><time>2026-04-24T10:04:50Z</time></trkpt><trkpt lat="44.81117156881199" lon="11.067776335576646"><ele>15.0</ele><time>2026-04-24T10:04:51Z</time></trkpt><trkpt lat="44.81106044126287" lon="11.068036193734018"><ele>15.0</ele><time>2026-04-24T10:04:52Z</time></trkpt><trkpt lat="44.81094899961186" lon="11.068300067741408"><ele>15.333333333333332</ele><time>2026-04-24T10:04:53Z</time></trkpt><trkpt lat="44.81084237671281" lon="11.068564597151516"><ele>15.666666666666666</ele><time>2026-04-24T10:04:54Z</time></trkpt><trkpt lat="44.810734548099234" lon="11.068825037107276"><ele>16.0</ele><time>2026-04-24T10:04:55Z</time></trkpt><trkpt lat="44.81062621011641" lon="11.06908893206883"><ele>15.666666666666666</ele><time>2026-04-24T10:04:56Z</time></trkpt><trkpt lat="44.81051521227214" lon="11.069351939012753"><ele>15.333333333333332</ele><time>2026-04-24T10:04:57Z</time></trkpt><trkpt lat="44.81040130589382" lon="11.069614065348903"><ele>15.0</ele><time>2026-04-24T10:04:58Z</time></trkpt><trkpt lat="44.81028930832382" lon="11.069875140014627"><ele>15.0</ele><time>2026-04-24T10:04:59Z</time></trkpt><trkpt lat="44.81017779613118" lon="11.070135651390132"><ele>15.0</ele><time>2026-04-24T10:05:00Z</time></trkpt><trkpt lat="44.81006872917589" lon="11.070398679636712"><ele>15.0</ele><time>2026-04-24T10:05:01Z</time></trkpt><trkpt lat="44.809959666392515" lon="11.070660597113587"><ele>15.0</ele><time>2026-04-24T10:05:02Z</time></trkpt><trkpt lat="44.80985344504619" lon="11.070926723428501"><ele>15.0</ele><time>2026-04-24T10:05:03Z</time></trkpt><trkpt lat="44.8097474550578" lon="11.071189515322986"><ele>15.0</ele><time>2026-04-24T10:05:04Z</time></trkpt><trkpt lat="44.80963838461812" lon="11.071454306023563"><ele>15.333333333333332</ele><time>2026-04-24T10:05:05Z</time></trkpt><trkpt lat="44.80953213180062" lon="11.07171900923995"><ele>15.666666666666666</ele><time>2026-04-24T10:05:06Z</time></trkpt><trkpt lat="44.80943253078274" lon="11.071989640273054"><ele>16.0</ele><time>2026-04-24T10:05:07Z</time></trkpt><trkpt lat="44.809345034779504" lon="11.072265587884763"><ele>16.0</ele><time>2026-04-24T10:05:08Z</time></trkpt><trkpt lat="44.809270133085356" lon="11.072554039170969"><ele>16.0</ele><time>2026-04-24T10:05:09Z</time></trkpt><trkpt lat="44.809210501207275" lon="11.07284817106007"><ele>16.0</ele><time>2026-04-24T10:05:10Z</time></trkpt><trkpt lat="44.80915578721305" lon="11.07313764034281"><ele>15.666666666666666</ele><time>2026-04-24T10:05:11Z</time></trkpt><trkpt lat="44.80910005891597" lon="11.073428526039304"><ele>15.333333333333332</ele><time>2026-04-24T10:05:12Z</time></trkpt><trkpt lat="44.80903866263397" lon="11.073715442085332"><ele>15.0</ele><time>2026-04-24T10:05:13Z</time></trkpt><trkpt lat="44.80897655819111" lon="11.074003874784582"><ele>14.666666666666668</ele><time>2026-04-24T10:05:14Z</time></trkpt><trkpt lat="44.80891724464301" lon="11.07429730566304"><ele>14.333333333333334</ele><time>2026-04-24T10:05:15Z</time></trkpt><trkpt lat="44.80885608326028" lon="11.074592443106106"><ele>14.0</ele><time>2026-04-24T10:05:16Z</time></trkpt><trkpt lat="44.80879401030813" lon="11.07488697490743"><ele>14.333333333333334</ele><time>2026-04-24T10:05:17Z</time></trkpt><trkpt lat="44.8087349033827" lon="11.07518331524779"><ele>14.666666666666668</ele><time>2026-04-24T10:05:18Z</time></trkpt><trkpt lat="44.80868567383982" lon="11.075479792483387"><ele>15.0</ele><time>2026-04-24T10:05:19Z</time></trkpt><trkpt lat="44.80864830651191" lon="11.075778809113082"><ele>15.333333333333332</ele><time>2026-04-24T10:05:20Z</time></trkpt><trkpt lat="44.80863025652451" lon="11.076079260000101"><ele>15.666666666666666</ele><time>2026-04-24T10:05:21Z</time></trkpt><trkpt lat="44.80862498602285" lon="11.076379795678454"><ele>16.0</ele><time>2026-04-24T10:05:22Z</time></trkpt><trkpt lat="44.80862475651859" lon="11.076683633709079"><ele>16.333333333333332</ele><time>2026-04-24T10:05:23Z</time></trkpt><trkpt lat="44.80862860914693" lon="11.076991020352365"><ele>16.666666666666668</ele><time>2026-04-24T10:05:24Z</time></trkpt><trkpt lat="44.808631703109214" lon="11.077295972028981"><ele>17.0</ele><time>2026-04-24T10:05:25Z</time></trkpt><trkpt lat="44.80863336624669" lon="11.077602763793914"><ele>16.333333333333336</ele><time>2026-04-24T10:05:26Z</time></trkpt><trkpt lat="44.80863744102818" lon="11.0779088811521"><ele>15.666666666666668</ele><time>2026-04-24T10:05:27Z</time></trkpt><trkpt lat="44.8086328997564" lon="11.078214115038165"><ele>15.0</ele><time>2026-04-24T10:05:28Z</time></trkpt><trkpt lat="44.80861672790416" lon="11.078517641261609"><ele>14.666666666666668</ele><time>2026-04-24T10:05:29Z</time></trkpt><trkpt lat="44.80858187196156" lon="11.078816610223395"><ele>14.333333333333334</ele><time>2026-04-24T10:05:30Z</time></trkpt><trkpt lat="44.80853178533054" lon="11.07911291046323"><ele>14.0</ele><time>2026-04-24T10:05:31Z</time></trkpt><trkpt lat="44.808469412462074" lon="11.079404404166755"><ele>14.0</ele><time>2026-04-24T10:05:32Z</time></trkpt><trkpt lat="44.808402417946304" lon="11.079692909836096"><ele>14.0</ele><time>2026-04-24T10:05:33Z</time></trkpt><trkpt lat="44.80834194081989" lon="11.079983204835933"><ele>14.0</ele><time>2026-04-24T10:05:34Z</time></trkpt><trkpt lat="44.808283175944375" lon="11.080274871114893"><ele>14.0</ele><time>2026-04-24T10:05:35Z</time></trkpt><trkpt lat="44.808222773076885" lon="11.080567710939526"><ele>14.0</ele><time>2026-04-24T10:05:36Z</time></trkpt><trkpt lat="44.808163602899704" lon="11.080863829987683"><ele>14.0</ele><time>2026-04-24T10:05:37Z</time></trkpt><trkpt lat="44.80811054130401" lon="11.081163170423924"><ele>14.0</ele><time>2026-04-24T10:05:38Z</time></trkpt><trkpt lat="44.808066467548905" lon="11.08146281528418"><ele>14.0</ele><time>2026-04-24T10:05:39Z</time></trkpt><trkpt lat="44.808023211862924" lon="11.081761116567359"><ele>14.0</ele><time>2026-04-24T10:05:40Z</time></trkpt><trkpt lat="44.8079825030782" lon="11.082062603336217"><ele>14.333333333333334</ele><time>2026-04-24T10:05:41Z</time></trkpt><trkpt lat="44.80794480716171" lon="11.08236064434788"><ele>14.666666666666668</ele><time>2026-04-24T10:05:42Z</time></trkpt><trkpt lat="44.807903727231334" lon="11.082656495835783"><ele>15.0</ele><time>2026-04-24T10:05:43Z</time></trkpt><trkpt lat="44.80786229043826" lon="11.082955249162506"><ele>15.333333333333332</ele><time>2026-04-24T10:05:44Z</time></trkpt><trkpt lat="44.80780361546677" lon="11.08324846545036"><ele>15.666666666666666</ele><time>2026-04-24T10:05:45Z</time></trkpt><trkpt lat="44.80775912340866" lon="11.083547374520222"><ele>16.0</ele><time>2026-04-24T10:05:46Z</time></trkpt><trkpt lat="44.807709420825915" lon="11.083844082584347"><ele>16.0</ele><time>2026-04-24T10:05:47Z</time></trkpt><trkpt lat="44.80764994984846" lon="11.084136330721208"><ele>16.0</ele><time>2026-04-24T10:05:48Z</time></trkpt><trkpt lat="44.80758253878204" lon="11.084427711321974"><ele>16.0</ele><time>2026-04-24T10:05:49Z</time></trkpt><trkpt lat="44.80751347277292" lon="11.084717827766978"><ele>15.666666666666666</ele><time>2026-04-24T10:05:50Z</time></trkpt><trkpt lat="44.80744180978324" lon="11.085005721689939"><ele>15.333333333333332</ele><time>2026-04-24T10:05:51Z</time></trkpt><trkpt lat="44.8073695723476" lon="11.085291525194245"><ele>15.0</ele><time>2026-04-24T10:05:52Z</time></trkpt><trkpt lat="44.80729546382546" lon="11.085576162877121"><ele>15.333333333333332</ele><time>2026-04-24T10:05:53Z</time></trkpt><trkpt lat="44.80722385985592" lon="11.08584316316096"><ele>15.666666666666666</ele><time>2026-04-24T10:05:54Z</time></trkpt><trkpt lat="44.8071564755128" lon="11.086079616869874"><ele>16.0</ele><time>2026-04-24T10:05:55Z</time></trkpt><trkpt lat="44.8070843687615" lon="11.08630726042038"><ele>16.0</ele><time>2026-04-24T10:05:56Z</time></trkpt><trkpt lat="44.80700728417368" lon="11.08653894602921"><ele>16.0</ele><time>2026-04-24T10:05:57Z</time></trkpt><trkpt lat="44.806930867454604" lon="11.086768624311345"><ele>16.0</ele><time>2026-04-24T10:05:58Z</time></trkpt><trkpt lat="44.80685015579188" lon="11.087000912773151"><ele>16.0</ele><time>2026-04-24T10:05:59Z</time></trkpt><trkpt lat="44.80676691571339" lon="11.087240528365095"><ele>16.0</ele><time>2026-04-24T10:06:00Z</time></trkpt><trkpt lat="44.80667978420725" lon="11.087488612736498"><ele>16.0</ele><time>2026-04-24T10:06:01Z</time></trkpt><trkpt lat="44.80658947731722" lon="11.087745628570849"><ele>16.0</ele><time>2026-04-24T10:06:02Z</time></trkpt><trkpt lat="44.806498386509794" lon="11.088007258907087"><ele>16.0</ele><time>2026-04-24T10:06:03Z</time></trkpt><trkpt lat="44.80640547800135" lon="11.088275967684668"><ele>16.0</ele><time>2026-04-24T10:06:04Z</time></trkpt><trkpt lat="44.80631048792618" lon="11.088550696742153"><ele>16.0</ele><time>2026-04-24T10:06:05Z</time></trkpt><trkpt lat="44.80621077873361" lon="11.088836531791829"><ele>16.0</ele><time>2026-04-24T10:06:06Z</time></trkpt><trkpt lat="44.806106934319295" lon="11.089130878816059"><ele>15.333333333333332</ele><time>2026-04-24T10:06:07Z</time></trkpt><trkpt lat="44.80601304315747" lon="11.08941665617756"><ele>14.666666666666668</ele><time>2026-04-24T10:06:08Z</time></trkpt><trkpt lat="44.80593297816144" lon="11.089684920287052"><ele>14.0</ele><time>2026-04-24T10:06:09Z</time></trkpt><trkpt lat="44.80586230489532" lon="11.089943080243662"><ele>14.0</ele><time>2026-04-24T10:06:10Z</time></trkpt><trkpt lat="44.80580102223832" lon="11.090204252495976"><ele>14.0</ele><time>2026-04-24T10:06:11Z</time></trkpt><trkpt lat="44.805730868135655" lon="11.090458203403095"><ele>14.0</ele><time>2026-04-24T10:06:12Z</time></trkpt><trkpt lat="44.805668147726095" lon="11.090712692390365"><ele>14.333333333333334</ele><time>2026-04-24T10:06:13Z</time></trkpt><trkpt lat="44.805583125581755" lon="11.090975873531205"><ele>14.666666666666668</ele><time>2026-04-24T10:06:14Z</time></trkpt><trkpt lat="44.80550972457622" lon="11.091249106240863"><ele>15.0</ele><time>2026-04-24T10:06:15Z</time></trkpt><trkpt lat="44.80543988746005" lon="11.091509072494981"><ele>15.0</ele><time>2026-04-24T10:06:16Z</time></trkpt><trkpt lat="44.805387177050946" lon="11.09176912676741"><ele>15.0</ele><time>2026-04-24T10:06:17Z</time></trkpt><trkpt lat="44.80531998040129" lon="11.092021313040947"><ele>15.0</ele><time>2026-04-24T10:06:18Z</time></trkpt><trkpt lat="44.805234846975246" lon="11.092272328621432"><ele>15.0</ele><time>2026-04-24T10:06:19Z</time></trkpt><trkpt lat="44.80516325960942" lon="11.092538810117873"><ele>15.0</ele><time>2026-04-24T10:06:20Z</time></trkpt><trkpt lat="44.805106079501016" lon="11.092814502605647"><ele>15.0</ele><time>2026-04-24T10:06:21Z</time></trkpt><trkpt lat="44.80503052777116" lon="11.093081193402144"><ele>15.0</ele><time>2026-04-24T10:06:22Z</time></trkpt><trkpt lat="44.80495496865435" lon="11.09334758570355"><ele>15.0</ele><time>2026-04-24T10:06:23Z</time></trkpt><trkpt lat="44.804880216060475" lon="11.093612384937195"><ele>15.0</ele><time>2026-04-24T10:06:24Z</time></trkpt><trkpt lat="44.80480243136336" lon="11.09387957050666"><ele>15.0</ele><time>2026-04-24T10:06:25Z</time></trkpt><trkpt lat="44.80472971727878" lon="11.09414307821931"><ele>15.0</ele><time>2026-04-24T10:06:26Z</time></trkpt><trkpt lat="44.80465887246198" lon="11.094410643434118"><ele>15.0</ele><time>2026-04-24T10:06:27Z</time></trkpt><trkpt lat="44.80459211276349" lon="11.09467477603405"><ele>15.0</ele><time>2026-04-24T10:06:28Z</time></trkpt><trkpt lat="44.80452182729096" lon="11.094937342696753"><ele>15.0</ele><time>2026-04-24T10:06:29Z</time></trkpt><trkpt lat="44.804452619681" lon="11.095205714672264"><ele>15.0</ele><time>2026-04-24T10:06:30Z</time></trkpt><trkpt lat="44.804381690567375" lon="11.095474503754545"><ele>15.333333333333332</ele><time>2026-04-24T10:06:31Z</time></trkpt><trkpt lat="44.80430719329714" lon="11.095743327992306"><ele>15.666666666666666</ele><time>2026-04-24T10:06:32Z</time></trkpt><trkpt lat="44.804234208029705" lon="11.09601152110377"><ele>16.0</ele><time>2026-04-24T10:06:33Z</time></trkpt><trkpt lat="44.80416290248443" lon="11.096277586776523"><ele>16.0</ele><time>2026-04-24T10:06:34Z</time></trkpt><trkpt lat="44.80409139523616" lon="11.096546190861455"><ele>16.0</ele><time>2026-04-24T10:06:35Z</time></trkpt><trkpt lat="44.804020418307495" lon="11.09681477158049"><ele>16.0</ele><time>2026-04-24T10:06:36Z</time></trkpt><trkpt lat="44.80395131439793" lon="11.097082444711857"><ele>16.0</ele><time>2026-04-24T10:06:37Z</time></trkpt><trkpt lat="44.80387988630503" lon="11.097348143495491"><ele>16.0</ele><time>2026-04-24T10:06:38Z</time></trkpt><trkpt lat="44.80380652752741" lon="11.097614133947122"><ele>16.0</ele><time>2026-04-24T10:06:39Z</time></trkpt><trkpt lat="44.80373203507787" lon="11.097877723355312"><ele>16.0</ele><time>2026-04-24T10:06:40Z</time></trkpt><trkpt lat="44.80365816471269" lon="11.098144415764219"><ele>16.0</ele><time>2026-04-24T10:06:41Z</time></trkpt><trkpt lat="44.80358622039375" lon="11.098412301097266"><ele>16.0</ele><time>2026-04-24T10:06:42Z</time></trkpt><trkpt lat="44.80351604695161" lon="11.098677139353502"><ele>15.333333333333332</ele><time>2026-04-24T10:06:43Z</time></trkpt><trkpt lat="44.80344377427025" lon="11.098945704087988"><ele>14.666666666666668</ele><time>2026-04-24T10:06:44Z</time></trkpt><trkpt lat="44.803372285803746" lon="11.099214448361971"><ele>14.0</ele><time>2026-04-24T10:06:45Z</time></trkpt><trkpt lat="44.803302400319865" lon="11.099484770708841"><ele>14.0</ele><time>2026-04-24T10:06:46Z</time></trkpt><trkpt lat="44.80322907911308" lon="11.099752919196046"><ele>14.0</ele><time>2026-04-24T10:06:47Z</time></trkpt><trkpt lat="44.803157717110814" lon="11.100016388208076"><ele>14.0</ele><time>2026-04-24T10:06:48Z</time></trkpt><trkpt lat="44.80308879723971" lon="11.1002821421681"><ele>14.0</ele><time>2026-04-24T10:06:49Z</time></trkpt><trkpt lat="44.80301443202285" lon="11.100547165905237"><ele>14.0</ele><time>2026-04-24T10:06:50Z</time></trkpt><trkpt lat="44.80294144424811" lon="11.100817816211245"><ele>14.0</ele><time>2026-04-24T10:06:51Z</time></trkpt><trkpt lat="44.80287288461057" lon="11.101087080449519"><ele>14.0</ele><time>2026-04-24T10:06:52Z</time></trkpt><trkpt lat="44.80280208621471" lon="11.10135855985656"><ele>14.0</ele><time>2026-04-24T10:06:53Z</time></trkpt><trkpt lat="44.80273323635584" lon="11.101625721094951"><ele>14.0</ele><time>2026-04-24T10:06:54Z</time></trkpt><trkpt lat="44.80266064487964" lon="11.101891820626006"><ele>14.333333333333334</ele><time>2026-04-24T10:06:55Z</time></trkpt><trkpt lat="44.80258857319832" lon="11.102158501122325"><ele>14.666666666666668</ele><time>2026-04-24T10:06:56Z</time></trkpt><trkpt lat="44.802517238621284" lon="11.102425090975123"><ele>15.0</ele><time>2026-04-24T10:06:57Z</time></trkpt><trkpt lat="44.80244497141303" lon="11.102692642667915"><ele>15.0</ele><time>2026-04-24T10:06:58Z</time></trkpt><trkpt lat="44.8023735998781" lon="11.102960590188662"><ele>15.0</ele><time>2026-04-24T10:06:59Z</time></trkpt><trkpt lat="44.80230043879079" lon="11.103226159728624"><ele>15.0</ele><time>2026-04-24T10:07:00Z</time></trkpt><trkpt lat="44.80222814584372" lon="11.103491296643464"><ele>15.0</ele><time>2026-04-24T10:07:01Z</time></trkpt><trkpt lat="44.80215319634429" lon="11.10375601279219"><ele>15.0</ele><time>2026-04-24T10:07:02Z</time></trkpt><trkpt lat="44.8020812799436" lon="11.104023767965181"><ele>15.0</ele><time>2026-04-24T10:07:03Z</time></trkpt><trkpt lat="44.802011543914325" lon="11.104290851282734"><ele>15.666666666666668</ele><time>2026-04-24T10:07:04Z</time></trkpt><trkpt lat="44.80194246694773" lon="11.10456233065085"><ele>16.333333333333336</ele><time>2026-04-24T10:07:05Z</time></trkpt><trkpt lat="44.801871438707664" lon="11.104830581960693"><ele>17.0</ele><time>2026-04-24T10:07:06Z</time></trkpt><trkpt lat="44.8018002646454" lon="11.105097877678189"><ele>17.0</ele><time>2026-04-24T10:07:07Z</time></trkpt><trkpt lat="44.80173048925392" lon="11.10536467614177"><ele>17.0</ele><time>2026-04-24T10:07:08Z</time></trkpt><trkpt lat="44.80166348117891" lon="11.105611281586507"><ele>17.0</ele><time>2026-04-24T10:07:09Z</time></trkpt><trkpt lat="44.80159511346871" lon="11.105852723934552"><ele>17.0</ele><time>2026-04-24T10:07:10Z</time></trkpt><trkpt lat="44.80152260827718" lon="11.106106861518874"><ele>17.0</ele><time>2026-04-24T10:07:11Z</time></trkpt><trkpt lat="44.80145249239831" lon="11.106369205784643"><ele>17.0</ele><time>2026-04-24T10:07:12Z</time></trkpt><trkpt lat="44.80138797002742" lon="11.10662517326451"><ele>16.666666666666668</ele><time>2026-04-24T10:07:13Z</time></trkpt><trkpt lat="44.80132359924562" lon="11.106871204560326"><ele>16.333333333333332</ele><time>2026-04-24T10:07:14Z</time></trkpt><trkpt lat="44.80125890039414" lon="11.107116632954886"><ele>16.0</ele><time>2026-04-24T10:07:15Z</time></trkpt><trkpt lat="44.80119375222038" lon="11.107360090680157"><ele>16.0</ele><time>2026-04-24T10:07:16Z</time></trkpt><trkpt lat="44.80112782558662" lon="11.107600860251829"><ele>16.0</ele><time>2026-04-24T10:07:17Z</time></trkpt><trkpt lat="44.80106183815463" lon="11.107840566795488"><ele>16.0</ele><time>2026-04-24T10:07:18Z</time></trkpt><trkpt lat="44.80099814305511" lon="11.108073880410924"><ele>15.666666666666666</ele><time>2026-04-24T10:07:19Z</time></trkpt><trkpt lat="44.80093217015573" lon="11.10830866739541"><ele>15.333333333333332</ele><time>2026-04-24T10:07:20Z</time></trkpt><trkpt lat="44.80086598358141" lon="11.10855587265721"><ele>15.0</ele><time>2026-04-24T10:07:21Z</time></trkpt><trkpt lat="44.80079657245697" lon="11.108807629148192"><ele>15.0</ele><time>2026-04-24T10:07:22Z</time></trkpt><trkpt lat="44.80073239926091" lon="11.109050575957363"><ele>15.0</ele><time>2026-04-24T10:07:23Z</time></trkpt><trkpt lat="44.80067152512266" lon="11.109280920055594"><ele>15.0</ele><time>2026-04-24T10:07:24Z</time></trkpt><trkpt lat="44.800606429389596" lon="11.109517065745498"><ele>14.666666666666668</ele><time>2026-04-24T10:07:25Z</time></trkpt><trkpt lat="44.80054175010977" lon="11.10975588816125"><ele>14.333333333333334</ele><time>2026-04-24T10:07:26Z</time></trkpt><trkpt lat="44.80048033662819" lon="11.11000490225823"><ele>14.0</ele><time>2026-04-24T10:07:27Z</time></trkpt><trkpt lat="44.80041741722468" lon="11.110274093818331"><ele>14.0</ele><time>2026-04-24T10:07:28Z</time></trkpt><trkpt lat="44.80034809319785" lon="11.110549291921563"><ele>14.0</ele><time>2026-04-24T10:07:29Z</time></trkpt><trkpt lat="44.80027328864024" lon="11.110822280635912"><ele>14.0</ele><time>2026-04-24T10:07:30Z</time></trkpt><trkpt lat="44.800197253505246" lon="11.111092731061179"><ele>14.333333333333334</ele><time>2026-04-24T10:07:31Z</time></trkpt><trkpt lat="44.80012290248984" lon="11.111353630251756"><ele>14.666666666666668</ele><time>2026-04-24T10:07:32Z</time></trkpt><trkpt lat="44.80004936631126" lon="11.111601820119219"><ele>15.0</ele><time>2026-04-24T10:07:33Z</time></trkpt><trkpt lat="44.79997926977032" lon="11.111847328423488"><ele>15.333333333333332</ele><time>2026-04-24T10:07:34Z</time></trkpt><trkpt lat="44.79991125263456" lon="11.112087925826037"><ele>15.666666666666666</ele><time>2026-04-24T10:07:35Z</time></trkpt><trkpt lat="44.79984178438912" lon="11.112325556328772"><ele>16.0</ele><time>2026-04-24T10:07:36Z</time></trkpt><trkpt lat="44.79976315327065" lon="11.11256139080733"><ele>16.0</ele><time>2026-04-24T10:07:37Z</time></trkpt><trkpt lat="44.79967050402337" lon="11.112802645419883"><ele>16.0</ele><time>2026-04-24T10:07:38Z</time></trkpt><trkpt lat="44.79956474308516" lon="11.113048024382957"><ele>16.0</ele><time>2026-04-24T10:07:39Z</time></trkpt><trkpt lat="44.79945174479316" lon="11.113291186788352"><ele>15.333333333333332</ele><time>2026-04-24T10:07:40Z</time></trkpt><trkpt lat="44.799312329082944" lon="11.113515839875715"><ele>14.666666666666668</ele><time>2026-04-24T10:07:41Z</time></trkpt><trkpt lat="44.799194089769486" lon="11.113763392358745"><ele>14.0</ele><time>2026-04-24T10:07:42Z</time></trkpt><trkpt lat="44.79907461195579" lon="11.114011271845502"><ele>14.333333333333334</ele><time>2026-04-24T10:07:43Z</time></trkpt><trkpt lat="44.79895696299515" lon="11.114255358001236"><ele>14.666666666666668</ele><time>2026-04-24T10:07:44Z</time></trkpt><trkpt lat="44.7988422218067" lon="11.114493410591804"><ele>15.0</ele><time>2026-04-24T10:07:45Z</time></trkpt><trkpt lat="44.79873004427559" lon="11.114726144473838"><ele>15.0</ele><time>2026-04-24T10:07:46Z</time></trkpt><trkpt lat="44.79862213249128" lon="11.114950027266381"><ele>15.0</ele><time>2026-04-24T10:07:47Z</time></trkpt><trkpt lat="44.798515865096164" lon="11.115170499635804"><ele>15.0</ele><time>2026-04-24T10:07:48Z</time></trkpt><trkpt lat="44.7984094697917" lon="11.115391237093109"><ele>14.666666666666668</ele><time>2026-04-24T10:07:49Z</time></trkpt><trkpt lat="44.79830216671998" lon="11.115613857659065"><ele>14.333333333333334</ele><time>2026-04-24T10:07:50Z</time></trkpt><trkpt lat="44.79819545827724" lon="11.11583680080211"><ele>14.0</ele><time>2026-04-24T10:07:51Z</time></trkpt><trkpt lat="44.79808789446941" lon="11.116062348146954"><ele>13.666666666666668</ele><time>2026-04-24T10:07:52Z</time></trkpt><trkpt lat="44.79797485044967" lon="11.116299387110832"><ele>13.333333333333332</ele><time>2026-04-24T10:07:53Z</time></trkpt><trkpt lat="44.79785889655281" lon="11.116542291687248"><ele>13.0</ele><time>2026-04-24T10:07:54Z</time></trkpt><trkpt lat="44.79774596725079" lon="11.116777472845714"><ele>13.333333333333332</ele><time>2026-04-24T10:07:55Z</time></trkpt><trkpt lat="44.7976371620861" lon="11.117004065978891"><ele>13.666666666666668</ele><time>2026-04-24T10:07:56Z</time></trkpt><trkpt lat="44.79755016464538" lon="11.117251141424145"><ele>14.0</ele><time>2026-04-24T10:07:57Z</time></trkpt><trkpt lat="44.79743857037463" lon="11.1174668890852"><ele>14.333333333333334</ele><time>2026-04-24T10:07:58Z</time></trkpt><trkpt lat="44.7973351567489" lon="11.117672257352492"><ele>14.666666666666668</ele><time>2026-04-24T10:07:59Z</time></trkpt><trkpt lat="44.79723497572394" lon="11.117866708230624"><ele>15.0</ele><time>2026-04-24T10:08:00Z</time></trkpt><trkpt lat="44.7971449205529" lon="11.11805696913608"><ele>14.666666666666668</ele><time>2026-04-24T10:08:01Z</time></trkpt><trkpt lat="44.79705576506284" lon="11.11825116312732"><ele>14.333333333333334</ele><time>2026-04-24T10:08:02Z</time></trkpt><trkpt lat="44.79696658027699" lon="11.118442762808371"><ele>14.0</ele><time>2026-04-24T10:08:03Z</time></trkpt><trkpt lat="44.79687813383627" lon="11.118630933427287"><ele>14.666666666666668</ele><time>2026-04-24T10:08:04Z</time></trkpt><trkpt lat="44.796786393215825" lon="11.118814952075484"><ele>15.333333333333332</ele><time>2026-04-24T10:08:05Z</time></trkpt><trkpt lat="44.79669378834686" lon="11.119007094813098"><ele>16.0</ele><time>2026-04-24T10:08:06Z</time></trkpt><trkpt lat="44.79660296146468" lon="11.119198420463723"><ele>16.333333333333332</ele><time>2026-04-24T10:08:07Z</time></trkpt><trkpt lat="44.79651746557428" lon="11.119377324114483"><ele>16.666666666666668</ele><time>2026-04-24T10:08:08Z</time></trkpt><trkpt lat="44.796428944149554" lon="11.119560608305827"><ele>17.0</ele><time>2026-04-24T10:08:09Z</time></trkpt><trkpt lat="44.796334167612926" lon="11.119753026568098"><ele>17.333333333333336</ele><time>2026-04-24T10:08:10Z</time></trkpt><trkpt lat="44.79624031623442" lon="11.119943193044707"><ele>17.666666666666668</ele><time>2026-04-24T10:08:11Z</time></trkpt><trkpt lat="44.79614857471712" lon="11.120133436454221"><ele>18.0</ele><time>2026-04-24T10:08:12Z</time></trkpt><trkpt lat="44.796059836493484" lon="11.1203097899679"><ele>17.333333333333332</ele><time>2026-04-24T10:08:13Z</time></trkpt><trkpt lat="44.79596816010475" lon="11.120495978587194"><ele>16.666666666666664</ele><time>2026-04-24T10:08:14Z</time></trkpt><trkpt lat="44.795867274590755" lon="11.120699066762198"><ele>16.0</ele><time>2026-04-24T10:08:15Z</time></trkpt><trkpt lat="44.79576506685411" lon="11.120903921950553"><ele>15.666666666666666</ele><time>2026-04-24T10:08:16Z</time></trkpt><trkpt lat="44.795671646431686" lon="11.121100547239827"><ele>15.333333333333332</ele><time>2026-04-24T10:08:17Z</time></trkpt><trkpt lat="44.795561379630236" lon="11.121296005315411"><ele>15.0</ele><time>2026-04-24T10:08:18Z</time></trkpt><trkpt lat="44.79545773620362" lon="11.12152298300744"><ele>15.0</ele><time>2026-04-24T10:08:19Z</time></trkpt><trkpt lat="44.79535292644673" lon="11.121760571505572"><ele>15.0</ele><time>2026-04-24T10:08:20Z</time></trkpt><trkpt lat="44.79524761657264" lon="11.122004751184985"><ele>15.0</ele><time>2026-04-24T10:08:21Z</time></trkpt><trkpt lat="44.79515753897587" lon="11.122251167127194"><ele>15.333333333333332</ele><time>2026-04-24T10:08:22Z</time></trkpt><trkpt lat="44.795058795457265" lon="11.122493294963721"><ele>15.666666666666666</ele><time>2026-04-24T10:08:23Z</time></trkpt><trkpt lat="44.79494104478963" lon="11.12273100615402"><ele>16.0</ele><time>2026-04-24T10:08:24Z</time></trkpt><trkpt lat="44.79483530986371" lon="11.122984737742842"><ele>15.666666666666666</ele><time>2026-04-24T10:08:25Z</time></trkpt><trkpt lat="44.79472801807152" lon="11.123242205418515"><ele>15.333333333333332</ele><time>2026-04-24T10:08:26Z</time></trkpt><trkpt lat="44.79462026076632" lon="11.12350079010829"><ele>15.0</ele><time>2026-04-24T10:08:27Z</time></trkpt><trkpt lat="44.79451074390269" lon="11.123763597242236"><ele>15.0</ele><time>2026-04-24T10:08:28Z</time></trkpt><trkpt lat="44.79440067208705" lon="11.124027737069463"><ele>15.0</ele><time>2026-04-24T10:08:29Z</time></trkpt><trkpt lat="44.79429043235247" lon="11.124292278735464"><ele>15.0</ele><time>2026-04-24T10:08:30Z</time></trkpt><trkpt lat="44.794182264896" lon="11.124551847844966"><ele>15.333333333333332</ele><time>2026-04-24T10:08:31Z</time></trkpt><trkpt lat="44.79407275010986" lon="11.124814649850334"><ele>15.666666666666666</ele><time>2026-04-24T10:08:32Z</time></trkpt><trkpt lat="44.79397661758615" lon="11.125092725748845"><ele>16.0</ele><time>2026-04-24T10:08:33Z</time></trkpt><trkpt lat="44.79386215501283" lon="11.125348665874427"><ele>16.333333333333332</ele><time>2026-04-24T10:08:34Z</time></trkpt><trkpt lat="44.79375063974775" lon="11.125605964928287"><ele>16.666666666666668</ele><time>2026-04-24T10:08:35Z</time></trkpt><trkpt lat="44.79364351716241" lon="11.125861548650382"><ele>17.0</ele><time>2026-04-24T10:08:36Z</time></trkpt><trkpt lat="44.79353573943538" lon="11.126118108656303"><ele>17.0</ele><time>2026-04-24T10:08:37Z</time></trkpt><trkpt lat="44.793427310281146" lon="11.126369601125178"><ele>17.0</ele><time>2026-04-24T10:08:38Z</time></trkpt><trkpt lat="44.79332049730676" lon="11.126621449688152"><ele>17.0</ele><time>2026-04-24T10:08:39Z</time></trkpt><trkpt lat="44.79321756057932" lon="11.126873243536455"><ele>17.0</ele><time>2026-04-24T10:08:40Z</time></trkpt><trkpt lat="44.79311459381978" lon="11.12712291749814"><ele>17.0</ele><time>2026-04-24T10:08:41Z</time></trkpt><trkpt lat="44.7930121940602" lon="11.127370279559631"><ele>17.0</ele><time>2026-04-24T10:08:42Z</time></trkpt><trkpt lat="44.792912242688274" lon="11.12761568934917"><ele>17.0</ele><time>2026-04-24T10:08:43Z</time></trkpt><trkpt lat="44.79281501337698" lon="11.127856180326077"><ele>17.0</ele><time>2026-04-24T10:08:44Z</time></trkpt><trkpt lat="44.79272036471104" lon="11.128084361579926"><ele>17.0</ele><time>2026-04-24T10:08:45Z</time></trkpt><trkpt lat="44.79262910518746" lon="11.128309830265437"><ele>16.333333333333336</ele><time>2026-04-24T10:08:46Z</time></trkpt><trkpt lat="44.79254096292591" lon="11.128522365805079"><ele>15.666666666666668</ele><time>2026-04-24T10:08:47Z</time></trkpt><trkpt lat="44.792458387933955" lon="11.128718971881625"><ele>15.0</ele><time>2026-04-24T10:08:48Z</time></trkpt><trkpt lat="44.79238339376854" lon="11.128906696782083"><ele>15.5</ele><time>2026-04-24T10:08:49Z</time></trkpt><trkpt lat="44.79231441670697" lon="11.12908123420462"><ele>16.0</ele><time>2026-04-24T10:08:50Z</time></trkpt><trkpt lat="44.79223740822883" lon="11.129225664138236"><ele>16.5</ele><time>2026-04-24T10:08:51Z</time></trkpt><trkpt lat="44.7921916702119" lon="11.129367395287979"><ele>17.0</ele><time>2026-04-24T10:08:52Z</time></trkpt><trkpt lat="44.79212716943971" lon="11.129455477170875"><ele>17.0</ele><time>2026-04-24T10:08:53Z</time></trkpt><trkpt lat="44.79205631301752" lon="11.129524400625094"><ele>17.0</ele><time>2026-04-24T10:08:54Z</time></trkpt><trkpt lat="44.791975560702696" lon="11.129587310125807"><ele>17.0</ele><time>2026-04-24T10:08:55Z</time></trkpt><trkpt lat="44.79189379202505" lon="11.129658147718352"><ele>17.0</ele><time>2026-04-24T10:08:56Z</time></trkpt><trkpt lat="44.79184571194151" lon="11.129794043998578"><ele>17.0</ele><time>2026-04-24T10:08:57Z</time></trkpt><trkpt lat="44.79186968825674" lon="11.129976658014732"><ele>16.5</ele><time>2026-04-24T10:08:58Z</time></trkpt><trkpt lat="44.79182924441972" lon="11.130144309572412"><ele>16.0</ele><time>2026-04-24T10:08:59Z</time></trkpt><trkpt lat="44.79181909615015" lon="11.130334116185242"><ele>15.5</ele><time>2026-04-24T10:09:00Z</time></trkpt><trkpt lat="44.79171600145275" lon="11.130492332163723"><ele>15.0</ele><time>2026-04-24T10:09:01Z</time></trkpt><trkpt lat="44.79164022431562" lon="11.13067218443889"><ele>15.0</ele><time>2026-04-24T10:09:02Z</time></trkpt><trkpt lat="44.791573977197025" lon="11.130869469806594"><ele>15.0</ele><time>2026-04-24T10:09:03Z</time></trkpt><trkpt lat="44.79148996708949" lon="11.131067073050014"><ele>15.0</ele><time>2026-04-24T10:09:04Z</time></trkpt><trkpt lat="44.791403643035245" lon="11.131278193161842"><ele>15.0</ele><time>2026-04-24T10:09:05Z</time></trkpt><trkpt lat="44.79131352919094" lon="11.131498870492287"><ele>15.0</ele><time>2026-04-24T10:09:06Z</time></trkpt><trkpt lat="44.79122263798381" lon="11.13171175832948"><ele>15.0</ele><time>2026-04-24T10:09:07Z</time></trkpt><trkpt lat="44.79113458545873" lon="11.1319243122529"><ele>15.333333333333332</ele><time>2026-04-24T10:09:08Z</time></trkpt><trkpt lat="44.791044900477246" lon="11.132139216212648"><ele>15.666666666666666</ele><time>2026-04-24T10:09:09Z</time></trkpt><trkpt lat="44.790953291147645" lon="11.132356824736622"><ele>16.0</ele><time>2026-04-24T10:09:10Z</time></trkpt><trkpt lat="44.79086209012109" lon="11.13257078026571"><ele>16.0</ele><time>2026-04-24T10:09:11Z</time></trkpt><trkpt lat="44.79077774101848" lon="11.132774077079722"><ele>16.0</ele><time>2026-04-24T10:09:12Z</time></trkpt><trkpt lat="44.79069698993775" lon="11.132966363488528"><ele>16.0</ele><time>2026-04-24T10:09:13Z</time></trkpt><trkpt lat="44.79061623169193" lon="11.13315397398775"><ele>16.333333333333332</ele><time>2026-04-24T10:09:14Z</time></trkpt><trkpt lat="44.79053307286334" lon="11.133343864299992"><ele>16.666666666666668</ele><time>2026-04-24T10:09:15Z</time></trkpt><trkpt lat="44.79045368840456" lon="11.133536215801232"><ele>17.0</ele><time>2026-04-24T10:09:16Z</time></trkpt><trkpt lat="44.790375920527666" lon="11.133730702346107"><ele>17.0</ele><time>2026-04-24T10:09:17Z</time></trkpt><trkpt lat="44.790297159266416" lon="11.133920659412672"><ele>17.0</ele><time>2026-04-24T10:09:18Z</time></trkpt><trkpt lat="44.79021943096409" lon="11.134113581033558"><ele>17.0</ele><time>2026-04-24T10:09:19Z</time></trkpt><trkpt lat="44.79014273181884" lon="11.134305304612333"><ele>17.333333333333336</ele><time>2026-04-24T10:09:20Z</time></trkpt><trkpt lat="44.79006532476165" lon="11.13449449596664"><ele>17.666666666666668</ele><time>2026-04-24T10:09:21Z</time></trkpt><trkpt lat="44.789988043379694" lon="11.134685450956878"><ele>18.0</ele><time>2026-04-24T10:09:22Z</time></trkpt><trkpt lat="44.78990912957221" lon="11.134860397705161"><ele>18.0</ele><time>2026-04-24T10:09:23Z</time></trkpt><trkpt lat="44.789843363924206" lon="11.135029913390383"><ele>18.0</ele><time>2026-04-24T10:09:24Z</time></trkpt><trkpt lat="44.789778960146755" lon="11.135187574605704"><ele>18.0</ele><time>2026-04-24T10:09:25Z</time></trkpt><trkpt lat="44.789717836072114" lon="11.135328618834784"><ele>18.0</ele><time>2026-04-24T10:09:26Z</time></trkpt><trkpt lat="44.78966755966414" lon="11.135441275643652"><ele>18.0</ele><time>2026-04-24T10:09:27Z</time></trkpt><trkpt lat="44.78962627440705" lon="11.135533038907184"><ele>18.0</ele><time>2026-04-24T10:09:28Z</time></trkpt><trkpt lat="44.7895612460075" lon="11.135644121247312"><ele>18.0</ele><time>2026-04-24T10:09:30Z</time></trkpt><trkpt lat="44.789494094034396" lon="11.135734106795383"><ele>18.0</ele><time>2026-04-24T10:09:32Z</time></trkpt><trkpt lat="44.78936449178262" lon="11.135682589864183"><ele>18.0</ele><time>2026-04-24T10:09:33Z</time></trkpt><trkpt lat="44.789260585287174" lon="11.135716276659915"><ele>18.0</ele><time>2026-04-24T10:09:34Z</time></trkpt><trkpt lat="44.78914283265833" lon="11.135721285259603"><ele>18.0</ele><time>2026-04-24T10:09:35Z</time></trkpt><trkpt lat="44.789011973049625" lon="11.135727021148682"><ele>18.0</ele><time>2026-04-24T10:09:36Z</time></trkpt><trkpt lat="44.788875807623626" lon="11.135740664732456"><ele>18.0</ele><time>2026-04-24T10:09:37Z</time></trkpt><trkpt lat="44.78873170398157" lon="11.13575840128975"><ele>18.0</ele><time>2026-04-24T10:09:38Z</time></trkpt><trkpt lat="44.78858141083901" lon="11.135777514480873"><ele>18.0</ele><time>2026-04-24T10:09:39Z</time></trkpt><trkpt lat="44.78843081144985" lon="11.135795617039538"><ele>18.0</ele><time>2026-04-24T10:09:40Z</time></trkpt><trkpt lat="44.788279495850496" lon="11.13580919675209"><ele>18.666666666666668</ele><time>2026-04-24T10:09:41Z</time></trkpt><trkpt lat="44.7881280291827" lon="11.135827939207243"><ele>19.333333333333336</ele><time>2026-04-24T10:09:42Z</time></trkpt><trkpt lat="44.787985079067155" lon="11.135839877343674"><ele>20.0</ele><time>2026-04-24T10:09:43Z</time></trkpt><trkpt lat="44.7877145214887" lon="11.13583834929471"><ele>20.0</ele><time>2026-04-24T10:09:45Z</time></trkpt><trkpt lat="44.78758543725419" lon="11.135821240259066"><ele>20.0</ele><time>2026-04-24T10:09:46Z</time></trkpt><trkpt lat="44.78745755417294" lon="11.13577062353948"><ele>20.0</ele><time>2026-04-24T10:09:47Z</time></trkpt><trkpt lat="44.78733983778035" lon="11.135664896276195"><ele>20.0</ele><time>2026-04-24T10:09:48Z</time></trkpt><trkpt lat="44.78722414948311" lon="11.13555058391567"><ele>19.666666666666668</ele><time>2026-04-24T10:09:49Z</time></trkpt><trkpt lat="44.78709649077206" lon="11.135439837739835"><ele>19.333333333333332</ele><time>2026-04-24T10:09:50Z</time></trkpt><trkpt lat="44.786980698562346" lon="11.135294788185373"><ele>19.0</ele><time>2026-04-24T10:09:51Z</time></trkpt><trkpt lat="44.786859252764124" lon="11.135152897047284"><ele>19.0</ele><time>2026-04-24T10:09:52Z</time></trkpt><trkpt lat="44.786737436743095" lon="11.13501930136829"><ele>19.0</ele><time>2026-04-24T10:09:53Z</time></trkpt><trkpt lat="44.78661378567248" lon="11.134893421935152"><ele>19.0</ele><time>2026-04-24T10:09:54Z</time></trkpt><trkpt lat="44.78649164475273" lon="11.134766280775912"><ele>19.25</ele><time>2026-04-24T10:09:55Z</time></trkpt><trkpt lat="44.78636788678255" lon="11.134641866034553"><ele>19.5</ele><time>2026-04-24T10:09:56Z</time></trkpt><trkpt lat="44.78624883968204" lon="11.134523034724108"><ele>19.75</ele><time>2026-04-24T10:09:57Z</time></trkpt><trkpt lat="44.786137021674314" lon="11.13440804959587"><ele>20.0</ele><time>2026-04-24T10:09:58Z</time></trkpt><trkpt lat="44.78603277306095" lon="11.134297543728934"><ele>20.0</ele><time>2026-04-24T10:09:59Z</time></trkpt><trkpt lat="44.78592949879182" lon="11.13419866001665"><ele>20.0</ele><time>2026-04-24T10:10:00Z</time></trkpt><trkpt lat="44.78582739327395" lon="11.13412496821953"><ele>20.0</ele><time>2026-04-24T10:10:01Z</time></trkpt><trkpt lat="44.78572140465885" lon="11.134056824207432"><ele>20.0</ele><time>2026-04-24T10:10:02Z</time></trkpt><trkpt lat="44.7856130553661" lon="11.134014502784572"><ele>20.0</ele><time>2026-04-24T10:10:03Z</time></trkpt><trkpt lat="44.785506215297616" lon="11.13400699883711"><ele>20.0</ele><time>2026-04-24T10:10:04Z</time></trkpt><trkpt lat="44.78540317111294" lon="11.134017171092447"><ele>20.0</ele><time>2026-04-24T10:10:05Z</time></trkpt><trkpt lat="44.78530936612959" lon="11.134043313982858"><ele>20.0</ele><time>2026-04-24T10:10:06Z</time></trkpt><trkpt lat="44.785224651193076" lon="11.13406473801998"><ele>20.0</ele><time>2026-04-24T10:10:07Z</time></trkpt><trkpt lat="44.785151568049066" lon="11.13408165182152"><ele>19.6</ele><time>2026-04-24T10:10:08Z</time></trkpt><trkpt lat="44.78505105237053" lon="11.134104314599758"><ele>19.2</ele><time>2026-04-24T10:10:10Z</time></trkpt><trkpt lat="44.78496514952635" lon="11.134095060613074"><ele>18.8</ele><time>2026-04-24T10:10:14Z</time></trkpt><trkpt lat="44.78489234759854" lon="11.134112192657238"><ele>18.4</ele><time>2026-04-24T10:10:17Z</time></trkpt><trkpt lat="44.78489191636659" lon="11.134326476136035"><ele>18.0</ele><time>2026-04-24T10:10:18Z</time></trkpt><trkpt lat="44.784889576913415" lon="11.134504390537803"><ele>18.0</ele><time>2026-04-24T10:10:20Z</time></trkpt><trkpt lat="44.78490054965698" lon="11.134628079384925"><ele>18.0</ele><time>2026-04-24T10:10:21Z</time></trkpt><trkpt lat="44.78490630319233" lon="11.134774839833865"><ele>18.0</ele><time>2026-04-24T10:10:22Z</time></trkpt><trkpt lat="44.78490535564362" lon="11.134940303620516"><ele>18.0</ele><time>2026-04-24T10:10:23Z</time></trkpt><trkpt lat="44.78489449039532" lon="11.13512375867221"><ele>18.0</ele><time>2026-04-24T10:10:24Z</time></trkpt><trkpt lat="44.784879248922145" lon="11.13530507622621"><ele>18.0</ele><time>2026-04-24T10:10:25Z</time></trkpt><trkpt lat="44.78486425673056" lon="11.135513635309167"><ele>18.0</ele><time>2026-04-24T10:10:26Z</time></trkpt><trkpt lat="44.784851829665264" lon="11.135732918430223"><ele>18.0</ele><time>2026-04-24T10:10:27Z</time></trkpt><trkpt lat="44.78484497105092" lon="11.135973941201858"><ele>18.0</ele><time>2026-04-24T10:10:28Z</time></trkpt><trkpt lat="44.78483090334305" lon="11.136189952739892"><ele>18.0</ele><time>2026-04-24T10:10:29Z</time></trkpt><trkpt lat="44.78481473389113" lon="11.13638120119113"><ele>18.0</ele><time>2026-04-24T10:10:30Z</time></trkpt><trkpt lat="44.784807843157246" lon="11.13657357959129"><ele>18.0</ele><time>2026-04-24T10:10:31Z</time></trkpt><trkpt lat="44.78480318808549" lon="11.136760575826296"><ele>18.0</ele><time>2026-04-24T10:10:32Z</time></trkpt><trkpt lat="44.784792622806485" lon="11.13693919358824"><ele>18.0</ele><time>2026-04-24T10:10:33Z</time></trkpt><trkpt lat="44.784777311694455" lon="11.137110435711142"><ele>18.0</ele><time>2026-04-24T10:10:34Z</time></trkpt><trkpt lat="44.7847649140222" lon="11.137280547782913"><ele>18.0</ele><time>2026-04-24T10:10:35Z</time></trkpt><trkpt lat="44.784756869251325" lon="11.137452619177683"><ele>18.0</ele><time>2026-04-24T10:10:36Z</time></trkpt><trkpt lat="44.78475094095398" lon="11.13761946027557"><ele>18.0</ele><time>2026-04-24T10:10:37Z</time></trkpt><trkpt lat="44.78474269258003" lon="11.13777592827063"><ele>18.0</ele><time>2026-04-24T10:10:38Z</time></trkpt><trkpt lat="44.78473307594535" lon="11.137928015319405"><ele>18.0</ele><time>2026-04-24T10:10:39Z</time></trkpt><trkpt lat="44.78472297894912" lon="11.138097400524435"><ele>18.5</ele><time>2026-04-24T10:10:40Z</time></trkpt><trkpt lat="44.784717730462376" lon="11.138276969656063"><ele>19.0</ele><time>2026-04-24T10:10:41Z</time></trkpt><trkpt lat="44.78472129528334" lon="11.138473304472463"><ele>19.5</ele><time>2026-04-24T10:10:42Z</time></trkpt><trkpt lat="44.78474529029702" lon="11.13867206277905"><ele>20.0</ele><time>2026-04-24T10:10:43Z</time></trkpt><trkpt lat="44.78478777888064" lon="11.138867890149257"><ele>20.0</ele><time>2026-04-24T10:10:44Z</time></trkpt><trkpt lat="44.78484335885706" lon="11.139041342458002"><ele>20.0</ele><time>2026-04-24T10:10:45Z</time></trkpt><trkpt lat="44.784915889393865" lon="11.139226815962072"><ele>20.0</ele><time>2026-04-24T10:10:46Z</time></trkpt><trkpt lat="44.78502160055861" lon="11.139424671288328"><ele>20.0</ele><time>2026-04-24T10:10:47Z</time></trkpt><trkpt lat="44.78513434932703" lon="11.139655918785927"><ele>20.0</ele><time>2026-04-24T10:10:48Z</time></trkpt><trkpt lat="44.78526208455302" lon="11.139903249736813"><ele>20.0</ele><time>2026-04-24T10:10:49Z</time></trkpt><trkpt lat="44.785399786255226" lon="11.140165652199872"><ele>20.0</ele><time>2026-04-24T10:10:50Z</time></trkpt><trkpt lat="44.785534766667055" lon="11.140437315026944"><ele>20.0</ele><time>2026-04-24T10:10:51Z</time></trkpt><trkpt lat="44.78566014378556" lon="11.140670385439574"><ele>20.0</ele><time>2026-04-24T10:10:52Z</time></trkpt><trkpt lat="44.785752748183235" lon="11.140912929137432"><ele>20.0</ele><time>2026-04-24T10:10:53Z</time></trkpt><trkpt lat="44.785836405074285" lon="11.141140311300996"><ele>20.0</ele><time>2026-04-24T10:10:54Z</time></trkpt><trkpt lat="44.785908917326815" lon="11.141372770693502"><ele>20.0</ele><time>2026-04-24T10:10:55Z</time></trkpt><trkpt lat="44.785973340149" lon="11.141619852041783"><ele>19.333333333333336</ele><time>2026-04-24T10:10:56Z</time></trkpt><trkpt lat="44.78602708807402" lon="11.141864504325758"><ele>18.666666666666668</ele><time>2026-04-24T10:10:57Z</time></trkpt><trkpt lat="44.7860695657591" lon="11.142120564586518"><ele>18.0</ele><time>2026-04-24T10:10:58Z</time></trkpt><trkpt lat="44.78609601373232" lon="11.142374031949583"><ele>18.0</ele><time>2026-04-24T10:10:59Z</time></trkpt><trkpt lat="44.786107290972446" lon="11.142620130186158"><ele>18.0</ele><time>2026-04-24T10:11:00Z</time></trkpt><trkpt lat="44.78611567831129" lon="11.14287389475996"><ele>18.0</ele><time>2026-04-24T10:11:01Z</time></trkpt><trkpt lat="44.78612325019119" lon="11.143113623649544"><ele>18.0</ele><time>2026-04-24T10:11:02Z</time></trkpt><trkpt lat="44.78613105898772" lon="11.14333395002205"><ele>18.0</ele><time>2026-04-24T10:11:03Z</time></trkpt><trkpt lat="44.78613810613201" lon="11.143534447704731"><ele>18.0</ele><time>2026-04-24T10:11:04Z</time></trkpt><trkpt lat="44.78614243946629" lon="11.14371648093124"><ele>18.0</ele><time>2026-04-24T10:11:05Z</time></trkpt><trkpt lat="44.786139630390025" lon="11.143894507191451"><ele>18.333333333333332</ele><time>2026-04-24T10:11:06Z</time></trkpt><trkpt lat="44.78611691181438" lon="11.144097401276609"><ele>18.666666666666664</ele><time>2026-04-24T10:11:07Z</time></trkpt><trkpt lat="44.786068744221645" lon="11.14433378454039"><ele>19.0</ele><time>2026-04-24T10:11:08Z</time></trkpt><trkpt lat="44.78601365363734" lon="11.144584086030463"><ele>19.0</ele><time>2026-04-24T10:11:09Z</time></trkpt><trkpt lat="44.78595220232114" lon="11.144838727825796"><ele>19.0</ele><time>2026-04-24T10:11:10Z</time></trkpt><trkpt lat="44.785886955251996" lon="11.145102994343759"><ele>19.0</ele><time>2026-04-24T10:11:11Z</time></trkpt><trkpt lat="44.78582203240551" lon="11.145365156786601"><ele>18.666666666666664</ele><time>2026-04-24T10:11:12Z</time></trkpt><trkpt lat="44.785773799126915" lon="11.145646737860256"><ele>18.333333333333332</ele><time>2026-04-24T10:11:13Z</time></trkpt><trkpt lat="44.78569915793494" lon="11.145928947907509"><ele>18.0</ele><time>2026-04-24T10:11:14Z</time></trkpt><trkpt lat="44.78566247453688" lon="11.14623256774392"><ele>18.0</ele><time>2026-04-24T10:11:15Z</time></trkpt><trkpt lat="44.78560185875507" lon="11.146533909985646"><ele>18.0</ele><time>2026-04-24T10:11:16Z</time></trkpt><trkpt lat="44.78557376715896" lon="11.146850705870124"><ele>18.0</ele><time>2026-04-24T10:11:17Z</time></trkpt><trkpt lat="44.78553824437101" lon="11.147170798385432"><ele>18.0</ele><time>2026-04-24T10:11:18Z</time></trkpt><trkpt lat="44.78550418508938" lon="11.147487126081947"><ele>18.0</ele><time>2026-04-24T10:11:19Z</time></trkpt><trkpt lat="44.78547338007961" lon="11.147797489444178"><ele>18.0</ele><time>2026-04-24T10:11:20Z</time></trkpt><trkpt lat="44.78544353576558" lon="11.14810502157909"><ele>18.333333333333332</ele><time>2026-04-24T10:11:21Z</time></trkpt><trkpt lat="44.78541101600733" lon="11.148396240246663"><ele>18.666666666666664</ele><time>2026-04-24T10:11:22Z</time></trkpt><trkpt lat="44.785381605191716" lon="11.148665679075956"><ele>19.0</ele><time>2026-04-24T10:11:23Z</time></trkpt><trkpt lat="44.785358447763606" lon="11.148916465401124"><ele>18.666666666666664</ele><time>2026-04-24T10:11:24Z</time></trkpt><trkpt lat="44.78533817185429" lon="11.149153227187105"><ele>18.333333333333332</ele><time>2026-04-24T10:11:25Z</time></trkpt><trkpt lat="44.785330437424676" lon="11.149381601039082"><ele>18.0</ele><time>2026-04-24T10:11:26Z</time></trkpt><trkpt lat="44.78533949499521" lon="11.149623692696233"><ele>17.666666666666668</ele><time>2026-04-24T10:11:27Z</time></trkpt><trkpt lat="44.78536072728842" lon="11.149881817582438"><ele>17.333333333333336</ele><time>2026-04-24T10:11:28Z</time></trkpt><trkpt lat="44.78539041901004" lon="11.150160919313853"><ele>17.0</ele><time>2026-04-24T10:11:29Z</time></trkpt><trkpt lat="44.78542539423517" lon="11.150455874480876"><ele>17.666666666666668</ele><time>2026-04-24T10:11:30Z</time></trkpt><trkpt lat="44.78546164755597" lon="11.150751920997674"><ele>18.333333333333332</ele><time>2026-04-24T10:11:31Z</time></trkpt><trkpt lat="44.78549283403131" lon="11.151053078897993"><ele>19.0</ele><time>2026-04-24T10:11:32Z</time></trkpt><trkpt lat="44.785521718937" lon="11.1513538156133"><ele>19.333333333333332</ele><time>2026-04-24T10:11:33Z</time></trkpt><trkpt lat="44.78555909598144" lon="11.151658207506516"><ele>19.666666666666668</ele><time>2026-04-24T10:11:34Z</time></trkpt><trkpt lat="44.78560389641519" lon="11.151965592605688"><ele>20.0</ele><time>2026-04-24T10:11:35Z</time></trkpt><trkpt lat="44.78566044867669" lon="11.152271911745439"><ele>19.5</ele><time>2026-04-24T10:11:36Z</time></trkpt><trkpt lat="44.78572425247251" lon="11.152578801278754"><ele>19.0</ele><time>2026-04-24T10:11:37Z</time></trkpt><trkpt lat="44.785791782567294" lon="11.152886764313386"><ele>19.0</ele><time>2026-04-24T10:11:38Z</time></trkpt><trkpt lat="44.78585837849915" lon="11.15319703175255"><ele>19.0</ele><time>2026-04-24T10:11:39Z</time></trkpt><trkpt lat="44.78592186901025" lon="11.153496166830227"><ele>19.0</ele><time>2026-04-24T10:11:40Z</time></trkpt><trkpt lat="44.78598373354678" lon="11.153787643884185"><ele>19.0</ele><time>2026-04-24T10:11:41Z</time></trkpt><trkpt lat="44.78604315655778" lon="11.154082743174623"><ele>19.0</ele><time>2026-04-24T10:11:42Z</time></trkpt><trkpt lat="44.7860993273492" lon="11.154374283547648"><ele>18.666666666666664</ele><time>2026-04-24T10:11:43Z</time></trkpt><trkpt lat="44.78615525950873" lon="11.154668256074293"><ele>18.333333333333332</ele><time>2026-04-24T10:11:44Z</time></trkpt><trkpt lat="44.78620827963183" lon="11.154944969356285"><ele>18.0</ele><time>2026-04-24T10:11:45Z</time></trkpt><trkpt lat="44.78625981503885" lon="11.155203178626502"><ele>18.0</ele><time>2026-04-24T10:11:46Z</time></trkpt><trkpt lat="44.78631200860295" lon="11.155451633804072"><ele>18.0</ele><time>2026-04-24T10:11:47Z</time></trkpt><trkpt lat="44.78635395288575" lon="11.155717408341427"><ele>18.0</ele><time>2026-04-24T10:11:48Z</time></trkpt><trkpt lat="44.78635798129276" lon="11.15599428118042"><ele>17.666666666666668</ele><time>2026-04-24T10:11:49Z</time></trkpt><trkpt lat="44.78635689011973" lon="11.156276778448401"><ele>17.333333333333336</ele><time>2026-04-24T10:11:50Z</time></trkpt><trkpt lat="44.78634575535976" lon="11.156564587199412"><ele>17.0</ele><time>2026-04-24T10:11:51Z</time></trkpt><trkpt lat="44.786329144358064" lon="11.156852050339511"><ele>17.0</ele><time>2026-04-24T10:11:52Z</time></trkpt><trkpt lat="44.786309370703755" lon="11.157142275266153"><ele>17.0</ele><time>2026-04-24T10:11:53Z</time></trkpt><trkpt lat="44.78628858637717" lon="11.15743309952436"><ele>17.0</ele><time>2026-04-24T10:11:54Z</time></trkpt><trkpt lat="44.7862679919548" lon="11.157722901598168"><ele>16.666666666666668</ele><time>2026-04-24T10:11:55Z</time></trkpt><trkpt lat="44.78624850836823" lon="11.158016234838389"><ele>16.333333333333332</ele><time>2026-04-24T10:11:56Z</time></trkpt><trkpt lat="44.786228765815586" lon="11.158308277796166"><ele>16.0</ele><time>2026-04-24T10:11:57Z</time></trkpt><trkpt lat="44.786208141550915" lon="11.15860222612356"><ele>15.666666666666666</ele><time>2026-04-24T10:11:58Z</time></trkpt><trkpt lat="44.78618748364424" lon="11.15889665386847"><ele>15.333333333333332</ele><time>2026-04-24T10:11:59Z</time></trkpt><trkpt lat="44.78616788545823" lon="11.159191774191973"><ele>15.0</ele><time>2026-04-24T10:12:00Z</time></trkpt><trkpt lat="44.78614970376349" lon="11.159485355041307"><ele>15.0</ele><time>2026-04-24T10:12:01Z</time></trkpt><trkpt lat="44.786147840805796" lon="11.159783391824131"><ele>15.0</ele><time>2026-04-24T10:12:02Z</time></trkpt><trkpt lat="44.78612194085751" lon="11.160083727654362"><ele>15.0</ele><time>2026-04-24T10:12:03Z</time></trkpt><trkpt lat="44.78610280551079" lon="11.160386843693663"><ele>15.0</ele><time>2026-04-24T10:12:04Z</time></trkpt><trkpt lat="44.78608459130686" lon="11.160698033090615"><ele>15.0</ele><time>2026-04-24T10:12:05Z</time></trkpt><trkpt lat="44.786074950212196" lon="11.16101782842366"><ele>15.0</ele><time>2026-04-24T10:12:06Z</time></trkpt><trkpt lat="44.786060766343624" lon="11.161342220054719"><ele>15.5</ele><time>2026-04-24T10:12:07Z</time></trkpt><trkpt lat="44.786040781156544" lon="11.16166689803089"><ele>16.0</ele><time>2026-04-24T10:12:08Z</time></trkpt><trkpt lat="44.786016398772546" lon="11.161992819960442"><ele>15.5</ele><time>2026-04-24T10:12:09Z</time></trkpt><trkpt lat="44.78599458727135" lon="11.162323195125122"><ele>15.0</ele><time>2026-04-24T10:12:10Z</time></trkpt><trkpt lat="44.78597308943474" lon="11.16265642422912"><ele>15.0</ele><time>2026-04-24T10:12:11Z</time></trkpt><trkpt lat="44.78595361238407" lon="11.162994473277406"><ele>15.0</ele><time>2026-04-24T10:12:12Z</time></trkpt><trkpt lat="44.78593504287282" lon="11.163334993457857"><ele>15.0</ele><time>2026-04-24T10:12:13Z</time></trkpt><trkpt lat="44.785914028125944" lon="11.163674059976032"><ele>15.0</ele><time>2026-04-24T10:12:14Z</time></trkpt><trkpt lat="44.78589593870323" lon="11.164014508440689"><ele>15.0</ele><time>2026-04-24T10:12:15Z</time></trkpt><trkpt lat="44.78587431257001" lon="11.164350894006107"><ele>15.0</ele><time>2026-04-24T10:12:16Z</time></trkpt><trkpt lat="44.78585184240354" lon="11.164685374232874"><ele>15.0</ele><time>2026-04-24T10:12:17Z</time></trkpt><trkpt lat="44.78582920749087" lon="11.165014602317337"><ele>15.0</ele><time>2026-04-24T10:12:18Z</time></trkpt><trkpt lat="44.785798305895796" lon="11.165340816415618"><ele>15.0</ele><time>2026-04-24T10:12:19Z</time></trkpt><trkpt lat="44.78576887133366" lon="11.165667025470633"><ele>15.0</ele><time>2026-04-24T10:12:20Z</time></trkpt><trkpt lat="44.78574015176399" lon="11.165992835517"><ele>15.5</ele><time>2026-04-24T10:12:21Z</time></trkpt><trkpt lat="44.785713015924415" lon="11.166317052141824"><ele>16.0</ele><time>2026-04-24T10:12:22Z</time></trkpt><trkpt lat="44.78569189149378" lon="11.166637974800203"><ele>16.0</ele><time>2026-04-24T10:12:23Z</time></trkpt><trkpt lat="44.78567300921416" lon="11.166957631876045"><ele>16.0</ele><time>2026-04-24T10:12:24Z</time></trkpt><trkpt lat="44.78565303850837" lon="11.167268821563374"><ele>16.0</ele><time>2026-04-24T10:12:25Z</time></trkpt><trkpt lat="44.785630154915474" lon="11.16757767199689"><ele>16.0</ele><time>2026-04-24T10:12:26Z</time></trkpt><trkpt lat="44.785609539795175" lon="11.167884889466423"><ele>16.0</ele><time>2026-04-24T10:12:27Z</time></trkpt><trkpt lat="44.785590599981816" lon="11.168182732041318"><ele>16.0</ele><time>2026-04-24T10:12:28Z</time></trkpt><trkpt lat="44.78557271645371" lon="11.168476059938122"><ele>16.0</ele><time>2026-04-24T10:12:29Z</time></trkpt><trkpt lat="44.78555522255574" lon="11.168763759914766"><ele>16.0</ele><time>2026-04-24T10:12:30Z</time></trkpt><trkpt lat="44.7855378159805" lon="11.169046793177102"><ele>16.0</ele><time>2026-04-24T10:12:31Z</time></trkpt><trkpt lat="44.785518366731765" lon="11.169330391831462"><ele>16.0</ele><time>2026-04-24T10:12:32Z</time></trkpt><trkpt lat="44.78550035625542" lon="11.169611272192155"><ele>16.0</ele><time>2026-04-24T10:12:33Z</time></trkpt><trkpt lat="44.78548123738218" lon="11.169888393719084"><ele>16.0</ele><time>2026-04-24T10:12:34Z</time></trkpt><trkpt lat="44.78546422588138" lon="11.170163800191665"><ele>16.0</ele><time>2026-04-24T10:12:35Z</time></trkpt><trkpt lat="44.78544967969739" lon="11.17043792339053"><ele>16.0</ele><time>2026-04-24T10:12:36Z</time></trkpt><trkpt lat="44.785440578778555" lon="11.170710613751114"><ele>16.0</ele><time>2026-04-24T10:12:37Z</time></trkpt><trkpt lat="44.785439718453055" lon="11.170981548168227"><ele>16.333333333333332</ele><time>2026-04-24T10:12:38Z</time></trkpt><trkpt lat="44.7854415581897" lon="11.171257230381451"><ele>16.666666666666668</ele><time>2026-04-24T10:12:39Z</time></trkpt><trkpt lat="44.7854453369346" lon="11.171526866157361"><ele>17.0</ele><time>2026-04-24T10:12:40Z</time></trkpt><trkpt lat="44.78545384642926" lon="11.17179454466375"><ele>17.0</ele><time>2026-04-24T10:12:41Z</time></trkpt><trkpt lat="44.78545999236044" lon="11.172062489224537"><ele>17.0</ele><time>2026-04-24T10:12:42Z</time></trkpt><trkpt lat="44.78546311157362" lon="11.172327671586478"><ele>17.0</ele><time>2026-04-24T10:12:43Z</time></trkpt><trkpt lat="44.785469246046496" lon="11.172599969518215"><ele>16.666666666666668</ele><time>2026-04-24T10:12:44Z</time></trkpt><trkpt lat="44.78547648387181" lon="11.172868888310248"><ele>16.333333333333332</ele><time>2026-04-24T10:12:45Z</time></trkpt><trkpt lat="44.7854845702189" lon="11.17313710548883"><ele>16.0</ele><time>2026-04-24T10:12:46Z</time></trkpt><trkpt lat="44.78548995225471" lon="11.17340407296646"><ele>15.666666666666666</ele><time>2026-04-24T10:12:47Z</time></trkpt><trkpt lat="44.78549757786101" lon="11.173672166725938"><ele>15.333333333333332</ele><time>2026-04-24T10:12:48Z</time></trkpt><trkpt lat="44.78550353539436" lon="11.173937641557789"><ele>15.0</ele><time>2026-04-24T10:12:49Z</time></trkpt><trkpt lat="44.785511154821535" lon="11.174203177516723"><ele>15.0</ele><time>2026-04-24T10:12:50Z</time></trkpt><trkpt lat="44.7855187278447" lon="11.174471167643773"><ele>15.0</ele><time>2026-04-24T10:12:51Z</time></trkpt><trkpt lat="44.78552192508042" lon="11.174739697200566"><ele>15.0</ele><time>2026-04-24T10:12:52Z</time></trkpt><trkpt lat="44.78551879986635" lon="11.175009620956144"><ele>15.0</ele><time>2026-04-24T10:12:53Z</time></trkpt><trkpt lat="44.78551851266643" lon="11.175279458986433"><ele>15.0</ele><time>2026-04-24T10:12:54Z</time></trkpt><trkpt lat="44.78552092258115" lon="11.17554709977772"><ele>15.0</ele><time>2026-04-24T10:12:55Z</time></trkpt><trkpt lat="44.785525947384755" lon="11.175813365458565"><ele>15.333333333333332</ele><time>2026-04-24T10:12:56Z</time></trkpt><trkpt lat="44.78553258033406" lon="11.176081641826293"><ele>15.666666666666666</ele><time>2026-04-24T10:12:57Z</time></trkpt><trkpt lat="44.78554251131171" lon="11.176346972155693"><ele>16.0</ele><time>2026-04-24T10:12:58Z</time></trkpt><trkpt lat="44.78554792738988" lon="11.176611809260514"><ele>16.333333333333332</ele><time>2026-04-24T10:12:59Z</time></trkpt><trkpt lat="44.785553013277664" lon="11.176879693564434"><ele>16.666666666666668</ele><time>2026-04-24T10:13:00Z</time></trkpt><trkpt lat="44.78555865284343" lon="11.177147740813659"><ele>17.0</ele><time>2026-04-24T10:13:01Z</time></trkpt><trkpt lat="44.7855679773667" lon="11.177416947136667"><ele>17.0</ele><time>2026-04-24T10:13:02Z</time></trkpt><trkpt lat="44.78557625930908" lon="11.177684202793609"><ele>17.0</ele><time>2026-04-24T10:13:03Z</time></trkpt><trkpt lat="44.785585440125935" lon="11.177952034092346"><ele>17.0</ele><time>2026-04-24T10:13:04Z</time></trkpt><trkpt lat="44.78560433568939" lon="11.178218624421772"><ele>16.666666666666668</ele><time>2026-04-24T10:13:05Z</time></trkpt><trkpt lat="44.78563773581185" lon="11.178482470092767"><ele>16.333333333333332</ele><time>2026-04-24T10:13:06Z</time></trkpt><trkpt lat="44.78567261233696" lon="11.178744865647912"><ele>16.0</ele><time>2026-04-24T10:13:07Z</time></trkpt><trkpt lat="44.78570919206368" lon="11.179009128526298"><ele>15.666666666666666</ele><time>2026-04-24T10:13:08Z</time></trkpt><trkpt lat="44.785741073178265" lon="11.17927173428046"><ele>15.333333333333332</ele><time>2026-04-24T10:13:09Z</time></trkpt><trkpt lat="44.78577178443559" lon="11.179538042169447"><ele>15.0</ele><time>2026-04-24T10:13:10Z</time></trkpt><trkpt lat="44.785801594251005" lon="11.179804822463737"><ele>14.333333333333332</ele><time>2026-04-24T10:13:11Z</time></trkpt><trkpt lat="44.7858337137535" lon="11.180073702953925"><ele>13.666666666666666</ele><time>2026-04-24T10:13:12Z</time></trkpt><trkpt lat="44.785866600574344" lon="11.180340007606285"><ele>13.0</ele><time>2026-04-24T10:13:13Z</time></trkpt><trkpt lat="44.78590297009212" lon="11.180603336403687"><ele>13.333333333333332</ele><time>2026-04-24T10:13:14Z</time></trkpt><trkpt lat="44.78593833887406" lon="11.180866683604792"><ele>13.666666666666668</ele><time>2026-04-24T10:13:15Z</time></trkpt><trkpt lat="44.785969996447406" lon="11.181131440581664"><ele>14.0</ele><time>2026-04-24T10:13:16Z</time></trkpt><trkpt lat="44.786001676081064" lon="11.181397367067582"><ele>14.0</ele><time>2026-04-24T10:13:17Z</time></trkpt><trkpt lat="44.78603300691254" lon="11.181663434420033"><ele>14.0</ele><time>2026-04-24T10:13:18Z</time></trkpt><trkpt lat="44.78606555864451" lon="11.181926068873693"><ele>14.0</ele><time>2026-04-24T10:13:19Z</time></trkpt><trkpt lat="44.786097425538266" lon="11.182186989193497"><ele>14.333333333333334</ele><time>2026-04-24T10:13:20Z</time></trkpt><trkpt lat="44.78612990978262" lon="11.182450588545974"><ele>14.666666666666668</ele><time>2026-04-24T10:13:21Z</time></trkpt><trkpt lat="44.78616187770483" lon="11.182713338031254"><ele>15.0</ele><time>2026-04-24T10:13:22Z</time></trkpt><trkpt lat="44.786195065877024" lon="11.182979274762918"><ele>15.0</ele><time>2026-04-24T10:13:23Z</time></trkpt><trkpt lat="44.786228122808474" lon="11.18324565844079"><ele>15.0</ele><time>2026-04-24T10:13:24Z</time></trkpt><trkpt lat="44.78626158011192" lon="11.183516816508593"><ele>15.0</ele><time>2026-04-24T10:13:25Z</time></trkpt><trkpt lat="44.78629641232706" lon="11.183796000245415"><ele>15.0</ele><time>2026-04-24T10:13:26Z</time></trkpt><trkpt lat="44.786335109315694" lon="11.184080297196646"><ele>15.0</ele><time>2026-04-24T10:13:27Z</time></trkpt><trkpt lat="44.78637233780671" lon="11.184368287513857"><ele>15.0</ele><time>2026-04-24T10:13:28Z</time></trkpt><trkpt lat="44.786408466878356" lon="11.184659652591742"><ele>15.333333333333332</ele><time>2026-04-24T10:13:29Z</time></trkpt><trkpt lat="44.78644423802195" lon="11.184948100221607"><ele>15.666666666666666</ele><time>2026-04-24T10:13:30Z</time></trkpt><trkpt lat="44.786479439591524" lon="11.185236726906028"><ele>16.0</ele><time>2026-04-24T10:13:31Z</time></trkpt><trkpt lat="44.786514880825635" lon="11.18552355755903"><ele>16.0</ele><time>2026-04-24T10:13:32Z</time></trkpt><trkpt lat="44.7865509201251" lon="11.185807837977075"><ele>16.0</ele><time>2026-04-24T10:13:33Z</time></trkpt><trkpt lat="44.786585047544946" lon="11.186093992076831"><ele>16.0</ele><time>2026-04-24T10:13:34Z</time></trkpt><trkpt lat="44.786625069450565" lon="11.186380533894843"><ele>16.333333333333332</ele><time>2026-04-24T10:13:35Z</time></trkpt><trkpt lat="44.78666319881954" lon="11.186674199131343"><ele>16.666666666666668</ele><time>2026-04-24T10:13:36Z</time></trkpt><trkpt lat="44.78670210362281" lon="11.186968492771847"><ele>17.0</ele><time>2026-04-24T10:13:37Z</time></trkpt><trkpt lat="44.7867394726809" lon="11.187262496056583"><ele>16.666666666666668</ele><time>2026-04-24T10:13:38Z</time></trkpt><trkpt lat="44.78677548798748" lon="11.187557287008437"><ele>16.333333333333332</ele><time>2026-04-24T10:13:39Z</time></trkpt><trkpt lat="44.78681093231132" lon="11.187848987006475"><ele>16.0</ele><time>2026-04-24T10:13:40Z</time></trkpt><trkpt lat="44.78684625439774" lon="11.188140608671679"><ele>16.0</ele><time>2026-04-24T10:13:41Z</time></trkpt><trkpt lat="44.78687851185555" lon="11.188429240566396"><ele>16.0</ele><time>2026-04-24T10:13:42Z</time></trkpt><trkpt lat="44.78691284821016" lon="11.188720061540986"><ele>16.0</ele><time>2026-04-24T10:13:43Z</time></trkpt><trkpt lat="44.78694748287396" lon="11.189009019672195"><ele>16.0</ele><time>2026-04-24T10:13:44Z</time></trkpt><trkpt lat="44.78698352738012" lon="11.189301879612852"><ele>16.0</ele><time>2026-04-24T10:13:45Z</time></trkpt><trkpt lat="44.78701927186243" lon="11.189596893773226"><ele>16.0</ele><time>2026-04-24T10:13:46Z</time></trkpt><trkpt lat="44.78705587674104" lon="11.18988712172936"><ele>16.0</ele><time>2026-04-24T10:13:47Z</time></trkpt><trkpt lat="44.787091057610006" lon="11.190178052069854"><ele>16.0</ele><time>2026-04-24T10:13:48Z</time></trkpt><trkpt lat="44.78712568928182" lon="11.190470966379358"><ele>16.0</ele><time>2026-04-24T10:13:49Z</time></trkpt><trkpt lat="44.78716304971749" lon="11.190768580514"><ele>16.0</ele><time>2026-04-24T10:13:50Z</time></trkpt><trkpt lat="44.787201412455204" lon="11.1910626292715"><ele>16.0</ele><time>2026-04-24T10:13:51Z</time></trkpt><trkpt lat="44.78724046305023" lon="11.191357137165548"><ele>16.0</ele><time>2026-04-24T10:13:52Z</time></trkpt><trkpt lat="44.787279860068274" lon="11.191652046750697"><ele>15.666666666666666</ele><time>2026-04-24T10:13:53Z</time></trkpt><trkpt lat="44.78732074831121" lon="11.191944939958637"><ele>15.333333333333332</ele><time>2026-04-24T10:13:54Z</time></trkpt><trkpt lat="44.7873581482845" lon="11.192236502019083"><ele>15.0</ele><time>2026-04-24T10:13:55Z</time></trkpt><trkpt lat="44.78737954967445" lon="11.192533898263546"><ele>14.666666666666668</ele><time>2026-04-24T10:13:56Z</time></trkpt><trkpt lat="44.787416018241785" lon="11.19282865386589"><ele>14.333333333333334</ele><time>2026-04-24T10:13:57Z</time></trkpt><trkpt lat="44.78745220240095" lon="11.193121110705254"><ele>14.0</ele><time>2026-04-24T10:13:58Z</time></trkpt><trkpt lat="44.787503528894895" lon="11.193410068878274"><ele>15.0</ele><time>2026-04-24T10:13:59Z</time></trkpt><trkpt lat="44.787537291603606" lon="11.19370084712496"><ele>16.0</ele><time>2026-04-24T10:14:00Z</time></trkpt><trkpt lat="44.78757336627404" lon="11.193991771862851"><ele>17.0</ele><time>2026-04-24T10:14:01Z</time></trkpt><trkpt lat="44.78760415263737" lon="11.194289992154687"><ele>17.666666666666668</ele><time>2026-04-24T10:14:02Z</time></trkpt><trkpt lat="44.78764422149151" lon="11.194591918607415"><ele>18.333333333333332</ele><time>2026-04-24T10:14:03Z</time></trkpt><trkpt lat="44.78768248156055" lon="11.194893210085878"><ele>19.0</ele><time>2026-04-24T10:14:04Z</time></trkpt><trkpt lat="44.787720612879106" lon="11.195195116526445"><ele>19.666666666666664</ele><time>2026-04-24T10:14:05Z</time></trkpt><trkpt lat="44.78775693312446" lon="11.195497693263476"><ele>20.333333333333332</ele><time>2026-04-24T10:14:06Z</time></trkpt><trkpt lat="44.787795502276445" lon="11.195796953023397"><ele>21.0</ele><time>2026-04-24T10:14:07Z</time></trkpt><trkpt lat="44.7878351486565" lon="11.196094039983146"><ele>19.666666666666668</ele><time>2026-04-24T10:14:08Z</time></trkpt><trkpt lat="44.787876284008284" lon="11.19639037800741"><ele>18.333333333333336</ele><time>2026-04-24T10:14:09Z</time></trkpt><trkpt lat="44.78791853467143" lon="11.196688768346243"><ele>17.0</ele><time>2026-04-24T10:14:10Z</time></trkpt><trkpt lat="44.78795875306963" lon="11.19698808186605"><ele>16.333333333333336</ele><time>2026-04-24T10:14:11Z</time></trkpt><trkpt lat="44.78799778484082" lon="11.197286664866649"><ele>15.666666666666668</ele><time>2026-04-24T10:14:12Z</time></trkpt><trkpt lat="44.788030391656626" lon="11.197589869437689"><ele>15.0</ele><time>2026-04-24T10:14:13Z</time></trkpt><trkpt lat="44.78806448346346" lon="11.197891663452571"><ele>15.0</ele><time>2026-04-24T10:14:14Z</time></trkpt><trkpt lat="44.788099931998644" lon="11.19818874748338"><ele>15.0</ele><time>2026-04-24T10:14:15Z</time></trkpt><trkpt lat="44.78813861936682" lon="11.198485488822602"><ele>15.0</ele><time>2026-04-24T10:14:16Z</time></trkpt><trkpt lat="44.788173875840286" lon="11.198786503632242"><ele>14.666666666666668</ele><time>2026-04-24T10:14:17Z</time></trkpt><trkpt lat="44.788206773975446" lon="11.199086870773558"><ele>14.333333333333334</ele><time>2026-04-24T10:14:18Z</time></trkpt><trkpt lat="44.788241335289655" lon="11.199387687518993"><ele>14.0</ele><time>2026-04-24T10:14:19Z</time></trkpt><trkpt lat="44.788276321189045" lon="11.199686674174993"><ele>14.0</ele><time>2026-04-24T10:14:20Z</time></trkpt><trkpt lat="44.78831088524903" lon="11.199984339656146"><ele>14.0</ele><time>2026-04-24T10:14:21Z</time></trkpt><trkpt lat="44.78834801482132" lon="11.200283459223572"><ele>14.0</ele><time>2026-04-24T10:14:22Z</time></trkpt><trkpt lat="44.788384679917414" lon="11.200583818059107"><ele>14.0</ele><time>2026-04-24T10:14:23Z</time></trkpt><trkpt lat="44.78841712335566" lon="11.200883354319677"><ele>14.0</ele><time>2026-04-24T10:14:24Z</time></trkpt><trkpt lat="44.78845217831478" lon="11.201185035663778"><ele>14.0</ele><time>2026-04-24T10:14:25Z</time></trkpt><trkpt lat="44.78848911229345" lon="11.20148391680311"><ele>13.666666666666668</ele><time>2026-04-24T10:14:26Z</time></trkpt><trkpt lat="44.7885259800436" lon="11.201783589351498"><ele>13.333333333333332</ele><time>2026-04-24T10:14:27Z</time></trkpt><trkpt lat="44.788562833899405" lon="11.20208276512813"><ele>13.0</ele><time>2026-04-24T10:14:28Z</time></trkpt><trkpt lat="44.78860141165061" lon="11.202380902641123"><ele>13.333333333333332</ele><time>2026-04-24T10:14:29Z</time></trkpt><trkpt lat="44.78863765938657" lon="11.202683408820748"><ele>13.666666666666668</ele><time>2026-04-24T10:14:30Z</time></trkpt><trkpt lat="44.78867260173428" lon="11.202984851366777"><ele>14.0</ele><time>2026-04-24T10:14:31Z</time></trkpt><trkpt lat="44.78870799202278" lon="11.203283334951092"><ele>14.0</ele><time>2026-04-24T10:14:32Z</time></trkpt><trkpt lat="44.788743510308855" lon="11.203586579013699"><ele>14.0</ele><time>2026-04-24T10:14:33Z</time></trkpt><trkpt lat="44.788779399557114" lon="11.203886513141228"><ele>14.0</ele><time>2026-04-24T10:14:34Z</time></trkpt><trkpt lat="44.7888187283164" lon="11.204182932692223"><ele>14.0</ele><time>2026-04-24T10:14:35Z</time></trkpt><trkpt lat="44.78886016870961" lon="11.20448000517847"><ele>14.0</ele><time>2026-04-24T10:14:36Z</time></trkpt><trkpt lat="44.78889679646523" lon="11.20477782758566"><ele>14.0</ele><time>2026-04-24T10:14:37Z</time></trkpt><trkpt lat="44.78893196598899" lon="11.205077317279963"><ele>14.0</ele><time>2026-04-24T10:14:38Z</time></trkpt><trkpt lat="44.78896857654771" lon="11.205375556567494"><ele>14.0</ele><time>2026-04-24T10:14:39Z</time></trkpt><trkpt lat="44.78900624598154" lon="11.205675864588617"><ele>14.0</ele><time>2026-04-24T10:14:40Z</time></trkpt><trkpt lat="44.789047739064536" lon="11.205970682346646"><ele>14.0</ele><time>2026-04-24T10:14:41Z</time></trkpt><trkpt lat="44.78908922873102" lon="11.206272243571581"><ele>14.0</ele><time>2026-04-24T10:14:42Z</time></trkpt><trkpt lat="44.789127089497974" lon="11.206570028469088"><ele>14.0</ele><time>2026-04-24T10:14:43Z</time></trkpt><trkpt lat="44.78916535627462" lon="11.206867661522738"><ele>14.0</ele><time>2026-04-24T10:14:44Z</time></trkpt><trkpt lat="44.78920739956438" lon="11.207164415221602"><ele>14.0</ele><time>2026-04-24T10:14:45Z</time></trkpt><trkpt lat="44.78924565126605" lon="11.207463472104207"><ele>14.0</ele><time>2026-04-24T10:14:46Z</time></trkpt><trkpt lat="44.78927947426051" lon="11.207763549099656"><ele>14.0</ele><time>2026-04-24T10:14:47Z</time></trkpt><trkpt lat="44.789304897980294" lon="11.208062628103155"><ele>14.0</ele><time>2026-04-24T10:14:48Z</time></trkpt><trkpt lat="44.78932846911527" lon="11.208364860180911"><ele>14.0</ele><time>2026-04-24T10:14:49Z</time></trkpt><trkpt lat="44.78934672669711" lon="11.208669016571989"><ele>14.0</ele><time>2026-04-24T10:14:50Z</time></trkpt><trkpt lat="44.789360949913295" lon="11.208971532124602"><ele>14.0</ele><time>2026-04-24T10:14:51Z</time></trkpt><trkpt lat="44.78937803538819" lon="11.209277454228417"><ele>14.0</ele><time>2026-04-24T10:14:52Z</time></trkpt><trkpt lat="44.78940192858534" lon="11.209579071644004"><ele>14.0</ele><time>2026-04-24T10:14:53Z</time></trkpt><trkpt lat="44.789432554381676" lon="11.209876410705197"><ele>14.0</ele><time>2026-04-24T10:14:54Z</time></trkpt><trkpt lat="44.789467591494976" lon="11.210173859722893"><ele>14.0</ele><time>2026-04-24T10:14:55Z</time></trkpt><trkpt lat="44.78950219217079" lon="11.210473392339793"><ele>13.333333333333334</ele><time>2026-04-24T10:14:56Z</time></trkpt><trkpt lat="44.789536055192045" lon="11.210773411570512"><ele>12.666666666666668</ele><time>2026-04-24T10:14:57Z</time></trkpt><trkpt lat="44.78957041407979" lon="11.211074941679618"><ele>12.0</ele><time>2026-04-24T10:14:58Z</time></trkpt><trkpt lat="44.7896051471221" lon="11.211375320332156"><ele>12.333333333333332</ele><time>2026-04-24T10:14:59Z</time></trkpt><trkpt lat="44.78964171431975" lon="11.21167285780307"><ele>12.666666666666666</ele><time>2026-04-24T10:15:00Z</time></trkpt><trkpt lat="44.789677066819" lon="11.2119701767338"><ele>13.0</ele><time>2026-04-24T10:15:01Z</time></trkpt><trkpt lat="44.78971608364263" lon="11.212267601919889"><ele>13.0</ele><time>2026-04-24T10:15:02Z</time></trkpt><trkpt lat="44.78975408159881" lon="11.21257078392577"><ele>13.0</ele><time>2026-04-24T10:15:03Z</time></trkpt><trkpt lat="44.78979051056969" lon="11.212869770361827"><ele>13.0</ele><time>2026-04-24T10:15:04Z</time></trkpt><trkpt lat="44.789825328800845" lon="11.213168068705947"><ele>13.0</ele><time>2026-04-24T10:15:05Z</time></trkpt><trkpt lat="44.78986211605296" lon="11.213466507485304"><ele>13.0</ele><time>2026-04-24T10:15:06Z</time></trkpt><trkpt lat="44.78990211909205" lon="11.213765638367141"><ele>13.0</ele><time>2026-04-24T10:15:07Z</time></trkpt><trkpt lat="44.78994022066899" lon="11.214066112753045"><ele>12.666666666666666</ele><time>2026-04-24T10:15:08Z</time></trkpt><trkpt lat="44.78997748464979" lon="11.21436824759812"><ele>12.333333333333332</ele><time>2026-04-24T10:15:09Z</time></trkpt><trkpt lat="44.790013017135585" lon="11.214669413211604"><ele>12.0</ele><time>2026-04-24T10:15:10Z</time></trkpt><trkpt lat="44.79004976244195" lon="11.21497032047226"><ele>12.666666666666668</ele><time>2026-04-24T10:15:11Z</time></trkpt><trkpt lat="44.79008677982492" lon="11.215270857384859"><ele>13.333333333333334</ele><time>2026-04-24T10:15:12Z</time></trkpt><trkpt lat="44.790123153976886" lon="11.215569389993489"><ele>14.0</ele><time>2026-04-24T10:15:13Z</time></trkpt><trkpt lat="44.79015962955449" lon="11.215869637161285"><ele>13.333333333333334</ele><time>2026-04-24T10:15:14Z</time></trkpt><trkpt lat="44.79019623191472" lon="11.216172132422185"><ele>12.666666666666668</ele><time>2026-04-24T10:15:15Z</time></trkpt><trkpt lat="44.790229224312846" lon="11.216473654671496"><ele>12.0</ele><time>2026-04-24T10:15:16Z</time></trkpt><trkpt lat="44.79026487735911" lon="11.216771750639882"><ele>12.0</ele><time>2026-04-24T10:15:17Z</time></trkpt><trkpt lat="44.790303667109576" lon="11.217069576244757"><ele>12.0</ele><time>2026-04-24T10:15:18Z</time></trkpt><trkpt lat="44.79034123158619" lon="11.217367542520087"><ele>12.0</ele><time>2026-04-24T10:15:19Z</time></trkpt><trkpt lat="44.79037825236252" lon="11.217666935976773"><ele>12.333333333333332</ele><time>2026-04-24T10:15:20Z</time></trkpt><trkpt lat="44.790412094986934" lon="11.217967371089237"><ele>12.666666666666666</ele><time>2026-04-24T10:15:21Z</time></trkpt><trkpt lat="44.790447698505346" lon="11.218269088566252"><ele>13.0</ele><time>2026-04-24T10:15:22Z</time></trkpt><trkpt lat="44.79048308378022" lon="11.21856820276165"><ele>13.0</ele><time>2026-04-24T10:15:23Z</time></trkpt><trkpt lat="44.79051699635915" lon="11.218862339481866"><ele>13.0</ele><time>2026-04-24T10:15:24Z</time></trkpt><trkpt lat="44.790553436318014" lon="11.219161160583695"><ele>13.0</ele><time>2026-04-24T10:15:25Z</time></trkpt><trkpt lat="44.790591513852476" lon="11.219460335824117"><ele>13.333333333333332</ele><time>2026-04-24T10:15:26Z</time></trkpt><trkpt lat="44.79063032288586" lon="11.21975983555911"><ele>13.666666666666668</ele><time>2026-04-24T10:15:27Z</time></trkpt><trkpt lat="44.79066765952351" lon="11.220058412818595"><ele>14.0</ele><time>2026-04-24T10:15:28Z</time></trkpt><trkpt lat="44.79070897259006" lon="11.220356486582105"><ele>13.666666666666668</ele><time>2026-04-24T10:15:29Z</time></trkpt><trkpt lat="44.790747951107384" lon="11.220655454182948"><ele>13.333333333333332</ele><time>2026-04-24T10:15:30Z</time></trkpt><trkpt lat="44.79078552118696" lon="11.220951907603713"><ele>13.0</ele><time>2026-04-24T10:15:31Z</time></trkpt><trkpt lat="44.790821775016916" lon="11.22124983588668"><ele>13.666666666666666</ele><time>2026-04-24T10:15:32Z</time></trkpt><trkpt lat="44.790856066452136" lon="11.22155061990243"><ele>14.333333333333332</ele><time>2026-04-24T10:15:33Z</time></trkpt><trkpt lat="44.79089257849785" lon="11.221849134758365"><ele>15.0</ele><time>2026-04-24T10:15:34Z</time></trkpt><trkpt lat="44.79093254312508" lon="11.22214492136314"><ele>14.666666666666668</ele><time>2026-04-24T10:15:35Z</time></trkpt><trkpt lat="44.7909721115965" lon="11.222446476070443"><ele>14.333333333333334</ele><time>2026-04-24T10:15:36Z</time></trkpt><trkpt lat="44.79101390000872" lon="11.222751413804948"><ele>14.0</ele><time>2026-04-24T10:15:37Z</time></trkpt><trkpt lat="44.79105093003381" lon="11.223047456612173"><ele>13.666666666666668</ele><time>2026-04-24T10:15:38Z</time></trkpt><trkpt lat="44.79108335308639" lon="11.223321201195478"><ele>13.333333333333332</ele><time>2026-04-24T10:15:39Z</time></trkpt><trkpt lat="44.791112613160685" lon="11.223580249452382"><ele>13.0</ele><time>2026-04-24T10:15:40Z</time></trkpt><trkpt lat="44.79113951741687" lon="11.223826027757815"><ele>13.0</ele><time>2026-04-24T10:15:41Z</time></trkpt><trkpt lat="44.79116879287735" lon="11.224065121384568"><ele>13.0</ele><time>2026-04-24T10:15:42Z</time></trkpt><trkpt lat="44.79120240441443" lon="11.224309119044902"><ele>13.0</ele><time>2026-04-24T10:15:43Z</time></trkpt><trkpt lat="44.79124220423306" lon="11.22456865372677"><ele>12.666666666666666</ele><time>2026-04-24T10:15:44Z</time></trkpt><trkpt lat="44.79125798752759" lon="11.224841622357175"><ele>12.333333333333332</ele><time>2026-04-24T10:15:45Z</time></trkpt><trkpt lat="44.79129284585022" lon="11.22511455826691"><ele>12.0</ele><time>2026-04-24T10:15:46Z</time></trkpt><trkpt lat="44.79132851327249" lon="11.22539382936281"><ele>12.0</ele><time>2026-04-24T10:15:47Z</time></trkpt><trkpt lat="44.79136549381812" lon="11.225683382058973"><ele>12.0</ele><time>2026-04-24T10:15:48Z</time></trkpt><trkpt lat="44.79140345833327" lon="11.22598063902387"><ele>12.0</ele><time>2026-04-24T10:15:49Z</time></trkpt><trkpt lat="44.79144003718681" lon="11.226267046475716"><ele>12.666666666666668</ele><time>2026-04-24T10:15:50Z</time></trkpt><trkpt lat="44.79148334680194" lon="11.226529826681432"><ele>13.333333333333334</ele><time>2026-04-24T10:15:51Z</time></trkpt><trkpt lat="44.79150954867631" lon="11.226780483650032"><ele>14.0</ele><time>2026-04-24T10:15:52Z</time></trkpt><trkpt lat="44.79153446061794" lon="11.227017716177595"><ele>14.0</ele><time>2026-04-24T10:15:53Z</time></trkpt><trkpt lat="44.79156526043168" lon="11.22725444970319"><ele>14.0</ele><time>2026-04-24T10:15:54Z</time></trkpt><trkpt lat="44.79159720331942" lon="11.22748250750564"><ele>14.0</ele><time>2026-04-24T10:15:55Z</time></trkpt><trkpt lat="44.79162858629465" lon="11.227710971280038"><ele>14.0</ele><time>2026-04-24T10:15:56Z</time></trkpt><trkpt lat="44.791652750268106" lon="11.227934085808865"><ele>14.0</ele><time>2026-04-24T10:15:57Z</time></trkpt><trkpt lat="44.791681248086654" lon="11.22814195804592"><ele>14.0</ele><time>2026-04-24T10:15:58Z</time></trkpt><trkpt lat="44.791706838130764" lon="11.228335775080696"><ele>14.25</ele><time>2026-04-24T10:15:59Z</time></trkpt><trkpt lat="44.79173317626569" lon="11.228516355700487"><ele>14.5</ele><time>2026-04-24T10:16:00Z</time></trkpt><trkpt lat="44.791755015410374" lon="11.228679644321035"><ele>14.75</ele><time>2026-04-24T10:16:01Z</time></trkpt><trkpt lat="44.79176736862075" lon="11.228826509377797"><ele>15.0</ele><time>2026-04-24T10:16:02Z</time></trkpt><trkpt lat="44.79179036472014" lon="11.22899715820469"><ele>15.0</ele><time>2026-04-24T10:16:03Z</time></trkpt><trkpt lat="44.79180411502433" lon="11.229207854581832"><ele>15.0</ele><time>2026-04-24T10:16:04Z</time></trkpt><trkpt lat="44.79183164726908" lon="11.229432029626457"><ele>15.0</ele><time>2026-04-24T10:16:05Z</time></trkpt><trkpt lat="44.79185960057394" lon="11.229659632979804"><ele>14.333333333333332</ele><time>2026-04-24T10:16:06Z</time></trkpt><trkpt lat="44.791887180180645" lon="11.229884193630635"><ele>13.666666666666666</ele><time>2026-04-24T10:16:07Z</time></trkpt><trkpt lat="44.79191449073262" lon="11.230106563598211"><ele>13.0</ele><time>2026-04-24T10:16:08Z</time></trkpt><trkpt lat="44.791955232205865" lon="11.230318956970617"><ele>13.0</ele><time>2026-04-24T10:16:09Z</time></trkpt><trkpt lat="44.79198013100558" lon="11.230534725941466"><ele>13.0</ele><time>2026-04-24T10:16:10Z</time></trkpt><trkpt lat="44.792001543269016" lon="11.230750899443029"><ele>13.0</ele><time>2026-04-24T10:16:11Z</time></trkpt><trkpt lat="44.79202525551392" lon="11.230967619728187"><ele>13.0</ele><time>2026-04-24T10:16:12Z</time></trkpt><trkpt lat="44.79205064003867" lon="11.23118106302264"><ele>13.0</ele><time>2026-04-24T10:16:13Z</time></trkpt><trkpt lat="44.79207521371188" lon="11.231402541681081"><ele>13.0</ele><time>2026-04-24T10:16:14Z</time></trkpt><trkpt lat="44.79210332214087" lon="11.231628150226296"><ele>14.0</ele><time>2026-04-24T10:16:15Z</time></trkpt><trkpt lat="44.79213321384221" lon="11.231845993944315"><ele>15.0</ele><time>2026-04-24T10:16:16Z</time></trkpt><trkpt lat="44.79216320326738" lon="11.232054768754164"><ele>16.0</ele><time>2026-04-24T10:16:17Z</time></trkpt><trkpt lat="44.79218945701794" lon="11.232263479789463"><ele>16.333333333333332</ele><time>2026-04-24T10:16:18Z</time></trkpt><trkpt lat="44.79221607638318" lon="11.232468396285816"><ele>16.666666666666668</ele><time>2026-04-24T10:16:19Z</time></trkpt><trkpt lat="44.79224349615719" lon="11.232675830306302"><ele>17.0</ele><time>2026-04-24T10:16:20Z</time></trkpt><trkpt lat="44.79227298184543" lon="11.23288666862566"><ele>17.0</ele><time>2026-04-24T10:16:21Z</time></trkpt><trkpt lat="44.792299330464935" lon="11.233102005606478"><ele>17.0</ele><time>2026-04-24T10:16:22Z</time></trkpt><trkpt lat="44.792327218768925" lon="11.23332325100515"><ele>17.0</ele><time>2026-04-24T10:16:23Z</time></trkpt><trkpt lat="44.79235848910016" lon="11.233547154682784"><ele>17.333333333333336</ele><time>2026-04-24T10:16:24Z</time></trkpt><trkpt lat="44.792391100132875" lon="11.233774291456301"><ele>17.666666666666668</ele><time>2026-04-24T10:16:25Z</time></trkpt><trkpt lat="44.792422058718614" lon="11.23399972557216"><ele>18.0</ele><time>2026-04-24T10:16:26Z</time></trkpt><trkpt lat="44.79245362268877" lon="11.234223354669997"><ele>18.0</ele><time>2026-04-24T10:16:27Z</time></trkpt><trkpt lat="44.79248217322705" lon="11.234443055306974"><ele>18.0</ele><time>2026-04-24T10:16:28Z</time></trkpt><trkpt lat="44.79250872573591" lon="11.234659005306785"><ele>18.0</ele><time>2026-04-24T10:16:29Z</time></trkpt><trkpt lat="44.792534895728785" lon="11.234877401011225"><ele>18.333333333333332</ele><time>2026-04-24T10:16:30Z</time></trkpt><trkpt lat="44.79256454668912" lon="11.235095273645866"><ele>18.666666666666664</ele><time>2026-04-24T10:16:31Z</time></trkpt><trkpt lat="44.79258802568574" lon="11.23530973166387"><ele>19.0</ele><time>2026-04-24T10:16:32Z</time></trkpt><trkpt lat="44.79262601378941" lon="11.235520480246535"><ele>19.333333333333332</ele><time>2026-04-24T10:16:33Z</time></trkpt><trkpt lat="44.792665985757324" lon="11.235734114534642"><ele>19.666666666666668</ele><time>2026-04-24T10:16:34Z</time></trkpt><trkpt lat="44.79269534430738" lon="11.23594398515581"><ele>20.0</ele><time>2026-04-24T10:16:35Z</time></trkpt><trkpt lat="44.792732903297846" lon="11.2361534781844"><ele>20.333333333333336</ele><time>2026-04-24T10:16:36Z</time></trkpt><trkpt lat="44.7927688780148" lon="11.236362891161825"><ele>20.666666666666668</ele><time>2026-04-24T10:16:37Z</time></trkpt><trkpt lat="44.79280306803274" lon="11.236568602908072"><ele>21.0</ele><time>2026-04-24T10:16:38Z</time></trkpt><trkpt lat="44.792834385650835" lon="11.236774403907198"><ele>20.0</ele><time>2026-04-24T10:16:39Z</time></trkpt><trkpt lat="44.79286010532606" lon="11.236978652982481"><ele>19.0</ele><time>2026-04-24T10:16:40Z</time></trkpt><trkpt lat="44.79288509051919" lon="11.237187421085832"><ele>18.0</ele><time>2026-04-24T10:16:41Z</time></trkpt><trkpt lat="44.79291088377388" lon="11.237400872596897"><ele>17.333333333333332</ele><time>2026-04-24T10:16:42Z</time></trkpt><trkpt lat="44.792942043715435" lon="11.237619711065065"><ele>16.666666666666664</ele><time>2026-04-24T10:16:43Z</time></trkpt><trkpt lat="44.79297468248661" lon="11.237841546465976"><ele>16.0</ele><time>2026-04-24T10:16:44Z</time></trkpt><trkpt lat="44.79300218461579" lon="11.238061335495034"><ele>15.75</ele><time>2026-04-24T10:16:45Z</time></trkpt><trkpt lat="44.79302785638697" lon="11.238262164275472"><ele>15.5</ele><time>2026-04-24T10:16:46Z</time></trkpt><trkpt lat="44.79305021182252" lon="11.238452290868612"><ele>15.25</ele><time>2026-04-24T10:16:47Z</time></trkpt><trkpt lat="44.793066857726906" lon="11.238623614015232"><ele>15.0</ele><time>2026-04-24T10:16:48Z</time></trkpt><trkpt lat="44.79308505331919" lon="11.23878673489983"><ele>14.75</ele><time>2026-04-24T10:16:49Z</time></trkpt><trkpt lat="44.793107546912886" lon="11.238974604633919"><ele>14.5</ele><time>2026-04-24T10:16:50Z</time></trkpt><trkpt lat="44.79313148082642" lon="11.239177383902453"><ele>14.25</ele><time>2026-04-24T10:16:51Z</time></trkpt><trkpt lat="44.793158191963" lon="11.23939868058224"><ele>14.0</ele><time>2026-04-24T10:16:52Z</time></trkpt><trkpt lat="44.79319062834623" lon="11.239635486478074"><ele>15.0</ele><time>2026-04-24T10:16:53Z</time></trkpt><trkpt lat="44.79322234157796" lon="11.239884529540495"><ele>16.0</ele><time>2026-04-24T10:16:54Z</time></trkpt><trkpt lat="44.793255601087914" lon="11.24014390569774"><ele>17.0</ele><time>2026-04-24T10:16:55Z</time></trkpt><trkpt lat="44.79328554965403" lon="11.240397896346922"><ele>16.666666666666668</ele><time>2026-04-24T10:16:56Z</time></trkpt><trkpt lat="44.79331769344237" lon="11.240659817878385"><ele>16.333333333333332</ele><time>2026-04-24T10:16:57Z</time></trkpt><trkpt lat="44.79335201883466" lon="11.240925973962703"><ele>16.0</ele><time>2026-04-24T10:16:58Z</time></trkpt><trkpt lat="44.79338490283006" lon="11.241190354095"><ele>16.0</ele><time>2026-04-24T10:16:59Z</time></trkpt><trkpt lat="44.79341676432025" lon="11.241459492374002"><ele>16.0</ele><time>2026-04-24T10:17:00Z</time></trkpt><trkpt lat="44.79345058789414" lon="11.241727313220103"><ele>16.0</ele><time>2026-04-24T10:17:01Z</time></trkpt><trkpt lat="44.793483237397005" lon="11.241996808471484"><ele>15.666666666666666</ele><time>2026-04-24T10:17:02Z</time></trkpt><trkpt lat="44.793515783839126" lon="11.242269007325536"><ele>15.333333333333332</ele><time>2026-04-24T10:17:03Z</time></trkpt><trkpt lat="44.7935499546255" lon="11.242543924650358"><ele>15.0</ele><time>2026-04-24T10:17:04Z</time></trkpt><trkpt lat="44.793586145605374" lon="11.242816194294582"><ele>14.666666666666668</ele><time>2026-04-24T10:17:05Z</time></trkpt><trkpt lat="44.79362213784528" lon="11.243087671134015"><ele>14.333333333333334</ele><time>2026-04-24T10:17:06Z</time></trkpt><trkpt lat="44.79365645240041" lon="11.243361931036526"><ele>14.0</ele><time>2026-04-24T10:17:07Z</time></trkpt><trkpt lat="44.79368825312532" lon="11.243639840500787"><ele>14.0</ele><time>2026-04-24T10:17:08Z</time></trkpt><trkpt lat="44.79372179050884" lon="11.243921163263984"><ele>14.0</ele><time>2026-04-24T10:17:09Z</time></trkpt><trkpt lat="44.79375601191991" lon="11.244202861002181"><ele>14.0</ele><time>2026-04-24T10:17:10Z</time></trkpt><trkpt lat="44.79378992871064" lon="11.244481813768264"><ele>14.0</ele><time>2026-04-24T10:17:11Z</time></trkpt><trkpt lat="44.7938272300571" lon="11.244761958616365"><ele>14.0</ele><time>2026-04-24T10:17:12Z</time></trkpt><trkpt lat="44.79386354081411" lon="11.245044860360077"><ele>14.0</ele><time>2026-04-24T10:17:13Z</time></trkpt><trkpt lat="44.79389811801997" lon="11.245321673931716"><ele>14.0</ele><time>2026-04-24T10:17:14Z</time></trkpt><trkpt lat="44.793930497053566" lon="11.245600634577212"><ele>14.0</ele><time>2026-04-24T10:17:15Z</time></trkpt><trkpt lat="44.79396413898696" lon="11.245881583495953"><ele>14.0</ele><time>2026-04-24T10:17:16Z</time></trkpt><trkpt lat="44.793999909397414" lon="11.246164721745574"><ele>14.0</ele><time>2026-04-24T10:17:17Z</time></trkpt><trkpt lat="44.79403179739303" lon="11.246443104556175"><ele>14.0</ele><time>2026-04-24T10:17:18Z</time></trkpt><trkpt lat="44.794067494635755" lon="11.246722964083082"><ele>14.0</ele><time>2026-04-24T10:17:19Z</time></trkpt><trkpt lat="44.794100080760145" lon="11.247004225753185"><ele>14.333333333333334</ele><time>2026-04-24T10:17:20Z</time></trkpt><trkpt lat="44.794133910198425" lon="11.24728226325008"><ele>14.666666666666668</ele><time>2026-04-24T10:17:21Z</time></trkpt><trkpt lat="44.7941669103041" lon="11.247556942414523"><ele>15.0</ele><time>2026-04-24T10:17:22Z</time></trkpt><trkpt lat="44.794200016631834" lon="11.247833643590145"><ele>15.0</ele><time>2026-04-24T10:17:23Z</time></trkpt><trkpt lat="44.794232202929365" lon="11.248109255905506"><ele>15.0</ele><time>2026-04-24T10:17:24Z</time></trkpt><trkpt lat="44.79426906288017" lon="11.248392840584897"><ele>15.0</ele><time>2026-04-24T10:17:25Z</time></trkpt><trkpt lat="44.794304274126006" lon="11.24867046817859"><ele>15.333333333333332</ele><time>2026-04-24T10:17:26Z</time></trkpt><trkpt lat="44.79433859329879" lon="11.24894673930914"><ele>15.666666666666666</ele><time>2026-04-24T10:17:27Z</time></trkpt><trkpt lat="44.79437373662501" lon="11.249226544672384"><ele>16.0</ele><time>2026-04-24T10:17:28Z</time></trkpt><trkpt lat="44.79441104632163" lon="11.249506791175811"><ele>16.0</ele><time>2026-04-24T10:17:29Z</time></trkpt><trkpt lat="44.79444686293831" lon="11.249787158143032"><ele>16.0</ele><time>2026-04-24T10:17:30Z</time></trkpt><trkpt lat="44.794481003226664" lon="11.250067090834687"><ele>16.0</ele><time>2026-04-24T10:17:31Z</time></trkpt><trkpt lat="44.79451210546743" lon="11.250347249116677"><ele>15.666666666666666</ele><time>2026-04-24T10:17:32Z</time></trkpt><trkpt lat="44.79454527571719" lon="11.250625771165716"><ele>15.333333333333332</ele><time>2026-04-24T10:17:33Z</time></trkpt><trkpt lat="44.794577943473065" lon="11.25090237808582"><ele>15.0</ele><time>2026-04-24T10:17:34Z</time></trkpt><trkpt lat="44.79461177669495" lon="11.251180614985204"><ele>15.0</ele><time>2026-04-24T10:17:35Z</time></trkpt><trkpt lat="44.79464791708941" lon="11.251462030164099"><ele>15.0</ele><time>2026-04-24T10:17:36Z</time></trkpt><trkpt lat="44.7946834117101" lon="11.251740119674384"><ele>15.0</ele><time>2026-04-24T10:17:37Z</time></trkpt><trkpt lat="44.79471855161415" lon="11.25202054967791"><ele>15.333333333333332</ele><time>2026-04-24T10:17:38Z</time></trkpt><trkpt lat="44.794752881627076" lon="11.252297096639339"><ele>15.666666666666666</ele><time>2026-04-24T10:17:39Z</time></trkpt><trkpt lat="44.794788228896934" lon="11.252575499038969"><ele>16.0</ele><time>2026-04-24T10:17:40Z</time></trkpt><trkpt lat="44.79482043945997" lon="11.252855524826291"><ele>16.333333333333332</ele><time>2026-04-24T10:17:41Z</time></trkpt><trkpt lat="44.794852529854545" lon="11.25313308015363"><ele>16.666666666666668</ele><time>2026-04-24T10:17:42Z</time></trkpt><trkpt lat="44.794887630098266" lon="11.253410673795043"><ele>17.0</ele><time>2026-04-24T10:17:43Z</time></trkpt><trkpt lat="44.794924127493154" lon="11.253690906680326"><ele>16.0</ele><time>2026-04-24T10:17:44Z</time></trkpt><trkpt lat="44.79496012076616" lon="11.253969259740982"><ele>15.0</ele><time>2026-04-24T10:17:45Z</time></trkpt><trkpt lat="44.79499629131748" lon="11.254249226445635"><ele>14.0</ele><time>2026-04-24T10:17:46Z</time></trkpt><trkpt lat="44.795031729244535" lon="11.25453139183991"><ele>14.0</ele><time>2026-04-24T10:17:47Z</time></trkpt><trkpt lat="44.795067671771704" lon="11.254809116676443"><ele>14.0</ele><time>2026-04-24T10:17:48Z</time></trkpt><trkpt lat="44.79510204749162" lon="11.255085112244872"><ele>14.0</ele><time>2026-04-24T10:17:49Z</time></trkpt><trkpt lat="44.79513615599478" lon="11.255365483477888"><ele>14.333333333333334</ele><time>2026-04-24T10:17:50Z</time></trkpt><trkpt lat="44.795171487964375" lon="11.255643028526382"><ele>14.666666666666668</ele><time>2026-04-24T10:17:51Z</time></trkpt><trkpt lat="44.79520357716242" lon="11.255923757752939"><ele>15.0</ele><time>2026-04-24T10:17:52Z</time></trkpt><trkpt lat="44.79523802032113" lon="11.256202842808761"><ele>15.666666666666668</ele><time>2026-04-24T10:17:53Z</time></trkpt><trkpt lat="44.795271605033356" lon="11.256481659797041"><ele>16.333333333333336</ele><time>2026-04-24T10:17:54Z</time></trkpt><trkpt lat="44.795305924121074" lon="11.256762934058067"><ele>17.0</ele><time>2026-04-24T10:17:55Z</time></trkpt><trkpt lat="44.795341486860984" lon="11.257044068760251"><ele>16.666666666666668</ele><time>2026-04-24T10:17:56Z</time></trkpt><trkpt lat="44.79537859016544" lon="11.257320611245"><ele>16.333333333333332</ele><time>2026-04-24T10:17:57Z</time></trkpt><trkpt lat="44.7954151869431" lon="11.257599250997103"><ele>16.0</ele><time>2026-04-24T10:17:58Z</time></trkpt><trkpt lat="44.7954492428896" lon="11.257876002850429"><ele>15.666666666666666</ele><time>2026-04-24T10:17:59Z</time></trkpt><trkpt lat="44.795481282963564" lon="11.25815531570952"><ele>15.333333333333332</ele><time>2026-04-24T10:18:00Z</time></trkpt><trkpt lat="44.795511626289034" lon="11.258434025399064"><ele>15.0</ele><time>2026-04-24T10:18:01Z</time></trkpt><trkpt lat="44.795545437540845" lon="11.258711456691346"><ele>15.0</ele><time>2026-04-24T10:18:02Z</time></trkpt><trkpt lat="44.79558117131448" lon="11.25898966614798"><ele>15.0</ele><time>2026-04-24T10:18:03Z</time></trkpt><trkpt lat="44.79561633580038" lon="11.259268763136872"><ele>15.0</ele><time>2026-04-24T10:18:04Z</time></trkpt><trkpt lat="44.7956503421664" lon="11.259547302899618"><ele>15.0</ele><time>2026-04-24T10:18:05Z</time></trkpt><trkpt lat="44.795683112790115" lon="11.259825474790901"><ele>15.0</ele><time>2026-04-24T10:18:06Z</time></trkpt><trkpt lat="44.79571682342203" lon="11.260104775281064"><ele>15.0</ele><time>2026-04-24T10:18:07Z</time></trkpt><trkpt lat="44.79575078760007" lon="11.260385322033885"><ele>15.0</ele><time>2026-04-24T10:18:08Z</time></trkpt><trkpt lat="44.79578793803943" lon="11.260666881585811"><ele>15.0</ele><time>2026-04-24T10:18:09Z</time></trkpt><trkpt lat="44.795824556495184" lon="11.26094269626287"><ele>15.0</ele><time>2026-04-24T10:18:10Z</time></trkpt><trkpt lat="44.79586016701553" lon="11.261223311643997"><ele>14.333333333333332</ele><time>2026-04-24T10:18:11Z</time></trkpt><trkpt lat="44.79589362941315" lon="11.261498121570567"><ele>13.666666666666666</ele><time>2026-04-24T10:18:12Z</time></trkpt><trkpt lat="44.79592878418918" lon="11.261775365501716"><ele>13.0</ele><time>2026-04-24T10:18:13Z</time></trkpt><trkpt lat="44.79596325224476" lon="11.262054779769224"><ele>13.333333333333332</ele><time>2026-04-24T10:18:14Z</time></trkpt><trkpt lat="44.79599609659118" lon="11.262333449091129"><ele>13.666666666666668</ele><time>2026-04-24T10:18:15Z</time></trkpt><trkpt lat="44.796029143299315" lon="11.262612028337909"><ele>14.0</ele><time>2026-04-24T10:18:16Z</time></trkpt><trkpt lat="44.79606366069309" lon="11.262892673646064"><ele>14.0</ele><time>2026-04-24T10:18:17Z</time></trkpt><trkpt lat="44.796098555426084" lon="11.263172171966486"><ele>14.0</ele><time>2026-04-24T10:18:18Z</time></trkpt><trkpt lat="44.7961337707165" lon="11.263453292686663"><ele>14.0</ele><time>2026-04-24T10:18:19Z</time></trkpt><trkpt lat="44.79616894401629" lon="11.263734974365548"><ele>14.0</ele><time>2026-04-24T10:18:20Z</time></trkpt><trkpt lat="44.79620514392039" lon="11.264015454320848"><ele>14.0</ele><time>2026-04-24T10:18:21Z</time></trkpt><trkpt lat="44.796239357316196" lon="11.264294184015252"><ele>14.0</ele><time>2026-04-24T10:18:22Z</time></trkpt><trkpt lat="44.79627325915794" lon="11.264572189907568"><ele>14.0</ele><time>2026-04-24T10:18:23Z</time></trkpt><trkpt lat="44.79630669848677" lon="11.264852106577026"><ele>14.0</ele><time>2026-04-24T10:18:24Z</time></trkpt><trkpt lat="44.79634013690967" lon="11.265127389516092"><ele>14.0</ele><time>2026-04-24T10:18:25Z</time></trkpt><trkpt lat="44.79637336767558" lon="11.26540578462408"><ele>13.666666666666668</ele><time>2026-04-24T10:18:26Z</time></trkpt><trkpt lat="44.796408679067405" lon="11.265683000008536"><ele>13.333333333333332</ele><time>2026-04-24T10:18:27Z</time></trkpt><trkpt lat="44.79644104815062" lon="11.265960084440824"><ele>13.0</ele><time>2026-04-24T10:18:28Z</time></trkpt><trkpt lat="44.796474355445724" lon="11.266237938423926"><ele>13.0</ele><time>2026-04-24T10:18:29Z</time></trkpt><trkpt lat="44.79650895770371" lon="11.266518619437939"><ele>13.0</ele><time>2026-04-24T10:18:30Z</time></trkpt><trkpt lat="44.79654621872396" lon="11.266797853046508"><ele>13.0</ele><time>2026-04-24T10:18:31Z</time></trkpt><trkpt lat="44.796580947734974" lon="11.26707902480055"><ele>13.666666666666666</ele><time>2026-04-24T10:18:32Z</time></trkpt><trkpt lat="44.79661656972962" lon="11.267357995290999"><ele>14.333333333333332</ele><time>2026-04-24T10:18:33Z</time></trkpt><trkpt lat="44.79665141673783" lon="11.267637681231276"><ele>15.0</ele><time>2026-04-24T10:18:34Z</time></trkpt><trkpt lat="44.7966886192403" lon="11.267918422873763"><ele>15.0</ele><time>2026-04-24T10:18:35Z</time></trkpt><trkpt lat="44.79672217646743" lon="11.268201844027402"><ele>15.0</ele><time>2026-04-24T10:18:36Z</time></trkpt><trkpt lat="44.79675560401361" lon="11.268481689200964"><ele>15.0</ele><time>2026-04-24T10:18:37Z</time></trkpt><trkpt lat="44.79679026739849" lon="11.26876236539226"><ele>14.666666666666668</ele><time>2026-04-24T10:18:38Z</time></trkpt><trkpt lat="44.79682650393025" lon="11.269038618497964"><ele>14.333333333333334</ele><time>2026-04-24T10:18:39Z</time></trkpt><trkpt lat="44.79686457176164" lon="11.269314935432241"><ele>14.0</ele><time>2026-04-24T10:18:40Z</time></trkpt><trkpt lat="44.79690123339674" lon="11.269594897670997"><ele>14.0</ele><time>2026-04-24T10:18:41Z</time></trkpt><trkpt lat="44.79693345187598" lon="11.269875236160967"><ele>14.0</ele><time>2026-04-24T10:18:42Z</time></trkpt><trkpt lat="44.79696334240521" lon="11.270151507040712"><ele>14.0</ele><time>2026-04-24T10:18:43Z</time></trkpt><trkpt lat="44.79699654949855" lon="11.27042843184258"><ele>14.333333333333334</ele><time>2026-04-24T10:18:44Z</time></trkpt><trkpt lat="44.79703170758534" lon="11.270708157676289"><ele>14.666666666666668</ele><time>2026-04-24T10:18:45Z</time></trkpt><trkpt lat="44.797067830779284" lon="11.270984506868688"><ele>15.0</ele><time>2026-04-24T10:18:46Z</time></trkpt><trkpt lat="44.79710107646068" lon="11.271263666831645"><ele>15.333333333333332</ele><time>2026-04-24T10:18:47Z</time></trkpt><trkpt lat="44.797133877262745" lon="11.271542123690129"><ele>15.666666666666666</ele><time>2026-04-24T10:18:48Z</time></trkpt><trkpt lat="44.79716844946875" lon="11.271821122043661"><ele>16.0</ele><time>2026-04-24T10:18:49Z</time></trkpt><trkpt lat="44.797201971769624" lon="11.272100527032856"><ele>15.666666666666666</ele><time>2026-04-24T10:18:50Z</time></trkpt><trkpt lat="44.79723890166606" lon="11.272380050504207"><ele>15.333333333333332</ele><time>2026-04-24T10:18:51Z</time></trkpt><trkpt lat="44.79727599852331" lon="11.272659397316124"><ele>15.0</ele><time>2026-04-24T10:18:52Z</time></trkpt><trkpt lat="44.7973123416697" lon="11.272938672769632"><ele>14.333333333333332</ele><time>2026-04-24T10:18:53Z</time></trkpt><trkpt lat="44.79734682800211" lon="11.27321928888449"><ele>13.666666666666666</ele><time>2026-04-24T10:18:54Z</time></trkpt><trkpt lat="44.797381929155755" lon="11.273499375324661"><ele>13.0</ele><time>2026-04-24T10:18:55Z</time></trkpt><trkpt lat="44.797416004744676" lon="11.273779123131483"><ele>13.666666666666666</ele><time>2026-04-24T10:18:56Z</time></trkpt><trkpt lat="44.797449456887655" lon="11.274055798973519"><ele>14.333333333333332</ele><time>2026-04-24T10:18:57Z</time></trkpt><trkpt lat="44.79748178261959" lon="11.274335114671018"><ele>15.0</ele><time>2026-04-24T10:18:58Z</time></trkpt><trkpt lat="44.7975154281736" lon="11.274613279521132"><ele>15.666666666666668</ele><time>2026-04-24T10:18:59Z</time></trkpt><trkpt lat="44.797550190782516" lon="11.274890692398944"><ele>16.333333333333336</ele><time>2026-04-24T10:19:00Z</time></trkpt><trkpt lat="44.797585871394034" lon="11.275158801418657"><ele>17.0</ele><time>2026-04-24T10:19:01Z</time></trkpt><trkpt lat="44.797619969718816" lon="11.275408757162683"><ele>16.666666666666668</ele><time>2026-04-24T10:19:02Z</time></trkpt><trkpt lat="44.79764897642922" lon="11.27564393106385"><ele>16.333333333333332</ele><time>2026-04-24T10:19:03Z</time></trkpt><trkpt lat="44.79767670600994" lon="11.275870134019186"><ele>16.0</ele><time>2026-04-24T10:19:04Z</time></trkpt><trkpt lat="44.797702527319856" lon="11.276081226432048"><ele>15.75</ele><time>2026-04-24T10:19:05Z</time></trkpt><trkpt lat="44.79772484317072" lon="11.276280747380557"><ele>15.5</ele><time>2026-04-24T10:19:06Z</time></trkpt><trkpt lat="44.79774721404158" lon="11.276470607131813"><ele>15.25</ele><time>2026-04-24T10:19:07Z</time></trkpt><trkpt lat="44.797770437346934" lon="11.276662789609425"><ele>15.0</ele><time>2026-04-24T10:19:08Z</time></trkpt><trkpt lat="44.79780174926381" lon="11.27686058693873"><ele>15.0</ele><time>2026-04-24T10:19:09Z</time></trkpt><trkpt lat="44.797826596058066" lon="11.277062137544531"><ele>15.0</ele><time>2026-04-24T10:19:10Z</time></trkpt><trkpt lat="44.79785397024699" lon="11.27725520112928"><ele>15.0</ele><time>2026-04-24T10:19:11Z</time></trkpt><trkpt lat="44.797867368608735" lon="11.27744070591069"><ele>15.0</ele><time>2026-04-24T10:19:12Z</time></trkpt><trkpt lat="44.797857652893946" lon="11.27761002517502"><ele>15.0</ele><time>2026-04-24T10:19:13Z</time></trkpt><trkpt lat="44.79781143809875" lon="11.277755827997444"><ele>15.0</ele><time>2026-04-24T10:19:14Z</time></trkpt><trkpt lat="44.797733438305706" lon="11.277897093649754"><ele>15.0</ele><time>2026-04-24T10:19:15Z</time></trkpt><trkpt lat="44.79762824843095" lon="11.278037706582417"><ele>15.0</ele><time>2026-04-24T10:19:16Z</time></trkpt><trkpt lat="44.79751966647786" lon="11.278182691651377"><ele>16.0</ele><time>2026-04-24T10:19:17Z</time></trkpt><trkpt lat="44.797383770710745" lon="11.278309657934848"><ele>17.0</ele><time>2026-04-24T10:19:18Z</time></trkpt><trkpt lat="44.79726677746985" lon="11.27848328631944"><ele>18.0</ele><time>2026-04-24T10:19:19Z</time></trkpt><trkpt lat="44.797139838018886" lon="11.278658535643597"><ele>18.0</ele><time>2026-04-24T10:19:20Z</time></trkpt><trkpt lat="44.79700603577015" lon="11.278844402694313"><ele>18.0</ele><time>2026-04-24T10:19:21Z</time></trkpt><trkpt lat="44.79687513674927" lon="11.279039669107814"><ele>18.0</ele><time>2026-04-24T10:19:22Z</time></trkpt><trkpt lat="44.79675108920264" lon="11.27924869235082"><ele>16.666666666666668</ele><time>2026-04-24T10:19:23Z</time></trkpt><trkpt lat="44.7966193582598" lon="11.279434706243249"><ele>15.333333333333334</ele><time>2026-04-24T10:19:24Z</time></trkpt><trkpt lat="44.79649453335448" lon="11.279631403394138"><ele>14.0</ele><time>2026-04-24T10:19:25Z</time></trkpt><trkpt lat="44.796371266381" lon="11.27981929257282"><ele>13.666666666666668</ele><time>2026-04-24T10:19:26Z</time></trkpt><trkpt lat="44.79624927640206" lon="11.279995295249293"><ele>13.333333333333332</ele><time>2026-04-24T10:19:27Z</time></trkpt><trkpt lat="44.79613349185757" lon="11.280165689279107"><ele>13.0</ele><time>2026-04-24T10:19:28Z</time></trkpt><trkpt lat="44.796026804371884" lon="11.280325053295643"><ele>13.25</ele><time>2026-04-24T10:19:29Z</time></trkpt><trkpt lat="44.795924533789325" lon="11.280481122961556"><ele>13.5</ele><time>2026-04-24T10:19:30Z</time></trkpt><trkpt lat="44.795822760965294" lon="11.28062972411099"><ele>13.75</ele><time>2026-04-24T10:19:31Z</time></trkpt><trkpt lat="44.795726121161614" lon="11.28078968219056"><ele>14.0</ele><time>2026-04-24T10:19:32Z</time></trkpt><trkpt lat="44.79562784914142" lon="11.280946550140749"><ele>13.0</ele><time>2026-04-24T10:19:33Z</time></trkpt><trkpt lat="44.795525393747845" lon="11.281101333011962"><ele>12.0</ele><time>2026-04-24T10:19:34Z</time></trkpt><trkpt lat="44.79541936400952" lon="11.28125530717936"><ele>11.0</ele><time>2026-04-24T10:19:35Z</time></trkpt><trkpt lat="44.795317089141314" lon="11.281408390029556"><ele>11.25</ele><time>2026-04-24T10:19:36Z</time></trkpt><trkpt lat="44.79521310852911" lon="11.281558434131057"><ele>11.5</ele><time>2026-04-24T10:19:37Z</time></trkpt><trkpt lat="44.795112136929355" lon="11.281704223992785"><ele>11.75</ele><time>2026-04-24T10:19:38Z</time></trkpt><trkpt lat="44.79501442490817" lon="11.281846645018966"><ele>12.0</ele><time>2026-04-24T10:19:39Z</time></trkpt><trkpt lat="44.7949215143661" lon="11.281989731996259"><ele>12.75</ele><time>2026-04-24T10:19:40Z</time></trkpt><trkpt lat="44.79483264602988" lon="11.282129721401581"><ele>13.5</ele><time>2026-04-24T10:19:41Z</time></trkpt><trkpt lat="44.79474555211542" lon="11.282266239247418"><ele>14.25</ele><time>2026-04-24T10:19:42Z</time></trkpt><trkpt lat="44.79465812560043" lon="11.282397803433192"><ele>15.0</ele><time>2026-04-24T10:19:43Z</time></trkpt><trkpt lat="44.7945698553269" lon="11.282523812746616"><ele>15.0</ele><time>2026-04-24T10:19:44Z</time></trkpt><trkpt lat="44.79448474598615" lon="11.282647122562695"><ele>15.0</ele><time>2026-04-24T10:19:45Z</time></trkpt><trkpt lat="44.79440229270146" lon="11.28276688866094"><ele>15.0</ele><time>2026-04-24T10:19:46Z</time></trkpt><trkpt lat="44.79432100631025" lon="11.28288821580421"><ele>15.0</ele><time>2026-04-24T10:19:47Z</time></trkpt><trkpt lat="44.794240022358906" lon="11.283012656432984"><ele>14.4</ele><time>2026-04-24T10:19:48Z</time></trkpt><trkpt lat="44.79416492902949" lon="11.283128060087368"><ele>13.8</ele><time>2026-04-24T10:19:49Z</time></trkpt><trkpt lat="44.794103637417074" lon="11.283220194339984"><ele>13.2</ele><time>2026-04-24T10:19:50Z</time></trkpt><trkpt lat="44.79405278668046" lon="11.28328799767127"><ele>12.6</ele><time>2026-04-24T10:19:51Z</time></trkpt><trkpt lat="44.793979342645905" lon="11.283391238532285"><ele>12.0</ele><time>2026-04-24T10:19:53Z</time></trkpt><trkpt lat="44.794017794381496" lon="11.28355641487236"><ele>12.0</ele><time>2026-04-24T10:19:58Z</time></trkpt><trkpt lat="44.79408221745768" lon="11.283622531357803"><ele>12.0</ele><time>2026-04-24T10:19:59Z</time></trkpt><trkpt lat="44.79415611232464" lon="11.283688131340465"><ele>12.0</ele><time>2026-04-24T10:20:00Z</time></trkpt><trkpt lat="44.79423975035375" lon="11.283768734601473"><ele>12.0</ele><time>2026-04-24T10:20:01Z</time></trkpt><trkpt lat="44.79433185626349" lon="11.283865793351818"><ele>12.0</ele><time>2026-04-24T10:20:02Z</time></trkpt><trkpt lat="44.794435865165816" lon="11.28397771803896"><ele>12.25</ele><time>2026-04-24T10:20:03Z</time></trkpt><trkpt lat="44.79453526008974" lon="11.284086657000946"><ele>12.5</ele><time>2026-04-24T10:20:04Z</time></trkpt><trkpt lat="44.7946428008517" lon="11.284205256360906"><ele>12.75</ele><time>2026-04-24T10:20:05Z</time></trkpt><trkpt lat="44.79475534289877" lon="11.28432942864508"><ele>13.0</ele><time>2026-04-24T10:20:06Z</time></trkpt><trkpt lat="44.79487346194649" lon="11.284453153322064"><ele>13.0</ele><time>2026-04-24T10:20:07Z</time></trkpt><trkpt lat="44.794992716534416" lon="11.28458246002442"><ele>13.0</ele><time>2026-04-24T10:20:08Z</time></trkpt><trkpt lat="44.79511689714238" lon="11.284715652825048"><ele>13.0</ele><time>2026-04-24T10:20:09Z</time></trkpt><trkpt lat="44.79524466024065" lon="11.284845010959883"><ele>12.666666666666666</ele><time>2026-04-24T10:20:10Z</time></trkpt><trkpt lat="44.795369515512824" lon="11.284971707301013"><ele>12.333333333333332</ele><time>2026-04-24T10:20:11Z</time></trkpt><trkpt lat="44.79549449087185" lon="11.285100452169635"><ele>12.0</ele><time>2026-04-24T10:20:12Z</time></trkpt><trkpt lat="44.795619591913095" lon="11.285239591489397"><ele>12.0</ele><time>2026-04-24T10:20:13Z</time></trkpt><trkpt lat="44.795749421454076" lon="11.285379744713795"><ele>12.0</ele><time>2026-04-24T10:20:14Z</time></trkpt><trkpt lat="44.79588531914479" lon="11.285524773120448"><ele>12.0</ele><time>2026-04-24T10:20:15Z</time></trkpt><trkpt lat="44.79601907026622" lon="11.28567144231002"><ele>12.0</ele><time>2026-04-24T10:20:16Z</time></trkpt><trkpt lat="44.796159435909196" lon="11.285820772419829"><ele>12.0</ele><time>2026-04-24T10:20:17Z</time></trkpt><trkpt lat="44.79630462560573" lon="11.285972095581267"><ele>12.0</ele><time>2026-04-24T10:20:18Z</time></trkpt><trkpt lat="44.79645092839726" lon="11.286126189209"><ele>12.0</ele><time>2026-04-24T10:20:19Z</time></trkpt><trkpt lat="44.796594450957414" lon="11.286279571948324"><ele>12.0</ele><time>2026-04-24T10:20:20Z</time></trkpt><trkpt lat="44.7967384067758" lon="11.286431899018902"><ele>12.0</ele><time>2026-04-24T10:20:21Z</time></trkpt><trkpt lat="44.796879370760564" lon="11.286583744331516"><ele>12.0</ele><time>2026-04-24T10:20:22Z</time></trkpt><trkpt lat="44.7970193503752" lon="11.286737190284008"><ele>12.0</ele><time>2026-04-24T10:20:23Z</time></trkpt><trkpt lat="44.79715830068468" lon="11.28688405903901"><ele>12.0</ele><time>2026-04-24T10:20:24Z</time></trkpt><trkpt lat="44.79729581616563" lon="11.287030852885403"><ele>12.0</ele><time>2026-04-24T10:20:25Z</time></trkpt><trkpt lat="44.79743119958057" lon="11.287170987650521"><ele>12.0</ele><time>2026-04-24T10:20:26Z</time></trkpt><trkpt lat="44.79756333653744" lon="11.287313258633379"><ele>12.0</ele><time>2026-04-24T10:20:27Z</time></trkpt><trkpt lat="44.79769263448018" lon="11.287456577417734"><ele>12.0</ele><time>2026-04-24T10:20:28Z</time></trkpt><trkpt lat="44.797821618119464" lon="11.287599464941698"><ele>12.0</ele><time>2026-04-24T10:20:29Z</time></trkpt><trkpt lat="44.797950926749174" lon="11.287736983163771"><ele>12.0</ele><time>2026-04-24T10:20:30Z</time></trkpt><trkpt lat="44.7980828919664" lon="11.287875636503962"><ele>12.0</ele><time>2026-04-24T10:20:31Z</time></trkpt><trkpt lat="44.79821270843602" lon="11.288015331708744"><ele>12.0</ele><time>2026-04-24T10:20:32Z</time></trkpt><trkpt lat="44.79834546974372" lon="11.288157294814273"><ele>12.0</ele><time>2026-04-24T10:20:33Z</time></trkpt><trkpt lat="44.79847725472256" lon="11.288297242751495"><ele>12.0</ele><time>2026-04-24T10:20:34Z</time></trkpt><trkpt lat="44.79861026101044" lon="11.288439156152101"><ele>12.0</ele><time>2026-04-24T10:20:35Z</time></trkpt><trkpt lat="44.798743498203834" lon="11.28858310039081"><ele>12.0</ele><time>2026-04-24T10:20:36Z</time></trkpt><trkpt lat="44.79887873932899" lon="11.288728652543035"><ele>12.0</ele><time>2026-04-24T10:20:37Z</time></trkpt><trkpt lat="44.79901315449386" lon="11.288874944947462"><ele>12.0</ele><time>2026-04-24T10:20:38Z</time></trkpt><trkpt lat="44.79914876808647" lon="11.289023095584866"><ele>12.0</ele><time>2026-04-24T10:20:39Z</time></trkpt><trkpt lat="44.79928365928277" lon="11.28917054128331"><ele>11.666666666666666</ele><time>2026-04-24T10:20:40Z</time></trkpt><trkpt lat="44.79942670428706" lon="11.289325812055447"><ele>11.333333333333332</ele><time>2026-04-24T10:20:41Z</time></trkpt><trkpt lat="44.79957497278182" lon="11.289485760311909"><ele>11.0</ele><time>2026-04-24T10:20:42Z</time></trkpt><trkpt lat="44.79972847041956" lon="11.28964643702775"><ele>11.666666666666666</ele><time>2026-04-24T10:20:43Z</time></trkpt><trkpt lat="44.79988642007386" lon="11.289813374546839"><ele>12.333333333333332</ele><time>2026-04-24T10:20:44Z</time></trkpt><trkpt lat="44.80004821468418" lon="11.28998606215373"><ele>13.0</ele><time>2026-04-24T10:20:45Z</time></trkpt><trkpt lat="44.800214080873545" lon="11.290157263062815"><ele>13.0</ele><time>2026-04-24T10:20:46Z</time></trkpt><trkpt lat="44.800383081105345" lon="11.290331819255671"><ele>13.0</ele><time>2026-04-24T10:20:47Z</time></trkpt><trkpt lat="44.800548577971654" lon="11.290511467636083"><ele>13.0</ele><time>2026-04-24T10:20:48Z</time></trkpt><trkpt lat="44.80071045178139" lon="11.290688783841155"><ele>12.666666666666666</ele><time>2026-04-24T10:20:49Z</time></trkpt><trkpt lat="44.80086976860863" lon="11.290859135733337"><ele>12.333333333333332</ele><time>2026-04-24T10:20:50Z</time></trkpt><trkpt lat="44.80102599534766" lon="11.291025452701092"><ele>12.0</ele><time>2026-04-24T10:20:51Z</time></trkpt><trkpt lat="44.80117949219823" lon="11.291182512465246"><ele>12.0</ele><time>2026-04-24T10:20:52Z</time></trkpt><trkpt lat="44.80133195853406" lon="11.291342301138721"><ele>12.0</ele><time>2026-04-24T10:20:53Z</time></trkpt><trkpt lat="44.801483375951776" lon="11.291500647103954"><ele>12.0</ele><time>2026-04-24T10:20:54Z</time></trkpt><trkpt lat="44.801630809045676" lon="11.291668672876048"><ele>11.666666666666666</ele><time>2026-04-24T10:20:55Z</time></trkpt><trkpt lat="44.801784588746344" lon="11.291831019654966"><ele>11.333333333333332</ele><time>2026-04-24T10:20:56Z</time></trkpt><trkpt lat="44.80193663313187" lon="11.291993457824667"><ele>11.0</ele><time>2026-04-24T10:20:57Z</time></trkpt><trkpt lat="44.80208931687292" lon="11.292159315072361"><ele>11.666666666666666</ele><time>2026-04-24T10:20:58Z</time></trkpt><trkpt lat="44.80223827582219" lon="11.29232349021937"><ele>12.333333333333332</ele><time>2026-04-24T10:20:59Z</time></trkpt><trkpt lat="44.80238437648874" lon="11.292488729594382"><ele>13.0</ele><time>2026-04-24T10:21:00Z</time></trkpt><trkpt lat="44.80252749257621" lon="11.29265989597535"><ele>13.0</ele><time>2026-04-24T10:21:01Z</time></trkpt><trkpt lat="44.80266945543379" lon="11.29283277818111"><ele>13.0</ele><time>2026-04-24T10:21:02Z</time></trkpt><trkpt lat="44.80280511086205" lon="11.293008521701898"><ele>13.0</ele><time>2026-04-24T10:21:03Z</time></trkpt><trkpt lat="44.80293779836875" lon="11.293187188753246"><ele>12.5</ele><time>2026-04-24T10:21:04Z</time></trkpt><trkpt lat="44.80318567129419" lon="11.293560256627016"><ele>12.0</ele><time>2026-04-24T10:21:06Z</time></trkpt><trkpt lat="44.80330512793249" lon="11.293758381304789"><ele>12.0</ele><time>2026-04-24T10:21:07Z</time></trkpt><trkpt lat="44.80342598096074" lon="11.293958894292498"><ele>12.0</ele><time>2026-04-24T10:21:08Z</time></trkpt><trkpt lat="44.80354644710656" lon="11.294154656802693"><ele>12.0</ele><time>2026-04-24T10:21:09Z</time></trkpt><trkpt lat="44.8036717506326" lon="11.294353139530896"><ele>11.666666666666666</ele><time>2026-04-24T10:21:10Z</time></trkpt><trkpt lat="44.80379716992352" lon="11.294552925874651"><ele>11.333333333333332</ele><time>2026-04-24T10:21:11Z</time></trkpt><trkpt lat="44.803920852008474" lon="11.294748412886166"><ele>11.0</ele><time>2026-04-24T10:21:12Z</time></trkpt><trkpt lat="44.804044527736984" lon="11.29494129817742"><ele>11.333333333333332</ele><time>2026-04-24T10:21:13Z</time></trkpt><trkpt lat="44.804166775767776" lon="11.295133651877597"><ele>11.666666666666666</ele><time>2026-04-24T10:21:14Z</time></trkpt><trkpt lat="44.804290562675675" lon="11.295325033524772"><ele>12.0</ele><time>2026-04-24T10:21:15Z</time></trkpt><trkpt lat="44.80441290557322" lon="11.295519867541735"><ele>12.0</ele><time>2026-04-24T10:21:16Z</time></trkpt><trkpt lat="44.804532945975616" lon="11.295714912777807"><ele>12.0</ele><time>2026-04-24T10:21:17Z</time></trkpt><trkpt lat="44.804652065566046" lon="11.29590106064236"><ele>12.0</ele><time>2026-04-24T10:21:18Z</time></trkpt><trkpt lat="44.80477017110728" lon="11.296082375374551"><ele>12.0</ele><time>2026-04-24T10:21:19Z</time></trkpt><trkpt lat="44.804879421241225" lon="11.296254343739271"><ele>12.0</ele><time>2026-04-24T10:21:20Z</time></trkpt><trkpt lat="44.80498134294992" lon="11.296414179181841"><ele>12.0</ele><time>2026-04-24T10:21:21Z</time></trkpt><trkpt lat="44.805076151776284" lon="11.296561669427472"><ele>12.0</ele><time>2026-04-24T10:21:22Z</time></trkpt><trkpt lat="44.805164879946254" lon="11.296704618888379"><ele>12.0</ele><time>2026-04-24T10:21:23Z</time></trkpt><trkpt lat="44.80524828563178" lon="11.296836932850367"><ele>12.0</ele><time>2026-04-24T10:21:24Z</time></trkpt><trkpt lat="44.80532538500316" lon="11.296953602493828"><ele>12.0</ele><time>2026-04-24T10:21:25Z</time></trkpt><trkpt lat="44.80537579938984" lon="11.297037721993373"><ele>12.0</ele><time>2026-04-24T10:21:26Z</time></trkpt><trkpt lat="44.80539731868249" lon="11.297161738966176"><ele>12.0</ele><time>2026-04-24T10:21:28Z</time></trkpt><trkpt lat="44.80526118650636" lon="11.29728468192826"><ele>12.0</ele><time>2026-04-24T10:21:29Z</time></trkpt><trkpt lat="44.80521199343345" lon="11.297425448870396"><ele>12.0</ele><time>2026-04-24T10:21:30Z</time></trkpt><trkpt lat="44.80515563648013" lon="11.297586715799557"><ele>12.333333333333332</ele><time>2026-04-24T10:21:31Z</time></trkpt><trkpt lat="44.805091562435535" lon="11.297770065163178"><ele>12.666666666666666</ele><time>2026-04-24T10:21:32Z</time></trkpt><trkpt lat="44.805030118197976" lon="11.297972004899325"><ele>13.0</ele><time>2026-04-24T10:21:33Z</time></trkpt><trkpt lat="44.8049587751542" lon="11.298176532739463"><ele>13.0</ele><time>2026-04-24T10:21:34Z</time></trkpt><trkpt lat="44.80488794803303" lon="11.298381557961239"><ele>13.0</ele><time>2026-04-24T10:21:35Z</time></trkpt><trkpt lat="44.804817092711225" lon="11.29858269005254"><ele>13.0</ele><time>2026-04-24T10:21:36Z</time></trkpt><trkpt lat="44.8047455972504" lon="11.298784100275396"><ele>12.666666666666666</ele><time>2026-04-24T10:21:37Z</time></trkpt><trkpt lat="44.80466848181812" lon="11.298987100342025"><ele>12.333333333333332</ele><time>2026-04-24T10:21:38Z</time></trkpt><trkpt lat="44.804599068283764" lon="11.299189409093415"><ele>12.0</ele><time>2026-04-24T10:21:39Z</time></trkpt><trkpt lat="44.80453033699419" lon="11.299397753786371"><ele>12.0</ele><time>2026-04-24T10:21:40Z</time></trkpt><trkpt lat="44.80446173714956" lon="11.299608015212817"><ele>12.0</ele><time>2026-04-24T10:21:41Z</time></trkpt><trkpt lat="44.80439198854539" lon="11.299813548177292"><ele>12.0</ele><time>2026-04-24T10:21:42Z</time></trkpt><trkpt lat="44.80431976667705" lon="11.300019960072028"><ele>13.0</ele><time>2026-04-24T10:21:43Z</time></trkpt><trkpt lat="44.80425003863023" lon="11.300233367956844"><ele>14.0</ele><time>2026-04-24T10:21:44Z</time></trkpt><trkpt lat="44.804176691111984" lon="11.300448075557485"><ele>15.0</ele><time>2026-04-24T10:21:45Z</time></trkpt><trkpt lat="44.80410479384281" lon="11.300662591961508"><ele>15.333333333333332</ele><time>2026-04-24T10:21:46Z</time></trkpt><trkpt lat="44.80403248558243" lon="11.300882620105705"><ele>15.666666666666666</ele><time>2026-04-24T10:21:47Z</time></trkpt><trkpt lat="44.80396241273136" lon="11.301107345499139"><ele>16.0</ele><time>2026-04-24T10:21:48Z</time></trkpt><trkpt lat="44.80388918683036" lon="11.301329479575427"><ele>15.333333333333332</ele><time>2026-04-24T10:21:49Z</time></trkpt><trkpt lat="44.8038180035806" lon="11.301552562924874"><ele>14.666666666666668</ele><time>2026-04-24T10:21:50Z</time></trkpt><trkpt lat="44.803749038178836" lon="11.30177761574089"><ele>14.0</ele><time>2026-04-24T10:21:51Z</time></trkpt><trkpt lat="44.803662147640274" lon="11.301991731185357"><ele>14.0</ele><time>2026-04-24T10:21:52Z</time></trkpt><trkpt lat="44.80358992303864" lon="11.302214094994005"><ele>14.0</ele><time>2026-04-24T10:21:53Z</time></trkpt><trkpt lat="44.803533882383384" lon="11.30244115363119"><ele>14.0</ele><time>2026-04-24T10:21:54Z</time></trkpt><trkpt lat="44.80346107561869" lon="11.302654989537974"><ele>13.666666666666668</ele><time>2026-04-24T10:21:55Z</time></trkpt><trkpt lat="44.8033867134347" lon="11.302864699658711"><ele>13.333333333333332</ele><time>2026-04-24T10:21:56Z</time></trkpt><trkpt lat="44.803313827655536" lon="11.303072018223022"><ele>13.0</ele><time>2026-04-24T10:21:57Z</time></trkpt><trkpt lat="44.80324795938059" lon="11.303275105590899"><ele>13.0</ele><time>2026-04-24T10:21:58Z</time></trkpt><trkpt lat="44.80318910729349" lon="11.303465384543012"><ele>13.0</ele><time>2026-04-24T10:21:59Z</time></trkpt><trkpt lat="44.80313636177022" lon="11.303641566532379"><ele>13.0</ele><time>2026-04-24T10:22:00Z</time></trkpt><trkpt lat="44.80308370042751" lon="11.303804393292962"><ele>13.0</ele><time>2026-04-24T10:22:01Z</time></trkpt><trkpt lat="44.80303289213409" lon="11.303946705713185"><ele>12.600000000000001</ele><time>2026-04-24T10:22:02Z</time></trkpt><trkpt lat="44.802992474007034" lon="11.304063593016586"><ele>12.200000000000001</ele><time>2026-04-24T10:22:03Z</time></trkpt><trkpt lat="44.802958381821256" lon="11.304140892816612"><ele>11.8</ele><time>2026-04-24T10:22:04Z</time></trkpt><trkpt lat="44.8028581686526" lon="11.304295090513431"><ele>11.4</ele><time>2026-04-24T10:22:07Z</time></trkpt><trkpt lat="44.80282902673945" lon="11.304399681716655"><ele>11.0</ele><time>2026-04-24T10:22:08Z</time></trkpt><trkpt lat="44.802797111832966" lon="11.304540229631911"><ele>11.0</ele><time>2026-04-24T10:22:09Z</time></trkpt><trkpt lat="44.802752283822265" lon="11.304707397818124"><ele>11.0</ele><time>2026-04-24T10:22:10Z</time></trkpt><trkpt lat="44.80269522240749" lon="11.304878916993667"><ele>11.0</ele><time>2026-04-24T10:22:11Z</time></trkpt><trkpt lat="44.80262709255228" lon="11.305052987385602"><ele>11.0</ele><time>2026-04-24T10:22:12Z</time></trkpt><trkpt lat="44.80256491427095" lon="11.305246488812184"><ele>11.0</ele><time>2026-04-24T10:22:13Z</time></trkpt><trkpt lat="44.802496564235284" lon="11.30545618841736"><ele>11.0</ele><time>2026-04-24T10:22:14Z</time></trkpt><trkpt lat="44.80241083972756" lon="11.305661310972088"><ele>11.0</ele><time>2026-04-24T10:22:15Z</time></trkpt><trkpt lat="44.80235223396923" lon="11.305884541455365"><ele>11.0</ele><time>2026-04-24T10:22:16Z</time></trkpt><trkpt lat="44.80227694008748" lon="11.306105893057547"><ele>11.0</ele><time>2026-04-24T10:22:17Z</time></trkpt><trkpt lat="44.802198049597294" lon="11.306332019045263"><ele>11.0</ele><time>2026-04-24T10:22:18Z</time></trkpt><trkpt lat="44.80211799365982" lon="11.30656313426143"><ele>11.0</ele><time>2026-04-24T10:22:19Z</time></trkpt><trkpt lat="44.80203761792467" lon="11.306796616920064"><ele>11.0</ele><time>2026-04-24T10:22:20Z</time></trkpt><trkpt lat="44.80195541856939" lon="11.30703797851674"><ele>11.0</ele><time>2026-04-24T10:22:21Z</time></trkpt><trkpt lat="44.801869327106054" lon="11.307282469032161"><ele>11.0</ele><time>2026-04-24T10:22:22Z</time></trkpt><trkpt lat="44.80178281963815" lon="11.307532232064139"><ele>11.0</ele><time>2026-04-24T10:22:23Z</time></trkpt><trkpt lat="44.801696700298194" lon="11.307788451342144"><ele>11.0</ele><time>2026-04-24T10:22:24Z</time></trkpt><trkpt lat="44.801609288850166" lon="11.308050016320614"><ele>11.333333333333332</ele><time>2026-04-24T10:22:25Z</time></trkpt><trkpt lat="44.801519157312306" lon="11.308309668118236"><ele>11.666666666666666</ele><time>2026-04-24T10:22:26Z</time></trkpt><trkpt lat="44.801432470148605" lon="11.308570400845891"><ele>12.0</ele><time>2026-04-24T10:22:27Z</time></trkpt><trkpt lat="44.80134181230853" lon="11.308838115543976"><ele>11.666666666666666</ele><time>2026-04-24T10:22:28Z</time></trkpt><trkpt lat="44.80125095430968" lon="11.309104650447349"><ele>11.333333333333332</ele><time>2026-04-24T10:22:29Z</time></trkpt><trkpt lat="44.80115848844261" lon="11.30936895426481"><ele>11.0</ele><time>2026-04-24T10:22:30Z</time></trkpt><trkpt lat="44.80106782093425" lon="11.309631598749347"><ele>11.666666666666666</ele><time>2026-04-24T10:22:31Z</time></trkpt><trkpt lat="44.80098241857615" lon="11.3098931365101"><ele>12.333333333333332</ele><time>2026-04-24T10:22:32Z</time></trkpt><trkpt lat="44.8008960952866" lon="11.310157187418005"><ele>13.0</ele><time>2026-04-24T10:22:33Z</time></trkpt><trkpt lat="44.80080777901638" lon="11.310419282556893"><ele>12.666666666666666</ele><time>2026-04-24T10:22:34Z</time></trkpt><trkpt lat="44.80072104064837" lon="11.310684726409836"><ele>12.333333333333332</ele><time>2026-04-24T10:22:35Z</time></trkpt><trkpt lat="44.80063122119676" lon="11.310946224082208"><ele>12.0</ele><time>2026-04-24T10:22:36Z</time></trkpt><trkpt lat="44.8005422314574" lon="11.311212049071052"><ele>12.0</ele><time>2026-04-24T10:22:37Z</time></trkpt><trkpt lat="44.800448642634535" lon="11.311477715412611"><ele>12.0</ele><time>2026-04-24T10:22:38Z</time></trkpt><trkpt lat="44.80035862592941" lon="11.311741955803843"><ele>12.0</ele><time>2026-04-24T10:22:39Z</time></trkpt><trkpt lat="44.80027032997896" lon="11.312001609272533"><ele>12.0</ele><time>2026-04-24T10:22:40Z</time></trkpt><trkpt lat="44.80017970208396" lon="11.312263156314764"><ele>12.0</ele><time>2026-04-24T10:22:41Z</time></trkpt><trkpt lat="44.80009084721275" lon="11.312523645320134"><ele>12.0</ele><time>2026-04-24T10:22:42Z</time></trkpt><trkpt lat="44.80000124394502" lon="11.312787500538276"><ele>12.0</ele><time>2026-04-24T10:22:43Z</time></trkpt><trkpt lat="44.799913140658234" lon="11.313050599872227"><ele>12.0</ele><time>2026-04-24T10:22:44Z</time></trkpt><trkpt lat="44.799812451663726" lon="11.313303013705468"><ele>12.0</ele><time>2026-04-24T10:22:45Z</time></trkpt><trkpt lat="44.79972313783757" lon="11.313563775955872"><ele>12.0</ele><time>2026-04-24T10:22:46Z</time></trkpt><trkpt lat="44.79963401017026" lon="11.313823994567295"><ele>12.0</ele><time>2026-04-24T10:22:47Z</time></trkpt><trkpt lat="44.79954425986151" lon="11.314089639278546"><ele>12.0</ele><time>2026-04-24T10:22:48Z</time></trkpt><trkpt lat="44.799467584717554" lon="11.314361097897008"><ele>11.666666666666666</ele><time>2026-04-24T10:22:49Z</time></trkpt><trkpt lat="44.79937755032181" lon="11.31462183786708"><ele>11.333333333333332</ele><time>2026-04-24T10:22:50Z</time></trkpt><trkpt lat="44.79928853527204" lon="11.314885383390653"><ele>11.0</ele><time>2026-04-24T10:22:51Z</time></trkpt><trkpt lat="44.79919657238634" lon="11.315146079852012"><ele>11.0</ele><time>2026-04-24T10:22:52Z</time></trkpt><trkpt lat="44.799105673234656" lon="11.315405830782705"><ele>11.0</ele><time>2026-04-24T10:22:53Z</time></trkpt><trkpt lat="44.79901447166344" lon="11.315668025161076"><ele>11.0</ele><time>2026-04-24T10:22:54Z</time></trkpt><trkpt lat="44.798927048544094" lon="11.31592822839524"><ele>10.666666666666666</ele><time>2026-04-24T10:22:55Z</time></trkpt><trkpt lat="44.79884130407885" lon="11.316193075914041"><ele>10.333333333333334</ele><time>2026-04-24T10:22:56Z</time></trkpt><trkpt lat="44.798751524919396" lon="11.316457755550054"><ele>10.0</ele><time>2026-04-24T10:22:57Z</time></trkpt><trkpt lat="44.79866218913142" lon="11.316718487200369"><ele>10.0</ele><time>2026-04-24T10:22:58Z</time></trkpt><trkpt lat="44.798575072161434" lon="11.316982743181587"><ele>10.0</ele><time>2026-04-24T10:22:59Z</time></trkpt><trkpt lat="44.798486779405245" lon="11.317244902403441"><ele>10.0</ele><time>2026-04-24T10:23:00Z</time></trkpt><trkpt lat="44.798395361103175" lon="11.317508352208383"><ele>10.0</ele><time>2026-04-24T10:23:01Z</time></trkpt><trkpt lat="44.79830534554094" lon="11.317770106919344"><ele>10.0</ele><time>2026-04-24T10:23:02Z</time></trkpt><trkpt lat="44.79821527424422" lon="11.31803532830244"><ele>10.0</ele><time>2026-04-24T10:23:03Z</time></trkpt><trkpt lat="44.79811182423611" lon="11.318289139441164"><ele>10.0</ele><time>2026-04-24T10:23:04Z</time></trkpt><trkpt lat="44.798024028179476" lon="11.318547130043683"><ele>10.0</ele><time>2026-04-24T10:23:05Z</time></trkpt><trkpt lat="44.79794390042846" lon="11.318782587180966"><ele>10.0</ele><time>2026-04-24T10:23:06Z</time></trkpt><trkpt lat="44.79788153968003" lon="11.31901472383674"><ele>10.333333333333334</ele><time>2026-04-24T10:23:07Z</time></trkpt><trkpt lat="44.79780892717974" lon="11.319224287291622"><ele>10.666666666666666</ele><time>2026-04-24T10:23:08Z</time></trkpt><trkpt lat="44.79774064350057" lon="11.319420740153028"><ele>11.0</ele><time>2026-04-24T10:23:09Z</time></trkpt><trkpt lat="44.797677384363645" lon="11.319608775606767"><ele>11.25</ele><time>2026-04-24T10:23:10Z</time></trkpt><trkpt lat="44.79761649984949" lon="11.319783292280931"><ele>11.5</ele><time>2026-04-24T10:23:11Z</time></trkpt><trkpt lat="44.797559960413736" lon="11.319949080689984"><ele>11.75</ele><time>2026-04-24T10:23:12Z</time></trkpt><trkpt lat="44.79750515162687" lon="11.320104595920704"><ele>12.0</ele><time>2026-04-24T10:23:13Z</time></trkpt><trkpt lat="44.79744878925044" lon="11.320270617326134"><ele>12.0</ele><time>2026-04-24T10:23:14Z</time></trkpt><trkpt lat="44.79738782512774" lon="11.320446476166392"><ele>12.0</ele><time>2026-04-24T10:23:15Z</time></trkpt><trkpt lat="44.797331077128476" lon="11.320618089925844"><ele>12.0</ele><time>2026-04-24T10:23:16Z</time></trkpt><trkpt lat="44.79726765840701" lon="11.320746358840761"><ele>12.0</ele><time>2026-04-24T10:23:17Z</time></trkpt><trkpt lat="44.79724447302947" lon="11.320867656383282"><ele>11.8</ele><time>2026-04-24T10:23:18Z</time></trkpt><trkpt lat="44.797215981744394" lon="11.320948469447716"><ele>11.6</ele><time>2026-04-24T10:23:19Z</time></trkpt><trkpt lat="44.79716393519961" lon="11.32106757771309"><ele>11.4</ele><time>2026-04-24T10:23:21Z</time></trkpt><trkpt lat="44.797041459487765" lon="11.321207405812144"><ele>11.200000000000001</ele><time>2026-04-24T10:23:23Z</time></trkpt><trkpt lat="44.796976369379415" lon="11.321333201309187"><ele>11.0</ele><time>2026-04-24T10:23:24Z</time></trkpt><trkpt lat="44.79689068135653" lon="11.321452691214496"><ele>11.0</ele><time>2026-04-24T10:23:25Z</time></trkpt><trkpt lat="44.79681195551551" lon="11.321590864783897"><ele>11.0</ele><time>2026-04-24T10:23:26Z</time></trkpt><trkpt lat="44.79672947668309" lon="11.32173131886752"><ele>11.0</ele><time>2026-04-24T10:23:27Z</time></trkpt><trkpt lat="44.796654091072604" lon="11.321863934171233"><ele>11.0</ele><time>2026-04-24T10:23:28Z</time></trkpt><trkpt lat="44.79658619782957" lon="11.321976529584589"><ele>11.0</ele><time>2026-04-24T10:23:29Z</time></trkpt><trkpt lat="44.7965054159846" lon="11.322069417414125"><ele>11.0</ele><time>2026-04-24T10:23:30Z</time></trkpt><trkpt lat="44.79640512316662" lon="11.322155856909802"><ele>11.0</ele><time>2026-04-24T10:23:31Z</time></trkpt><trkpt lat="44.7963053617474" lon="11.322230851122521"><ele>11.0</ele><time>2026-04-24T10:23:32Z</time></trkpt><trkpt lat="44.79621521158312" lon="11.322288983329953"><ele>11.0</ele><time>2026-04-24T10:23:33Z</time></trkpt><trkpt lat="44.796135384125435" lon="11.32233541616139"><ele>11.200000000000001</ele><time>2026-04-24T10:23:34Z</time></trkpt><trkpt lat="44.79606623596489" lon="11.322376060910363"><ele>11.4</ele><time>2026-04-24T10:23:35Z</time></trkpt><trkpt lat="44.796005245479186" lon="11.322406905050341"><ele>11.6</ele><time>2026-04-24T10:23:36Z</time></trkpt><trkpt lat="44.79592705035095" lon="11.322434982315649"><ele>11.8</ele><time>2026-04-24T10:23:38Z</time></trkpt><trkpt lat="44.795792143310095" lon="11.322516929704399"><ele>12.0</ele><time>2026-04-24T10:23:40Z</time></trkpt><trkpt lat="44.796031424667454" lon="11.322671949047338"><ele>12.0</ele><time>2026-04-24T10:23:41Z</time></trkpt><trkpt lat="44.796091114593075" lon="11.322722975771882"><ele>12.0</ele><time>2026-04-24T10:23:42Z</time></trkpt><trkpt lat="44.79618313274673" lon="11.322739528789588"><ele>12.0</ele><time>2026-04-24T10:23:43Z</time></trkpt><trkpt lat="44.79627804581669" lon="11.32277131642819"><ele>12.0</ele><time>2026-04-24T10:23:44Z</time></trkpt><trkpt lat="44.796386028262276" lon="11.322826436906436"><ele>12.0</ele><time>2026-04-24T10:23:45Z</time></trkpt><trkpt lat="44.79649607888145" lon="11.32290682221288"><ele>12.0</ele><time>2026-04-24T10:23:46Z</time></trkpt><trkpt lat="44.79661401648054" lon="11.32299925000694"><ele>12.0</ele><time>2026-04-24T10:23:47Z</time></trkpt><trkpt lat="44.79673456932129" lon="11.323101016794315"><ele>12.0</ele><time>2026-04-24T10:23:48Z</time></trkpt><trkpt lat="44.79684229968524" lon="11.323238504080425"><ele>12.0</ele><time>2026-04-24T10:23:49Z</time></trkpt><trkpt lat="44.796956110186166" lon="11.323372381680418"><ele>11.666666666666666</ele><time>2026-04-24T10:23:50Z</time></trkpt><trkpt lat="44.797067881649554" lon="11.32351362444763"><ele>11.333333333333332</ele><time>2026-04-24T10:23:51Z</time></trkpt><trkpt lat="44.797181893017104" lon="11.323664066425684"><ele>11.0</ele><time>2026-04-24T10:23:52Z</time></trkpt><trkpt lat="44.797299682928674" lon="11.323826557491344"><ele>10.666666666666666</ele><time>2026-04-24T10:23:53Z</time></trkpt><trkpt lat="44.79740177886984" lon="11.324000262028852"><ele>10.333333333333334</ele><time>2026-04-24T10:23:54Z</time></trkpt><trkpt lat="44.797496382502274" lon="11.324198169387763"><ele>10.0</ele><time>2026-04-24T10:23:55Z</time></trkpt><trkpt lat="44.79758462786599" lon="11.324405123646256"><ele>10.0</ele><time>2026-04-24T10:23:56Z</time></trkpt><trkpt lat="44.79767512423719" lon="11.324619433569932"><ele>10.0</ele><time>2026-04-24T10:23:57Z</time></trkpt><trkpt lat="44.7977649221972" lon="11.324832089242458"><ele>10.0</ele><time>2026-04-24T10:23:58Z</time></trkpt><trkpt lat="44.79787062089709" lon="11.325036946158683"><ele>10.0</ele><time>2026-04-24T10:23:59Z</time></trkpt><trkpt lat="44.79795577984128" lon="11.325256924263407"><ele>10.0</ele><time>2026-04-24T10:24:00Z</time></trkpt><trkpt lat="44.79803868184968" lon="11.325474272997036"><ele>10.0</ele><time>2026-04-24T10:24:01Z</time></trkpt><trkpt lat="44.79812265667451" lon="11.32569273034253"><ele>10.333333333333334</ele><time>2026-04-24T10:24:02Z</time></trkpt><trkpt lat="44.798209505701436" lon="11.325911970776113"><ele>10.666666666666666</ele><time>2026-04-24T10:24:03Z</time></trkpt><trkpt lat="44.7982980596076" lon="11.326128510247191"><ele>11.0</ele><time>2026-04-24T10:24:04Z</time></trkpt><trkpt lat="44.79838772772041" lon="11.326344842751654"><ele>10.666666666666666</ele><time>2026-04-24T10:24:05Z</time></trkpt><trkpt lat="44.79847907182821" lon="11.326558991052329"><ele>10.333333333333334</ele><time>2026-04-24T10:24:06Z</time></trkpt><trkpt lat="44.798573642163824" lon="11.326770742492835"><ele>10.0</ele><time>2026-04-24T10:24:07Z</time></trkpt><trkpt lat="44.79867277357644" lon="11.326983767609269"><ele>9.666666666666668</ele><time>2026-04-24T10:24:08Z</time></trkpt><trkpt lat="44.79877704607915" lon="11.32719481967512"><ele>9.333333333333334</ele><time>2026-04-24T10:24:09Z</time></trkpt><trkpt lat="44.798884958264146" lon="11.32740292333221"><ele>9.0</ele><time>2026-04-24T10:24:10Z</time></trkpt><trkpt lat="44.798996542138845" lon="11.3276070990871"><ele>9.0</ele><time>2026-04-24T10:24:11Z</time></trkpt><trkpt lat="44.79911042933273" lon="11.327806122918647"><ele>9.0</ele><time>2026-04-24T10:24:12Z</time></trkpt><trkpt lat="44.79922613006664" lon="11.328008796820507"><ele>9.0</ele><time>2026-04-24T10:24:13Z</time></trkpt><trkpt lat="44.79933968961823" lon="11.328212849688581"><ele>9.333333333333334</ele><time>2026-04-24T10:24:14Z</time></trkpt><trkpt lat="44.79944579828972" lon="11.328421556926918"><ele>9.666666666666668</ele><time>2026-04-24T10:24:15Z</time></trkpt><trkpt lat="44.79956067929738" lon="11.32862599087331"><ele>10.0</ele><time>2026-04-24T10:24:16Z</time></trkpt><trkpt lat="44.799678329879995" lon="11.328825497848598"><ele>10.333333333333334</ele><time>2026-04-24T10:24:17Z</time></trkpt><trkpt lat="44.7997973069108" lon="11.32901799622044"><ele>10.666666666666666</ele><time>2026-04-24T10:24:18Z</time></trkpt><trkpt lat="44.79991224607895" lon="11.329213803871665"><ele>11.0</ele><time>2026-04-24T10:24:19Z</time></trkpt><trkpt lat="44.80002661238258" lon="11.329408804373655"><ele>11.0</ele><time>2026-04-24T10:24:20Z</time></trkpt><trkpt lat="44.80014458670901" lon="11.329602203407696"><ele>11.0</ele><time>2026-04-24T10:24:21Z</time></trkpt><trkpt lat="44.8002628747294" lon="11.329793806980627"><ele>11.0</ele><time>2026-04-24T10:24:22Z</time></trkpt><trkpt lat="44.800382282127735" lon="11.329987154992514"><ele>10.333333333333332</ele><time>2026-04-24T10:24:23Z</time></trkpt><trkpt lat="44.80050197497232" lon="11.3301794130479"><ele>9.666666666666666</ele><time>2026-04-24T10:24:24Z</time></trkpt><trkpt lat="44.80062181702423" lon="11.330371747040372"><ele>9.0</ele><time>2026-04-24T10:24:25Z</time></trkpt><trkpt lat="44.8007447374991" lon="11.330563027917753"><ele>9.0</ele><time>2026-04-24T10:24:26Z</time></trkpt><trkpt lat="44.80087026224214" lon="11.330745808726698"><ele>9.0</ele><time>2026-04-24T10:24:27Z</time></trkpt><trkpt lat="44.80099621694667" lon="11.330931776606954"><ele>9.0</ele><time>2026-04-24T10:24:28Z</time></trkpt><trkpt lat="44.80112496591486" lon="11.331100292727339"><ele>9.333333333333334</ele><time>2026-04-24T10:24:29Z</time></trkpt><trkpt lat="44.80124837879497" lon="11.331252791265777"><ele>9.666666666666668</ele><time>2026-04-24T10:24:30Z</time></trkpt><trkpt lat="44.80134660542441" lon="11.33141393864554"><ele>10.0</ele><time>2026-04-24T10:24:31Z</time></trkpt><trkpt lat="44.8014323710642" lon="11.331576972555414"><ele>10.0</ele><time>2026-04-24T10:24:32Z</time></trkpt><trkpt lat="44.80150821581772" lon="11.331765022440319"><ele>10.0</ele><time>2026-04-24T10:24:33Z</time></trkpt><trkpt lat="44.80158019674225" lon="11.331974094723025"><ele>10.0</ele><time>2026-04-24T10:24:34Z</time></trkpt><trkpt lat="44.80165403979771" lon="11.332197818071942"><ele>10.666666666666668</ele><time>2026-04-24T10:24:35Z</time></trkpt><trkpt lat="44.801731757253684" lon="11.332428688498755"><ele>11.333333333333334</ele><time>2026-04-24T10:24:36Z</time></trkpt><trkpt lat="44.80182512505257" lon="11.332653983347047"><ele>12.0</ele><time>2026-04-24T10:24:37Z</time></trkpt><trkpt lat="44.80190715955432" lon="11.332890941733924"><ele>12.333333333333332</ele><time>2026-04-24T10:24:38Z</time></trkpt><trkpt lat="44.801992694879914" lon="11.333133838509998"><ele>12.666666666666666</ele><time>2026-04-24T10:24:39Z</time></trkpt><trkpt lat="44.802085707619355" lon="11.333377352448881"><ele>13.0</ele><time>2026-04-24T10:24:40Z</time></trkpt><trkpt lat="44.80218189242912" lon="11.333620893718079"><ele>13.0</ele><time>2026-04-24T10:24:41Z</time></trkpt><trkpt lat="44.80228239761082" lon="11.333860767650453"><ele>13.0</ele><time>2026-04-24T10:24:42Z</time></trkpt><trkpt lat="44.80239570129319" lon="11.334094278530252"><ele>13.0</ele><time>2026-04-24T10:24:43Z</time></trkpt><trkpt lat="44.80251007614436" lon="11.334324406054625"><ele>12.666666666666666</ele><time>2026-04-24T10:24:44Z</time></trkpt><trkpt lat="44.80262734546249" lon="11.334552589812688"><ele>12.333333333333332</ele><time>2026-04-24T10:24:45Z</time></trkpt><trkpt lat="44.80273592995957" lon="11.334773776327516"><ele>12.0</ele><time>2026-04-24T10:24:46Z</time></trkpt><trkpt lat="44.80283749434846" lon="11.334990381889279"><ele>11.666666666666666</ele><time>2026-04-24T10:24:47Z</time></trkpt><trkpt lat="44.802929415830484" lon="11.335190565444206"><ele>11.333333333333332</ele><time>2026-04-24T10:24:48Z</time></trkpt><trkpt lat="44.803011966709704" lon="11.335383634102627"><ele>11.0</ele><time>2026-04-24T10:24:49Z</time></trkpt><trkpt lat="44.803075718547866" lon="11.335588378295597"><ele>10.666666666666666</ele><time>2026-04-24T10:24:50Z</time></trkpt><trkpt lat="44.80314400659919" lon="11.335794248469968"><ele>10.333333333333334</ele><time>2026-04-24T10:24:51Z</time></trkpt><trkpt lat="44.803202137637086" lon="11.336001771825186"><ele>10.0</ele><time>2026-04-24T10:24:52Z</time></trkpt><trkpt lat="44.80325711661858" lon="11.336191530297402"><ele>10.0</ele><time>2026-04-24T10:24:53Z</time></trkpt><trkpt lat="44.803326088760365" lon="11.336369757101673"><ele>10.0</ele><time>2026-04-24T10:24:54Z</time></trkpt><trkpt lat="44.80340060321103" lon="11.33655231988682"><ele>10.0</ele><time>2026-04-24T10:24:55Z</time></trkpt><trkpt lat="44.803505179522574" lon="11.336732774608071"><ele>9.666666666666668</ele><time>2026-04-24T10:24:56Z</time></trkpt><trkpt lat="44.80362637929684" lon="11.336911537104106"><ele>9.333333333333334</ele><time>2026-04-24T10:24:57Z</time></trkpt><trkpt lat="44.80376416040135" lon="11.337083433627315"><ele>9.0</ele><time>2026-04-24T10:24:58Z</time></trkpt><trkpt lat="44.803903532013265" lon="11.337274145951934"><ele>10.0</ele><time>2026-04-24T10:24:59Z</time></trkpt><trkpt lat="44.80404809076536" lon="11.337475482656469"><ele>11.0</ele><time>2026-04-24T10:25:00Z</time></trkpt><trkpt lat="44.80416076364016" lon="11.337718651875944"><ele>12.0</ele><time>2026-04-24T10:25:01Z</time></trkpt><trkpt lat="44.80427946675761" lon="11.337952511206709"><ele>11.666666666666666</ele><time>2026-04-24T10:25:02Z</time></trkpt><trkpt lat="44.8043914631264" lon="11.338175027601338"><ele>11.333333333333332</ele><time>2026-04-24T10:25:03Z</time></trkpt><trkpt lat="44.8044996054184" lon="11.338388985445754"><ele>11.0</ele><time>2026-04-24T10:25:04Z</time></trkpt><trkpt lat="44.80460431789248" lon="11.338594892974747"><ele>11.0</ele><time>2026-04-24T10:25:05Z</time></trkpt><trkpt lat="44.804703397298894" lon="11.33879259851427"><ele>11.0</ele><time>2026-04-24T10:25:06Z</time></trkpt><trkpt lat="44.804796155458284" lon="11.338980381100944"><ele>11.0</ele><time>2026-04-24T10:25:07Z</time></trkpt><trkpt lat="44.80488886252898" lon="11.3391669021212"><ele>10.666666666666666</ele><time>2026-04-24T10:25:08Z</time></trkpt><trkpt lat="44.80498451005807" lon="11.33934732498063"><ele>10.333333333333334</ele><time>2026-04-24T10:25:09Z</time></trkpt><trkpt lat="44.80508143913311" lon="11.339520396248052"><ele>10.0</ele><time>2026-04-24T10:25:10Z</time></trkpt><trkpt lat="44.80518841744261" lon="11.339677410312222"><ele>10.0</ele><time>2026-04-24T10:25:11Z</time></trkpt><trkpt lat="44.805282711520164" lon="11.339838026287412"><ele>10.0</ele><time>2026-04-24T10:25:12Z</time></trkpt><trkpt lat="44.80538224873723" lon="11.339984908636392"><ele>10.0</ele><time>2026-04-24T10:25:13Z</time></trkpt><trkpt lat="44.80548207070527" lon="11.340127236315073"><ele>10.0</ele><time>2026-04-24T10:25:14Z</time></trkpt><trkpt lat="44.80557565713648" lon="11.340263402100762"><ele>10.0</ele><time>2026-04-24T10:25:15Z</time></trkpt><trkpt lat="44.80567323721065" lon="11.340401521831161"><ele>10.0</ele><time>2026-04-24T10:25:16Z</time></trkpt><trkpt lat="44.80576834777186" lon="11.340543207408997"><ele>10.0</ele><time>2026-04-24T10:25:17Z</time></trkpt><trkpt lat="44.8058662067107" lon="11.34067678666939"><ele>10.0</ele><time>2026-04-24T10:25:18Z</time></trkpt><trkpt lat="44.80596656349068" lon="11.340803793292906"><ele>10.25</ele><time>2026-04-24T10:25:19Z</time></trkpt><trkpt lat="44.80606723963991" lon="11.340925678220458"><ele>10.5</ele><time>2026-04-24T10:25:20Z</time></trkpt><trkpt lat="44.806171183572495" lon="11.341040090580162"><ele>10.75</ele><time>2026-04-24T10:25:21Z</time></trkpt><trkpt lat="44.806286704051" lon="11.341143221515663"><ele>11.0</ele><time>2026-04-24T10:25:22Z</time></trkpt><trkpt lat="44.80641101498174" lon="11.34122231976376"><ele>11.0</ele><time>2026-04-24T10:25:23Z</time></trkpt><trkpt lat="44.80654320880694" lon="11.341291576967608"><ele>11.0</ele><time>2026-04-24T10:25:24Z</time></trkpt><trkpt lat="44.80667867011838" lon="11.34134516491847"><ele>11.0</ele><time>2026-04-24T10:25:25Z</time></trkpt><trkpt lat="44.80680686629448" lon="11.341395112894716"><ele>11.0</ele><time>2026-04-24T10:25:26Z</time></trkpt><trkpt lat="44.80692476682269" lon="11.341452465051338"><ele>10.75</ele><time>2026-04-24T10:25:27Z</time></trkpt><trkpt lat="44.80703009050447" lon="11.34152282589141"><ele>10.5</ele><time>2026-04-24T10:25:28Z</time></trkpt><trkpt lat="44.807120260660824" lon="11.341614439980749"><ele>10.25</ele><time>2026-04-24T10:25:29Z</time></trkpt><trkpt lat="44.80717685034632" lon="11.341765644580688"><ele>10.0</ele><time>2026-04-24T10:25:30Z</time></trkpt><trkpt lat="44.80722941935844" lon="11.341916576278384"><ele>10.0</ele><time>2026-04-24T10:25:31Z</time></trkpt><trkpt lat="44.807284780703334" lon="11.34207648382302"><ele>10.0</ele><time>2026-04-24T10:25:32Z</time></trkpt><trkpt lat="44.807338183586864" lon="11.342231204509686"><ele>10.0</ele><time>2026-04-24T10:25:33Z</time></trkpt><trkpt lat="44.807392764785185" lon="11.342388803180599"><ele>10.0</ele><time>2026-04-24T10:25:34Z</time></trkpt><trkpt lat="44.80744828492537" lon="11.342546980814141"><ele>10.25</ele><time>2026-04-24T10:25:35Z</time></trkpt><trkpt lat="44.80750541142652" lon="11.342706157313936"><ele>10.5</ele><time>2026-04-24T10:25:36Z</time></trkpt><trkpt lat="44.80757067880339" lon="11.34286489722662"><ele>10.75</ele><time>2026-04-24T10:25:37Z</time></trkpt><trkpt lat="44.8076247766877" lon="11.343032823418293"><ele>11.0</ele><time>2026-04-24T10:25:38Z</time></trkpt><trkpt lat="44.8076785028301" lon="11.343194299717005"><ele>10.4</ele><time>2026-04-24T10:25:39Z</time></trkpt><trkpt lat="44.807727624840744" lon="11.34333975489876"><ele>9.8</ele><time>2026-04-24T10:25:40Z</time></trkpt><trkpt lat="44.807769408659965" lon="11.343469644758816"><ele>9.200000000000001</ele><time>2026-04-24T10:25:41Z</time></trkpt><trkpt lat="44.807810038052544" lon="11.3435885742611"><ele>8.600000000000001</ele><time>2026-04-24T10:25:42Z</time></trkpt><trkpt lat="44.80784488406425" lon="11.34370095384036"><ele>8.0</ele><time>2026-04-24T10:25:43Z</time></trkpt><trkpt lat="44.807878045761974" lon="11.343805156878823"><ele>8.333333333333332</ele><time>2026-04-24T10:25:44Z</time></trkpt><trkpt lat="44.80790779220561" lon="11.343905449730766"><ele>8.666666666666666</ele><time>2026-04-24T10:25:45Z</time></trkpt><trkpt lat="44.80792058382854" lon="11.344009407160648"><ele>9.0</ele><time>2026-04-24T10:25:46Z</time></trkpt><trkpt lat="44.80790743857482" lon="11.344115133721754"><ele>9.333333333333334</ele><time>2026-04-24T10:25:47Z</time></trkpt><trkpt lat="44.80787195353399" lon="11.344235755015323"><ele>9.666666666666668</ele><time>2026-04-24T10:25:48Z</time></trkpt><trkpt lat="44.807798952364436" lon="11.344352741050365"><ele>10.0</ele><time>2026-04-24T10:25:49Z</time></trkpt><trkpt lat="44.80772265142625" lon="11.344498509004245"><ele>10.333333333333334</ele><time>2026-04-24T10:25:50Z</time></trkpt><trkpt lat="44.80764510887756" lon="11.344660724788804"><ele>10.666666666666666</ele><time>2026-04-24T10:25:51Z</time></trkpt><trkpt lat="44.80756175307062" lon="11.344839514355057"><ele>11.0</ele><time>2026-04-24T10:25:52Z</time></trkpt><trkpt lat="44.807471950287464" lon="11.345025443495599"><ele>11.0</ele><time>2026-04-24T10:25:53Z</time></trkpt><trkpt lat="44.807375505134935" lon="11.345221581707259"><ele>11.0</ele><time>2026-04-24T10:25:54Z</time></trkpt><trkpt lat="44.807292879615936" lon="11.34542466374689"><ele>11.0</ele><time>2026-04-24T10:25:55Z</time></trkpt><trkpt lat="44.8071905023043" lon="11.345619029200355"><ele>11.0</ele><time>2026-04-24T10:25:56Z</time></trkpt><trkpt lat="44.80709272828608" lon="11.34581592114053"><ele>11.0</ele><time>2026-04-24T10:25:57Z</time></trkpt><trkpt lat="44.8070001761319" lon="11.346006817460097"><ele>11.0</ele><time>2026-04-24T10:25:58Z</time></trkpt><trkpt lat="44.806910775414615" lon="11.346189613748225"><ele>11.0</ele><time>2026-04-24T10:25:59Z</time></trkpt><trkpt lat="44.806822104723885" lon="11.346371159422404"><ele>11.0</ele><time>2026-04-24T10:26:00Z</time></trkpt><trkpt lat="44.80673204584474" lon="11.346549884838034"><ele>11.0</ele><time>2026-04-24T10:26:01Z</time></trkpt><trkpt lat="44.806643219147105" lon="11.346728104111204"><ele>10.666666666666666</ele><time>2026-04-24T10:26:02Z</time></trkpt><trkpt lat="44.806557466164946" lon="11.346904524824172"><ele>10.333333333333334</ele><time>2026-04-24T10:26:03Z</time></trkpt><trkpt lat="44.8064676345581" lon="11.347081116055271"><ele>10.0</ele><time>2026-04-24T10:26:04Z</time></trkpt><trkpt lat="44.806380059721654" lon="11.347256016096663"><ele>10.0</ele><time>2026-04-24T10:26:05Z</time></trkpt><trkpt lat="44.80629413286563" lon="11.34743128633314"><ele>10.0</ele><time>2026-04-24T10:26:06Z</time></trkpt><trkpt lat="44.806204611168425" lon="11.347610605513896"><ele>10.0</ele><time>2026-04-24T10:26:07Z</time></trkpt><trkpt lat="44.80611356232843" lon="11.34779838820843"><ele>10.0</ele><time>2026-04-24T10:26:08Z</time></trkpt><trkpt lat="44.80602063994748" lon="11.347982707018973"><ele>10.0</ele><time>2026-04-24T10:26:09Z</time></trkpt><trkpt lat="44.80592907587008" lon="11.348169739514267"><ele>10.0</ele><time>2026-04-24T10:26:10Z</time></trkpt><trkpt lat="44.80583706278961" lon="11.348358664551936"><ele>10.333333333333334</ele><time>2026-04-24T10:26:11Z</time></trkpt><trkpt lat="44.8057450951879" lon="11.348549701152642"><ele>10.666666666666666</ele><time>2026-04-24T10:26:12Z</time></trkpt><trkpt lat="44.80564580974048" lon="11.348740426403314"><ele>11.0</ele><time>2026-04-24T10:26:13Z</time></trkpt><trkpt lat="44.805548728962144" lon="11.34893127299403"><ele>10.333333333333332</ele><time>2026-04-24T10:26:14Z</time></trkpt><trkpt lat="44.80545019399767" lon="11.349127158551513"><ele>9.666666666666666</ele><time>2026-04-24T10:26:15Z</time></trkpt><trkpt lat="44.805352475007496" lon="11.349324743537718"><ele>9.0</ele><time>2026-04-24T10:26:16Z</time></trkpt><trkpt lat="44.80525565464009" lon="11.349515970283889"><ele>9.666666666666666</ele><time>2026-04-24T10:26:17Z</time></trkpt><trkpt lat="44.80516132784678" lon="11.349707072491114"><ele>10.333333333333332</ele><time>2026-04-24T10:26:18Z</time></trkpt><trkpt lat="44.80506899992364" lon="11.3499009951679"><ele>11.0</ele><time>2026-04-24T10:26:19Z</time></trkpt><trkpt lat="44.8049757581081" lon="11.350097166987629"><ele>11.333333333333332</ele><time>2026-04-24T10:26:20Z</time></trkpt><trkpt lat="44.804891095854295" lon="11.350296686815645"><ele>11.666666666666666</ele><time>2026-04-24T10:26:21Z</time></trkpt><trkpt lat="44.80481582954167" lon="11.350502501458474"><ele>12.0</ele><time>2026-04-24T10:26:22Z</time></trkpt><trkpt lat="44.804743446438266" lon="11.35071573934906"><ele>11.333333333333334</ele><time>2026-04-24T10:26:23Z</time></trkpt><trkpt lat="44.80467916303842" lon="11.350935259261556"><ele>10.666666666666668</ele><time>2026-04-24T10:26:24Z</time></trkpt><trkpt lat="44.804617289363165" lon="11.351165506515832"><ele>10.0</ele><time>2026-04-24T10:26:25Z</time></trkpt><trkpt lat="44.804565183604204" lon="11.351398924051322"><ele>9.666666666666668</ele><time>2026-04-24T10:26:26Z</time></trkpt><trkpt lat="44.804523974001256" lon="11.351641736227585"><ele>9.333333333333334</ele><time>2026-04-24T10:26:27Z</time></trkpt><trkpt lat="44.804494666986955" lon="11.35189559200218"><ele>9.0</ele><time>2026-04-24T10:26:28Z</time></trkpt><trkpt lat="44.804476374063384" lon="11.352148680076095"><ele>9.0</ele><time>2026-04-24T10:26:29Z</time></trkpt><trkpt lat="44.80446209096624" lon="11.352407046475236"><ele>9.0</ele><time>2026-04-24T10:26:30Z</time></trkpt><trkpt lat="44.80445101000173" lon="11.352673255496507"><ele>9.0</ele><time>2026-04-24T10:26:31Z</time></trkpt><trkpt lat="44.8044472137295" lon="11.352949905595647"><ele>9.0</ele><time>2026-04-24T10:26:32Z</time></trkpt><trkpt lat="44.80444860745525" lon="11.353234966955592"><ele>9.0</ele><time>2026-04-24T10:26:33Z</time></trkpt><trkpt lat="44.80443444082133" lon="11.353533243105433"><ele>9.0</ele><time>2026-04-24T10:26:34Z</time></trkpt><trkpt lat="44.80443303300016" lon="11.353838560661275"><ele>9.0</ele><time>2026-04-24T10:26:35Z</time></trkpt><trkpt lat="44.80443161527182" lon="11.354146026767882"><ele>9.0</ele><time>2026-04-24T10:26:36Z</time></trkpt><trkpt lat="44.804430113911415" lon="11.354458039081626"><ele>9.0</ele><time>2026-04-24T10:26:37Z</time></trkpt><trkpt lat="44.80442851402687" lon="11.35477098318311"><ele>9.0</ele><time>2026-04-24T10:26:38Z</time></trkpt><trkpt lat="44.80443157067001" lon="11.35508298150893"><ele>9.0</ele><time>2026-04-24T10:26:39Z</time></trkpt><trkpt lat="44.80442094309377" lon="11.355384699357016"><ele>9.0</ele><time>2026-04-24T10:26:40Z</time></trkpt><trkpt lat="44.80441116433544" lon="11.355675678562559"><ele>9.0</ele><time>2026-04-24T10:26:41Z</time></trkpt><trkpt lat="44.80439050898384" lon="11.355960007703642"><ele>9.0</ele><time>2026-04-24T10:26:42Z</time></trkpt><trkpt lat="44.80433642216249" lon="11.356231475100502"><ele>9.0</ele><time>2026-04-24T10:26:43Z</time></trkpt><trkpt lat="44.804278716140956" lon="11.356496694377771"><ele>9.0</ele><time>2026-04-24T10:26:44Z</time></trkpt><trkpt lat="44.80421251832466" lon="11.356762422898745"><ele>9.0</ele><time>2026-04-24T10:26:45Z</time></trkpt><trkpt lat="44.80413230307023" lon="11.357019578261923"><ele>9.0</ele><time>2026-04-24T10:26:46Z</time></trkpt><trkpt lat="44.80403523478473" lon="11.35726690343634"><ele>9.0</ele><time>2026-04-24T10:26:47Z</time></trkpt><trkpt lat="44.803934160149446" lon="11.357513656276849"><ele>9.0</ele><time>2026-04-24T10:26:48Z</time></trkpt><trkpt lat="44.803831190427" lon="11.3577584529973"><ele>9.0</ele><time>2026-04-24T10:26:49Z</time></trkpt><trkpt lat="44.8037394220651" lon="11.358013680925156"><ele>9.0</ele><time>2026-04-24T10:26:50Z</time></trkpt><trkpt lat="44.80363049792987" lon="11.358256758868999"><ele>9.0</ele><time>2026-04-24T10:26:51Z</time></trkpt><trkpt lat="44.803524947558365" lon="11.35850327551259"><ele>9.0</ele><time>2026-04-24T10:26:52Z</time></trkpt><trkpt lat="44.803419165900976" lon="11.358749223467838"><ele>9.666666666666666</ele><time>2026-04-24T10:26:53Z</time></trkpt><trkpt lat="44.80331524750786" lon="11.35899137316014"><ele>10.333333333333332</ele><time>2026-04-24T10:26:54Z</time></trkpt><trkpt lat="44.80321076055911" lon="11.359233893171655"><ele>11.0</ele><time>2026-04-24T10:26:55Z</time></trkpt><trkpt lat="44.80310550541412" lon="11.359476787954494"><ele>11.333333333333332</ele><time>2026-04-24T10:26:56Z</time></trkpt><trkpt lat="44.8030036578703" lon="11.35972171523621"><ele>11.666666666666666</ele><time>2026-04-24T10:26:57Z</time></trkpt><trkpt lat="44.80290163096149" lon="11.35997036113978"><ele>12.0</ele><time>2026-04-24T10:26:58Z</time></trkpt><trkpt lat="44.80280025376066" lon="11.360215857720194"><ele>12.0</ele><time>2026-04-24T10:26:59Z</time></trkpt><trkpt lat="44.80269931644211" lon="11.360457771791918"><ele>12.0</ele><time>2026-04-24T10:27:00Z</time></trkpt><trkpt lat="44.802597906890455" lon="11.360702618864465"><ele>12.0</ele><time>2026-04-24T10:27:01Z</time></trkpt><trkpt lat="44.80249782869587" lon="11.3609470632596"><ele>12.0</ele><time>2026-04-24T10:27:02Z</time></trkpt><trkpt lat="44.8023960168491" lon="11.361189391139813"><ele>12.0</ele><time>2026-04-24T10:27:03Z</time></trkpt><trkpt lat="44.80229151110006" lon="11.361432315698615"><ele>12.0</ele><time>2026-04-24T10:27:04Z</time></trkpt><trkpt lat="44.802188233672716" lon="11.36167200063702"><ele>12.0</ele><time>2026-04-24T10:27:05Z</time></trkpt><trkpt lat="44.80208557682291" lon="11.361915375608989"><ele>12.0</ele><time>2026-04-24T10:27:06Z</time></trkpt><trkpt lat="44.80198318402193" lon="11.362163589248576"><ele>12.0</ele><time>2026-04-24T10:27:07Z</time></trkpt><trkpt lat="44.80187900057455" lon="11.362411120463632"><ele>11.666666666666666</ele><time>2026-04-24T10:27:08Z</time></trkpt><trkpt lat="44.801776251613575" lon="11.362657195028158"><ele>11.333333333333332</ele><time>2026-04-24T10:27:09Z</time></trkpt><trkpt lat="44.8016735101298" lon="11.362899822382621"><ele>11.0</ele><time>2026-04-24T10:27:10Z</time></trkpt><trkpt lat="44.80157156929537" lon="11.363145631757668"><ele>11.0</ele><time>2026-04-24T10:27:11Z</time></trkpt><trkpt lat="44.801466306640876" lon="11.363389157415572"><ele>11.0</ele><time>2026-04-24T10:27:12Z</time></trkpt><trkpt lat="44.80136002246896" lon="11.363630236663454"><ele>11.0</ele><time>2026-04-24T10:27:13Z</time></trkpt><trkpt lat="44.801256677130084" lon="11.363873332451043"><ele>11.333333333333332</ele><time>2026-04-24T10:27:14Z</time></trkpt><trkpt lat="44.8011533369188" lon="11.364118889501269"><ele>11.666666666666666</ele><time>2026-04-24T10:27:15Z</time></trkpt><trkpt lat="44.80105094423637" lon="11.364362610928229"><ele>12.0</ele><time>2026-04-24T10:27:16Z</time></trkpt><trkpt lat="44.80095068472316" lon="11.364607144997766"><ele>11.666666666666666</ele><time>2026-04-24T10:27:17Z</time></trkpt><trkpt lat="44.800847324853045" lon="11.3648518186536"><ele>11.333333333333332</ele><time>2026-04-24T10:27:18Z</time></trkpt><trkpt lat="44.80074373563592" lon="11.36509473516884"><ele>11.0</ele><time>2026-04-24T10:27:19Z</time></trkpt><trkpt lat="44.80063988297558" lon="11.36533957903014"><ele>10.666666666666666</ele><time>2026-04-24T10:27:20Z</time></trkpt><trkpt lat="44.800535652761866" lon="11.365584370231216"><ele>10.333333333333334</ele><time>2026-04-24T10:27:21Z</time></trkpt><trkpt lat="44.80043485732494" lon="11.365831139776834"><ele>10.0</ele><time>2026-04-24T10:27:22Z</time></trkpt><trkpt lat="44.80033466260075" lon="11.366080769581252"><ele>10.0</ele><time>2026-04-24T10:27:23Z</time></trkpt><trkpt lat="44.800233849349986" lon="11.366329376938971"><ele>10.0</ele><time>2026-04-24T10:27:24Z</time></trkpt><trkpt lat="44.800132363466275" lon="11.366575011642212"><ele>10.0</ele><time>2026-04-24T10:27:25Z</time></trkpt><trkpt lat="44.800030285065425" lon="11.366819344383794"><ele>10.333333333333334</ele><time>2026-04-24T10:27:26Z</time></trkpt><trkpt lat="44.79992613219068" lon="11.367062622415546"><ele>10.666666666666666</ele><time>2026-04-24T10:27:27Z</time></trkpt><trkpt lat="44.79982118015994" lon="11.367305909224186"><ele>11.0</ele><time>2026-04-24T10:27:28Z</time></trkpt><trkpt lat="44.79971918473125" lon="11.367551114722865"><ele>11.0</ele><time>2026-04-24T10:27:29Z</time></trkpt><trkpt lat="44.79961442022307" lon="11.36779624955312"><ele>11.0</ele><time>2026-04-24T10:27:30Z</time></trkpt><trkpt lat="44.79951354010936" lon="11.36804302911845"><ele>11.0</ele><time>2026-04-24T10:27:31Z</time></trkpt><trkpt lat="44.799413267450234" lon="11.36828890568015"><ele>11.0</ele><time>2026-04-24T10:27:32Z</time></trkpt><trkpt lat="44.799311114502196" lon="11.368532346166093"><ele>11.0</ele><time>2026-04-24T10:27:33Z</time></trkpt><trkpt lat="44.799208516881095" lon="11.36878066017418"><ele>11.0</ele><time>2026-04-24T10:27:34Z</time></trkpt><trkpt lat="44.799104946837176" lon="11.369025662867784"><ele>11.0</ele><time>2026-04-24T10:27:35Z</time></trkpt><trkpt lat="44.79900007394865" lon="11.369270870120795"><ele>11.0</ele><time>2026-04-24T10:27:36Z</time></trkpt><trkpt lat="44.79890035318189" lon="11.369515590280152"><ele>11.0</ele><time>2026-04-24T10:27:37Z</time></trkpt><trkpt lat="44.79880006980224" lon="11.369759771611895"><ele>10.666666666666666</ele><time>2026-04-24T10:27:38Z</time></trkpt><trkpt lat="44.79869769385895" lon="11.370000075706749"><ele>10.333333333333334</ele><time>2026-04-24T10:27:39Z</time></trkpt><trkpt lat="44.79859689487006" lon="11.370247502922032"><ele>10.0</ele><time>2026-04-24T10:27:40Z</time></trkpt><trkpt lat="44.798494696594105" lon="11.370493589711565"><ele>10.333333333333334</ele><time>2026-04-24T10:27:41Z</time></trkpt><trkpt lat="44.79839256502294" lon="11.370740740366529"><ele>10.666666666666666</ele><time>2026-04-24T10:27:42Z</time></trkpt><trkpt lat="44.798292246280226" lon="11.370987754444199"><ele>11.0</ele><time>2026-04-24T10:27:43Z</time></trkpt><trkpt lat="44.798190512722165" lon="11.371232480083998"><ele>12.0</ele><time>2026-04-24T10:27:44Z</time></trkpt><trkpt lat="44.798089690465765" lon="11.371482569382557"><ele>13.0</ele><time>2026-04-24T10:27:45Z</time></trkpt><trkpt lat="44.7979887703833" lon="11.37172546491306"><ele>14.0</ele><time>2026-04-24T10:27:46Z</time></trkpt><trkpt lat="44.797886535115346" lon="11.371969462590478"><ele>14.0</ele><time>2026-04-24T10:27:47Z</time></trkpt><trkpt lat="44.79778766818818" lon="11.372214974746292"><ele>14.0</ele><time>2026-04-24T10:27:48Z</time></trkpt><trkpt lat="44.797687064737985" lon="11.372456948713271"><ele>14.0</ele><time>2026-04-24T10:27:49Z</time></trkpt><trkpt lat="44.79758664673513" lon="11.372700664817868"><ele>13.666666666666668</ele><time>2026-04-24T10:27:50Z</time></trkpt><trkpt lat="44.7974846954574" lon="11.372949723145274"><ele>13.333333333333332</ele><time>2026-04-24T10:27:51Z</time></trkpt><trkpt lat="44.79738397285873" lon="11.373195854994327"><ele>13.0</ele><time>2026-04-24T10:27:52Z</time></trkpt><trkpt lat="44.79728039030087" lon="11.373440145347303"><ele>13.0</ele><time>2026-04-24T10:27:53Z</time></trkpt><trkpt lat="44.79717545184264" lon="11.37368698760386"><ele>13.0</ele><time>2026-04-24T10:27:54Z</time></trkpt><trkpt lat="44.79707151613652" lon="11.373931348046483"><ele>13.0</ele><time>2026-04-24T10:27:55Z</time></trkpt><trkpt lat="44.79697183873774" lon="11.374180614362311"><ele>13.0</ele><time>2026-04-24T10:27:56Z</time></trkpt><trkpt lat="44.79687056303762" lon="11.374428073814885"><ele>13.0</ele><time>2026-04-24T10:27:57Z</time></trkpt><trkpt lat="44.79677202016878" lon="11.374671891525958"><ele>13.0</ele><time>2026-04-24T10:27:58Z</time></trkpt><trkpt lat="44.7966800643521" lon="11.374898105206816"><ele>12.666666666666666</ele><time>2026-04-24T10:27:59Z</time></trkpt><trkpt lat="44.79659293098441" lon="11.375108767326584"><ele>12.333333333333332</ele><time>2026-04-24T10:28:00Z</time></trkpt><trkpt lat="44.796511914306684" lon="11.375306952416846"><ele>12.0</ele><time>2026-04-24T10:28:01Z</time></trkpt><trkpt lat="44.79643635013058" lon="11.375491852180687"><ele>11.75</ele><time>2026-04-24T10:28:02Z</time></trkpt><trkpt lat="44.796360636849236" lon="11.375664951234079"><ele>11.5</ele><time>2026-04-24T10:28:03Z</time></trkpt><trkpt lat="44.7962913247988" lon="11.375832052722021"><ele>11.25</ele><time>2026-04-24T10:28:04Z</time></trkpt><trkpt lat="44.796231611695276" lon="11.375989790621428"><ele>11.0</ele><time>2026-04-24T10:28:05Z</time></trkpt><trkpt lat="44.79617475278526" lon="11.376134257714497"><ele>11.0</ele><time>2026-04-24T10:28:06Z</time></trkpt><trkpt lat="44.796114258749036" lon="11.376259705873727"><ele>11.0</ele><time>2026-04-24T10:28:07Z</time></trkpt><trkpt lat="44.79604144287307" lon="11.376357756680626"><ele>11.0</ele><time>2026-04-24T10:28:08Z</time></trkpt><trkpt lat="44.795954775843214" lon="11.376435321243463"><ele>11.0</ele><time>2026-04-24T10:28:09Z</time></trkpt><trkpt lat="44.79587240757006" lon="11.376523753972148"><ele>11.0</ele><time>2026-04-24T10:28:10Z</time></trkpt><trkpt lat="44.795820402654314" lon="11.376639965867817"><ele>11.25</ele><time>2026-04-24T10:28:11Z</time></trkpt><trkpt lat="44.795802409677705" lon="11.376775942284288"><ele>11.5</ele><time>2026-04-24T10:28:12Z</time></trkpt><trkpt lat="44.79580108984224" lon="11.376941501145296"><ele>11.75</ele><time>2026-04-24T10:28:13Z</time></trkpt><trkpt lat="44.79577830144957" lon="11.377115741055816"><ele>12.0</ele><time>2026-04-24T10:28:14Z</time></trkpt><trkpt lat="44.795715896383186" lon="11.377280581811682"><ele>12.0</ele><time>2026-04-24T10:28:15Z</time></trkpt><trkpt lat="44.79563781021907" lon="11.377449898949516"><ele>12.0</ele><time>2026-04-24T10:28:16Z</time></trkpt><trkpt lat="44.7955579820323" lon="11.37763040084179"><ele>12.0</ele><time>2026-04-24T10:28:17Z</time></trkpt><trkpt lat="44.79547740738993" lon="11.37782374117889"><ele>12.333333333333332</ele><time>2026-04-24T10:28:18Z</time></trkpt><trkpt lat="44.79539325431889" lon="11.378021421090953"><ele>12.666666666666666</ele><time>2026-04-24T10:28:19Z</time></trkpt><trkpt lat="44.79530550470024" lon="11.378225056196925"><ele>13.0</ele><time>2026-04-24T10:28:20Z</time></trkpt><trkpt lat="44.79521479321526" lon="11.378436360855993"><ele>13.333333333333332</ele><time>2026-04-24T10:28:21Z</time></trkpt><trkpt lat="44.795129762948875" lon="11.378631679836994"><ele>13.666666666666668</ele><time>2026-04-24T10:28:22Z</time></trkpt><trkpt lat="44.79505511915498" lon="11.378824413161864"><ele>14.0</ele><time>2026-04-24T10:28:23Z</time></trkpt><trkpt lat="44.79498038031689" lon="11.379017608530843"><ele>14.0</ele><time>2026-04-24T10:28:24Z</time></trkpt><trkpt lat="44.794906294254346" lon="11.379212566497026"><ele>14.0</ele><time>2026-04-24T10:28:25Z</time></trkpt><trkpt lat="44.794829190272175" lon="11.379402981687775"><ele>14.0</ele><time>2026-04-24T10:28:26Z</time></trkpt><trkpt lat="44.79475221528583" lon="11.379592607642746"><ele>14.0</ele><time>2026-04-24T10:28:27Z</time></trkpt><trkpt lat="44.79466773164832" lon="11.37977911014765"><ele>14.0</ele><time>2026-04-24T10:28:28Z</time></trkpt><trkpt lat="44.79458042335355" lon="11.379968287068673"><ele>14.0</ele><time>2026-04-24T10:28:29Z</time></trkpt><trkpt lat="44.79449414234378" lon="11.380159487860665"><ele>14.0</ele><time>2026-04-24T10:28:30Z</time></trkpt><trkpt lat="44.79441102148604" lon="11.38034163599153"><ele>14.0</ele><time>2026-04-24T10:28:31Z</time></trkpt><trkpt lat="44.79433856035776" lon="11.38050949834032"><ele>14.0</ele><time>2026-04-24T10:28:32Z</time></trkpt><trkpt lat="44.79426300530686" lon="11.380664893477103"><ele>14.0</ele><time>2026-04-24T10:28:33Z</time></trkpt><trkpt lat="44.7941891257932" lon="11.380821814284129"><ele>12.75</ele><time>2026-04-24T10:28:34Z</time></trkpt><trkpt lat="44.794111006573225" lon="11.380979832893285"><ele>11.5</ele><time>2026-04-24T10:28:35Z</time></trkpt><trkpt lat="44.79403254017718" lon="11.381139691095882"><ele>10.25</ele><time>2026-04-24T10:28:36Z</time></trkpt><trkpt lat="44.79395669833869" lon="11.381291183986443"><ele>9.0</ele><time>2026-04-24T10:28:37Z</time></trkpt><trkpt lat="44.793887919150414" lon="11.381436518765254"><ele>9.0</ele><time>2026-04-24T10:28:38Z</time></trkpt><trkpt lat="44.79382623587054" lon="11.381579606616867"><ele>9.0</ele><time>2026-04-24T10:28:39Z</time></trkpt><trkpt lat="44.79375814854672" lon="11.381734676142765"><ele>9.0</ele><time>2026-04-24T10:28:40Z</time></trkpt><trkpt lat="44.793681034479896" lon="11.381886119104813"><ele>9.0</ele><time>2026-04-24T10:28:41Z</time></trkpt><trkpt lat="44.79360159624115" lon="11.382043591289978"><ele>12.0</ele><time>2026-04-24T10:28:42Z</time></trkpt><trkpt lat="44.79351047041427" lon="11.382204962350766"><ele>15.0</ele><time>2026-04-24T10:28:43Z</time></trkpt><trkpt lat="44.79340644635332" lon="11.382359261483128"><ele>18.0</ele><time>2026-04-24T10:28:44Z</time></trkpt><trkpt lat="44.793286278497895" lon="11.382508580115903"><ele>18.25</ele><time>2026-04-24T10:28:45Z</time></trkpt><trkpt lat="44.79315949551015" lon="11.38264988934003"><ele>18.5</ele><time>2026-04-24T10:28:46Z</time></trkpt><trkpt lat="44.793040198544375" lon="11.382770978218453"><ele>18.75</ele><time>2026-04-24T10:28:47Z</time></trkpt><trkpt lat="44.792924659099235" lon="11.382883261584956"><ele>19.0</ele><time>2026-04-24T10:28:48Z</time></trkpt><trkpt lat="44.79282325931471" lon="11.38299225538331"><ele>19.0</ele><time>2026-04-24T10:28:49Z</time></trkpt><trkpt lat="44.79272659781641" lon="11.383106243154561"><ele>19.0</ele><time>2026-04-24T10:28:50Z</time></trkpt><trkpt lat="44.79264135069819" lon="11.383229022807766"><ele>19.0</ele><time>2026-04-24T10:28:51Z</time></trkpt><trkpt lat="44.792575234924115" lon="11.383367361220532"><ele>19.0</ele><time>2026-04-24T10:28:52Z</time></trkpt><trkpt lat="44.79252483904251" lon="11.38351064088811"><ele>19.0</ele><time>2026-04-24T10:28:53Z</time></trkpt><trkpt lat="44.792488786551345" lon="11.383670837772922"><ele>19.0</ele><time>2026-04-24T10:28:54Z</time></trkpt><trkpt lat="44.792470812775015" lon="11.383830879037543"><ele>19.0</ele><time>2026-04-24T10:28:55Z</time></trkpt><trkpt lat="44.792472040211074" lon="11.38399907295896"><ele>19.0</ele><time>2026-04-24T10:28:56Z</time></trkpt><trkpt lat="44.79247617626959" lon="11.384169232108402"><ele>19.0</ele><time>2026-04-24T10:28:57Z</time></trkpt><trkpt lat="44.792481228571" lon="11.38434016888671"><ele>19.0</ele><time>2026-04-24T10:28:58Z</time></trkpt><trkpt lat="44.79248813698907" lon="11.384509906485652"><ele>19.0</ele><time>2026-04-24T10:28:59Z</time></trkpt><trkpt lat="44.79249365288165" lon="11.384677879293205"><ele>19.0</ele><time>2026-04-24T10:29:00Z</time></trkpt><trkpt lat="44.79249506590493" lon="11.384846836034457"><ele>19.4</ele><time>2026-04-24T10:29:01Z</time></trkpt><trkpt lat="44.79249765299199" lon="11.385010804997398"><ele>19.799999999999997</ele><time>2026-04-24T10:29:02Z</time></trkpt><trkpt lat="44.792481552536316" lon="11.385163782069698"><ele>20.200000000000003</ele><time>2026-04-24T10:29:03Z</time></trkpt><trkpt lat="44.792481950088714" lon="11.38530441365756"><ele>20.6</ele><time>2026-04-24T10:29:04Z</time></trkpt><trkpt lat="44.79248324083343" lon="11.38544748251253"><ele>21.0</ele><time>2026-04-24T10:29:05Z</time></trkpt><trkpt lat="44.792483909312736" lon="11.385595007504842"><ele>21.0</ele><time>2026-04-24T10:29:06Z</time></trkpt><trkpt lat="44.79249149152873" lon="11.385740972688817"><ele>21.0</ele><time>2026-04-24T10:29:07Z</time></trkpt><trkpt lat="44.79249248733548" lon="11.385884755300173"><ele>21.0</ele><time>2026-04-24T10:29:08Z</time></trkpt><trkpt lat="44.7924938622697" lon="11.3860261822678"><ele>21.0</ele><time>2026-04-24T10:29:09Z</time></trkpt><trkpt lat="44.79249663946425" lon="11.386163837385036"><ele>21.0</ele><time>2026-04-24T10:29:10Z</time></trkpt><trkpt lat="44.79249381973329" lon="11.38630669497616"><ele>21.0</ele><time>2026-04-24T10:29:11Z</time></trkpt><trkpt lat="44.7924826686094" lon="11.38645221896457"><ele>21.0</ele><time>2026-04-24T10:29:12Z</time></trkpt><trkpt lat="44.79246986148513" lon="11.386605550319068"><ele>21.0</ele><time>2026-04-24T10:29:13Z</time></trkpt><trkpt lat="44.79246002421465" lon="11.386770407252975"><ele>21.0</ele><time>2026-04-24T10:29:14Z</time></trkpt><trkpt lat="44.79245120117709" lon="11.386942275956505"><ele>21.0</ele><time>2026-04-24T10:29:15Z</time></trkpt><trkpt lat="44.79244477360255" lon="11.387117107751767"><ele>21.0</ele><time>2026-04-24T10:29:16Z</time></trkpt><trkpt lat="44.79244415404045" lon="11.387297237725647"><ele>21.0</ele><time>2026-04-24T10:29:17Z</time></trkpt><trkpt lat="44.792447408619324" lon="11.387483572062031"><ele>21.0</ele><time>2026-04-24T10:29:18Z</time></trkpt><trkpt lat="44.79245756860307" lon="11.387676428925399"><ele>20.75</ele><time>2026-04-24T10:29:19Z</time></trkpt><trkpt lat="44.79246984661205" lon="11.387877945134603"><ele>20.5</ele><time>2026-04-24T10:29:20Z</time></trkpt><trkpt lat="44.79247911288497" lon="11.388087705284454"><ele>20.25</ele><time>2026-04-24T10:29:21Z</time></trkpt><trkpt lat="44.79248920723437" lon="11.388302122464733"><ele>20.0</ele><time>2026-04-24T10:29:22Z</time></trkpt><trkpt lat="44.79249601986775" lon="11.388516503319739"><ele>19.333333333333336</ele><time>2026-04-24T10:29:23Z</time></trkpt><trkpt lat="44.79250562915498" lon="11.388735919433838"><ele>18.666666666666668</ele><time>2026-04-24T10:29:24Z</time></trkpt><trkpt lat="44.79251453581532" lon="11.388952178760558"><ele>18.0</ele><time>2026-04-24T10:29:25Z</time></trkpt><trkpt lat="44.7925248489653" lon="11.389163957382717"><ele>17.75</ele><time>2026-04-24T10:29:26Z</time></trkpt><trkpt lat="44.79253712435578" lon="11.389368299487833"><ele>17.5</ele><time>2026-04-24T10:29:27Z</time></trkpt><trkpt lat="44.79254853893756" lon="11.389566133664415"><ele>17.25</ele><time>2026-04-24T10:29:28Z</time></trkpt><trkpt lat="44.79255663195856" lon="11.389764908610589"><ele>17.0</ele><time>2026-04-24T10:29:29Z</time></trkpt><trkpt lat="44.792563620511864" lon="11.389964711207334"><ele>16.5</ele><time>2026-04-24T10:29:30Z</time></trkpt><trkpt lat="44.79257354798074" lon="11.3901640738028"><ele>16.0</ele><time>2026-04-24T10:29:31Z</time></trkpt><trkpt lat="44.792583347517656" lon="11.390375513796732"><ele>15.5</ele><time>2026-04-24T10:29:32Z</time></trkpt><trkpt lat="44.792591668305306" lon="11.390591441944684"><ele>15.0</ele><time>2026-04-24T10:29:33Z</time></trkpt><trkpt lat="44.79259822344103" lon="11.39081177716457"><ele>15.0</ele><time>2026-04-24T10:29:34Z</time></trkpt><trkpt lat="44.79261457036625" lon="11.39103366082591"><ele>15.0</ele><time>2026-04-24T10:29:35Z</time></trkpt><trkpt lat="44.792630196175196" lon="11.39125459478623"><ele>15.0</ele><time>2026-04-24T10:29:36Z</time></trkpt><trkpt lat="44.79264614474238" lon="11.391478367790393"><ele>15.0</ele><time>2026-04-24T10:29:37Z</time></trkpt><trkpt lat="44.79265654356229" lon="11.391698264989992"><ele>15.0</ele><time>2026-04-24T10:29:38Z</time></trkpt><trkpt lat="44.79266650494938" lon="11.391913402262755"><ele>15.0</ele><time>2026-04-24T10:29:39Z</time></trkpt><trkpt lat="44.792679754074186" lon="11.392123098377434"><ele>15.75</ele><time>2026-04-24T10:29:40Z</time></trkpt><trkpt lat="44.79269712709422" lon="11.392326067114897"><ele>16.5</ele><time>2026-04-24T10:29:41Z</time></trkpt><trkpt lat="44.79271492318234" lon="11.392521911124055"><ele>17.25</ele><time>2026-04-24T10:29:42Z</time></trkpt><trkpt lat="44.7927331915267" lon="11.392714410005702"><ele>18.0</ele><time>2026-04-24T10:29:43Z</time></trkpt><trkpt lat="44.79275454768475" lon="11.392901869474267"><ele>18.25</ele><time>2026-04-24T10:29:44Z</time></trkpt><trkpt lat="44.79277924864631" lon="11.393085081567861"><ele>18.5</ele><time>2026-04-24T10:29:45Z</time></trkpt><trkpt lat="44.79280898828246" lon="11.393263055009479"><ele>18.75</ele><time>2026-04-24T10:29:46Z</time></trkpt><trkpt lat="44.79285130846374" lon="11.393432325086325"><ele>19.0</ele><time>2026-04-24T10:29:47Z</time></trkpt><trkpt lat="44.79290513038882" lon="11.393594653187066"><ele>19.0</ele><time>2026-04-24T10:29:48Z</time></trkpt><trkpt lat="44.79296232876961" lon="11.393745897184047"><ele>19.0</ele><time>2026-04-24T10:29:49Z</time></trkpt><trkpt lat="44.79302165803704" lon="11.393887392370743"><ele>19.0</ele><time>2026-04-24T10:29:50Z</time></trkpt><trkpt lat="44.793079232944606" lon="11.394026310186609"><ele>19.0</ele><time>2026-04-24T10:29:51Z</time></trkpt><trkpt lat="44.79312741652809" lon="11.394154983080936"><ele>18.8</ele><time>2026-04-24T10:29:52Z</time></trkpt><trkpt lat="44.79317506367538" lon="11.394289524137648"><ele>18.599999999999998</ele><time>2026-04-24T10:29:53Z</time></trkpt><trkpt lat="44.79322072768633" lon="11.394418551231848"><ele>18.4</ele><time>2026-04-24T10:29:54Z</time></trkpt><trkpt lat="44.793265173109674" lon="11.394546104568404"><ele>18.2</ele><time>2026-04-24T10:29:55Z</time></trkpt><trkpt lat="44.79330524058825" lon="11.394673892956598"><ele>18.0</ele><time>2026-04-24T10:29:56Z</time></trkpt><trkpt lat="44.79334519699427" lon="11.39480013825471"><ele>17.6</ele><time>2026-04-24T10:29:57Z</time></trkpt><trkpt lat="44.793385261555876" lon="11.39493281370544"><ele>17.200000000000003</ele><time>2026-04-24T10:29:58Z</time></trkpt><trkpt lat="44.79342983079492" lon="11.395069142137313"><ele>16.8</ele><time>2026-04-24T10:29:59Z</time></trkpt><trkpt lat="44.793474837934774" lon="11.39520936908162"><ele>16.400000000000002</ele><time>2026-04-24T10:30:00Z</time></trkpt><trkpt lat="44.79352113834339" lon="11.395351745459914"><ele>16.0</ele><time>2026-04-24T10:30:01Z</time></trkpt><trkpt lat="44.79356903582655" lon="11.39550442685251"><ele>15.0</ele><time>2026-04-24T10:30:02Z</time></trkpt><trkpt lat="44.79361770406652" lon="11.395660157963293"><ele>14.0</ele><time>2026-04-24T10:30:03Z</time></trkpt><trkpt lat="44.7936702978644" lon="11.395821799067958"><ele>13.0</ele><time>2026-04-24T10:30:04Z</time></trkpt><trkpt lat="44.7937236094169" lon="11.395995925952597"><ele>12.0</ele><time>2026-04-24T10:30:05Z</time></trkpt><trkpt lat="44.79378085934057" lon="11.396175528613531"><ele>12.25</ele><time>2026-04-24T10:30:06Z</time></trkpt><trkpt lat="44.793840524352625" lon="11.396361603936757"><ele>12.5</ele><time>2026-04-24T10:30:07Z</time></trkpt><trkpt lat="44.79390414740296" lon="11.39654982028661"><ele>12.75</ele><time>2026-04-24T10:30:08Z</time></trkpt><trkpt lat="44.79396793413586" lon="11.39673891468131"><ele>13.0</ele><time>2026-04-24T10:30:09Z</time></trkpt><trkpt lat="44.79403922062938" lon="11.396930705330128"><ele>13.0</ele><time>2026-04-24T10:30:10Z</time></trkpt><trkpt lat="44.794114687825065" lon="11.397117660857042"><ele>13.0</ele><time>2026-04-24T10:30:11Z</time></trkpt><trkpt lat="44.79420140788035" lon="11.397305035492572"><ele>13.0</ele><time>2026-04-24T10:30:12Z</time></trkpt><trkpt lat="44.794295082141616" lon="11.39748762319457"><ele>13.333333333333332</ele><time>2026-04-24T10:30:13Z</time></trkpt><trkpt lat="44.79438993682499" lon="11.39767400770788"><ele>13.666666666666668</ele><time>2026-04-24T10:30:14Z</time></trkpt><trkpt lat="44.79449036046314" lon="11.397860112347725"><ele>14.0</ele><time>2026-04-24T10:30:15Z</time></trkpt><trkpt lat="44.7945945859604" lon="11.39804330871866"><ele>14.0</ele><time>2026-04-24T10:30:16Z</time></trkpt><trkpt lat="44.79469909136833" lon="11.398226551462846"><ele>14.0</ele><time>2026-04-24T10:30:17Z</time></trkpt><trkpt lat="44.79480352999978" lon="11.398408414899986"><ele>14.0</ele><time>2026-04-24T10:30:18Z</time></trkpt><trkpt lat="44.79490636375432" lon="11.398593538436572"><ele>14.0</ele><time>2026-04-24T10:30:19Z</time></trkpt><trkpt lat="44.795010701944555" lon="11.398782748554149"><ele>14.0</ele><time>2026-04-24T10:30:20Z</time></trkpt><trkpt lat="44.795117509168726" lon="11.39896735414053"><ele>14.0</ele><time>2026-04-24T10:30:21Z</time></trkpt><trkpt lat="44.795229421095186" lon="11.399152847241915"><ele>14.333333333333334</ele><time>2026-04-24T10:30:22Z</time></trkpt><trkpt lat="44.79535094763202" lon="11.399339259740383"><ele>14.666666666666668</ele><time>2026-04-24T10:30:23Z</time></trkpt><trkpt lat="44.795481159564254" lon="11.399516066952582"><ele>15.0</ele><time>2026-04-24T10:30:24Z</time></trkpt><trkpt lat="44.79561784499563" lon="11.39968902289314"><ele>15.0</ele><time>2026-04-24T10:30:25Z</time></trkpt><trkpt lat="44.7957590430556" lon="11.39986027662589"><ele>15.0</ele><time>2026-04-24T10:30:26Z</time></trkpt><trkpt lat="44.79590167684674" lon="11.400034005269188"><ele>15.0</ele><time>2026-04-24T10:30:27Z</time></trkpt><trkpt lat="44.79604581719232" lon="11.400206930000593"><ele>15.0</ele><time>2026-04-24T10:30:28Z</time></trkpt><trkpt lat="44.79618802016891" lon="11.400384734712743"><ele>15.0</ele><time>2026-04-24T10:30:29Z</time></trkpt><trkpt lat="44.7963341001406" lon="11.400569271897385"><ele>15.0</ele><time>2026-04-24T10:30:30Z</time></trkpt><trkpt lat="44.79648011263552" lon="11.40075284820124"><ele>14.666666666666668</ele><time>2026-04-24T10:30:31Z</time></trkpt><trkpt lat="44.796625020352565" lon="11.400938754559663"><ele>14.333333333333334</ele><time>2026-04-24T10:30:32Z</time></trkpt><trkpt lat="44.7967690116974" lon="11.401126236077095"><ele>14.0</ele><time>2026-04-24T10:30:33Z</time></trkpt><trkpt lat="44.79691522528685" lon="11.401311414210276"><ele>13.666666666666668</ele><time>2026-04-24T10:30:34Z</time></trkpt><trkpt lat="44.79705841886281" lon="11.401491118232112"><ele>13.333333333333332</ele><time>2026-04-24T10:30:35Z</time></trkpt><trkpt lat="44.79719749975879" lon="11.401662159201798"><ele>13.0</ele><time>2026-04-24T10:30:36Z</time></trkpt><trkpt lat="44.797333541915755" lon="11.401833088748656"><ele>13.0</ele><time>2026-04-24T10:30:37Z</time></trkpt><trkpt lat="44.79746945400986" lon="11.401997142639333"><ele>13.0</ele><time>2026-04-24T10:30:38Z</time></trkpt><trkpt lat="44.797604608211664" lon="11.402163096459795"><ele>13.0</ele><time>2026-04-24T10:30:39Z</time></trkpt><trkpt lat="44.79772700837491" lon="11.402347492768332"><ele>13.333333333333332</ele><time>2026-04-24T10:30:40Z</time></trkpt><trkpt lat="44.79786016339957" lon="11.402514783860266"><ele>13.666666666666668</ele><time>2026-04-24T10:30:41Z</time></trkpt><trkpt lat="44.79800170941865" lon="11.402668284115142"><ele>14.0</ele><time>2026-04-24T10:30:42Z</time></trkpt><trkpt lat="44.798129042786954" lon="11.40283268244181"><ele>14.0</ele><time>2026-04-24T10:30:43Z</time></trkpt><trkpt lat="44.798250979038166" lon="11.40298376197869"><ele>14.0</ele><time>2026-04-24T10:30:44Z</time></trkpt><trkpt lat="44.798370570746215" lon="11.403127333317892"><ele>14.0</ele><time>2026-04-24T10:30:45Z</time></trkpt><trkpt lat="44.798487076868554" lon="11.403277041357246"><ele>13.666666666666668</ele><time>2026-04-24T10:30:46Z</time></trkpt><trkpt lat="44.7986070958325" lon="11.403431882447961"><ele>13.333333333333332</ele><time>2026-04-24T10:30:47Z</time></trkpt><trkpt lat="44.79872385663827" lon="11.40358751894958"><ele>13.0</ele><time>2026-04-24T10:30:48Z</time></trkpt><trkpt lat="44.79884028934865" lon="11.403739173925482"><ele>12.75</ele><time>2026-04-24T10:30:49Z</time></trkpt><trkpt lat="44.79895143136713" lon="11.403882691017563"><ele>12.5</ele><time>2026-04-24T10:30:50Z</time></trkpt><trkpt lat="44.799062198104444" lon="11.404019423126298"><ele>12.25</ele><time>2026-04-24T10:30:51Z</time></trkpt><trkpt lat="44.79917258971318" lon="11.404153818722856"><ele>12.0</ele><time>2026-04-24T10:30:52Z</time></trkpt><trkpt lat="44.79928517685471" lon="11.404284535256664"><ele>12.0</ele><time>2026-04-24T10:30:53Z</time></trkpt><trkpt lat="44.79938321087969" lon="11.40443182970156"><ele>12.0</ele><time>2026-04-24T10:30:54Z</time></trkpt><trkpt lat="44.799488543054174" lon="11.404566099953676"><ele>12.0</ele><time>2026-04-24T10:30:55Z</time></trkpt><trkpt lat="44.79958932595425" lon="11.404702167895689"><ele>12.0</ele><time>2026-04-24T10:30:56Z</time></trkpt><trkpt lat="44.79969527960033" lon="11.404830280093234"><ele>12.0</ele><time>2026-04-24T10:30:57Z</time></trkpt><trkpt lat="44.799776948901304" lon="11.40498029188265"><ele>12.0</ele><time>2026-04-24T10:30:58Z</time></trkpt><trkpt lat="44.799846371564975" lon="11.405147918343971"><ele>12.0</ele><time>2026-04-24T10:30:59Z</time></trkpt><trkpt lat="44.79990833008734" lon="11.405322241734224"><ele>12.0</ele><time>2026-04-24T10:31:00Z</time></trkpt><trkpt lat="44.799934905098105" lon="11.405508001958674"><ele>11.75</ele><time>2026-04-24T10:31:01Z</time></trkpt><trkpt lat="44.79996220888164" lon="11.405691446002743"><ele>11.5</ele><time>2026-04-24T10:31:02Z</time></trkpt><trkpt lat="44.799976040091934" lon="11.40588191852724"><ele>11.25</ele><time>2026-04-24T10:31:03Z</time></trkpt><trkpt lat="44.79998564918956" lon="11.406081061464892"><ele>11.0</ele><time>2026-04-24T10:31:04Z</time></trkpt><trkpt lat="44.79999122054289" lon="11.40628792468814"><ele>11.333333333333332</ele><time>2026-04-24T10:31:05Z</time></trkpt><trkpt lat="44.79999643462092" lon="11.406510311171264"><ele>11.666666666666666</ele><time>2026-04-24T10:31:06Z</time></trkpt><trkpt lat="44.80001717011787" lon="11.40672395427238"><ele>12.0</ele><time>2026-04-24T10:31:07Z</time></trkpt><trkpt lat="44.80002292434747" lon="11.406937739578723"><ele>12.0</ele><time>2026-04-24T10:31:08Z</time></trkpt><trkpt lat="44.800011281334" lon="11.407155950180233"><ele>12.0</ele><time>2026-04-24T10:31:09Z</time></trkpt><trkpt lat="44.80001626917454" lon="11.407377762874573"><ele>12.0</ele><time>2026-04-24T10:31:10Z</time></trkpt><trkpt lat="44.8000375308466" lon="11.407600530028393"><ele>12.0</ele><time>2026-04-24T10:31:11Z</time></trkpt><trkpt lat="44.80004054833571" lon="11.40783042162833"><ele>12.0</ele><time>2026-04-24T10:31:12Z</time></trkpt><trkpt lat="44.80004321084112" lon="11.408061799973083"><ele>12.0</ele><time>2026-04-24T10:31:13Z</time></trkpt><trkpt lat="44.800050908243485" lon="11.408287349605494"><ele>12.0</ele><time>2026-04-24T10:31:14Z</time></trkpt><trkpt lat="44.800041653819605" lon="11.408506635575064"><ele>12.0</ele><time>2026-04-24T10:31:15Z</time></trkpt><trkpt lat="44.800046372489" lon="11.408716478036187"><ele>12.0</ele><time>2026-04-24T10:31:16Z</time></trkpt><trkpt lat="44.8000510833375" lon="11.408925972715856"><ele>12.5</ele><time>2026-04-24T10:31:17Z</time></trkpt><trkpt lat="44.800055741967356" lon="11.409133145219462"><ele>13.0</ele><time>2026-04-24T10:31:18Z</time></trkpt><trkpt lat="44.80006030146246" lon="11.409335909111554"><ele>13.5</ele><time>2026-04-24T10:31:19Z</time></trkpt><trkpt lat="44.80006598760453" lon="11.409533653004825"><ele>14.0</ele><time>2026-04-24T10:31:20Z</time></trkpt><trkpt lat="44.80007449272955" lon="11.409730075363946"><ele>14.0</ele><time>2026-04-24T10:31:21Z</time></trkpt><trkpt lat="44.80010769136047" lon="11.409924218127209"><ele>14.0</ele><time>2026-04-24T10:31:22Z</time></trkpt><trkpt lat="44.8001384997328" lon="11.410126469671221"><ele>14.0</ele><time>2026-04-24T10:31:23Z</time></trkpt><trkpt lat="44.800198363296964" lon="11.410333043406649"><ele>14.0</ele><time>2026-04-24T10:31:24Z</time></trkpt><trkpt lat="44.800255899931926" lon="11.410563584116735"><ele>14.333333333333334</ele><time>2026-04-24T10:31:25Z</time></trkpt><trkpt lat="44.80035666108469" lon="11.410778886592357"><ele>14.666666666666668</ele><time>2026-04-24T10:31:26Z</time></trkpt><trkpt lat="44.80043640463318" lon="11.411021490220056"><ele>15.0</ele><time>2026-04-24T10:31:27Z</time></trkpt><trkpt lat="44.80050479112482" lon="11.411257111740555"><ele>15.0</ele><time>2026-04-24T10:31:28Z</time></trkpt><trkpt lat="44.80056539180128" lon="11.411480597281281"><ele>15.0</ele><time>2026-04-24T10:31:29Z</time></trkpt><trkpt lat="44.800626186312115" lon="11.411696267746123"><ele>15.0</ele><time>2026-04-24T10:31:30Z</time></trkpt><trkpt lat="44.80068885439579" lon="11.411910024171423"><ele>15.0</ele><time>2026-04-24T10:31:31Z</time></trkpt><trkpt lat="44.80075346978111" lon="11.412116079296878"><ele>15.0</ele><time>2026-04-24T10:31:32Z</time></trkpt><trkpt lat="44.8008181335823" lon="11.412317932413954"><ele>15.0</ele><time>2026-04-24T10:31:33Z</time></trkpt><trkpt lat="44.80088691580972" lon="11.412520935007091"><ele>14.666666666666668</ele><time>2026-04-24T10:31:34Z</time></trkpt><trkpt lat="44.800956920150696" lon="11.412717052824972"><ele>14.333333333333334</ele><time>2026-04-24T10:31:35Z</time></trkpt><trkpt lat="44.80102711475984" lon="11.412912538665882"><ele>14.0</ele><time>2026-04-24T10:31:36Z</time></trkpt><trkpt lat="44.801098774402234" lon="11.413116854618945"><ele>14.0</ele><time>2026-04-24T10:31:37Z</time></trkpt><trkpt lat="44.80117520195197" lon="11.41332739228677"><ele>14.0</ele><time>2026-04-24T10:31:38Z</time></trkpt><trkpt lat="44.80125910308789" lon="11.41354020603542"><ele>14.0</ele><time>2026-04-24T10:31:39Z</time></trkpt><trkpt lat="44.80134563556866" lon="11.413755853152477"><ele>14.0</ele><time>2026-04-24T10:31:40Z</time></trkpt><trkpt lat="44.801435144786005" lon="11.413967791588487"><ele>14.0</ele><time>2026-04-24T10:31:41Z</time></trkpt><trkpt lat="44.8015274530106" lon="11.414179862723348"><ele>14.0</ele><time>2026-04-24T10:31:42Z</time></trkpt><trkpt lat="44.80162064991062" lon="11.414387567935314"><ele>14.0</ele><time>2026-04-24T10:31:43Z</time></trkpt><trkpt lat="44.80170632868535" lon="11.414579849422255"><ele>14.0</ele><time>2026-04-24T10:31:44Z</time></trkpt><trkpt lat="44.80178574519489" lon="11.414760161713676"><ele>14.0</ele><time>2026-04-24T10:31:45Z</time></trkpt><trkpt lat="44.80186073451125" lon="11.414920210524492"><ele>14.0</ele><time>2026-04-24T10:31:46Z</time></trkpt><trkpt lat="44.80192061390604" lon="11.415057924596738"><ele>13.799999999999999</ele><time>2026-04-24T10:31:47Z</time></trkpt><trkpt lat="44.80195279295045" lon="11.415165159816363"><ele>13.599999999999998</ele><time>2026-04-24T10:31:48Z</time></trkpt><trkpt lat="44.801929357811964" lon="11.415339271027648"><ele>13.4</ele><time>2026-04-24T10:31:50Z</time></trkpt><trkpt lat="44.80187632975857" lon="11.415441636203935"><ele>13.2</ele><time>2026-04-24T10:31:51Z</time></trkpt><trkpt lat="44.80178475689666" lon="11.41554165339505"><ele>13.0</ele><time>2026-04-24T10:31:52Z</time></trkpt><trkpt lat="44.8016702243193" lon="11.41563721500957"><ele>13.0</ele><time>2026-04-24T10:31:53Z</time></trkpt><trkpt lat="44.801541108563164" lon="11.415737419948453"><ele>13.0</ele><time>2026-04-24T10:31:54Z</time></trkpt><trkpt lat="44.80140713628056" lon="11.415863370895957"><ele>13.0</ele><time>2026-04-24T10:31:55Z</time></trkpt><trkpt lat="44.80127257260844" lon="11.416012995080761"><ele>13.0</ele><time>2026-04-24T10:31:56Z</time></trkpt><trkpt lat="44.80113381866197" lon="11.416173627152878"><ele>13.0</ele><time>2026-04-24T10:31:57Z</time></trkpt><trkpt lat="44.80098935560538" lon="11.416343352414353"><ele>13.0</ele><time>2026-04-24T10:31:58Z</time></trkpt><trkpt lat="44.80084411190069" lon="11.4165218390415"><ele>12.666666666666666</ele><time>2026-04-24T10:31:59Z</time></trkpt><trkpt lat="44.800697514975155" lon="11.416700360786594"><ele>12.333333333333332</ele><time>2026-04-24T10:32:00Z</time></trkpt><trkpt lat="44.80054344653187" lon="11.416877633449712"><ele>12.0</ele><time>2026-04-24T10:32:01Z</time></trkpt><trkpt lat="44.800392401846864" lon="11.417056754730991"><ele>12.0</ele><time>2026-04-24T10:32:02Z</time></trkpt><trkpt lat="44.80023657830854" lon="11.417245752800001"><ele>12.0</ele><time>2026-04-24T10:32:03Z</time></trkpt><trkpt lat="44.800076608518495" lon="11.41743415773099"><ele>12.0</ele><time>2026-04-24T10:32:04Z</time></trkpt><trkpt lat="44.799915652882426" lon="11.417626563387698"><ele>12.0</ele><time>2026-04-24T10:32:05Z</time></trkpt><trkpt lat="44.79975262279593" lon="11.417817691882034"><ele>12.0</ele><time>2026-04-24T10:32:06Z</time></trkpt><trkpt lat="44.799593672236476" lon="11.418003811939931"><ele>12.0</ele><time>2026-04-24T10:32:07Z</time></trkpt><trkpt lat="44.79943456242337" lon="11.418191160220498"><ele>12.0</ele><time>2026-04-24T10:32:08Z</time></trkpt><trkpt lat="44.799274293381686" lon="11.41837809119776"><ele>12.0</ele><time>2026-04-24T10:32:09Z</time></trkpt><trkpt lat="44.79911595090825" lon="11.418562894068083"><ele>12.0</ele><time>2026-04-24T10:32:10Z</time></trkpt><trkpt lat="44.79895483209305" lon="11.418750028608631"><ele>12.0</ele><time>2026-04-24T10:32:11Z</time></trkpt><trkpt lat="44.79879210363884" lon="11.41894742569635"><ele>12.0</ele><time>2026-04-24T10:32:12Z</time></trkpt><trkpt lat="44.79862632503043" lon="11.419147215579361"><ele>12.0</ele><time>2026-04-24T10:32:13Z</time></trkpt><trkpt lat="44.798459047050315" lon="11.419346404113872"><ele>11.666666666666666</ele><time>2026-04-24T10:32:14Z</time></trkpt><trkpt lat="44.79829392362532" lon="11.419547740573101"><ele>11.333333333333332</ele><time>2026-04-24T10:32:15Z</time></trkpt><trkpt lat="44.7981281080328" lon="11.419749294336837"><ele>11.0</ele><time>2026-04-24T10:32:16Z</time></trkpt><trkpt lat="44.79796334111539" lon="11.419945673966689"><ele>10.666666666666666</ele><time>2026-04-24T10:32:17Z</time></trkpt><trkpt lat="44.7977975748628" lon="11.420139964590312"><ele>10.333333333333334</ele><time>2026-04-24T10:32:18Z</time></trkpt><trkpt lat="44.797631127476514" lon="11.420334970580889"><ele>10.0</ele><time>2026-04-24T10:32:19Z</time></trkpt><trkpt lat="44.79746684544397" lon="11.42053142030013"><ele>10.666666666666668</ele><time>2026-04-24T10:32:20Z</time></trkpt><trkpt lat="44.79730596883195" lon="11.420735451196343"><ele>11.333333333333334</ele><time>2026-04-24T10:32:21Z</time></trkpt><trkpt lat="44.79714384892337" lon="11.42093573004684"><ele>12.0</ele><time>2026-04-24T10:32:22Z</time></trkpt><trkpt lat="44.796978051925464" lon="11.421128897396898"><ele>11.666666666666666</ele><time>2026-04-24T10:32:23Z</time></trkpt><trkpt lat="44.796808571189" lon="11.421316953443087"><ele>11.333333333333332</ele><time>2026-04-24T10:32:24Z</time></trkpt><trkpt lat="44.79663720379808" lon="11.421504336267494"><ele>11.0</ele><time>2026-04-24T10:32:25Z</time></trkpt><trkpt lat="44.79646441268988" lon="11.421692391536306"><ele>11.0</ele><time>2026-04-24T10:32:26Z</time></trkpt><trkpt lat="44.79628784250647" lon="11.421873256701073"><ele>11.0</ele><time>2026-04-24T10:32:27Z</time></trkpt><trkpt lat="44.79611020482623" lon="11.422047536121811"><ele>11.0</ele><time>2026-04-24T10:32:28Z</time></trkpt><trkpt lat="44.7959272863586" lon="11.4222102806164"><ele>11.333333333333332</ele><time>2026-04-24T10:32:29Z</time></trkpt><trkpt lat="44.795737590100714" lon="11.422357129151724"><ele>11.666666666666666</ele><time>2026-04-24T10:32:30Z</time></trkpt><trkpt lat="44.795548214179014" lon="11.4224972302058"><ele>12.0</ele><time>2026-04-24T10:32:31Z</time></trkpt><trkpt lat="44.79535441171826" lon="11.422624393117863"><ele>11.0</ele><time>2026-04-24T10:32:32Z</time></trkpt><trkpt lat="44.79515397425803" lon="11.422736743398948"><ele>10.0</ele><time>2026-04-24T10:32:33Z</time></trkpt><trkpt lat="44.794948809824106" lon="11.42284034225451"><ele>9.0</ele><time>2026-04-24T10:32:34Z</time></trkpt><trkpt lat="44.794737588670856" lon="11.422911362166882"><ele>9.333333333333334</ele><time>2026-04-24T10:32:35Z</time></trkpt><trkpt lat="44.794533603725384" lon="11.42302028305529"><ele>9.666666666666668</ele><time>2026-04-24T10:32:36Z</time></trkpt><trkpt lat="44.79432570379877" lon="11.423099790272055"><ele>10.0</ele><time>2026-04-24T10:32:37Z</time></trkpt><trkpt lat="44.79412722811131" lon="11.423180477421363"><ele>10.333333333333334</ele><time>2026-04-24T10:32:38Z</time></trkpt><trkpt lat="44.793938830166745" lon="11.42325355639725"><ele>10.666666666666666</ele><time>2026-04-24T10:32:39Z</time></trkpt><trkpt lat="44.79375710222725" lon="11.423330618185224"><ele>11.0</ele><time>2026-04-24T10:32:40Z</time></trkpt><trkpt lat="44.79357806403693" lon="11.423415244677546"><ele>12.0</ele><time>2026-04-24T10:32:41Z</time></trkpt><trkpt lat="44.79340310158581" lon="11.423514555343237"><ele>13.0</ele><time>2026-04-24T10:32:42Z</time></trkpt><trkpt lat="44.79323074651583" lon="11.423634707398243"><ele>14.0</ele><time>2026-04-24T10:32:43Z</time></trkpt><trkpt lat="44.79306244314679" lon="11.423782226780514"><ele>13.333333333333334</ele><time>2026-04-24T10:32:44Z</time></trkpt><trkpt lat="44.79290115459281" lon="11.423955188900884"><ele>12.666666666666668</ele><time>2026-04-24T10:32:45Z</time></trkpt><trkpt lat="44.7927510001009" lon="11.424159304709026"><ele>12.0</ele><time>2026-04-24T10:32:46Z</time></trkpt><trkpt lat="44.792608447056594" lon="11.424388172792707"><ele>12.0</ele><time>2026-04-24T10:32:47Z</time></trkpt><trkpt lat="44.792481376281515" lon="11.42463992091691"><ele>12.0</ele><time>2026-04-24T10:32:48Z</time></trkpt><trkpt lat="44.79237770934652" lon="11.424887288626689"><ele>12.0</ele><time>2026-04-24T10:32:49Z</time></trkpt><trkpt lat="44.79229448131226" lon="11.425147733754754"><ele>11.333333333333334</ele><time>2026-04-24T10:32:50Z</time></trkpt><trkpt lat="44.792221486221365" lon="11.425416662459911"><ele>10.666666666666668</ele><time>2026-04-24T10:32:51Z</time></trkpt><trkpt lat="44.79215427827421" lon="11.425693332700893"><ele>10.0</ele><time>2026-04-24T10:32:52Z</time></trkpt><trkpt lat="44.79207850602987" lon="11.425944385039985"><ele>10.0</ele><time>2026-04-24T10:32:53Z</time></trkpt><trkpt lat="44.79198279240485" lon="11.42615836645522"><ele>10.0</ele><time>2026-04-24T10:32:54Z</time></trkpt><trkpt lat="44.79188764514968" lon="11.426342253941405"><ele>10.0</ele><time>2026-04-24T10:32:55Z</time></trkpt><trkpt lat="44.79179633392417" lon="11.426488170055473"><ele>9.8</ele><time>2026-04-24T10:32:56Z</time></trkpt><trkpt lat="44.79173218928588" lon="11.426576667471155"><ele>9.6</ele><time>2026-04-24T10:32:57Z</time></trkpt><trkpt lat="44.791652362271066" lon="11.426570369587195"><ele>9.4</ele><time>2026-04-24T10:32:58Z</time></trkpt><trkpt lat="44.79154453896417" lon="11.426581493034439"><ele>9.2</ele><time>2026-04-24T10:32:59Z</time></trkpt><trkpt lat="44.79142091068708" lon="11.426560280336519"><ele>9.0</ele><time>2026-04-24T10:33:00Z</time></trkpt><trkpt lat="44.79127819706209" lon="11.426529572407512"><ele>9.0</ele><time>2026-04-24T10:33:01Z</time></trkpt><trkpt lat="44.791150041051885" lon="11.426381746532586"><ele>9.0</ele><time>2026-04-24T10:33:02Z</time></trkpt><trkpt lat="44.79099816534979" lon="11.426350669796706"><ele>9.0</ele><time>2026-04-24T10:33:03Z</time></trkpt><trkpt lat="44.790856480045214" lon="11.426331316466898"><ele>9.5</ele><time>2026-04-24T10:33:04Z</time></trkpt><trkpt lat="44.79072883293809" lon="11.426399162113045"><ele>10.0</ele><time>2026-04-24T10:33:05Z</time></trkpt><trkpt lat="44.790617687080946" lon="11.426496002624832"><ele>10.5</ele><time>2026-04-24T10:33:06Z</time></trkpt><trkpt lat="44.79052560436564" lon="11.426622471440815"><ele>11.0</ele><time>2026-04-24T10:33:07Z</time></trkpt><trkpt lat="44.79045160574166" lon="11.426778409458649"><ele>11.0</ele><time>2026-04-24T10:33:08Z</time></trkpt><trkpt lat="44.79040960285308" lon="11.426939029169228"><ele>11.0</ele><time>2026-04-24T10:33:09Z</time></trkpt><trkpt lat="44.79035603456121" lon="11.427097655521562"><ele>11.0</ele><time>2026-04-24T10:33:10Z</time></trkpt><trkpt lat="44.790293307929254" lon="11.427214297063664"><ele>11.0</ele><time>2026-04-24T10:33:11Z</time></trkpt><trkpt lat="44.79023913650104" lon="11.427322498753979"><ele>11.0</ele><time>2026-04-24T10:33:12Z</time></trkpt><trkpt lat="44.79017596126439" lon="11.427410129692017"><ele>11.0</ele><time>2026-04-24T10:33:13Z</time></trkpt><trkpt lat="44.79008812310863" lon="11.427494800685258"><ele>11.0</ele><time>2026-04-24T10:33:14Z</time></trkpt><trkpt lat="44.78999248029368" lon="11.427571211336941"><ele>11.0</ele><time>2026-04-24T10:33:15Z</time></trkpt><trkpt lat="44.789879541370645" lon="11.427587335233007"><ele>11.0</ele><time>2026-04-24T10:33:16Z</time></trkpt><trkpt lat="44.789771228419404" lon="11.427633446208796"><ele>11.0</ele><time>2026-04-24T10:33:17Z</time></trkpt><trkpt lat="44.78966030106739" lon="11.427682099564406"><ele>11.0</ele><time>2026-04-24T10:33:18Z</time></trkpt><trkpt lat="44.789548920089494" lon="11.42774633863634"><ele>11.0</ele><time>2026-04-24T10:33:19Z</time></trkpt><trkpt lat="44.78942718720488" lon="11.427806559822262"><ele>11.0</ele><time>2026-04-24T10:33:20Z</time></trkpt><trkpt lat="44.78929287410342" lon="11.427890056086348"><ele>11.0</ele><time>2026-04-24T10:33:21Z</time></trkpt><trkpt lat="44.78913838819229" lon="11.427966976357588"><ele>11.0</ele><time>2026-04-24T10:33:22Z</time></trkpt><trkpt lat="44.788984659370186" lon="11.428078148401827"><ele>11.0</ele><time>2026-04-24T10:33:23Z</time></trkpt><trkpt lat="44.78882691017145" lon="11.428210653490687"><ele>11.0</ele><time>2026-04-24T10:33:24Z</time></trkpt><trkpt lat="44.78867136250783" lon="11.428354528226972"><ele>11.0</ele><time>2026-04-24T10:33:25Z</time></trkpt><trkpt lat="44.78851731895121" lon="11.428517052552097"><ele>11.0</ele><time>2026-04-24T10:33:26Z</time></trkpt><trkpt lat="44.78836781077011" lon="11.428689186257092"><ele>11.0</ele><time>2026-04-24T10:33:27Z</time></trkpt><trkpt lat="44.788224262239765" lon="11.428870842801949"><ele>10.666666666666666</ele><time>2026-04-24T10:33:28Z</time></trkpt><trkpt lat="44.78806890991722" lon="11.429036775770276"><ele>10.333333333333334</ele><time>2026-04-24T10:33:29Z</time></trkpt><trkpt lat="44.78791418646815" lon="11.429210669805434"><ele>10.0</ele><time>2026-04-24T10:33:30Z</time></trkpt><trkpt lat="44.78776122290679" lon="11.429394148980283"><ele>10.333333333333334</ele><time>2026-04-24T10:33:31Z</time></trkpt><trkpt lat="44.78760680673163" lon="11.429590602263454"><ele>10.666666666666666</ele><time>2026-04-24T10:33:32Z</time></trkpt><trkpt lat="44.78744179357708" lon="11.429798043528159"><ele>11.0</ele><time>2026-04-24T10:33:33Z</time></trkpt><trkpt lat="44.787268206163056" lon="11.430009299257785"><ele>12.0</ele><time>2026-04-24T10:33:34Z</time></trkpt><trkpt lat="44.78709653055886" lon="11.430213375152757"><ele>13.0</ele><time>2026-04-24T10:33:35Z</time></trkpt><trkpt lat="44.786923940348856" lon="11.430422429295296"><ele>11.5</ele><time>2026-04-24T10:33:36Z</time></trkpt><trkpt lat="44.786751218801044" lon="11.430628258034169"><ele>10.0</ele><time>2026-04-24T10:33:37Z</time></trkpt><trkpt lat="44.7865789235697" lon="11.430832061808813"><ele>10.0</ele><time>2026-04-24T10:33:38Z</time></trkpt><trkpt lat="44.786409057025736" lon="11.431036879630504"><ele>10.0</ele><time>2026-04-24T10:33:39Z</time></trkpt><trkpt lat="44.78623773437357" lon="11.431241627729298"><ele>10.0</ele><time>2026-04-24T10:33:40Z</time></trkpt><trkpt lat="44.786068120330256" lon="11.431445810520884"><ele>10.333333333333334</ele><time>2026-04-24T10:33:41Z</time></trkpt><trkpt lat="44.78589834436142" lon="11.431649213455815"><ele>10.666666666666666</ele><time>2026-04-24T10:33:42Z</time></trkpt><trkpt lat="44.78572851914092" lon="11.431850084145008"><ele>11.0</ele><time>2026-04-24T10:33:43Z</time></trkpt><trkpt lat="44.78555738395469" lon="11.432054899909403"><ele>11.0</ele><time>2026-04-24T10:33:44Z</time></trkpt><trkpt lat="44.785390349957815" lon="11.432258796431256"><ele>11.0</ele><time>2026-04-24T10:33:45Z</time></trkpt><trkpt lat="44.785220846482886" lon="11.432462267950095"><ele>11.0</ele><time>2026-04-24T10:33:46Z</time></trkpt><trkpt lat="44.78505098098887" lon="11.432665868577406"><ele>10.666666666666666</ele><time>2026-04-24T10:33:47Z</time></trkpt><trkpt lat="44.78487857275014" lon="11.432868020863461"><ele>10.333333333333334</ele><time>2026-04-24T10:33:48Z</time></trkpt><trkpt lat="44.78470642482408" lon="11.43306688361773"><ele>10.0</ele><time>2026-04-24T10:33:49Z</time></trkpt><trkpt lat="44.784535544174425" lon="11.433270373394768"><ele>10.0</ele><time>2026-04-24T10:33:50Z</time></trkpt><trkpt lat="44.78436315113047" lon="11.433474388405594"><ele>10.0</ele><time>2026-04-24T10:33:51Z</time></trkpt><trkpt lat="44.78418741096869" lon="11.433675160746631"><ele>10.5</ele><time>2026-04-24T10:33:52Z</time></trkpt><trkpt lat="44.784007177387885" lon="11.433878064091523"><ele>11.0</ele><time>2026-04-24T10:33:53Z</time></trkpt><trkpt lat="44.783823284689845" lon="11.434071392954351"><ele>11.0</ele><time>2026-04-24T10:33:54Z</time></trkpt><trkpt lat="44.78363960308848" lon="11.434263869185298"><ele>11.0</ele><time>2026-04-24T10:33:55Z</time></trkpt><trkpt lat="44.78345024972391" lon="11.434447502887833"><ele>11.0</ele><time>2026-04-24T10:33:56Z</time></trkpt><trkpt lat="44.78326294999691" lon="11.434628583767118"><ele>11.0</ele><time>2026-04-24T10:33:57Z</time></trkpt><trkpt lat="44.78307334216557" lon="11.434807934324253"><ele>11.0</ele><time>2026-04-24T10:33:58Z</time></trkpt><trkpt lat="44.782883881095394" lon="11.434983047169117"><ele>11.0</ele><time>2026-04-24T10:33:59Z</time></trkpt><trkpt lat="44.78269205543779" lon="11.435154111718704"><ele>11.0</ele><time>2026-04-24T10:34:00Z</time></trkpt><trkpt lat="44.782500839326985" lon="11.43532707945858"><ele>11.0</ele><time>2026-04-24T10:34:01Z</time></trkpt><trkpt lat="44.78230550514963" lon="11.43549568915806"><ele>11.5</ele><time>2026-04-24T10:34:02Z</time></trkpt><trkpt lat="44.78211122006584" lon="11.435662119727008"><ele>12.0</ele><time>2026-04-24T10:34:03Z</time></trkpt><trkpt lat="44.78191674738357" lon="11.43582668407475"><ele>11.5</ele><time>2026-04-24T10:34:04Z</time></trkpt><trkpt lat="44.78172028133859" lon="11.435991589027473"><ele>11.0</ele><time>2026-04-24T10:34:05Z</time></trkpt><trkpt lat="44.781527051563295" lon="11.436162135300156"><ele>10.5</ele><time>2026-04-24T10:34:06Z</time></trkpt><trkpt lat="44.78133504630914" lon="11.436335861407118"><ele>10.0</ele><time>2026-04-24T10:34:07Z</time></trkpt><trkpt lat="44.781142747972744" lon="11.436507364159246"><ele>9.5</ele><time>2026-04-24T10:34:08Z</time></trkpt><trkpt lat="44.78095108898875" lon="11.436679333772465"><ele>9.0</ele><time>2026-04-24T10:34:09Z</time></trkpt><trkpt lat="44.78075920296743" lon="11.436853447402608"><ele>9.0</ele><time>2026-04-24T10:34:10Z</time></trkpt><trkpt lat="44.780568033767025" lon="11.437036188227362"><ele>9.0</ele><time>2026-04-24T10:34:11Z</time></trkpt><trkpt lat="44.780380352777954" lon="11.43722027230231"><ele>9.0</ele><time>2026-04-24T10:34:12Z</time></trkpt><trkpt lat="44.78019565425215" lon="11.437408321402526"><ele>9.0</ele><time>2026-04-24T10:34:13Z</time></trkpt><trkpt lat="44.7800109068432" lon="11.43760123541426"><ele>10.0</ele><time>2026-04-24T10:34:14Z</time></trkpt><trkpt lat="44.77982893903392" lon="11.437795144000352"><ele>11.0</ele><time>2026-04-24T10:34:15Z</time></trkpt><trkpt lat="44.779650053018365" lon="11.437992425054828"><ele>11.0</ele><time>2026-04-24T10:34:16Z</time></trkpt><trkpt lat="44.779468814989514" lon="11.4381889544145"><ele>11.0</ele><time>2026-04-24T10:34:17Z</time></trkpt><trkpt lat="44.779287390200466" lon="11.438383591701834"><ele>10.5</ele><time>2026-04-24T10:34:18Z</time></trkpt><trkpt lat="44.77910534813405" lon="11.438580333768186"><ele>10.0</ele><time>2026-04-24T10:34:19Z</time></trkpt><trkpt lat="44.77892475027304" lon="11.43877537606623"><ele>10.5</ele><time>2026-04-24T10:34:20Z</time></trkpt><trkpt lat="44.77874147752558" lon="11.43896831260742"><ele>11.0</ele><time>2026-04-24T10:34:21Z</time></trkpt><trkpt lat="44.77855855011062" lon="11.43916166540301"><ele>10.5</ele><time>2026-04-24T10:34:22Z</time></trkpt><trkpt lat="44.77837947421071" lon="11.439355708523916"><ele>10.0</ele><time>2026-04-24T10:34:23Z</time></trkpt><trkpt lat="44.778198765620715" lon="11.43955125778792"><ele>10.5</ele><time>2026-04-24T10:34:24Z</time></trkpt><trkpt lat="44.77801596923206" lon="11.43974540427014"><ele>11.0</ele><time>2026-04-24T10:34:25Z</time></trkpt><trkpt lat="44.77783182106557" lon="11.439939793530659"><ele>11.0</ele><time>2026-04-24T10:34:26Z</time></trkpt><trkpt lat="44.777650887905374" lon="11.440135746225417"><ele>11.0</ele><time>2026-04-24T10:34:27Z</time></trkpt><trkpt lat="44.777470788467916" lon="11.44032960785204"><ele>10.5</ele><time>2026-04-24T10:34:28Z</time></trkpt><trkpt lat="44.77728964742311" lon="11.440522099364294"><ele>10.0</ele><time>2026-04-24T10:34:29Z</time></trkpt><trkpt lat="44.77710608126019" lon="11.440715337598794"><ele>10.0</ele><time>2026-04-24T10:34:30Z</time></trkpt><trkpt lat="44.7769226127618" lon="11.440907815545444"><ele>10.0</ele><time>2026-04-24T10:34:31Z</time></trkpt><trkpt lat="44.776742515229714" lon="11.441103199968353"><ele>10.0</ele><time>2026-04-24T10:34:32Z</time></trkpt><trkpt lat="44.77655931461156" lon="11.441297181437289"><ele>10.0</ele><time>2026-04-24T10:34:33Z</time></trkpt><trkpt lat="44.776381661449086" lon="11.441491365060823"><ele>10.0</ele><time>2026-04-24T10:34:34Z</time></trkpt><trkpt lat="44.77619868706588" lon="11.441687141164353"><ele>10.0</ele><time>2026-04-24T10:34:35Z</time></trkpt><trkpt lat="44.77601686126441" lon="11.441882821924194"><ele>10.0</ele><time>2026-04-24T10:34:36Z</time></trkpt><trkpt lat="44.77584179119185" lon="11.442082323797266"><ele>10.0</ele><time>2026-04-24T10:34:37Z</time></trkpt><trkpt lat="44.77567308368557" lon="11.442298560192208"><ele>10.0</ele><time>2026-04-24T10:34:38Z</time></trkpt><trkpt lat="44.775509487904124" lon="11.442527066666504"><ele>10.0</ele><time>2026-04-24T10:34:39Z</time></trkpt><trkpt lat="44.77534991420061" lon="11.442760063582316"><ele>10.0</ele><time>2026-04-24T10:34:40Z</time></trkpt><trkpt lat="44.77519278365562" lon="11.442995174234477"><ele>10.0</ele><time>2026-04-24T10:34:41Z</time></trkpt><trkpt lat="44.775032639405524" lon="11.443228636225543"><ele>9.0</ele><time>2026-04-24T10:34:42Z</time></trkpt><trkpt lat="44.77487543034685" lon="11.443463006545194"><ele>8.0</ele><time>2026-04-24T10:34:43Z</time></trkpt><trkpt lat="44.77471482893104" lon="11.443693124257713"><ele>8.5</ele><time>2026-04-24T10:34:44Z</time></trkpt><trkpt lat="44.77455442053561" lon="11.443921648023709"><ele>9.0</ele><time>2026-04-24T10:34:45Z</time></trkpt><trkpt lat="44.774396296736214" lon="11.444148339803453"><ele>9.0</ele><time>2026-04-24T10:34:46Z</time></trkpt><trkpt lat="44.774244323295214" lon="11.444383188680266"><ele>9.0</ele><time>2026-04-24T10:34:47Z</time></trkpt><trkpt lat="44.774109942135894" lon="11.444637466934916"><ele>9.0</ele><time>2026-04-24T10:34:48Z</time></trkpt><trkpt lat="44.7740024947666" lon="11.4449190354"><ele>9.0</ele><time>2026-04-24T10:34:49Z</time></trkpt><trkpt lat="44.77391814286315" lon="11.445212086274847"><ele>9.0</ele><time>2026-04-24T10:34:50Z</time></trkpt><trkpt lat="44.77385807729403" lon="11.445519922307017"><ele>9.0</ele><time>2026-04-24T10:34:51Z</time></trkpt><trkpt lat="44.77382313116879" lon="11.445837462840613"><ele>9.0</ele><time>2026-04-24T10:34:52Z</time></trkpt><trkpt lat="44.77380149764295" lon="11.446155530648532"><ele>9.0</ele><time>2026-04-24T10:34:53Z</time></trkpt><trkpt lat="44.77378709268643" lon="11.446478539825526"><ele>9.0</ele><time>2026-04-24T10:34:54Z</time></trkpt><trkpt lat="44.77377810439607" lon="11.446802132899297"><ele>9.0</ele><time>2026-04-24T10:34:55Z</time></trkpt><trkpt lat="44.773768962031646" lon="11.447121916730442"><ele>9.0</ele><time>2026-04-24T10:34:56Z</time></trkpt><trkpt lat="44.77375673605513" lon="11.447428327192966"><ele>9.0</ele><time>2026-04-24T10:34:57Z</time></trkpt><trkpt lat="44.77374536135521" lon="11.447715318749905"><ele>9.0</ele><time>2026-04-24T10:34:58Z</time></trkpt><trkpt lat="44.77373365053858" lon="11.447985907701142"><ele>9.0</ele><time>2026-04-24T10:34:59Z</time></trkpt><trkpt lat="44.7737180350106" lon="11.448252034244094"><ele>9.0</ele><time>2026-04-24T10:35:00Z</time></trkpt><trkpt lat="44.77369878149608" lon="11.448516834492027"><ele>9.0</ele><time>2026-04-24T10:35:01Z</time></trkpt><trkpt lat="44.77367276332375" lon="11.44876840104269"><ele>9.0</ele><time>2026-04-24T10:35:02Z</time></trkpt><trkpt lat="44.77360972348951" lon="11.449037599699443"><ele>9.0</ele><time>2026-04-24T10:35:03Z</time></trkpt><trkpt lat="44.773512902860894" lon="11.449291780891267"><ele>9.0</ele><time>2026-04-24T10:35:04Z</time></trkpt><trkpt lat="44.77339070964542" lon="11.44952982507551"><ele>9.0</ele><time>2026-04-24T10:35:05Z</time></trkpt><trkpt lat="44.773240765854766" lon="11.44975389334633"><ele>9.0</ele><time>2026-04-24T10:35:06Z</time></trkpt><trkpt lat="44.77307584968203" lon="11.449968935054132"><ele>9.0</ele><time>2026-04-24T10:35:07Z</time></trkpt><trkpt lat="44.77290312671728" lon="11.450183942127264"><ele>9.0</ele><time>2026-04-24T10:35:08Z</time></trkpt><trkpt lat="44.772734614660784" lon="11.450406878700507"><ele>9.0</ele><time>2026-04-24T10:35:09Z</time></trkpt><trkpt lat="44.772567651550816" lon="11.450635358693809"><ele>9.0</ele><time>2026-04-24T10:35:10Z</time></trkpt><trkpt lat="44.77239739396779" lon="11.450867137889244"><ele>9.0</ele><time>2026-04-24T10:35:11Z</time></trkpt><trkpt lat="44.772218638044414" lon="11.451090839945342"><ele>9.0</ele><time>2026-04-24T10:35:12Z</time></trkpt><trkpt lat="44.77203197558538" lon="11.451301126963129"><ele>9.0</ele><time>2026-04-24T10:35:13Z</time></trkpt><trkpt lat="44.77184509147025" lon="11.451492346729143"><ele>9.0</ele><time>2026-04-24T10:35:14Z</time></trkpt><trkpt lat="44.77165653144323" lon="11.451674704232996"><ele>9.0</ele><time>2026-04-24T10:35:15Z</time></trkpt><trkpt lat="44.771472517518305" lon="11.451859034350509"><ele>9.0</ele><time>2026-04-24T10:35:16Z</time></trkpt><trkpt lat="44.7712903220383" lon="11.452048123705383"><ele>9.0</ele><time>2026-04-24T10:35:17Z</time></trkpt><trkpt lat="44.77110717137113" lon="11.452239948255794"><ele>9.5</ele><time>2026-04-24T10:35:18Z</time></trkpt><trkpt lat="44.770922160472445" lon="11.452432252932116"><ele>10.0</ele><time>2026-04-24T10:35:19Z</time></trkpt><trkpt lat="44.770738797490544" lon="11.45262296439513"><ele>10.0</ele><time>2026-04-24T10:35:20Z</time></trkpt><trkpt lat="44.77055522081959" lon="11.452812839784894"><ele>10.0</ele><time>2026-04-24T10:35:21Z</time></trkpt><trkpt lat="44.77037369924742" lon="11.453004982588537"><ele>10.5</ele><time>2026-04-24T10:35:22Z</time></trkpt><trkpt lat="44.77019262347004" lon="11.453199404952446"><ele>11.0</ele><time>2026-04-24T10:35:23Z</time></trkpt><trkpt lat="44.77000686901596" lon="11.453394330985548"><ele>10.0</ele><time>2026-04-24T10:35:24Z</time></trkpt><trkpt lat="44.769822466929305" lon="11.45358861534651"><ele>9.0</ele><time>2026-04-24T10:35:25Z</time></trkpt><trkpt lat="44.76963859855793" lon="11.453776821975309"><ele>9.0</ele><time>2026-04-24T10:35:26Z</time></trkpt><trkpt lat="44.769453315350894" lon="11.453970700797177"><ele>9.0</ele><time>2026-04-24T10:35:27Z</time></trkpt><trkpt lat="44.76927330438815" lon="11.454167122947759"><ele>9.0</ele><time>2026-04-24T10:35:28Z</time></trkpt><trkpt lat="44.76909927636796" lon="11.454378090037867"><ele>9.0</ele><time>2026-04-24T10:35:29Z</time></trkpt><trkpt lat="44.76893321392505" lon="11.454600857566223"><ele>8.5</ele><time>2026-04-24T10:35:30Z</time></trkpt><trkpt lat="44.768777365567594" lon="11.454834543795684"><ele>8.0</ele><time>2026-04-24T10:35:31Z</time></trkpt><trkpt lat="44.7686286979917" lon="11.455079700846367"><ele>8.0</ele><time>2026-04-24T10:35:32Z</time></trkpt><trkpt lat="44.768488310100295" lon="11.455335409361718"><ele>8.0</ele><time>2026-04-24T10:35:33Z</time></trkpt><trkpt lat="44.768360874160116" lon="11.455602800015344"><ele>8.5</ele><time>2026-04-24T10:35:34Z</time></trkpt><trkpt lat="44.76823994159215" lon="11.455873588662428"><ele>9.0</ele><time>2026-04-24T10:35:35Z</time></trkpt><trkpt lat="44.768127745917575" lon="11.456150823133237"><ele>9.5</ele><time>2026-04-24T10:35:36Z</time></trkpt><trkpt lat="44.76802688677112" lon="11.45643966814665"><ele>10.0</ele><time>2026-04-24T10:35:37Z</time></trkpt><trkpt lat="44.76793158548215" lon="11.456729501716978"><ele>10.0</ele><time>2026-04-24T10:35:38Z</time></trkpt><trkpt lat="44.767836184497945" lon="11.457020400755301"><ele>10.0</ele><time>2026-04-24T10:35:39Z</time></trkpt><trkpt lat="44.76773450153221" lon="11.457308056147356"><ele>10.5</ele><time>2026-04-24T10:35:40Z</time></trkpt><trkpt lat="44.767633272952075" lon="11.457595304904691"><ele>11.0</ele><time>2026-04-24T10:35:41Z</time></trkpt><trkpt lat="44.76753014454092" lon="11.457883826711587"><ele>10.0</ele><time>2026-04-24T10:35:42Z</time></trkpt><trkpt lat="44.767429861853664" lon="11.458173578243366"><ele>9.0</ele><time>2026-04-24T10:35:43Z</time></trkpt><trkpt lat="44.76731474120945" lon="11.458447938806547"><ele>9.0</ele><time>2026-04-24T10:35:44Z</time></trkpt><trkpt lat="44.767212417933024" lon="11.458733635378811"><ele>9.0</ele><time>2026-04-24T10:35:45Z</time></trkpt><trkpt lat="44.76710842291983" lon="11.459022630532425"><ele>9.0</ele><time>2026-04-24T10:35:46Z</time></trkpt><trkpt lat="44.76700611048158" lon="11.459308168205963"><ele>9.0</ele><time>2026-04-24T10:35:47Z</time></trkpt><trkpt lat="44.766905854065165" lon="11.45959834617064"><ele>10.0</ele><time>2026-04-24T10:35:48Z</time></trkpt><trkpt lat="44.76681475236698" lon="11.459894136017233"><ele>11.0</ele><time>2026-04-24T10:35:49Z</time></trkpt><trkpt lat="44.76673677102998" lon="11.460194302628645"><ele>10.5</ele><time>2026-04-24T10:35:50Z</time></trkpt><trkpt lat="44.76667301996922" lon="11.460501137020733"><ele>10.0</ele><time>2026-04-24T10:35:51Z</time></trkpt><trkpt lat="44.76659637402458" lon="11.460798277882553"><ele>10.0</ele><time>2026-04-24T10:35:52Z</time></trkpt><trkpt lat="44.76652016392866" lon="11.461098235541487"><ele>10.0</ele><time>2026-04-24T10:35:53Z</time></trkpt><trkpt lat="44.766445951307325" lon="11.461401430573376"><ele>9.5</ele><time>2026-04-24T10:35:54Z</time></trkpt><trkpt lat="44.76636913156279" lon="11.46170145314845"><ele>9.0</ele><time>2026-04-24T10:35:55Z</time></trkpt><trkpt lat="44.766293987299335" lon="11.462005314233732"><ele>9.0</ele><time>2026-04-24T10:35:56Z</time></trkpt><trkpt lat="44.7662190682927" lon="11.462308937607125"><ele>9.0</ele><time>2026-04-24T10:35:57Z</time></trkpt><trkpt lat="44.76614347545148" lon="11.462612316351956"><ele>9.0</ele><time>2026-04-24T10:35:58Z</time></trkpt><trkpt lat="44.766068223471386" lon="11.462915466553603"><ele>9.0</ele><time>2026-04-24T10:35:59Z</time></trkpt><trkpt lat="44.765994367349975" lon="11.463218368208127"><ele>9.0</ele><time>2026-04-24T10:36:00Z</time></trkpt><trkpt lat="44.76592086484195" lon="11.463521453914346"><ele>9.0</ele><time>2026-04-24T10:36:01Z</time></trkpt><trkpt lat="44.76584928954918" lon="11.463824613367782"><ele>9.5</ele><time>2026-04-24T10:36:02Z</time></trkpt><trkpt lat="44.76577419951536" lon="11.464129213026132"><ele>10.0</ele><time>2026-04-24T10:36:03Z</time></trkpt><trkpt lat="44.76570109162274" lon="11.464436641291911"><ele>10.0</ele><time>2026-04-24T10:36:04Z</time></trkpt><trkpt lat="44.76562674081263" lon="11.464743231624903"><ele>10.0</ele><time>2026-04-24T10:36:05Z</time></trkpt><trkpt lat="44.7655493944313" lon="11.465043491691837"><ele>10.0</ele><time>2026-04-24T10:36:06Z</time></trkpt><trkpt lat="44.765468793183594" lon="11.465341055579104"><ele>10.0</ele><time>2026-04-24T10:36:07Z</time></trkpt><trkpt lat="44.765385111920295" lon="11.465639410978454"><ele>9.5</ele><time>2026-04-24T10:36:08Z</time></trkpt><trkpt lat="44.76529972049791" lon="11.465937370928893"><ele>9.0</ele><time>2026-04-24T10:36:09Z</time></trkpt><trkpt lat="44.76522695134141" lon="11.46624458561693"><ele>8.5</ele><time>2026-04-24T10:36:10Z</time></trkpt><trkpt lat="44.76516092899639" lon="11.466552897154891"><ele>8.0</ele><time>2026-04-24T10:36:11Z</time></trkpt><trkpt lat="44.76510586351503" lon="11.466864681535974"><ele>8.0</ele><time>2026-04-24T10:36:12Z</time></trkpt><trkpt lat="44.76503237922157" lon="11.467167791097884"><ele>8.0</ele><time>2026-04-24T10:36:13Z</time></trkpt><trkpt lat="44.76497447851237" lon="11.467469243389841"><ele>8.0</ele><time>2026-04-24T10:36:14Z</time></trkpt><trkpt lat="44.765040419315035" lon="11.467797173798903"><ele>8.333333333333332</ele><time>2026-04-24T10:36:15Z</time></trkpt><trkpt lat="44.76503743941837" lon="11.468076797546546"><ele>8.666666666666666</ele><time>2026-04-24T10:36:16Z</time></trkpt><trkpt lat="44.76503533633859" lon="11.468347829263278"><ele>9.0</ele><time>2026-04-24T10:36:17Z</time></trkpt><trkpt lat="44.76503487736748" lon="11.468604369983654"><ele>9.25</ele><time>2026-04-24T10:36:18Z</time></trkpt><trkpt lat="44.76503294127325" lon="11.468841475313733"><ele>9.5</ele><time>2026-04-24T10:36:19Z</time></trkpt><trkpt lat="44.76502905532742" lon="11.469032914313377"><ele>9.75</ele><time>2026-04-24T10:36:20Z</time></trkpt><trkpt lat="44.765013223702695" lon="11.469183288781755"><ele>10.0</ele><time>2026-04-24T10:36:21Z</time></trkpt><trkpt lat="44.76497653371693" lon="11.469287456737547"><ele>10.0</ele><time>2026-04-24T10:36:22Z</time></trkpt><trkpt lat="44.76491400326954" lon="11.4693491762712"><ele>10.0</ele><time>2026-04-24T10:36:23Z</time></trkpt><trkpt lat="44.76472075319587" lon="11.46940548949147"><ele>10.0</ele><time>2026-04-24T10:36:25Z</time></trkpt><trkpt lat="44.76461955441398" lon="11.469454666754544"><ele>10.0</ele><time>2026-04-24T10:36:26Z</time></trkpt><trkpt lat="44.764557219371966" lon="11.46955985584857"><ele>10.2</ele><time>2026-04-24T10:36:27Z</time></trkpt><trkpt lat="44.76454204838869" lon="11.469692416675848"><ele>10.4</ele><time>2026-04-24T10:36:28Z</time></trkpt><trkpt lat="44.764576027354245" lon="11.469830687600636"><ele>10.600000000000001</ele><time>2026-04-24T10:36:29Z</time></trkpt><trkpt lat="44.764651205339966" lon="11.469957542367725"><ele>10.8</ele><time>2026-04-24T10:36:30Z</time></trkpt><trkpt lat="44.76474599908722" lon="11.47007252868033"><ele>11.0</ele><time>2026-04-24T10:36:31Z</time></trkpt><trkpt lat="44.76483056214532" lon="11.470213769172206"><ele>11.0</ele><time>2026-04-24T10:36:32Z</time></trkpt><trkpt lat="44.76488456464419" lon="11.470396474247073"><ele>11.0</ele><time>2026-04-24T10:36:33Z</time></trkpt><trkpt lat="44.76491329242424" lon="11.47060894836302"><ele>11.0</ele><time>2026-04-24T10:36:34Z</time></trkpt><trkpt lat="44.76491659303361" lon="11.47084197952271"><ele>10.333333333333332</ele><time>2026-04-24T10:36:35Z</time></trkpt><trkpt lat="44.76491514864118" lon="11.471091957613005"><ele>9.666666666666666</ele><time>2026-04-24T10:36:36Z</time></trkpt><trkpt lat="44.76489516716144" lon="11.471355681632392"><ele>9.0</ele><time>2026-04-24T10:36:37Z</time></trkpt><trkpt lat="44.76486784241964" lon="11.471625012324694"><ele>9.0</ele><time>2026-04-24T10:36:38Z</time></trkpt><trkpt lat="44.76483947848061" lon="11.471895350654261"><ele>9.0</ele><time>2026-04-24T10:36:39Z</time></trkpt><trkpt lat="44.76481477123362" lon="11.472175992441663"><ele>9.0</ele><time>2026-04-24T10:36:40Z</time></trkpt><trkpt lat="44.764790443404536" lon="11.472465247188007"><ele>9.0</ele><time>2026-04-24T10:36:41Z</time></trkpt><trkpt lat="44.764763103240874" lon="11.472760632626981"><ele>9.0</ele><time>2026-04-24T10:36:42Z</time></trkpt><trkpt lat="44.76473963793584" lon="11.473056527514784"><ele>9.0</ele><time>2026-04-24T10:36:43Z</time></trkpt><trkpt lat="44.76472124960191" lon="11.473356006975246"><ele>9.0</ele><time>2026-04-24T10:36:44Z</time></trkpt><trkpt lat="44.76470079739199" lon="11.473651994956557"><ele>9.0</ele><time>2026-04-24T10:36:45Z</time></trkpt><trkpt lat="44.76467810753954" lon="11.473938631103508"><ele>9.0</ele><time>2026-04-24T10:36:46Z</time></trkpt><trkpt lat="44.76465457147604" lon="11.474218263905472"><ele>9.0</ele><time>2026-04-24T10:36:47Z</time></trkpt><trkpt lat="44.764631790263486" lon="11.474484122920675"><ele>9.0</ele><time>2026-04-24T10:36:48Z</time></trkpt><trkpt lat="44.764612546272055" lon="11.474735956839917"><ele>9.0</ele><time>2026-04-24T10:36:49Z</time></trkpt><trkpt lat="44.764604146382936" lon="11.474982323041392"><ele>9.0</ele><time>2026-04-24T10:36:50Z</time></trkpt><trkpt lat="44.76461646717796" lon="11.475217464424611"><ele>9.0</ele><time>2026-04-24T10:36:51Z</time></trkpt><trkpt lat="44.76465136995945" lon="11.475445831481354"><ele>9.0</ele><time>2026-04-24T10:36:52Z</time></trkpt><trkpt lat="44.76472080700936" lon="11.47566956357831"><ele>9.333333333333334</ele><time>2026-04-24T10:36:53Z</time></trkpt><trkpt lat="44.764820819676586" lon="11.475870420353104"><ele>9.666666666666668</ele><time>2026-04-24T10:36:54Z</time></trkpt><trkpt lat="44.764948618804354" lon="11.476042916959297"><ele>10.0</ele><time>2026-04-24T10:36:55Z</time></trkpt><trkpt lat="44.76510273934658" lon="11.476181851780607"><ele>10.0</ele><time>2026-04-24T10:36:56Z</time></trkpt><trkpt lat="44.76527768016539" lon="11.476281612633183"><ele>10.0</ele><time>2026-04-24T10:36:57Z</time></trkpt><trkpt lat="44.765458848851964" lon="11.476360481236695"><ele>10.0</ele><time>2026-04-24T10:36:58Z</time></trkpt><trkpt lat="44.76564551297948" lon="11.476429211795386"><ele>10.0</ele><time>2026-04-24T10:36:59Z</time></trkpt><trkpt lat="44.76583590993711" lon="11.476502203707499"><ele>10.0</ele><time>2026-04-24T10:37:00Z</time></trkpt><trkpt lat="44.76602918685807" lon="11.476576969129948"><ele>10.0</ele><time>2026-04-24T10:37:01Z</time></trkpt><trkpt lat="44.76622256468638" lon="11.476655360719306"><ele>10.333333333333334</ele><time>2026-04-24T10:37:02Z</time></trkpt><trkpt lat="44.76641416883217" lon="11.476737340991987"><ele>10.666666666666666</ele><time>2026-04-24T10:37:03Z</time></trkpt><trkpt lat="44.76660377926132" lon="11.476817434397184"><ele>11.0</ele><time>2026-04-24T10:37:04Z</time></trkpt><trkpt lat="44.76677970241371" lon="11.476889320997978"><ele>11.0</ele><time>2026-04-24T10:37:05Z</time></trkpt><trkpt lat="44.766937914333276" lon="11.476962297293257"><ele>11.0</ele><time>2026-04-24T10:37:06Z</time></trkpt><trkpt lat="44.76707456820842" lon="11.47705728355214"><ele>11.0</ele><time>2026-04-24T10:37:07Z</time></trkpt><trkpt lat="44.767181714967506" lon="11.477154828891095"><ele>11.0</ele><time>2026-04-24T10:37:08Z</time></trkpt><trkpt lat="44.76723396405111" lon="11.477258224525222"><ele>10.833333333333332</ele><time>2026-04-24T10:37:09Z</time></trkpt><trkpt lat="44.767261273565744" lon="11.477354361325864"><ele>10.666666666666666</ele><time>2026-04-24T10:37:10Z</time></trkpt><trkpt lat="44.767263993737735" lon="11.477479387191853"><ele>10.5</ele><time>2026-04-24T10:37:11Z</time></trkpt><trkpt lat="44.76725707698726" lon="11.477625599212788"><ele>10.333333333333334</ele><time>2026-04-24T10:37:12Z</time></trkpt><trkpt lat="44.7672794968077" lon="11.477738430754695"><ele>10.166666666666668</ele><time>2026-04-24T10:37:13Z</time></trkpt><trkpt lat="44.767347563918214" lon="11.477817271876534"><ele>10.0</ele><time>2026-04-24T10:37:14Z</time></trkpt><trkpt lat="44.76743994483102" lon="11.477806891781503"><ele>10.0</ele><time>2026-04-24T10:37:15Z</time></trkpt><trkpt lat="44.76752657899293" lon="11.477737207335826"><ele>10.0</ele><time>2026-04-24T10:37:16Z</time></trkpt><trkpt lat="44.76758598203966" lon="11.477621641336476"><ele>10.0</ele><time>2026-04-24T10:37:17Z</time></trkpt><trkpt lat="44.76763444718435" lon="11.47750646064942"><ele>10.0</ele><time>2026-04-24T10:37:18Z</time></trkpt><trkpt lat="44.76770860199007" lon="11.477446795766213"><ele>10.0</ele><time>2026-04-24T10:37:19Z</time></trkpt><trkpt lat="44.767808558672584" lon="11.47742971290276"><ele>10.25</ele><time>2026-04-24T10:37:20Z</time></trkpt><trkpt lat="44.767923676757455" lon="11.477476547472653"><ele>10.5</ele><time>2026-04-24T10:37:21Z</time></trkpt><trkpt lat="44.76805388930041" lon="11.477532195854094"><ele>10.75</ele><time>2026-04-24T10:37:22Z</time></trkpt><trkpt lat="44.768194813534095" lon="11.47761484179201"><ele>11.0</ele><time>2026-04-24T10:37:23Z</time></trkpt><trkpt lat="44.76834841405819" lon="11.477704104189522"><ele>11.0</ele><time>2026-04-24T10:37:24Z</time></trkpt><trkpt lat="44.76851286196159" lon="11.477803758437647"><ele>11.0</ele><time>2026-04-24T10:37:25Z</time></trkpt><trkpt lat="44.76868754406171" lon="11.477900587311279"><ele>11.0</ele><time>2026-04-24T10:37:26Z</time></trkpt><trkpt lat="44.768859671696525" lon="11.47802620331513"><ele>10.0</ele><time>2026-04-24T10:37:27Z</time></trkpt><trkpt lat="44.76903614865516" lon="11.478155457854502"><ele>9.0</ele><time>2026-04-24T10:37:28Z</time></trkpt><trkpt lat="44.769215854710524" lon="11.47828762672359"><ele>8.0</ele><time>2026-04-24T10:37:29Z</time></trkpt><trkpt lat="44.769401987639405" lon="11.47842642820313"><ele>8.0</ele><time>2026-04-24T10:37:30Z</time></trkpt><trkpt lat="44.76958688839928" lon="11.478557700387094"><ele>8.0</ele><time>2026-04-24T10:37:31Z</time></trkpt><trkpt lat="44.76977003491942" lon="11.47868266611275"><ele>8.0</ele><time>2026-04-24T10:37:32Z</time></trkpt><trkpt lat="44.76995298001262" lon="11.478813622115572"><ele>8.0</ele><time>2026-04-24T10:37:33Z</time></trkpt><trkpt lat="44.77013962847" lon="11.478946778409517"><ele>8.0</ele><time>2026-04-24T10:37:34Z</time></trkpt><trkpt lat="44.77032813885905" lon="11.479081127217738"><ele>8.0</ele><time>2026-04-24T10:37:35Z</time></trkpt><trkpt lat="44.77051498989528" lon="11.479218030602409"><ele>7.666666666666666</ele><time>2026-04-24T10:37:36Z</time></trkpt><trkpt lat="44.77070396212248" lon="11.47935558449489"><ele>7.333333333333334</ele><time>2026-04-24T10:37:37Z</time></trkpt><trkpt lat="44.77089181316843" lon="11.479492159709983"><ele>7.0</ele><time>2026-04-24T10:37:38Z</time></trkpt><trkpt lat="44.77108141363673" lon="11.479625719845318"><ele>7.0</ele><time>2026-04-24T10:37:39Z</time></trkpt><trkpt lat="44.77127205054851" lon="11.479759048081823"><ele>7.0</ele><time>2026-04-24T10:37:40Z</time></trkpt><trkpt lat="44.77145910447182" lon="11.479893697485403"><ele>7.0</ele><time>2026-04-24T10:37:41Z</time></trkpt><trkpt lat="44.77164483181242" lon="11.480020582403748"><ele>7.0</ele><time>2026-04-24T10:37:42Z</time></trkpt><trkpt lat="44.77182344971805" lon="11.480145398095614"><ele>7.0</ele><time>2026-04-24T10:37:43Z</time></trkpt><trkpt lat="44.77199915550173" lon="11.480265757288297"><ele>7.0</ele><time>2026-04-24T10:37:44Z</time></trkpt><trkpt lat="44.77216302410539" lon="11.480384347107577"><ele>7.333333333333334</ele><time>2026-04-24T10:37:45Z</time></trkpt><trkpt lat="44.77231645554107" lon="11.480503588466382"><ele>7.666666666666666</ele><time>2026-04-24T10:37:46Z</time></trkpt><trkpt lat="44.77245517913207" lon="11.480644302115675"><ele>8.0</ele><time>2026-04-24T10:37:47Z</time></trkpt><trkpt lat="44.772602606189444" lon="11.480730527465157"><ele>8.0</ele><time>2026-04-24T10:37:48Z</time></trkpt><trkpt lat="44.772652216795755" lon="11.48103131852407"><ele>8.0</ele><time>2026-04-24T10:37:49Z</time></trkpt><trkpt lat="44.77272899098237" lon="11.481250966852135"><ele>8.0</ele><time>2026-04-24T10:37:50Z</time></trkpt><trkpt lat="44.772790941914465" lon="11.48148645548037"><ele>8.0</ele><time>2026-04-24T10:37:51Z</time></trkpt><trkpt lat="44.772831678458736" lon="11.481737680233422"><ele>8.0</ele><time>2026-04-24T10:37:52Z</time></trkpt><trkpt lat="44.77285166966372" lon="11.48199992464966"><ele>8.0</ele><time>2026-04-24T10:37:53Z</time></trkpt><trkpt lat="44.772844195327124" lon="11.482265773576563"><ele>8.0</ele><time>2026-04-24T10:37:54Z</time></trkpt><trkpt lat="44.77279773033439" lon="11.482524841568903"><ele>8.0</ele><time>2026-04-24T10:37:55Z</time></trkpt><trkpt lat="44.77272115290183" lon="11.482774502079128"><ele>8.0</ele><time>2026-04-24T10:37:56Z</time></trkpt><trkpt lat="44.77262574499038" lon="11.48302032158011"><ele>8.0</ele><time>2026-04-24T10:37:57Z</time></trkpt><trkpt lat="44.77252050778779" lon="11.483264803115626"><ele>8.0</ele><time>2026-04-24T10:37:58Z</time></trkpt><trkpt lat="44.77240847915576" lon="11.483512687441888"><ele>8.0</ele><time>2026-04-24T10:37:59Z</time></trkpt><trkpt lat="44.77229590095172" lon="11.483762141665657"><ele>8.0</ele><time>2026-04-24T10:38:00Z</time></trkpt><trkpt lat="44.77218169031652" lon="11.484015213079656"><ele>8.0</ele><time>2026-04-24T10:38:01Z</time></trkpt><trkpt lat="44.77208129924505" lon="11.484279056554922"><ele>8.0</ele><time>2026-04-24T10:38:02Z</time></trkpt><trkpt lat="44.77196037051441" lon="11.4845283723267"><ele>8.666666666666666</ele><time>2026-04-24T10:38:03Z</time></trkpt><trkpt lat="44.77184417409026" lon="11.484773048058853"><ele>9.333333333333334</ele><time>2026-04-24T10:38:04Z</time></trkpt><trkpt lat="44.77173961728752" lon="11.485007011188982"><ele>10.0</ele><time>2026-04-24T10:38:05Z</time></trkpt><trkpt lat="44.771640238432944" lon="11.485227747076145"><ele>9.333333333333334</ele><time>2026-04-24T10:38:06Z</time></trkpt><trkpt lat="44.771544961464215" lon="11.485441073126417"><ele>8.666666666666666</ele><time>2026-04-24T10:38:07Z</time></trkpt><trkpt lat="44.77146944454764" lon="11.485650865974423"><ele>8.0</ele><time>2026-04-24T10:38:08Z</time></trkpt><trkpt lat="44.77142291180864" lon="11.485852965036754"><ele>8.0</ele><time>2026-04-24T10:38:09Z</time></trkpt><trkpt lat="44.7714048754143" lon="11.486056725397964"><ele>8.0</ele><time>2026-04-24T10:38:10Z</time></trkpt><trkpt lat="44.77141759148092" lon="11.486264910416585"><ele>8.0</ele><time>2026-04-24T10:38:11Z</time></trkpt><trkpt lat="44.771463245486885" lon="11.48648400545645"><ele>8.0</ele><time>2026-04-24T10:38:12Z</time></trkpt><trkpt lat="44.77153649918285" lon="11.486701558012188"><ele>8.0</ele><time>2026-04-24T10:38:13Z</time></trkpt><trkpt lat="44.771627562647154" lon="11.486913589185171"><ele>8.0</ele><time>2026-04-24T10:38:14Z</time></trkpt><trkpt lat="44.771718969834566" lon="11.487132169079517"><ele>8.0</ele><time>2026-04-24T10:38:15Z</time></trkpt><trkpt lat="44.77180198986851" lon="11.487368320607754"><ele>8.0</ele><time>2026-04-24T10:38:16Z</time></trkpt><trkpt lat="44.77188365084691" lon="11.487611175450311"><ele>8.0</ele><time>2026-04-24T10:38:17Z</time></trkpt><trkpt lat="44.7719392569707" lon="11.487866658281431"><ele>7.666666666666666</ele><time>2026-04-24T10:38:18Z</time></trkpt><trkpt lat="44.771969682764635" lon="11.488135954332426"><ele>7.333333333333334</ele><time>2026-04-24T10:38:19Z</time></trkpt><trkpt lat="44.77197594037077" lon="11.488412907424259"><ele>7.0</ele><time>2026-04-24T10:38:20Z</time></trkpt><trkpt lat="44.77196489064019" lon="11.488697308154396"><ele>7.0</ele><time>2026-04-24T10:38:21Z</time></trkpt><trkpt lat="44.771919438442886" lon="11.488985873483418"><ele>7.0</ele><time>2026-04-24T10:38:22Z</time></trkpt><trkpt lat="44.771867501698665" lon="11.48926097933326"><ele>7.0</ele><time>2026-04-24T10:38:23Z</time></trkpt><trkpt lat="44.77178782722465" lon="11.489518944771913"><ele>7.666666666666667</ele><time>2026-04-24T10:38:24Z</time></trkpt><trkpt lat="44.7716892819536" lon="11.489762896468834"><ele>8.333333333333334</ele><time>2026-04-24T10:38:25Z</time></trkpt><trkpt lat="44.77157709119117" lon="11.489987630367551"><ele>9.0</ele><time>2026-04-24T10:38:26Z</time></trkpt><trkpt lat="44.77146535868069" lon="11.490212950657178"><ele>8.666666666666666</ele><time>2026-04-24T10:38:27Z</time></trkpt><trkpt lat="44.77135263082751" lon="11.49043550616182"><ele>8.333333333333332</ele><time>2026-04-24T10:38:28Z</time></trkpt><trkpt lat="44.77124041251234" lon="11.490657122304697"><ele>8.0</ele><time>2026-04-24T10:38:29Z</time></trkpt><trkpt lat="44.77113695982544" lon="11.490883181130476"><ele>8.0</ele><time>2026-04-24T10:38:30Z</time></trkpt><trkpt lat="44.77102624376759" lon="11.491100718654664"><ele>8.0</ele><time>2026-04-24T10:38:31Z</time></trkpt><trkpt lat="44.77091519214796" lon="11.491323183048266"><ele>8.0</ele><time>2026-04-24T10:38:32Z</time></trkpt><trkpt lat="44.77080521317965" lon="11.491547529611166"><ele>8.0</ele><time>2026-04-24T10:38:33Z</time></trkpt><trkpt lat="44.77068992816676" lon="11.491772336842999"><ele>8.0</ele><time>2026-04-24T10:38:34Z</time></trkpt><trkpt lat="44.77057329402377" lon="11.492003708824196"><ele>8.0</ele><time>2026-04-24T10:38:35Z</time></trkpt><trkpt lat="44.770455842417974" lon="11.49224767602035"><ele>8.0</ele><time>2026-04-24T10:38:36Z</time></trkpt><trkpt lat="44.77031964767522" lon="11.492481078960385"><ele>8.0</ele><time>2026-04-24T10:38:37Z</time></trkpt><trkpt lat="44.77019523115299" lon="11.492726480954868"><ele>8.0</ele><time>2026-04-24T10:38:38Z</time></trkpt><trkpt lat="44.77007048809062" lon="11.492952637883421"><ele>8.0</ele><time>2026-04-24T10:38:39Z</time></trkpt><trkpt lat="44.76993522499727" lon="11.493147101871395"><ele>8.0</ele><time>2026-04-24T10:38:40Z</time></trkpt><trkpt lat="44.76979298974113" lon="11.493316044386257"><ele>8.0</ele><time>2026-04-24T10:38:41Z</time></trkpt><trkpt lat="44.76964229975556" lon="11.493459833417583"><ele>8.0</ele><time>2026-04-24T10:38:42Z</time></trkpt><trkpt lat="44.7694866789842" lon="11.493578648271045"><ele>8.0</ele><time>2026-04-24T10:38:43Z</time></trkpt><trkpt lat="44.7693255204005" lon="11.493670856953953"><ele>8.0</ele><time>2026-04-24T10:38:44Z</time></trkpt><trkpt lat="44.769158782722144" lon="11.493741403844323"><ele>8.0</ele><time>2026-04-24T10:38:45Z</time></trkpt><trkpt lat="44.76898410167422" lon="11.493787305792315"><ele>8.0</ele><time>2026-04-24T10:38:46Z</time></trkpt><trkpt lat="44.76880690319269" lon="11.493827494646991"><ele>8.0</ele><time>2026-04-24T10:38:47Z</time></trkpt><trkpt lat="44.768628342798586" lon="11.493861689236882"><ele>8.333333333333332</ele><time>2026-04-24T10:38:48Z</time></trkpt><trkpt lat="44.768451291285395" lon="11.493903126624875"><ele>8.666666666666666</ele><time>2026-04-24T10:38:49Z</time></trkpt><trkpt lat="44.768287521627386" lon="11.493920812296478"><ele>9.0</ele><time>2026-04-24T10:38:50Z</time></trkpt><trkpt lat="44.76813744144066" lon="11.493960271621484"><ele>9.0</ele><time>2026-04-24T10:38:51Z</time></trkpt><trkpt lat="44.76800361873838" lon="11.494035148484937"><ele>9.0</ele><time>2026-04-24T10:38:52Z</time></trkpt><trkpt lat="44.76788717111813" lon="11.494139955008434"><ele>9.0</ele><time>2026-04-24T10:38:53Z</time></trkpt><trkpt lat="44.76780072281118" lon="11.494263153748117"><ele>9.0</ele><time>2026-04-24T10:38:54Z</time></trkpt><trkpt lat="44.76774210200783" lon="11.494392877035992"><ele>9.0</ele><time>2026-04-24T10:38:55Z</time></trkpt><trkpt lat="44.767695019895946" lon="11.494536673947774"><ele>9.0</ele><time>2026-04-24T10:38:56Z</time></trkpt><trkpt lat="44.76764126398472" lon="11.49469423058875"><ele>9.0</ele><time>2026-04-24T10:38:57Z</time></trkpt><trkpt lat="44.76757627199842" lon="11.494870391407089"><ele>9.0</ele><time>2026-04-24T10:38:58Z</time></trkpt><trkpt lat="44.76750423811766" lon="11.495056881716788"><ele>9.0</ele><time>2026-04-24T10:38:59Z</time></trkpt><trkpt lat="44.76742969691372" lon="11.49523879297476"><ele>9.0</ele><time>2026-04-24T10:39:00Z</time></trkpt><trkpt lat="44.7673611996344" lon="11.495396427270348"><ele>9.0</ele><time>2026-04-24T10:39:01Z</time></trkpt><trkpt lat="44.76729858213701" lon="11.49552931567407"><ele>9.0</ele><time>2026-04-24T10:39:02Z</time></trkpt><trkpt lat="44.76724722998184" lon="11.49563336301496"><ele>8.833333333333334</ele><time>2026-04-24T10:39:03Z</time></trkpt><trkpt lat="44.76720550740841" lon="11.495713370258303"><ele>8.666666666666666</ele><time>2026-04-24T10:39:04Z</time></trkpt><trkpt lat="44.76715322638826" lon="11.495796109695101"><ele>8.5</ele><time>2026-04-24T10:39:06Z</time></trkpt><trkpt lat="44.767101626558336" lon="11.495889163917067"><ele>8.333333333333332</ele><time>2026-04-24T10:39:08Z</time></trkpt><trkpt lat="44.767064914855304" lon="11.495970713191143"><ele>8.166666666666666</ele><time>2026-04-24T10:39:09Z</time></trkpt><trkpt lat="44.76702191124616" lon="11.496093696122204"><ele>8.0</ele><time>2026-04-24T10:39:10Z</time></trkpt><trkpt lat="44.76697873372813" lon="11.496241795944442"><ele>8.25</ele><time>2026-04-24T10:39:11Z</time></trkpt><trkpt lat="44.76692524644515" lon="11.49641083335057"><ele>8.5</ele><time>2026-04-24T10:39:12Z</time></trkpt><trkpt lat="44.766861651993885" lon="11.496599918521737"><ele>8.75</ele><time>2026-04-24T10:39:13Z</time></trkpt><trkpt lat="44.766774336391194" lon="11.496793104730813"><ele>9.0</ele><time>2026-04-24T10:39:14Z</time></trkpt><trkpt lat="44.76669049551313" lon="11.497008580806993"><ele>8.666666666666666</ele><time>2026-04-24T10:39:15Z</time></trkpt><trkpt lat="44.766605874789185" lon="11.497226061124401"><ele>8.333333333333332</ele><time>2026-04-24T10:39:16Z</time></trkpt><trkpt lat="44.76651824634705" lon="11.497456252491041"><ele>8.0</ele><time>2026-04-24T10:39:17Z</time></trkpt><trkpt lat="44.76642661075434" lon="11.497695517616318"><ele>7.666666666666666</ele><time>2026-04-24T10:39:18Z</time></trkpt><trkpt lat="44.76633391951379" lon="11.497937936628118"><ele>7.333333333333334</ele><time>2026-04-24T10:39:19Z</time></trkpt><trkpt lat="44.76624295949934" lon="11.498176550054618"><ele>7.0</ele><time>2026-04-24T10:39:20Z</time></trkpt><trkpt lat="44.766148861518055" lon="11.49842339523993"><ele>7.0</ele><time>2026-04-24T10:39:21Z</time></trkpt><trkpt lat="44.766066803661815" lon="11.49867874467282"><ele>7.0</ele><time>2026-04-24T10:39:22Z</time></trkpt><trkpt lat="44.76598129288925" lon="11.49890592584698"><ele>7.0</ele><time>2026-04-24T10:39:23Z</time></trkpt><trkpt lat="44.76589750175498" lon="11.49911786375751"><ele>7.0</ele><time>2026-04-24T10:39:24Z</time></trkpt><trkpt lat="44.7658287643052" lon="11.499318288918863"><ele>7.0</ele><time>2026-04-24T10:39:25Z</time></trkpt><trkpt lat="44.765762722594104" lon="11.499505143895098"><ele>7.0</ele><time>2026-04-24T10:39:26Z</time></trkpt><trkpt lat="44.76569519871668" lon="11.49968140891281"><ele>7.0</ele><time>2026-04-24T10:39:27Z</time></trkpt><trkpt lat="44.765617568461465" lon="11.499868139030893"><ele>7.0</ele><time>2026-04-24T10:39:28Z</time></trkpt><trkpt lat="44.7655380936825" lon="11.50006847205827"><ele>7.0</ele><time>2026-04-24T10:39:29Z</time></trkpt><trkpt lat="44.76545903108671" lon="11.500287553833635"><ele>7.0</ele><time>2026-04-24T10:39:30Z</time></trkpt><trkpt lat="44.765375965447774" lon="11.50051933727263"><ele>7.0</ele><time>2026-04-24T10:39:31Z</time></trkpt><trkpt lat="44.765289041796244" lon="11.500755281334131"><ele>7.0</ele><time>2026-04-24T10:39:32Z</time></trkpt><trkpt lat="44.7651992204519" lon="11.501000435501458"><ele>7.0</ele><time>2026-04-24T10:39:33Z</time></trkpt><trkpt lat="44.76510814846335" lon="11.501249741421717"><ele>7.0</ele><time>2026-04-24T10:39:34Z</time></trkpt><trkpt lat="44.765014855426124" lon="11.501503830651265"><ele>7.0</ele><time>2026-04-24T10:39:35Z</time></trkpt><trkpt lat="44.764920282245306" lon="11.501760016680148"><ele>7.0</ele><time>2026-04-24T10:39:36Z</time></trkpt><trkpt lat="44.76482441557397" lon="11.502015790393017"><ele>7.0</ele><time>2026-04-24T10:39:37Z</time></trkpt><trkpt lat="44.76472838886686" lon="11.502273690491348"><ele>7.0</ele><time>2026-04-24T10:39:38Z</time></trkpt><trkpt lat="44.764633609062884" lon="11.50253760010227"><ele>7.0</ele><time>2026-04-24T10:39:39Z</time></trkpt><trkpt lat="44.764540502850586" lon="11.502800561211474"><ele>7.0</ele><time>2026-04-24T10:39:40Z</time></trkpt><trkpt lat="44.76444569224322" lon="11.503061845827752"><ele>7.0</ele><time>2026-04-24T10:39:41Z</time></trkpt><trkpt lat="44.76435250789945" lon="11.503321496623352"><ele>7.0</ele><time>2026-04-24T10:39:42Z</time></trkpt><trkpt lat="44.76425603762632" lon="11.503589217073618"><ele>7.0</ele><time>2026-04-24T10:39:43Z</time></trkpt><trkpt lat="44.764159791995745" lon="11.503854153875217"><ele>7.0</ele><time>2026-04-24T10:39:44Z</time></trkpt><trkpt lat="44.764061354282084" lon="11.50412330009725"><ele>7.0</ele><time>2026-04-24T10:39:45Z</time></trkpt><trkpt lat="44.76395977494571" lon="11.504397284693189"><ele>6.666666666666667</ele><time>2026-04-24T10:39:46Z</time></trkpt><trkpt lat="44.76385916349499" lon="11.504672020262579"><ele>6.333333333333334</ele><time>2026-04-24T10:39:47Z</time></trkpt><trkpt lat="44.76376013232615" lon="11.504946353296738"><ele>6.0</ele><time>2026-04-24T10:39:48Z</time></trkpt><trkpt lat="44.76366138920557" lon="11.50522126680666"><ele>6.333333333333334</ele><time>2026-04-24T10:39:49Z</time></trkpt><trkpt lat="44.76356067146829" lon="11.505490864589094"><ele>6.666666666666667</ele><time>2026-04-24T10:39:50Z</time></trkpt><trkpt lat="44.7634590136805" lon="11.505759268393184"><ele>7.0</ele><time>2026-04-24T10:39:51Z</time></trkpt><trkpt lat="44.76335555365894" lon="11.50602872133241"><ele>6.666666666666667</ele><time>2026-04-24T10:39:52Z</time></trkpt><trkpt lat="44.763250907728946" lon="11.506300487734352"><ele>6.333333333333334</ele><time>2026-04-24T10:39:53Z</time></trkpt><trkpt lat="44.763150833696216" lon="11.506572104235657"><ele>6.0</ele><time>2026-04-24T10:39:54Z</time></trkpt><trkpt lat="44.763054196961065" lon="11.506840304677395"><ele>6.333333333333334</ele><time>2026-04-24T10:39:55Z</time></trkpt><trkpt lat="44.76295710205894" lon="11.507113936609246"><ele>6.666666666666667</ele><time>2026-04-24T10:39:56Z</time></trkpt><trkpt lat="44.7628617751087" lon="11.507389036939413"><ele>7.0</ele><time>2026-04-24T10:39:57Z</time></trkpt><trkpt lat="44.76276533174975" lon="11.507664368967157"><ele>7.0</ele><time>2026-04-24T10:39:58Z</time></trkpt><trkpt lat="44.76266614501296" lon="11.507937381089116"><ele>7.0</ele><time>2026-04-24T10:39:59Z</time></trkpt><trkpt lat="44.76256239167684" lon="11.508209299458748"><ele>7.0</ele><time>2026-04-24T10:40:00Z</time></trkpt><trkpt lat="44.762460040030945" lon="11.508481827101066"><ele>7.0</ele><time>2026-04-24T10:40:01Z</time></trkpt><trkpt lat="44.76236313535988" lon="11.508754718207875"><ele>7.0</ele><time>2026-04-24T10:40:02Z</time></trkpt><trkpt lat="44.762263339518185" lon="11.509027217898987"><ele>7.0</ele><time>2026-04-24T10:40:03Z</time></trkpt><trkpt lat="44.76216268929591" lon="11.509299080917867"><ele>7.0</ele><time>2026-04-24T10:40:04Z</time></trkpt><trkpt lat="44.762061815979685" lon="11.509569006001712"><ele>7.0</ele><time>2026-04-24T10:40:05Z</time></trkpt><trkpt lat="44.76195969724836" lon="11.509838294993884"><ele>7.0</ele><time>2026-04-24T10:40:06Z</time></trkpt><trkpt lat="44.76186298928814" lon="11.51010580543583"><ele>6.333333333333334</ele><time>2026-04-24T10:40:07Z</time></trkpt><trkpt lat="44.76176685941057" lon="11.510374973844268"><ele>5.666666666666667</ele><time>2026-04-24T10:40:08Z</time></trkpt><trkpt lat="44.76166961718624" lon="11.510643600335717"><ele>5.0</ele><time>2026-04-24T10:40:09Z</time></trkpt><trkpt lat="44.7615711899767" lon="11.51091719521196"><ele>4.666666666666667</ele><time>2026-04-24T10:40:10Z</time></trkpt><trkpt lat="44.76147091365125" lon="11.51119072980106"><ele>4.333333333333333</ele><time>2026-04-24T10:40:11Z</time></trkpt><trkpt lat="44.761369270067604" lon="11.51146268861492"><ele>4.0</ele><time>2026-04-24T10:40:12Z</time></trkpt><trkpt lat="44.761268614449904" lon="11.511735636110394"><ele>4.0</ele><time>2026-04-24T10:40:13Z</time></trkpt><trkpt lat="44.76116840953322" lon="11.512005617154822"><ele>4.0</ele><time>2026-04-24T10:40:14Z</time></trkpt><trkpt lat="44.76106919058956" lon="11.512276587848344"><ele>4.0</ele><time>2026-04-24T10:40:15Z</time></trkpt><trkpt lat="44.76096957049942" lon="11.512548779129794"><ele>4.666666666666666</ele><time>2026-04-24T10:40:16Z</time></trkpt><trkpt lat="44.760867275258754" lon="11.51282023549276"><ele>5.333333333333333</ele><time>2026-04-24T10:40:17Z</time></trkpt><trkpt lat="44.76076428880014" lon="11.513090359754024"><ele>6.0</ele><time>2026-04-24T10:40:18Z</time></trkpt><trkpt lat="44.76066278329265" lon="11.513358046450447"><ele>6.0</ele><time>2026-04-24T10:40:19Z</time></trkpt><trkpt lat="44.76056336280845" lon="11.513627518529598"><ele>6.0</ele><time>2026-04-24T10:40:20Z</time></trkpt><trkpt lat="44.76046395315941" lon="11.513897772595262"><ele>6.0</ele><time>2026-04-24T10:40:21Z</time></trkpt><trkpt lat="44.76036747724991" lon="11.514172181364602"><ele>6.333333333333334</ele><time>2026-04-24T10:40:22Z</time></trkpt><trkpt lat="44.76026806207463" lon="11.514443091321281"><ele>6.666666666666667</ele><time>2026-04-24T10:40:23Z</time></trkpt><trkpt lat="44.76016567418798" lon="11.514716465884868"><ele>7.0</ele><time>2026-04-24T10:40:24Z</time></trkpt><trkpt lat="44.76006207720728" lon="11.514985801404599"><ele>7.0</ele><time>2026-04-24T10:40:25Z</time></trkpt><trkpt lat="44.759959496083084" lon="11.515256229211785"><ele>7.0</ele><time>2026-04-24T10:40:26Z</time></trkpt><trkpt lat="44.759860463220114" lon="11.515527750291335"><ele>7.0</ele><time>2026-04-24T10:40:27Z</time></trkpt><trkpt lat="44.759758893290574" lon="11.515801820070521"><ele>7.0</ele><time>2026-04-24T10:40:28Z</time></trkpt><trkpt lat="44.75965855313892" lon="11.516071573043416"><ele>7.0</ele><time>2026-04-24T10:40:29Z</time></trkpt><trkpt lat="44.759557946994285" lon="11.516343313158867"><ele>7.0</ele><time>2026-04-24T10:40:30Z</time></trkpt><trkpt lat="44.7594595719847" lon="11.516614580144727"><ele>7.0</ele><time>2026-04-24T10:40:31Z</time></trkpt><trkpt lat="44.75936018007366" lon="11.516886345375296"><ele>7.0</ele><time>2026-04-24T10:40:32Z</time></trkpt><trkpt lat="44.75926257432174" lon="11.517154772744842"><ele>7.0</ele><time>2026-04-24T10:40:33Z</time></trkpt><trkpt lat="44.759165417009235" lon="11.517422444328913"><ele>6.666666666666667</ele><time>2026-04-24T10:40:34Z</time></trkpt><trkpt lat="44.75906890452487" lon="11.51768833372682"><ele>6.333333333333334</ele><time>2026-04-24T10:40:35Z</time></trkpt><trkpt lat="44.75896854719069" lon="11.517957341874695"><ele>6.0</ele><time>2026-04-24T10:40:36Z</time></trkpt><trkpt lat="44.758868337121726" lon="11.518228120352251"><ele>6.0</ele><time>2026-04-24T10:40:37Z</time></trkpt><trkpt lat="44.75876915703793" lon="11.518500875467586"><ele>6.0</ele><time>2026-04-24T10:40:38Z</time></trkpt><trkpt lat="44.75866895493462" lon="11.518776456890468"><ele>6.0</ele><time>2026-04-24T10:40:39Z</time></trkpt><trkpt lat="44.75856496240318" lon="11.519050010891815"><ele>5.666666666666667</ele><time>2026-04-24T10:40:40Z</time></trkpt><trkpt lat="44.75846257208643" lon="11.519323301715373"><ele>5.333333333333334</ele><time>2026-04-24T10:40:41Z</time></trkpt><trkpt lat="44.75836138932098" lon="11.519593598376083"><ele>5.0</ele><time>2026-04-24T10:40:42Z</time></trkpt><trkpt lat="44.75826420615051" lon="11.519862084978776"><ele>6.0</ele><time>2026-04-24T10:40:43Z</time></trkpt><trkpt lat="44.7581674394863" lon="11.520132227894328"><ele>7.0</ele><time>2026-04-24T10:40:44Z</time></trkpt><trkpt lat="44.75806927147793" lon="11.520404702320471"><ele>8.0</ele><time>2026-04-24T10:40:45Z</time></trkpt><trkpt lat="44.75797022310869" lon="11.520677139243002"><ele>8.0</ele><time>2026-04-24T10:40:46Z</time></trkpt><trkpt lat="44.75787035099843" lon="11.520948249718549"><ele>8.0</ele><time>2026-04-24T10:40:47Z</time></trkpt><trkpt lat="44.75777180868432" lon="11.52122266379233"><ele>8.0</ele><time>2026-04-24T10:40:48Z</time></trkpt><trkpt lat="44.75767811342984" lon="11.521495654205424"><ele>7.666666666666666</ele><time>2026-04-24T10:40:49Z</time></trkpt><trkpt lat="44.75758471497888" lon="11.521770135008566"><ele>7.333333333333334</ele><time>2026-04-24T10:40:50Z</time></trkpt><trkpt lat="44.757488377794466" lon="11.522041818616316"><ele>7.0</ele><time>2026-04-24T10:40:51Z</time></trkpt><trkpt lat="44.75738689545457" lon="11.522314700847236"><ele>7.0</ele><time>2026-04-24T10:40:52Z</time></trkpt><trkpt lat="44.757282563280015" lon="11.52258534140402"><ele>7.0</ele><time>2026-04-24T10:40:53Z</time></trkpt><trkpt lat="44.75717404599278" lon="11.522853622627133"><ele>7.0</ele><time>2026-04-24T10:40:54Z</time></trkpt><trkpt lat="44.75706817665461" lon="11.523120926898233"><ele>6.666666666666667</ele><time>2026-04-24T10:40:55Z</time></trkpt><trkpt lat="44.75696448551057" lon="11.523388566479822"><ele>6.333333333333334</ele><time>2026-04-24T10:40:56Z</time></trkpt><trkpt lat="44.756862565490685" lon="11.523656830471305"><ele>6.0</ele><time>2026-04-24T10:40:57Z</time></trkpt><trkpt lat="44.756761568013324" lon="11.523927669134297"><ele>5.333333333333333</ele><time>2026-04-24T10:40:58Z</time></trkpt><trkpt lat="44.756661403432574" lon="11.524195787418789"><ele>4.666666666666666</ele><time>2026-04-24T10:40:59Z</time></trkpt><trkpt lat="44.75656037233406" lon="11.524466485757547"><ele>4.0</ele><time>2026-04-24T10:41:00Z</time></trkpt><trkpt lat="44.756460031186556" lon="11.524734108353632"><ele>3.6666666666666665</ele><time>2026-04-24T10:41:01Z</time></trkpt><trkpt lat="44.75635996865477" lon="11.525001511433377"><ele>3.333333333333333</ele><time>2026-04-24T10:41:02Z</time></trkpt><trkpt lat="44.75625907730977" lon="11.525275525801387"><ele>3.0</ele><time>2026-04-24T10:41:03Z</time></trkpt><trkpt lat="44.75615998124643" lon="11.525549440988849"><ele>3.0</ele><time>2026-04-24T10:41:04Z</time></trkpt><trkpt lat="44.75606345721272" lon="11.525821855710792"><ele>3.0</ele><time>2026-04-24T10:41:05Z</time></trkpt><trkpt lat="44.75596616416285" lon="11.526096271981626"><ele>3.0</ele><time>2026-04-24T10:41:06Z</time></trkpt><trkpt lat="44.75588019004856" lon="11.52637989067793"><ele>3.666666666666667</ele><time>2026-04-24T10:41:07Z</time></trkpt><trkpt lat="44.755811591158334" lon="11.526670899008083"><ele>4.333333333333334</ele><time>2026-04-24T10:41:08Z</time></trkpt><trkpt lat="44.75577227947571" lon="11.526968063088768"><ele>5.0</ele><time>2026-04-24T10:41:09Z</time></trkpt><trkpt lat="44.75576163870869" lon="11.527271538592776"><ele>5.0</ele><time>2026-04-24T10:41:10Z</time></trkpt><trkpt lat="44.755776425717464" lon="11.527573202119134"><ele>5.0</ele><time>2026-04-24T10:41:11Z</time></trkpt><trkpt lat="44.755809696556206" lon="11.527873728861138"><ele>5.0</ele><time>2026-04-24T10:41:12Z</time></trkpt><trkpt lat="44.755850640140835" lon="11.528173265098006"><ele>5.0</ele><time>2026-04-24T10:41:13Z</time></trkpt><trkpt lat="44.75588976545277" lon="11.52847782875901"><ele>5.0</ele><time>2026-04-24T10:41:14Z</time></trkpt><trkpt lat="44.75592378481593" lon="11.528781940006194"><ele>5.0</ele><time>2026-04-24T10:41:15Z</time></trkpt><trkpt lat="44.755957503113" lon="11.529085724363545"><ele>5.0</ele><time>2026-04-24T10:41:16Z</time></trkpt><trkpt lat="44.755988262607026" lon="11.529386222319086"><ele>5.0</ele><time>2026-04-24T10:41:17Z</time></trkpt><trkpt lat="44.756015806308845" lon="11.52968847304877"><ele>5.0</ele><time>2026-04-24T10:41:18Z</time></trkpt><trkpt lat="44.75603329719181" lon="11.529992195841547"><ele>5.333333333333334</ele><time>2026-04-24T10:41:19Z</time></trkpt><trkpt lat="44.756031937691134" lon="11.530298164460108"><ele>5.666666666666667</ele><time>2026-04-24T10:41:20Z</time></trkpt><trkpt lat="44.75602907947211" lon="11.530597442355303"><ele>6.0</ele><time>2026-04-24T10:41:21Z</time></trkpt><trkpt lat="44.75598366501326" lon="11.530895130410364"><ele>6.333333333333334</ele><time>2026-04-24T10:41:22Z</time></trkpt><trkpt lat="44.75594253301809" lon="11.53119228019644"><ele>6.666666666666667</ele><time>2026-04-24T10:41:23Z</time></trkpt><trkpt lat="44.755903057441614" lon="11.531488309523859"><ele>7.0</ele><time>2026-04-24T10:41:24Z</time></trkpt><trkpt lat="44.75586620649295" lon="11.531786338358543"><ele>7.666666666666667</ele><time>2026-04-24T10:41:25Z</time></trkpt><trkpt lat="44.75582970837522" lon="11.532080174996773"><ele>8.333333333333334</ele><time>2026-04-24T10:41:26Z</time></trkpt><trkpt lat="44.75578744186577" lon="11.532345158697073"><ele>9.0</ele><time>2026-04-24T10:41:27Z</time></trkpt><trkpt lat="44.75569560276724" lon="11.53256501175633"><ele>9.0</ele><time>2026-04-24T10:41:28Z</time></trkpt><trkpt lat="44.755624621658534" lon="11.532779397059919"><ele>9.0</ele><time>2026-04-24T10:41:29Z</time></trkpt><trkpt lat="44.75555524488917" lon="11.532982027707833"><ele>9.0</ele><time>2026-04-24T10:41:30Z</time></trkpt><trkpt lat="44.755495251286334" lon="11.533175625262233"><ele>8.5</ele><time>2026-04-24T10:41:31Z</time></trkpt><trkpt lat="44.75546529268846" lon="11.533378214309431"><ele>8.0</ele><time>2026-04-24T10:41:32Z</time></trkpt><trkpt lat="44.75543219075419" lon="11.533577223210898"><ele>7.5</ele><time>2026-04-24T10:41:33Z</time></trkpt><trkpt lat="44.75543192183059" lon="11.533792106627482"><ele>7.0</ele><time>2026-04-24T10:41:34Z</time></trkpt><trkpt lat="44.7554612560287" lon="11.534022843539221"><ele>6.666666666666667</ele><time>2026-04-24T10:41:35Z</time></trkpt><trkpt lat="44.75550806765243" lon="11.534270445349819"><ele>6.333333333333334</ele><time>2026-04-24T10:41:36Z</time></trkpt><trkpt lat="44.75556263803633" lon="11.534538650843603"><ele>6.0</ele><time>2026-04-24T10:41:37Z</time></trkpt><trkpt lat="44.75561783661565" lon="11.534818784164232"><ele>6.0</ele><time>2026-04-24T10:41:38Z</time></trkpt><trkpt lat="44.75567369444546" lon="11.535115338019482"><ele>6.0</ele><time>2026-04-24T10:41:39Z</time></trkpt><trkpt lat="44.755732990569726" lon="11.53541670442529"><ele>6.0</ele><time>2026-04-24T10:41:40Z</time></trkpt><trkpt lat="44.755786074210064" lon="11.535709751355833"><ele>6.0</ele><time>2026-04-24T10:41:41Z</time></trkpt><trkpt lat="44.75583614833017" lon="11.536004318630994"><ele>6.0</ele><time>2026-04-24T10:41:42Z</time></trkpt><trkpt lat="44.75589061410272" lon="11.53629945009249"><ele>6.0</ele><time>2026-04-24T10:41:43Z</time></trkpt><trkpt lat="44.755948417446575" lon="11.536593456473815"><ele>6.0</ele><time>2026-04-24T10:41:44Z</time></trkpt><trkpt lat="44.75600474717829" lon="11.536887957136534"><ele>6.0</ele><time>2026-04-24T10:41:45Z</time></trkpt><trkpt lat="44.75605852528933" lon="11.537185584963352"><ele>6.0</ele><time>2026-04-24T10:41:46Z</time></trkpt><trkpt lat="44.7561139554446" lon="11.537484569315076"><ele>6.0</ele><time>2026-04-24T10:41:47Z</time></trkpt><trkpt lat="44.75616927538077" lon="11.537781234263823"><ele>6.0</ele><time>2026-04-24T10:41:48Z</time></trkpt><trkpt lat="44.756231223122455" lon="11.538070703599383"><ele>6.0</ele><time>2026-04-24T10:41:49Z</time></trkpt><trkpt lat="44.756308821117884" lon="11.538355789703466"><ele>5.666666666666667</ele><time>2026-04-24T10:41:50Z</time></trkpt><trkpt lat="44.7564006898712" lon="11.538630795620218"><ele>5.333333333333334</ele><time>2026-04-24T10:41:51Z</time></trkpt><trkpt lat="44.7565002295637" lon="11.538897602278752"><ele>5.0</ele><time>2026-04-24T10:41:52Z</time></trkpt><trkpt lat="44.756606737445374" lon="11.539164729848064"><ele>5.0</ele><time>2026-04-24T10:41:53Z</time></trkpt><trkpt lat="44.75671714058286" lon="11.539430747905854"><ele>5.0</ele><time>2026-04-24T10:41:54Z</time></trkpt><trkpt lat="44.75682886475548" lon="11.539693831617301"><ele>5.0</ele><time>2026-04-24T10:41:55Z</time></trkpt><trkpt lat="44.75693478634794" lon="11.53996160434221"><ele>4.666666666666667</ele><time>2026-04-24T10:41:56Z</time></trkpt><trkpt lat="44.757039328807146" lon="11.540227512514013"><ele>4.333333333333333</ele><time>2026-04-24T10:41:57Z</time></trkpt><trkpt lat="44.75714651024289" lon="11.540493056685465"><ele>4.0</ele><time>2026-04-24T10:41:58Z</time></trkpt><trkpt lat="44.757254098999994" lon="11.540760367775196"><ele>4.0</ele><time>2026-04-24T10:41:59Z</time></trkpt><trkpt lat="44.75736117975882" lon="11.541024519504784"><ele>4.0</ele><time>2026-04-24T10:42:00Z</time></trkpt><trkpt lat="44.75746862299872" lon="11.541290086997503"><ele>4.0</ele><time>2026-04-24T10:42:01Z</time></trkpt><trkpt lat="44.757572233548615" lon="11.541557359688241"><ele>3.6666666666666665</ele><time>2026-04-24T10:42:02Z</time></trkpt><trkpt lat="44.7576731324057" lon="11.54182508526523"><ele>3.333333333333333</ele><time>2026-04-24T10:42:03Z</time></trkpt><trkpt lat="44.75777529953748" lon="11.542094747435124"><ele>3.0</ele><time>2026-04-24T10:42:04Z</time></trkpt><trkpt lat="44.75787399243138" lon="11.542366816762739"><ele>3.666666666666667</ele><time>2026-04-24T10:42:05Z</time></trkpt><trkpt lat="44.757958227533194" lon="11.542650632735358"><ele>4.333333333333334</ele><time>2026-04-24T10:42:06Z</time></trkpt><trkpt lat="44.758002892645685" lon="11.542949978211078"><ele>5.0</ele><time>2026-04-24T10:42:07Z</time></trkpt><trkpt lat="44.7580451748477" lon="11.543247321627879"><ele>5.0</ele><time>2026-04-24T10:42:08Z</time></trkpt><trkpt lat="44.758071907089715" lon="11.543545313075018"><ele>5.0</ele><time>2026-04-24T10:42:09Z</time></trkpt><trkpt lat="44.75807269623087" lon="11.543844313759628"><ele>5.0</ele><time>2026-04-24T10:42:10Z</time></trkpt><trkpt lat="44.75805868249723" lon="11.544147414052599"><ele>5.0</ele><time>2026-04-24T10:42:11Z</time></trkpt><trkpt lat="44.75802825689862" lon="11.544447463651375"><ele>5.0</ele><time>2026-04-24T10:42:12Z</time></trkpt><trkpt lat="44.75797944616296" lon="11.544745143023361"><ele>5.0</ele><time>2026-04-24T10:42:13Z</time></trkpt><trkpt lat="44.75790835108989" lon="11.545030801133144"><ele>5.0</ele><time>2026-04-24T10:42:14Z</time></trkpt><trkpt lat="44.75782386721018" lon="11.545305149842195"><ele>5.0</ele><time>2026-04-24T10:42:15Z</time></trkpt><trkpt lat="44.757720344082955" lon="11.545570271041774"><ele>5.0</ele><time>2026-04-24T10:42:16Z</time></trkpt><trkpt lat="44.75760247954791" lon="11.545826517269992"><ele>5.0</ele><time>2026-04-24T10:42:17Z</time></trkpt><trkpt lat="44.757470987847526" lon="11.546073459315357"><ele>5.0</ele><time>2026-04-24T10:42:18Z</time></trkpt><trkpt lat="44.75732445700802" lon="11.54629827704707"><ele>5.0</ele><time>2026-04-24T10:42:19Z</time></trkpt><trkpt lat="44.75716455971964" lon="11.546506134705933"><ele>5.0</ele><time>2026-04-24T10:42:20Z</time></trkpt><trkpt lat="44.7569921213098" lon="11.54669726185913"><ele>5.0</ele><time>2026-04-24T10:42:21Z</time></trkpt><trkpt lat="44.75682715981875" lon="11.546903454049199"><ele>5.0</ele><time>2026-04-24T10:42:22Z</time></trkpt><trkpt lat="44.75664991360224" lon="11.547082798283332"><ele>5.0</ele><time>2026-04-24T10:42:23Z</time></trkpt><trkpt lat="44.75647204996006" lon="11.54726230035703"><ele>5.0</ele><time>2026-04-24T10:42:24Z</time></trkpt><trkpt lat="44.756294110339645" lon="11.547439668568234"><ele>5.0</ele><time>2026-04-24T10:42:25Z</time></trkpt><trkpt lat="44.756112378011544" lon="11.54760963150466"><ele>5.0</ele><time>2026-04-24T10:42:26Z</time></trkpt><trkpt lat="44.755933824991104" lon="11.547787333807603"><ele>5.0</ele><time>2026-04-24T10:42:27Z</time></trkpt><trkpt lat="44.75575819993799" lon="11.547965460022882"><ele>5.0</ele><time>2026-04-24T10:42:28Z</time></trkpt><trkpt lat="44.755585027934444" lon="11.548145441859488"><ele>5.333333333333334</ele><time>2026-04-24T10:42:29Z</time></trkpt><trkpt lat="44.755411901965154" lon="11.54832405839308"><ele>5.666666666666667</ele><time>2026-04-24T10:42:30Z</time></trkpt><trkpt lat="44.75523585205542" lon="11.548501146886892"><ele>6.0</ele><time>2026-04-24T10:42:31Z</time></trkpt><trkpt lat="44.75506088788689" lon="11.548679487292656"><ele>5.666666666666667</ele><time>2026-04-24T10:42:32Z</time></trkpt><trkpt lat="44.75488562109269" lon="11.548859285305015"><ele>5.333333333333334</ele><time>2026-04-24T10:42:33Z</time></trkpt><trkpt lat="44.75471447792386" lon="11.549038515559278"><ele>5.0</ele><time>2026-04-24T10:42:34Z</time></trkpt><trkpt lat="44.75453770106238" lon="11.549217109494398"><ele>4.666666666666667</ele><time>2026-04-24T10:42:35Z</time></trkpt><trkpt lat="44.75435949911035" lon="11.549399000936068"><ele>4.333333333333333</ele><time>2026-04-24T10:42:36Z</time></trkpt><trkpt lat="44.75418331449084" lon="11.549577409890892"><ele>4.0</ele><time>2026-04-24T10:42:37Z</time></trkpt><trkpt lat="44.75400937484881" lon="11.54975687522696"><ele>4.0</ele><time>2026-04-24T10:42:38Z</time></trkpt><trkpt lat="44.75383500381863" lon="11.549936564228483"><ele>4.0</ele><time>2026-04-24T10:42:39Z</time></trkpt><trkpt lat="44.75366119219655" lon="11.550117923012113"><ele>4.0</ele><time>2026-04-24T10:42:40Z</time></trkpt><trkpt lat="44.75348537738791" lon="11.550297621983793"><ele>4.0</ele><time>2026-04-24T10:42:41Z</time></trkpt><trkpt lat="44.753308893278884" lon="11.550475281281818"><ele>4.0</ele><time>2026-04-24T10:42:42Z</time></trkpt><trkpt lat="44.753132658999924" lon="11.550651799794943"><ele>4.0</ele><time>2026-04-24T10:42:43Z</time></trkpt><trkpt lat="44.75295437702216" lon="11.550830021038669"><ele>4.0</ele><time>2026-04-24T10:42:44Z</time></trkpt><trkpt lat="44.75277664397399" lon="11.551011893901567"><ele>4.0</ele><time>2026-04-24T10:42:45Z</time></trkpt><trkpt lat="44.75260088794948" lon="11.551193357073814"><ele>4.0</ele><time>2026-04-24T10:42:46Z</time></trkpt><trkpt lat="44.75242357102527" lon="11.551372886949551"><ele>4.0</ele><time>2026-04-24T10:42:47Z</time></trkpt><trkpt lat="44.7522446215603" lon="11.551555745828706"><ele>4.0</ele><time>2026-04-24T10:42:48Z</time></trkpt><trkpt lat="44.75206412890474" lon="11.55173515301305"><ele>4.0</ele><time>2026-04-24T10:42:49Z</time></trkpt><trkpt lat="44.751884793088365" lon="11.551921817999899"><ele>4.0</ele><time>2026-04-24T10:42:50Z</time></trkpt><trkpt lat="44.751706673848545" lon="11.55210610394289"><ele>4.0</ele><time>2026-04-24T10:42:51Z</time></trkpt><trkpt lat="44.75152789421584" lon="11.552288177122946"><ele>4.0</ele><time>2026-04-24T10:42:52Z</time></trkpt><trkpt lat="44.75134836177847" lon="11.552472145251624"><ele>4.0</ele><time>2026-04-24T10:42:53Z</time></trkpt><trkpt lat="44.75117051047546" lon="11.5526535724718"><ele>4.0</ele><time>2026-04-24T10:42:54Z</time></trkpt><trkpt lat="44.7509924645512" lon="11.552835571819386"><ele>4.0</ele><time>2026-04-24T10:42:55Z</time></trkpt><trkpt lat="44.75081284715034" lon="11.553019878200788"><ele>4.666666666666666</ele><time>2026-04-24T10:42:56Z</time></trkpt><trkpt lat="44.750632009571554" lon="11.553202195501463"><ele>5.333333333333333</ele><time>2026-04-24T10:42:57Z</time></trkpt><trkpt lat="44.75045305222867" lon="11.553386815963654"><ele>6.0</ele><time>2026-04-24T10:42:58Z</time></trkpt><trkpt lat="44.75027407309018" lon="11.553575487187578"><ele>5.666666666666667</ele><time>2026-04-24T10:42:59Z</time></trkpt><trkpt lat="44.75009296398164" lon="11.553761340333443"><ele>5.333333333333334</ele><time>2026-04-24T10:43:00Z</time></trkpt><trkpt lat="44.749912605017876" lon="11.553944509480603"><ele>5.0</ele><time>2026-04-24T10:43:01Z</time></trkpt><trkpt lat="44.74973021958646" lon="11.5541264224545"><ele>5.0</ele><time>2026-04-24T10:43:02Z</time></trkpt><trkpt lat="44.749550314367454" lon="11.554303514010792"><ele>5.0</ele><time>2026-04-24T10:43:03Z</time></trkpt><trkpt lat="44.74937218283497" lon="11.554484684057458"><ele>5.0</ele><time>2026-04-24T10:43:04Z</time></trkpt><trkpt lat="44.74919552841744" lon="11.554666262834433"><ele>4.0</ele><time>2026-04-24T10:43:05Z</time></trkpt><trkpt lat="44.74901565814965" lon="11.554849957997176"><ele>3.0</ele><time>2026-04-24T10:43:06Z</time></trkpt><trkpt lat="44.748833656197135" lon="11.55503504727724"><ele>2.0</ele><time>2026-04-24T10:43:07Z</time></trkpt><trkpt lat="44.748655188518434" lon="11.555219359100693"><ele>2.6666666666666665</ele><time>2026-04-24T10:43:08Z</time></trkpt><trkpt lat="44.748475168036954" lon="11.555409218736278"><ele>3.333333333333333</ele><time>2026-04-24T10:43:09Z</time></trkpt><trkpt lat="44.74829412032313" lon="11.555591033907389"><ele>4.0</ele><time>2026-04-24T10:43:10Z</time></trkpt><trkpt lat="44.74811205215788" lon="11.555773708222587"><ele>4.0</ele><time>2026-04-24T10:43:11Z</time></trkpt><trkpt lat="44.74793056969199" lon="11.555957293267552"><ele>4.0</ele><time>2026-04-24T10:43:12Z</time></trkpt><trkpt lat="44.74774879038816" lon="11.556144171371926"><ele>4.0</ele><time>2026-04-24T10:43:13Z</time></trkpt><trkpt lat="44.74756881073078" lon="11.556329475181752"><ele>3.6666666666666665</ele><time>2026-04-24T10:43:14Z</time></trkpt><trkpt lat="44.74739233645513" lon="11.556512706997674"><ele>3.333333333333333</ele><time>2026-04-24T10:43:15Z</time></trkpt><trkpt lat="44.747213472374575" lon="11.556694000898233"><ele>3.0</ele><time>2026-04-24T10:43:16Z</time></trkpt><trkpt lat="44.747034875456755" lon="11.556878232630321"><ele>3.333333333333333</ele><time>2026-04-24T10:43:17Z</time></trkpt><trkpt lat="44.74685669854884" lon="11.557062511240785"><ele>3.6666666666666665</ele><time>2026-04-24T10:43:18Z</time></trkpt><trkpt lat="44.74667657234239" lon="11.557247170817059"><ele>4.0</ele><time>2026-04-24T10:43:19Z</time></trkpt><trkpt lat="44.746496663522635" lon="11.55743337961845"><ele>4.0</ele><time>2026-04-24T10:43:20Z</time></trkpt><trkpt lat="44.74631721611487" lon="11.55761691326109"><ele>4.0</ele><time>2026-04-24T10:43:21Z</time></trkpt><trkpt lat="44.74613985033074" lon="11.5577996609879"><ele>4.0</ele><time>2026-04-24T10:43:22Z</time></trkpt><trkpt lat="44.745962068426046" lon="11.557982824264641"><ele>5.666666666666666</ele><time>2026-04-24T10:43:23Z</time></trkpt><trkpt lat="44.74578585199037" lon="11.558167358899402"><ele>7.333333333333333</ele><time>2026-04-24T10:43:24Z</time></trkpt><trkpt lat="44.745606273104606" lon="11.558346776341777"><ele>9.0</ele><time>2026-04-24T10:43:25Z</time></trkpt><trkpt lat="44.745427284367224" lon="11.558524064219409"><ele>8.666666666666666</ele><time>2026-04-24T10:43:26Z</time></trkpt><trkpt lat="44.74524715706647" lon="11.558704492509952"><ele>8.333333333333332</ele><time>2026-04-24T10:43:27Z</time></trkpt><trkpt lat="44.7450688639779" lon="11.55889049643001"><ele>8.0</ele><time>2026-04-24T10:43:28Z</time></trkpt><trkpt lat="44.744890191000536" lon="11.55907360208184"><ele>8.0</ele><time>2026-04-24T10:43:29Z</time></trkpt><trkpt lat="44.74471061373578" lon="11.559255806779095"><ele>8.0</ele><time>2026-04-24T10:43:30Z</time></trkpt><trkpt lat="44.744533803542424" lon="11.55944093342563"><ele>8.0</ele><time>2026-04-24T10:43:31Z</time></trkpt><trkpt lat="44.74435302089701" lon="11.559626644409397"><ele>7.666666666666666</ele><time>2026-04-24T10:43:32Z</time></trkpt><trkpt lat="44.744172950683165" lon="11.559810721092202"><ele>7.333333333333334</ele><time>2026-04-24T10:43:33Z</time></trkpt><trkpt lat="44.743993463166284" lon="11.559998165202764"><ele>7.0</ele><time>2026-04-24T10:43:34Z</time></trkpt><trkpt lat="44.743812156858745" lon="11.560183165954546"><ele>7.0</ele><time>2026-04-24T10:43:35Z</time></trkpt><trkpt lat="44.743631598016385" lon="11.56036638431397"><ele>7.0</ele><time>2026-04-24T10:43:36Z</time></trkpt><trkpt lat="44.743450190796764" lon="11.560552359006614"><ele>7.0</ele><time>2026-04-24T10:43:37Z</time></trkpt><trkpt lat="44.74326982557949" lon="11.560737444598942"><ele>7.0</ele><time>2026-04-24T10:43:38Z</time></trkpt><trkpt lat="44.743090881003944" lon="11.560921058353966"><ele>7.0</ele><time>2026-04-24T10:43:39Z</time></trkpt><trkpt lat="44.74291280587887" lon="11.561106493322725"><ele>7.0</ele><time>2026-04-24T10:43:40Z</time></trkpt><trkpt lat="44.74273438419705" lon="11.561288447493485"><ele>7.333333333333334</ele><time>2026-04-24T10:43:41Z</time></trkpt><trkpt lat="44.74255469509788" lon="11.561470068083837"><ele>7.666666666666666</ele><time>2026-04-24T10:43:42Z</time></trkpt><trkpt lat="44.74237236540603" lon="11.561652858371765"><ele>8.0</ele><time>2026-04-24T10:43:43Z</time></trkpt><trkpt lat="44.742189997697245" lon="11.561835941323194"><ele>8.0</ele><time>2026-04-24T10:43:44Z</time></trkpt><trkpt lat="44.74201131373486" lon="11.562020135018624"><ele>8.0</ele><time>2026-04-24T10:43:45Z</time></trkpt><trkpt lat="44.741832859835604" lon="11.562206663169743"><ele>8.0</ele><time>2026-04-24T10:43:46Z</time></trkpt><trkpt lat="44.74164927326597" lon="11.56239265924553"><ele>8.0</ele><time>2026-04-24T10:43:47Z</time></trkpt><trkpt lat="44.74147008742557" lon="11.56257431825457"><ele>8.0</ele><time>2026-04-24T10:43:48Z</time></trkpt><trkpt lat="44.74129328179796" lon="11.56275842021935"><ele>8.0</ele><time>2026-04-24T10:43:49Z</time></trkpt><trkpt lat="44.741114703286904" lon="11.56294117948548"><ele>8.0</ele><time>2026-04-24T10:43:50Z</time></trkpt><trkpt lat="44.74093488798909" lon="11.563124333633782"><ele>8.0</ele><time>2026-04-24T10:43:51Z</time></trkpt><trkpt lat="44.74075717736462" lon="11.563306927319996"><ele>8.0</ele><time>2026-04-24T10:43:52Z</time></trkpt><trkpt lat="44.74057817085104" lon="11.563492352588653"><ele>8.0</ele><time>2026-04-24T10:43:53Z</time></trkpt><trkpt lat="44.740401505916076" lon="11.563679810285212"><ele>8.0</ele><time>2026-04-24T10:43:54Z</time></trkpt><trkpt lat="44.7402342322541" lon="11.563853096722415"><ele>8.0</ele><time>2026-04-24T10:43:55Z</time></trkpt><trkpt lat="44.74007822348515" lon="11.564011070604758"><ele>8.0</ele><time>2026-04-24T10:43:56Z</time></trkpt><trkpt lat="44.73993062036626" lon="11.564163315777268"><ele>8.0</ele><time>2026-04-24T10:43:57Z</time></trkpt><trkpt lat="44.73979422538008" lon="11.564301668965577"><ele>8.0</ele><time>2026-04-24T10:43:58Z</time></trkpt><trkpt lat="44.73966852597987" lon="11.564431836110904"><ele>8.25</ele><time>2026-04-24T10:43:59Z</time></trkpt><trkpt lat="44.73955521819189" lon="11.564549288934193"><ele>8.5</ele><time>2026-04-24T10:44:00Z</time></trkpt><trkpt lat="44.739450218459304" lon="11.564659717674678"><ele>8.75</ele><time>2026-04-24T10:44:01Z</time></trkpt><trkpt lat="44.73935621813266" lon="11.564756990600694"><ele>9.0</ele><time>2026-04-24T10:44:02Z</time></trkpt><trkpt lat="44.73927358180444" lon="11.564826339837282"><ele>9.142857142857144</ele><time>2026-04-24T10:44:03Z</time></trkpt><trkpt lat="44.73920313271428" lon="11.564882023229234"><ele>9.285714285714286</ele><time>2026-04-24T10:44:04Z</time></trkpt><trkpt lat="44.739139470546846" lon="11.564923174408387"><ele>9.428571428571429</ele><time>2026-04-24T10:44:05Z</time></trkpt><trkpt lat="44.73907822015447" lon="11.564953130342284"><ele>9.571428571428573</ele><time>2026-04-24T10:44:07Z</time></trkpt><trkpt lat="44.7390133605833" lon="11.565018398253576"><ele>9.714285714285715</ele><time>2026-04-24T10:44:11Z</time></trkpt><trkpt lat="44.738969953953806" lon="11.565083709976903"><ele>9.857142857142858</ele><time>2026-04-24T10:44:12Z</time></trkpt><trkpt lat="44.73890963004099" lon="11.56516183867087"><ele>10.0</ele><time>2026-04-24T10:44:13Z</time></trkpt><trkpt lat="44.738850199274985" lon="11.565238612085919"><ele>10.0</ele><time>2026-04-24T10:44:14Z</time></trkpt><trkpt lat="44.73877767260265" lon="11.565336028021703"><ele>10.0</ele><time>2026-04-24T10:44:15Z</time></trkpt><trkpt lat="44.73869661709829" lon="11.565456602741097"><ele>10.0</ele><time>2026-04-24T10:44:16Z</time></trkpt><trkpt lat="44.738588210101724" lon="11.565560860889812"><ele>10.0</ele><time>2026-04-24T10:44:17Z</time></trkpt><trkpt lat="44.7384837466601" lon="11.56568498457388"><ele>10.0</ele><time>2026-04-24T10:44:18Z</time></trkpt><trkpt lat="44.73823876834871" lon="11.56594065719859"><ele>10.0</ele><time>2026-04-24T10:44:20Z</time></trkpt><trkpt lat="44.73810285829423" lon="11.566083839717797"><ele>10.0</ele><time>2026-04-24T10:44:21Z</time></trkpt><trkpt lat="44.73796835414551" lon="11.566228465433593"><ele>10.0</ele><time>2026-04-24T10:44:22Z</time></trkpt><trkpt lat="44.73783394590177" lon="11.566375721564443"><ele>10.0</ele><time>2026-04-24T10:44:23Z</time></trkpt><trkpt lat="44.73770261790336" lon="11.566520120265338"><ele>10.0</ele><time>2026-04-24T10:44:24Z</time></trkpt><trkpt lat="44.737575574149645" lon="11.56664931416628"><ele>10.0</ele><time>2026-04-24T10:44:25Z</time></trkpt><trkpt lat="44.73745131656881" lon="11.566777743485154"><ele>10.0</ele><time>2026-04-24T10:44:26Z</time></trkpt><trkpt lat="44.737331321673395" lon="11.566905154895311"><ele>9.5</ele><time>2026-04-24T10:44:27Z</time></trkpt><trkpt lat="44.73721422941949" lon="11.567031901985267"><ele>9.0</ele><time>2026-04-24T10:44:28Z</time></trkpt><trkpt lat="44.737104288032924" lon="11.567156839890004"><ele>8.5</ele><time>2026-04-24T10:44:29Z</time></trkpt><trkpt lat="44.73700493338759" lon="11.567273657779198"><ele>8.0</ele><time>2026-04-24T10:44:30Z</time></trkpt><trkpt lat="44.736904229465814" lon="11.567389199835155"><ele>8.75</ele><time>2026-04-24T10:44:31Z</time></trkpt><trkpt lat="44.73680198466138" lon="11.567501482461154"><ele>9.5</ele><time>2026-04-24T10:44:32Z</time></trkpt><trkpt lat="44.73669912848656" lon="11.567612056954221"><ele>10.25</ele><time>2026-04-24T10:44:33Z</time></trkpt><trkpt lat="44.73659385451109" lon="11.567730320700626"><ele>11.0</ele><time>2026-04-24T10:44:34Z</time></trkpt><trkpt lat="44.73648963096707" lon="11.567853707983472"><ele>11.0</ele><time>2026-04-24T10:44:35Z</time></trkpt><trkpt lat="44.73638320035877" lon="11.56796768152556"><ele>11.0</ele><time>2026-04-24T10:44:36Z</time></trkpt><trkpt lat="44.736274073183175" lon="11.568082136282861"><ele>11.0</ele><time>2026-04-24T10:44:37Z</time></trkpt><trkpt lat="44.73616692670161" lon="11.5681981062248"><ele>11.0</ele><time>2026-04-24T10:44:38Z</time></trkpt><trkpt lat="44.73605732889143" lon="11.568311825347587"><ele>11.0</ele><time>2026-04-24T10:44:39Z</time></trkpt><trkpt lat="44.73594885228315" lon="11.568431311667283"><ele>11.0</ele><time>2026-04-24T10:44:40Z</time></trkpt><trkpt lat="44.73583736335484" lon="11.568549297653473"><ele>11.0</ele><time>2026-04-24T10:44:41Z</time></trkpt><trkpt lat="44.73572115863342" lon="11.56866779148491"><ele>11.0</ele><time>2026-04-24T10:44:42Z</time></trkpt><trkpt lat="44.73560530843468" lon="11.568790502389016"><ele>10.5</ele><time>2026-04-24T10:44:43Z</time></trkpt><trkpt lat="44.735489493655805" lon="11.568913985900238"><ele>10.0</ele><time>2026-04-24T10:44:44Z</time></trkpt><trkpt lat="44.73537154635521" lon="11.569038185826903"><ele>9.5</ele><time>2026-04-24T10:44:45Z</time></trkpt><trkpt lat="44.73525646561383" lon="11.569162339782713"><ele>9.0</ele><time>2026-04-24T10:44:46Z</time></trkpt><trkpt lat="44.73514102789762" lon="11.569284820753186"><ele>9.0</ele><time>2026-04-24T10:44:47Z</time></trkpt><trkpt lat="44.7350290617497" lon="11.569407613787833"><ele>9.0</ele><time>2026-04-24T10:44:48Z</time></trkpt><trkpt lat="44.73491598426286" lon="11.5695321803252"><ele>9.0</ele><time>2026-04-24T10:44:49Z</time></trkpt><trkpt lat="44.734800507115125" lon="11.569658999537936"><ele>9.0</ele><time>2026-04-24T10:44:50Z</time></trkpt><trkpt lat="44.73468168320796" lon="11.56978560048339"><ele>9.333333333333334</ele><time>2026-04-24T10:44:51Z</time></trkpt><trkpt lat="44.73455878212598" lon="11.569911934983665"><ele>9.666666666666668</ele><time>2026-04-24T10:44:52Z</time></trkpt><trkpt lat="44.734432185271146" lon="11.570047053666672"><ele>10.0</ele><time>2026-04-24T10:44:53Z</time></trkpt><trkpt lat="44.73430540387483" lon="11.570188253668316"><ele>10.333333333333334</ele><time>2026-04-24T10:44:54Z</time></trkpt><trkpt lat="44.73417879739189" lon="11.570324492389641"><ele>10.666666666666666</ele><time>2026-04-24T10:44:55Z</time></trkpt><trkpt lat="44.734050507985906" lon="11.570458883200775"><ele>11.0</ele><time>2026-04-24T10:44:56Z</time></trkpt><trkpt lat="44.73391388839621" lon="11.570599194601577"><ele>11.0</ele><time>2026-04-24T10:44:57Z</time></trkpt><trkpt lat="44.7337747262636" lon="11.570740519968785"><ele>11.0</ele><time>2026-04-24T10:44:58Z</time></trkpt><trkpt lat="44.73363877322212" lon="11.570885355056813"><ele>11.0</ele><time>2026-04-24T10:44:59Z</time></trkpt><trkpt lat="44.73350720885054" lon="11.571030734622346"><ele>10.333333333333332</ele><time>2026-04-24T10:45:00Z</time></trkpt><trkpt lat="44.73337665585118" lon="11.571176140658821"><ele>9.666666666666666</ele><time>2026-04-24T10:45:01Z</time></trkpt><trkpt lat="44.73324438878907" lon="11.571321062331304"><ele>9.0</ele><time>2026-04-24T10:45:02Z</time></trkpt><trkpt lat="44.733107207926004" lon="11.571458429912088"><ele>9.0</ele><time>2026-04-24T10:45:03Z</time></trkpt><trkpt lat="44.73296949299856" lon="11.57160118439496"><ele>9.0</ele><time>2026-04-24T10:45:04Z</time></trkpt><trkpt lat="44.73282438040771" lon="11.571758769986634"><ele>9.0</ele><time>2026-04-24T10:45:05Z</time></trkpt><trkpt lat="44.732668677124416" lon="11.571925430658677"><ele>9.0</ele><time>2026-04-24T10:45:06Z</time></trkpt><trkpt lat="44.732509808987565" lon="11.5721003395463"><ele>9.0</ele><time>2026-04-24T10:45:07Z</time></trkpt><trkpt lat="44.73235591761454" lon="11.572280678490726"><ele>9.0</ele><time>2026-04-24T10:45:08Z</time></trkpt><trkpt lat="44.73219997711492" lon="11.57246413023887"><ele>9.0</ele><time>2026-04-24T10:45:09Z</time></trkpt><trkpt lat="44.73204257826883" lon="11.572643990665773"><ele>9.0</ele><time>2026-04-24T10:45:10Z</time></trkpt><trkpt lat="44.731879305803055" lon="11.572828495036099"><ele>9.0</ele><time>2026-04-24T10:45:11Z</time></trkpt><trkpt lat="44.73171045723523" lon="11.573006669571171"><ele>8.666666666666666</ele><time>2026-04-24T10:45:12Z</time></trkpt><trkpt lat="44.7315359822022" lon="11.573185580506125"><ele>8.333333333333332</ele><time>2026-04-24T10:45:13Z</time></trkpt><trkpt lat="44.731355516559915" lon="11.573357678530963"><ele>8.0</ele><time>2026-04-24T10:45:14Z</time></trkpt><trkpt lat="44.73116900042895" lon="11.573519599270568"><ele>8.0</ele><time>2026-04-24T10:45:15Z</time></trkpt><trkpt lat="44.73098179104976" lon="11.573675463911902"><ele>8.0</ele><time>2026-04-24T10:45:16Z</time></trkpt><trkpt lat="44.730795806295475" lon="11.57383042467733"><ele>8.0</ele><time>2026-04-24T10:45:17Z</time></trkpt><trkpt lat="44.73061612973947" lon="11.573988859165684"><ele>8.0</ele><time>2026-04-24T10:45:18Z</time></trkpt><trkpt lat="44.730436440896064" lon="11.574153998497465"><ele>8.0</ele><time>2026-04-24T10:45:19Z</time></trkpt><trkpt lat="44.73025970836903" lon="11.574324747144962"><ele>8.0</ele><time>2026-04-24T10:45:20Z</time></trkpt><trkpt lat="44.73008810643079" lon="11.574505527511482"><ele>8.0</ele><time>2026-04-24T10:45:21Z</time></trkpt><trkpt lat="44.72991776733573" lon="11.574694752349332"><ele>8.0</ele><time>2026-04-24T10:45:22Z</time></trkpt><trkpt lat="44.72975297462613" lon="11.574885399527018"><ele>8.0</ele><time>2026-04-24T10:45:23Z</time></trkpt><trkpt lat="44.729589079990554" lon="11.57507826213547"><ele>8.0</ele><time>2026-04-24T10:45:24Z</time></trkpt><trkpt lat="44.72942167337411" lon="11.575269377433477"><ele>8.0</ele><time>2026-04-24T10:45:25Z</time></trkpt><trkpt lat="44.72925080364799" lon="11.575459188040295"><ele>8.0</ele><time>2026-04-24T10:45:26Z</time></trkpt><trkpt lat="44.72907695229329" lon="11.57564218068516"><ele>8.0</ele><time>2026-04-24T10:45:27Z</time></trkpt><trkpt lat="44.728908543438365" lon="11.575830877754127"><ele>8.0</ele><time>2026-04-24T10:45:28Z</time></trkpt><trkpt lat="44.728738391593694" lon="11.576012929946504"><ele>8.0</ele><time>2026-04-24T10:45:29Z</time></trkpt><trkpt lat="44.728565584104594" lon="11.576194479209702"><ele>8.333333333333332</ele><time>2026-04-24T10:45:30Z</time></trkpt><trkpt lat="44.72838592218148" lon="11.57635896261376"><ele>8.666666666666666</ele><time>2026-04-24T10:45:31Z</time></trkpt><trkpt lat="44.728200220371804" lon="11.576516376531915"><ele>9.0</ele><time>2026-04-24T10:45:32Z</time></trkpt><trkpt lat="44.72801577271501" lon="11.576662093118536"><ele>9.0</ele><time>2026-04-24T10:45:33Z</time></trkpt><trkpt lat="44.72782318985237" lon="11.576795926170702"><ele>9.0</ele><time>2026-04-24T10:45:34Z</time></trkpt><trkpt lat="44.727626555743015" lon="11.576919286932386"><ele>9.0</ele><time>2026-04-24T10:45:35Z</time></trkpt><trkpt lat="44.72743177026777" lon="11.577049579590815"><ele>9.0</ele><time>2026-04-24T10:45:36Z</time></trkpt><trkpt lat="44.72724752725389" lon="11.577199177585815"><ele>9.0</ele><time>2026-04-24T10:45:37Z</time></trkpt><trkpt lat="44.72706564560789" lon="11.577352158823617"><ele>9.0</ele><time>2026-04-24T10:45:38Z</time></trkpt><trkpt lat="44.726886211700084" lon="11.577516169380978"><ele>9.0</ele><time>2026-04-24T10:45:39Z</time></trkpt><trkpt lat="44.726708949346964" lon="11.57769006009079"><ele>9.0</ele><time>2026-04-24T10:45:40Z</time></trkpt><trkpt lat="44.72653493799613" lon="11.577871477470254"><ele>9.0</ele><time>2026-04-24T10:45:41Z</time></trkpt><trkpt lat="44.72636387073751" lon="11.578052167968984"><ele>9.0</ele><time>2026-04-24T10:45:42Z</time></trkpt><trkpt lat="44.726192677892996" lon="11.578232758439269"><ele>9.0</ele><time>2026-04-24T10:45:43Z</time></trkpt><trkpt lat="44.72601756483837" lon="11.578415176391053"><ele>9.0</ele><time>2026-04-24T10:45:44Z</time></trkpt><trkpt lat="44.72584330349282" lon="11.57859502045562"><ele>9.0</ele><time>2026-04-24T10:45:45Z</time></trkpt><trkpt lat="44.725669434902336" lon="11.57877422854883"><ele>9.0</ele><time>2026-04-24T10:45:46Z</time></trkpt><trkpt lat="44.72549310544706" lon="11.57895451493578"><ele>9.0</ele><time>2026-04-24T10:45:47Z</time></trkpt><trkpt lat="44.72531799860449" lon="11.579133257689953"><ele>9.0</ele><time>2026-04-24T10:45:48Z</time></trkpt><trkpt lat="44.72514229077909" lon="11.579311561937429"><ele>9.0</ele><time>2026-04-24T10:45:49Z</time></trkpt><trkpt lat="44.72496866403153" lon="11.57948750537754"><ele>9.0</ele><time>2026-04-24T10:45:50Z</time></trkpt><trkpt lat="44.72479535285953" lon="11.579667526227345"><ele>9.0</ele><time>2026-04-24T10:45:51Z</time></trkpt><trkpt lat="44.72462217979752" lon="11.579844016773087"><ele>9.0</ele><time>2026-04-24T10:45:52Z</time></trkpt><trkpt lat="44.724447952966216" lon="11.580019835919448"><ele>9.0</ele><time>2026-04-24T10:45:53Z</time></trkpt><trkpt lat="44.72427226580221" lon="11.580196346526538"><ele>8.333333333333334</ele><time>2026-04-24T10:45:54Z</time></trkpt><trkpt lat="44.72409877202783" lon="11.580373522360821"><ele>7.666666666666667</ele><time>2026-04-24T10:45:55Z</time></trkpt><trkpt lat="44.72392350958151" lon="11.580546956968664"><ele>7.0</ele><time>2026-04-24T10:45:56Z</time></trkpt><trkpt lat="44.72374647103892" lon="11.580720435642156"><ele>7.0</ele><time>2026-04-24T10:45:57Z</time></trkpt><trkpt lat="44.72357138052565" lon="11.580897405196476"><ele>7.0</ele><time>2026-04-24T10:45:58Z</time></trkpt><trkpt lat="44.72339987452974" lon="11.581073291943714"><ele>7.0</ele><time>2026-04-24T10:45:59Z</time></trkpt><trkpt lat="44.72322591887819" lon="11.581249889628655"><ele>7.0</ele><time>2026-04-24T10:46:00Z</time></trkpt><trkpt lat="44.72305229514165" lon="11.581425525749758"><ele>7.0</ele><time>2026-04-24T10:46:01Z</time></trkpt><trkpt lat="44.72287794678985" lon="11.581603513506687"><ele>7.0</ele><time>2026-04-24T10:46:02Z</time></trkpt><trkpt lat="44.72270498870231" lon="11.581782549014475"><ele>7.333333333333334</ele><time>2026-04-24T10:46:03Z</time></trkpt><trkpt lat="44.722534767853176" lon="11.581963814704473"><ele>7.666666666666666</ele><time>2026-04-24T10:46:04Z</time></trkpt><trkpt lat="44.722360498908195" lon="11.582141860388129"><ele>8.0</ele><time>2026-04-24T10:46:05Z</time></trkpt><trkpt lat="44.72218382189097" lon="11.58231858457027"><ele>8.0</ele><time>2026-04-24T10:46:06Z</time></trkpt><trkpt lat="44.72200974847813" lon="11.582499068901313"><ele>8.0</ele><time>2026-04-24T10:46:07Z</time></trkpt><trkpt lat="44.72183664352112" lon="11.582682145431566"><ele>8.0</ele><time>2026-04-24T10:46:08Z</time></trkpt><trkpt lat="44.72166383883254" lon="11.582861333428776"><ele>8.0</ele><time>2026-04-24T10:46:09Z</time></trkpt><trkpt lat="44.72148603083504" lon="11.583040978289773"><ele>8.0</ele><time>2026-04-24T10:46:10Z</time></trkpt><trkpt lat="44.72131357414775" lon="11.58321649387023"><ele>8.0</ele><time>2026-04-24T10:46:11Z</time></trkpt><trkpt lat="44.721136353722" lon="11.583391215045916"><ele>7.666666666666666</ele><time>2026-04-24T10:46:12Z</time></trkpt><trkpt lat="44.720962239016636" lon="11.583564626533958"><ele>7.333333333333334</ele><time>2026-04-24T10:46:13Z</time></trkpt><trkpt lat="44.72079062295012" lon="11.583740919587719"><ele>7.0</ele><time>2026-04-24T10:46:14Z</time></trkpt><trkpt lat="44.72061767031938" lon="11.583920072475708"><ele>7.0</ele><time>2026-04-24T10:46:15Z</time></trkpt><trkpt lat="44.72044320090638" lon="11.584098758569143"><ele>7.0</ele><time>2026-04-24T10:46:16Z</time></trkpt><trkpt lat="44.72027249818074" lon="11.58427982313015"><ele>7.0</ele><time>2026-04-24T10:46:17Z</time></trkpt><trkpt lat="44.720099444816974" lon="11.58445743189681"><ele>7.0</ele><time>2026-04-24T10:46:18Z</time></trkpt><trkpt lat="44.719924256470044" lon="11.584633408915316"><ele>7.0</ele><time>2026-04-24T10:46:19Z</time></trkpt><trkpt lat="44.71974834411056" lon="11.584812134464196"><ele>7.0</ele><time>2026-04-24T10:46:20Z</time></trkpt><trkpt lat="44.719573713303376" lon="11.584990538086563"><ele>6.666666666666667</ele><time>2026-04-24T10:46:21Z</time></trkpt><trkpt lat="44.71939931373339" lon="11.585168875388298"><ele>6.333333333333334</ele><time>2026-04-24T10:46:22Z</time></trkpt><trkpt lat="44.71922839593751" lon="11.58534754508758"><ele>6.0</ele><time>2026-04-24T10:46:23Z</time></trkpt><trkpt lat="44.719054411615474" lon="11.585528025637798"><ele>6.0</ele><time>2026-04-24T10:46:24Z</time></trkpt><trkpt lat="44.71887966279148" lon="11.585703370511391"><ele>6.0</ele><time>2026-04-24T10:46:25Z</time></trkpt><trkpt lat="44.71870266537718" lon="11.585874807359852"><ele>6.0</ele><time>2026-04-24T10:46:26Z</time></trkpt><trkpt lat="44.718526080263956" lon="11.58604818149851"><ele>6.333333333333334</ele><time>2026-04-24T10:46:27Z</time></trkpt><trkpt lat="44.7183473305902" lon="11.586231570450325"><ele>6.666666666666667</ele><time>2026-04-24T10:46:28Z</time></trkpt><trkpt lat="44.7181736883154" lon="11.58641191715756"><ele>7.0</ele><time>2026-04-24T10:46:29Z</time></trkpt><trkpt lat="44.718000995002875" lon="11.586590248055542"><ele>7.0</ele><time>2026-04-24T10:46:30Z</time></trkpt><trkpt lat="44.7178273835617" lon="11.586772333566527"><ele>7.0</ele><time>2026-04-24T10:46:31Z</time></trkpt><trkpt lat="44.7176531642569" lon="11.586951953624206"><ele>7.0</ele><time>2026-04-24T10:46:32Z</time></trkpt><trkpt lat="44.71747886689015" lon="11.587128848852972"><ele>7.0</ele><time>2026-04-24T10:46:33Z</time></trkpt><trkpt lat="44.71730338852203" lon="11.58730866705958"><ele>7.0</ele><time>2026-04-24T10:46:34Z</time></trkpt><trkpt lat="44.71712971022623" lon="11.587487951377813"><ele>7.0</ele><time>2026-04-24T10:46:35Z</time></trkpt><trkpt lat="44.71695629058383" lon="11.58766461666894"><ele>6.666666666666667</ele><time>2026-04-24T10:46:36Z</time></trkpt><trkpt lat="44.71678316193696" lon="11.587841037830438"><ele>6.333333333333334</ele><time>2026-04-24T10:46:37Z</time></trkpt><trkpt lat="44.71660721608248" lon="11.588020225924499"><ele>6.0</ele><time>2026-04-24T10:46:38Z</time></trkpt><trkpt lat="44.71643407205064" lon="11.588197650496214"><ele>6.0</ele><time>2026-04-24T10:46:39Z</time></trkpt><trkpt lat="44.71626110258659" lon="11.588376273747292"><ele>6.0</ele><time>2026-04-24T10:46:40Z</time></trkpt><trkpt lat="44.7160874271975" lon="11.588556533007035"><ele>6.0</ele><time>2026-04-24T10:46:41Z</time></trkpt><trkpt lat="44.71591646317246" lon="11.588739519728312"><ele>6.333333333333334</ele><time>2026-04-24T10:46:42Z</time></trkpt><trkpt lat="44.71574363484408" lon="11.588921757586583"><ele>6.666666666666667</ele><time>2026-04-24T10:46:43Z</time></trkpt><trkpt lat="44.715567173192696" lon="11.589099213145113"><ele>7.0</ele><time>2026-04-24T10:46:44Z</time></trkpt><trkpt lat="44.71539323326977" lon="11.589275142034312"><ele>6.333333333333334</ele><time>2026-04-24T10:46:45Z</time></trkpt><trkpt lat="44.71521788508889" lon="11.58944730228244"><ele>5.666666666666667</ele><time>2026-04-24T10:46:46Z</time></trkpt><trkpt lat="44.71504093835854" lon="11.589621733990288"><ele>5.0</ele><time>2026-04-24T10:46:47Z</time></trkpt><trkpt lat="44.71486486153569" lon="11.58979375629178"><ele>5.0</ele><time>2026-04-24T10:46:48Z</time></trkpt><trkpt lat="44.71468952874872" lon="11.589969105942696"><ele>5.0</ele><time>2026-04-24T10:46:49Z</time></trkpt><trkpt lat="44.714513545745454" lon="11.590145880967926"><ele>5.0</ele><time>2026-04-24T10:46:50Z</time></trkpt><trkpt lat="44.71433991745262" lon="11.590324192235439"><ele>5.0</ele><time>2026-04-24T10:46:51Z</time></trkpt><trkpt lat="44.71416692825376" lon="11.590502351853733"><ele>5.0</ele><time>2026-04-24T10:46:52Z</time></trkpt><trkpt lat="44.71399573470195" lon="11.590682907235479"><ele>5.0</ele><time>2026-04-24T10:46:53Z</time></trkpt><trkpt lat="44.713820053718344" lon="11.590862088831202"><ele>5.0</ele><time>2026-04-24T10:46:54Z</time></trkpt><trkpt lat="44.713646972291166" lon="11.59103942371575"><ele>5.0</ele><time>2026-04-24T10:46:55Z</time></trkpt><trkpt lat="44.71347326280037" lon="11.59121535711349"><ele>5.0</ele><time>2026-04-24T10:46:56Z</time></trkpt><trkpt lat="44.71329978027665" lon="11.591394514392547"><ele>5.333333333333334</ele><time>2026-04-24T10:46:57Z</time></trkpt><trkpt lat="44.713126357208715" lon="11.591570299933808"><ele>5.666666666666667</ele><time>2026-04-24T10:46:58Z</time></trkpt><trkpt lat="44.7129529510898" lon="11.591746221715145"><ele>6.0</ele><time>2026-04-24T10:46:59Z</time></trkpt><trkpt lat="44.71277805816178" lon="11.5919222238138"><ele>5.666666666666667</ele><time>2026-04-24T10:47:00Z</time></trkpt><trkpt lat="44.712604407288616" lon="11.59210088368248"><ele>5.333333333333334</ele><time>2026-04-24T10:47:01Z</time></trkpt><trkpt lat="44.71242778280555" lon="11.592278487301241"><ele>5.0</ele><time>2026-04-24T10:47:02Z</time></trkpt><trkpt lat="44.71225479336336" lon="11.592454748249178"><ele>5.0</ele><time>2026-04-24T10:47:03Z</time></trkpt><trkpt lat="44.712078315240824" lon="11.59263009530274"><ele>5.0</ele><time>2026-04-24T10:47:04Z</time></trkpt><trkpt lat="44.71190574889506" lon="11.592806412729711"><ele>5.0</ele><time>2026-04-24T10:47:05Z</time></trkpt><trkpt lat="44.71173178302343" lon="11.59298273534294"><ele>5.0</ele><time>2026-04-24T10:47:06Z</time></trkpt><trkpt lat="44.711558127570676" lon="11.593157988048398"><ele>5.0</ele><time>2026-04-24T10:47:07Z</time></trkpt><trkpt lat="44.71138222093153" lon="11.593334064741056"><ele>5.0</ele><time>2026-04-24T10:47:08Z</time></trkpt><trkpt lat="44.71120891182637" lon="11.593512565717107"><ele>5.333333333333334</ele><time>2026-04-24T10:47:09Z</time></trkpt><trkpt lat="44.711035057535895" lon="11.593687312771506"><ele>5.666666666666667</ele><time>2026-04-24T10:47:10Z</time></trkpt><trkpt lat="44.71085939091089" lon="11.593862224756945"><ele>6.0</ele><time>2026-04-24T10:47:11Z</time></trkpt><trkpt lat="44.710684150250664" lon="11.594037261011671"><ele>6.0</ele><time>2026-04-24T10:47:12Z</time></trkpt><trkpt lat="44.7105111310783" lon="11.594214678036549"><ele>6.0</ele><time>2026-04-24T10:47:13Z</time></trkpt><trkpt lat="44.710336790700296" lon="11.594394566328933"><ele>6.0</ele><time>2026-04-24T10:47:14Z</time></trkpt><trkpt lat="44.710163755047766" lon="11.594573312857126"><ele>6.0</ele><time>2026-04-24T10:47:15Z</time></trkpt><trkpt lat="44.70998963143004" lon="11.594750207792284"><ele>6.0</ele><time>2026-04-24T10:47:16Z</time></trkpt><trkpt lat="44.70981223300317" lon="11.594922265923582"><ele>6.0</ele><time>2026-04-24T10:47:17Z</time></trkpt><trkpt lat="44.709635672627606" lon="11.595100110401034"><ele>6.0</ele><time>2026-04-24T10:47:18Z</time></trkpt><trkpt lat="44.709456482361084" lon="11.595275709437951"><ele>6.0</ele><time>2026-04-24T10:47:19Z</time></trkpt><trkpt lat="44.70927909520195" lon="11.595449227914706"><ele>6.0</ele><time>2026-04-24T10:47:20Z</time></trkpt><trkpt lat="44.70910464707406" lon="11.595623477107836"><ele>5.666666666666667</ele><time>2026-04-24T10:47:21Z</time></trkpt><trkpt lat="44.708932891988255" lon="11.595799793857372"><ele>5.333333333333334</ele><time>2026-04-24T10:47:22Z</time></trkpt><trkpt lat="44.70876219282451" lon="11.595981187457996"><ele>5.0</ele><time>2026-04-24T10:47:23Z</time></trkpt><trkpt lat="44.708591471928095" lon="11.596160480055543"><ele>5.666666666666667</ele><time>2026-04-24T10:47:24Z</time></trkpt><trkpt lat="44.708419367736205" lon="11.596341167351708"><ele>6.333333333333334</ele><time>2026-04-24T10:47:25Z</time></trkpt><trkpt lat="44.708243757492106" lon="11.596519215794912"><ele>7.0</ele><time>2026-04-24T10:47:26Z</time></trkpt><trkpt lat="44.70806759407788" lon="11.596699403240438"><ele>7.0</ele><time>2026-04-24T10:47:27Z</time></trkpt><trkpt lat="44.70789179505203" lon="11.5968702127092"><ele>7.0</ele><time>2026-04-24T10:47:28Z</time></trkpt><trkpt lat="44.707716856589364" lon="11.597044954325197"><ele>7.0</ele><time>2026-04-24T10:47:29Z</time></trkpt><trkpt lat="44.70754368635674" lon="11.597221751462833"><ele>7.0</ele><time>2026-04-24T10:47:30Z</time></trkpt><trkpt lat="44.70736920890586" lon="11.597400856648411"><ele>7.0</ele><time>2026-04-24T10:47:31Z</time></trkpt><trkpt lat="44.70719304303866" lon="11.597577640206712"><ele>7.0</ele><time>2026-04-24T10:47:32Z</time></trkpt><trkpt lat="44.707017480580824" lon="11.5977568593361"><ele>6.666666666666667</ele><time>2026-04-24T10:47:33Z</time></trkpt><trkpt lat="44.7068462523164" lon="11.597939268248606"><ele>6.333333333333334</ele><time>2026-04-24T10:47:34Z</time></trkpt><trkpt lat="44.70667570917851" lon="11.59812142158939"><ele>6.0</ele><time>2026-04-24T10:47:35Z</time></trkpt><trkpt lat="44.70650130433273" lon="11.598299774648689"><ele>6.0</ele><time>2026-04-24T10:47:36Z</time></trkpt><trkpt lat="44.70633001694355" lon="11.598480641643773"><ele>6.0</ele><time>2026-04-24T10:47:37Z</time></trkpt><trkpt lat="44.70615689960927" lon="11.598662805093905"><ele>6.0</ele><time>2026-04-24T10:47:38Z</time></trkpt><trkpt lat="44.70598323982526" lon="11.598840656216154"><ele>5.666666666666667</ele><time>2026-04-24T10:47:39Z</time></trkpt><trkpt lat="44.705807635894786" lon="11.599014486722321"><ele>5.333333333333334</ele><time>2026-04-24T10:47:40Z</time></trkpt><trkpt lat="44.70563360981915" lon="11.599190358409103"><ele>5.0</ele><time>2026-04-24T10:47:41Z</time></trkpt><trkpt lat="44.70546177207112" lon="11.599371891637494"><ele>5.0</ele><time>2026-04-24T10:47:42Z</time></trkpt><trkpt lat="44.70528948726284" lon="11.599549645660899"><ele>5.0</ele><time>2026-04-24T10:47:43Z</time></trkpt><trkpt lat="44.70511525517611" lon="11.599724140650567"><ele>5.0</ele><time>2026-04-24T10:47:44Z</time></trkpt><trkpt lat="44.704941318735386" lon="11.599898623023245"><ele>5.333333333333334</ele><time>2026-04-24T10:47:45Z</time></trkpt><trkpt lat="44.704766773056924" lon="11.600074262471137"><ele>5.666666666666667</ele><time>2026-04-24T10:47:46Z</time></trkpt><trkpt lat="44.704591829399426" lon="11.60025472453316"><ele>6.0</ele><time>2026-04-24T10:47:47Z</time></trkpt><trkpt lat="44.70441717508377" lon="11.600431878482564"><ele>5.666666666666667</ele><time>2026-04-24T10:47:48Z</time></trkpt><trkpt lat="44.70424271484616" lon="11.600608762817908"><ele>5.333333333333334</ele><time>2026-04-24T10:47:49Z</time></trkpt><trkpt lat="44.70406651926036" lon="11.600786072025468"><ele>5.0</ele><time>2026-04-24T10:47:50Z</time></trkpt><trkpt lat="44.70389272238857" lon="11.600964656868921"><ele>5.0</ele><time>2026-04-24T10:47:51Z</time></trkpt><trkpt lat="44.703721850324236" lon="11.601147659945863"><ele>5.0</ele><time>2026-04-24T10:47:52Z</time></trkpt><trkpt lat="44.703548667783586" lon="11.601323153653134"><ele>5.0</ele><time>2026-04-24T10:47:53Z</time></trkpt><trkpt lat="44.70337560456935" lon="11.601499894415445"><ele>5.0</ele><time>2026-04-24T10:47:54Z</time></trkpt><trkpt lat="44.703201672179425" lon="11.601681710210212"><ele>5.0</ele><time>2026-04-24T10:47:55Z</time></trkpt><trkpt lat="44.703024987105316" lon="11.601856510132764"><ele>5.0</ele><time>2026-04-24T10:47:56Z</time></trkpt><trkpt lat="44.702852294588986" lon="11.602033735794514"><ele>5.333333333333334</ele><time>2026-04-24T10:47:57Z</time></trkpt><trkpt lat="44.702677448996376" lon="11.602214225212304"><ele>5.666666666666667</ele><time>2026-04-24T10:47:58Z</time></trkpt><trkpt lat="44.70250537736753" lon="11.602392479314704"><ele>6.0</ele><time>2026-04-24T10:47:59Z</time></trkpt><trkpt lat="44.70232886377864" lon="11.602569348664739"><ele>6.0</ele><time>2026-04-24T10:48:00Z</time></trkpt><trkpt lat="44.70215406862787" lon="11.602742977755884"><ele>6.0</ele><time>2026-04-24T10:48:01Z</time></trkpt><trkpt lat="44.70197899942644" lon="11.602918138457213"><ele>6.0</ele><time>2026-04-24T10:48:02Z</time></trkpt><trkpt lat="44.701801738972975" lon="11.603098144967392"><ele>6.666666666666666</ele><time>2026-04-24T10:48:03Z</time></trkpt><trkpt lat="44.70162783446872" lon="11.603277031168004"><ele>7.333333333333333</ele><time>2026-04-24T10:48:04Z</time></trkpt><trkpt lat="44.70145358904428" lon="11.603454737023846"><ele>8.0</ele><time>2026-04-24T10:48:05Z</time></trkpt><trkpt lat="44.70127797306378" lon="11.603628449476208"><ele>8.0</ele><time>2026-04-24T10:48:06Z</time></trkpt><trkpt lat="44.701103632256675" lon="11.60380302054411"><ele>8.0</ele><time>2026-04-24T10:48:07Z</time></trkpt><trkpt lat="44.700928905457324" lon="11.603976447347826"><ele>8.0</ele><time>2026-04-24T10:48:08Z</time></trkpt><trkpt lat="44.700752128167956" lon="11.604155050759427"><ele>7.666666666666666</ele><time>2026-04-24T10:48:09Z</time></trkpt><trkpt lat="44.70057663857106" lon="11.604329489395058"><ele>7.333333333333334</ele><time>2026-04-24T10:48:10Z</time></trkpt><trkpt lat="44.700407675336905" lon="11.604505984699491"><ele>7.0</ele><time>2026-04-24T10:48:11Z</time></trkpt><trkpt lat="44.70023195024799" lon="11.604682955524678"><ele>6.333333333333334</ele><time>2026-04-24T10:48:12Z</time></trkpt><trkpt lat="44.7000588102245" lon="11.604861365160719"><ele>5.666666666666667</ele><time>2026-04-24T10:48:13Z</time></trkpt><trkpt lat="44.69988619343139" lon="11.605034676722486"><ele>5.0</ele><time>2026-04-24T10:48:14Z</time></trkpt><trkpt lat="44.69971326407472" lon="11.605208413191964"><ele>4.666666666666667</ele><time>2026-04-24T10:48:15Z</time></trkpt><trkpt lat="44.699538467530026" lon="11.605387883129765"><ele>4.333333333333333</ele><time>2026-04-24T10:48:16Z</time></trkpt><trkpt lat="44.699362524148206" lon="11.605557865375594"><ele>4.0</ele><time>2026-04-24T10:48:17Z</time></trkpt><trkpt lat="44.699184705740365" lon="11.605727308660589"><ele>4.666666666666666</ele><time>2026-04-24T10:48:18Z</time></trkpt><trkpt lat="44.699006149100306" lon="11.605899213364788"><ele>5.333333333333333</ele><time>2026-04-24T10:48:19Z</time></trkpt><trkpt lat="44.69883011531899" lon="11.606072001533208"><ele>6.0</ele><time>2026-04-24T10:48:20Z</time></trkpt><trkpt lat="44.69865404756972" lon="11.606245540625096"><ele>7.333333333333334</ele><time>2026-04-24T10:48:21Z</time></trkpt><trkpt lat="44.698479150465694" lon="11.606420940725563"><ele>8.666666666666668</ele><time>2026-04-24T10:48:22Z</time></trkpt><trkpt lat="44.69830448401275" lon="11.606597593547168"><ele>10.0</ele><time>2026-04-24T10:48:23Z</time></trkpt><trkpt lat="44.69812945409285" lon="11.606774813038493"><ele>10.0</ele><time>2026-04-24T10:48:24Z</time></trkpt><trkpt lat="44.6979541440405" lon="11.606953675866913"><ele>10.0</ele><time>2026-04-24T10:48:25Z</time></trkpt><trkpt lat="44.69778134018508" lon="11.607134858138899"><ele>10.0</ele><time>2026-04-24T10:48:26Z</time></trkpt><trkpt lat="44.69760669376421" lon="11.60731689583016"><ele>9.333333333333334</ele><time>2026-04-24T10:48:27Z</time></trkpt><trkpt lat="44.69743534110212" lon="11.60749659644715"><ele>8.666666666666666</ele><time>2026-04-24T10:48:28Z</time></trkpt><trkpt lat="44.69726519150109" lon="11.607678009779246"><ele>8.0</ele><time>2026-04-24T10:48:29Z</time></trkpt><trkpt lat="44.697094863259046" lon="11.60786041441064"><ele>7.666666666666666</ele><time>2026-04-24T10:48:30Z</time></trkpt><trkpt lat="44.696922235685726" lon="11.60803650803077"><ele>7.333333333333334</ele><time>2026-04-24T10:48:31Z</time></trkpt><trkpt lat="44.69674433917164" lon="11.608211791263935"><ele>7.0</ele><time>2026-04-24T10:48:32Z</time></trkpt><trkpt lat="44.69656813661931" lon="11.608386359185703"><ele>7.0</ele><time>2026-04-24T10:48:33Z</time></trkpt><trkpt lat="44.69639552218905" lon="11.608560053457573"><ele>7.0</ele><time>2026-04-24T10:48:34Z</time></trkpt><trkpt lat="44.69622080372418" lon="11.608737556250695"><ele>7.0</ele><time>2026-04-24T10:48:35Z</time></trkpt><trkpt lat="44.69604529809861" lon="11.608915445892253"><ele>7.0</ele><time>2026-04-24T10:48:36Z</time></trkpt><trkpt lat="44.69587088975461" lon="11.609093527412885"><ele>7.0</ele><time>2026-04-24T10:48:37Z</time></trkpt><trkpt lat="44.6956963433475" lon="11.609268700510272"><ele>7.0</ele><time>2026-04-24T10:48:38Z</time></trkpt><trkpt lat="44.69552274453265" lon="11.60944636219439"><ele>8.0</ele><time>2026-04-24T10:48:39Z</time></trkpt><trkpt lat="44.69534825187947" lon="11.609624575553617"><ele>9.0</ele><time>2026-04-24T10:48:40Z</time></trkpt><trkpt lat="44.69517411588408" lon="11.609804961882189"><ele>10.0</ele><time>2026-04-24T10:48:41Z</time></trkpt><trkpt lat="44.694997591161375" lon="11.609982103683176"><ele>10.0</ele><time>2026-04-24T10:48:42Z</time></trkpt><trkpt lat="44.69482154362378" lon="11.610159557087046"><ele>10.0</ele><time>2026-04-24T10:48:43Z</time></trkpt><trkpt lat="44.69464718956735" lon="11.610335712310928"><ele>10.0</ele><time>2026-04-24T10:48:44Z</time></trkpt><trkpt lat="44.69447359322979" lon="11.610512764786941"><ele>8.666666666666668</ele><time>2026-04-24T10:48:45Z</time></trkpt><trkpt lat="44.69430049731889" lon="11.610689627045883"><ele>7.333333333333334</ele><time>2026-04-24T10:48:46Z</time></trkpt><trkpt lat="44.6941269211383" lon="11.610866975642724"><ele>6.0</ele><time>2026-04-24T10:48:47Z</time></trkpt><trkpt lat="44.693950989048886" lon="11.611040888171315"><ele>6.0</ele><time>2026-04-24T10:48:48Z</time></trkpt><trkpt lat="44.69377488370543" lon="11.611215120672842"><ele>6.0</ele><time>2026-04-24T10:48:49Z</time></trkpt><trkpt lat="44.69359790249764" lon="11.611389452256216"><ele>6.0</ele><time>2026-04-24T10:48:50Z</time></trkpt><trkpt lat="44.693423552564056" lon="11.611571010427301"><ele>6.0</ele><time>2026-04-24T10:48:51Z</time></trkpt><trkpt lat="44.693249043360225" lon="11.611747882312272"><ele>6.0</ele><time>2026-04-24T10:48:52Z</time></trkpt><trkpt lat="44.69307603557617" lon="11.61192229546439"><ele>6.0</ele><time>2026-04-24T10:48:53Z</time></trkpt><trkpt lat="44.6929000618713" lon="11.612100234780295"><ele>5.666666666666667</ele><time>2026-04-24T10:48:54Z</time></trkpt><trkpt lat="44.69272373777288" lon="11.612273574557982"><ele>5.333333333333334</ele><time>2026-04-24T10:48:55Z</time></trkpt><trkpt lat="44.69254849666386" lon="11.612451192671216"><ele>5.0</ele><time>2026-04-24T10:48:56Z</time></trkpt><trkpt lat="44.69237372879223" lon="11.612630755654115"><ele>5.0</ele><time>2026-04-24T10:48:57Z</time></trkpt><trkpt lat="44.69220192789909" lon="11.612808601968053"><ele>5.0</ele><time>2026-04-24T10:48:58Z</time></trkpt><trkpt lat="44.692029416718164" lon="11.612986354263477"><ele>5.0</ele><time>2026-04-24T10:48:59Z</time></trkpt><trkpt lat="44.69185601339064" lon="11.61316481492837"><ele>5.0</ele><time>2026-04-24T10:49:00Z</time></trkpt><trkpt lat="44.69168147215594" lon="11.613342964887751"><ele>5.0</ele><time>2026-04-24T10:49:01Z</time></trkpt><trkpt lat="44.69150448545196" lon="11.61351794039396"><ele>5.0</ele><time>2026-04-24T10:49:02Z</time></trkpt><trkpt lat="44.691329996783054" lon="11.613692956736875"><ele>5.0</ele><time>2026-04-24T10:49:03Z</time></trkpt><trkpt lat="44.691156903563844" lon="11.613870472175705"><ele>5.0</ele><time>2026-04-24T10:49:04Z</time></trkpt><trkpt lat="44.69098289263444" lon="11.614047420576101"><ele>5.0</ele><time>2026-04-24T10:49:05Z</time></trkpt><trkpt lat="44.69080866547848" lon="11.61422695288194"><ele>5.0</ele><time>2026-04-24T10:49:06Z</time></trkpt><trkpt lat="44.690633121736454" lon="11.614404897162553"><ele>5.0</ele><time>2026-04-24T10:49:07Z</time></trkpt><trkpt lat="44.69045997075825" lon="11.614581648477358"><ele>5.0</ele><time>2026-04-24T10:49:08Z</time></trkpt><trkpt lat="44.69028945896791" lon="11.614756778512884"><ele>5.333333333333334</ele><time>2026-04-24T10:49:09Z</time></trkpt><trkpt lat="44.69011496101601" lon="11.614931043908005"><ele>5.666666666666667</ele><time>2026-04-24T10:49:10Z</time></trkpt><trkpt lat="44.68994119672864" lon="11.615107820949886"><ele>6.0</ele><time>2026-04-24T10:49:11Z</time></trkpt><trkpt lat="44.689768807390614" lon="11.615284821563378"><ele>5.666666666666667</ele><time>2026-04-24T10:49:12Z</time></trkpt><trkpt lat="44.689592409731915" lon="11.615463567105003"><ele>5.333333333333334</ele><time>2026-04-24T10:49:13Z</time></trkpt><trkpt lat="44.689416532018626" lon="11.615643380756783"><ele>5.0</ele><time>2026-04-24T10:49:14Z</time></trkpt><trkpt lat="44.689243180646265" lon="11.615818995257372"><ele>4.666666666666667</ele><time>2026-04-24T10:49:15Z</time></trkpt><trkpt lat="44.689069207572146" lon="11.615994191788907"><ele>4.333333333333333</ele><time>2026-04-24T10:49:16Z</time></trkpt><trkpt lat="44.68889519847775" lon="11.616170751769099"><ele>4.0</ele><time>2026-04-24T10:49:17Z</time></trkpt><trkpt lat="44.688722084820014" lon="11.616350531582405"><ele>4.666666666666666</ele><time>2026-04-24T10:49:18Z</time></trkpt><trkpt lat="44.688547223947744" lon="11.616529834097285"><ele>5.333333333333333</ele><time>2026-04-24T10:49:19Z</time></trkpt><trkpt lat="44.6883688044752" lon="11.61670295818254"><ele>6.0</ele><time>2026-04-24T10:49:20Z</time></trkpt><trkpt lat="44.688192773508" lon="11.616871809343877"><ele>5.666666666666667</ele><time>2026-04-24T10:49:21Z</time></trkpt><trkpt lat="44.68801865939692" lon="11.61704480737751"><ele>5.333333333333334</ele><time>2026-04-24T10:49:22Z</time></trkpt><trkpt lat="44.68784539146058" lon="11.617224343269651"><ele>5.0</ele><time>2026-04-24T10:49:23Z</time></trkpt><trkpt lat="44.68767397142401" lon="11.617404637317492"><ele>5.0</ele><time>2026-04-24T10:49:24Z</time></trkpt><trkpt lat="44.6875006258667" lon="11.617581110714495"><ele>5.0</ele><time>2026-04-24T10:49:25Z</time></trkpt><trkpt lat="44.68732860124283" lon="11.617760951356034"><ele>5.0</ele><time>2026-04-24T10:49:26Z</time></trkpt><trkpt lat="44.68715231338333" lon="11.617942142790833"><ele>5.333333333333334</ele><time>2026-04-24T10:49:27Z</time></trkpt><trkpt lat="44.686978344896126" lon="11.618122890221029"><ele>5.666666666666667</ele><time>2026-04-24T10:49:28Z</time></trkpt><trkpt lat="44.68680489256493" lon="11.618303521188881"><ele>6.0</ele><time>2026-04-24T10:49:29Z</time></trkpt><trkpt lat="44.68662970359367" lon="11.618479039158029"><ele>6.333333333333334</ele><time>2026-04-24T10:49:30Z</time></trkpt><trkpt lat="44.68645542271094" lon="11.618656158494318"><ele>6.666666666666667</ele><time>2026-04-24T10:49:31Z</time></trkpt><trkpt lat="44.68627854654951" lon="11.618832841644473"><ele>7.0</ele><time>2026-04-24T10:49:32Z</time></trkpt><trkpt lat="44.68610221724167" lon="11.619004215598512"><ele>7.0</ele><time>2026-04-24T10:49:33Z</time></trkpt><trkpt lat="44.685927029274886" lon="11.619181099198336"><ele>7.0</ele><time>2026-04-24T10:49:34Z</time></trkpt><trkpt lat="44.685756149321165" lon="11.619360477130554"><ele>7.0</ele><time>2026-04-24T10:49:35Z</time></trkpt><trkpt lat="44.68558110195503" lon="11.61953456676397"><ele>7.0</ele><time>2026-04-24T10:49:36Z</time></trkpt><trkpt lat="44.68540421323161" lon="11.619710593731316"><ele>7.0</ele><time>2026-04-24T10:49:37Z</time></trkpt><trkpt lat="44.68522701708565" lon="11.61988815096224"><ele>7.0</ele><time>2026-04-24T10:49:38Z</time></trkpt><trkpt lat="44.68505209514513" lon="11.620067360018057"><ele>6.666666666666667</ele><time>2026-04-24T10:49:39Z</time></trkpt><trkpt lat="44.68487894801572" lon="11.62024637118029"><ele>6.333333333333334</ele><time>2026-04-24T10:49:40Z</time></trkpt><trkpt lat="44.684705680110554" lon="11.620423735149782"><ele>6.0</ele><time>2026-04-24T10:49:41Z</time></trkpt><trkpt lat="44.684531589612995" lon="11.620598665947764"><ele>5.666666666666667</ele><time>2026-04-24T10:49:42Z</time></trkpt><trkpt lat="44.6843603811223" lon="11.620776972266581"><ele>5.333333333333334</ele><time>2026-04-24T10:49:43Z</time></trkpt><trkpt lat="44.68418862639306" lon="11.62096309991994"><ele>5.0</ele><time>2026-04-24T10:49:44Z</time></trkpt><trkpt lat="44.68401644621587" lon="11.621140064914586"><ele>5.0</ele><time>2026-04-24T10:49:45Z</time></trkpt><trkpt lat="44.68384473105969" lon="11.621314649505274"><ele>5.0</ele><time>2026-04-24T10:49:46Z</time></trkpt><trkpt lat="44.68367374678995" lon="11.621492727499652"><ele>5.0</ele><time>2026-04-24T10:49:47Z</time></trkpt><trkpt lat="44.68349006800402" lon="11.621651394193249"><ele>5.0</ele><time>2026-04-24T10:49:48Z</time></trkpt><trkpt lat="44.683315584671284" lon="11.621826971968401"><ele>5.0</ele><time>2026-04-24T10:49:49Z</time></trkpt><trkpt lat="44.683149255848434" lon="11.622025826549338"><ele>5.0</ele><time>2026-04-24T10:49:50Z</time></trkpt><trkpt lat="44.68297152973338" lon="11.622195917794771"><ele>4.666666666666667</ele><time>2026-04-24T10:49:51Z</time></trkpt><trkpt lat="44.68279540193912" lon="11.62237077912525"><ele>4.333333333333333</ele><time>2026-04-24T10:49:52Z</time></trkpt><trkpt lat="44.68261894889103" lon="11.622544116869522"><ele>4.0</ele><time>2026-04-24T10:49:53Z</time></trkpt><trkpt lat="44.68244148937562" lon="11.62272138988999"><ele>3.6666666666666665</ele><time>2026-04-24T10:49:54Z</time></trkpt><trkpt lat="44.682266022529966" lon="11.622898839755228"><ele>3.333333333333333</ele><time>2026-04-24T10:49:55Z</time></trkpt><trkpt lat="44.682091013422365" lon="11.623080553545233"><ele>3.0</ele><time>2026-04-24T10:49:56Z</time></trkpt><trkpt lat="44.68191734207005" lon="11.623257809894808"><ele>3.0</ele><time>2026-04-24T10:49:57Z</time></trkpt><trkpt lat="44.68174573860141" lon="11.62343360556813"><ele>3.0</ele><time>2026-04-24T10:49:58Z</time></trkpt><trkpt lat="44.68157286878542" lon="11.623609957021987"><ele>3.0</ele><time>2026-04-24T10:49:59Z</time></trkpt><trkpt lat="44.68139762351308" lon="11.623788533927758"><ele>3.0</ele><time>2026-04-24T10:50:00Z</time></trkpt><trkpt lat="44.681226387040454" lon="11.623969821172436"><ele>3.0</ele><time>2026-04-24T10:50:01Z</time></trkpt><trkpt lat="44.68105454128815" lon="11.624151449530837"><ele>3.0</ele><time>2026-04-24T10:50:02Z</time></trkpt><trkpt lat="44.680880672984436" lon="11.624325051496433"><ele>3.0</ele><time>2026-04-24T10:50:03Z</time></trkpt><trkpt lat="44.680706372214125" lon="11.624498639416558"><ele>3.0</ele><time>2026-04-24T10:50:04Z</time></trkpt><trkpt lat="44.68053081028281" lon="11.624670607373456"><ele>3.0</ele><time>2026-04-24T10:50:05Z</time></trkpt><trkpt lat="44.680353271452496" lon="11.624845127596124"><ele>3.666666666666667</ele><time>2026-04-24T10:50:06Z</time></trkpt><trkpt lat="44.68017656230401" lon="11.625023404770271"><ele>4.333333333333334</ele><time>2026-04-24T10:50:07Z</time></trkpt><trkpt lat="44.68000029090962" lon="11.62520374482303"><ele>5.0</ele><time>2026-04-24T10:50:08Z</time></trkpt><trkpt lat="44.67982764003074" lon="11.625384560439509"><ele>5.0</ele><time>2026-04-24T10:50:09Z</time></trkpt><trkpt lat="44.67965577346573" lon="11.625566198479275"><ele>5.0</ele><time>2026-04-24T10:50:10Z</time></trkpt><trkpt lat="44.67948014848397" lon="11.625745590924485"><ele>5.0</ele><time>2026-04-24T10:50:11Z</time></trkpt><trkpt lat="44.67930548133661" lon="11.625923625637927"><ele>4.666666666666667</ele><time>2026-04-24T10:50:12Z</time></trkpt><trkpt lat="44.6791295342948" lon="11.626097232538006"><ele>4.333333333333333</ele><time>2026-04-24T10:50:13Z</time></trkpt><trkpt lat="44.67895569845642" lon="11.626270676486126"><ele>4.0</ele><time>2026-04-24T10:50:14Z</time></trkpt><trkpt lat="44.67878125219275" lon="11.626444614989552"><ele>4.0</ele><time>2026-04-24T10:50:15Z</time></trkpt><trkpt lat="44.678606991106136" lon="11.62662018978249"><ele>4.0</ele><time>2026-04-24T10:50:16Z</time></trkpt><trkpt lat="44.678432884895365" lon="11.626794062503134"><ele>4.0</ele><time>2026-04-24T10:50:17Z</time></trkpt><trkpt lat="44.67826327844466" lon="11.626974058496439"><ele>4.333333333333333</ele><time>2026-04-24T10:50:18Z</time></trkpt><trkpt lat="44.678091669568445" lon="11.627152641245981"><ele>4.666666666666667</ele><time>2026-04-24T10:50:19Z</time></trkpt><trkpt lat="44.67792129922324" lon="11.627332446729538"><ele>5.0</ele><time>2026-04-24T10:50:20Z</time></trkpt><trkpt lat="44.677744247165315" lon="11.62751011864005"><ele>5.666666666666667</ele><time>2026-04-24T10:50:21Z</time></trkpt><trkpt lat="44.67756724658692" lon="11.62768602515837"><ele>6.333333333333334</ele><time>2026-04-24T10:50:22Z</time></trkpt><trkpt lat="44.6773909901122" lon="11.627865272264108"><ele>7.0</ele><time>2026-04-24T10:50:23Z</time></trkpt><trkpt lat="44.677218682467625" lon="11.628043770421968"><ele>7.0</ele><time>2026-04-24T10:50:24Z</time></trkpt><trkpt lat="44.67704378709244" lon="11.62822143880983"><ele>7.0</ele><time>2026-04-24T10:50:25Z</time></trkpt><trkpt lat="44.67686936676562" lon="11.628398969267534"><ele>7.0</ele><time>2026-04-24T10:50:26Z</time></trkpt><trkpt lat="44.6766951968248" lon="11.628576613471457"><ele>6.666666666666667</ele><time>2026-04-24T10:50:27Z</time></trkpt><trkpt lat="44.67652525812151" lon="11.628756015624882"><ele>6.333333333333334</ele><time>2026-04-24T10:50:28Z</time></trkpt><trkpt lat="44.67635475997872" lon="11.628944048988947"><ele>6.0</ele><time>2026-04-24T10:50:29Z</time></trkpt><trkpt lat="44.67618174777781" lon="11.629130269615388"><ele>6.0</ele><time>2026-04-24T10:50:30Z</time></trkpt><trkpt lat="44.67600982617874" lon="11.629314875809111"><ele>6.0</ele><time>2026-04-24T10:50:31Z</time></trkpt><trkpt lat="44.6758370367648" lon="11.629494024003561"><ele>6.0</ele><time>2026-04-24T10:50:32Z</time></trkpt><trkpt lat="44.67566192237786" lon="11.629669846912515"><ele>6.0</ele><time>2026-04-24T10:50:33Z</time></trkpt><trkpt lat="44.675486621376784" lon="11.629841490291067"><ele>6.0</ele><time>2026-04-24T10:50:34Z</time></trkpt><trkpt lat="44.675310005286676" lon="11.630011344735276"><ele>6.0</ele><time>2026-04-24T10:50:35Z</time></trkpt><trkpt lat="44.67513272284496" lon="11.630182672287182"><ele>6.333333333333334</ele><time>2026-04-24T10:50:36Z</time></trkpt><trkpt lat="44.674957047711295" lon="11.630360710432083"><ele>6.666666666666667</ele><time>2026-04-24T10:50:37Z</time></trkpt><trkpt lat="44.67478490631635" lon="11.630541297262797"><ele>7.0</ele><time>2026-04-24T10:50:38Z</time></trkpt><trkpt lat="44.67461224552964" lon="11.630726045259017"><ele>7.0</ele><time>2026-04-24T10:50:39Z</time></trkpt><trkpt lat="44.67443918281162" lon="11.630909713217248"><ele>7.0</ele><time>2026-04-24T10:50:40Z</time></trkpt><trkpt lat="44.67426574282846" lon="11.631091964411864"><ele>7.0</ele><time>2026-04-24T10:50:41Z</time></trkpt><trkpt lat="44.674092626918316" lon="11.631275097005012"><ele>6.333333333333334</ele><time>2026-04-24T10:50:42Z</time></trkpt><trkpt lat="44.673921074020704" lon="11.63145550506651"><ele>5.666666666666667</ele><time>2026-04-24T10:50:43Z</time></trkpt><trkpt lat="44.673748321368166" lon="11.631636157832043"><ele>5.0</ele><time>2026-04-24T10:50:44Z</time></trkpt><trkpt lat="44.67357420793134" lon="11.631813500175609"><ele>5.0</ele><time>2026-04-24T10:50:45Z</time></trkpt><trkpt lat="44.673398888096564" lon="11.63199486436174"><ele>5.0</ele><time>2026-04-24T10:50:46Z</time></trkpt><trkpt lat="44.673223530707354" lon="11.632176852020626"><ele>5.0</ele><time>2026-04-24T10:50:47Z</time></trkpt><trkpt lat="44.67304636637431" lon="11.632354859506384"><ele>5.0</ele><time>2026-04-24T10:50:48Z</time></trkpt><trkpt lat="44.672871049033894" lon="11.632528357064517"><ele>5.0</ele><time>2026-04-24T10:50:49Z</time></trkpt><trkpt lat="44.672698020024974" lon="11.632701303689405"><ele>5.0</ele><time>2026-04-24T10:50:50Z</time></trkpt><trkpt lat="44.672525004386394" lon="11.632875737751649"><ele>5.0</ele><time>2026-04-24T10:50:51Z</time></trkpt><trkpt lat="44.67235026690307" lon="11.633051919562178"><ele>5.0</ele><time>2026-04-24T10:50:52Z</time></trkpt><trkpt lat="44.67217372174066" lon="11.633228955661627"><ele>5.0</ele><time>2026-04-24T10:50:53Z</time></trkpt><trkpt lat="44.67199908090015" lon="11.6334052471453"><ele>5.0</ele><time>2026-04-24T10:50:54Z</time></trkpt><trkpt lat="44.67182667728498" lon="11.633583057531693"><ele>5.0</ele><time>2026-04-24T10:50:55Z</time></trkpt><trkpt lat="44.67165448688524" lon="11.633759659986348"><ele>5.0</ele><time>2026-04-24T10:50:56Z</time></trkpt><trkpt lat="44.671480631787254" lon="11.633934854743714"><ele>5.0</ele><time>2026-04-24T10:50:57Z</time></trkpt><trkpt lat="44.671306903072214" lon="11.634111161160739"><ele>5.0</ele><time>2026-04-24T10:50:58Z</time></trkpt><trkpt lat="44.67112949856181" lon="11.634288412424556"><ele>5.0</ele><time>2026-04-24T10:50:59Z</time></trkpt><trkpt lat="44.67095435809979" lon="11.634465480895907"><ele>5.0</ele><time>2026-04-24T10:51:00Z</time></trkpt><trkpt lat="44.670777435245654" lon="11.634638257642578"><ele>5.0</ele><time>2026-04-24T10:51:01Z</time></trkpt><trkpt lat="44.67060134915169" lon="11.634814369413883"><ele>5.0</ele><time>2026-04-24T10:51:02Z</time></trkpt><trkpt lat="44.67042658682789" lon="11.634992440484783"><ele>5.333333333333334</ele><time>2026-04-24T10:51:03Z</time></trkpt><trkpt lat="44.67025400773856" lon="11.635171541448447"><ele>5.666666666666667</ele><time>2026-04-24T10:51:04Z</time></trkpt><trkpt lat="44.67007886796905" lon="11.635351774380432"><ele>6.0</ele><time>2026-04-24T10:51:05Z</time></trkpt><trkpt lat="44.66990472268123" lon="11.635527355192258"><ele>6.0</ele><time>2026-04-24T10:51:06Z</time></trkpt><trkpt lat="44.66973041943089" lon="11.635699641605761"><ele>6.0</ele><time>2026-04-24T10:51:07Z</time></trkpt><trkpt lat="44.66955782763337" lon="11.635875500491837"><ele>6.0</ele><time>2026-04-24T10:51:08Z</time></trkpt><trkpt lat="44.66938211834086" lon="11.636049783230844"><ele>6.0</ele><time>2026-04-24T10:51:09Z</time></trkpt><trkpt lat="44.669209912123776" lon="11.636223720487758"><ele>6.0</ele><time>2026-04-24T10:51:10Z</time></trkpt><trkpt lat="44.669036817990964" lon="11.636401613052774"><ele>6.0</ele><time>2026-04-24T10:51:11Z</time></trkpt><trkpt lat="44.668864298534125" lon="11.636580064873344"><ele>6.0</ele><time>2026-04-24T10:51:12Z</time></trkpt><trkpt lat="44.66869135089933" lon="11.636758330844687"><ele>6.0</ele><time>2026-04-24T10:51:13Z</time></trkpt><trkpt lat="44.668518577277446" lon="11.636932729798852"><ele>6.0</ele><time>2026-04-24T10:51:14Z</time></trkpt><trkpt lat="44.66834307277946" lon="11.637108808920772"><ele>6.333333333333334</ele><time>2026-04-24T10:51:15Z</time></trkpt><trkpt lat="44.668168410561904" lon="11.637286674854867"><ele>6.666666666666667</ele><time>2026-04-24T10:51:16Z</time></trkpt><trkpt lat="44.66799600969561" lon="11.637464908847544"><ele>7.0</ele><time>2026-04-24T10:51:17Z</time></trkpt><trkpt lat="44.66782187442686" lon="11.637639382203087"><ele>7.0</ele><time>2026-04-24T10:51:18Z</time></trkpt><trkpt lat="44.667647700012886" lon="11.637813461288474"><ele>7.0</ele><time>2026-04-24T10:51:19Z</time></trkpt><trkpt lat="44.66747552470356" lon="11.637990108257151"><ele>7.0</ele><time>2026-04-24T10:51:20Z</time></trkpt><trkpt lat="44.667301779318144" lon="11.63816702887524"><ele>7.0</ele><time>2026-04-24T10:51:21Z</time></trkpt><trkpt lat="44.66712385609751" lon="11.638343208712492"><ele>7.0</ele><time>2026-04-24T10:51:22Z</time></trkpt><trkpt lat="44.66695099769555" lon="11.638521347724643"><ele>7.0</ele><time>2026-04-24T10:51:23Z</time></trkpt><trkpt lat="44.66677623456589" lon="11.638698156215922"><ele>7.666666666666667</ele><time>2026-04-24T10:51:24Z</time></trkpt><trkpt lat="44.66660047536399" lon="11.638874632288553"><ele>8.333333333333334</ele><time>2026-04-24T10:51:25Z</time></trkpt><trkpt lat="44.666424156916406" lon="11.639051065871516"><ele>9.0</ele><time>2026-04-24T10:51:26Z</time></trkpt><trkpt lat="44.66624762504151" lon="11.639228225434913"><ele>8.0</ele><time>2026-04-24T10:51:27Z</time></trkpt><trkpt lat="44.66607274618924" lon="11.639406782968445"><ele>7.0</ele><time>2026-04-24T10:51:28Z</time></trkpt><trkpt lat="44.665896872086485" lon="11.639585115073919"><ele>6.0</ele><time>2026-04-24T10:51:29Z</time></trkpt><trkpt lat="44.66572132787535" lon="11.639763050730638"><ele>6.0</ele><time>2026-04-24T10:51:30Z</time></trkpt><trkpt lat="44.66554780358208" lon="11.639938980865795"><ele>6.0</ele><time>2026-04-24T10:51:31Z</time></trkpt><trkpt lat="44.665381261753815" lon="11.64010689171708"><ele>6.0</ele><time>2026-04-24T10:51:32Z</time></trkpt><trkpt lat="44.6652178528581" lon="11.640268223502387"><ele>6.666666666666666</ele><time>2026-04-24T10:51:33Z</time></trkpt><trkpt lat="44.66506054490548" lon="11.640430667678276"><ele>7.333333333333333</ele><time>2026-04-24T10:51:34Z</time></trkpt><trkpt lat="44.66489719056324" lon="11.640595451221717"><ele>8.0</ele><time>2026-04-24T10:51:35Z</time></trkpt><trkpt lat="44.6647318442905" lon="11.640758059433354"><ele>8.0</ele><time>2026-04-24T10:51:36Z</time></trkpt><trkpt lat="44.66456901518704" lon="11.640922895866852"><ele>8.0</ele><time>2026-04-24T10:51:37Z</time></trkpt><trkpt lat="44.664408020959584" lon="11.641085511766791"><ele>8.0</ele><time>2026-04-24T10:51:38Z</time></trkpt><trkpt lat="44.664252892055245" lon="11.641245942636836"><ele>8.333333333333332</ele><time>2026-04-24T10:51:39Z</time></trkpt><trkpt lat="44.66409918779246" lon="11.641402296198562"><ele>8.666666666666666</ele><time>2026-04-24T10:51:40Z</time></trkpt><trkpt lat="44.663945378895306" lon="11.641558740010627"><ele>9.0</ele><time>2026-04-24T10:51:41Z</time></trkpt><trkpt lat="44.663794841780344" lon="11.641710624424732"><ele>9.0</ele><time>2026-04-24T10:51:42Z</time></trkpt><trkpt lat="44.663649245882226" lon="11.641861643227436"><ele>9.0</ele><time>2026-04-24T10:51:43Z</time></trkpt><trkpt lat="44.66350539030107" lon="11.642008595411637"><ele>9.0</ele><time>2026-04-24T10:51:44Z</time></trkpt><trkpt lat="44.663364275766696" lon="11.642157192730668"><ele>8.666666666666666</ele><time>2026-04-24T10:51:45Z</time></trkpt><trkpt lat="44.6632239780307" lon="11.642302328324014"><ele>8.333333333333332</ele><time>2026-04-24T10:51:46Z</time></trkpt><trkpt lat="44.66309107336773" lon="11.642439728592208"><ele>8.0</ele><time>2026-04-24T10:51:47Z</time></trkpt><trkpt lat="44.6629645168944" lon="11.642570619570487"><ele>8.0</ele><time>2026-04-24T10:51:48Z</time></trkpt><trkpt lat="44.66283637894919" lon="11.642701294320954"><ele>8.0</ele><time>2026-04-24T10:51:49Z</time></trkpt><trkpt lat="44.66270908160831" lon="11.642830114418642"><ele>8.0</ele><time>2026-04-24T10:51:50Z</time></trkpt><trkpt lat="44.66258509946494" lon="11.642960384164049"><ele>8.0</ele><time>2026-04-24T10:51:51Z</time></trkpt><trkpt lat="44.66246124584042" lon="11.643086494766163"><ele>8.0</ele><time>2026-04-24T10:51:52Z</time></trkpt><trkpt lat="44.662335248687626" lon="11.643207413654114"><ele>8.0</ele><time>2026-04-24T10:51:53Z</time></trkpt><trkpt lat="44.6622203725969" lon="11.64332434214025"><ele>8.0</ele><time>2026-04-24T10:51:54Z</time></trkpt><trkpt lat="44.662107809855705" lon="11.643437390562617"><ele>8.0</ele><time>2026-04-24T10:51:55Z</time></trkpt><trkpt lat="44.662005219021005" lon="11.64354100399763"><ele>8.0</ele><time>2026-04-24T10:51:56Z</time></trkpt><trkpt lat="44.661912240559644" lon="11.643637747041712"><ele>8.0</ele><time>2026-04-24T10:51:57Z</time></trkpt><trkpt lat="44.6618283402694" lon="11.643730038385879"><ele>8.0</ele><time>2026-04-24T10:51:58Z</time></trkpt><trkpt lat="44.66174740734073" lon="11.643812579121775"><ele>8.0</ele><time>2026-04-24T10:51:59Z</time></trkpt><trkpt lat="44.66166782816312" lon="11.643891863489166"><ele>8.166666666666666</ele><time>2026-04-24T10:52:00Z</time></trkpt><trkpt lat="44.66159672563736" lon="11.643962953181763"><ele>8.333333333333332</ele><time>2026-04-24T10:52:01Z</time></trkpt><trkpt lat="44.661529810544764" lon="11.644025638911785"><ele>8.5</ele><time>2026-04-24T10:52:02Z</time></trkpt><trkpt lat="44.66146472670512" lon="11.644087568479778"><ele>8.666666666666666</ele><time>2026-04-24T10:52:03Z</time></trkpt><trkpt lat="44.66140008908286" lon="11.644146466922923"><ele>8.833333333333334</ele><time>2026-04-24T10:52:04Z</time></trkpt><trkpt lat="44.66133782530854" lon="11.644206375693628"><ele>9.0</ele><time>2026-04-24T10:52:05Z</time></trkpt><trkpt lat="44.66127430777596" lon="11.64427130125779"><ele>9.0</ele><time>2026-04-24T10:52:06Z</time></trkpt><trkpt lat="44.66120663278949" lon="11.644343626284387"><ele>9.0</ele><time>2026-04-24T10:52:07Z</time></trkpt><trkpt lat="44.66113237463286" lon="11.644420159126831"><ele>9.0</ele><time>2026-04-24T10:52:08Z</time></trkpt><trkpt lat="44.66105144133819" lon="11.644500792682708"><ele>9.0</ele><time>2026-04-24T10:52:09Z</time></trkpt><trkpt lat="44.66095614118331" lon="11.644584753809111"><ele>9.0</ele><time>2026-04-24T10:52:10Z</time></trkpt><trkpt lat="44.660848757832625" lon="11.644685823828452"><ele>8.666666666666666</ele><time>2026-04-24T10:52:11Z</time></trkpt><trkpt lat="44.66073368819883" lon="11.64480369086587"><ele>8.333333333333332</ele><time>2026-04-24T10:52:12Z</time></trkpt><trkpt lat="44.660610931706714" lon="11.64493898738457"><ele>8.0</ele><time>2026-04-24T10:52:13Z</time></trkpt><trkpt lat="44.660474785716666" lon="11.645080525603486"><ele>8.0</ele><time>2026-04-24T10:52:14Z</time></trkpt><trkpt lat="44.66032491683658" lon="11.645227235800766"><ele>8.0</ele><time>2026-04-24T10:52:15Z</time></trkpt><trkpt lat="44.66017351519346" lon="11.645379928037807"><ele>8.0</ele><time>2026-04-24T10:52:16Z</time></trkpt><trkpt lat="44.660015900742074" lon="11.645536667532744"><ele>8.0</ele><time>2026-04-24T10:52:17Z</time></trkpt><trkpt lat="44.65985561877491" lon="11.645697711162125"><ele>8.0</ele><time>2026-04-24T10:52:18Z</time></trkpt><trkpt lat="44.65969558914605" lon="11.645858949071322"><ele>8.0</ele><time>2026-04-24T10:52:19Z</time></trkpt><trkpt lat="44.65954157780416" lon="11.646017574795701"><ele>8.333333333333332</ele><time>2026-04-24T10:52:20Z</time></trkpt><trkpt lat="44.65938899103388" lon="11.646174399145531"><ele>8.666666666666666</ele><time>2026-04-24T10:52:21Z</time></trkpt><trkpt lat="44.65923738982748" lon="11.646327416517924"><ele>9.0</ele><time>2026-04-24T10:52:22Z</time></trkpt><trkpt lat="44.659080329715685" lon="11.64646321110599"><ele>9.0</ele><time>2026-04-24T10:52:23Z</time></trkpt><trkpt lat="44.658930987376884" lon="11.646614733945183"><ele>9.0</ele><time>2026-04-24T10:52:24Z</time></trkpt><trkpt lat="44.65878823062598" lon="11.64675985920946"><ele>9.0</ele><time>2026-04-24T10:52:25Z</time></trkpt><trkpt lat="44.658655669877106" lon="11.646893630858797"><ele>8.333333333333334</ele><time>2026-04-24T10:52:26Z</time></trkpt><trkpt lat="44.65853568516064" lon="11.647041301449654"><ele>7.666666666666667</ele><time>2026-04-24T10:52:27Z</time></trkpt><trkpt lat="44.658391710596234" lon="11.647175065480964"><ele>7.0</ele><time>2026-04-24T10:52:28Z</time></trkpt><trkpt lat="44.65825196898708" lon="11.64731870663473"><ele>7.0</ele><time>2026-04-24T10:52:29Z</time></trkpt><trkpt lat="44.658109844003555" lon="11.647463522650765"><ele>7.0</ele><time>2026-04-24T10:52:30Z</time></trkpt><trkpt lat="44.6579673841631" lon="11.64760971904212"><ele>7.0</ele><time>2026-04-24T10:52:31Z</time></trkpt><trkpt lat="44.65782810833372" lon="11.647752535654762"><ele>8.333333333333334</ele><time>2026-04-24T10:52:32Z</time></trkpt><trkpt lat="44.65769792984857" lon="11.64788383798807"><ele>9.666666666666666</ele><time>2026-04-24T10:52:33Z</time></trkpt><trkpt lat="44.65757653878375" lon="11.648005655379361"><ele>11.0</ele><time>2026-04-24T10:52:34Z</time></trkpt><trkpt lat="44.65745124512038" lon="11.648107592026435"><ele>11.0</ele><time>2026-04-24T10:52:35Z</time></trkpt><trkpt lat="44.657332841869525" lon="11.64822682493807"><ele>11.0</ele><time>2026-04-24T10:52:36Z</time></trkpt><trkpt lat="44.657222171417835" lon="11.64836336306749"><ele>11.0</ele><time>2026-04-24T10:52:37Z</time></trkpt><trkpt lat="44.65710643772192" lon="11.648476410871947"><ele>11.0</ele><time>2026-04-24T10:52:38Z</time></trkpt><trkpt lat="44.6569979201994" lon="11.648593191475198"><ele>10.666666666666666</ele><time>2026-04-24T10:52:39Z</time></trkpt><trkpt lat="44.65688745096318" lon="11.648719662195827"><ele>10.333333333333334</ele><time>2026-04-24T10:52:40Z</time></trkpt><trkpt lat="44.65678309781367" lon="11.648883668086576"><ele>10.0</ele><time>2026-04-24T10:52:41Z</time></trkpt><trkpt lat="44.656679885503316" lon="11.649076762566363"><ele>10.0</ele><time>2026-04-24T10:52:42Z</time></trkpt><trkpt lat="44.656573630287824" lon="11.649280606310116"><ele>10.0</ele><time>2026-04-24T10:52:43Z</time></trkpt><trkpt lat="44.656463608583294" lon="11.649496736284934"><ele>10.0</ele><time>2026-04-24T10:52:44Z</time></trkpt><trkpt lat="44.65635308689791" lon="11.649713195931067"><ele>9.333333333333334</ele><time>2026-04-24T10:52:45Z</time></trkpt><trkpt lat="44.656240108720844" lon="11.649929715124212"><ele>8.666666666666666</ele><time>2026-04-24T10:52:46Z</time></trkpt><trkpt lat="44.656128153522204" lon="11.650141529504108"><ele>8.0</ele><time>2026-04-24T10:52:47Z</time></trkpt><trkpt lat="44.65601517852118" lon="11.650349013638884"><ele>8.0</ele><time>2026-04-24T10:52:48Z</time></trkpt><trkpt lat="44.65590645058541" lon="11.650544059431512"><ele>8.0</ele><time>2026-04-24T10:52:49Z</time></trkpt><trkpt lat="44.65580475147453" lon="11.650725945420605"><ele>8.0</ele><time>2026-04-24T10:52:50Z</time></trkpt><trkpt lat="44.655709297198634" lon="11.650884914703708"><ele>8.0</ele><time>2026-04-24T10:52:51Z</time></trkpt><trkpt lat="44.65562314064826" lon="11.651038610554616"><ele>8.0</ele><time>2026-04-24T10:52:52Z</time></trkpt><trkpt lat="44.6555356112319" lon="11.651191271030763"><ele>8.0</ele><time>2026-04-24T10:52:53Z</time></trkpt><trkpt lat="44.65544680492733" lon="11.651346002411822"><ele>8.0</ele><time>2026-04-24T10:52:54Z</time></trkpt><trkpt lat="44.655355212937536" lon="11.651518537456019"><ele>8.333333333333332</ele><time>2026-04-24T10:52:55Z</time></trkpt><trkpt lat="44.655264357560604" lon="11.651707968630278"><ele>8.666666666666666</ele><time>2026-04-24T10:52:56Z</time></trkpt><trkpt lat="44.65517220312292" lon="11.651909255564645"><ele>9.0</ele><time>2026-04-24T10:52:57Z</time></trkpt><trkpt lat="44.65508424317473" lon="11.652121930592473"><ele>9.666666666666666</ele><time>2026-04-24T10:52:58Z</time></trkpt><trkpt lat="44.65499217580438" lon="11.652346930009772"><ele>10.333333333333332</ele><time>2026-04-24T10:52:59Z</time></trkpt><trkpt lat="44.65489588118958" lon="11.652566171138243"><ele>11.0</ele><time>2026-04-24T10:53:00Z</time></trkpt><trkpt lat="44.65479834998624" lon="11.652777763405423"><ele>10.666666666666666</ele><time>2026-04-24T10:53:01Z</time></trkpt><trkpt lat="44.65468054323172" lon="11.652965835480115"><ele>10.333333333333334</ele><time>2026-04-24T10:53:02Z</time></trkpt><trkpt lat="44.65455838176538" lon="11.653159905446634"><ele>10.0</ele><time>2026-04-24T10:53:03Z</time></trkpt><trkpt lat="44.65444650960014" lon="11.653380938641037"><ele>9.666666666666668</ele><time>2026-04-24T10:53:04Z</time></trkpt><trkpt lat="44.65431219418821" lon="11.65357858150117"><ele>9.333333333333334</ele><time>2026-04-24T10:53:05Z</time></trkpt><trkpt lat="44.654170406626605" lon="11.653777280657449"><ele>9.0</ele><time>2026-04-24T10:53:06Z</time></trkpt><trkpt lat="44.65402535446716" lon="11.65397492985891"><ele>8.666666666666666</ele><time>2026-04-24T10:53:07Z</time></trkpt><trkpt lat="44.65387516657973" lon="11.654126954409621"><ele>8.333333333333332</ele><time>2026-04-24T10:53:08Z</time></trkpt><trkpt lat="44.653750198719926" lon="11.654278148635582"><ele>8.0</ele><time>2026-04-24T10:53:09Z</time></trkpt><trkpt lat="44.653629770188786" lon="11.654407676321876"><ele>7.666666666666666</ele><time>2026-04-24T10:53:10Z</time></trkpt><trkpt lat="44.6535257126289" lon="11.654551418521876"><ele>7.333333333333334</ele><time>2026-04-24T10:53:11Z</time></trkpt><trkpt lat="44.65340665283406" lon="11.654703860370633"><ele>7.0</ele><time>2026-04-24T10:53:12Z</time></trkpt><trkpt lat="44.653284985464246" lon="11.654887827678865"><ele>7.0</ele><time>2026-04-24T10:53:13Z</time></trkpt><trkpt lat="44.65315519444487" lon="11.65509526244871"><ele>7.0</ele><time>2026-04-24T10:53:14Z</time></trkpt><trkpt lat="44.653023083579896" lon="11.655314613543828"><ele>7.0</ele><time>2026-04-24T10:53:15Z</time></trkpt><trkpt lat="44.65288750957044" lon="11.655538778974332"><ele>7.333333333333334</ele><time>2026-04-24T10:53:16Z</time></trkpt><trkpt lat="44.652752435527475" lon="11.655766668291829"><ele>7.666666666666666</ele><time>2026-04-24T10:53:17Z</time></trkpt><trkpt lat="44.652611413138544" lon="11.65600140685514"><ele>8.0</ele><time>2026-04-24T10:53:18Z</time></trkpt><trkpt lat="44.65246820478708" lon="11.656240375857191"><ele>8.0</ele><time>2026-04-24T10:53:19Z</time></trkpt><trkpt lat="44.652326992500434" lon="11.656478930709463"><ele>8.0</ele><time>2026-04-24T10:53:20Z</time></trkpt><trkpt lat="44.652186926656334" lon="11.65670691516877"><ele>8.0</ele><time>2026-04-24T10:53:21Z</time></trkpt><trkpt lat="44.65205196395396" lon="11.656927028118073"><ele>8.333333333333332</ele><time>2026-04-24T10:53:22Z</time></trkpt><trkpt lat="44.65191745774109" lon="11.657149175271972"><ele>8.666666666666666</ele><time>2026-04-24T10:53:23Z</time></trkpt><trkpt lat="44.65178216544495" lon="11.657372831705104"><ele>9.0</ele><time>2026-04-24T10:53:24Z</time></trkpt><trkpt lat="44.65164690217584" lon="11.657594869617721"><ele>9.0</ele><time>2026-04-24T10:53:25Z</time></trkpt><trkpt lat="44.651510279890914" lon="11.657819574148913"><ele>9.0</ele><time>2026-04-24T10:53:26Z</time></trkpt><trkpt lat="44.65137138305958" lon="11.658047232351588"><ele>9.0</ele><time>2026-04-24T10:53:27Z</time></trkpt><trkpt lat="44.65122898492809" lon="11.658281096408674"><ele>8.666666666666666</ele><time>2026-04-24T10:53:28Z</time></trkpt><trkpt lat="44.651086111543826" lon="11.658521012321799"><ele>8.333333333333332</ele><time>2026-04-24T10:53:29Z</time></trkpt><trkpt lat="44.65094146972506" lon="11.658758913679758"><ele>8.0</ele><time>2026-04-24T10:53:30Z</time></trkpt><trkpt lat="44.650799403920175" lon="11.658992183845948"><ele>8.0</ele><time>2026-04-24T10:53:31Z</time></trkpt><trkpt lat="44.650654583866384" lon="11.659222980214583"><ele>8.0</ele><time>2026-04-24T10:53:32Z</time></trkpt><trkpt lat="44.6505130088348" lon="11.659457163938987"><ele>8.0</ele><time>2026-04-24T10:53:33Z</time></trkpt><trkpt lat="44.650370899055126" lon="11.65969330011438"><ele>8.666666666666666</ele><time>2026-04-24T10:53:34Z</time></trkpt><trkpt lat="44.65023033901365" lon="11.659927775983224"><ele>9.333333333333334</ele><time>2026-04-24T10:53:35Z</time></trkpt><trkpt lat="44.65008755962755" lon="11.660160938293311"><ele>10.0</ele><time>2026-04-24T10:53:36Z</time></trkpt><trkpt lat="44.649944267594584" lon="11.660393075472255"><ele>10.333333333333334</ele><time>2026-04-24T10:53:37Z</time></trkpt><trkpt lat="44.64980437571812" lon="11.660623012937023"><ele>10.666666666666666</ele><time>2026-04-24T10:53:38Z</time></trkpt><trkpt lat="44.649662961251394" lon="11.6608544959649"><ele>11.0</ele><time>2026-04-24T10:53:39Z</time></trkpt><trkpt lat="44.649521888377514" lon="11.661089173285852"><ele>10.666666666666666</ele><time>2026-04-24T10:53:40Z</time></trkpt><trkpt lat="44.6493807115083" lon="11.661325838636122"><ele>10.333333333333334</ele><time>2026-04-24T10:53:41Z</time></trkpt><trkpt lat="44.649241594320024" lon="11.661561673741723"><ele>10.0</ele><time>2026-04-24T10:53:42Z</time></trkpt><trkpt lat="44.64910059241362" lon="11.661795333499025"><ele>10.333333333333334</ele><time>2026-04-24T10:53:43Z</time></trkpt><trkpt lat="44.6489541131389" lon="11.662029701078424"><ele>10.666666666666666</ele><time>2026-04-24T10:53:44Z</time></trkpt><trkpt lat="44.648807827799054" lon="11.66226369824956"><ele>11.0</ele><time>2026-04-24T10:53:45Z</time></trkpt><trkpt lat="44.64866219739593" lon="11.662496354249821"><ele>9.666666666666666</ele><time>2026-04-24T10:53:46Z</time></trkpt><trkpt lat="44.64851856572221" lon="11.6627320992659"><ele>8.333333333333334</ele><time>2026-04-24T10:53:47Z</time></trkpt><trkpt lat="44.64837619886316" lon="11.662965714518235"><ele>7.0</ele><time>2026-04-24T10:53:48Z</time></trkpt><trkpt lat="44.648236366345955" lon="11.663197225924273"><ele>6.666666666666667</ele><time>2026-04-24T10:53:49Z</time></trkpt><trkpt lat="44.64809706421016" lon="11.663431440133222"><ele>6.333333333333334</ele><time>2026-04-24T10:53:50Z</time></trkpt><trkpt lat="44.64795914200196" lon="11.663667477441466"><ele>6.0</ele><time>2026-04-24T10:53:51Z</time></trkpt><trkpt lat="44.64781820657536" lon="11.663902884538162"><ele>6.666666666666666</ele><time>2026-04-24T10:53:52Z</time></trkpt><trkpt lat="44.64767608400447" lon="11.664137654324463"><ele>7.333333333333333</ele><time>2026-04-24T10:53:53Z</time></trkpt><trkpt lat="44.64754120953835" lon="11.664370770797762"><ele>8.0</ele><time>2026-04-24T10:53:54Z</time></trkpt><trkpt lat="44.647399881282176" lon="11.66460264992488"><ele>8.0</ele><time>2026-04-24T10:53:55Z</time></trkpt><trkpt lat="44.64725659081938" lon="11.664835444688778"><ele>8.0</ele><time>2026-04-24T10:53:56Z</time></trkpt><trkpt lat="44.64711402962639" lon="11.665067377256705"><ele>8.0</ele><time>2026-04-24T10:53:57Z</time></trkpt><trkpt lat="44.64697373662381" lon="11.665298307196437"><ele>8.333333333333332</ele><time>2026-04-24T10:53:58Z</time></trkpt><trkpt lat="44.646833300122765" lon="11.665530781235748"><ele>8.666666666666666</ele><time>2026-04-24T10:53:59Z</time></trkpt><trkpt lat="44.64669122924891" lon="11.6657631627927"><ele>9.0</ele><time>2026-04-24T10:54:00Z</time></trkpt><trkpt lat="44.646548684736565" lon="11.66599425516505"><ele>9.0</ele><time>2026-04-24T10:54:01Z</time></trkpt><trkpt lat="44.64640764823533" lon="11.666230202740465"><ele>9.0</ele><time>2026-04-24T10:54:02Z</time></trkpt><trkpt lat="44.64626497959042" lon="11.666463093133492"><ele>9.0</ele><time>2026-04-24T10:54:03Z</time></trkpt><trkpt lat="44.646123776089965" lon="11.666698352118834"><ele>9.0</ele><time>2026-04-24T10:54:04Z</time></trkpt><trkpt lat="44.64598731176048" lon="11.666937911062051"><ele>9.0</ele><time>2026-04-24T10:54:05Z</time></trkpt><trkpt lat="44.645847776339465" lon="11.667174136456673"><ele>9.0</ele><time>2026-04-24T10:54:06Z</time></trkpt><trkpt lat="44.6457049176404" lon="11.667406153856513"><ele>9.0</ele><time>2026-04-24T10:54:07Z</time></trkpt><trkpt lat="44.64556334691087" lon="11.667634617759866"><ele>9.0</ele><time>2026-04-24T10:54:08Z</time></trkpt><trkpt lat="44.64542265961487" lon="11.667865638849404"><ele>9.0</ele><time>2026-04-24T10:54:09Z</time></trkpt><trkpt lat="44.645281986956626" lon="11.66809773849123"><ele>8.333333333333334</ele><time>2026-04-24T10:54:10Z</time></trkpt><trkpt lat="44.64513854693553" lon="11.668332991023995"><ele>7.666666666666667</ele><time>2026-04-24T10:54:11Z</time></trkpt><trkpt lat="44.64499986106935" lon="11.66856682026559"><ele>7.0</ele><time>2026-04-24T10:54:12Z</time></trkpt><trkpt lat="44.64486116640126" lon="11.668803538003695"><ele>6.666666666666667</ele><time>2026-04-24T10:54:13Z</time></trkpt><trkpt lat="44.64472209210547" lon="11.669040601208303"><ele>6.333333333333334</ele><time>2026-04-24T10:54:14Z</time></trkpt><trkpt lat="44.644587119049675" lon="11.669279286584018"><ele>6.0</ele><time>2026-04-24T10:54:15Z</time></trkpt><trkpt lat="44.6444591658861" lon="11.669525570782001"><ele>6.0</ele><time>2026-04-24T10:54:16Z</time></trkpt><trkpt lat="44.644338917307074" lon="11.66977773170398"><ele>6.0</ele><time>2026-04-24T10:54:17Z</time></trkpt><trkpt lat="44.644221454882846" lon="11.670031897267771"><ele>6.0</ele><time>2026-04-24T10:54:18Z</time></trkpt><trkpt lat="44.64410295987571" lon="11.670287583701494"><ele>5.666666666666667</ele><time>2026-04-24T10:54:19Z</time></trkpt><trkpt lat="44.64398576069401" lon="11.670547710399624"><ele>5.333333333333334</ele><time>2026-04-24T10:54:20Z</time></trkpt><trkpt lat="44.64386974494228" lon="11.67080939513068"><ele>5.0</ele><time>2026-04-24T10:54:21Z</time></trkpt><trkpt lat="44.64375191986155" lon="11.67107124592473"><ele>5.0</ele><time>2026-04-24T10:54:22Z</time></trkpt><trkpt lat="44.64363659764338" lon="11.67133218003224"><ele>5.0</ele><time>2026-04-24T10:54:23Z</time></trkpt><trkpt lat="44.64352694094742" lon="11.671596513338708"><ele>5.0</ele><time>2026-04-24T10:54:24Z</time></trkpt><trkpt lat="44.643423014222094" lon="11.671861034307026"><ele>5.666666666666667</ele><time>2026-04-24T10:54:25Z</time></trkpt><trkpt lat="44.64332045293051" lon="11.672129905260011"><ele>6.333333333333334</ele><time>2026-04-24T10:54:26Z</time></trkpt><trkpt lat="44.643220010237286" lon="11.672402942753704"><ele>7.0</ele><time>2026-04-24T10:54:27Z</time></trkpt><trkpt lat="44.643119154677755" lon="11.67267429535468"><ele>7.0</ele><time>2026-04-24T10:54:28Z</time></trkpt><trkpt lat="44.643016771831896" lon="11.672941898116965"><ele>7.0</ele><time>2026-04-24T10:54:29Z</time></trkpt><trkpt lat="44.642915516941876" lon="11.673214493835566"><ele>7.0</ele><time>2026-04-24T10:54:30Z</time></trkpt><trkpt lat="44.6428137529399" lon="11.673487805301587"><ele>7.666666666666667</ele><time>2026-04-24T10:54:31Z</time></trkpt><trkpt lat="44.64271477115131" lon="11.673761653018378"><ele>8.333333333333334</ele><time>2026-04-24T10:54:32Z</time></trkpt><trkpt lat="44.64262065222545" lon="11.67403795556548"><ele>9.0</ele><time>2026-04-24T10:54:33Z</time></trkpt><trkpt lat="44.642527704205975" lon="11.674316226798732"><ele>9.0</ele><time>2026-04-24T10:54:34Z</time></trkpt><trkpt lat="44.642433248131844" lon="11.674593565759695"><ele>9.0</ele><time>2026-04-24T10:54:35Z</time></trkpt><trkpt lat="44.64233685467465" lon="11.67487102850309"><ele>9.0</ele><time>2026-04-24T10:54:36Z</time></trkpt><trkpt lat="44.64224488613433" lon="11.67514941598546"><ele>8.666666666666666</ele><time>2026-04-24T10:54:37Z</time></trkpt><trkpt lat="44.642154029352994" lon="11.675426654446326"><ele>8.333333333333332</ele><time>2026-04-24T10:54:38Z</time></trkpt><trkpt lat="44.64206227583056" lon="11.675705806356504"><ele>8.0</ele><time>2026-04-24T10:54:39Z</time></trkpt><trkpt lat="44.641970953834345" lon="11.675982113471262"><ele>8.666666666666666</ele><time>2026-04-24T10:54:40Z</time></trkpt><trkpt lat="44.641878308797125" lon="11.676257779352161"><ele>9.333333333333334</ele><time>2026-04-24T10:54:41Z</time></trkpt><trkpt lat="44.64178905119975" lon="11.676534076928245"><ele>10.0</ele><time>2026-04-24T10:54:42Z</time></trkpt><trkpt lat="44.64169837125776" lon="11.676810888156263"><ele>9.333333333333334</ele><time>2026-04-24T10:54:43Z</time></trkpt><trkpt lat="44.64160867945816" lon="11.677090883533914"><ele>8.666666666666666</ele><time>2026-04-24T10:54:44Z</time></trkpt><trkpt lat="44.64151625764083" lon="11.677367517938828"><ele>8.0</ele><time>2026-04-24T10:54:45Z</time></trkpt><trkpt lat="44.64142460242955" lon="11.677644233508957"><ele>6.666666666666666</ele><time>2026-04-24T10:54:46Z</time></trkpt><trkpt lat="44.641334036942844" lon="11.677922897494179"><ele>5.333333333333333</ele><time>2026-04-24T10:54:47Z</time></trkpt><trkpt lat="44.64124521542942" lon="11.678202713119939"><ele>4.0</ele><time>2026-04-24T10:54:48Z</time></trkpt><trkpt lat="44.641150847962734" lon="11.678482417590883"><ele>5.0</ele><time>2026-04-24T10:54:49Z</time></trkpt><trkpt lat="44.64105950564232" lon="11.678762558087135"><ele>6.0</ele><time>2026-04-24T10:54:50Z</time></trkpt><trkpt lat="44.640967890906886" lon="11.679037367813304"><ele>7.0</ele><time>2026-04-24T10:54:51Z</time></trkpt><trkpt lat="44.640876156164055" lon="11.67931270410615"><ele>6.666666666666667</ele><time>2026-04-24T10:54:52Z</time></trkpt><trkpt lat="44.64078666302174" lon="11.679592173225807"><ele>6.333333333333334</ele><time>2026-04-24T10:54:53Z</time></trkpt><trkpt lat="44.64069349692575" lon="11.679872034250057"><ele>6.0</ele><time>2026-04-24T10:54:54Z</time></trkpt><trkpt lat="44.640604111691395" lon="11.680152335151183"><ele>5.666666666666667</ele><time>2026-04-24T10:54:55Z</time></trkpt><trkpt lat="44.64051365176826" lon="11.68043134723426"><ele>5.333333333333334</ele><time>2026-04-24T10:54:56Z</time></trkpt><trkpt lat="44.640424120581166" lon="11.68071214694576"><ele>5.0</ele><time>2026-04-24T10:54:57Z</time></trkpt><trkpt lat="44.640332089332254" lon="11.680988637370117"><ele>5.666666666666667</ele><time>2026-04-24T10:54:58Z</time></trkpt><trkpt lat="44.64023993161161" lon="11.681266081138949"><ele>6.333333333333334</ele><time>2026-04-24T10:54:59Z</time></trkpt><trkpt lat="44.6401518030122" lon="11.681542396712617"><ele>7.0</ele><time>2026-04-24T10:55:00Z</time></trkpt><trkpt lat="44.64005906203884" lon="11.681820864481518"><ele>7.666666666666667</ele><time>2026-04-24T10:55:01Z</time></trkpt><trkpt lat="44.639964179243115" lon="11.682095586440086"><ele>8.333333333333334</ele><time>2026-04-24T10:55:02Z</time></trkpt><trkpt lat="44.63987053733112" lon="11.68237457687692"><ele>9.0</ele><time>2026-04-24T10:55:03Z</time></trkpt><trkpt lat="44.63977747448683" lon="11.682652692802753"><ele>9.0</ele><time>2026-04-24T10:55:04Z</time></trkpt><trkpt lat="44.63968403827684" lon="11.682931316381122"><ele>9.0</ele><time>2026-04-24T10:55:05Z</time></trkpt><trkpt lat="44.63959035675348" lon="11.683211955552355"><ele>9.0</ele><time>2026-04-24T10:55:06Z</time></trkpt><trkpt lat="44.639500636188345" lon="11.683491988889527"><ele>7.666666666666667</ele><time>2026-04-24T10:55:07Z</time></trkpt><trkpt lat="44.63941081846942" lon="11.68376994595496"><ele>6.333333333333334</ele><time>2026-04-24T10:55:08Z</time></trkpt><trkpt lat="44.639323858472025" lon="11.684050810492947"><ele>5.0</ele><time>2026-04-24T10:55:09Z</time></trkpt><trkpt lat="44.639238358058066" lon="11.68431791139842"><ele>5.0</ele><time>2026-04-24T10:55:10Z</time></trkpt><trkpt lat="44.63916329934875" lon="11.684554306652602"><ele>5.0</ele><time>2026-04-24T10:55:11Z</time></trkpt><trkpt lat="44.63909976475875" lon="11.684752878043126"><ele>5.0</ele><time>2026-04-24T10:55:12Z</time></trkpt><trkpt lat="44.63904453670291" lon="11.684918788148677"><ele>5.0</ele><time>2026-04-24T10:55:13Z</time></trkpt><trkpt lat="44.639004715253186" lon="11.68504399127408"><ele>5.0</ele><time>2026-04-24T10:55:14Z</time></trkpt><trkpt lat="44.638965924143534" lon="11.68517983991142"><ele>5.0</ele><time>2026-04-24T10:55:16Z</time></trkpt><trkpt lat="44.63888291335335" lon="11.685138678635433"><ele>5.0</ele><time>2026-04-24T10:55:25Z</time></trkpt><trkpt lat="44.638782806913404" lon="11.684995150111668"><ele>5.0</ele><time>2026-04-24T10:55:27Z</time></trkpt><trkpt lat="44.63871211724704" lon="11.684889262409099"><ele>5.75</ele><time>2026-04-24T10:55:28Z</time></trkpt><trkpt lat="44.638631806910624" lon="11.684768963673857"><ele>6.5</ele><time>2026-04-24T10:55:29Z</time></trkpt><trkpt lat="44.638530553895905" lon="11.684637734091504"><ele>7.25</ele><time>2026-04-24T10:55:30Z</time></trkpt><trkpt lat="44.638439128206656" lon="11.684493513821025"><ele>8.0</ele><time>2026-04-24T10:55:31Z</time></trkpt><trkpt lat="44.63833891211316" lon="11.684340807771123"><ele>8.0</ele><time>2026-04-24T10:55:32Z</time></trkpt><trkpt lat="44.63822668197389" lon="11.684184147734868"><ele>8.0</ele><time>2026-04-24T10:55:33Z</time></trkpt><trkpt lat="44.63811812847462" lon="11.684031857910108"><ele>8.0</ele><time>2026-04-24T10:55:34Z</time></trkpt><trkpt lat="44.63800811275281" lon="11.683867164288861"><ele>8.0</ele><time>2026-04-24T10:55:35Z</time></trkpt><trkpt lat="44.63789910134951" lon="11.683702725967276"><ele>8.0</ele><time>2026-04-24T10:55:36Z</time></trkpt><trkpt lat="44.637790068337615" lon="11.683546027679661"><ele>8.0</ele><time>2026-04-24T10:55:37Z</time></trkpt><trkpt lat="44.63767833936949" lon="11.683390948573843"><ele>9.0</ele><time>2026-04-24T10:55:38Z</time></trkpt><trkpt lat="44.637569369094344" lon="11.683232328321964"><ele>10.0</ele><time>2026-04-24T10:55:39Z</time></trkpt><trkpt lat="44.63746265964196" lon="11.683072338904696"><ele>11.0</ele><time>2026-04-24T10:55:40Z</time></trkpt><trkpt lat="44.637353596570215" lon="11.68291856508657"><ele>11.0</ele><time>2026-04-24T10:55:41Z</time></trkpt><trkpt lat="44.637240120675216" lon="11.682765705922264"><ele>11.0</ele><time>2026-04-24T10:55:42Z</time></trkpt><trkpt lat="44.637130806486915" lon="11.682614259653214"><ele>11.0</ele><time>2026-04-24T10:55:43Z</time></trkpt><trkpt lat="44.637024777517" lon="11.682458017065734"><ele>11.0</ele><time>2026-04-24T10:55:44Z</time></trkpt><trkpt lat="44.63692011824024" lon="11.682307455881547"><ele>11.0</ele><time>2026-04-24T10:55:45Z</time></trkpt><trkpt lat="44.63680859660177" lon="11.682153188857075"><ele>11.0</ele><time>2026-04-24T10:55:46Z</time></trkpt><trkpt lat="44.63669756303283" lon="11.68199684920903"><ele>10.666666666666666</ele><time>2026-04-24T10:55:47Z</time></trkpt><trkpt lat="44.636589408133396" lon="11.681837305330404"><ele>10.333333333333334</ele><time>2026-04-24T10:55:48Z</time></trkpt><trkpt lat="44.63648363188915" lon="11.681669841033733"><ele>10.0</ele><time>2026-04-24T10:55:49Z</time></trkpt><trkpt lat="44.636381286277114" lon="11.681500301618753"><ele>10.0</ele><time>2026-04-24T10:55:50Z</time></trkpt><trkpt lat="44.636278231144594" lon="11.681327472659829"><ele>10.0</ele><time>2026-04-24T10:55:51Z</time></trkpt><trkpt lat="44.6361766024041" lon="11.681154380994847"><ele>10.0</ele><time>2026-04-24T10:55:52Z</time></trkpt><trkpt lat="44.63607922294262" lon="11.680979760390708"><ele>8.666666666666668</ele><time>2026-04-24T10:55:53Z</time></trkpt><trkpt lat="44.63598345906276" lon="11.680804851075662"><ele>7.333333333333334</ele><time>2026-04-24T10:55:54Z</time></trkpt><trkpt lat="44.63588498182292" lon="11.680628288196429"><ele>6.0</ele><time>2026-04-24T10:55:55Z</time></trkpt><trkpt lat="44.635785023519716" lon="11.68044189574272"><ele>5.666666666666667</ele><time>2026-04-24T10:55:56Z</time></trkpt><trkpt lat="44.63568449060257" lon="11.68025617001612"><ele>5.333333333333334</ele><time>2026-04-24T10:55:57Z</time></trkpt><trkpt lat="44.635581995911046" lon="11.680063795949602"><ele>5.0</ele><time>2026-04-24T10:55:58Z</time></trkpt><trkpt lat="44.63547669298337" lon="11.679873044683251"><ele>5.0</ele><time>2026-04-24T10:55:59Z</time></trkpt><trkpt lat="44.63536635129881" lon="11.679682037831071"><ele>5.0</ele><time>2026-04-24T10:56:00Z</time></trkpt><trkpt lat="44.63525958249144" lon="11.679495827525953"><ele>5.0</ele><time>2026-04-24T10:56:01Z</time></trkpt><trkpt lat="44.63515558037111" lon="11.679311983201915"><ele>4.666666666666667</ele><time>2026-04-24T10:56:02Z</time></trkpt><trkpt lat="44.635057177244725" lon="11.679130779736292"><ele>4.333333333333333</ele><time>2026-04-24T10:56:03Z</time></trkpt><trkpt lat="44.63495727145165" lon="11.678959048261595"><ele>4.0</ele><time>2026-04-24T10:56:04Z</time></trkpt><trkpt lat="44.634857460713484" lon="11.678779552020451"><ele>4.0</ele><time>2026-04-24T10:56:05Z</time></trkpt><trkpt lat="44.634755920357094" lon="11.678591523543709"><ele>4.0</ele><time>2026-04-24T10:56:06Z</time></trkpt><trkpt lat="44.63465067543119" lon="11.678400971199752"><ele>4.0</ele><time>2026-04-24T10:56:07Z</time></trkpt><trkpt lat="44.63454689702712" lon="11.678214898009522"><ele>4.333333333333333</ele><time>2026-04-24T10:56:08Z</time></trkpt><trkpt lat="44.63444626676859" lon="11.67803024869255"><ele>4.666666666666667</ele><time>2026-04-24T10:56:09Z</time></trkpt><trkpt lat="44.63434707110193" lon="11.677849494575902"><ele>5.0</ele><time>2026-04-24T10:56:10Z</time></trkpt><trkpt lat="44.634244866507004" lon="11.677671878493966"><ele>5.0</ele><time>2026-04-24T10:56:11Z</time></trkpt><trkpt lat="44.63414398945452" lon="11.677495767553726"><ele>5.0</ele><time>2026-04-24T10:56:12Z</time></trkpt><trkpt lat="44.63404486824299" lon="11.677317732977588"><ele>5.0</ele><time>2026-04-24T10:56:13Z</time></trkpt><trkpt lat="44.63394726123498" lon="11.677139251233923"><ele>5.0</ele><time>2026-04-24T10:56:14Z</time></trkpt><trkpt lat="44.63384722529981" lon="11.676959245624815"><ele>5.0</ele><time>2026-04-24T10:56:15Z</time></trkpt><trkpt lat="44.63374648724323" lon="11.676783848544462"><ele>5.0</ele><time>2026-04-24T10:56:16Z</time></trkpt><trkpt lat="44.633647967391546" lon="11.676609586831363"><ele>5.0</ele><time>2026-04-24T10:56:17Z</time></trkpt><trkpt lat="44.633552040560176" lon="11.676442747841765"><ele>5.0</ele><time>2026-04-24T10:56:18Z</time></trkpt><trkpt lat="44.63345988012547" lon="11.676282136285497"><ele>5.0</ele><time>2026-04-24T10:56:19Z</time></trkpt><trkpt lat="44.63337090336388" lon="11.676129435938272"><ele>5.0</ele><time>2026-04-24T10:56:20Z</time></trkpt><trkpt lat="44.63329396574227" lon="11.675989504578347"><ele>5.0</ele><time>2026-04-24T10:56:21Z</time></trkpt><trkpt lat="44.63322072113499" lon="11.675851882941258"><ele>5.0</ele><time>2026-04-24T10:56:22Z</time></trkpt><trkpt lat="44.633145311568676" lon="11.675703664328717"><ele>5.0</ele><time>2026-04-24T10:56:23Z</time></trkpt><trkpt lat="44.633064067587426" lon="11.675550850534337"><ele>5.0</ele><time>2026-04-24T10:56:24Z</time></trkpt><trkpt lat="44.63298309794301" lon="11.675401601166447"><ele>5.25</ele><time>2026-04-24T10:56:25Z</time></trkpt><trkpt lat="44.63289942242981" lon="11.675259389481825"><ele>5.5</ele><time>2026-04-24T10:56:26Z</time></trkpt><trkpt lat="44.632826745380214" lon="11.675124938588004"><ele>5.75</ele><time>2026-04-24T10:56:27Z</time></trkpt><trkpt lat="44.63275835923779" lon="11.675003930787884"><ele>6.0</ele><time>2026-04-24T10:56:28Z</time></trkpt><trkpt lat="44.63269576551966" lon="11.674891887934647"><ele>6.5</ele><time>2026-04-24T10:56:29Z</time></trkpt><trkpt lat="44.63263473810238" lon="11.674793882394644"><ele>7.0</ele><time>2026-04-24T10:56:30Z</time></trkpt><trkpt lat="44.632578551778025" lon="11.674695258082942"><ele>7.5</ele><time>2026-04-24T10:56:31Z</time></trkpt><trkpt lat="44.632522913633075" lon="11.674602500656025"><ele>8.0</ele><time>2026-04-24T10:56:32Z</time></trkpt><trkpt lat="44.632474780498825" lon="11.674514697001317"><ele>8.5</ele><time>2026-04-24T10:56:33Z</time></trkpt><trkpt lat="44.63243731755184" lon="11.674438410355844"><ele>9.0</ele><time>2026-04-24T10:56:34Z</time></trkpt><trkpt lat="44.632407617845566" lon="11.674359772756256"><ele>9.166666666666666</ele><time>2026-04-24T10:56:36Z</time></trkpt><trkpt lat="44.632384889519926" lon="11.67425653582097"><ele>9.333333333333334</ele><time>2026-04-24T10:56:46Z</time></trkpt><trkpt lat="44.63237319999532" lon="11.674135160093979"><ele>9.5</ele><time>2026-04-24T10:56:48Z</time></trkpt><trkpt lat="44.63232771786449" lon="11.674020121126045"><ele>9.666666666666668</ele><time>2026-04-24T10:56:50Z</time></trkpt><trkpt lat="44.63222445061938" lon="11.673993083101172"><ele>9.833333333333334</ele><time>2026-04-24T10:56:52Z</time></trkpt><trkpt lat="44.63216441560132" lon="11.674036265509143"><ele>10.0</ele><time>2026-04-24T10:56:53Z</time></trkpt><trkpt lat="44.63210300001077" lon="11.674105808359503"><ele>10.0</ele><time>2026-04-24T10:56:54Z</time></trkpt><trkpt lat="44.63204216535718" lon="11.674211067344853"><ele>10.0</ele><time>2026-04-24T10:56:55Z</time></trkpt><trkpt lat="44.631955757778385" lon="11.674333689538194"><ele>10.0</ele><time>2026-04-24T10:56:56Z</time></trkpt><trkpt lat="44.63185405881474" lon="11.67445933386701"><ele>10.0</ele><time>2026-04-24T10:56:57Z</time></trkpt><trkpt lat="44.63175068454999" lon="11.674596684686401"><ele>10.333333333333334</ele><time>2026-04-24T10:56:58Z</time></trkpt><trkpt lat="44.63164612890145" lon="11.674729262879532"><ele>10.666666666666666</ele><time>2026-04-24T10:56:59Z</time></trkpt><trkpt lat="44.63153385874007" lon="11.674867309355632"><ele>11.0</ele><time>2026-04-24T10:57:00Z</time></trkpt><trkpt lat="44.63141441621766" lon="11.675016709492537"><ele>11.0</ele><time>2026-04-24T10:57:01Z</time></trkpt><trkpt lat="44.63127786905581" lon="11.675156295638544"><ele>11.0</ele><time>2026-04-24T10:57:02Z</time></trkpt><trkpt lat="44.63114250235281" lon="11.67531645717405"><ele>11.0</ele><time>2026-04-24T10:57:03Z</time></trkpt><trkpt lat="44.631005542523035" lon="11.675482613190137"><ele>10.666666666666666</ele><time>2026-04-24T10:57:04Z</time></trkpt><trkpt lat="44.63085901526159" lon="11.675649584799036"><ele>10.333333333333334</ele><time>2026-04-24T10:57:05Z</time></trkpt><trkpt lat="44.630722113643934" lon="11.675824604601113"><ele>10.0</ele><time>2026-04-24T10:57:06Z</time></trkpt><trkpt lat="44.630583852230224" lon="11.675972251589823"><ele>10.0</ele><time>2026-04-24T10:57:07Z</time></trkpt><trkpt lat="44.63045539386741" lon="11.676102852863785"><ele>10.0</ele><time>2026-04-24T10:57:08Z</time></trkpt><trkpt lat="44.63032995075802" lon="11.676219442573418"><ele>10.0</ele><time>2026-04-24T10:57:09Z</time></trkpt><trkpt lat="44.630212813375785" lon="11.676323959822108"><ele>10.0</ele><time>2026-04-24T10:57:10Z</time></trkpt><trkpt lat="44.6301078381208" lon="11.676424712327695"><ele>10.0</ele><time>2026-04-24T10:57:11Z</time></trkpt><trkpt lat="44.63000914090846" lon="11.67651081345504"><ele>10.0</ele><time>2026-04-24T10:57:12Z</time></trkpt><trkpt lat="44.629922437098536" lon="11.676599813856152"><ele>10.0</ele><time>2026-04-24T10:57:13Z</time></trkpt><trkpt lat="44.629837182573866" lon="11.676690021558723"><ele>10.0</ele><time>2026-04-24T10:57:14Z</time></trkpt><trkpt lat="44.629755330664054" lon="11.676779725214589"><ele>10.0</ele><time>2026-04-24T10:57:15Z</time></trkpt><trkpt lat="44.62968615159018" lon="11.676864721324096"><ele>9.8</ele><time>2026-04-24T10:57:16Z</time></trkpt><trkpt lat="44.62962741238718" lon="11.676951623846495"><ele>9.6</ele><time>2026-04-24T10:57:17Z</time></trkpt><trkpt lat="44.62957475225579" lon="11.677036928203064"><ele>9.4</ele><time>2026-04-24T10:57:18Z</time></trkpt><trkpt lat="44.6295188748357" lon="11.67713647833296"><ele>9.2</ele><time>2026-04-24T10:57:19Z</time></trkpt><trkpt lat="44.62945671482828" lon="11.677251720442301"><ele>9.0</ele><time>2026-04-24T10:57:20Z</time></trkpt><trkpt lat="44.62940515115935" lon="11.6773754165363"><ele>9.0</ele><time>2026-04-24T10:57:21Z</time></trkpt><trkpt lat="44.62934227391262" lon="11.677534919892933"><ele>9.0</ele><time>2026-04-24T10:57:22Z</time></trkpt><trkpt lat="44.62927916721111" lon="11.677703379952263"><ele>9.0</ele><time>2026-04-24T10:57:23Z</time></trkpt><trkpt lat="44.629218580320135" lon="11.677885594666568"><ele>9.0</ele><time>2026-04-24T10:57:24Z</time></trkpt><trkpt lat="44.629158009049675" lon="11.678080296034407"><ele>8.333333333333334</ele><time>2026-04-24T10:57:25Z</time></trkpt><trkpt lat="44.62909700133669" lon="11.678279815666189"><ele>7.666666666666667</ele><time>2026-04-24T10:57:26Z</time></trkpt><trkpt lat="44.629038242310685" lon="11.678487003157006"><ele>7.0</ele><time>2026-04-24T10:57:27Z</time></trkpt><trkpt lat="44.62897156364882" lon="11.678699129151354"><ele>6.666666666666667</ele><time>2026-04-24T10:57:28Z</time></trkpt><trkpt lat="44.6288948059523" lon="11.67890649082062"><ele>6.333333333333334</ele><time>2026-04-24T10:57:29Z</time></trkpt><trkpt lat="44.62880661209741" lon="11.679101235687066"><ele>6.0</ele><time>2026-04-24T10:57:30Z</time></trkpt><trkpt lat="44.62869209441129" lon="11.67927942610058"><ele>6.333333333333334</ele><time>2026-04-24T10:57:31Z</time></trkpt><trkpt lat="44.62858330432145" lon="11.679481064415565"><ele>6.666666666666667</ele><time>2026-04-24T10:57:32Z</time></trkpt><trkpt lat="44.628467965254174" lon="11.679685045689405"><ele>7.0</ele><time>2026-04-24T10:57:33Z</time></trkpt><trkpt lat="44.62835674697277" lon="11.679900473096664"><ele>7.0</ele><time>2026-04-24T10:57:34Z</time></trkpt><trkpt lat="44.62823198638336" lon="11.680106994582061"><ele>7.0</ele><time>2026-04-24T10:57:35Z</time></trkpt><trkpt lat="44.62811006193909" lon="11.68031226620484"><ele>7.0</ele><time>2026-04-24T10:57:36Z</time></trkpt><trkpt lat="44.62798799729822" lon="11.680519714479942"><ele>6.666666666666667</ele><time>2026-04-24T10:57:37Z</time></trkpt><trkpt lat="44.627868752033706" lon="11.680733580635968"><ele>6.333333333333334</ele><time>2026-04-24T10:57:38Z</time></trkpt><trkpt lat="44.62775112155266" lon="11.680946242087353"><ele>6.0</ele><time>2026-04-24T10:57:39Z</time></trkpt><trkpt lat="44.62763802404387" lon="11.681163864398426"><ele>6.0</ele><time>2026-04-24T10:57:40Z</time></trkpt><trkpt lat="44.62752787053795" lon="11.68137880853171"><ele>6.0</ele><time>2026-04-24T10:57:41Z</time></trkpt><trkpt lat="44.62741970157756" lon="11.681600126473642"><ele>6.0</ele><time>2026-04-24T10:57:42Z</time></trkpt><trkpt lat="44.62731766455789" lon="11.68182940945911"><ele>6.0</ele><time>2026-04-24T10:57:43Z</time></trkpt><trkpt lat="44.62722088970216" lon="11.682065317862767"><ele>6.0</ele><time>2026-04-24T10:57:44Z</time></trkpt><trkpt lat="44.627127262531104" lon="11.682304355157704"><ele>6.0</ele><time>2026-04-24T10:57:45Z</time></trkpt><trkpt lat="44.6270329813327" lon="11.682543914490463"><ele>6.333333333333334</ele><time>2026-04-24T10:57:46Z</time></trkpt><trkpt lat="44.6269303240643" lon="11.682787633708614"><ele>6.666666666666667</ele><time>2026-04-24T10:57:47Z</time></trkpt><trkpt lat="44.626818543927385" lon="11.683033701967782"><ele>7.0</ele><time>2026-04-24T10:57:48Z</time></trkpt><trkpt lat="44.626708618130245" lon="11.683282451527509"><ele>7.0</ele><time>2026-04-24T10:57:49Z</time></trkpt><trkpt lat="44.62659738876462" lon="11.68352512737021"><ele>7.0</ele><time>2026-04-24T10:57:50Z</time></trkpt><trkpt lat="44.626484992206116" lon="11.683757933146502"><ele>7.0</ele><time>2026-04-24T10:57:51Z</time></trkpt><trkpt lat="44.62637106020558" lon="11.683983303453786"><ele>6.5</ele><time>2026-04-24T10:57:52Z</time></trkpt><trkpt lat="44.62614913008837" lon="11.68442655956784"><ele>6.0</ele><time>2026-04-24T10:57:54Z</time></trkpt><trkpt lat="44.62603818065522" lon="11.684648163831897"><ele>6.0</ele><time>2026-04-24T10:57:55Z</time></trkpt><trkpt lat="44.625930621376426" lon="11.68487042865571"><ele>6.0</ele><time>2026-04-24T10:57:56Z</time></trkpt><trkpt lat="44.62583418195411" lon="11.685099029716996"><ele>6.0</ele><time>2026-04-24T10:57:57Z</time></trkpt><trkpt lat="44.62574312974576" lon="11.685309551971645"><ele>6.0</ele><time>2026-04-24T10:57:58Z</time></trkpt><trkpt lat="44.62566149150119" lon="11.685510335901087"><ele>6.0</ele><time>2026-04-24T10:57:59Z</time></trkpt><trkpt lat="44.62558432856004" lon="11.685710954758605"><ele>6.0</ele><time>2026-04-24T10:58:00Z</time></trkpt><trkpt lat="44.62550977393041" lon="11.685912696064293"><ele>6.0</ele><time>2026-04-24T10:58:01Z</time></trkpt><trkpt lat="44.625435706064906" lon="11.686100771170567"><ele>6.0</ele><time>2026-04-24T10:58:02Z</time></trkpt><trkpt lat="44.62535307709079" lon="11.68628700929481"><ele>6.0</ele><time>2026-04-24T10:58:03Z</time></trkpt><trkpt lat="44.62526645891122" lon="11.686466288541375"><ele>6.0</ele><time>2026-04-24T10:58:04Z</time></trkpt><trkpt lat="44.625177235312826" lon="11.686648435607472"><ele>6.0</ele><time>2026-04-24T10:58:05Z</time></trkpt><trkpt lat="44.62509070939086" lon="11.686817542344745"><ele>6.0</ele><time>2026-04-24T10:58:06Z</time></trkpt><trkpt lat="44.625007498423315" lon="11.686969453617317"><ele>6.0</ele><time>2026-04-24T10:58:07Z</time></trkpt><trkpt lat="44.62492242809393" lon="11.687114290679055"><ele>5.8</ele><time>2026-04-24T10:58:08Z</time></trkpt><trkpt lat="44.62484338980739" lon="11.687256523571211"><ele>5.6</ele><time>2026-04-24T10:58:09Z</time></trkpt><trkpt lat="44.62478084160569" lon="11.68737805414793"><ele>5.4</ele><time>2026-04-24T10:58:10Z</time></trkpt><trkpt lat="44.624727480710405" lon="11.687467708178069"><ele>5.2</ele><time>2026-04-24T10:58:11Z</time></trkpt><trkpt lat="44.624674912512866" lon="11.687519234636486"><ele>5.0</ele><time>2026-04-24T10:58:12Z</time></trkpt><trkpt lat="44.624584509083355" lon="11.68753841151012"><ele>4.75</ele><time>2026-04-24T10:58:14Z</time></trkpt><trkpt lat="44.624477718393464" lon="11.687407057470342"><ele>4.5</ele><time>2026-04-24T10:58:15Z</time></trkpt><trkpt lat="44.624363342685236" lon="11.687347676621485"><ele>4.25</ele><time>2026-04-24T10:58:16Z</time></trkpt><trkpt lat="44.62423642585931" lon="11.687257368473318"><ele>4.0</ele><time>2026-04-24T10:58:17Z</time></trkpt><trkpt lat="44.62408880654588" lon="11.687159778755886"><ele>4.0</ele><time>2026-04-24T10:58:18Z</time></trkpt><trkpt lat="44.62392616450488" lon="11.687048668729823"><ele>4.0</ele><time>2026-04-24T10:58:19Z</time></trkpt><trkpt lat="44.62375280815353" lon="11.686951075337555"><ele>4.0</ele><time>2026-04-24T10:58:20Z</time></trkpt><trkpt lat="44.62356818821461" lon="11.686847141149384"><ele>4.0</ele><time>2026-04-24T10:58:21Z</time></trkpt><trkpt lat="44.62337602783305" lon="11.686740195689898"><ele>4.0</ele><time>2026-04-24T10:58:22Z</time></trkpt><trkpt lat="44.62318085852689" lon="11.686636133133513"><ele>4.0</ele><time>2026-04-24T10:58:23Z</time></trkpt><trkpt lat="44.6229830247507" lon="11.686525343677918"><ele>4.333333333333333</ele><time>2026-04-24T10:58:24Z</time></trkpt><trkpt lat="44.62278079074892" lon="11.68641329636978"><ele>4.666666666666667</ele><time>2026-04-24T10:58:25Z</time></trkpt><trkpt lat="44.62257451183222" lon="11.686301740878546"><ele>5.0</ele><time>2026-04-24T10:58:26Z</time></trkpt><trkpt lat="44.622372361439275" lon="11.68619039238614"><ele>4.333333333333334</ele><time>2026-04-24T10:58:27Z</time></trkpt><trkpt lat="44.62217251335224" lon="11.686080042821194"><ele>3.666666666666667</ele><time>2026-04-24T10:58:28Z</time></trkpt><trkpt lat="44.621969465016136" lon="11.68596959510213"><ele>3.0</ele><time>2026-04-24T10:58:29Z</time></trkpt><trkpt lat="44.62176156228268" lon="11.685875122702"><ele>3.0</ele><time>2026-04-24T10:58:30Z</time></trkpt><trkpt lat="44.62155800448831" lon="11.68575481096459"><ele>3.0</ele><time>2026-04-24T10:58:31Z</time></trkpt><trkpt lat="44.62135163650676" lon="11.685639159217022"><ele>3.0</ele><time>2026-04-24T10:58:32Z</time></trkpt><trkpt lat="44.62114526659256" lon="11.68552649195268"><ele>2.6666666666666665</ele><time>2026-04-24T10:58:33Z</time></trkpt><trkpt lat="44.62094227335242" lon="11.685416398751535"><ele>2.333333333333333</ele><time>2026-04-24T10:58:34Z</time></trkpt><trkpt lat="44.620743479890834" lon="11.685307508850583"><ele>2.0</ele><time>2026-04-24T10:58:35Z</time></trkpt><trkpt lat="44.62054743366534" lon="11.68519776438843"><ele>2.333333333333333</ele><time>2026-04-24T10:58:36Z</time></trkpt><trkpt lat="44.62035266897069" lon="11.685084572530677"><ele>2.6666666666666665</ele><time>2026-04-24T10:58:37Z</time></trkpt><trkpt lat="44.62016031865567" lon="11.684980093149086"><ele>3.0</ele><time>2026-04-24T10:58:38Z</time></trkpt><trkpt lat="44.619968048103" lon="11.684875748594987"><ele>3.0</ele><time>2026-04-24T10:58:39Z</time></trkpt><trkpt lat="44.619778444331054" lon="11.684776660668957"><ele>3.0</ele><time>2026-04-24T10:58:40Z</time></trkpt><trkpt lat="44.61959083619168" lon="11.684673847380395"><ele>3.0</ele><time>2026-04-24T10:58:41Z</time></trkpt><trkpt lat="44.6194048213478" lon="11.684572705555839"><ele>3.0</ele><time>2026-04-24T10:58:42Z</time></trkpt><trkpt lat="44.61922097747729" lon="11.684469462520756"><ele>3.0</ele><time>2026-04-24T10:58:43Z</time></trkpt><trkpt lat="44.619033676123415" lon="11.68436353403398"><ele>3.0</ele><time>2026-04-24T10:58:44Z</time></trkpt><trkpt lat="44.61884912855051" lon="11.684257706819016"><ele>3.666666666666667</ele><time>2026-04-24T10:58:45Z</time></trkpt><trkpt lat="44.61866510496924" lon="11.684151682318086"><ele>4.333333333333334</ele><time>2026-04-24T10:58:46Z</time></trkpt><trkpt lat="44.61848228375556" lon="11.684047754628441"><ele>5.0</ele><time>2026-04-24T10:58:47Z</time></trkpt><trkpt lat="44.61830470033941" lon="11.683946514223795"><ele>5.666666666666667</ele><time>2026-04-24T10:58:48Z</time></trkpt><trkpt lat="44.6181308059399" lon="11.683853900599795"><ele>6.333333333333334</ele><time>2026-04-24T10:58:49Z</time></trkpt><trkpt lat="44.61797048803761" lon="11.683768386059914"><ele>7.0</ele><time>2026-04-24T10:58:50Z</time></trkpt><trkpt lat="44.61781889612904" lon="11.683687183321236"><ele>6.5</ele><time>2026-04-24T10:58:51Z</time></trkpt><trkpt lat="44.617675904387525" lon="11.683602312487107"><ele>6.0</ele><time>2026-04-24T10:58:52Z</time></trkpt><trkpt lat="44.61754173187282" lon="11.68351196722179"><ele>5.5</ele><time>2026-04-24T10:58:53Z</time></trkpt><trkpt lat="44.617429699862726" lon="11.683401830005252"><ele>5.0</ele><time>2026-04-24T10:58:54Z</time></trkpt><trkpt lat="44.61733107544118" lon="11.683297127529725"><ele>5.0</ele><time>2026-04-24T10:58:55Z</time></trkpt><trkpt lat="44.6172468560678" lon="11.683216239856794"><ele>5.0</ele><time>2026-04-24T10:58:56Z</time></trkpt><trkpt lat="44.61718921819237" lon="11.683150837084623"><ele>5.0</ele><time>2026-04-24T10:58:57Z</time></trkpt><trkpt lat="44.6171182824938" lon="11.683067235035201"><ele>5.0</ele><time>2026-04-24T10:59:00Z</time></trkpt><trkpt lat="44.61702417772853" lon="11.68326402621891"><ele>5.0</ele><time>2026-04-24T10:59:02Z</time></trkpt><trkpt lat="44.61700331577649" lon="11.68340541364628"><ele>5.666666666666667</ele><time>2026-04-24T10:59:03Z</time></trkpt><trkpt lat="44.61697062172638" lon="11.68358415708896"><ele>6.333333333333334</ele><time>2026-04-24T10:59:04Z</time></trkpt><trkpt lat="44.616921017178456" lon="11.68379739119338"><ele>7.0</ele><time>2026-04-24T10:59:05Z</time></trkpt><trkpt lat="44.61686149346295" lon="11.684048105881"><ele>7.0</ele><time>2026-04-24T10:59:06Z</time></trkpt><trkpt lat="44.616798174258705" lon="11.68430584839338"><ele>7.0</ele><time>2026-04-24T10:59:07Z</time></trkpt><trkpt lat="44.61672959750194" lon="11.68457762467092"><ele>7.0</ele><time>2026-04-24T10:59:08Z</time></trkpt><trkpt lat="44.61665338203464" lon="11.68487330502173"><ele>6.0</ele><time>2026-04-24T10:59:09Z</time></trkpt><trkpt lat="44.61657178006001" lon="11.685186527597109"><ele>5.0</ele><time>2026-04-24T10:59:10Z</time></trkpt><trkpt lat="44.6164837749537" lon="11.68551468304937"><ele>4.0</ele><time>2026-04-24T10:59:11Z</time></trkpt><trkpt lat="44.61639249424592" lon="11.685858683343291"><ele>3.0</ele><time>2026-04-24T10:59:12Z</time></trkpt><trkpt lat="44.616298472213" lon="11.686212763081762"><ele>3.0</ele><time>2026-04-24T10:59:13Z</time></trkpt><trkpt lat="44.616200581572556" lon="11.686569861407921"><ele>3.0</ele><time>2026-04-24T10:59:14Z</time></trkpt><trkpt lat="44.61610740795672" lon="11.686916507513834"><ele>2.0</ele><time>2026-04-24T10:59:15Z</time></trkpt><trkpt lat="44.61601397915015" lon="11.68725084615445"><ele>1.0</ele><time>2026-04-24T10:59:16Z</time></trkpt><trkpt lat="44.61592674775479" lon="11.68758286052296"><ele>2.0</ele><time>2026-04-24T10:59:17Z</time></trkpt><trkpt lat="44.615836736223365" lon="11.687904856473883"><ele>3.0</ele><time>2026-04-24T10:59:18Z</time></trkpt><trkpt lat="44.615751842291246" lon="11.688221703215019"><ele>3.0</ele><time>2026-04-24T10:59:19Z</time></trkpt><trkpt lat="44.61566926860289" lon="11.688532676535946"><ele>3.0</ele><time>2026-04-24T10:59:20Z</time></trkpt><trkpt lat="44.6155858949904" lon="11.688836361346652"><ele>2.5</ele><time>2026-04-24T10:59:21Z</time></trkpt><trkpt lat="44.61550635641384" lon="11.689137261648217"><ele>2.0</ele><time>2026-04-24T10:59:22Z</time></trkpt><trkpt lat="44.61542775275879" lon="11.689431614217106"><ele>2.0</ele><time>2026-04-24T10:59:23Z</time></trkpt><trkpt lat="44.61534738539001" lon="11.689723618007068"><ele>2.0</ele><time>2026-04-24T10:59:24Z</time></trkpt><trkpt lat="44.61526448884255" lon="11.69001379819239"><ele>2.0</ele><time>2026-04-24T10:59:25Z</time></trkpt><trkpt lat="44.615184850566244" lon="11.690304247288449"><ele>2.333333333333333</ele><time>2026-04-24T10:59:26Z</time></trkpt><trkpt lat="44.615107352501134" lon="11.690589688974054"><ele>2.6666666666666665</ele><time>2026-04-24T10:59:27Z</time></trkpt><trkpt lat="44.615029540690074" lon="11.690875780000683"><ele>3.0</ele><time>2026-04-24T10:59:28Z</time></trkpt><trkpt lat="44.614952659791335" lon="11.69115903962668"><ele>3.0</ele><time>2026-04-24T10:59:29Z</time></trkpt><trkpt lat="44.61487434260964" lon="11.691447374732396"><ele>3.0</ele><time>2026-04-24T10:59:30Z</time></trkpt><trkpt lat="44.61479822065893" lon="11.691732695577702"><ele>3.0</ele><time>2026-04-24T10:59:31Z</time></trkpt><trkpt lat="44.61471836526599" lon="11.692015884095824"><ele>3.0</ele><time>2026-04-24T10:59:32Z</time></trkpt><trkpt lat="44.61463621674825" lon="11.692298879476642"><ele>3.0</ele><time>2026-04-24T10:59:33Z</time></trkpt><trkpt lat="44.614556727439286" lon="11.692584054613938"><ele>3.0</ele><time>2026-04-24T10:59:34Z</time></trkpt><trkpt lat="44.61447768255728" lon="11.692871359023973"><ele>2.6666666666666665</ele><time>2026-04-24T10:59:35Z</time></trkpt><trkpt lat="44.614398719253195" lon="11.693157221544762"><ele>2.333333333333333</ele><time>2026-04-24T10:59:36Z</time></trkpt><trkpt lat="44.61432002050016" lon="11.693444013303244"><ele>2.0</ele><time>2026-04-24T10:59:37Z</time></trkpt><trkpt lat="44.61424205320878" lon="11.693724561942192"><ele>2.6666666666666665</ele><time>2026-04-24T10:59:38Z</time></trkpt><trkpt lat="44.61417293365214" lon="11.6939842456055"><ele>3.333333333333333</ele><time>2026-04-24T10:59:39Z</time></trkpt><trkpt lat="44.61410619707129" lon="11.694225782492818"><ele>4.0</ele><time>2026-04-24T10:59:40Z</time></trkpt><trkpt lat="44.61404041699798" lon="11.694438556386572"><ele>4.0</ele><time>2026-04-24T10:59:41Z</time></trkpt><trkpt lat="44.6139621803324" lon="11.694610600848542"><ele>4.0</ele><time>2026-04-24T10:59:42Z</time></trkpt><trkpt lat="44.61386852433379" lon="11.69474087252783"><ele>4.0</ele><time>2026-04-24T10:59:43Z</time></trkpt><trkpt lat="44.613756952099884" lon="11.694825178182953"><ele>4.0</ele><time>2026-04-24T10:59:44Z</time></trkpt><trkpt lat="44.61362739544705" lon="11.694858649261885"><ele>4.0</ele><time>2026-04-24T10:59:45Z</time></trkpt><trkpt lat="44.61350302228261" lon="11.69481745362492"><ele>4.0</ele><time>2026-04-24T10:59:46Z</time></trkpt><trkpt lat="44.61336614363316" lon="11.694740249736846"><ele>4.0</ele><time>2026-04-24T10:59:47Z</time></trkpt><trkpt lat="44.61320463788943" lon="11.694669137505834"><ele>4.0</ele><time>2026-04-24T10:59:48Z</time></trkpt><trkpt lat="44.61302548164362" lon="11.694590524965687"><ele>4.0</ele><time>2026-04-24T10:59:49Z</time></trkpt><trkpt lat="44.6128341643997" lon="11.69450882527646"><ele>4.0</ele><time>2026-04-24T10:59:50Z</time></trkpt><trkpt lat="44.61263464524858" lon="11.694430052252322"><ele>4.0</ele><time>2026-04-24T10:59:51Z</time></trkpt><trkpt lat="44.61243383702278" lon="11.694349560966039"><ele>4.333333333333333</ele><time>2026-04-24T10:59:52Z</time></trkpt><trkpt lat="44.612248256336706" lon="11.69427857236899"><ele>4.666666666666667</ele><time>2026-04-24T10:59:53Z</time></trkpt><trkpt lat="44.61207537978603" lon="11.694211746293124"><ele>5.0</ele><time>2026-04-24T10:59:54Z</time></trkpt><trkpt lat="44.61191610570762" lon="11.694154003994383"><ele>5.0</ele><time>2026-04-24T10:59:55Z</time></trkpt><trkpt lat="44.611769445694605" lon="11.694111121233657"><ele>5.0</ele><time>2026-04-24T10:59:56Z</time></trkpt><trkpt lat="44.61163435654855" lon="11.69409348660045"><ele>5.0</ele><time>2026-04-24T10:59:57Z</time></trkpt><trkpt lat="44.61150731578155" lon="11.694121917687609"><ele>5.0</ele><time>2026-04-24T10:59:58Z</time></trkpt><trkpt lat="44.61137853495057" lon="11.694196763972712"><ele>5.0</ele><time>2026-04-24T10:59:59Z</time></trkpt><trkpt lat="44.61123990224458" lon="11.69430758127887"><ele>5.0</ele><time>2026-04-24T11:00:00Z</time></trkpt><trkpt lat="44.611102721180906" lon="11.694451896687912"><ele>5.0</ele><time>2026-04-24T11:00:01Z</time></trkpt><trkpt lat="44.61096452318628" lon="11.69461562209364"><ele>4.666666666666667</ele><time>2026-04-24T11:00:02Z</time></trkpt><trkpt lat="44.61081912588966" lon="11.694784965533763"><ele>4.333333333333333</ele><time>2026-04-24T11:00:03Z</time></trkpt><trkpt lat="44.61066200257407" lon="11.694965254115262"><ele>4.0</ele><time>2026-04-24T11:00:04Z</time></trkpt><trkpt lat="44.61049788693696" lon="11.695150516427262"><ele>3.333333333333333</ele><time>2026-04-24T11:00:05Z</time></trkpt><trkpt lat="44.61033158831408" lon="11.695350816521987"><ele>2.6666666666666665</ele><time>2026-04-24T11:00:06Z</time></trkpt><trkpt lat="44.6101614748399" lon="11.695547132228578"><ele>2.0</ele><time>2026-04-24T11:00:07Z</time></trkpt><trkpt lat="44.609991574745756" lon="11.695741845899672"><ele>2.0</ele><time>2026-04-24T11:00:08Z</time></trkpt><trkpt lat="44.60981626859732" lon="11.695945788123069"><ele>2.0</ele><time>2026-04-24T11:00:09Z</time></trkpt><trkpt lat="44.60963903789936" lon="11.696147050934444"><ele>4.0</ele><time>2026-04-24T11:00:10Z</time></trkpt><trkpt lat="44.60945893346013" lon="11.696345838416738"><ele>6.0</ele><time>2026-04-24T11:00:11Z</time></trkpt><trkpt lat="44.60927614610042" lon="11.696545162959556"><ele>6.0</ele><time>2026-04-24T11:00:12Z</time></trkpt><trkpt lat="44.60909765834202" lon="11.69674402797306"><ele>6.0</ele><time>2026-04-24T11:00:13Z</time></trkpt><trkpt lat="44.60892207409873" lon="11.696937275763888"><ele>5.333333333333333</ele><time>2026-04-24T11:00:14Z</time></trkpt><trkpt lat="44.6087501324871" lon="11.697129180479273"><ele>4.666666666666666</ele><time>2026-04-24T11:00:15Z</time></trkpt><trkpt lat="44.60858054298853" lon="11.697322806490037"><ele>4.0</ele><time>2026-04-24T11:00:16Z</time></trkpt><trkpt lat="44.60841022015597" lon="11.697513619260592"><ele>4.0</ele><time>2026-04-24T11:00:17Z</time></trkpt><trkpt lat="44.60823813404949" lon="11.697703295917222"><ele>4.0</ele><time>2026-04-24T11:00:18Z</time></trkpt><trkpt lat="44.60806642054081" lon="11.697898024080915"><ele>4.0</ele><time>2026-04-24T11:00:19Z</time></trkpt><trkpt lat="44.607893329250494" lon="11.69809183573982"><ele>5.0</ele><time>2026-04-24T11:00:20Z</time></trkpt><trkpt lat="44.60771977262715" lon="11.69828618526028"><ele>6.0</ele><time>2026-04-24T11:00:21Z</time></trkpt><trkpt lat="44.607547604454716" lon="11.69847455743505"><ele>7.0</ele><time>2026-04-24T11:00:22Z</time></trkpt><trkpt lat="44.60737614518178" lon="11.698665016861238"><ele>7.0</ele><time>2026-04-24T11:00:23Z</time></trkpt><trkpt lat="44.60720193219981" lon="11.698855618219675"><ele>7.0</ele><time>2026-04-24T11:00:24Z</time></trkpt><trkpt lat="44.60702641034569" lon="11.69904550493027"><ele>7.0</ele><time>2026-04-24T11:00:25Z</time></trkpt><trkpt lat="44.60685285063744" lon="11.699238871971803"><ele>6.666666666666667</ele><time>2026-04-24T11:00:26Z</time></trkpt><trkpt lat="44.606680189895464" lon="11.699434004670753"><ele>6.333333333333334</ele><time>2026-04-24T11:00:27Z</time></trkpt><trkpt lat="44.606508841996195" lon="11.699628822577209"><ele>6.0</ele><time>2026-04-24T11:00:28Z</time></trkpt><trkpt lat="44.606338999248834" lon="11.699825166403365"><ele>6.0</ele><time>2026-04-24T11:00:29Z</time></trkpt><trkpt lat="44.606171312815206" lon="11.700018615020518"><ele>6.0</ele><time>2026-04-24T11:00:30Z</time></trkpt><trkpt lat="44.60599928746025" lon="11.700215021253221"><ele>6.0</ele><time>2026-04-24T11:00:31Z</time></trkpt><trkpt lat="44.60582481171794" lon="11.70041305211083"><ele>6.0</ele><time>2026-04-24T11:00:32Z</time></trkpt><trkpt lat="44.605653210356984" lon="11.700604401651184"><ele>6.0</ele><time>2026-04-24T11:00:33Z</time></trkpt><trkpt lat="44.60548155924316" lon="11.70079863844761"><ele>6.0</ele><time>2026-04-24T11:00:34Z</time></trkpt><trkpt lat="44.60531124054362" lon="11.700994891319674"><ele>5.666666666666667</ele><time>2026-04-24T11:00:35Z</time></trkpt><trkpt lat="44.60513812284173" lon="11.701188852142877"><ele>5.333333333333334</ele><time>2026-04-24T11:00:36Z</time></trkpt><trkpt lat="44.604965921323995" lon="11.701383568969518"><ele>5.0</ele><time>2026-04-24T11:00:37Z</time></trkpt><trkpt lat="44.60479532389405" lon="11.701579725835677"><ele>5.0</ele><time>2026-04-24T11:00:38Z</time></trkpt><trkpt lat="44.60462516619366" lon="11.701774597762174"><ele>5.0</ele><time>2026-04-24T11:00:39Z</time></trkpt><trkpt lat="44.604454870310896" lon="11.701970520903252"><ele>5.0</ele><time>2026-04-24T11:00:40Z</time></trkpt><trkpt lat="44.60428392567939" lon="11.7021649583916"><ele>4.666666666666667</ele><time>2026-04-24T11:00:41Z</time></trkpt><trkpt lat="44.60411251351078" lon="11.702358638548754"><ele>4.333333333333333</ele><time>2026-04-24T11:00:42Z</time></trkpt><trkpt lat="44.60394246076239" lon="11.702550375387162"><ele>4.0</ele><time>2026-04-24T11:00:43Z</time></trkpt><trkpt lat="44.60376687982389" lon="11.702737920253247"><ele>3.6666666666666665</ele><time>2026-04-24T11:00:44Z</time></trkpt><trkpt lat="44.603586090308475" lon="11.702919634000997"><ele>3.333333333333333</ele><time>2026-04-24T11:00:45Z</time></trkpt><trkpt lat="44.6033874374203" lon="11.703061155153765"><ele>3.0</ele><time>2026-04-24T11:00:46Z</time></trkpt><trkpt lat="44.603204713456414" lon="11.70323062252752"><ele>3.0</ele><time>2026-04-24T11:00:47Z</time></trkpt><trkpt lat="44.60300941988549" lon="11.703377712049827"><ele>3.0</ele><time>2026-04-24T11:00:48Z</time></trkpt><trkpt lat="44.60281767683464" lon="11.703530971898225"><ele>3.0</ele><time>2026-04-24T11:00:49Z</time></trkpt><trkpt lat="44.60262615337591" lon="11.703681614474021"><ele>3.0</ele><time>2026-04-24T11:00:50Z</time></trkpt><trkpt lat="44.60243623585919" lon="11.703838691444652"><ele>3.0</ele><time>2026-04-24T11:00:51Z</time></trkpt><trkpt lat="44.60224463480789" lon="11.703994793816028"><ele>3.0</ele><time>2026-04-24T11:00:52Z</time></trkpt><trkpt lat="44.60205808019357" lon="11.704157057205114"><ele>3.333333333333333</ele><time>2026-04-24T11:00:53Z</time></trkpt><trkpt lat="44.601879880685594" lon="11.704334470325758"><ele>3.6666666666666665</ele><time>2026-04-24T11:00:54Z</time></trkpt><trkpt lat="44.60171117656454" lon="11.704533851237912"><ele>4.0</ele><time>2026-04-24T11:00:55Z</time></trkpt><trkpt lat="44.60155275748624" lon="11.704747240834891"><ele>4.0</ele><time>2026-04-24T11:00:56Z</time></trkpt><trkpt lat="44.60139958769309" lon="11.704972783266305"><ele>4.0</ele><time>2026-04-24T11:00:57Z</time></trkpt><trkpt lat="44.601247964256316" lon="11.705201605186787"><ele>4.0</ele><time>2026-04-24T11:00:58Z</time></trkpt><trkpt lat="44.60109550052955" lon="11.70542704691798"><ele>4.0</ele><time>2026-04-24T11:00:59Z</time></trkpt><trkpt lat="44.600949978019315" lon="11.70563425099302"><ele>4.0</ele><time>2026-04-24T11:01:00Z</time></trkpt><trkpt lat="44.600813239231066" lon="11.70582667988678"><ele>4.0</ele><time>2026-04-24T11:01:01Z</time></trkpt><trkpt lat="44.60068946725947" lon="11.706005311690953"><ele>4.333333333333333</ele><time>2026-04-24T11:01:02Z</time></trkpt><trkpt lat="44.60057768714212" lon="11.706173758904027"><ele>4.666666666666667</ele><time>2026-04-24T11:01:03Z</time></trkpt><trkpt lat="44.60048167853757" lon="11.706366082171174"><ele>5.0</ele><time>2026-04-24T11:01:04Z</time></trkpt><trkpt lat="44.600400922765274" lon="11.706590125950349"><ele>4.666666666666667</ele><time>2026-04-24T11:01:05Z</time></trkpt><trkpt lat="44.600325855975875" lon="11.706837709185775"><ele>4.333333333333333</ele><time>2026-04-24T11:01:06Z</time></trkpt><trkpt lat="44.600257704548376" lon="11.707102812396956"><ele>4.0</ele><time>2026-04-24T11:01:07Z</time></trkpt><trkpt lat="44.600191600341546" lon="11.707371973888252"><ele>4.0</ele><time>2026-04-24T11:01:08Z</time></trkpt><trkpt lat="44.600123237642485" lon="11.707648668950663"><ele>4.0</ele><time>2026-04-24T11:01:09Z</time></trkpt><trkpt lat="44.60005351730091" lon="11.707933222467183"><ele>4.0</ele><time>2026-04-24T11:01:10Z</time></trkpt><trkpt lat="44.59998148375658" lon="11.708218189396048"><ele>4.0</ele><time>2026-04-24T11:01:11Z</time></trkpt><trkpt lat="44.5999088769766" lon="11.708498431693416"><ele>4.0</ele><time>2026-04-24T11:01:12Z</time></trkpt><trkpt lat="44.59983746635242" lon="11.708777003438824"><ele>4.0</ele><time>2026-04-24T11:01:13Z</time></trkpt><trkpt lat="44.59976645425531" lon="11.709054369838483"><ele>4.0</ele><time>2026-04-24T11:01:14Z</time></trkpt><trkpt lat="44.59969502491825" lon="11.709334694277883"><ele>4.0</ele><time>2026-04-24T11:01:15Z</time></trkpt><trkpt lat="44.59962719336011" lon="11.709614101076166"><ele>4.0</ele><time>2026-04-24T11:01:16Z</time></trkpt><trkpt lat="44.59955215924789" lon="11.709885680712707"><ele>4.0</ele><time>2026-04-24T11:01:17Z</time></trkpt><trkpt lat="44.59947703789815" lon="11.710156462397004"><ele>4.0</ele><time>2026-04-24T11:01:18Z</time></trkpt><trkpt lat="44.5994065663189" lon="11.710429823708916"><ele>4.0</ele><time>2026-04-24T11:01:19Z</time></trkpt><trkpt lat="44.59933826249516" lon="11.710701034002309"><ele>4.333333333333333</ele><time>2026-04-24T11:01:20Z</time></trkpt><trkpt lat="44.59926683220083" lon="11.710966754626059"><ele>4.666666666666667</ele><time>2026-04-24T11:01:21Z</time></trkpt><trkpt lat="44.5991914193678" lon="11.711232561352642"><ele>5.0</ele><time>2026-04-24T11:01:22Z</time></trkpt><trkpt lat="44.599117684835186" lon="11.711494709870149"><ele>5.333333333333334</ele><time>2026-04-24T11:01:23Z</time></trkpt><trkpt lat="44.59904923922615" lon="11.711759190857027"><ele>5.666666666666667</ele><time>2026-04-24T11:01:24Z</time></trkpt><trkpt lat="44.59898343551609" lon="11.712023096177798"><ele>6.0</ele><time>2026-04-24T11:01:25Z</time></trkpt><trkpt lat="44.59892320561446" lon="11.71228468396121"><ele>6.0</ele><time>2026-04-24T11:01:26Z</time></trkpt><trkpt lat="44.59886921323916" lon="11.712550900867797"><ele>6.0</ele><time>2026-04-24T11:01:27Z</time></trkpt><trkpt lat="44.59882441011761" lon="11.71282353109393"><ele>6.0</ele><time>2026-04-24T11:01:28Z</time></trkpt><trkpt lat="44.59877004054381" lon="11.713093435071748"><ele>5.666666666666667</ele><time>2026-04-24T11:01:29Z</time></trkpt><trkpt lat="44.598700657154005" lon="11.713355525204788"><ele>5.333333333333334</ele><time>2026-04-24T11:01:30Z</time></trkpt><trkpt lat="44.5986106412472" lon="11.713588131449425"><ele>5.0</ele><time>2026-04-24T11:01:31Z</time></trkpt><trkpt lat="44.59850943634278" lon="11.71378829222111"><ele>4.75</ele><time>2026-04-24T11:01:32Z</time></trkpt><trkpt lat="44.598404813867496" lon="11.713959205988894"><ele>4.5</ele><time>2026-04-24T11:01:33Z</time></trkpt><trkpt lat="44.598316753045005" lon="11.71409179708017"><ele>4.25</ele><time>2026-04-24T11:01:34Z</time></trkpt><trkpt lat="44.598247599482264" lon="11.714195155526955"><ele>4.0</ele><time>2026-04-24T11:01:35Z</time></trkpt><trkpt lat="44.59819443697397" lon="11.71426073367117"><ele>4.0</ele><time>2026-04-24T11:01:36Z</time></trkpt><trkpt lat="44.59807036221304" lon="11.714246673371859"><ele>4.0</ele><time>2026-04-24T11:01:38Z</time></trkpt><trkpt lat="44.597992471948906" lon="11.714169377401898"><ele>4.0</ele><time>2026-04-24T11:01:39Z</time></trkpt><trkpt lat="44.59789253874662" lon="11.71407738214783"><ele>4.0</ele><time>2026-04-24T11:01:40Z</time></trkpt><trkpt lat="44.597769754996456" lon="11.713992178609752"><ele>5.0</ele><time>2026-04-24T11:01:41Z</time></trkpt><trkpt lat="44.59763775858938" lon="11.713907520055857"><ele>6.0</ele><time>2026-04-24T11:01:42Z</time></trkpt><trkpt lat="44.59749359003966" lon="11.713811488123318"><ele>7.0</ele><time>2026-04-24T11:01:43Z</time></trkpt><trkpt lat="44.59733980677271" lon="11.713709701930636"><ele>7.0</ele><time>2026-04-24T11:01:44Z</time></trkpt><trkpt lat="44.59717348798276" lon="11.71361067163304"><ele>7.0</ele><time>2026-04-24T11:01:45Z</time></trkpt><trkpt lat="44.59699975884171" lon="11.713507571169382"><ele>7.0</ele><time>2026-04-24T11:01:46Z</time></trkpt><trkpt lat="44.59682804504221" lon="11.713403510445149"><ele>6.666666666666667</ele><time>2026-04-24T11:01:47Z</time></trkpt><trkpt lat="44.59665634669683" lon="11.7133001933945"><ele>6.333333333333334</ele><time>2026-04-24T11:01:48Z</time></trkpt><trkpt lat="44.59648797490789" lon="11.7132008962769"><ele>6.0</ele><time>2026-04-24T11:01:49Z</time></trkpt><trkpt lat="44.59631048279421" lon="11.71310298481614"><ele>5.666666666666667</ele><time>2026-04-24T11:01:50Z</time></trkpt><trkpt lat="44.59612542765314" lon="11.71299545019784"><ele>5.333333333333334</ele><time>2026-04-24T11:01:51Z</time></trkpt><trkpt lat="44.59594190422351" lon="11.712887483858905"><ele>5.0</ele><time>2026-04-24T11:01:52Z</time></trkpt><trkpt lat="44.5957546653136" lon="11.712777279471371"><ele>5.333333333333334</ele><time>2026-04-24T11:01:53Z</time></trkpt><trkpt lat="44.595561839511205" lon="11.712664195457194"><ele>5.666666666666667</ele><time>2026-04-24T11:01:54Z</time></trkpt><trkpt lat="44.59537090228692" lon="11.712554997725348"><ele>6.0</ele><time>2026-04-24T11:01:55Z</time></trkpt><trkpt lat="44.595179755553424" lon="11.712445063307978"><ele>5.333333333333333</ele><time>2026-04-24T11:01:56Z</time></trkpt><trkpt lat="44.59498062952816" lon="11.712328735869598"><ele>4.666666666666666</ele><time>2026-04-24T11:01:57Z</time></trkpt><trkpt lat="44.59477771752537" lon="11.71220915584866"><ele>4.0</ele><time>2026-04-24T11:01:58Z</time></trkpt><trkpt lat="44.5945732255958" lon="11.712089342520725"><ele>4.5</ele><time>2026-04-24T11:01:59Z</time></trkpt><trkpt lat="44.594365315110245" lon="11.71195987758977"><ele>5.0</ele><time>2026-04-24T11:02:00Z</time></trkpt><trkpt lat="44.5941674380942" lon="11.711814460921758"><ele>5.0</ele><time>2026-04-24T11:02:01Z</time></trkpt><trkpt lat="44.59398586031534" lon="11.71163924239347"><ele>5.0</ele><time>2026-04-24T11:02:02Z</time></trkpt><trkpt lat="44.593810778907134" lon="11.71145207694167"><ele>5.0</ele><time>2026-04-24T11:02:03Z</time></trkpt><trkpt lat="44.593626467422695" lon="11.711289270079284"><ele>5.0</ele><time>2026-04-24T11:02:04Z</time></trkpt><trkpt lat="44.5934282620739" lon="11.711159121311761"><ele>5.0</ele><time>2026-04-24T11:02:05Z</time></trkpt><trkpt lat="44.59322135821114" lon="11.711042401777936"><ele>5.0</ele><time>2026-04-24T11:02:06Z</time></trkpt><trkpt lat="44.59301845597282" lon="11.71092582372864"><ele>5.333333333333334</ele><time>2026-04-24T11:02:07Z</time></trkpt><trkpt lat="44.5928129468865" lon="11.710805292707265"><ele>5.666666666666667</ele><time>2026-04-24T11:02:08Z</time></trkpt><trkpt lat="44.592608507196566" lon="11.710685845943443"><ele>6.0</ele><time>2026-04-24T11:02:09Z</time></trkpt><trkpt lat="44.59240688429883" lon="11.710566054421681"><ele>6.0</ele><time>2026-04-24T11:02:10Z</time></trkpt><trkpt lat="44.592205501053904" lon="11.710445195860881"><ele>6.0</ele><time>2026-04-24T11:02:11Z</time></trkpt><trkpt lat="44.59200487404693" lon="11.710326725818188"><ele>6.0</ele><time>2026-04-24T11:02:12Z</time></trkpt><trkpt lat="44.5918101391454" lon="11.710209285948284"><ele>6.0</ele><time>2026-04-24T11:02:13Z</time></trkpt><trkpt lat="44.591602334836736" lon="11.710093042063031"><ele>6.0</ele><time>2026-04-24T11:02:14Z</time></trkpt><trkpt lat="44.59139505462502" lon="11.709974764210056"><ele>6.0</ele><time>2026-04-24T11:02:15Z</time></trkpt><trkpt lat="44.591190692349166" lon="11.709860842053148"><ele>6.0</ele><time>2026-04-24T11:02:16Z</time></trkpt><trkpt lat="44.590985606564594" lon="11.709741394131415"><ele>6.0</ele><time>2026-04-24T11:02:17Z</time></trkpt><trkpt lat="44.59078053638343" lon="11.709621129812325"><ele>6.0</ele><time>2026-04-24T11:02:18Z</time></trkpt><trkpt lat="44.590578399222075" lon="11.709497787423583"><ele>5.666666666666667</ele><time>2026-04-24T11:02:19Z</time></trkpt><trkpt lat="44.590376494612556" lon="11.709376886066226"><ele>5.333333333333334</ele><time>2026-04-24T11:02:20Z</time></trkpt><trkpt lat="44.59017163714438" lon="11.709253865450185"><ele>5.0</ele><time>2026-04-24T11:02:21Z</time></trkpt><trkpt lat="44.58996493257326" lon="11.709132784340603"><ele>5.333333333333334</ele><time>2026-04-24T11:02:22Z</time></trkpt><trkpt lat="44.589762476993826" lon="11.709013233525857"><ele>5.666666666666667</ele><time>2026-04-24T11:02:23Z</time></trkpt><trkpt lat="44.58955923009349" lon="11.708891522147015"><ele>6.0</ele><time>2026-04-24T11:02:24Z</time></trkpt><trkpt lat="44.589357830785026" lon="11.708771181422728"><ele>6.0</ele><time>2026-04-24T11:02:25Z</time></trkpt><trkpt lat="44.5891546619342" lon="11.708652043204252"><ele>6.0</ele><time>2026-04-24T11:02:26Z</time></trkpt><trkpt lat="44.58894959122201" lon="11.708528631221773"><ele>6.0</ele><time>2026-04-24T11:02:27Z</time></trkpt><trkpt lat="44.588744330456265" lon="11.708409674716467"><ele>5.666666666666667</ele><time>2026-04-24T11:02:28Z</time></trkpt><trkpt lat="44.58853904826309" lon="11.708292702614944"><ele>5.333333333333334</ele><time>2026-04-24T11:02:29Z</time></trkpt><trkpt lat="44.588337023013786" lon="11.708175682074277"><ele>5.0</ele><time>2026-04-24T11:02:30Z</time></trkpt><trkpt lat="44.58813919196545" lon="11.708033471957876"><ele>5.0</ele><time>2026-04-24T11:02:31Z</time></trkpt><trkpt lat="44.58793830846831" lon="11.707914454555164"><ele>5.0</ele><time>2026-04-24T11:02:32Z</time></trkpt><trkpt lat="44.587735540595396" lon="11.707795277625806"><ele>5.0</ele><time>2026-04-24T11:02:33Z</time></trkpt><trkpt lat="44.58752534014049" lon="11.707696401853186"><ele>5.0</ele><time>2026-04-24T11:02:34Z</time></trkpt><trkpt lat="44.58732705552593" lon="11.707554288350112"><ele>5.0</ele><time>2026-04-24T11:02:35Z</time></trkpt><trkpt lat="44.58712382961108" lon="11.707434053184178"><ele>5.0</ele><time>2026-04-24T11:02:36Z</time></trkpt><trkpt lat="44.58692176053859" lon="11.707315254686439"><ele>5.333333333333334</ele><time>2026-04-24T11:02:37Z</time></trkpt><trkpt lat="44.58671286459887" lon="11.707217062934225"><ele>5.666666666666667</ele><time>2026-04-24T11:02:38Z</time></trkpt><trkpt lat="44.586512002033395" lon="11.707095805626087"><ele>6.0</ele><time>2026-04-24T11:02:39Z</time></trkpt><trkpt lat="44.58630755817266" lon="11.70697148891783"><ele>6.0</ele><time>2026-04-24T11:02:40Z</time></trkpt><trkpt lat="44.58610147583213" lon="11.706852188176255"><ele>6.0</ele><time>2026-04-24T11:02:41Z</time></trkpt><trkpt lat="44.58589705034259" lon="11.706737215216814"><ele>6.0</ele><time>2026-04-24T11:02:42Z</time></trkpt><trkpt lat="44.58569364414431" lon="11.706614691330206"><ele>6.0</ele><time>2026-04-24T11:02:43Z</time></trkpt><trkpt lat="44.58549002536011" lon="11.706493243708938"><ele>6.0</ele><time>2026-04-24T11:02:44Z</time></trkpt><trkpt lat="44.58528710854217" lon="11.70636795838842"><ele>6.0</ele><time>2026-04-24T11:02:45Z</time></trkpt><trkpt lat="44.58508409098817" lon="11.706247516425574"><ele>6.333333333333334</ele><time>2026-04-24T11:02:46Z</time></trkpt><trkpt lat="44.58488020679946" lon="11.706128066515681"><ele>6.666666666666667</ele><time>2026-04-24T11:02:47Z</time></trkpt><trkpt lat="44.584679245899416" lon="11.706008520001912"><ele>7.0</ele><time>2026-04-24T11:02:48Z</time></trkpt><trkpt lat="44.584479796289116" lon="11.705888879194205"><ele>7.0</ele><time>2026-04-24T11:02:49Z</time></trkpt><trkpt lat="44.58427883215798" lon="11.705767469103055"><ele>7.0</ele><time>2026-04-24T11:02:50Z</time></trkpt><trkpt lat="44.584078589704504" lon="11.705643286357446"><ele>7.0</ele><time>2026-04-24T11:02:51Z</time></trkpt><trkpt lat="44.58387656062638" lon="11.705523945700714"><ele>7.0</ele><time>2026-04-24T11:02:52Z</time></trkpt><trkpt lat="44.58367454220386" lon="11.705403992799198"><ele>7.0</ele><time>2026-04-24T11:02:53Z</time></trkpt><trkpt lat="44.58347217406462" lon="11.705286178273502"><ele>7.0</ele><time>2026-04-24T11:02:54Z</time></trkpt><trkpt lat="44.58326849055106" lon="11.705169533549125"><ele>6.666666666666667</ele><time>2026-04-24T11:02:55Z</time></trkpt><trkpt lat="44.58305932436112" lon="11.705067686085632"><ele>6.333333333333334</ele><time>2026-04-24T11:02:56Z</time></trkpt><trkpt lat="44.582849466937716" lon="11.704978007969894"><ele>6.0</ele><time>2026-04-24T11:02:57Z</time></trkpt><trkpt lat="44.58263280129417" lon="11.704907309292231"><ele>6.333333333333334</ele><time>2026-04-24T11:02:58Z</time></trkpt><trkpt lat="44.58241982625977" lon="11.70484192909006"><ele>6.666666666666667</ele><time>2026-04-24T11:02:59Z</time></trkpt><trkpt lat="44.58220574252426" lon="11.704772777993316"><ele>7.0</ele><time>2026-04-24T11:03:00Z</time></trkpt><trkpt lat="44.58198900588759" lon="11.70471990730806"><ele>7.0</ele><time>2026-04-24T11:03:01Z</time></trkpt><trkpt lat="44.58176879164292" lon="11.704685324988523"><ele>7.0</ele><time>2026-04-24T11:03:02Z</time></trkpt><trkpt lat="44.58154902477368" lon="11.704639968289225"><ele>7.0</ele><time>2026-04-24T11:03:03Z</time></trkpt><trkpt lat="44.58132963730806" lon="11.704592203627247"><ele>7.0</ele><time>2026-04-24T11:03:04Z</time></trkpt><trkpt lat="44.58110866376392" lon="11.704547037228654"><ele>7.0</ele><time>2026-04-24T11:03:05Z</time></trkpt><trkpt lat="44.58089111216449" lon="11.70450428106795"><ele>7.0</ele><time>2026-04-24T11:03:06Z</time></trkpt><trkpt lat="44.58067252832418" lon="11.704463358445327"><ele>7.0</ele><time>2026-04-24T11:03:07Z</time></trkpt><trkpt lat="44.5804544771224" lon="11.704420195259582"><ele>7.0</ele><time>2026-04-24T11:03:08Z</time></trkpt><trkpt lat="44.58023837559364" lon="11.704376842633538"><ele>7.0</ele><time>2026-04-24T11:03:09Z</time></trkpt><trkpt lat="44.580019785026394" lon="11.704333694498567"><ele>7.0</ele><time>2026-04-24T11:03:10Z</time></trkpt><trkpt lat="44.579797750074626" lon="11.704288698506081"><ele>7.0</ele><time>2026-04-24T11:03:11Z</time></trkpt><trkpt lat="44.57957515801489" lon="11.704242062922484"><ele>7.0</ele><time>2026-04-24T11:03:12Z</time></trkpt><trkpt lat="44.579357476962635" lon="11.704193690559075"><ele>7.333333333333334</ele><time>2026-04-24T11:03:13Z</time></trkpt><trkpt lat="44.579139471152764" lon="11.704149304864895"><ele>7.666666666666666</ele><time>2026-04-24T11:03:14Z</time></trkpt><trkpt lat="44.57891873812708" lon="11.7041003114382"><ele>8.0</ele><time>2026-04-24T11:03:15Z</time></trkpt><trkpt lat="44.578697980087505" lon="11.704051817124427"><ele>8.0</ele><time>2026-04-24T11:03:16Z</time></trkpt><trkpt lat="44.57847879142869" lon="11.704008352759343"><ele>8.0</ele><time>2026-04-24T11:03:17Z</time></trkpt><trkpt lat="44.578261783575215" lon="11.70396395779921"><ele>8.0</ele><time>2026-04-24T11:03:18Z</time></trkpt><trkpt lat="44.57804396392711" lon="11.703916051642494"><ele>7.333333333333333</ele><time>2026-04-24T11:03:19Z</time></trkpt><trkpt lat="44.577827125109046" lon="11.703869268258416"><ele>6.666666666666666</ele><time>2026-04-24T11:03:20Z</time></trkpt><trkpt lat="44.57760943245228" lon="11.703820310661172"><ele>6.0</ele><time>2026-04-24T11:03:21Z</time></trkpt><trkpt lat="44.577393527248" lon="11.703772608418436"><ele>6.0</ele><time>2026-04-24T11:03:22Z</time></trkpt><trkpt lat="44.57717592106459" lon="11.70372245468343"><ele>6.0</ele><time>2026-04-24T11:03:23Z</time></trkpt><trkpt lat="44.57696273341732" lon="11.703676048021455"><ele>6.0</ele><time>2026-04-24T11:03:24Z</time></trkpt><trkpt lat="44.576763953793034" lon="11.703634990496413"><ele>6.333333333333334</ele><time>2026-04-24T11:03:25Z</time></trkpt><trkpt lat="44.57658048873273" lon="11.703594937293323"><ele>6.666666666666667</ele><time>2026-04-24T11:03:26Z</time></trkpt><trkpt lat="44.576407046408896" lon="11.70355674388059"><ele>7.0</ele><time>2026-04-24T11:03:27Z</time></trkpt><trkpt lat="44.57624217069793" lon="11.703525755260719"><ele>7.0</ele><time>2026-04-24T11:03:28Z</time></trkpt><trkpt lat="44.576087572527435" lon="11.703507477773806"><ele>7.0</ele><time>2026-04-24T11:03:29Z</time></trkpt><trkpt lat="44.57592761864724" lon="11.703516631724757"><ele>7.0</ele><time>2026-04-24T11:03:30Z</time></trkpt><trkpt lat="44.57575511137118" lon="11.703549650096724"><ele>7.0</ele><time>2026-04-24T11:03:31Z</time></trkpt><trkpt lat="44.57539163815436" lon="11.703663737495964"><ele>7.0</ele><time>2026-04-24T11:03:33Z</time></trkpt><trkpt lat="44.575229119203456" lon="11.703714621881426"><ele>7.0</ele><time>2026-04-24T11:03:34Z</time></trkpt><trkpt lat="44.57509470162803" lon="11.703757568113863"><ele>6.999999999999999</ele><time>2026-04-24T11:03:35Z</time></trkpt><trkpt lat="44.57498599625561" lon="11.703794814157966"><ele>6.999999999999999</ele><time>2026-04-24T11:03:36Z</time></trkpt><trkpt lat="44.574905945457445" lon="11.703853092873766"><ele>7.0</ele><time>2026-04-24T11:03:37Z</time></trkpt><trkpt lat="44.57485540602828" lon="11.703955191209161"><ele>7.0</ele><time>2026-04-24T11:03:38Z</time></trkpt><trkpt lat="44.57483565188978" lon="11.704091599451939"><ele>7.0</ele><time>2026-04-24T11:03:39Z</time></trkpt><trkpt lat="44.57483353391357" lon="11.704258279443309"><ele>7.0</ele><time>2026-04-24T11:03:40Z</time></trkpt><trkpt lat="44.57485405178408" lon="11.704445922807556"><ele>7.0</ele><time>2026-04-24T11:03:41Z</time></trkpt><trkpt lat="44.574887997542184" lon="11.704659448518106"><ele>7.0</ele><time>2026-04-24T11:03:42Z</time></trkpt><trkpt lat="44.57492053986829" lon="11.704885995439144"><ele>7.666666666666667</ele><time>2026-04-24T11:03:43Z</time></trkpt><trkpt lat="44.57495269289793" lon="11.70512280265884"><ele>8.333333333333334</ele><time>2026-04-24T11:03:44Z</time></trkpt><trkpt lat="44.57498299992457" lon="11.705341655436868"><ele>9.0</ele><time>2026-04-24T11:03:45Z</time></trkpt><trkpt lat="44.575010544486446" lon="11.705526635959156"><ele>9.333333333333334</ele><time>2026-04-24T11:03:46Z</time></trkpt><trkpt lat="44.5750310168375" lon="11.705672291117361"><ele>9.666666666666666</ele><time>2026-04-24T11:03:47Z</time></trkpt><trkpt lat="44.57504866013945" lon="11.705782896617539"><ele>10.0</ele><time>2026-04-24T11:03:48Z</time></trkpt><trkpt lat="44.575073790456265" lon="11.705878304180173"><ele>10.333333333333332</ele><time>2026-04-24T11:03:50Z</time></trkpt><trkpt lat="44.57501261509597" lon="11.705978952011188"><ele>10.666666666666666</ele><time>2026-04-24T11:03:52Z</time></trkpt><trkpt lat="44.574942557057554" lon="11.706009131845839"><ele>11.0</ele><time>2026-04-24T11:03:53Z</time></trkpt><trkpt lat="44.57485690395363" lon="11.706023700234725"><ele>11.0</ele><time>2026-04-24T11:03:54Z</time></trkpt><trkpt lat="44.57475425112111" lon="11.706039642212732"><ele>11.0</ele><time>2026-04-24T11:03:55Z</time></trkpt><trkpt lat="44.57463187741398" lon="11.706068407426466"><ele>11.0</ele><time>2026-04-24T11:03:56Z</time></trkpt><trkpt lat="44.574512278709506" lon="11.706098204140856"><ele>11.0</ele><time>2026-04-24T11:03:57Z</time></trkpt><trkpt lat="44.57439605021309" lon="11.706126639420532"><ele>10.8</ele><time>2026-04-24T11:03:58Z</time></trkpt><trkpt lat="44.5742956063276" lon="11.706155420321648"><ele>10.600000000000001</ele><time>2026-04-24T11:03:59Z</time></trkpt><trkpt lat="44.57421510593045" lon="11.706183246735655"><ele>10.4</ele><time>2026-04-24T11:04:00Z</time></trkpt><trkpt lat="44.57415544826194" lon="11.706225757825932"><ele>10.2</ele><time>2026-04-24T11:04:01Z</time></trkpt><trkpt lat="44.57413211838152" lon="11.706401904826011"><ele>10.0</ele><time>2026-04-24T11:04:03Z</time></trkpt><trkpt lat="44.57415782758606" lon="11.706537581905721"><ele>10.0</ele><time>2026-04-24T11:04:04Z</time></trkpt><trkpt lat="44.5741919373707" lon="11.70670120643467"><ele>10.0</ele><time>2026-04-24T11:04:05Z</time></trkpt><trkpt lat="44.57421842774959" lon="11.70689545231765"><ele>10.0</ele><time>2026-04-24T11:04:06Z</time></trkpt><trkpt lat="44.57424504037417" lon="11.707116003347949"><ele>10.0</ele><time>2026-04-24T11:04:07Z</time></trkpt><trkpt lat="44.57427391587028" lon="11.707356511376492"><ele>10.333333333333334</ele><time>2026-04-24T11:04:08Z</time></trkpt><trkpt lat="44.57431056475094" lon="11.707614376986571"><ele>10.666666666666666</ele><time>2026-04-24T11:04:09Z</time></trkpt><trkpt lat="44.57434881480164" lon="11.7078621490145"><ele>11.0</ele><time>2026-04-24T11:04:10Z</time></trkpt><trkpt lat="44.57438234848457" lon="11.70807046212882"><ele>11.0</ele><time>2026-04-24T11:04:11Z</time></trkpt><trkpt lat="44.574396582914865" lon="11.708250005773522"><ele>11.0</ele><time>2026-04-24T11:04:12Z</time></trkpt><trkpt lat="44.57437540198978" lon="11.708420637143034"><ele>11.0</ele><time>2026-04-24T11:04:13Z</time></trkpt><trkpt lat="44.57429573779789" lon="11.708561640980568"><ele>11.0</ele><time>2026-04-24T11:04:14Z</time></trkpt><trkpt lat="44.574196325612675" lon="11.708675366007256"><ele>10.0</ele><time>2026-04-24T11:04:15Z</time></trkpt><trkpt lat="44.57407049629591" lon="11.70879435041713"><ele>9.0</ele><time>2026-04-24T11:04:16Z</time></trkpt><trkpt lat="44.57392210338574" lon="11.708930352895369"><ele>8.0</ele><time>2026-04-24T11:04:17Z</time></trkpt><trkpt lat="44.57376546439026" lon="11.709096783979076"><ele>7.666666666666666</ele><time>2026-04-24T11:04:18Z</time></trkpt><trkpt lat="44.57358670697003" lon="11.709253722851283"><ele>7.333333333333334</ele><time>2026-04-24T11:04:19Z</time></trkpt><trkpt lat="44.5734012524885" lon="11.70942054597515"><ele>7.0</ele><time>2026-04-24T11:04:20Z</time></trkpt><trkpt lat="44.573220097469" lon="11.709581014681802"><ele>7.0</ele><time>2026-04-24T11:04:21Z</time></trkpt><trkpt lat="44.57304164067912" lon="11.709741976432811"><ele>7.0</ele><time>2026-04-24T11:04:22Z</time></trkpt><trkpt lat="44.57285834207604" lon="11.709910442791859"><ele>7.0</ele><time>2026-04-24T11:04:23Z</time></trkpt><trkpt lat="44.572671759235675" lon="11.710082997540704"><ele>7.0</ele><time>2026-04-24T11:04:24Z</time></trkpt><trkpt lat="44.57249671367049" lon="11.710246778412593"><ele>7.0</ele><time>2026-04-24T11:04:25Z</time></trkpt><trkpt lat="44.57231813841852" lon="11.710411548301488"><ele>7.0</ele><time>2026-04-24T11:04:26Z</time></trkpt><trkpt lat="44.5721384994877" lon="11.710581580993372"><ele>7.333333333333334</ele><time>2026-04-24T11:04:27Z</time></trkpt><trkpt lat="44.57195483436189" lon="11.710754904885023"><ele>7.666666666666666</ele><time>2026-04-24T11:04:28Z</time></trkpt><trkpt lat="44.57177028087305" lon="11.710926788967745"><ele>8.0</ele><time>2026-04-24T11:04:29Z</time></trkpt><trkpt lat="44.571584132120655" lon="11.711100757649588"><ele>8.0</ele><time>2026-04-24T11:04:30Z</time></trkpt><trkpt lat="44.571398849998054" lon="11.71127247274388"><ele>8.0</ele><time>2026-04-24T11:04:31Z</time></trkpt><trkpt lat="44.571216844046056" lon="11.711442940141971"><ele>8.0</ele><time>2026-04-24T11:04:32Z</time></trkpt><trkpt lat="44.571031467836335" lon="11.711608565073515"><ele>8.333333333333332</ele><time>2026-04-24T11:04:33Z</time></trkpt><trkpt lat="44.57084586929842" lon="11.711774149876671"><ele>8.666666666666666</ele><time>2026-04-24T11:04:34Z</time></trkpt><trkpt lat="44.5706614959782" lon="11.711943994100181"><ele>9.0</ele><time>2026-04-24T11:04:35Z</time></trkpt><trkpt lat="44.5704781098436" lon="11.712115934249473"><ele>9.0</ele><time>2026-04-24T11:04:36Z</time></trkpt><trkpt lat="44.57029582866326" lon="11.712289035265334"><ele>9.0</ele><time>2026-04-24T11:04:37Z</time></trkpt><trkpt lat="44.570111178098834" lon="11.712459500531777"><ele>9.0</ele><time>2026-04-24T11:04:38Z</time></trkpt><trkpt lat="44.56992677658852" lon="11.712629801408907"><ele>8.666666666666666</ele><time>2026-04-24T11:04:39Z</time></trkpt><trkpt lat="44.569741710550154" lon="11.712801205090425"><ele>8.333333333333332</ele><time>2026-04-24T11:04:40Z</time></trkpt><trkpt lat="44.569559109133294" lon="11.712970485148812"><ele>8.0</ele><time>2026-04-24T11:04:41Z</time></trkpt><trkpt lat="44.56937270704142" lon="11.713142492556823"><ele>8.0</ele><time>2026-04-24T11:04:42Z</time></trkpt><trkpt lat="44.56918736023066" lon="11.713312409658592"><ele>8.0</ele><time>2026-04-24T11:04:43Z</time></trkpt><trkpt lat="44.56900217485612" lon="11.713486002805443"><ele>8.0</ele><time>2026-04-24T11:04:44Z</time></trkpt><trkpt lat="44.5688202719207" lon="11.713659108938703"><ele>8.0</ele><time>2026-04-24T11:04:45Z</time></trkpt><trkpt lat="44.56863530579402" lon="11.713832096998422"><ele>8.0</ele><time>2026-04-24T11:04:46Z</time></trkpt><trkpt lat="44.56845060407304" lon="11.714002784821556"><ele>8.0</ele><time>2026-04-24T11:04:47Z</time></trkpt><trkpt lat="44.56826005498021" lon="11.714179045269177"><ele>8.0</ele><time>2026-04-24T11:04:48Z</time></trkpt><trkpt lat="44.56806251932655" lon="11.714364790894043"><ele>8.0</ele><time>2026-04-24T11:04:49Z</time></trkpt><trkpt lat="44.56786650772997" lon="11.714547721491543"><ele>7.5</ele><time>2026-04-24T11:04:50Z</time></trkpt><trkpt lat="44.56766963425946" lon="11.714732109468518"><ele>7.0</ele><time>2026-04-24T11:04:51Z</time></trkpt><trkpt lat="44.56747392261097" lon="11.71491253648171"><ele>7.0</ele><time>2026-04-24T11:04:52Z</time></trkpt><trkpt lat="44.56727982986857" lon="11.715087191742906"><ele>7.0</ele><time>2026-04-24T11:04:53Z</time></trkpt><trkpt lat="44.5670884791673" lon="11.715258192288193"><ele>7.0</ele><time>2026-04-24T11:04:54Z</time></trkpt><trkpt lat="44.5669024886775" lon="11.715428234637939"><ele>7.0</ele><time>2026-04-24T11:04:55Z</time></trkpt><trkpt lat="44.56671805054729" lon="11.715595867875846"><ele>7.0</ele><time>2026-04-24T11:04:56Z</time></trkpt><trkpt lat="44.56653597274966" lon="11.71575826632367"><ele>7.0</ele><time>2026-04-24T11:04:57Z</time></trkpt><trkpt lat="44.56635086887804" lon="11.715917699321578"><ele>7.0</ele><time>2026-04-24T11:04:58Z</time></trkpt><trkpt lat="44.56616355320218" lon="11.716061138030568"><ele>7.0</ele><time>2026-04-24T11:04:59Z</time></trkpt><trkpt lat="44.56597119039163" lon="11.716198004928588"><ele>6.333333333333334</ele><time>2026-04-24T11:05:00Z</time></trkpt><trkpt lat="44.565776592963466" lon="11.716337513226417"><ele>5.666666666666667</ele><time>2026-04-24T11:05:01Z</time></trkpt><trkpt lat="44.565582665665026" lon="11.716482462666816"><ele>5.0</ele><time>2026-04-24T11:05:02Z</time></trkpt><trkpt lat="44.565394128023605" lon="11.71663891209822"><ele>5.0</ele><time>2026-04-24T11:05:03Z</time></trkpt><trkpt lat="44.56520839163186" lon="11.716803320145308"><ele>5.0</ele><time>2026-04-24T11:05:04Z</time></trkpt><trkpt lat="44.56502179539844" lon="11.716974029088355"><ele>5.0</ele><time>2026-04-24T11:05:05Z</time></trkpt><trkpt lat="44.5648329892864" lon="11.71713819588608"><ele>5.333333333333334</ele><time>2026-04-24T11:05:06Z</time></trkpt><trkpt lat="44.56464763386271" lon="11.717304718501014"><ele>5.666666666666667</ele><time>2026-04-24T11:05:07Z</time></trkpt><trkpt lat="44.564463860339934" lon="11.717474876873322"><ele>6.0</ele><time>2026-04-24T11:05:08Z</time></trkpt><trkpt lat="44.56428421541503" lon="11.717642539876978"><ele>5.666666666666667</ele><time>2026-04-24T11:05:09Z</time></trkpt><trkpt lat="44.56410475258501" lon="11.7178132271782"><ele>5.333333333333334</ele><time>2026-04-24T11:05:10Z</time></trkpt><trkpt lat="44.563920431201595" lon="11.717978568586267"><ele>5.0</ele><time>2026-04-24T11:05:11Z</time></trkpt><trkpt lat="44.56373396795081" lon="11.718145258266631"><ele>5.0</ele><time>2026-04-24T11:05:12Z</time></trkpt><trkpt lat="44.56355037134064" lon="11.718312738614062"><ele>5.0</ele><time>2026-04-24T11:05:13Z</time></trkpt><trkpt lat="44.56337493905174" lon="11.718475949891783"><ele>5.0</ele><time>2026-04-24T11:05:14Z</time></trkpt><trkpt lat="44.56321014278702" lon="11.718625608291026"><ele>5.0</ele><time>2026-04-24T11:05:15Z</time></trkpt><trkpt lat="44.56305503868024" lon="11.718765468116748"><ele>5.0</ele><time>2026-04-24T11:05:16Z</time></trkpt><trkpt lat="44.562908395625925" lon="11.718899281742948"><ele>5.0</ele><time>2026-04-24T11:05:17Z</time></trkpt><trkpt lat="44.56276691408512" lon="11.719025351845263"><ele>5.0</ele><time>2026-04-24T11:05:18Z</time></trkpt><trkpt lat="44.56264586132469" lon="11.719136554477215"><ele>5.0</ele><time>2026-04-24T11:05:19Z</time></trkpt><trkpt lat="44.56254302171276" lon="11.719231879429724"><ele>5.0</ele><time>2026-04-24T11:05:20Z</time></trkpt><trkpt lat="44.562447939841114" lon="11.71931884983866"><ele>5.0</ele><time>2026-04-24T11:05:21Z</time></trkpt><trkpt lat="44.562360294448766" lon="11.719403165950927"><ele>5.0</ele><time>2026-04-24T11:05:22Z</time></trkpt><trkpt lat="44.56227884255003" lon="11.719480784348331"><ele>5.0</ele><time>2026-04-24T11:05:23Z</time></trkpt><trkpt lat="44.56219817573352" lon="11.719556005796347"><ele>5.0</ele><time>2026-04-24T11:05:24Z</time></trkpt><trkpt lat="44.562113505900385" lon="11.71962968166652"><ele>5.0</ele><time>2026-04-24T11:05:25Z</time></trkpt><trkpt lat="44.56201318257029" lon="11.719710122767161"><ele>5.0</ele><time>2026-04-24T11:05:26Z</time></trkpt><trkpt lat="44.561904431915806" lon="11.71980537188995"><ele>5.25</ele><time>2026-04-24T11:05:27Z</time></trkpt><trkpt lat="44.561787363030525" lon="11.719912316706331"><ele>5.5</ele><time>2026-04-24T11:05:28Z</time></trkpt><trkpt lat="44.561672694884535" lon="11.720028819672756"><ele>5.75</ele><time>2026-04-24T11:05:29Z</time></trkpt><trkpt lat="44.56154713203951" lon="11.720153740980477"><ele>6.0</ele><time>2026-04-24T11:05:30Z</time></trkpt><trkpt lat="44.56141755556862" lon="11.720277623696687"><ele>6.0</ele><time>2026-04-24T11:05:31Z</time></trkpt><trkpt lat="44.561283073962805" lon="11.720402466852128"><ele>6.0</ele><time>2026-04-24T11:05:32Z</time></trkpt><trkpt lat="44.56116310955497" lon="11.720512464656538"><ele>6.0</ele><time>2026-04-24T11:05:33Z</time></trkpt><trkpt lat="44.56105032957968" lon="11.720621868396462"><ele>6.0</ele><time>2026-04-24T11:05:34Z</time></trkpt><trkpt lat="44.56094273780502" lon="11.720726248915257"><ele>6.6</ele><time>2026-04-24T11:05:35Z</time></trkpt><trkpt lat="44.560841370312104" lon="11.720820430285448"><ele>7.199999999999999</ele><time>2026-04-24T11:05:36Z</time></trkpt><trkpt lat="44.56075187609089" lon="11.72090246902999"><ele>7.800000000000001</ele><time>2026-04-24T11:05:37Z</time></trkpt><trkpt lat="44.56068092753337" lon="11.720968725806783"><ele>8.4</ele><time>2026-04-24T11:05:38Z</time></trkpt><trkpt lat="44.560605449616425" lon="11.721033347861862"><ele>9.0</ele><time>2026-04-24T11:05:40Z</time></trkpt><trkpt lat="44.56062742287011" lon="11.721180033438344"><ele>9.0</ele><time>2026-04-24T11:06:01Z</time></trkpt><trkpt lat="44.56065193770228" lon="11.721267399679363"><ele>9.0</ele><time>2026-04-24T11:06:02Z</time></trkpt><trkpt lat="44.56068168931526" lon="11.721360858124465"><ele>9.0</ele><time>2026-04-24T11:06:03Z</time></trkpt><trkpt lat="44.56071540743602" lon="11.721454134680908"><ele>9.0</ele><time>2026-04-24T11:06:04Z</time></trkpt><trkpt lat="44.560752791484234" lon="11.721555294250969"><ele>9.0</ele><time>2026-04-24T11:06:05Z</time></trkpt><trkpt lat="44.56079019764883" lon="11.72166492877267"><ele>9.0</ele><time>2026-04-24T11:06:06Z</time></trkpt><trkpt lat="44.56082612001733" lon="11.721782385567979"><ele>8.75</ele><time>2026-04-24T11:06:07Z</time></trkpt><trkpt lat="44.560870254190405" lon="11.721922024329988"><ele>8.5</ele><time>2026-04-24T11:06:08Z</time></trkpt><trkpt lat="44.56091861478591" lon="11.722070111530853"><ele>8.25</ele><time>2026-04-24T11:06:09Z</time></trkpt><trkpt lat="44.560967312104346" lon="11.722223816942195"><ele>8.0</ele><time>2026-04-24T11:06:10Z</time></trkpt><trkpt lat="44.561021545737695" lon="11.722384757914115"><ele>8.0</ele><time>2026-04-24T11:06:11Z</time></trkpt><trkpt lat="44.561082039613964" lon="11.722554422055724"><ele>8.0</ele><time>2026-04-24T11:06:12Z</time></trkpt><trkpt lat="44.56114921581791" lon="11.722743157791198"><ele>8.0</ele><time>2026-04-24T11:06:13Z</time></trkpt><trkpt lat="44.561215422779846" lon="11.72294775339941"><ele>8.0</ele><time>2026-04-24T11:06:14Z</time></trkpt><trkpt lat="44.56128369908611" lon="11.723164735931944"><ele>8.0</ele><time>2026-04-24T11:06:15Z</time></trkpt><trkpt lat="44.56135089122539" lon="11.723384823993662"><ele>8.0</ele><time>2026-04-24T11:06:16Z</time></trkpt><trkpt lat="44.561426764847695" lon="11.723620876395469"><ele>8.0</ele><time>2026-04-24T11:06:17Z</time></trkpt><trkpt lat="44.56150911707135" lon="11.723860391414217"><ele>8.0</ele><time>2026-04-24T11:06:18Z</time></trkpt><trkpt lat="44.56159139586149" lon="11.724096425353544"><ele>8.0</ele><time>2026-04-24T11:06:19Z</time></trkpt><trkpt lat="44.561671060482965" lon="11.724328093622946"><ele>8.0</ele><time>2026-04-24T11:06:20Z</time></trkpt><trkpt lat="44.561750918456504" lon="11.724554719559771"><ele>7.666666666666666</ele><time>2026-04-24T11:06:21Z</time></trkpt><trkpt lat="44.561826777122086" lon="11.724777296583426"><ele>7.333333333333334</ele><time>2026-04-24T11:06:22Z</time></trkpt><trkpt lat="44.5618992050287" lon="11.724991926227233"><ele>7.0</ele><time>2026-04-24T11:06:23Z</time></trkpt><trkpt lat="44.56196783561345" lon="11.725207598862758"><ele>6.333333333333334</ele><time>2026-04-24T11:06:24Z</time></trkpt><trkpt lat="44.562038563519835" lon="11.725417278613156"><ele>5.666666666666667</ele><time>2026-04-24T11:06:25Z</time></trkpt><trkpt lat="44.562107770657974" lon="11.725626526394153"><ele>5.0</ele><time>2026-04-24T11:06:26Z</time></trkpt><trkpt lat="44.56217372317664" lon="11.725832177350798"><ele>5.0</ele><time>2026-04-24T11:06:27Z</time></trkpt><trkpt lat="44.562238610438314" lon="11.726038788478926"><ele>5.0</ele><time>2026-04-24T11:06:28Z</time></trkpt><trkpt lat="44.56230014776886" lon="11.726242649018086"><ele>5.0</ele><time>2026-04-24T11:06:29Z</time></trkpt><trkpt lat="44.56236222347683" lon="11.726440778661557"><ele>5.75</ele><time>2026-04-24T11:06:30Z</time></trkpt><trkpt lat="44.56242510992951" lon="11.726618818752018"><ele>6.5</ele><time>2026-04-24T11:06:31Z</time></trkpt><trkpt lat="44.562482576738304" lon="11.72678330277512"><ele>7.25</ele><time>2026-04-24T11:06:32Z</time></trkpt><trkpt lat="44.56253727050587" lon="11.726934774396549"><ele>8.0</ele><time>2026-04-24T11:06:33Z</time></trkpt><trkpt lat="44.562588406885" lon="11.727073956823798"><ele>7.999999999999999</ele><time>2026-04-24T11:06:34Z</time></trkpt><trkpt lat="44.562634842747244" lon="11.727203369340616"><ele>8.0</ele><time>2026-04-24T11:06:35Z</time></trkpt><trkpt lat="44.562667724664216" lon="11.727320483705409"><ele>8.0</ele><time>2026-04-24T11:06:36Z</time></trkpt><trkpt lat="44.56270208522375" lon="11.727426967712212"><ele>8.0</ele><time>2026-04-24T11:06:37Z</time></trkpt><trkpt lat="44.562721692948266" lon="11.727528548253566"><ele>7.999999999999999</ele><time>2026-04-24T11:06:38Z</time></trkpt><trkpt lat="44.562706158837095" lon="11.727629521898745"><ele>8.0</ele><time>2026-04-24T11:06:39Z</time></trkpt><trkpt lat="44.56256044459072" lon="11.727731810307443"><ele>7.75</ele><time>2026-04-24T11:06:41Z</time></trkpt><trkpt lat="44.562466221911265" lon="11.727792482839723"><ele>7.5</ele><time>2026-04-24T11:06:42Z</time></trkpt><trkpt lat="44.56235324261817" lon="11.727862402553644"><ele>7.25</ele><time>2026-04-24T11:06:43Z</time></trkpt><trkpt lat="44.56223018693233" lon="11.727951668049231"><ele>7.0</ele><time>2026-04-24T11:06:44Z</time></trkpt><trkpt lat="44.562091332807874" lon="11.728032974263325"><ele>6.666666666666667</ele><time>2026-04-24T11:06:45Z</time></trkpt><trkpt lat="44.561938912313515" lon="11.728115364494267"><ele>6.333333333333334</ele><time>2026-04-24T11:06:46Z</time></trkpt><trkpt lat="44.56177992993286" lon="11.728206930504806"><ele>6.0</ele><time>2026-04-24T11:06:47Z</time></trkpt><trkpt lat="44.56162099918183" lon="11.72830795822125"><ele>6.0</ele><time>2026-04-24T11:06:48Z</time></trkpt><trkpt lat="44.56144954404752" lon="11.728419769172023"><ele>6.0</ele><time>2026-04-24T11:06:49Z</time></trkpt><trkpt lat="44.56127079622796" lon="11.728527598233821"><ele>6.0</ele><time>2026-04-24T11:06:50Z</time></trkpt><trkpt lat="44.56109097960135" lon="11.728637629827922"><ele>5.333333333333333</ele><time>2026-04-24T11:06:51Z</time></trkpt><trkpt lat="44.560907518277695" lon="11.728749494954952"><ele>4.666666666666666</ele><time>2026-04-24T11:06:52Z</time></trkpt><trkpt lat="44.56071835800945" lon="11.728870523194217"><ele>4.0</ele><time>2026-04-24T11:06:53Z</time></trkpt><trkpt lat="44.56052348632262" lon="11.728993060207754"><ele>4.333333333333333</ele><time>2026-04-24T11:06:54Z</time></trkpt><trkpt lat="44.56032224112469" lon="11.729113401961573"><ele>4.666666666666667</ele><time>2026-04-24T11:06:55Z</time></trkpt><trkpt lat="44.560122562671125" lon="11.729237416116806"><ele>5.0</ele><time>2026-04-24T11:06:56Z</time></trkpt><trkpt lat="44.55991664372814" lon="11.729365706688068"><ele>5.0</ele><time>2026-04-24T11:06:57Z</time></trkpt><trkpt lat="44.559709998753775" lon="11.729496838634068"><ele>5.0</ele><time>2026-04-24T11:06:58Z</time></trkpt><trkpt lat="44.55951128523684" lon="11.729624022731477"><ele>5.0</ele><time>2026-04-24T11:06:59Z</time></trkpt><trkpt lat="44.55931199490383" lon="11.729746277710383"><ele>5.333333333333334</ele><time>2026-04-24T11:07:00Z</time></trkpt><trkpt lat="44.55911619095803" lon="11.729869752619106"><ele>5.666666666666667</ele><time>2026-04-24T11:07:01Z</time></trkpt><trkpt lat="44.55893213290595" lon="11.729984729291651"><ele>6.0</ele><time>2026-04-24T11:07:02Z</time></trkpt><trkpt lat="44.55876058820062" lon="11.730094985461136"><ele>6.333333333333334</ele><time>2026-04-24T11:07:03Z</time></trkpt><trkpt lat="44.55859714008806" lon="11.730194166194918"><ele>6.666666666666667</ele><time>2026-04-24T11:07:04Z</time></trkpt><trkpt lat="44.55844328133231" lon="11.730286834777417"><ele>7.0</ele><time>2026-04-24T11:07:05Z</time></trkpt><trkpt lat="44.558285976158146" lon="11.730385187462927"><ele>7.333333333333334</ele><time>2026-04-24T11:07:06Z</time></trkpt><trkpt lat="44.55812363163103" lon="11.73048627272111"><ele>7.666666666666666</ele><time>2026-04-24T11:07:07Z</time></trkpt><trkpt lat="44.55795474321887" lon="11.730591201236063"><ele>8.0</ele><time>2026-04-24T11:07:08Z</time></trkpt><trkpt lat="44.55778024966155" lon="11.730698455544191"><ele>7.333333333333333</ele><time>2026-04-24T11:07:09Z</time></trkpt><trkpt lat="44.55760136546875" lon="11.730808114261281"><ele>6.666666666666666</ele><time>2026-04-24T11:07:10Z</time></trkpt><trkpt lat="44.557419649844825" lon="11.730923029741383"><ele>6.0</ele><time>2026-04-24T11:07:11Z</time></trkpt><trkpt lat="44.55723351063184" lon="11.731033396378988"><ele>6.0</ele><time>2026-04-24T11:07:12Z</time></trkpt><trkpt lat="44.557047679085514" lon="11.73115114261958"><ele>6.0</ele><time>2026-04-24T11:07:13Z</time></trkpt><trkpt lat="44.556854597728055" lon="11.731269433380264"><ele>6.0</ele><time>2026-04-24T11:07:14Z</time></trkpt><trkpt lat="44.556658230661085" lon="11.731387448536955"><ele>6.0</ele><time>2026-04-24T11:07:15Z</time></trkpt><trkpt lat="44.5564603148357" lon="11.731511296925209"><ele>6.0</ele><time>2026-04-24T11:07:16Z</time></trkpt><trkpt lat="44.556256915289026" lon="11.731635997088668"><ele>6.0</ele><time>2026-04-24T11:07:17Z</time></trkpt><trkpt lat="44.55605159999382" lon="11.731759842457349"><ele>6.0</ele><time>2026-04-24T11:07:18Z</time></trkpt><trkpt lat="44.55584288191741" lon="11.731884969978152"><ele>6.0</ele><time>2026-04-24T11:07:19Z</time></trkpt><trkpt lat="44.5556353286183" lon="11.732015106190037"><ele>6.0</ele><time>2026-04-24T11:07:20Z</time></trkpt><trkpt lat="44.5554302536461" lon="11.732140080563594"><ele>6.0</ele><time>2026-04-24T11:07:21Z</time></trkpt><trkpt lat="44.55523700812861" lon="11.732261088716289"><ele>6.0</ele><time>2026-04-24T11:07:22Z</time></trkpt><trkpt lat="44.55504547499496" lon="11.732384550169872"><ele>5.666666666666667</ele><time>2026-04-24T11:07:23Z</time></trkpt><trkpt lat="44.55485150060377" lon="11.732511402128212"><ele>5.333333333333334</ele><time>2026-04-24T11:07:24Z</time></trkpt><trkpt lat="44.55465542444312" lon="11.73263456025748"><ele>5.0</ele><time>2026-04-24T11:07:25Z</time></trkpt><trkpt lat="44.55445303142508" lon="11.732756497837357"><ele>5.0</ele><time>2026-04-24T11:07:26Z</time></trkpt><trkpt lat="44.55425168874801" lon="11.732880870891709"><ele>5.0</ele><time>2026-04-24T11:07:27Z</time></trkpt><trkpt lat="44.554052610130626" lon="11.733001890516602"><ele>5.0</ele><time>2026-04-24T11:07:28Z</time></trkpt><trkpt lat="44.553857323140356" lon="11.733133588884334"><ele>4.666666666666667</ele><time>2026-04-24T11:07:29Z</time></trkpt><trkpt lat="44.553667991968815" lon="11.733276211667103"><ele>4.333333333333333</ele><time>2026-04-24T11:07:30Z</time></trkpt><trkpt lat="44.55348488548546" lon="11.733443692090752"><ele>4.0</ele><time>2026-04-24T11:07:31Z</time></trkpt><trkpt lat="44.55331069676445" lon="11.733629496432368"><ele>4.0</ele><time>2026-04-24T11:07:32Z</time></trkpt><trkpt lat="44.55314375281886" lon="11.733824370382546"><ele>4.0</ele><time>2026-04-24T11:07:33Z</time></trkpt><trkpt lat="44.55298240682199" lon="11.73403187281061"><ele>4.0</ele><time>2026-04-24T11:07:34Z</time></trkpt><trkpt lat="44.552820873707226" lon="11.73423515846842"><ele>4.666666666666666</ele><time>2026-04-24T11:07:35Z</time></trkpt><trkpt lat="44.552653260997246" lon="11.73443445496558"><ele>5.333333333333333</ele><time>2026-04-24T11:07:36Z</time></trkpt><trkpt lat="44.55248557197196" lon="11.734629456736899"><ele>6.0</ele><time>2026-04-24T11:07:37Z</time></trkpt><trkpt lat="44.55232006166996" lon="11.734824813427174"><ele>6.0</ele><time>2026-04-24T11:07:38Z</time></trkpt><trkpt lat="44.55215395548182" lon="11.735029847629638"><ele>6.0</ele><time>2026-04-24T11:07:39Z</time></trkpt><trkpt lat="44.55198538399897" lon="11.735233387859127"><ele>6.0</ele><time>2026-04-24T11:07:40Z</time></trkpt><trkpt lat="44.55182066436972" lon="11.735433964895735"><ele>6.0</ele><time>2026-04-24T11:07:41Z</time></trkpt><trkpt lat="44.55165317616591" lon="11.735632813489161"><ele>6.0</ele><time>2026-04-24T11:07:42Z</time></trkpt><trkpt lat="44.55148512359083" lon="11.735827778213705"><ele>6.0</ele><time>2026-04-24T11:07:43Z</time></trkpt><trkpt lat="44.551318384379975" lon="11.736024507528503"><ele>6.0</ele><time>2026-04-24T11:07:44Z</time></trkpt><trkpt lat="44.55115135394195" lon="11.73621938168379"><ele>6.0</ele><time>2026-04-24T11:07:45Z</time></trkpt><trkpt lat="44.55098635666095" lon="11.736418442397134"><ele>6.0</ele><time>2026-04-24T11:07:46Z</time></trkpt><trkpt lat="44.55081955565954" lon="11.736617345833096"><ele>6.0</ele><time>2026-04-24T11:07:47Z</time></trkpt><trkpt lat="44.55065301085653" lon="11.73681334289469"><ele>6.0</ele><time>2026-04-24T11:07:48Z</time></trkpt><trkpt lat="44.550487508908176" lon="11.737007348601367"><ele>6.0</ele><time>2026-04-24T11:07:49Z</time></trkpt><trkpt lat="44.550322921661724" lon="11.737205537514315"><ele>6.333333333333334</ele><time>2026-04-24T11:07:50Z</time></trkpt><trkpt lat="44.55015907248113" lon="11.737407056498334"><ele>6.666666666666667</ele><time>2026-04-24T11:07:51Z</time></trkpt><trkpt lat="44.549993202648224" lon="11.737609625811752"><ele>7.0</ele><time>2026-04-24T11:07:52Z</time></trkpt><trkpt lat="44.54982905095397" lon="11.737807892064477"><ele>6.0</ele><time>2026-04-24T11:07:53Z</time></trkpt><trkpt lat="44.54966102320251" lon="11.738004751725452"><ele>5.0</ele><time>2026-04-24T11:07:54Z</time></trkpt><trkpt lat="44.54949651617402" lon="11.738198741580248"><ele>4.0</ele><time>2026-04-24T11:07:55Z</time></trkpt><trkpt lat="44.54932724576829" lon="11.738398917327446"><ele>3.6666666666666665</ele><time>2026-04-24T11:07:56Z</time></trkpt><trkpt lat="44.54915953173663" lon="11.738601832250637"><ele>3.333333333333333</ele><time>2026-04-24T11:07:57Z</time></trkpt><trkpt lat="44.54899299435914" lon="11.738804157785934"><ele>3.0</ele><time>2026-04-24T11:07:58Z</time></trkpt><trkpt lat="44.548826944813854" lon="11.739006087928999"><ele>3.0</ele><time>2026-04-24T11:07:59Z</time></trkpt><trkpt lat="44.54866294071119" lon="11.739204835419189"><ele>3.0</ele><time>2026-04-24T11:08:00Z</time></trkpt><trkpt lat="44.54849830175845" lon="11.739405300871395"><ele>3.0</ele><time>2026-04-24T11:08:01Z</time></trkpt><trkpt lat="44.54833172634014" lon="11.739605281513464"><ele>3.0</ele><time>2026-04-24T11:08:02Z</time></trkpt><trkpt lat="44.54816933362698" lon="11.739806874071757"><ele>3.0</ele><time>2026-04-24T11:08:03Z</time></trkpt><trkpt lat="44.548003918575546" lon="11.74000799022643"><ele>3.0</ele><time>2026-04-24T11:08:04Z</time></trkpt><trkpt lat="44.547839310945676" lon="11.740212125023358"><ele>4.0</ele><time>2026-04-24T11:08:05Z</time></trkpt><trkpt lat="44.54767228050137" lon="11.740409414343903"><ele>5.0</ele><time>2026-04-24T11:08:06Z</time></trkpt><trkpt lat="44.54750751267637" lon="11.740604613739844"><ele>6.0</ele><time>2026-04-24T11:08:07Z</time></trkpt><trkpt lat="44.547339704346676" lon="11.740802547090983"><ele>6.0</ele><time>2026-04-24T11:08:08Z</time></trkpt><trkpt lat="44.54717381353818" lon="11.74100102632573"><ele>6.0</ele><time>2026-04-24T11:08:09Z</time></trkpt><trkpt lat="44.547008329677034" lon="11.741200101714174"><ele>6.0</ele><time>2026-04-24T11:08:10Z</time></trkpt><trkpt lat="44.54684316401826" lon="11.741397652469928"><ele>6.0</ele><time>2026-04-24T11:08:11Z</time></trkpt><trkpt lat="44.54667455578385" lon="11.741598068488573"><ele>6.0</ele><time>2026-04-24T11:08:12Z</time></trkpt><trkpt lat="44.5465081355584" lon="11.74179925326143"><ele>6.0</ele><time>2026-04-24T11:08:13Z</time></trkpt><trkpt lat="44.54634284513643" lon="11.742002412596257"><ele>6.333333333333334</ele><time>2026-04-24T11:08:14Z</time></trkpt><trkpt lat="44.546178699781514" lon="11.742202442316248"><ele>6.666666666666667</ele><time>2026-04-24T11:08:15Z</time></trkpt><trkpt lat="44.54601390677875" lon="11.742400462890526"><ele>7.0</ele><time>2026-04-24T11:08:16Z</time></trkpt><trkpt lat="44.545849879008216" lon="11.742598510666664"><ele>6.666666666666667</ele><time>2026-04-24T11:08:17Z</time></trkpt><trkpt lat="44.54568422837861" lon="11.742800626820934"><ele>6.333333333333334</ele><time>2026-04-24T11:08:18Z</time></trkpt><trkpt lat="44.545516435711946" lon="11.743002074120227"><ele>6.0</ele><time>2026-04-24T11:08:19Z</time></trkpt><trkpt lat="44.54535115510489" lon="11.743206246541396"><ele>5.666666666666667</ele><time>2026-04-24T11:08:20Z</time></trkpt><trkpt lat="44.54518518804276" lon="11.743409882340263"><ele>5.333333333333334</ele><time>2026-04-24T11:08:21Z</time></trkpt><trkpt lat="44.54502092048665" lon="11.74361154526738"><ele>5.0</ele><time>2026-04-24T11:08:22Z</time></trkpt><trkpt lat="44.544857689944386" lon="11.743812094605033"><ele>5.0</ele><time>2026-04-24T11:08:23Z</time></trkpt><trkpt lat="44.54469293255688" lon="11.744012331263072"><ele>5.0</ele><time>2026-04-24T11:08:24Z</time></trkpt><trkpt lat="44.5445269152747" lon="11.744212672726116"><ele>5.0</ele><time>2026-04-24T11:08:25Z</time></trkpt><trkpt lat="44.54436299504062" lon="11.744414767793344"><ele>4.666666666666667</ele><time>2026-04-24T11:08:26Z</time></trkpt><trkpt lat="44.54419643028257" lon="11.744615572560246"><ele>4.333333333333333</ele><time>2026-04-24T11:08:27Z</time></trkpt><trkpt lat="44.54403042861078" lon="11.744811024635284"><ele>4.0</ele><time>2026-04-24T11:08:28Z</time></trkpt><trkpt lat="44.54386484167396" lon="11.745012443521706"><ele>3.6666666666666665</ele><time>2026-04-24T11:08:29Z</time></trkpt><trkpt lat="44.54370210922445" lon="11.745212820438967"><ele>3.333333333333333</ele><time>2026-04-24T11:08:30Z</time></trkpt><trkpt lat="44.54353728835333" lon="11.745418401603152"><ele>3.0</ele><time>2026-04-24T11:08:31Z</time></trkpt><trkpt lat="44.54336836816455" lon="11.745622280046117"><ele>3.0</ele><time>2026-04-24T11:08:32Z</time></trkpt><trkpt lat="44.54320250925515" lon="11.745819425552286"><ele>3.0</ele><time>2026-04-24T11:08:33Z</time></trkpt><trkpt lat="44.54303787730179" lon="11.746015829451647"><ele>3.0</ele><time>2026-04-24T11:08:34Z</time></trkpt><trkpt lat="44.54287181035716" lon="11.746216305656903"><ele>3.666666666666667</ele><time>2026-04-24T11:08:35Z</time></trkpt><trkpt lat="44.54270690910167" lon="11.746419677011714"><ele>4.333333333333334</ele><time>2026-04-24T11:08:36Z</time></trkpt><trkpt lat="44.54254354453688" lon="11.746622826987544"><ele>5.0</ele><time>2026-04-24T11:08:37Z</time></trkpt><trkpt lat="44.542378295566905" lon="11.746823724607948"><ele>5.333333333333334</ele><time>2026-04-24T11:08:38Z</time></trkpt><trkpt lat="44.54221324385031" lon="11.747025392262634"><ele>5.666666666666667</ele><time>2026-04-24T11:08:39Z</time></trkpt><trkpt lat="44.54204858706315" lon="11.747224491140924"><ele>6.0</ele><time>2026-04-24T11:08:40Z</time></trkpt><trkpt lat="44.54188477987603" lon="11.747425274546847"><ele>6.0</ele><time>2026-04-24T11:08:41Z</time></trkpt><trkpt lat="44.54172087908743" lon="11.747628310528858"><ele>6.0</ele><time>2026-04-24T11:08:42Z</time></trkpt><trkpt lat="44.541555613383196" lon="11.74782509527897"><ele>6.0</ele><time>2026-04-24T11:08:43Z</time></trkpt><trkpt lat="44.54138886548866" lon="11.748024555485312"><ele>6.333333333333334</ele><time>2026-04-24T11:08:44Z</time></trkpt><trkpt lat="44.54122489688672" lon="11.748224025803452"><ele>6.666666666666667</ele><time>2026-04-24T11:08:45Z</time></trkpt><trkpt lat="44.54105867497507" lon="11.748423796436715"><ele>7.0</ele><time>2026-04-24T11:08:46Z</time></trkpt><trkpt lat="44.5408929544061" lon="11.748626269715436"><ele>6.333333333333334</ele><time>2026-04-24T11:08:47Z</time></trkpt><trkpt lat="44.540728432366265" lon="11.748831957762828"><ele>5.666666666666667</ele><time>2026-04-24T11:08:48Z</time></trkpt><trkpt lat="44.5405619564398" lon="11.749035805735623"><ele>5.0</ele><time>2026-04-24T11:08:49Z</time></trkpt><trkpt lat="44.54039547800157" lon="11.749234126703781"><ele>4.666666666666667</ele><time>2026-04-24T11:08:50Z</time></trkpt><trkpt lat="44.54022827079417" lon="11.74942710852925"><ele>4.333333333333333</ele><time>2026-04-24T11:08:51Z</time></trkpt><trkpt lat="44.540064763969966" lon="11.749628401120432"><ele>4.0</ele><time>2026-04-24T11:08:52Z</time></trkpt><trkpt lat="44.53990275060398" lon="11.749828913137577"><ele>4.0</ele><time>2026-04-24T11:08:53Z</time></trkpt><trkpt lat="44.539739327773326" lon="11.750027946000426"><ele>4.0</ele><time>2026-04-24T11:08:54Z</time></trkpt><trkpt lat="44.53957732259857" lon="11.750231467044966"><ele>4.0</ele><time>2026-04-24T11:08:55Z</time></trkpt><trkpt lat="44.53941189550069" lon="11.75043436492216"><ele>4.333333333333333</ele><time>2026-04-24T11:08:56Z</time></trkpt><trkpt lat="44.539245452657035" lon="11.750637567525951"><ele>4.666666666666667</ele><time>2026-04-24T11:08:57Z</time></trkpt><trkpt lat="44.53907715101661" lon="11.750841840918039"><ele>5.0</ele><time>2026-04-24T11:08:58Z</time></trkpt><trkpt lat="44.538914162844115" lon="11.751042555761215"><ele>5.0</ele><time>2026-04-24T11:08:59Z</time></trkpt><trkpt lat="44.538751519536866" lon="11.751238535413382"><ele>5.0</ele><time>2026-04-24T11:09:00Z</time></trkpt><trkpt lat="44.53859070704258" lon="11.751438309107762"><ele>5.0</ele><time>2026-04-24T11:09:01Z</time></trkpt><trkpt lat="44.5384338018047" lon="11.75163708456044"><ele>5.0</ele><time>2026-04-24T11:09:02Z</time></trkpt><trkpt lat="44.538273320320755" lon="11.751834347296905"><ele>5.0</ele><time>2026-04-24T11:09:03Z</time></trkpt><trkpt lat="44.53811379613487" lon="11.752027905620757"><ele>5.0</ele><time>2026-04-24T11:09:04Z</time></trkpt><trkpt lat="44.53795242732912" lon="11.752223285409444"><ele>4.666666666666667</ele><time>2026-04-24T11:09:05Z</time></trkpt><trkpt lat="44.53779123563122" lon="11.752421905128566"><ele>4.333333333333333</ele><time>2026-04-24T11:09:06Z</time></trkpt><trkpt lat="44.53763032011409" lon="11.752625453107626"><ele>4.0</ele><time>2026-04-24T11:09:07Z</time></trkpt><trkpt lat="44.53747021503803" lon="11.752827408261476"><ele>4.0</ele><time>2026-04-24T11:09:08Z</time></trkpt><trkpt lat="44.537317071685145" lon="11.753014776855766"><ele>4.0</ele><time>2026-04-24T11:09:09Z</time></trkpt><trkpt lat="44.53717363038315" lon="11.753191451611423"><ele>4.0</ele><time>2026-04-24T11:09:10Z</time></trkpt><trkpt lat="44.53703391009761" lon="11.75335832689424"><ele>4.333333333333333</ele><time>2026-04-24T11:09:11Z</time></trkpt><trkpt lat="44.536894867242935" lon="11.75352301598638"><ele>4.666666666666667</ele><time>2026-04-24T11:09:12Z</time></trkpt><trkpt lat="44.53675278274007" lon="11.753691471743632"><ele>5.0</ele><time>2026-04-24T11:09:13Z</time></trkpt><trkpt lat="44.536611596179505" lon="11.753860707558024"><ele>5.333333333333334</ele><time>2026-04-24T11:09:14Z</time></trkpt><trkpt lat="44.53647250851415" lon="11.754032118344709"><ele>5.666666666666667</ele><time>2026-04-24T11:09:15Z</time></trkpt><trkpt lat="44.53634159362729" lon="11.754191306652988"><ele>6.0</ele><time>2026-04-24T11:09:16Z</time></trkpt><trkpt lat="44.53621542942779" lon="11.754344948480028"><ele>5.666666666666667</ele><time>2026-04-24T11:09:17Z</time></trkpt><trkpt lat="44.53609013592879" lon="11.754494282124327"><ele>5.333333333333334</ele><time>2026-04-24T11:09:18Z</time></trkpt><trkpt lat="44.535969532848426" lon="11.754640891245193"><ele>5.0</ele><time>2026-04-24T11:09:19Z</time></trkpt><trkpt lat="44.53585503444687" lon="11.754780357976403"><ele>5.0</ele><time>2026-04-24T11:09:20Z</time></trkpt><trkpt lat="44.53574327087766" lon="11.754914661528451"><ele>5.0</ele><time>2026-04-24T11:09:21Z</time></trkpt><trkpt lat="44.53563008775978" lon="11.75504636757901"><ele>5.0</ele><time>2026-04-24T11:09:22Z</time></trkpt><trkpt lat="44.53551711026265" lon="11.755182597872068"><ele>5.0</ele><time>2026-04-24T11:09:23Z</time></trkpt><trkpt lat="44.53540196875248" lon="11.755321606367708"><ele>5.333333333333334</ele><time>2026-04-24T11:09:24Z</time></trkpt><trkpt lat="44.53528415813455" lon="11.755466575798199"><ele>5.666666666666667</ele><time>2026-04-24T11:09:25Z</time></trkpt><trkpt lat="44.53516636060935" lon="11.755612915119308"><ele>6.0</ele><time>2026-04-24T11:09:26Z</time></trkpt><trkpt lat="44.53504633556936" lon="11.755758707052374"><ele>6.0</ele><time>2026-04-24T11:09:27Z</time></trkpt><trkpt lat="44.53492953526818" lon="11.755895427057881"><ele>6.0</ele><time>2026-04-24T11:09:28Z</time></trkpt><trkpt lat="44.534819291792154" lon="11.756031422451198"><ele>6.0</ele><time>2026-04-24T11:09:29Z</time></trkpt><trkpt lat="44.5347131202478" lon="11.756164261680315"><ele>6.0</ele><time>2026-04-24T11:09:30Z</time></trkpt><trkpt lat="44.5345998708035" lon="11.756294002611687"><ele>6.0</ele><time>2026-04-24T11:09:31Z</time></trkpt><trkpt lat="44.534484184471275" lon="11.756430768867473"><ele>6.0</ele><time>2026-04-24T11:09:32Z</time></trkpt><trkpt lat="44.53437238089128" lon="11.756568770110839"><ele>6.0</ele><time>2026-04-24T11:09:33Z</time></trkpt><trkpt lat="44.5342629034966" lon="11.756703132859686"><ele>6.0</ele><time>2026-04-24T11:09:34Z</time></trkpt><trkpt lat="44.534153792677365" lon="11.756840617538675"><ele>5.75</ele><time>2026-04-24T11:09:35Z</time></trkpt><trkpt lat="44.53404433276377" lon="11.756976343502439"><ele>5.5</ele><time>2026-04-24T11:09:36Z</time></trkpt><trkpt lat="44.533934469120815" lon="11.757117134935065"><ele>5.25</ele><time>2026-04-24T11:09:37Z</time></trkpt><trkpt lat="44.53382342671937" lon="11.757260079335097"><ele>5.0</ele><time>2026-04-24T11:09:38Z</time></trkpt><trkpt lat="44.53370835958001" lon="11.757398836658265"><ele>5.0</ele><time>2026-04-24T11:09:39Z</time></trkpt><trkpt lat="44.53359171691362" lon="11.757536692376144"><ele>5.0</ele><time>2026-04-24T11:09:40Z</time></trkpt><trkpt lat="44.53347932966728" lon="11.757673216700063"><ele>5.0</ele><time>2026-04-24T11:09:41Z</time></trkpt><trkpt lat="44.53336772455443" lon="11.757808826533982"><ele>5.0</ele><time>2026-04-24T11:09:42Z</time></trkpt><trkpt lat="44.53325562013238" lon="11.757949989220094"><ele>5.0</ele><time>2026-04-24T11:09:43Z</time></trkpt><trkpt lat="44.533140894424506" lon="11.758088832337192"><ele>5.0</ele><time>2026-04-24T11:09:44Z</time></trkpt><trkpt lat="44.53302345583636" lon="11.758230775087192"><ele>5.0</ele><time>2026-04-24T11:09:45Z</time></trkpt><trkpt lat="44.53290508414106" lon="11.758377151538108"><ele>5.0</ele><time>2026-04-24T11:09:46Z</time></trkpt><trkpt lat="44.53278153468456" lon="11.75852680894557"><ele>5.0</ele><time>2026-04-24T11:09:47Z</time></trkpt><trkpt lat="44.53265509557277" lon="11.758679990982454"><ele>5.0</ele><time>2026-04-24T11:09:48Z</time></trkpt><trkpt lat="44.53252937146141" lon="11.758832940419172"><ele>5.0</ele><time>2026-04-24T11:09:49Z</time></trkpt><trkpt lat="44.53240113689368" lon="11.758979840441992"><ele>5.0</ele><time>2026-04-24T11:09:50Z</time></trkpt><trkpt lat="44.53227487251314" lon="11.75912826465892"><ele>5.0</ele><time>2026-04-24T11:09:51Z</time></trkpt><trkpt lat="44.53214912089798" lon="11.759278154478695"><ele>5.666666666666667</ele><time>2026-04-24T11:09:52Z</time></trkpt><trkpt lat="44.532030617933984" lon="11.75942676252717"><ele>6.333333333333334</ele><time>2026-04-24T11:09:53Z</time></trkpt><trkpt lat="44.53191388924568" lon="11.759575629316709"><ele>7.0</ele><time>2026-04-24T11:09:54Z</time></trkpt><trkpt lat="44.53180052099111" lon="11.759716858685469"><ele>7.0</ele><time>2026-04-24T11:09:55Z</time></trkpt><trkpt lat="44.531684249183364" lon="11.75985291895663"><ele>7.0</ele><time>2026-04-24T11:09:56Z</time></trkpt><trkpt lat="44.53157162915804" lon="11.759986014416661"><ele>7.0</ele><time>2026-04-24T11:09:57Z</time></trkpt><trkpt lat="44.53146653652766" lon="11.760114347808289"><ele>7.0</ele><time>2026-04-24T11:09:58Z</time></trkpt><trkpt lat="44.53137335493073" lon="11.760242724406105"><ele>7.5</ele><time>2026-04-24T11:09:59Z</time></trkpt><trkpt lat="44.531299629636884" lon="11.760382397117324"><ele>8.0</ele><time>2026-04-24T11:10:00Z</time></trkpt><trkpt lat="44.53125641168983" lon="11.760534350516695"><ele>8.5</ele><time>2026-04-24T11:10:01Z</time></trkpt><trkpt lat="44.53126503448001" lon="11.760699949247941"><ele>9.0</ele><time>2026-04-24T11:10:02Z</time></trkpt><trkpt lat="44.53125640608963" lon="11.760879919150966"><ele>9.0</ele><time>2026-04-24T11:10:03Z</time></trkpt><trkpt lat="44.53124243881016" lon="11.761073441776412"><ele>9.0</ele><time>2026-04-24T11:10:04Z</time></trkpt><trkpt lat="44.53124060385506" lon="11.76126811933233"><ele>9.0</ele><time>2026-04-24T11:10:05Z</time></trkpt><trkpt lat="44.53124117660419" lon="11.761447385187928"><ele>9.0</ele><time>2026-04-24T11:10:06Z</time></trkpt><trkpt lat="44.53123548598856" lon="11.761615730300367"><ele>9.0</ele><time>2026-04-24T11:10:07Z</time></trkpt><trkpt lat="44.53122983672298" lon="11.761777261681354"><ele>9.0</ele><time>2026-04-24T11:10:08Z</time></trkpt><trkpt lat="44.53122815953253" lon="11.761927711084295"><ele>9.0</ele><time>2026-04-24T11:10:09Z</time></trkpt><trkpt lat="44.53122487464845" lon="11.76207221502717"><ele>9.0</ele><time>2026-04-24T11:10:10Z</time></trkpt><trkpt lat="44.53122230678426" lon="11.762203975210076"><ele>9.0</ele><time>2026-04-24T11:10:11Z</time></trkpt><trkpt lat="44.531210610846536" lon="11.762336061713878"><ele>9.2</ele><time>2026-04-24T11:10:12Z</time></trkpt><trkpt lat="44.531184398489756" lon="11.762458871271921"><ele>9.4</ele><time>2026-04-24T11:10:13Z</time></trkpt><trkpt lat="44.53111681790094" lon="11.762559982653634"><ele>9.6</ele><time>2026-04-24T11:10:14Z</time></trkpt><trkpt lat="44.53103076164286" lon="11.762640990254626"><ele>9.8</ele><time>2026-04-24T11:10:15Z</time></trkpt><trkpt lat="44.53092993515754" lon="11.762706941594155"><ele>10.0</ele><time>2026-04-24T11:10:16Z</time></trkpt><trkpt lat="44.53080870301525" lon="11.762741755544385"><ele>10.0</ele><time>2026-04-24T11:10:17Z</time></trkpt><trkpt lat="44.530677659230705" lon="11.762793778073782"><ele>10.0</ele><time>2026-04-24T11:10:18Z</time></trkpt><trkpt lat="44.530542297649745" lon="11.762847437621314"><ele>10.0</ele><time>2026-04-24T11:10:19Z</time></trkpt><trkpt lat="44.530398835112585" lon="11.762904308605668"><ele>10.0</ele><time>2026-04-24T11:10:20Z</time></trkpt><trkpt lat="44.53025033375335" lon="11.762964810606103"><ele>10.0</ele><time>2026-04-24T11:10:21Z</time></trkpt><trkpt lat="44.53011216336368" lon="11.763024158841672"><ele>10.0</ele><time>2026-04-24T11:10:22Z</time></trkpt><trkpt lat="44.529983013584776" lon="11.763106896871063"><ele>10.0</ele><time>2026-04-24T11:10:23Z</time></trkpt><trkpt lat="44.52984564754223" lon="11.763157994463178"><ele>10.0</ele><time>2026-04-24T11:10:24Z</time></trkpt><trkpt lat="44.52971863291327" lon="11.763218477691996"><ele>10.0</ele><time>2026-04-24T11:10:25Z</time></trkpt><trkpt lat="44.52959528678177" lon="11.763279764974344"><ele>10.0</ele><time>2026-04-24T11:10:26Z</time></trkpt><trkpt lat="44.52947256187534" lon="11.763337887572973"><ele>10.0</ele><time>2026-04-24T11:10:27Z</time></trkpt><trkpt lat="44.52934366488415" lon="11.763399139306621"><ele>10.0</ele><time>2026-04-24T11:10:28Z</time></trkpt><trkpt lat="44.529210216908524" lon="11.763458978495756"><ele>10.0</ele><time>2026-04-24T11:10:29Z</time></trkpt><trkpt lat="44.52907804585278" lon="11.763514104154488"><ele>10.0</ele><time>2026-04-24T11:10:30Z</time></trkpt><trkpt lat="44.528947177849474" lon="11.763569772117732"><ele>10.0</ele><time>2026-04-24T11:10:31Z</time></trkpt><trkpt lat="44.52883231245418" lon="11.763624716969911"><ele>10.0</ele><time>2026-04-24T11:10:32Z</time></trkpt><trkpt lat="44.52872292681536" lon="11.763668424115997"><ele>10.2</ele><time>2026-04-24T11:10:33Z</time></trkpt><trkpt lat="44.52862097688513" lon="11.763700206202781"><ele>10.4</ele><time>2026-04-24T11:10:34Z</time></trkpt><trkpt lat="44.52852983303001" lon="11.76372809378829"><ele>10.600000000000001</ele><time>2026-04-24T11:10:35Z</time></trkpt><trkpt lat="44.52845143248368" lon="11.763749984655481"><ele>10.8</ele><time>2026-04-24T11:10:36Z</time></trkpt><trkpt lat="44.52834002319504" lon="11.76378329158748"><ele>11.0</ele><time>2026-04-24T11:10:38Z</time></trkpt><trkpt lat="44.52826616019824" lon="11.763808570933586"><ele>11.0</ele><time>2026-04-24T11:10:40Z</time></trkpt><trkpt lat="44.5281624326262" lon="11.763814013662408"><ele>11.0</ele><time>2026-04-24T11:10:42Z</time></trkpt><trkpt lat="44.52809771003233" lon="11.763836775231185"><ele>11.0</ele><time>2026-04-24T11:10:44Z</time></trkpt><trkpt lat="44.52803684018149" lon="11.763905071153728"><ele>11.0</ele><time>2026-04-24T11:10:48Z</time></trkpt><trkpt lat="44.528036224259004" lon="11.764042895558688"><ele>11.0</ele><time>2026-04-24T11:10:51Z</time></trkpt><trkpt lat="44.52807114104642" lon="11.76420852426556"><ele>11.0</ele><time>2026-04-24T11:10:53Z</time></trkpt><trkpt lat="44.528077772071114" lon="11.764345485489883"><ele>11.0</ele><time>2026-04-24T11:10:54Z</time></trkpt><trkpt lat="44.52808258101974" lon="11.764469793524118"><ele>11.0</ele><time>2026-04-24T11:10:55Z</time></trkpt><trkpt lat="44.528091485429684" lon="11.76455797020282"><ele>11.0</ele><time>2026-04-24T11:10:56Z</time></trkpt><trkpt lat="44.52806649547154" lon="11.764678056601609"><ele>11.0</ele><time>2026-04-24T11:10:58Z</time></trkpt><trkpt lat="44.52800151612183" lon="11.764708206635884"><ele>11.0</ele><time>2026-04-24T11:10:59Z</time></trkpt><trkpt lat="44.527903041023144" lon="11.764726494363964"><ele>10.5</ele><time>2026-04-24T11:11:00Z</time></trkpt><trkpt lat="44.52777476401249" lon="11.764747492908828"><ele>10.0</ele><time>2026-04-24T11:11:01Z</time></trkpt><trkpt lat="44.52762879411231" lon="11.764784960710195"><ele>9.5</ele><time>2026-04-24T11:11:02Z</time></trkpt><trkpt lat="44.52749479935211" lon="11.764817635492035"><ele>9.0</ele><time>2026-04-24T11:11:03Z</time></trkpt><trkpt lat="44.527372998928065" lon="11.764854339036537"><ele>9.0</ele><time>2026-04-24T11:11:04Z</time></trkpt><trkpt lat="44.52727112916167" lon="11.76489576767932"><ele>9.0</ele><time>2026-04-24T11:11:05Z</time></trkpt><trkpt lat="44.527191026397915" lon="11.764955985339512"><ele>9.0</ele><time>2026-04-24T11:11:06Z</time></trkpt><trkpt lat="44.52713380250901" lon="11.765056237788208"><ele>9.0</ele><time>2026-04-24T11:11:07Z</time></trkpt><trkpt lat="44.52709968607827" lon="11.76518898682759"><ele>9.0</ele><time>2026-04-24T11:11:08Z</time></trkpt><trkpt lat="44.52707348441588" lon="11.765366416462422"><ele>8.333333333333334</ele><time>2026-04-24T11:11:09Z</time></trkpt><trkpt lat="44.52704799122363" lon="11.765580186479438"><ele>7.666666666666667</ele><time>2026-04-24T11:11:10Z</time></trkpt><trkpt lat="44.527012507479235" lon="11.765804794016068"><ele>7.0</ele><time>2026-04-24T11:11:11Z</time></trkpt><trkpt lat="44.526974920261814" lon="11.766042908570464"><ele>6.666666666666667</ele><time>2026-04-24T11:11:12Z</time></trkpt><trkpt lat="44.52694310856026" lon="11.766280791081929"><ele>6.333333333333334</ele><time>2026-04-24T11:11:13Z</time></trkpt><trkpt lat="44.526910163613394" lon="11.766536150597107"><ele>6.0</ele><time>2026-04-24T11:11:14Z</time></trkpt><trkpt lat="44.52687202084679" lon="11.766797832489086"><ele>6.0</ele><time>2026-04-24T11:11:15Z</time></trkpt><trkpt lat="44.52682285847773" lon="11.767061581592111"><ele>6.0</ele><time>2026-04-24T11:11:16Z</time></trkpt><trkpt lat="44.52677455950673" lon="11.76733211555131"><ele>6.0</ele><time>2026-04-24T11:11:17Z</time></trkpt><trkpt lat="44.526723886631544" lon="11.76761156285589"><ele>6.0</ele><time>2026-04-24T11:11:18Z</time></trkpt><trkpt lat="44.526674001436554" lon="11.767896967183379"><ele>6.0</ele><time>2026-04-24T11:11:19Z</time></trkpt><trkpt lat="44.52662757304273" lon="11.768177811762293"><ele>6.0</ele><time>2026-04-24T11:11:20Z</time></trkpt><trkpt lat="44.526580736285965" lon="11.768459445978072"><ele>6.0</ele><time>2026-04-24T11:11:21Z</time></trkpt><trkpt lat="44.52653713504563" lon="11.768745437833285"><ele>6.0</ele><time>2026-04-24T11:11:22Z</time></trkpt><trkpt lat="44.52649187072209" lon="11.769040970025463"><ele>6.0</ele><time>2026-04-24T11:11:23Z</time></trkpt><trkpt lat="44.52644368788695" lon="11.769337771670507"><ele>6.0</ele><time>2026-04-24T11:11:24Z</time></trkpt><trkpt lat="44.52639483045875" lon="11.76963187033905"><ele>6.0</ele><time>2026-04-24T11:11:25Z</time></trkpt><trkpt lat="44.526346576977545" lon="11.769924138666063"><ele>6.0</ele><time>2026-04-24T11:11:26Z</time></trkpt><trkpt lat="44.526303112032274" lon="11.770214669182275"><ele>6.333333333333334</ele><time>2026-04-24T11:11:27Z</time></trkpt><trkpt lat="44.52625665797623" lon="11.770505339686157"><ele>6.666666666666667</ele><time>2026-04-24T11:11:28Z</time></trkpt><trkpt lat="44.52621003151562" lon="11.770795807874181"><ele>7.0</ele><time>2026-04-24T11:11:29Z</time></trkpt><trkpt lat="44.526162638839686" lon="11.771085969805291"><ele>6.333333333333334</ele><time>2026-04-24T11:11:30Z</time></trkpt><trkpt lat="44.52611523050873" lon="11.771376885859432"><ele>5.666666666666667</ele><time>2026-04-24T11:11:31Z</time></trkpt><trkpt lat="44.52606884045059" lon="11.771671507867781"><ele>5.0</ele><time>2026-04-24T11:11:32Z</time></trkpt><trkpt lat="44.52602223531514" lon="11.771964339601569"><ele>5.0</ele><time>2026-04-24T11:11:33Z</time></trkpt><trkpt lat="44.52597465528313" lon="11.772257135624102"><ele>5.0</ele><time>2026-04-24T11:11:34Z</time></trkpt><trkpt lat="44.525928708054984" lon="11.772549582959886"><ele>5.0</ele><time>2026-04-24T11:11:35Z</time></trkpt><trkpt lat="44.52588185481878" lon="11.772841871583632"><ele>5.666666666666667</ele><time>2026-04-24T11:11:36Z</time></trkpt><trkpt lat="44.52583725838731" lon="11.77313364694369"><ele>6.333333333333334</ele><time>2026-04-24T11:11:37Z</time></trkpt><trkpt lat="44.52579449395315" lon="11.773425340265591"><ele>7.0</ele><time>2026-04-24T11:11:38Z</time></trkpt><trkpt lat="44.52574948222394" lon="11.773714062041533"><ele>7.0</ele><time>2026-04-24T11:11:39Z</time></trkpt><trkpt lat="44.525702695950486" lon="11.774001106313975"><ele>7.0</ele><time>2026-04-24T11:11:40Z</time></trkpt><trkpt lat="44.5256587959715" lon="11.77429430356164"><ele>7.0</ele><time>2026-04-24T11:11:41Z</time></trkpt><trkpt lat="44.52561252965427" lon="11.774584811245429"><ele>6.333333333333334</ele><time>2026-04-24T11:11:42Z</time></trkpt><trkpt lat="44.52556423539461" lon="11.774875162640958"><ele>5.666666666666667</ele><time>2026-04-24T11:11:43Z</time></trkpt><trkpt lat="44.52551489920001" lon="11.775167448056985"><ele>5.0</ele><time>2026-04-24T11:11:44Z</time></trkpt><trkpt lat="44.525468992293035" lon="11.775459017631675"><ele>4.666666666666667</ele><time>2026-04-24T11:11:45Z</time></trkpt><trkpt lat="44.525420205660815" lon="11.775752869260815"><ele>4.333333333333333</ele><time>2026-04-24T11:11:46Z</time></trkpt><trkpt lat="44.52537306807787" lon="11.776042743023405"><ele>4.0</ele><time>2026-04-24T11:11:47Z</time></trkpt><trkpt lat="44.52532626257471" lon="11.776337898705917"><ele>4.666666666666666</ele><time>2026-04-24T11:11:48Z</time></trkpt><trkpt lat="44.525278444287885" lon="11.776629060012866"><ele>5.333333333333333</ele><time>2026-04-24T11:11:49Z</time></trkpt><trkpt lat="44.52523272941312" lon="11.776921892151803"><ele>6.0</ele><time>2026-04-24T11:11:50Z</time></trkpt><trkpt lat="44.52518762621715" lon="11.777212969733736"><ele>6.0</ele><time>2026-04-24T11:11:51Z</time></trkpt><trkpt lat="44.525143210844554" lon="11.777504285975956"><ele>6.0</ele><time>2026-04-24T11:11:52Z</time></trkpt><trkpt lat="44.52509634193595" lon="11.777797947073884"><ele>6.0</ele><time>2026-04-24T11:11:53Z</time></trkpt><trkpt lat="44.52505028842236" lon="11.778090318246981"><ele>6.0</ele><time>2026-04-24T11:11:54Z</time></trkpt><trkpt lat="44.52500287804167" lon="11.77838056961467"><ele>6.0</ele><time>2026-04-24T11:11:55Z</time></trkpt><trkpt lat="44.524955537135995" lon="11.778674813827774"><ele>6.0</ele><time>2026-04-24T11:11:56Z</time></trkpt><trkpt lat="44.52490669784706" lon="11.77896871680388"><ele>6.333333333333334</ele><time>2026-04-24T11:11:57Z</time></trkpt><trkpt lat="44.524861968486846" lon="11.779236954633463"><ele>6.666666666666667</ele><time>2026-04-24T11:11:58Z</time></trkpt><trkpt lat="44.52482179875393" lon="11.779489829519438"><ele>7.0</ele><time>2026-04-24T11:11:59Z</time></trkpt><trkpt lat="44.52478497756115" lon="11.779725967630172"><ele>7.0</ele><time>2026-04-24T11:12:00Z</time></trkpt><trkpt lat="44.5247513385589" lon="11.77994317259451"><ele>7.0</ele><time>2026-04-24T11:12:01Z</time></trkpt><trkpt lat="44.52472023832526" lon="11.780141204173308"><ele>7.0</ele><time>2026-04-24T11:12:02Z</time></trkpt><trkpt lat="44.52469333185692" lon="11.780312275669312"><ele>7.0</ele><time>2026-04-24T11:12:03Z</time></trkpt><trkpt lat="44.524666808382094" lon="11.7804653153834"><ele>7.000000000000001</ele><time>2026-04-24T11:12:04Z</time></trkpt><trkpt lat="44.52463606763713" lon="11.780588325162702"><ele>7.0</ele><time>2026-04-24T11:12:05Z</time></trkpt><trkpt lat="44.5246029098655" lon="11.780691398442693"><ele>7.0</ele><time>2026-04-24T11:12:06Z</time></trkpt><trkpt lat="44.52454289045844" lon="11.780802195081597"><ele>7.0</ele><time>2026-04-24T11:12:08Z</time></trkpt><trkpt lat="44.52447637104177" lon="11.780844447586581"><ele>7.000000000000001</ele><time>2026-04-24T11:12:10Z</time></trkpt><trkpt lat="44.5244105296837" lon="11.780848673420843"><ele>7.0</ele><time>2026-04-24T11:12:11Z</time></trkpt><trkpt lat="44.52431945844905" lon="11.7808298514679"><ele>7.0</ele><time>2026-04-24T11:12:12Z</time></trkpt><trkpt lat="44.52421251527773" lon="11.78080674577655"><ele>7.0</ele><time>2026-04-24T11:12:13Z</time></trkpt><trkpt lat="44.524097508092716" lon="11.780787875889091"><ele>7.0</ele><time>2026-04-24T11:12:14Z</time></trkpt><trkpt lat="44.523966067690765" lon="11.780773132133623"><ele>7.0</ele><time>2026-04-24T11:12:15Z</time></trkpt><trkpt lat="44.52381741021434" lon="11.780760528984262"><ele>6.666666666666667</ele><time>2026-04-24T11:12:16Z</time></trkpt><trkpt lat="44.52366240433618" lon="11.780744355051377"><ele>6.333333333333334</ele><time>2026-04-24T11:12:17Z</time></trkpt><trkpt lat="44.52349607123443" lon="11.780724560902945"><ele>6.0</ele><time>2026-04-24T11:12:18Z</time></trkpt><trkpt lat="44.5233179743969" lon="11.780703916618432"><ele>6.0</ele><time>2026-04-24T11:12:19Z</time></trkpt><trkpt lat="44.52313590014285" lon="11.780683597737113"><ele>6.0</ele><time>2026-04-24T11:12:20Z</time></trkpt><trkpt lat="44.522950462708444" lon="11.780671231341065"><ele>6.0</ele><time>2026-04-24T11:12:21Z</time></trkpt><trkpt lat="44.522755953271" lon="11.780657688639726"><ele>6.0</ele><time>2026-04-24T11:12:22Z</time></trkpt><trkpt lat="44.52255269936698" lon="11.780646710047806"><ele>6.0</ele><time>2026-04-24T11:12:23Z</time></trkpt><trkpt lat="44.52234856017488" lon="11.780636238018541"><ele>6.0</ele><time>2026-04-24T11:12:24Z</time></trkpt><trkpt lat="44.522143190106014" lon="11.78062013842618"><ele>6.0</ele><time>2026-04-24T11:12:25Z</time></trkpt><trkpt lat="44.52193922238554" lon="11.780599606964149"><ele>6.0</ele><time>2026-04-24T11:12:26Z</time></trkpt><trkpt lat="44.52173018495961" lon="11.780570959858297"><ele>6.0</ele><time>2026-04-24T11:12:27Z</time></trkpt><trkpt lat="44.521518981657536" lon="11.78054479370295"><ele>6.0</ele><time>2026-04-24T11:12:28Z</time></trkpt><trkpt lat="44.5213082386491" lon="11.780518570804308"><ele>6.0</ele><time>2026-04-24T11:12:29Z</time></trkpt><trkpt lat="44.52109361982891" lon="11.780494937534508"><ele>6.0</ele><time>2026-04-24T11:12:30Z</time></trkpt><trkpt lat="44.520875869724485" lon="11.78046883670841"><ele>6.0</ele><time>2026-04-24T11:12:31Z</time></trkpt><trkpt lat="44.520654041405656" lon="11.780445408843475"><ele>6.0</ele><time>2026-04-24T11:12:32Z</time></trkpt><trkpt lat="44.52043031538559" lon="11.780422048303846"><ele>6.0</ele><time>2026-04-24T11:12:33Z</time></trkpt><trkpt lat="44.520207620447664" lon="11.780402697128475"><ele>6.0</ele><time>2026-04-24T11:12:34Z</time></trkpt><trkpt lat="44.519992207846286" lon="11.780383384842311"><ele>6.0</ele><time>2026-04-24T11:12:35Z</time></trkpt><trkpt lat="44.51977552886966" lon="11.780362191206564"><ele>6.0</ele><time>2026-04-24T11:12:36Z</time></trkpt><trkpt lat="44.51955664844903" lon="11.780338466687368"><ele>6.0</ele><time>2026-04-24T11:12:37Z</time></trkpt><trkpt lat="44.51933836934279" lon="11.780317134667495"><ele>6.0</ele><time>2026-04-24T11:12:38Z</time></trkpt><trkpt lat="44.519120971135145" lon="11.780294539144355"><ele>6.0</ele><time>2026-04-24T11:12:39Z</time></trkpt><trkpt lat="44.51890390704187" lon="11.780268557493729"><ele>6.333333333333334</ele><time>2026-04-24T11:12:40Z</time></trkpt><trkpt lat="44.518685111421945" lon="11.780245304267563"><ele>6.666666666666667</ele><time>2026-04-24T11:12:41Z</time></trkpt><trkpt lat="44.5184666007984" lon="11.780229633568414"><ele>7.0</ele><time>2026-04-24T11:12:42Z</time></trkpt><trkpt lat="44.51824660179062" lon="11.78020886828796"><ele>7.0</ele><time>2026-04-24T11:12:43Z</time></trkpt><trkpt lat="44.51802565096616" lon="11.780184778489417"><ele>7.0</ele><time>2026-04-24T11:12:44Z</time></trkpt><trkpt lat="44.5178086971666" lon="11.780162838382518"><ele>7.0</ele><time>2026-04-24T11:12:45Z</time></trkpt><trkpt lat="44.51758711297928" lon="11.780135365156704"><ele>6.333333333333334</ele><time>2026-04-24T11:12:46Z</time></trkpt><trkpt lat="44.51736731327414" lon="11.780112847152179"><ele>5.666666666666667</ele><time>2026-04-24T11:12:47Z</time></trkpt><trkpt lat="44.51715005393726" lon="11.78009304145826"><ele>5.0</ele><time>2026-04-24T11:12:48Z</time></trkpt><trkpt lat="44.516932435255896" lon="11.780076043345156"><ele>4.666666666666667</ele><time>2026-04-24T11:12:49Z</time></trkpt><trkpt lat="44.51671563507944" lon="11.780060048565026"><ele>4.333333333333333</ele><time>2026-04-24T11:12:50Z</time></trkpt><trkpt lat="44.5164986623672" lon="11.780037605830337"><ele>4.0</ele><time>2026-04-24T11:12:51Z</time></trkpt><trkpt lat="44.51627973678644" lon="11.780016618138562"><ele>4.333333333333333</ele><time>2026-04-24T11:12:52Z</time></trkpt><trkpt lat="44.516060590232684" lon="11.779992061158966"><ele>4.666666666666667</ele><time>2026-04-24T11:12:53Z</time></trkpt><trkpt lat="44.5158413686128" lon="11.779967808624983"><ele>5.0</ele><time>2026-04-24T11:12:54Z</time></trkpt><trkpt lat="44.51562239219645" lon="11.779945508746117"><ele>6.333333333333334</ele><time>2026-04-24T11:12:55Z</time></trkpt><trkpt lat="44.51540254931369" lon="11.77992623724191"><ele>7.666666666666667</ele><time>2026-04-24T11:12:56Z</time></trkpt><trkpt lat="44.51518901272701" lon="11.779908416134788"><ele>9.0</ele><time>2026-04-24T11:12:57Z</time></trkpt><trkpt lat="44.514972594675775" lon="11.779888541528118"><ele>9.0</ele><time>2026-04-24T11:12:58Z</time></trkpt><trkpt lat="44.51475405101634" lon="11.779866403756419"><ele>9.0</ele><time>2026-04-24T11:12:59Z</time></trkpt><trkpt lat="44.514537122875105" lon="11.779840438541328"><ele>9.0</ele><time>2026-04-24T11:13:00Z</time></trkpt><trkpt lat="44.51432131874058" lon="11.779820664059168"><ele>8.666666666666666</ele><time>2026-04-24T11:13:01Z</time></trkpt><trkpt lat="44.514106277182535" lon="11.779798575095432"><ele>8.333333333333332</ele><time>2026-04-24T11:13:02Z</time></trkpt><trkpt lat="44.513888113597524" lon="11.779776681244835"><ele>8.0</ele><time>2026-04-24T11:13:03Z</time></trkpt><trkpt lat="44.513671102824745" lon="11.77975601740067"><ele>8.0</ele><time>2026-04-24T11:13:04Z</time></trkpt><trkpt lat="44.51345166299498" lon="11.779734343719209"><ele>8.0</ele><time>2026-04-24T11:13:05Z</time></trkpt><trkpt lat="44.513232022273606" lon="11.779712097874105"><ele>8.0</ele><time>2026-04-24T11:13:06Z</time></trkpt><trkpt lat="44.51301307518664" lon="11.779696637473142"><ele>8.0</ele><time>2026-04-24T11:13:07Z</time></trkpt><trkpt lat="44.512794325569594" lon="11.77967829727248"><ele>8.0</ele><time>2026-04-24T11:13:08Z</time></trkpt><trkpt lat="44.51257925137185" lon="11.779658674174064"><ele>8.0</ele><time>2026-04-24T11:13:09Z</time></trkpt><trkpt lat="44.51236248298824" lon="11.77963543707836"><ele>8.0</ele><time>2026-04-24T11:13:10Z</time></trkpt><trkpt lat="44.51214473941771" lon="11.779608054731113"><ele>8.0</ele><time>2026-04-24T11:13:11Z</time></trkpt><trkpt lat="44.511925608958066" lon="11.779589084381612"><ele>8.0</ele><time>2026-04-24T11:13:12Z</time></trkpt><trkpt lat="44.51170693757667" lon="11.779562294942723"><ele>8.333333333333332</ele><time>2026-04-24T11:13:13Z</time></trkpt><trkpt lat="44.51148749351819" lon="11.779535572169193"><ele>8.666666666666666</ele><time>2026-04-24T11:13:14Z</time></trkpt><trkpt lat="44.51127208458347" lon="11.7795118920092"><ele>9.0</ele><time>2026-04-24T11:13:15Z</time></trkpt><trkpt lat="44.51105438785136" lon="11.779491252351532"><ele>8.666666666666666</ele><time>2026-04-24T11:13:16Z</time></trkpt><trkpt lat="44.510836700592264" lon="11.779472278651074"><ele>8.333333333333332</ele><time>2026-04-24T11:13:17Z</time></trkpt><trkpt lat="44.51061706536639" lon="11.779455176203648"><ele>8.0</ele><time>2026-04-24T11:13:18Z</time></trkpt><trkpt lat="44.51039616911898" lon="11.779434709394263"><ele>8.0</ele><time>2026-04-24T11:13:19Z</time></trkpt><trkpt lat="44.510177378635284" lon="11.779415978431734"><ele>8.0</ele><time>2026-04-24T11:13:20Z</time></trkpt><trkpt lat="44.50995887692996" lon="11.779392034815487"><ele>8.0</ele><time>2026-04-24T11:13:21Z</time></trkpt><trkpt lat="44.5097403146922" lon="11.779374483109"><ele>8.0</ele><time>2026-04-24T11:13:22Z</time></trkpt><trkpt lat="44.509522900278746" lon="11.779354114535384"><ele>8.0</ele><time>2026-04-24T11:13:23Z</time></trkpt><trkpt lat="44.50930548318021" lon="11.779331319798379"><ele>8.0</ele><time>2026-04-24T11:13:24Z</time></trkpt><trkpt lat="44.509088438906296" lon="11.779310431755384"><ele>8.0</ele><time>2026-04-24T11:13:25Z</time></trkpt><trkpt lat="44.508869883194656" lon="11.779287812797723"><ele>8.0</ele><time>2026-04-24T11:13:26Z</time></trkpt><trkpt lat="44.508651832204066" lon="11.779264523494117"><ele>8.0</ele><time>2026-04-24T11:13:27Z</time></trkpt><trkpt lat="44.508433196207974" lon="11.779239578119263"><ele>8.333333333333332</ele><time>2026-04-24T11:13:28Z</time></trkpt><trkpt lat="44.508215279813534" lon="11.779217893735689"><ele>8.666666666666666</ele><time>2026-04-24T11:13:29Z</time></trkpt><trkpt lat="44.5079988257882" lon="11.779198041381635"><ele>9.0</ele><time>2026-04-24T11:13:30Z</time></trkpt><trkpt lat="44.507781164004975" lon="11.779174228244454"><ele>9.0</ele><time>2026-04-24T11:13:31Z</time></trkpt><trkpt lat="44.5075666350279" lon="11.77915568191376"><ele>9.0</ele><time>2026-04-24T11:13:32Z</time></trkpt><trkpt lat="44.50734992705778" lon="11.77913390047475"><ele>9.0</ele><time>2026-04-24T11:13:33Z</time></trkpt><trkpt lat="44.50713190539579" lon="11.779114264800159"><ele>8.333333333333334</ele><time>2026-04-24T11:13:34Z</time></trkpt><trkpt lat="44.506913189379695" lon="11.779092910143055"><ele>7.666666666666667</ele><time>2026-04-24T11:13:35Z</time></trkpt><trkpt lat="44.50669816675085" lon="11.779072864590164"><ele>7.0</ele><time>2026-04-24T11:13:36Z</time></trkpt><trkpt lat="44.50647972053605" lon="11.779054687989614"><ele>7.0</ele><time>2026-04-24T11:13:37Z</time></trkpt><trkpt lat="44.506260043038914" lon="11.779037423647429"><ele>7.0</ele><time>2026-04-24T11:13:38Z</time></trkpt><trkpt lat="44.5060409192891" lon="11.779018412532627"><ele>7.0</ele><time>2026-04-24T11:13:39Z</time></trkpt><trkpt lat="44.5058241125182" lon="11.778998691365398"><ele>7.333333333333334</ele><time>2026-04-24T11:13:40Z</time></trkpt><trkpt lat="44.50560441485915" lon="11.778973397970093"><ele>7.666666666666666</ele><time>2026-04-24T11:13:41Z</time></trkpt><trkpt lat="44.505381881359924" lon="11.778949645820651"><ele>8.0</ele><time>2026-04-24T11:13:42Z</time></trkpt><trkpt lat="44.50516152115496" lon="11.778925268229514"><ele>8.0</ele><time>2026-04-24T11:13:43Z</time></trkpt><trkpt lat="44.504944243424525" lon="11.778899368192148"><ele>8.0</ele><time>2026-04-24T11:13:44Z</time></trkpt><trkpt lat="44.504725627248675" lon="11.77887578366687"><ele>8.0</ele><time>2026-04-24T11:13:45Z</time></trkpt><trkpt lat="44.50451969370441" lon="11.77885700794279"><ele>7.666666666666666</ele><time>2026-04-24T11:13:46Z</time></trkpt><trkpt lat="44.50432502869454" lon="11.778840721941787"><ele>7.333333333333334</ele><time>2026-04-24T11:13:47Z</time></trkpt><trkpt lat="44.50414367132286" lon="11.778822063554886"><ele>7.0</ele><time>2026-04-24T11:13:48Z</time></trkpt><trkpt lat="44.50397350039063" lon="11.778803100594045"><ele>7.0</ele><time>2026-04-24T11:13:49Z</time></trkpt><trkpt lat="44.50381428122283" lon="11.77878660481012"><ele>7.0</ele><time>2026-04-24T11:13:50Z</time></trkpt><trkpt lat="44.50368339471752" lon="11.778772148014284"><ele>7.0</ele><time>2026-04-24T11:13:51Z</time></trkpt><trkpt lat="44.50358485831133" lon="11.778759687093729"><ele>7.0</ele><time>2026-04-24T11:13:52Z</time></trkpt><trkpt lat="44.50349044431648" lon="11.77874264649763"><ele>7.5</ele><time>2026-04-24T11:13:54Z</time></trkpt><trkpt lat="44.50342130960415" lon="11.778840477504257"><ele>8.0</ele><time>2026-04-24T11:13:57Z</time></trkpt><trkpt lat="44.50336469688363" lon="11.779039770901232"><ele>8.5</ele><time>2026-04-24T11:13:59Z</time></trkpt><trkpt lat="44.503270509767574" lon="11.779231510107875"><ele>9.0</ele><time>2026-04-24T11:14:00Z</time></trkpt><trkpt lat="44.503180273180675" lon="11.779429592658099"><ele>9.0</ele><time>2026-04-24T11:14:01Z</time></trkpt><trkpt lat="44.50308243615628" lon="11.779646146312299"><ele>9.0</ele><time>2026-04-24T11:14:02Z</time></trkpt><trkpt lat="44.502976274738664" lon="11.77988246277197"><ele>9.0</ele><time>2026-04-24T11:14:03Z</time></trkpt><trkpt lat="44.502867448999524" lon="11.780127324140917"><ele>9.666666666666666</ele><time>2026-04-24T11:14:04Z</time></trkpt><trkpt lat="44.50275445797367" lon="11.780384814660271"><ele>10.333333333333332</ele><time>2026-04-24T11:14:05Z</time></trkpt><trkpt lat="44.50263559244667" lon="11.78065426873857"><ele>11.0</ele><time>2026-04-24T11:14:06Z</time></trkpt><trkpt lat="44.50251159153895" lon="11.78093174216601"><ele>10.0</ele><time>2026-04-24T11:14:07Z</time></trkpt><trkpt lat="44.50238300258924" lon="11.781212471049578"><ele>9.0</ele><time>2026-04-24T11:14:08Z</time></trkpt><trkpt lat="44.502253423262964" lon="11.781486969196335"><ele>9.0</ele><time>2026-04-24T11:14:09Z</time></trkpt><trkpt lat="44.50212622978093" lon="11.7817679040416"><ele>9.0</ele><time>2026-04-24T11:14:10Z</time></trkpt><trkpt lat="44.50200157438156" lon="11.782047562129314"><ele>9.0</ele><time>2026-04-24T11:14:11Z</time></trkpt><trkpt lat="44.50187798882821" lon="11.782332445952513"><ele>9.0</ele><time>2026-04-24T11:14:12Z</time></trkpt><trkpt lat="44.501755180340794" lon="11.782618442872373"><ele>9.0</ele><time>2026-04-24T11:14:13Z</time></trkpt><trkpt lat="44.50163485524605" lon="11.782894037319185"><ele>9.0</ele><time>2026-04-24T11:14:14Z</time></trkpt><trkpt lat="44.501515436405164" lon="11.783162926036935"><ele>9.0</ele><time>2026-04-24T11:14:15Z</time></trkpt><trkpt lat="44.50139826977633" lon="11.783422008782047"><ele>9.0</ele><time>2026-04-24T11:14:16Z</time></trkpt><trkpt lat="44.50128314322533" lon="11.783667334376826"><ele>9.0</ele><time>2026-04-24T11:14:17Z</time></trkpt><trkpt lat="44.5011733099192" lon="11.783907398477428"><ele>9.0</ele><time>2026-04-24T11:14:18Z</time></trkpt><trkpt lat="44.50106688925272" lon="11.784146630941361"><ele>9.0</ele><time>2026-04-24T11:14:19Z</time></trkpt><trkpt lat="44.50095959623635" lon="11.784383102435351"><ele>9.0</ele><time>2026-04-24T11:14:20Z</time></trkpt><trkpt lat="44.500855409719996" lon="11.784622491015153"><ele>9.666666666666666</ele><time>2026-04-24T11:14:21Z</time></trkpt><trkpt lat="44.50075226893062" lon="11.784856390040167"><ele>10.333333333333332</ele><time>2026-04-24T11:14:22Z</time></trkpt><trkpt lat="44.500650849205904" lon="11.785093255108482"><ele>11.0</ele><time>2026-04-24T11:14:23Z</time></trkpt><trkpt lat="44.50055225204855" lon="11.785326914638453"><ele>11.0</ele><time>2026-04-24T11:14:24Z</time></trkpt><trkpt lat="44.50045071630257" lon="11.785556563273248"><ele>11.0</ele><time>2026-04-24T11:14:25Z</time></trkpt><trkpt lat="44.5003459485482" lon="11.785796730588816"><ele>11.0</ele><time>2026-04-24T11:14:26Z</time></trkpt><trkpt lat="44.50023907977767" lon="11.786047741402106"><ele>10.666666666666666</ele><time>2026-04-24T11:14:27Z</time></trkpt><trkpt lat="44.50012535036126" lon="11.786301716953304"><ele>10.333333333333334</ele><time>2026-04-24T11:14:28Z</time></trkpt><trkpt lat="44.500005799873485" lon="11.786557451032524"><ele>10.0</ele><time>2026-04-24T11:14:29Z</time></trkpt><trkpt lat="44.499887177396324" lon="11.786817846889171"><ele>10.0</ele><time>2026-04-24T11:14:30Z</time></trkpt><trkpt lat="44.49977033337053" lon="11.787081652555127"><ele>10.0</ele><time>2026-04-24T11:14:31Z</time></trkpt><trkpt lat="44.49965143552779" lon="11.787341155873772"><ele>10.0</ele><time>2026-04-24T11:14:32Z</time></trkpt><trkpt lat="44.499532505412326" lon="11.787601459667634"><ele>10.333333333333334</ele><time>2026-04-24T11:14:33Z</time></trkpt><trkpt lat="44.49941444105778" lon="11.787857963964427"><ele>10.666666666666666</ele><time>2026-04-24T11:14:34Z</time></trkpt><trkpt lat="44.499296187686916" lon="11.788115263193477"><ele>11.0</ele><time>2026-04-24T11:14:35Z</time></trkpt><trkpt lat="44.49917959101533" lon="11.78837537505501"><ele>10.333333333333332</ele><time>2026-04-24T11:14:36Z</time></trkpt><trkpt lat="44.49906423966787" lon="11.788632256348487"><ele>9.666666666666666</ele><time>2026-04-24T11:14:37Z</time></trkpt><trkpt lat="44.49894813210506" lon="11.788892810242901"><ele>9.0</ele><time>2026-04-24T11:14:38Z</time></trkpt><trkpt lat="44.49883450904276" lon="11.78915342635385"><ele>9.0</ele><time>2026-04-24T11:14:39Z</time></trkpt><trkpt lat="44.498722239572146" lon="11.78941490683054"><ele>9.0</ele><time>2026-04-24T11:14:40Z</time></trkpt><trkpt lat="44.498609539415355" lon="11.78967494156651"><ele>9.0</ele><time>2026-04-24T11:14:41Z</time></trkpt><trkpt lat="44.498493417442724" lon="11.789933531390421"><ele>9.333333333333334</ele><time>2026-04-24T11:14:42Z</time></trkpt><trkpt lat="44.49837533363644" lon="11.790193336727302"><ele>9.666666666666668</ele><time>2026-04-24T11:14:43Z</time></trkpt><trkpt lat="44.49826371944738" lon="11.790441484701269"><ele>10.0</ele><time>2026-04-24T11:14:44Z</time></trkpt><trkpt lat="44.49816319407741" lon="11.790663643905898"><ele>10.0</ele><time>2026-04-24T11:14:45Z</time></trkpt><trkpt lat="44.49807522560519" lon="11.790867585375429"><ele>10.0</ele><time>2026-04-24T11:14:46Z</time></trkpt><trkpt lat="44.49798960668406" lon="11.791051757305068"><ele>10.0</ele><time>2026-04-24T11:14:47Z</time></trkpt><trkpt lat="44.497894075587716" lon="11.791247346146202"><ele>9.0</ele><time>2026-04-24T11:14:48Z</time></trkpt><trkpt lat="44.497796321420424" lon="11.791467103246358"><ele>8.0</ele><time>2026-04-24T11:14:49Z</time></trkpt><trkpt lat="44.49769667238553" lon="11.791703389345466"><ele>7.0</ele><time>2026-04-24T11:14:50Z</time></trkpt><trkpt lat="44.4975907757753" lon="11.791961509318797"><ele>6.5</ele><time>2026-04-24T11:14:51Z</time></trkpt><trkpt lat="44.4974762977654" lon="11.792231781467136"><ele>6.0</ele><time>2026-04-24T11:14:52Z</time></trkpt><trkpt lat="44.49735593345606" lon="11.792516821915099"><ele>5.5</ele><time>2026-04-24T11:14:53Z</time></trkpt><trkpt lat="44.49723285198997" lon="11.79280926102412"><ele>5.0</ele><time>2026-04-24T11:14:54Z</time></trkpt><trkpt lat="44.497100942430656" lon="11.793108426882277"><ele>5.5</ele><time>2026-04-24T11:14:55Z</time></trkpt><trkpt lat="44.496965937726934" lon="11.793414049121893"><ele>6.0</ele><time>2026-04-24T11:14:56Z</time></trkpt><trkpt lat="44.49683241477081" lon="11.793719822672239"><ele>6.0</ele><time>2026-04-24T11:14:57Z</time></trkpt><trkpt lat="44.49669788782407" lon="11.794031709773655"><ele>6.0</ele><time>2026-04-24T11:14:58Z</time></trkpt><trkpt lat="44.49656310717115" lon="11.794349900412238"><ele>6.0</ele><time>2026-04-24T11:14:59Z</time></trkpt><trkpt lat="44.49642705805137" lon="11.794669639046955"><ele>6.0</ele><time>2026-04-24T11:15:00Z</time></trkpt><trkpt lat="44.49628904499051" lon="11.794983928503832"><ele>6.0</ele><time>2026-04-24T11:15:01Z</time></trkpt><trkpt lat="44.49615002987501" lon="11.795298558512048"><ele>6.0</ele><time>2026-04-24T11:15:02Z</time></trkpt><trkpt lat="44.496010746058694" lon="11.795612428130028"><ele>6.0</ele><time>2026-04-24T11:15:03Z</time></trkpt><trkpt lat="44.49587459301772" lon="11.795925096848634"><ele>6.0</ele><time>2026-04-24T11:15:04Z</time></trkpt><trkpt lat="44.49574146281927" lon="11.7962363468819"><ele>6.0</ele><time>2026-04-24T11:15:05Z</time></trkpt><trkpt lat="44.49561313531426" lon="11.796538929268891"><ele>6.0</ele><time>2026-04-24T11:15:06Z</time></trkpt><trkpt lat="44.495485933232615" lon="11.796836827920297"><ele>6.0</ele><time>2026-04-24T11:15:07Z</time></trkpt><trkpt lat="44.495362282045946" lon="11.797122823243143"><ele>6.0</ele><time>2026-04-24T11:15:08Z</time></trkpt><trkpt lat="44.4952441126674" lon="11.797392194801564"><ele>6.0</ele><time>2026-04-24T11:15:09Z</time></trkpt><trkpt lat="44.49513109524962" lon="11.797642514671528"><ele>6.0</ele><time>2026-04-24T11:15:10Z</time></trkpt><trkpt lat="44.49502832391262" lon="11.797880608370187"><ele>6.0</ele><time>2026-04-24T11:15:11Z</time></trkpt><trkpt lat="44.49493410670827" lon="11.798109552382464"><ele>6.0</ele><time>2026-04-24T11:15:12Z</time></trkpt><trkpt lat="44.494845083445014" lon="11.798324997774412"><ele>6.0</ele><time>2026-04-24T11:15:13Z</time></trkpt><trkpt lat="44.494759015526206" lon="11.798529905033812"><ele>6.0</ele><time>2026-04-24T11:15:14Z</time></trkpt><trkpt lat="44.49467445704821" lon="11.798718772191773"><ele>6.0</ele><time>2026-04-24T11:15:15Z</time></trkpt><trkpt lat="44.494595240000486" lon="11.798900719541146"><ele>6.0</ele><time>2026-04-24T11:15:16Z</time></trkpt><trkpt lat="44.494521383909046" lon="11.799071729384973"><ele>6.0</ele><time>2026-04-24T11:15:17Z</time></trkpt><trkpt lat="44.4944512542235" lon="11.799232814523979"><ele>6.0</ele><time>2026-04-24T11:15:18Z</time></trkpt><trkpt lat="44.4943852313906" lon="11.799387044007918"><ele>6.0</ele><time>2026-04-24T11:15:19Z</time></trkpt><trkpt lat="44.49432371397919" lon="11.799530126075725"><ele>6.0</ele><time>2026-04-24T11:15:20Z</time></trkpt><trkpt lat="44.49427747400679" lon="11.799645607951676"><ele>6.0</ele><time>2026-04-24T11:15:21Z</time></trkpt><trkpt lat="44.49423893597857" lon="11.799731768920925"><ele>6.0</ele><time>2026-04-24T11:15:22Z</time></trkpt><trkpt lat="44.494212905173164" lon="11.799833421257782"><ele>6.0</ele><time>2026-04-24T11:15:27Z</time></trkpt><trkpt lat="44.49417292904293" lon="11.799909879007322"><ele>6.0</ele><time>2026-04-24T11:15:29Z</time></trkpt><trkpt lat="44.494110225701306" lon="11.800016938727753"><ele>6.0</ele><time>2026-04-24T11:15:30Z</time></trkpt><trkpt lat="44.49404697304665" lon="11.800153938874868"><ele>6.0</ele><time>2026-04-24T11:15:31Z</time></trkpt><trkpt lat="44.493981520609175" lon="11.800303803535938"><ele>6.0</ele><time>2026-04-24T11:15:32Z</time></trkpt><trkpt lat="44.49390853380675" lon="11.800473310832107"><ele>6.0</ele><time>2026-04-24T11:15:33Z</time></trkpt><trkpt lat="44.493835105483626" lon="11.800644316166673"><ele>6.0</ele><time>2026-04-24T11:15:34Z</time></trkpt><trkpt lat="44.49376289694805" lon="11.800812480751869"><ele>6.0</ele><time>2026-04-24T11:15:35Z</time></trkpt><trkpt lat="44.49368762571628" lon="11.80098777797124"><ele>6.0</ele><time>2026-04-24T11:15:36Z</time></trkpt><trkpt lat="44.49360980241696" lon="11.801169018601245"><ele>6.0</ele><time>2026-04-24T11:15:37Z</time></trkpt><trkpt lat="44.493528335222706" lon="11.80135478346909"><ele>5.666666666666667</ele><time>2026-04-24T11:15:38Z</time></trkpt><trkpt lat="44.49345758807648" lon="11.80155322740371"><ele>5.333333333333334</ele><time>2026-04-24T11:15:39Z</time></trkpt><trkpt lat="44.49337672178056" lon="11.801738595117857"><ele>5.0</ele><time>2026-04-24T11:15:40Z</time></trkpt><trkpt lat="44.49329344897633" lon="11.80193213446177"><ele>4.666666666666667</ele><time>2026-04-24T11:15:41Z</time></trkpt><trkpt lat="44.49320539867666" lon="11.80213051909526"><ele>4.333333333333333</ele><time>2026-04-24T11:15:42Z</time></trkpt><trkpt lat="44.49311325047038" lon="11.802342238606174"><ele>4.0</ele><time>2026-04-24T11:15:43Z</time></trkpt><trkpt lat="44.493020617742154" lon="11.802561054344496"><ele>3.6666666666666665</ele><time>2026-04-24T11:15:44Z</time></trkpt><trkpt lat="44.492921890445494" lon="11.802782811693758"><ele>3.333333333333333</ele><time>2026-04-24T11:15:45Z</time></trkpt><trkpt lat="44.492819709521115" lon="11.803008552055545"><ele>3.0</ele><time>2026-04-24T11:15:46Z</time></trkpt><trkpt lat="44.492717897047555" lon="11.803243422906714"><ele>3.0</ele><time>2026-04-24T11:15:47Z</time></trkpt><trkpt lat="44.49261902936856" lon="11.803479655592254"><ele>3.0</ele><time>2026-04-24T11:15:48Z</time></trkpt><trkpt lat="44.49252055840075" lon="11.803712898962619"><ele>3.0</ele><time>2026-04-24T11:15:49Z</time></trkpt><trkpt lat="44.49242211021753" lon="11.803942701952263"><ele>3.333333333333333</ele><time>2026-04-24T11:15:50Z</time></trkpt><trkpt lat="44.492324159326564" lon="11.804171039515891"><ele>3.6666666666666665</ele><time>2026-04-24T11:15:51Z</time></trkpt><trkpt lat="44.49222593817544" lon="11.804401116140676"><ele>4.0</ele><time>2026-04-24T11:15:52Z</time></trkpt><trkpt lat="44.49213347954978" lon="11.804626150633387"><ele>4.333333333333333</ele><time>2026-04-24T11:15:53Z</time></trkpt><trkpt lat="44.492039397298186" lon="11.804849647255402"><ele>4.666666666666667</ele><time>2026-04-24T11:15:54Z</time></trkpt><trkpt lat="44.49194731534673" lon="11.805063890217893"><ele>5.0</ele><time>2026-04-24T11:15:55Z</time></trkpt><trkpt lat="44.49185987222575" lon="11.805270898055802"><ele>5.0</ele><time>2026-04-24T11:15:56Z</time></trkpt><trkpt lat="44.491775980074905" lon="11.805465770943226"><ele>5.0</ele><time>2026-04-24T11:15:57Z</time></trkpt><trkpt lat="44.49169460794454" lon="11.80565393261894"><ele>5.0</ele><time>2026-04-24T11:15:58Z</time></trkpt><trkpt lat="44.491613429906245" lon="11.805837725844572"><ele>5.0</ele><time>2026-04-24T11:15:59Z</time></trkpt><trkpt lat="44.49153385803453" lon="11.806022587778864"><ele>5.0</ele><time>2026-04-24T11:16:00Z</time></trkpt><trkpt lat="44.49145560936195" lon="11.806197439568324"><ele>5.0</ele><time>2026-04-24T11:16:01Z</time></trkpt><trkpt lat="44.49136091121645" lon="11.806353518814275"><ele>5.0</ele><time>2026-04-24T11:16:02Z</time></trkpt><trkpt lat="44.49127599179447" lon="11.806529732773345"><ele>5.333333333333334</ele><time>2026-04-24T11:16:03Z</time></trkpt><trkpt lat="44.49118819902813" lon="11.80671190913339"><ele>5.666666666666667</ele><time>2026-04-24T11:16:04Z</time></trkpt><trkpt lat="44.49109972901035" lon="11.8068949206903"><ele>6.0</ele><time>2026-04-24T11:16:05Z</time></trkpt><trkpt lat="44.49100847989329" lon="11.807083699815744"><ele>6.0</ele><time>2026-04-24T11:16:06Z</time></trkpt><trkpt lat="44.49091563663136" lon="11.807275776959502"><ele>6.0</ele><time>2026-04-24T11:16:07Z</time></trkpt><trkpt lat="44.49082416262879" lon="11.80746502133487"><ele>6.0</ele><time>2026-04-24T11:16:08Z</time></trkpt><trkpt lat="44.49073351235881" lon="11.807654386162952"><ele>4.666666666666667</ele><time>2026-04-24T11:16:09Z</time></trkpt><trkpt lat="44.49065958521462" lon="11.807855019428919"><ele>3.333333333333333</ele><time>2026-04-24T11:16:10Z</time></trkpt><trkpt lat="44.49056080580386" lon="11.808033163979527"><ele>2.0</ele><time>2026-04-24T11:16:11Z</time></trkpt><trkpt lat="44.49049270938796" lon="11.80823736581294"><ele>2.333333333333333</ele><time>2026-04-24T11:16:12Z</time></trkpt><trkpt lat="44.49041089192255" lon="11.808428716794351"><ele>2.6666666666666665</ele><time>2026-04-24T11:16:13Z</time></trkpt><trkpt lat="44.490338875075814" lon="11.80862176684489"><ele>3.0</ele><time>2026-04-24T11:16:14Z</time></trkpt><trkpt lat="44.490273902955146" lon="11.808809327237801"><ele>3.0</ele><time>2026-04-24T11:16:15Z</time></trkpt><trkpt lat="44.49021183088851" lon="11.808984721115122"><ele>3.0</ele><time>2026-04-24T11:16:16Z</time></trkpt><trkpt lat="44.49013615439193" lon="11.80913319075436"><ele>3.0</ele><time>2026-04-24T11:16:17Z</time></trkpt><trkpt lat="44.4900774954198" lon="11.809280111660469"><ele>3.0</ele><time>2026-04-24T11:16:18Z</time></trkpt><trkpt lat="44.49001543537474" lon="11.809433603312517"><ele>3.0</ele><time>2026-04-24T11:16:19Z</time></trkpt><trkpt lat="44.489953024823315" lon="11.80958605436035"><ele>3.0</ele><time>2026-04-24T11:16:20Z</time></trkpt><trkpt lat="44.48989694854808" lon="11.809751472393131"><ele>3.0</ele><time>2026-04-24T11:16:21Z</time></trkpt><trkpt lat="44.48983053924469" lon="11.809911783704255"><ele>3.0</ele><time>2026-04-24T11:16:22Z</time></trkpt><trkpt lat="44.489765261048944" lon="11.810071092115813"><ele>3.0</ele><time>2026-04-24T11:16:23Z</time></trkpt><trkpt lat="44.489694736423154" lon="11.81022474277204"><ele>3.0</ele><time>2026-04-24T11:16:24Z</time></trkpt><trkpt lat="44.489632364542125" lon="11.81038120508569"><ele>3.0</ele><time>2026-04-24T11:16:25Z</time></trkpt><trkpt lat="44.48956583134398" lon="11.81053877026726"><ele>3.0</ele><time>2026-04-24T11:16:26Z</time></trkpt><trkpt lat="44.4894916038954" lon="11.81069562898054"><ele>3.0</ele><time>2026-04-24T11:16:27Z</time></trkpt><trkpt lat="44.48942371053456" lon="11.810862330042657"><ele>3.0</ele><time>2026-04-24T11:16:28Z</time></trkpt><trkpt lat="44.48935528472189" lon="11.811028070374102"><ele>3.0</ele><time>2026-04-24T11:16:29Z</time></trkpt><trkpt lat="44.489287178984455" lon="11.811200447429474"><ele>3.0</ele><time>2026-04-24T11:16:30Z</time></trkpt><trkpt lat="44.48920595211049" lon="11.811354250092464"><ele>3.0</ele><time>2026-04-24T11:16:31Z</time></trkpt><trkpt lat="44.489137198599195" lon="11.811527095221457"><ele>3.0</ele><time>2026-04-24T11:16:32Z</time></trkpt><trkpt lat="44.48907239594861" lon="11.811696153479518"><ele>3.0</ele><time>2026-04-24T11:16:33Z</time></trkpt><trkpt lat="44.48902104064722" lon="11.811878045309626"><ele>3.0</ele><time>2026-04-24T11:16:34Z</time></trkpt><trkpt lat="44.48894216687075" lon="11.812042347895225"><ele>3.25</ele><time>2026-04-24T11:16:35Z</time></trkpt><trkpt lat="44.48887816778704" lon="11.812215145419042"><ele>3.5</ele><time>2026-04-24T11:16:36Z</time></trkpt><trkpt lat="44.488828036158466" lon="11.812401097592407"><ele>3.75</ele><time>2026-04-24T11:16:37Z</time></trkpt><trkpt lat="44.488748516520246" lon="11.812565203836689"><ele>4.0</ele><time>2026-04-24T11:16:38Z</time></trkpt><trkpt lat="44.488697882443354" lon="11.812750753093585"><ele>4.0</ele><time>2026-04-24T11:16:39Z</time></trkpt><trkpt lat="44.488632932583634" lon="11.812923701188295"><ele>4.0</ele><time>2026-04-24T11:16:40Z</time></trkpt><trkpt lat="44.48856629237645" lon="11.813093187372793"><ele>4.0</ele><time>2026-04-24T11:16:41Z</time></trkpt><trkpt lat="44.48849302445061" lon="11.813255643573747"><ele>4.0</ele><time>2026-04-24T11:16:42Z</time></trkpt><trkpt lat="44.48842252415953" lon="11.813415678942764"><ele>4.0</ele><time>2026-04-24T11:16:43Z</time></trkpt><trkpt lat="44.4883294416754" lon="11.813550661483795"><ele>4.0</ele><time>2026-04-24T11:16:44Z</time></trkpt><trkpt lat="44.48823709631859" lon="11.81368142545477"><ele>4.0</ele><time>2026-04-24T11:16:45Z</time></trkpt><trkpt lat="44.48813547405114" lon="11.813804261964274"><ele>4.0</ele><time>2026-04-24T11:16:46Z</time></trkpt><trkpt lat="44.48803146760102" lon="11.813923489517734"><ele>4.25</ele><time>2026-04-24T11:16:47Z</time></trkpt><trkpt lat="44.487925895181256" lon="11.81404103099571"><ele>4.5</ele><time>2026-04-24T11:16:48Z</time></trkpt><trkpt lat="44.4878225149289" lon="11.814156130280281"><ele>4.75</ele><time>2026-04-24T11:16:49Z</time></trkpt><trkpt lat="44.48771784925784" lon="11.814270434699301"><ele>5.0</ele><time>2026-04-24T11:16:50Z</time></trkpt><trkpt lat="44.487613228858045" lon="11.814384419777735"><ele>4.5</ele><time>2026-04-24T11:16:51Z</time></trkpt><trkpt lat="44.48750766375497" lon="11.814500472885811"><ele>4.0</ele><time>2026-04-24T11:16:52Z</time></trkpt><trkpt lat="44.48740244429859" lon="11.814617299317655"><ele>3.5</ele><time>2026-04-24T11:16:53Z</time></trkpt><trkpt lat="44.48730294272272" lon="11.814746032961981"><ele>3.0</ele><time>2026-04-24T11:16:54Z</time></trkpt><trkpt lat="44.48720141667164" lon="11.81485745679101"><ele>3.0</ele><time>2026-04-24T11:16:55Z</time></trkpt><trkpt lat="44.48710800953172" lon="11.8149609113104"><ele>3.0</ele><time>2026-04-24T11:16:56Z</time></trkpt><trkpt lat="44.48701275640665" lon="11.815066930760455"><ele>3.0</ele><time>2026-04-24T11:16:57Z</time></trkpt><trkpt lat="44.486914530594106" lon="11.815173396630495"><ele>3.0</ele><time>2026-04-24T11:16:58Z</time></trkpt><trkpt lat="44.486824284061356" lon="11.815287011715961"><ele>3.5</ele><time>2026-04-24T11:16:59Z</time></trkpt><trkpt lat="44.486737057525296" lon="11.8154254598052"><ele>4.0</ele><time>2026-04-24T11:17:00Z</time></trkpt><trkpt lat="44.48665416751607" lon="11.815582897412252"><ele>4.5</ele><time>2026-04-24T11:17:01Z</time></trkpt><trkpt lat="44.48657980596972" lon="11.815758347175246"><ele>5.0</ele><time>2026-04-24T11:17:02Z</time></trkpt><trkpt lat="44.48651220852505" lon="11.815957189243761"><ele>5.0</ele><time>2026-04-24T11:17:03Z</time></trkpt><trkpt lat="44.48644180812985" lon="11.816141944308894"><ele>5.0</ele><time>2026-04-24T11:17:04Z</time></trkpt><trkpt lat="44.486372838960875" lon="11.816322708541588"><ele>5.0</ele><time>2026-04-24T11:17:05Z</time></trkpt><trkpt lat="44.48631457533638" lon="11.816488599079303"><ele>5.0</ele><time>2026-04-24T11:17:06Z</time></trkpt><trkpt lat="44.48625846599146" lon="11.816647915910389"><ele>5.0</ele><time>2026-04-24T11:17:07Z</time></trkpt><trkpt lat="44.486189728146186" lon="11.816800612096086"><ele>5.0</ele><time>2026-04-24T11:17:08Z</time></trkpt><trkpt lat="44.48611437175225" lon="11.81693157646613"><ele>5.0</ele><time>2026-04-24T11:17:09Z</time></trkpt><trkpt lat="44.48603940798593" lon="11.817038332647915"><ele>5.0</ele><time>2026-04-24T11:17:10Z</time></trkpt><trkpt lat="44.485977509442655" lon="11.817139993612296"><ele>5.0</ele><time>2026-04-24T11:17:11Z</time></trkpt><trkpt lat="44.485914260956626" lon="11.817226897218438"><ele>5.0</ele><time>2026-04-24T11:17:12Z</time></trkpt><trkpt lat="44.48586248079488" lon="11.817325341297861"><ele>5.0</ele><time>2026-04-24T11:17:13Z</time></trkpt><trkpt lat="44.4858175735508" lon="11.81742016107946"><ele>5.0</ele><time>2026-04-24T11:17:14Z</time></trkpt><trkpt lat="44.48577313085899" lon="11.817502501390914"><ele>5.0</ele><time>2026-04-24T11:17:15Z</time></trkpt><trkpt lat="44.48572132510209" lon="11.817572710727642"><ele>5.0</ele><time>2026-04-24T11:17:16Z</time></trkpt><trkpt lat="44.48566350939972" lon="11.817650539711966"><ele>5.2</ele><time>2026-04-24T11:17:17Z</time></trkpt><trkpt lat="44.485621530398944" lon="11.81774032877916"><ele>5.4</ele><time>2026-04-24T11:17:18Z</time></trkpt><trkpt lat="44.485604696657056" lon="11.817854838009824"><ele>5.6</ele><time>2026-04-24T11:17:19Z</time></trkpt><trkpt lat="44.48560800838138" lon="11.817983526164761"><ele>5.8</ele><time>2026-04-24T11:17:20Z</time></trkpt><trkpt lat="44.4856431964521" lon="11.818111792657593"><ele>6.0</ele><time>2026-04-24T11:17:21Z</time></trkpt><trkpt lat="44.485586890055124" lon="11.818278561264254"><ele>6.0</ele><time>2026-04-24T11:17:22Z</time></trkpt><trkpt lat="44.485512234046574" lon="11.818416469139253"><ele>6.0</ele><time>2026-04-24T11:17:23Z</time></trkpt><trkpt lat="44.485453057168925" lon="11.81857929857392"><ele>6.0</ele><time>2026-04-24T11:17:24Z</time></trkpt><trkpt lat="44.48538638074397" lon="11.818730247974747"><ele>6.0</ele><time>2026-04-24T11:17:25Z</time></trkpt><trkpt lat="44.48532204952116" lon="11.818881189635388"><ele>6.0</ele><time>2026-04-24T11:17:26Z</time></trkpt><trkpt lat="44.48525911633177" lon="11.819026408110634"><ele>6.0</ele><time>2026-04-24T11:17:27Z</time></trkpt><trkpt lat="44.48520127307368" lon="11.819162036268008"><ele>6.0</ele><time>2026-04-24T11:17:28Z</time></trkpt><trkpt lat="44.485149723246366" lon="11.819279677558358"><ele>6.0</ele><time>2026-04-24T11:17:29Z</time></trkpt><trkpt lat="44.48510314179728" lon="11.8193822638616"><ele>6.0</ele><time>2026-04-24T11:17:30Z</time></trkpt><trkpt lat="44.48506439393459" lon="11.819474611024674"><ele>6.333333333333333</ele><time>2026-04-24T11:17:31Z</time></trkpt><trkpt lat="44.48502758929271" lon="11.819551920298899"><ele>6.666666666666666</ele><time>2026-04-24T11:17:32Z</time></trkpt><trkpt lat="44.48498697811597" lon="11.819691184618588"><ele>7.0</ele><time>2026-04-24T11:17:34Z</time></trkpt><trkpt lat="44.48503703028301" lon="11.81981191634232"><ele>7.333333333333333</ele><time>2026-04-24T11:17:36Z</time></trkpt><trkpt lat="44.48509159693628" lon="11.819862479947517"><ele>7.666666666666666</ele><time>2026-04-24T11:17:37Z</time></trkpt><trkpt lat="44.48515184357748" lon="11.819910706925812"><ele>8.0</ele><time>2026-04-24T11:17:38Z</time></trkpt><trkpt lat="44.48520742793522" lon="11.81996547983429"><ele>7.999999999999999</ele><time>2026-04-24T11:17:39Z</time></trkpt><trkpt lat="44.48523961648587" lon="11.820042106708561"><ele>8.0</ele><time>2026-04-24T11:17:40Z</time></trkpt><trkpt lat="44.48529853143613" lon="11.82012479164532"><ele>8.0</ele><time>2026-04-24T11:17:42Z</time></trkpt><trkpt lat="44.48533108435178" lon="11.820200500568873"><ele>8.0</ele><time>2026-04-24T11:18:40Z</time></trkpt><trkpt lat="44.4853979526907" lon="11.820232988891766"><ele>7.999999999999999</ele><time>2026-04-24T11:18:43Z</time></trkpt><trkpt lat="44.48547368718561" lon="11.820306929243577"><ele>8.0</ele><time>2026-04-24T11:18:45Z</time></trkpt><trkpt lat="44.48557329689222" lon="11.820412412144472"><ele>7.4</ele><time>2026-04-24T11:18:47Z</time></trkpt><trkpt lat="44.485638204161845" lon="11.820470498326163"><ele>6.800000000000001</ele><time>2026-04-24T11:18:48Z</time></trkpt><trkpt lat="44.48569674477093" lon="11.820553087646996"><ele>6.2</ele><time>2026-04-24T11:18:49Z</time></trkpt><trkpt lat="44.48577220926095" lon="11.820624843316537"><ele>5.6</ele><time>2026-04-24T11:18:50Z</time></trkpt><trkpt lat="44.485855953847015" lon="11.82070060632949"><ele>5.0</ele><time>2026-04-24T11:18:51Z</time></trkpt><trkpt lat="44.48594330055132" lon="11.820779308142157"><ele>5.0</ele><time>2026-04-24T11:18:52Z</time></trkpt><trkpt lat="44.486034351263726" lon="11.820858582072633"><ele>5.0</ele><time>2026-04-24T11:18:53Z</time></trkpt><trkpt lat="44.486136717841845" lon="11.820920451128917"><ele>5.0</ele><time>2026-04-24T11:18:54Z</time></trkpt><trkpt lat="44.48622374474212" lon="11.821011884186664"><ele>5.0</ele><time>2026-04-24T11:18:55Z</time></trkpt><trkpt lat="44.486323277335465" lon="11.821099827380388"><ele>5.0</ele><time>2026-04-24T11:18:56Z</time></trkpt><trkpt lat="44.486427625680015" lon="11.821186700254064"><ele>4.75</ele><time>2026-04-24T11:18:57Z</time></trkpt><trkpt lat="44.48653319347977" lon="11.821274783867082"><ele>4.5</ele><time>2026-04-24T11:18:58Z</time></trkpt><trkpt lat="44.48664195363179" lon="11.8213677549109"><ele>4.25</ele><time>2026-04-24T11:18:59Z</time></trkpt><trkpt lat="44.48675677256809" lon="11.821468411360762"><ele>4.0</ele><time>2026-04-24T11:19:00Z</time></trkpt><trkpt lat="44.48686207034049" lon="11.821558557346528"><ele>4.0</ele><time>2026-04-24T11:19:01Z</time></trkpt><trkpt lat="44.486956032585766" lon="11.821640539388197"><ele>4.0</ele><time>2026-04-24T11:19:02Z</time></trkpt><trkpt lat="44.48704772303573" lon="11.821720161392276"><ele>4.0</ele><time>2026-04-24T11:19:03Z</time></trkpt><trkpt lat="44.48714097851872" lon="11.821802878352482"><ele>4.0</ele><time>2026-04-24T11:19:04Z</time></trkpt><trkpt lat="44.48724432757178" lon="11.821891861214482"><ele>4.25</ele><time>2026-04-24T11:19:05Z</time></trkpt><trkpt lat="44.48735619173691" lon="11.821989115905712"><ele>4.5</ele><time>2026-04-24T11:19:06Z</time></trkpt><trkpt lat="44.487471261613834" lon="11.822093255528701"><ele>4.75</ele><time>2026-04-24T11:19:07Z</time></trkpt><trkpt lat="44.487592506787536" lon="11.822201297360701"><ele>5.0</ele><time>2026-04-24T11:19:08Z</time></trkpt><trkpt lat="44.487720349201204" lon="11.822309163255353"><ele>5.0</ele><time>2026-04-24T11:19:09Z</time></trkpt><trkpt lat="44.48784962118048" lon="11.822425326725995"><ele>5.0</ele><time>2026-04-24T11:19:10Z</time></trkpt><trkpt lat="44.48797771577157" lon="11.822537645079404"><ele>5.0</ele><time>2026-04-24T11:19:11Z</time></trkpt><trkpt lat="44.48810421697447" lon="11.822643527288133"><ele>5.5</ele><time>2026-04-24T11:19:12Z</time></trkpt><trkpt lat="44.488230238214314" lon="11.822750489946948"><ele>6.0</ele><time>2026-04-24T11:19:13Z</time></trkpt><trkpt lat="44.48835267209218" lon="11.822858115879557"><ele>6.5</ele><time>2026-04-24T11:19:14Z</time></trkpt><trkpt lat="44.488477038644106" lon="11.822960178162436"><ele>7.0</ele><time>2026-04-24T11:19:15Z</time></trkpt><trkpt lat="44.48859726158475" lon="11.823060443103952"><ele>7.0</ele><time>2026-04-24T11:19:16Z</time></trkpt><trkpt lat="44.488714592774855" lon="11.823159255219355"><ele>7.0</ele><time>2026-04-24T11:19:17Z</time></trkpt><trkpt lat="44.48883060007152" lon="11.82325364003978"><ele>7.0</ele><time>2026-04-24T11:19:18Z</time></trkpt><trkpt lat="44.488941368388616" lon="11.823346591909024"><ele>7.0</ele><time>2026-04-24T11:19:19Z</time></trkpt><trkpt lat="44.48904675810322" lon="11.823440900557765"><ele>8.0</ele><time>2026-04-24T11:19:20Z</time></trkpt><trkpt lat="44.489140512107966" lon="11.823525777578793"><ele>9.0</ele><time>2026-04-24T11:19:21Z</time></trkpt><trkpt lat="44.4892195772148" lon="11.823607395325297"><ele>10.0</ele><time>2026-04-24T11:19:22Z</time></trkpt><trkpt lat="44.48929804994968" lon="11.823690043870009"><ele>11.0</ele><time>2026-04-24T11:19:23Z</time></trkpt><trkpt lat="44.48938278425668" lon="11.823774768654824"><ele>12.0</ele><time>2026-04-24T11:19:24Z</time></trkpt><trkpt lat="44.48947086676031" lon="11.823865097879553"><ele>12.0</ele><time>2026-04-24T11:19:25Z</time></trkpt><trkpt lat="44.489562063176905" lon="11.823954086098121"><ele>12.0</ele><time>2026-04-24T11:19:26Z</time></trkpt><trkpt lat="44.489655413703055" lon="11.82404752348053"><ele>12.0</ele><time>2026-04-24T11:19:27Z</time></trkpt><trkpt lat="44.489748759881984" lon="11.824139556140109"><ele>12.0</ele><time>2026-04-24T11:19:28Z</time></trkpt><trkpt lat="44.48983144460774" lon="11.824218948748944"><ele>12.0</ele><time>2026-04-24T11:19:29Z</time></trkpt><trkpt lat="44.489906981194906" lon="11.824290395079643"><ele>11.333333333333334</ele><time>2026-04-24T11:19:30Z</time></trkpt><trkpt lat="44.48997198981196" lon="11.824350706995986"><ele>10.666666666666666</ele><time>2026-04-24T11:19:31Z</time></trkpt><trkpt lat="44.49003418092965" lon="11.824400100384926"><ele>10.0</ele><time>2026-04-24T11:19:32Z</time></trkpt><trkpt lat="44.490102340502766" lon="11.824443403984455"><ele>9.333333333333332</ele><time>2026-04-24T11:19:33Z</time></trkpt><trkpt lat="44.4901816781257" lon="11.824492571097037"><ele>8.666666666666666</ele><time>2026-04-24T11:19:34Z</time></trkpt><trkpt lat="44.49027013731838" lon="11.824550016808695"><ele>8.0</ele><time>2026-04-24T11:19:35Z</time></trkpt><trkpt lat="44.490374248603096" lon="11.824603139729405"><ele>8.0</ele><time>2026-04-24T11:19:36Z</time></trkpt><trkpt lat="44.49049021382944" lon="11.824653906502364"><ele>8.0</ele><time>2026-04-24T11:19:37Z</time></trkpt><trkpt lat="44.49060052310876" lon="11.824697403002373"><ele>8.0</ele><time>2026-04-24T11:19:38Z</time></trkpt><trkpt lat="44.49069563393214" lon="11.82473294822585"><ele>8.0</ele><time>2026-04-24T11:19:39Z</time></trkpt><trkpt lat="44.490799470226726" lon="11.824763544342552"><ele>8.0</ele><time>2026-04-24T11:19:40Z</time></trkpt><trkpt lat="44.49091441237116" lon="11.824794117703048"><ele>8.0</ele><time>2026-04-24T11:19:41Z</time></trkpt><trkpt lat="44.491035381205634" lon="11.82482417151061"><ele>8.0</ele><time>2026-04-24T11:19:42Z</time></trkpt><trkpt lat="44.49116585274696" lon="11.824859515204079"><ele>8.0</ele><time>2026-04-24T11:19:43Z</time></trkpt><trkpt lat="44.49130250954345" lon="11.824894951055434"><ele>8.0</ele><time>2026-04-24T11:19:44Z</time></trkpt><trkpt lat="44.49142177319463" lon="11.824934795086108"><ele>7.800000000000001</ele><time>2026-04-24T11:19:45Z</time></trkpt><trkpt lat="44.491532186248484" lon="11.824969374268123"><ele>7.6000000000000005</ele><time>2026-04-24T11:19:46Z</time></trkpt><trkpt lat="44.49162534106989" lon="11.82500020016137"><ele>7.3999999999999995</ele><time>2026-04-24T11:19:47Z</time></trkpt><trkpt lat="44.491707478037426" lon="11.825048413594267"><ele>7.199999999999999</ele><time>2026-04-24T11:19:48Z</time></trkpt><trkpt lat="44.49177580125637" lon="11.825051709671648"><ele>7.0</ele><time>2026-04-24T11:19:49Z</time></trkpt><trkpt lat="44.491776817498106" lon="11.82524983846146"><ele>6.8</ele><time>2026-04-24T11:19:52Z</time></trkpt><trkpt lat="44.491691689207606" lon="11.825300268696848"><ele>6.6</ele><time>2026-04-24T11:19:53Z</time></trkpt><trkpt lat="44.49161475672875" lon="11.825395616607128"><ele>6.3999999999999995</ele><time>2026-04-24T11:19:54Z</time></trkpt><trkpt lat="44.491530809781416" lon="11.825499964851732"><ele>6.199999999999999</ele><time>2026-04-24T11:19:55Z</time></trkpt><trkpt lat="44.491443103075" lon="11.82560898701138"><ele>6.0</ele><time>2026-04-24T11:19:56Z</time></trkpt><trkpt lat="44.491355167076655" lon="11.825716362908471"><ele>6.0</ele><time>2026-04-24T11:19:57Z</time></trkpt><trkpt lat="44.49128301889696" lon="11.825834526016754"><ele>6.0</ele><time>2026-04-24T11:19:58Z</time></trkpt><trkpt lat="44.491202888065665" lon="11.825923533233807"><ele>6.0</ele><time>2026-04-24T11:19:59Z</time></trkpt><trkpt lat="44.49112987760566" lon="11.826008458727175"><ele>6.0</ele><time>2026-04-24T11:20:00Z</time></trkpt><trkpt lat="44.49106019296224" lon="11.826092914743075"><ele>6.0</ele><time>2026-04-24T11:20:01Z</time></trkpt><trkpt lat="44.4909968982724" lon="11.826175218428695"><ele>6.4</ele><time>2026-04-24T11:20:02Z</time></trkpt><trkpt lat="44.49092944935959" lon="11.826259365336568"><ele>6.8</ele><time>2026-04-24T11:20:03Z</time></trkpt><trkpt lat="44.49085579785056" lon="11.826348813190394"><ele>7.200000000000001</ele><time>2026-04-24T11:20:04Z</time></trkpt><trkpt lat="44.49077494250131" lon="11.826439905443658"><ele>7.6000000000000005</ele><time>2026-04-24T11:20:05Z</time></trkpt><trkpt lat="44.490674498656354" lon="11.826510101722214"><ele>8.0</ele><time>2026-04-24T11:20:06Z</time></trkpt><trkpt lat="44.49057198772874" lon="11.826573406588084"><ele>8.0</ele><time>2026-04-24T11:20:07Z</time></trkpt><trkpt lat="44.49046494077859" lon="11.826623104201015"><ele>8.0</ele><time>2026-04-24T11:20:08Z</time></trkpt><trkpt lat="44.49034705758564" lon="11.826648670850778"><ele>8.0</ele><time>2026-04-24T11:20:09Z</time></trkpt><trkpt lat="44.49022363971143" lon="11.826696254438486"><ele>8.0</ele><time>2026-04-24T11:20:10Z</time></trkpt><trkpt lat="44.490095837949426" lon="11.826728567001817"><ele>8.0</ele><time>2026-04-24T11:20:11Z</time></trkpt><trkpt lat="44.489986271830055" lon="11.826776895817098"><ele>8.0</ele><time>2026-04-24T11:20:12Z</time></trkpt><trkpt lat="44.48988355206832" lon="11.826840792640535"><ele>8.0</ele><time>2026-04-24T11:20:13Z</time></trkpt><trkpt lat="44.48978228886497" lon="11.826943071291238"><ele>8.0</ele><time>2026-04-24T11:20:14Z</time></trkpt><trkpt lat="44.489685060662595" lon="11.827076710688264"><ele>8.0</ele><time>2026-04-24T11:20:15Z</time></trkpt><trkpt lat="44.489591675955445" lon="11.827224839187382"><ele>8.0</ele><time>2026-04-24T11:20:16Z</time></trkpt><trkpt lat="44.489502431241874" lon="11.827378304197413"><ele>8.0</ele><time>2026-04-24T11:20:17Z</time></trkpt><trkpt lat="44.48942208611536" lon="11.827541484916399"><ele>8.0</ele><time>2026-04-24T11:20:18Z</time></trkpt><trkpt lat="44.48935022877231" lon="11.827716686028259"><ele>8.0</ele><time>2026-04-24T11:20:19Z</time></trkpt><trkpt lat="44.48928112902331" lon="11.827889685758388"><ele>8.0</ele><time>2026-04-24T11:20:20Z</time></trkpt><trkpt lat="44.489218543669125" lon="11.828053443772973"><ele>8.0</ele><time>2026-04-24T11:20:21Z</time></trkpt><trkpt lat="44.489161264902165" lon="11.828202496265492"><ele>8.0</ele><time>2026-04-24T11:20:22Z</time></trkpt><trkpt lat="44.48910529992543" lon="11.828341053690798"><ele>7.75</ele><time>2026-04-24T11:20:23Z</time></trkpt><trkpt lat="44.48904540096275" lon="11.828481249728227"><ele>7.5</ele><time>2026-04-24T11:20:24Z</time></trkpt><trkpt lat="44.488981679170344" lon="11.828630842710814"><ele>7.25</ele><time>2026-04-24T11:20:25Z</time></trkpt><trkpt lat="44.48890903143813" lon="11.828790749989693"><ele>7.0</ele><time>2026-04-24T11:20:26Z</time></trkpt><trkpt lat="44.48883306430279" lon="11.828951457465235"><ele>7.0</ele><time>2026-04-24T11:20:27Z</time></trkpt><trkpt lat="44.4887382146062" lon="11.829082765529071"><ele>7.0</ele><time>2026-04-24T11:20:28Z</time></trkpt><trkpt lat="44.48865501569101" lon="11.829207038546414"><ele>7.0</ele><time>2026-04-24T11:20:29Z</time></trkpt><trkpt lat="44.48857989655892" lon="11.829322113270994"><ele>7.0</ele><time>2026-04-24T11:20:30Z</time></trkpt><trkpt lat="44.48848951528992" lon="11.829432842182403"><ele>7.0</ele><time>2026-04-24T11:20:31Z</time></trkpt><trkpt lat="44.48838803162917" lon="11.829549701474544"><ele>7.0</ele><time>2026-04-24T11:20:32Z</time></trkpt><trkpt lat="44.488275902533815" lon="11.829675565194725"><ele>7.0</ele><time>2026-04-24T11:20:33Z</time></trkpt><trkpt lat="44.48815647632415" lon="11.829808632537121"><ele>7.0</ele><time>2026-04-24T11:20:34Z</time></trkpt><trkpt lat="44.48803206023202" lon="11.829951053260093"><ele>7.333333333333334</ele><time>2026-04-24T11:20:35Z</time></trkpt><trkpt lat="44.48790848062766" lon="11.83010028431824"><ele>7.666666666666666</ele><time>2026-04-24T11:20:36Z</time></trkpt><trkpt lat="44.48778873522516" lon="11.830267622439202"><ele>8.0</ele><time>2026-04-24T11:20:37Z</time></trkpt><trkpt lat="44.48767149639739" lon="11.830461410350203"><ele>8.0</ele><time>2026-04-24T11:20:38Z</time></trkpt><trkpt lat="44.48755488634656" lon="11.830667521192474"><ele>8.0</ele><time>2026-04-24T11:20:39Z</time></trkpt><trkpt lat="44.487443435646554" lon="11.830886821416474"><ele>8.0</ele><time>2026-04-24T11:20:40Z</time></trkpt><trkpt lat="44.48733600899419" lon="11.831101949587106"><ele>8.0</ele><time>2026-04-24T11:20:41Z</time></trkpt><trkpt lat="44.48723322662289" lon="11.831331118435015"><ele>8.0</ele><time>2026-04-24T11:20:42Z</time></trkpt><trkpt lat="44.487137077180655" lon="11.831574490228302"><ele>8.0</ele><time>2026-04-24T11:20:43Z</time></trkpt><trkpt lat="44.487048136132564" lon="11.831828367402089"><ele>7.333333333333333</ele><time>2026-04-24T11:20:44Z</time></trkpt><trkpt lat="44.48696080541052" lon="11.83208385686987"><ele>6.666666666666666</ele><time>2026-04-24T11:20:45Z</time></trkpt><trkpt lat="44.48687858503499" lon="11.832329839459256"><ele>6.0</ele><time>2026-04-24T11:20:46Z</time></trkpt><trkpt lat="44.4868012566567" lon="11.832553216618562"><ele>6.0</ele><time>2026-04-24T11:20:47Z</time></trkpt><trkpt lat="44.48672694500457" lon="11.832762542720568"><ele>6.0</ele><time>2026-04-24T11:20:48Z</time></trkpt><trkpt lat="44.48665132591371" lon="11.83298638105784"><ele>6.0</ele><time>2026-04-24T11:20:49Z</time></trkpt><trkpt lat="44.48658590919095" lon="11.833213904185463"><ele>6.0</ele><time>2026-04-24T11:20:50Z</time></trkpt><trkpt lat="44.48653736344186" lon="11.833444083677513"><ele>6.0</ele><time>2026-04-24T11:20:51Z</time></trkpt><trkpt lat="44.4864946079423" lon="11.833695854543288"><ele>6.0</ele><time>2026-04-24T11:20:52Z</time></trkpt><trkpt lat="44.48645863928004" lon="11.833953319261896"><ele>6.333333333333334</ele><time>2026-04-24T11:20:53Z</time></trkpt><trkpt lat="44.48642823163888" lon="11.834204799674234"><ele>6.666666666666667</ele><time>2026-04-24T11:20:54Z</time></trkpt><trkpt lat="44.48639280178027" lon="11.83444276444074"><ele>7.0</ele><time>2026-04-24T11:20:55Z</time></trkpt><trkpt lat="44.48631642058639" lon="11.83465228401775"><ele>7.0</ele><time>2026-04-24T11:20:56Z</time></trkpt><trkpt lat="44.48622718643879" lon="11.834868540876165"><ele>7.0</ele><time>2026-04-24T11:20:57Z</time></trkpt><trkpt lat="44.48613469831063" lon="11.835087376841832"><ele>7.0</ele><time>2026-04-24T11:20:58Z</time></trkpt><trkpt lat="44.48606009127878" lon="11.835298695021747"><ele>6.333333333333334</ele><time>2026-04-24T11:20:59Z</time></trkpt><trkpt lat="44.48597742387627" lon="11.835482494830865"><ele>5.666666666666667</ele><time>2026-04-24T11:21:00Z</time></trkpt><trkpt lat="44.48589324763704" lon="11.835672999391948"><ele>5.0</ele><time>2026-04-24T11:21:01Z</time></trkpt><trkpt lat="44.48582788528113" lon="11.83589700609624"><ele>5.333333333333334</ele><time>2026-04-24T11:21:02Z</time></trkpt><trkpt lat="44.485773544997926" lon="11.836157400487112"><ele>5.666666666666667</ele><time>2026-04-24T11:21:03Z</time></trkpt><trkpt lat="44.485730987509484" lon="11.836435483358166"><ele>6.0</ele><time>2026-04-24T11:21:04Z</time></trkpt><trkpt lat="44.485689409445754" lon="11.836729187838165"><ele>6.333333333333334</ele><time>2026-04-24T11:21:05Z</time></trkpt><trkpt lat="44.48563536326991" lon="11.837009286015933"><ele>6.666666666666667</ele><time>2026-04-24T11:21:06Z</time></trkpt><trkpt lat="44.485575938283205" lon="11.837267274825447"><ele>7.0</ele><time>2026-04-24T11:21:07Z</time></trkpt><trkpt lat="44.4855078525462" lon="11.837501588186619"><ele>6.666666666666667</ele><time>2026-04-24T11:21:08Z</time></trkpt><trkpt lat="44.485401996649884" lon="11.837699527295692"><ele>6.333333333333334</ele><time>2026-04-24T11:21:09Z</time></trkpt><trkpt lat="44.48528905909925" lon="11.83788195303416"><ele>6.0</ele><time>2026-04-24T11:21:10Z</time></trkpt><trkpt lat="44.4851746203594" lon="11.838066447526495"><ele>6.0</ele><time>2026-04-24T11:21:11Z</time></trkpt><trkpt lat="44.48508551625136" lon="11.838267577852116"><ele>6.0</ele><time>2026-04-24T11:21:12Z</time></trkpt><trkpt lat="44.484992569761076" lon="11.838469519821846"><ele>6.0</ele><time>2026-04-24T11:21:13Z</time></trkpt><trkpt lat="44.48491861473042" lon="11.838676341848702"><ele>6.0</ele><time>2026-04-24T11:21:14Z</time></trkpt><trkpt lat="44.48485992682907" lon="11.83887212280907"><ele>6.0</ele><time>2026-04-24T11:21:15Z</time></trkpt><trkpt lat="44.48481384768575" lon="11.839060633864033"><ele>6.0</ele><time>2026-04-24T11:21:16Z</time></trkpt><trkpt lat="44.48478958761184" lon="11.839247889853933"><ele>6.0</ele><time>2026-04-24T11:21:17Z</time></trkpt><trkpt lat="44.48481367205117" lon="11.83945265764191"><ele>6.0</ele><time>2026-04-24T11:21:18Z</time></trkpt><trkpt lat="44.484858107015945" lon="11.839673303047949"><ele>6.0</ele><time>2026-04-24T11:21:19Z</time></trkpt><trkpt lat="44.48489346443954" lon="11.839912325102834"><ele>6.0</ele><time>2026-04-24T11:21:20Z</time></trkpt><trkpt lat="44.48495125416894" lon="11.840123437607334"><ele>5.75</ele><time>2026-04-24T11:21:21Z</time></trkpt><trkpt lat="44.48493941395733" lon="11.840326630106235"><ele>5.5</ele><time>2026-04-24T11:21:22Z</time></trkpt><trkpt lat="44.484916355200625" lon="11.840529392300928"><ele>5.25</ele><time>2026-04-24T11:21:23Z</time></trkpt><trkpt lat="44.48486932860064" lon="11.840730516979455"><ele>5.0</ele><time>2026-04-24T11:21:24Z</time></trkpt><trkpt lat="44.484802055995914" lon="11.84090985175662"><ele>5.5</ele><time>2026-04-24T11:21:25Z</time></trkpt><trkpt lat="44.48470982303068" lon="11.841053955047558"><ele>6.0</ele><time>2026-04-24T11:21:26Z</time></trkpt><trkpt lat="44.48460611680151" lon="11.841176228126619"><ele>6.5</ele><time>2026-04-24T11:21:27Z</time></trkpt><trkpt lat="44.484482425619" lon="11.84126698095204"><ele>7.0</ele><time>2026-04-24T11:21:28Z</time></trkpt><trkpt lat="44.48433843579175" lon="11.841373852155568"><ele>7.0</ele><time>2026-04-24T11:21:29Z</time></trkpt><trkpt lat="44.4842004254898" lon="11.841470029939916"><ele>7.0</ele><time>2026-04-24T11:21:30Z</time></trkpt><trkpt lat="44.48406965644377" lon="11.841543876549396"><ele>7.0</ele><time>2026-04-24T11:21:31Z</time></trkpt><trkpt lat="44.48394123203019" lon="11.841604543473935"><ele>7.0</ele><time>2026-04-24T11:21:32Z</time></trkpt><trkpt lat="44.48379701101638" lon="11.841667904787917"><ele>7.0</ele><time>2026-04-24T11:21:33Z</time></trkpt><trkpt lat="44.48364052324908" lon="11.841745199192594"><ele>7.0</ele><time>2026-04-24T11:21:34Z</time></trkpt><trkpt lat="44.4834677402529" lon="11.841811252429427"><ele>7.0</ele><time>2026-04-24T11:21:35Z</time></trkpt><trkpt lat="44.48327997832077" lon="11.841854973730172"><ele>6.666666666666667</ele><time>2026-04-24T11:21:36Z</time></trkpt><trkpt lat="44.48308560321282" lon="11.841911419866147"><ele>6.333333333333334</ele><time>2026-04-24T11:21:37Z</time></trkpt><trkpt lat="44.48288814830746" lon="11.841987950065295"><ele>6.0</ele><time>2026-04-24T11:21:38Z</time></trkpt><trkpt lat="44.48268517153863" lon="11.842036699284634"><ele>6.0</ele><time>2026-04-24T11:21:39Z</time></trkpt><trkpt lat="44.482481681387235" lon="11.842085815981173"><ele>6.0</ele><time>2026-04-24T11:21:40Z</time></trkpt><trkpt lat="44.48228787538694" lon="11.842137652798572"><ele>6.0</ele><time>2026-04-24T11:21:41Z</time></trkpt><trkpt lat="44.48209687089112" lon="11.842187018923614"><ele>5.666666666666667</ele><time>2026-04-24T11:21:42Z</time></trkpt><trkpt lat="44.48191112323343" lon="11.842241525732312"><ele>5.333333333333334</ele><time>2026-04-24T11:21:43Z</time></trkpt><trkpt lat="44.48172375513053" lon="11.84228943739182"><ele>5.0</ele><time>2026-04-24T11:21:44Z</time></trkpt><trkpt lat="44.481540691647474" lon="11.842361891398506"><ele>5.0</ele><time>2026-04-24T11:21:45Z</time></trkpt><trkpt lat="44.481353058305146" lon="11.842432389425708"><ele>5.0</ele><time>2026-04-24T11:21:46Z</time></trkpt><trkpt lat="44.4811705989596" lon="11.842531804247463"><ele>5.0</ele><time>2026-04-24T11:21:47Z</time></trkpt><trkpt lat="44.480992285684515" lon="11.84264692255624"><ele>5.666666666666667</ele><time>2026-04-24T11:21:48Z</time></trkpt><trkpt lat="44.480815108505446" lon="11.84277452367975"><ele>6.333333333333334</ele><time>2026-04-24T11:21:49Z</time></trkpt><trkpt lat="44.48064010277637" lon="11.842906105600001"><ele>7.0</ele><time>2026-04-24T11:21:50Z</time></trkpt><trkpt lat="44.48046633926021" lon="11.843044249218606"><ele>6.666666666666667</ele><time>2026-04-24T11:21:51Z</time></trkpt><trkpt lat="44.480298635638356" lon="11.843195650037964"><ele>6.333333333333334</ele><time>2026-04-24T11:21:52Z</time></trkpt><trkpt lat="44.480138277328535" lon="11.843361925692424"><ele>6.0</ele><time>2026-04-24T11:21:53Z</time></trkpt><trkpt lat="44.479981522884216" lon="11.84353588319188"><ele>5.666666666666667</ele><time>2026-04-24T11:21:54Z</time></trkpt><trkpt lat="44.47982610457488" lon="11.843709352949253"><ele>5.333333333333334</ele><time>2026-04-24T11:21:55Z</time></trkpt><trkpt lat="44.479673204040104" lon="11.843882844336454"><ele>5.0</ele><time>2026-04-24T11:21:56Z</time></trkpt><trkpt lat="44.47951820874567" lon="11.844054281426224"><ele>5.333333333333334</ele><time>2026-04-24T11:21:57Z</time></trkpt><trkpt lat="44.479361384217505" lon="11.844226102007779"><ele>5.666666666666667</ele><time>2026-04-24T11:21:58Z</time></trkpt><trkpt lat="44.47920952665474" lon="11.844395478657368"><ele>6.0</ele><time>2026-04-24T11:21:59Z</time></trkpt><trkpt lat="44.47905842561425" lon="11.84456707016186"><ele>6.0</ele><time>2026-04-24T11:22:00Z</time></trkpt><trkpt lat="44.47891238213838" lon="11.844736086204495"><ele>6.0</ele><time>2026-04-24T11:22:01Z</time></trkpt><trkpt lat="44.47877846124464" lon="11.844902837165428"><ele>6.0</ele><time>2026-04-24T11:22:02Z</time></trkpt><trkpt lat="44.47865657771956" lon="11.845057291330226"><ele>6.25</ele><time>2026-04-24T11:22:03Z</time></trkpt><trkpt lat="44.478547320541956" lon="11.845195811480451"><ele>6.5</ele><time>2026-04-24T11:22:04Z</time></trkpt><trkpt lat="44.47844006648389" lon="11.845309218319743"><ele>6.75</ele><time>2026-04-24T11:22:05Z</time></trkpt><trkpt lat="44.47832575344865" lon="11.845370007996339"><ele>7.0</ele><time>2026-04-24T11:22:06Z</time></trkpt><trkpt lat="44.478213595714415" lon="11.845431036808233"><ele>7.0</ele><time>2026-04-24T11:22:07Z</time></trkpt><trkpt lat="44.47808859909956" lon="11.845486996245478"><ele>7.0</ele><time>2026-04-24T11:22:08Z</time></trkpt><trkpt lat="44.47795567952848" lon="11.845553934165743"><ele>7.0</ele><time>2026-04-24T11:22:09Z</time></trkpt><trkpt lat="44.47781011347831" lon="11.845598294126571"><ele>7.0</ele><time>2026-04-24T11:22:10Z</time></trkpt><trkpt lat="44.477653423448885" lon="11.845619441282718"><ele>7.0</ele><time>2026-04-24T11:22:11Z</time></trkpt><trkpt lat="44.47748662327789" lon="11.845658471265672"><ele>7.0</ele><time>2026-04-24T11:22:12Z</time></trkpt><trkpt lat="44.47731743139469" lon="11.845710209559162"><ele>7.0</ele><time>2026-04-24T11:22:13Z</time></trkpt><trkpt lat="44.47713820509152" lon="11.845738410481166"><ele>6.666666666666667</ele><time>2026-04-24T11:22:14Z</time></trkpt><trkpt lat="44.47695234644626" lon="11.845765042419568"><ele>6.333333333333334</ele><time>2026-04-24T11:22:15Z</time></trkpt><trkpt lat="44.476764387061515" lon="11.845786874834191"><ele>6.0</ele><time>2026-04-24T11:22:16Z</time></trkpt><trkpt lat="44.47657881655599" lon="11.845805130709707"><ele>6.0</ele><time>2026-04-24T11:22:17Z</time></trkpt><trkpt lat="44.47639437082858" lon="11.845785501507743"><ele>6.0</ele><time>2026-04-24T11:22:18Z</time></trkpt><trkpt lat="44.47621150660628" lon="11.84579910653185"><ele>6.0</ele><time>2026-04-24T11:22:19Z</time></trkpt><trkpt lat="44.476028822367574" lon="11.845820913595723"><ele>6.0</ele><time>2026-04-24T11:22:20Z</time></trkpt><trkpt lat="44.47584558413966" lon="11.845864913471495"><ele>6.0</ele><time>2026-04-24T11:22:21Z</time></trkpt><trkpt lat="44.475658667217026" lon="11.845892296685893"><ele>6.0</ele><time>2026-04-24T11:22:22Z</time></trkpt><trkpt lat="44.47547734332668" lon="11.845921263355512"><ele>6.0</ele><time>2026-04-24T11:22:23Z</time></trkpt><trkpt lat="44.47529537017746" lon="11.845948497979588"><ele>6.0</ele><time>2026-04-24T11:22:24Z</time></trkpt><trkpt lat="44.47510935807143" lon="11.845973971122987"><ele>6.0</ele><time>2026-04-24T11:22:25Z</time></trkpt><trkpt lat="44.47491793796571" lon="11.84600404065179"><ele>6.0</ele><time>2026-04-24T11:22:26Z</time></trkpt><trkpt lat="44.47472314602109" lon="11.84605457866088"><ele>6.0</ele><time>2026-04-24T11:22:27Z</time></trkpt><trkpt lat="44.474527533127414" lon="11.846129941420761"><ele>6.0</ele><time>2026-04-24T11:22:28Z</time></trkpt><trkpt lat="44.474330984506004" lon="11.846223814809903"><ele>6.333333333333334</ele><time>2026-04-24T11:22:29Z</time></trkpt><trkpt lat="44.47413440518944" lon="11.846331721026752"><ele>6.666666666666667</ele><time>2026-04-24T11:22:30Z</time></trkpt><trkpt lat="44.47393506630233" lon="11.846454956346507"><ele>7.0</ele><time>2026-04-24T11:22:31Z</time></trkpt><trkpt lat="44.473733966775775" lon="11.846591300267097"><ele>7.0</ele><time>2026-04-24T11:22:32Z</time></trkpt><trkpt lat="44.47353053997929" lon="11.84672658552469"><ele>7.0</ele><time>2026-04-24T11:22:33Z</time></trkpt><trkpt lat="44.47332742272353" lon="11.846845302359904"><ele>7.0</ele><time>2026-04-24T11:22:34Z</time></trkpt><trkpt lat="44.47311769595808" lon="11.846954238850264"><ele>6.666666666666667</ele><time>2026-04-24T11:22:35Z</time></trkpt><trkpt lat="44.472910607203985" lon="11.847063662059472"><ele>6.333333333333334</ele><time>2026-04-24T11:22:36Z</time></trkpt><trkpt lat="44.472719583804235" lon="11.847168437503727"><ele>6.0</ele><time>2026-04-24T11:22:37Z</time></trkpt><trkpt lat="44.472544457626846" lon="11.847266646226009"><ele>6.0</ele><time>2026-04-24T11:22:38Z</time></trkpt><trkpt lat="44.47237886053823" lon="11.847349703111098"><ele>6.0</ele><time>2026-04-24T11:22:39Z</time></trkpt><trkpt lat="44.47222101186269" lon="11.847428622860798"><ele>6.0</ele><time>2026-04-24T11:22:40Z</time></trkpt><trkpt lat="44.472069087197006" lon="11.847509716482783"><ele>6.333333333333334</ele><time>2026-04-24T11:22:41Z</time></trkpt><trkpt lat="44.4719142769433" lon="11.847586663298264"><ele>6.666666666666667</ele><time>2026-04-24T11:22:42Z</time></trkpt><trkpt lat="44.47175285733483" lon="11.847611040406958"><ele>7.0</ele><time>2026-04-24T11:22:43Z</time></trkpt><trkpt lat="44.471603643784135" lon="11.847623049523921"><ele>7.0</ele><time>2026-04-24T11:22:44Z</time></trkpt><trkpt lat="44.471457201637726" lon="11.847611103443295"><ele>7.0</ele><time>2026-04-24T11:22:45Z</time></trkpt><trkpt lat="44.471325451878556" lon="11.8475910280532"><ele>7.0</ele><time>2026-04-24T11:22:46Z</time></trkpt><trkpt lat="44.47121096893484" lon="11.847559344137418"><ele>7.0</ele><time>2026-04-24T11:22:47Z</time></trkpt><trkpt lat="44.4711220205387" lon="11.847521449754893"><ele>7.199999999999999</ele><time>2026-04-24T11:22:48Z</time></trkpt><trkpt lat="44.47106119278439" lon="11.847486398454798"><ele>7.3999999999999995</ele><time>2026-04-24T11:22:49Z</time></trkpt><trkpt lat="44.470953208273265" lon="11.847489776133665"><ele>7.6000000000000005</ele><time>2026-04-24T11:22:51Z</time></trkpt><trkpt lat="44.470953014149146" lon="11.847671694538587"><ele>7.800000000000001</ele><time>2026-04-24T11:22:52Z</time></trkpt><trkpt lat="44.47092457453444" lon="11.847763591514926"><ele>8.0</ele><time>2026-04-24T11:22:53Z</time></trkpt><trkpt lat="44.470914170481365" lon="11.847895151148553"><ele>8.0</ele><time>2026-04-24T11:22:54Z</time></trkpt><trkpt lat="44.47089559236394" lon="11.848047590048953"><ele>8.0</ele><time>2026-04-24T11:22:55Z</time></trkpt><trkpt lat="44.47086906110235" lon="11.848223135168997"><ele>8.0</ele><time>2026-04-24T11:22:56Z</time></trkpt><trkpt lat="44.47084217463641" lon="11.848427399947346"><ele>8.0</ele><time>2026-04-24T11:22:57Z</time></trkpt><trkpt lat="44.470810016409665" lon="11.84865281665875"><ele>7.333333333333333</ele><time>2026-04-24T11:22:58Z</time></trkpt><trkpt lat="44.47077006281791" lon="11.84889719777716"><ele>6.666666666666666</ele><time>2026-04-24T11:22:59Z</time></trkpt><trkpt lat="44.470732798936275" lon="11.849162093323446"><ele>6.0</ele><time>2026-04-24T11:23:00Z</time></trkpt><trkpt lat="44.4706963485261" lon="11.849437715152837"><ele>6.0</ele><time>2026-04-24T11:23:01Z</time></trkpt><trkpt lat="44.470652517203746" lon="11.849717269209764"><ele>6.0</ele><time>2026-04-24T11:23:02Z</time></trkpt><trkpt lat="44.470611412098876" lon="11.849992850542453"><ele>6.0</ele><time>2026-04-24T11:23:03Z</time></trkpt><trkpt lat="44.470574229338986" lon="11.850263983469883"><ele>6.333333333333334</ele><time>2026-04-24T11:23:04Z</time></trkpt><trkpt lat="44.4705332974083" lon="11.850545884292623"><ele>6.666666666666667</ele><time>2026-04-24T11:23:05Z</time></trkpt><trkpt lat="44.47048774391229" lon="11.85082738537018"><ele>7.0</ele><time>2026-04-24T11:23:06Z</time></trkpt><trkpt lat="44.47044533386969" lon="11.851109644881529"><ele>6.666666666666667</ele><time>2026-04-24T11:23:07Z</time></trkpt><trkpt lat="44.47040540405836" lon="11.851393997661704"><ele>6.333333333333334</ele><time>2026-04-24T11:23:08Z</time></trkpt><trkpt lat="44.47036202777778" lon="11.851669430040227"><ele>6.0</ele><time>2026-04-24T11:23:09Z</time></trkpt><trkpt lat="44.47031689865724" lon="11.851940728940637"><ele>6.0</ele><time>2026-04-24T11:23:10Z</time></trkpt><trkpt lat="44.47027450486943" lon="11.85220269960221"><ele>6.0</ele><time>2026-04-24T11:23:11Z</time></trkpt><trkpt lat="44.47023297875543" lon="11.85244541017217"><ele>6.0</ele><time>2026-04-24T11:23:12Z</time></trkpt><trkpt lat="44.47019385741727" lon="11.852667710591886"><ele>5.666666666666667</ele><time>2026-04-24T11:23:13Z</time></trkpt><trkpt lat="44.47015858590602" lon="11.852880829491419"><ele>5.333333333333334</ele><time>2026-04-24T11:23:14Z</time></trkpt><trkpt lat="44.47011841698886" lon="11.853099416295807"><ele>5.0</ele><time>2026-04-24T11:23:15Z</time></trkpt><trkpt lat="44.4700819348781" lon="11.853303524250602"><ele>5.0</ele><time>2026-04-24T11:23:16Z</time></trkpt><trkpt lat="44.47004392442526" lon="11.853503282402421"><ele>5.0</ele><time>2026-04-24T11:23:17Z</time></trkpt><trkpt lat="44.47000611578981" lon="11.853697980276833"><ele>5.0</ele><time>2026-04-24T11:23:18Z</time></trkpt><trkpt lat="44.46997216478714" lon="11.853883910476558"><ele>5.0</ele><time>2026-04-24T11:23:19Z</time></trkpt><trkpt lat="44.46994415029754" lon="11.854055964649142"><ele>5.0</ele><time>2026-04-24T11:23:20Z</time></trkpt><trkpt lat="44.46991685414587" lon="11.854220365741103"><ele>5.0</ele><time>2026-04-24T11:23:21Z</time></trkpt><trkpt lat="44.469899864108385" lon="11.854383170058755"><ele>5.0</ele><time>2026-04-24T11:23:22Z</time></trkpt><trkpt lat="44.4699014028847" lon="11.854534900455173"><ele>5.0</ele><time>2026-04-24T11:23:23Z</time></trkpt><trkpt lat="44.46995133691848" lon="11.85467315613143"><ele>5.0</ele><time>2026-04-24T11:23:24Z</time></trkpt><trkpt lat="44.47001185725131" lon="11.85480683070879"><ele>5.0</ele><time>2026-04-24T11:23:25Z</time></trkpt><trkpt lat="44.4700595160877" lon="11.854931215391472"><ele>5.0</ele><time>2026-04-24T11:23:26Z</time></trkpt><trkpt lat="44.47010710436" lon="11.855049740270646"><ele>5.0</ele><time>2026-04-24T11:23:27Z</time></trkpt><trkpt lat="44.47009304715911" lon="11.855196593062363"><ele>5.0</ele><time>2026-04-24T11:23:28Z</time></trkpt><trkpt lat="44.47004960424757" lon="11.85535442221061"><ele>5.25</ele><time>2026-04-24T11:23:29Z</time></trkpt><trkpt lat="44.47001245014328" lon="11.855523173473609"><ele>5.5</ele><time>2026-04-24T11:23:30Z</time></trkpt><trkpt lat="44.469981748098796" lon="11.855695014138858"><ele>5.75</ele><time>2026-04-24T11:23:31Z</time></trkpt><trkpt lat="44.46994549249622" lon="11.85587713001381"><ele>6.0</ele><time>2026-04-24T11:23:32Z</time></trkpt><trkpt lat="44.46990053300026" lon="11.856081271137592"><ele>6.0</ele><time>2026-04-24T11:23:33Z</time></trkpt><trkpt lat="44.46984515951051" lon="11.856297845559526"><ele>6.0</ele><time>2026-04-24T11:23:34Z</time></trkpt><trkpt lat="44.46979231069953" lon="11.856529042987997"><ele>6.0</ele><time>2026-04-24T11:23:35Z</time></trkpt><trkpt lat="44.469736719350905" lon="11.856774954509211"><ele>5.333333333333333</ele><time>2026-04-24T11:23:36Z</time></trkpt><trkpt lat="44.469678048508825" lon="11.857035590026303"><ele>4.666666666666666</ele><time>2026-04-24T11:23:37Z</time></trkpt><trkpt lat="44.469617050399044" lon="11.857306659307378"><ele>4.0</ele><time>2026-04-24T11:23:38Z</time></trkpt><trkpt lat="44.46955866867882" lon="11.857578997707563"><ele>4.666666666666666</ele><time>2026-04-24T11:23:39Z</time></trkpt><trkpt lat="44.46949951095309" lon="11.85785365253415"><ele>5.333333333333333</ele><time>2026-04-24T11:23:40Z</time></trkpt><trkpt lat="44.46944091243962" lon="11.858131208468807"><ele>6.0</ele><time>2026-04-24T11:23:41Z</time></trkpt><trkpt lat="44.46938214178265" lon="11.858410455727956"><ele>6.0</ele><time>2026-04-24T11:23:42Z</time></trkpt><trkpt lat="44.46932191349166" lon="11.85868971208821"><ele>6.0</ele><time>2026-04-24T11:23:43Z</time></trkpt><trkpt lat="44.469262215590355" lon="11.858971318912431"><ele>6.0</ele><time>2026-04-24T11:23:44Z</time></trkpt><trkpt lat="44.46920207609109" lon="11.859252011127664"><ele>5.666666666666667</ele><time>2026-04-24T11:23:45Z</time></trkpt><trkpt lat="44.46913976922318" lon="11.859533451885282"><ele>5.333333333333334</ele><time>2026-04-24T11:23:46Z</time></trkpt><trkpt lat="44.46907736675574" lon="11.859815585549272"><ele>5.0</ele><time>2026-04-24T11:23:47Z</time></trkpt><trkpt lat="44.4690170972812" lon="11.860097401452732"><ele>4.666666666666667</ele><time>2026-04-24T11:23:48Z</time></trkpt><trkpt lat="44.46895725385852" lon="11.86038206895173"><ele>4.333333333333333</ele><time>2026-04-24T11:23:49Z</time></trkpt><trkpt lat="44.46889671674014" lon="11.860668129446816"><ele>4.0</ele><time>2026-04-24T11:23:50Z</time></trkpt><trkpt lat="44.46883558055619" lon="11.860956406769956"><ele>4.0</ele><time>2026-04-24T11:23:51Z</time></trkpt><trkpt lat="44.46877111141548" lon="11.861244071675287"><ele>4.0</ele><time>2026-04-24T11:23:52Z</time></trkpt><trkpt lat="44.46870592304793" lon="11.86153403686012"><ele>4.0</ele><time>2026-04-24T11:23:53Z</time></trkpt><trkpt lat="44.468637115906944" lon="11.861815132255542"><ele>4.666666666666666</ele><time>2026-04-24T11:23:54Z</time></trkpt><trkpt lat="44.46856609092303" lon="11.862086743906842"><ele>5.333333333333333</ele><time>2026-04-24T11:23:55Z</time></trkpt><trkpt lat="44.46849508108249" lon="11.862361486220777"><ele>6.0</ele><time>2026-04-24T11:23:56Z</time></trkpt><trkpt lat="44.468426939985854" lon="11.862634730589743"><ele>6.333333333333334</ele><time>2026-04-24T11:23:57Z</time></trkpt><trkpt lat="44.46836315351693" lon="11.862899762673424"><ele>6.666666666666667</ele><time>2026-04-24T11:23:58Z</time></trkpt><trkpt lat="44.46830046035068" lon="11.863147767036878"><ele>7.0</ele><time>2026-04-24T11:23:59Z</time></trkpt><trkpt lat="44.46824032239466" lon="11.863374214019785"><ele>6.5</ele><time>2026-04-24T11:24:00Z</time></trkpt><trkpt lat="44.46816001290593" lon="11.863568669498651"><ele>6.0</ele><time>2026-04-24T11:24:01Z</time></trkpt><trkpt lat="44.46810535599441" lon="11.86376276449148"><ele>5.5</ele><time>2026-04-24T11:24:02Z</time></trkpt><trkpt lat="44.46803390532188" lon="11.86393166825976"><ele>5.0</ele><time>2026-04-24T11:24:03Z</time></trkpt><trkpt lat="44.467966238068826" lon="11.864092057407312"><ele>5.0</ele><time>2026-04-24T11:24:04Z</time></trkpt><trkpt lat="44.46790276759823" lon="11.864254359995359"><ele>5.0</ele><time>2026-04-24T11:24:05Z</time></trkpt><trkpt lat="44.46784062441846" lon="11.864415117112275"><ele>5.0</ele><time>2026-04-24T11:24:06Z</time></trkpt><trkpt lat="44.46777929727807" lon="11.864571056858336"><ele>5.0</ele><time>2026-04-24T11:24:07Z</time></trkpt><trkpt lat="44.46771249923904" lon="11.864738816906478"><ele>5.0</ele><time>2026-04-24T11:24:08Z</time></trkpt><trkpt lat="44.4676380529504" lon="11.86492387649581"><ele>5.0</ele><time>2026-04-24T11:24:09Z</time></trkpt><trkpt lat="44.467570503346984" lon="11.86512600100895"><ele>5.0</ele><time>2026-04-24T11:24:10Z</time></trkpt><trkpt lat="44.46747856384691" lon="11.865331531312897"><ele>5.0</ele><time>2026-04-24T11:24:11Z</time></trkpt><trkpt lat="44.46738953197844" lon="11.865559833083429"><ele>5.0</ele><time>2026-04-24T11:24:12Z</time></trkpt><trkpt lat="44.467295753936156" lon="11.865800305221788"><ele>5.0</ele><time>2026-04-24T11:24:13Z</time></trkpt><trkpt lat="44.467209775342454" lon="11.86605404687754"><ele>5.0</ele><time>2026-04-24T11:24:14Z</time></trkpt><trkpt lat="44.46710442132044" lon="11.86629879082424"><ele>5.0</ele><time>2026-04-24T11:24:15Z</time></trkpt><trkpt lat="44.46700083422128" lon="11.866550950004893"><ele>5.0</ele><time>2026-04-24T11:24:16Z</time></trkpt><trkpt lat="44.466902052506434" lon="11.866805516842241"><ele>5.0</ele><time>2026-04-24T11:24:17Z</time></trkpt><trkpt lat="44.466801596823466" lon="11.867063009739738"><ele>5.0</ele><time>2026-04-24T11:24:18Z</time></trkpt><trkpt lat="44.46670180064507" lon="11.867321994885451"><ele>5.0</ele><time>2026-04-24T11:24:19Z</time></trkpt><trkpt lat="44.466602391065244" lon="11.867584997194262"><ele>5.333333333333334</ele><time>2026-04-24T11:24:20Z</time></trkpt><trkpt lat="44.46650054584078" lon="11.867849008960551"><ele>5.666666666666667</ele><time>2026-04-24T11:24:21Z</time></trkpt><trkpt lat="44.46640467645571" lon="11.86811459746785"><ele>6.0</ele><time>2026-04-24T11:24:22Z</time></trkpt><trkpt lat="44.46632082216711" lon="11.86838102860269"><ele>6.0</ele><time>2026-04-24T11:24:23Z</time></trkpt><trkpt lat="44.46623968347192" lon="11.868648306677922"><ele>6.0</ele><time>2026-04-24T11:24:24Z</time></trkpt><trkpt lat="44.46615697563976" lon="11.868913773440351"><ele>6.0</ele><time>2026-04-24T11:24:25Z</time></trkpt><trkpt lat="44.46607282202457" lon="11.86917970350231"><ele>6.333333333333334</ele><time>2026-04-24T11:24:26Z</time></trkpt><trkpt lat="44.46598849037875" lon="11.869447353625322"><ele>6.666666666666667</ele><time>2026-04-24T11:24:27Z</time></trkpt><trkpt lat="44.46590480399606" lon="11.86971799281819"><ele>7.0</ele><time>2026-04-24T11:24:28Z</time></trkpt><trkpt lat="44.465821640825034" lon="11.869989641352525"><ele>6.666666666666667</ele><time>2026-04-24T11:24:29Z</time></trkpt><trkpt lat="44.46573451704718" lon="11.870259359471508"><ele>6.333333333333334</ele><time>2026-04-24T11:24:30Z</time></trkpt><trkpt lat="44.46564356365714" lon="11.870526338366831"><ele>6.0</ele><time>2026-04-24T11:24:31Z</time></trkpt><trkpt lat="44.46554849063534" lon="11.870793406799356"><ele>6.0</ele><time>2026-04-24T11:24:32Z</time></trkpt><trkpt lat="44.46545188614165" lon="11.871060898277037"><ele>6.0</ele><time>2026-04-24T11:24:33Z</time></trkpt><trkpt lat="44.46535216744878" lon="11.871324783012604"><ele>6.0</ele><time>2026-04-24T11:24:34Z</time></trkpt><trkpt lat="44.46524868673584" lon="11.871587898584735"><ele>6.333333333333334</ele><time>2026-04-24T11:24:35Z</time></trkpt><trkpt lat="44.46514799774347" lon="11.871852263228591"><ele>6.666666666666667</ele><time>2026-04-24T11:24:36Z</time></trkpt><trkpt lat="44.46504488091591" lon="11.872117567773438"><ele>7.0</ele><time>2026-04-24T11:24:37Z</time></trkpt><trkpt lat="44.464940305336334" lon="11.87237588714009"><ele>7.333333333333334</ele><time>2026-04-24T11:24:38Z</time></trkpt><trkpt lat="44.4648375822338" lon="11.87263358007988"><ele>7.666666666666666</ele><time>2026-04-24T11:24:39Z</time></trkpt><trkpt lat="44.464740043743205" lon="11.872891838090265"><ele>8.0</ele><time>2026-04-24T11:24:40Z</time></trkpt><trkpt lat="44.46464061903453" lon="11.873148275611111"><ele>8.0</ele><time>2026-04-24T11:24:41Z</time></trkpt><trkpt lat="44.46454440733568" lon="11.873404319677142"><ele>8.0</ele><time>2026-04-24T11:24:42Z</time></trkpt><trkpt lat="44.46444734213956" lon="11.873660170354883"><ele>8.0</ele><time>2026-04-24T11:24:43Z</time></trkpt><trkpt lat="44.46435121842292" lon="11.87391600132145"><ele>8.0</ele><time>2026-04-24T11:24:44Z</time></trkpt><trkpt lat="44.464257945808434" lon="11.874171371500498"><ele>8.0</ele><time>2026-04-24T11:24:45Z</time></trkpt><trkpt lat="44.464157772391" lon="11.874435992504276"><ele>8.0</ele><time>2026-04-24T11:24:46Z</time></trkpt><trkpt lat="44.46407822522609" lon="11.874697822867828"><ele>8.0</ele><time>2026-04-24T11:24:47Z</time></trkpt><trkpt lat="44.46399658356376" lon="11.874965115785619"><ele>8.0</ele><time>2026-04-24T11:24:48Z</time></trkpt><trkpt lat="44.46391265187809" lon="11.875230385077213"><ele>8.0</ele><time>2026-04-24T11:24:49Z</time></trkpt><trkpt lat="44.463826763871474" lon="11.875492042480278"><ele>8.0</ele><time>2026-04-24T11:24:50Z</time></trkpt><trkpt lat="44.46374173767286" lon="11.875751978003064"><ele>8.0</ele><time>2026-04-24T11:24:51Z</time></trkpt><trkpt lat="44.46365686628783" lon="11.876009716423217"><ele>8.0</ele><time>2026-04-24T11:24:52Z</time></trkpt><trkpt lat="44.46357234113002" lon="11.876270065266738"><ele>7.666666666666666</ele><time>2026-04-24T11:24:53Z</time></trkpt><trkpt lat="44.46348444275969" lon="11.876529347305352"><ele>7.333333333333334</ele><time>2026-04-24T11:24:54Z</time></trkpt><trkpt lat="44.46339685894827" lon="11.876788041457127"><ele>7.0</ele><time>2026-04-24T11:24:55Z</time></trkpt><trkpt lat="44.46331224246083" lon="11.87704159681662"><ele>7.0</ele><time>2026-04-24T11:24:56Z</time></trkpt><trkpt lat="44.46322774666584" lon="11.877284454404919"><ele>7.0</ele><time>2026-04-24T11:24:57Z</time></trkpt><trkpt lat="44.463143716431915" lon="11.87750754466762"><ele>7.0</ele><time>2026-04-24T11:24:58Z</time></trkpt><trkpt lat="44.463060496128364" lon="11.877720402302796"><ele>7.0</ele><time>2026-04-24T11:24:59Z</time></trkpt><trkpt lat="44.46298246756974" lon="11.877921625853"><ele>7.0</ele><time>2026-04-24T11:25:00Z</time></trkpt><trkpt lat="44.46290368755001" lon="11.878103697462281"><ele>7.0</ele><time>2026-04-24T11:25:01Z</time></trkpt><trkpt lat="44.46284253011757" lon="11.878267641156052"><ele>7.0</ele><time>2026-04-24T11:25:02Z</time></trkpt><trkpt lat="44.462775594537796" lon="11.878400981812758"><ele>7.333333333333334</ele><time>2026-04-24T11:25:03Z</time></trkpt><trkpt lat="44.462721223012835" lon="11.878515637978731"><ele>7.666666666666667</ele><time>2026-04-24T11:25:04Z</time></trkpt><trkpt lat="44.46270419041789" lon="11.878620893264687"><ele>8.0</ele><time>2026-04-24T11:25:05Z</time></trkpt><trkpt lat="44.462684320752224" lon="11.878707631435482"><ele>8.333333333333334</ele><time>2026-04-24T11:25:06Z</time></trkpt><trkpt lat="44.46262840729005" lon="11.87876817994042"><ele>8.666666666666666</ele><time>2026-04-24T11:25:07Z</time></trkpt><trkpt lat="44.462627119260105" lon="11.878879725638397"><ele>9.0</ele><time>2026-04-24T11:25:09Z</time></trkpt><trkpt lat="44.46266208911275" lon="11.878954546186236"><ele>9.0</ele><time>2026-04-24T11:25:11Z</time></trkpt><trkpt lat="44.462791985259436" lon="11.878998314348268"><ele>9.0</ele><time>2026-04-24T11:25:12Z</time></trkpt><trkpt lat="44.462893691766105" lon="11.879010967909549"><ele>9.0</ele><time>2026-04-24T11:25:13Z</time></trkpt><trkpt lat="44.46301263414237" lon="11.87902571178007"><ele>9.0</ele><time>2026-04-24T11:25:14Z</time></trkpt><trkpt lat="44.463139384983606" lon="11.879044974819301"><ele>8.5</ele><time>2026-04-24T11:25:15Z</time></trkpt><trkpt lat="44.4632630584931" lon="11.879065001635562"><ele>8.0</ele><time>2026-04-24T11:25:16Z</time></trkpt><trkpt lat="44.46339978846587" lon="11.879094412707165"><ele>7.5</ele><time>2026-04-24T11:25:17Z</time></trkpt><trkpt lat="44.463545967502895" lon="11.879136157083614"><ele>7.0</ele><time>2026-04-24T11:25:18Z</time></trkpt><trkpt lat="44.463685764441266" lon="11.879184913754925"><ele>7.25</ele><time>2026-04-24T11:25:19Z</time></trkpt><trkpt lat="44.46380728922188" lon="11.879235154179192"><ele>7.5</ele><time>2026-04-24T11:25:20Z</time></trkpt><trkpt lat="44.46391425288555" lon="11.879290141518258"><ele>7.75</ele><time>2026-04-24T11:25:21Z</time></trkpt><trkpt lat="44.4640111222092" lon="11.879337306777813"><ele>8.0</ele><time>2026-04-24T11:25:22Z</time></trkpt><trkpt lat="44.464112370182555" lon="11.879390237042022"><ele>8.0</ele><time>2026-04-24T11:25:23Z</time></trkpt><trkpt lat="44.46421933860055" lon="11.879446674192021"><ele>8.0</ele><time>2026-04-24T11:25:24Z</time></trkpt><trkpt lat="44.46432620011602" lon="11.879508546634764"><ele>8.0</ele><time>2026-04-24T11:25:25Z</time></trkpt><trkpt lat="44.464440700002314" lon="11.879584566037824"><ele>8.0</ele><time>2026-04-24T11:25:26Z</time></trkpt><trkpt lat="44.464550825936705" lon="11.87965513453525"><ele>8.25</ele><time>2026-04-24T11:25:27Z</time></trkpt><trkpt lat="44.464645757780644" lon="11.879719652369795"><ele>8.5</ele><time>2026-04-24T11:25:28Z</time></trkpt><trkpt lat="44.464725414941526" lon="11.879790697956853"><ele>8.75</ele><time>2026-04-24T11:25:29Z</time></trkpt><trkpt lat="44.46478264748673" lon="11.879885888245267"><ele>9.0</ele><time>2026-04-24T11:25:30Z</time></trkpt><trkpt lat="44.464864648290266" lon="11.880155860169229"><ele>9.0</ele><time>2026-04-24T11:25:32Z</time></trkpt><trkpt lat="44.464872491733225" lon="11.880307178365651"><ele>9.0</ele><time>2026-04-24T11:25:33Z</time></trkpt><trkpt lat="44.46485090111656" lon="11.880459320806713"><ele>9.0</ele><time>2026-04-24T11:25:34Z</time></trkpt><trkpt lat="44.464836492223796" lon="11.88060560907432"><ele>9.0</ele><time>2026-04-24T11:25:35Z</time></trkpt><trkpt lat="44.46470616042116" lon="11.880749394052271"><ele>9.0</ele><time>2026-04-24T11:25:36Z</time></trkpt><trkpt lat="44.46461741177985" lon="11.880913008802207"><ele>9.0</ele><time>2026-04-24T11:25:37Z</time></trkpt><trkpt lat="44.46453512560894" lon="11.88109710456125"><ele>9.0</ele><time>2026-04-24T11:25:38Z</time></trkpt><trkpt lat="44.46443365174324" lon="11.881271761306895"><ele>10.0</ele><time>2026-04-24T11:25:39Z</time></trkpt><trkpt lat="44.464339216067614" lon="11.881439786028483"><ele>11.0</ele><time>2026-04-24T11:25:40Z</time></trkpt><trkpt lat="44.46424475839744" lon="11.881609306744467"><ele>12.0</ele><time>2026-04-24T11:25:41Z</time></trkpt><trkpt lat="44.46414808502487" lon="11.88178355244129"><ele>12.333333333333332</ele><time>2026-04-24T11:25:42Z</time></trkpt><trkpt lat="44.464050147094206" lon="11.881958398256197"><ele>12.666666666666666</ele><time>2026-04-24T11:25:43Z</time></trkpt><trkpt lat="44.46395539850455" lon="11.882138048027818"><ele>13.0</ele><time>2026-04-24T11:25:44Z</time></trkpt><trkpt lat="44.46386110078299" lon="11.882316098262582"><ele>12.5</ele><time>2026-04-24T11:25:45Z</time></trkpt><trkpt lat="44.46376494270811" lon="11.88248857966221"><ele>12.0</ele><time>2026-04-24T11:25:46Z</time></trkpt><trkpt lat="44.46367592338951" lon="11.88265168896242"><ele>11.5</ele><time>2026-04-24T11:25:47Z</time></trkpt><trkpt lat="44.463596322269005" lon="11.882800145031238"><ele>11.0</ele><time>2026-04-24T11:25:48Z</time></trkpt><trkpt lat="44.46352698678296" lon="11.882935078460966"><ele>11.0</ele><time>2026-04-24T11:25:49Z</time></trkpt><trkpt lat="44.463462032626595" lon="11.883054679836855"><ele>11.0</ele><time>2026-04-24T11:25:50Z</time></trkpt><trkpt lat="44.46340306678496" lon="11.883166938297837"><ele>11.0</ele><time>2026-04-24T11:25:51Z</time></trkpt><trkpt lat="44.463350625130005" lon="11.88327211733107"><ele>11.0</ele><time>2026-04-24T11:25:52Z</time></trkpt><trkpt lat="44.463304402789284" lon="11.883366126774566"><ele>11.0</ele><time>2026-04-24T11:25:53Z</time></trkpt><trkpt lat="44.46322490172982" lon="11.883445227013944"><ele>11.0</ele><time>2026-04-24T11:25:55Z</time></trkpt><trkpt lat="44.46312874516592" lon="11.88334177386908"><ele>11.0</ele><time>2026-04-24T11:25:57Z</time></trkpt><trkpt lat="44.463048901825125" lon="11.883277844894382"><ele>11.0</ele><time>2026-04-24T11:25:58Z</time></trkpt><trkpt lat="44.462971540428825" lon="11.883178997917186"><ele>11.0</ele><time>2026-04-24T11:25:59Z</time></trkpt><trkpt lat="44.46288460090919" lon="11.883069918285171"><ele>11.0</ele><time>2026-04-24T11:26:00Z</time></trkpt><trkpt lat="44.46279076380736" lon="11.882961505411178"><ele>11.0</ele><time>2026-04-24T11:26:01Z</time></trkpt><trkpt lat="44.46268915453949" lon="11.882852344739485"><ele>11.0</ele><time>2026-04-24T11:26:02Z</time></trkpt><trkpt lat="44.462586377829574" lon="11.882743506482477"><ele>11.0</ele><time>2026-04-24T11:26:03Z</time></trkpt><trkpt lat="44.462493322914675" lon="11.88264253363454"><ele>11.0</ele><time>2026-04-24T11:26:04Z</time></trkpt><trkpt lat="44.462408655327145" lon="11.8825480770776"><ele>11.0</ele><time>2026-04-24T11:26:05Z</time></trkpt><trkpt lat="44.46232794909453" lon="11.882467642380856"><ele>11.0</ele><time>2026-04-24T11:26:06Z</time></trkpt><trkpt lat="44.4622535143257" lon="11.882398778216846"><ele>11.0</ele><time>2026-04-24T11:26:07Z</time></trkpt><trkpt lat="44.46218340974156" lon="11.88233103376649"><ele>11.0</ele><time>2026-04-24T11:26:08Z</time></trkpt><trkpt lat="44.46211356866841" lon="11.88227470724853"><ele>11.0</ele><time>2026-04-24T11:26:09Z</time></trkpt><trkpt lat="44.46204550508745" lon="11.882227499497166"><ele>11.0</ele><time>2026-04-24T11:26:10Z</time></trkpt><trkpt lat="44.461982471327474" lon="11.882185528333414"><ele>11.166666666666666</ele><time>2026-04-24T11:26:11Z</time></trkpt><trkpt lat="44.4619216847137" lon="11.882154440898889"><ele>11.333333333333332</ele><time>2026-04-24T11:26:12Z</time></trkpt><trkpt lat="44.4618589597028" lon="11.882131739562157"><ele>11.5</ele><time>2026-04-24T11:26:13Z</time></trkpt><trkpt lat="44.461796526179754" lon="11.882114045336838"><ele>11.666666666666666</ele><time>2026-04-24T11:26:14Z</time></trkpt><trkpt lat="44.46173344338673" lon="11.882102522004214"><ele>11.833333333333334</ele><time>2026-04-24T11:26:15Z</time></trkpt><trkpt lat="44.46161312678363" lon="11.882092353084351"><ele>12.0</ele><time>2026-04-24T11:26:17Z</time></trkpt><trkpt lat="44.461500994837444" lon="11.882083309426015"><ele>12.0</ele><time>2026-04-24T11:26:19Z</time></trkpt><trkpt lat="44.46138390047154" lon="11.882057949214941"><ele>12.0</ele><time>2026-04-24T11:26:21Z</time></trkpt><trkpt lat="44.461269686991386" lon="11.882038257280074"><ele>12.0</ele><time>2026-04-24T11:26:23Z</time></trkpt><trkpt lat="44.46116084905363" lon="11.88203881576432"><ele>12.0</ele><time>2026-04-24T11:26:25Z</time></trkpt><trkpt lat="44.46109386049243" lon="11.882051552318192"><ele>12.0</ele><time>2026-04-24T11:26:26Z</time></trkpt><trkpt lat="44.461012329217624" lon="11.88207358883516"><ele>12.0</ele><time>2026-04-24T11:26:27Z</time></trkpt><trkpt lat="44.46091909524107" lon="11.882104309555968"><ele>12.0</ele><time>2026-04-24T11:26:28Z</time></trkpt><trkpt lat="44.46081710872088" lon="11.882138297825685"><ele>12.0</ele><time>2026-04-24T11:26:29Z</time></trkpt><trkpt lat="44.46070984883324" lon="11.882174504513545"><ele>12.0</ele><time>2026-04-24T11:26:30Z</time></trkpt><trkpt lat="44.46061520441106" lon="11.882208859909712"><ele>12.0</ele><time>2026-04-24T11:26:31Z</time></trkpt><trkpt lat="44.46051086760653" lon="11.882244508583684"><ele>12.0</ele><time>2026-04-24T11:26:32Z</time></trkpt><trkpt lat="44.46040182735863" lon="11.882282422703033"><ele>12.0</ele><time>2026-04-24T11:26:33Z</time></trkpt><trkpt lat="44.460290857566335" lon="11.882314202870443"><ele>12.0</ele><time>2026-04-24T11:26:34Z</time></trkpt><trkpt lat="44.46017355904427" lon="11.882352257617589"><ele>12.0</ele><time>2026-04-24T11:26:35Z</time></trkpt><trkpt lat="44.46005127100476" lon="11.88239889338344"><ele>12.0</ele><time>2026-04-24T11:26:36Z</time></trkpt><trkpt lat="44.4599169846977" lon="11.88242423150067"><ele>12.0</ele><time>2026-04-24T11:26:37Z</time></trkpt><trkpt lat="44.459784304160934" lon="11.882493610397374"><ele>12.0</ele><time>2026-04-24T11:26:38Z</time></trkpt><trkpt lat="44.45964515847091" lon="11.882539367000776"><ele>12.0</ele><time>2026-04-24T11:26:39Z</time></trkpt><trkpt lat="44.45949768976725" lon="11.882592147032614"><ele>11.666666666666666</ele><time>2026-04-24T11:26:40Z</time></trkpt><trkpt lat="44.459348670878086" lon="11.882644841335228"><ele>11.333333333333332</ele><time>2026-04-24T11:26:41Z</time></trkpt><trkpt lat="44.45919990574664" lon="11.882693693642253"><ele>11.0</ele><time>2026-04-24T11:26:42Z</time></trkpt><trkpt lat="44.45905238171419" lon="11.88274713374347"><ele>11.0</ele><time>2026-04-24T11:26:43Z</time></trkpt><trkpt lat="44.45890626641127" lon="11.882801763754994"><ele>11.0</ele><time>2026-04-24T11:26:44Z</time></trkpt><trkpt lat="44.45876217336438" lon="11.882857596312787"><ele>11.0</ele><time>2026-04-24T11:26:45Z</time></trkpt><trkpt lat="44.45861469944449" lon="11.882913469406107"><ele>10.333333333333332</ele><time>2026-04-24T11:26:46Z</time></trkpt><trkpt lat="44.45846007529651" lon="11.88297361010629"><ele>9.666666666666666</ele><time>2026-04-24T11:26:47Z</time></trkpt><trkpt lat="44.45829919783631" lon="11.883031864067712"><ele>9.0</ele><time>2026-04-24T11:26:48Z</time></trkpt><trkpt lat="44.45813437983768" lon="11.883093934320973"><ele>9.0</ele><time>2026-04-24T11:26:49Z</time></trkpt><trkpt lat="44.45796620579798" lon="11.883150351798221"><ele>9.0</ele><time>2026-04-24T11:26:50Z</time></trkpt><trkpt lat="44.45779666616782" lon="11.883209183927582"><ele>9.0</ele><time>2026-04-24T11:26:51Z</time></trkpt><trkpt lat="44.45762531685462" lon="11.883272984934429"><ele>9.333333333333334</ele><time>2026-04-24T11:26:52Z</time></trkpt><trkpt lat="44.45745172390897" lon="11.883342828851394"><ele>9.666666666666668</ele><time>2026-04-24T11:26:53Z</time></trkpt><trkpt lat="44.4572793378104" lon="11.883407029613757"><ele>10.0</ele><time>2026-04-24T11:26:54Z</time></trkpt><trkpt lat="44.457103268175885" lon="11.883468741098254"><ele>10.333333333333334</ele><time>2026-04-24T11:26:55Z</time></trkpt><trkpt lat="44.456928832240095" lon="11.883533131628162"><ele>10.666666666666666</ele><time>2026-04-24T11:26:56Z</time></trkpt><trkpt lat="44.456757067081746" lon="11.883598542846832"><ele>11.0</ele><time>2026-04-24T11:26:57Z</time></trkpt><trkpt lat="44.45657827676026" lon="11.883666610764603"><ele>11.0</ele><time>2026-04-24T11:26:58Z</time></trkpt><trkpt lat="44.456406925245155" lon="11.883731745469195"><ele>11.0</ele><time>2026-04-24T11:26:59Z</time></trkpt><trkpt lat="44.4562522482698" lon="11.883792435134785"><ele>11.0</ele><time>2026-04-24T11:27:00Z</time></trkpt><trkpt lat="44.45609031795365" lon="11.883829829159488"><ele>11.0</ele><time>2026-04-24T11:27:01Z</time></trkpt><trkpt lat="44.45594254195829" lon="11.883885467704639"><ele>11.0</ele><time>2026-04-24T11:27:02Z</time></trkpt><trkpt lat="44.45580375437865" lon="11.883937722081766"><ele>11.0</ele><time>2026-04-24T11:27:03Z</time></trkpt><trkpt lat="44.455660389515764" lon="11.883991699812315"><ele>11.0</ele><time>2026-04-24T11:27:04Z</time></trkpt><trkpt lat="44.45551753271974" lon="11.884045486253509"><ele>10.5</ele><time>2026-04-24T11:27:05Z</time></trkpt><trkpt lat="44.45539053639521" lon="11.88410685524208"><ele>10.0</ele><time>2026-04-24T11:27:06Z</time></trkpt><trkpt lat="44.45526092957299" lon="11.884158910046885"><ele>9.5</ele><time>2026-04-24T11:27:07Z</time></trkpt><trkpt lat="44.45512829329065" lon="11.884207754808205"><ele>9.0</ele><time>2026-04-24T11:27:08Z</time></trkpt><trkpt lat="44.45499151055768" lon="11.884258676449324"><ele>9.0</ele><time>2026-04-24T11:27:09Z</time></trkpt><trkpt lat="44.45484429038723" lon="11.88431430788125"><ele>9.0</ele><time>2026-04-24T11:27:10Z</time></trkpt><trkpt lat="44.45468323569693" lon="11.884377264730958"><ele>9.0</ele><time>2026-04-24T11:27:11Z</time></trkpt><trkpt lat="44.4545114010458" lon="11.884438981971261"><ele>9.0</ele><time>2026-04-24T11:27:12Z</time></trkpt><trkpt lat="44.45435655312909" lon="11.88449237119582"><ele>9.0</ele><time>2026-04-24T11:27:13Z</time></trkpt><trkpt lat="44.45421368411564" lon="11.884536172160121"><ele>9.0</ele><time>2026-04-24T11:27:14Z</time></trkpt><trkpt lat="44.45407923626086" lon="11.884590240156548"><ele>9.0</ele><time>2026-04-24T11:27:15Z</time></trkpt><trkpt lat="44.45395200175207" lon="11.884638856363683"><ele>9.0</ele><time>2026-04-24T11:27:16Z</time></trkpt><trkpt lat="44.45383347259795" lon="11.88463886660784"><ele>9.0</ele><time>2026-04-24T11:27:17Z</time></trkpt><trkpt lat="44.45371263766212" lon="11.884627184407615"><ele>9.0</ele><time>2026-04-24T11:27:18Z</time></trkpt><trkpt lat="44.45359339766319" lon="11.884597585163991"><ele>9.0</ele><time>2026-04-24T11:27:19Z</time></trkpt><trkpt lat="44.45348653210842" lon="11.884572307501067"><ele>9.2</ele><time>2026-04-24T11:27:20Z</time></trkpt><trkpt lat="44.45338416559454" lon="11.88455296885089"><ele>9.4</ele><time>2026-04-24T11:27:21Z</time></trkpt><trkpt lat="44.453293291089146" lon="11.884547951160531"><ele>9.6</ele><time>2026-04-24T11:27:22Z</time></trkpt><trkpt lat="44.45320312094214" lon="11.884492691489289"><ele>9.8</ele><time>2026-04-24T11:27:23Z</time></trkpt><trkpt lat="44.45311860364187" lon="11.884424875185315"><ele>10.0</ele><time>2026-04-24T11:27:24Z</time></trkpt><trkpt lat="44.45303811291554" lon="11.884380113625923"><ele>10.0</ele><time>2026-04-24T11:27:25Z</time></trkpt><trkpt lat="44.45294179062963" lon="11.884376449665842"><ele>10.0</ele><time>2026-04-24T11:27:26Z</time></trkpt><trkpt lat="44.45284790717911" lon="11.884426132015495"><ele>10.0</ele><time>2026-04-24T11:27:27Z</time></trkpt><trkpt lat="44.45277854287571" lon="11.884513729633284"><ele>10.0</ele><time>2026-04-24T11:27:28Z</time></trkpt><trkpt lat="44.45273493658608" lon="11.884633290654525"><ele>10.0</ele><time>2026-04-24T11:27:29Z</time></trkpt><trkpt lat="44.45272144865913" lon="11.884771513225795"><ele>10.0</ele><time>2026-04-24T11:27:30Z</time></trkpt><trkpt lat="44.452740223467714" lon="11.8849173948762"><ele>10.0</ele><time>2026-04-24T11:27:31Z</time></trkpt><trkpt lat="44.452786335366035" lon="11.885047007061926"><ele>10.0</ele><time>2026-04-24T11:27:32Z</time></trkpt><trkpt lat="44.45283896084988" lon="11.885156246580467"><ele>10.0</ele><time>2026-04-24T11:27:33Z</time></trkpt><trkpt lat="44.45284406109377" lon="11.88528372546354"><ele>10.0</ele><time>2026-04-24T11:27:34Z</time></trkpt><trkpt lat="44.45281989855947" lon="11.885434625920851"><ele>9.666666666666668</ele><time>2026-04-24T11:27:35Z</time></trkpt><trkpt lat="44.452766816080285" lon="11.885605169177794"><ele>9.333333333333334</ele><time>2026-04-24T11:27:36Z</time></trkpt><trkpt lat="44.45269212052556" lon="11.885795282930175"><ele>9.0</ele><time>2026-04-24T11:27:37Z</time></trkpt><trkpt lat="44.45260456616185" lon="11.886005014812724"><ele>8.666666666666666</ele><time>2026-04-24T11:27:38Z</time></trkpt><trkpt lat="44.45250642408614" lon="11.886232417443965"><ele>8.333333333333332</ele><time>2026-04-24T11:27:39Z</time></trkpt><trkpt lat="44.452377707625075" lon="11.886452593764007"><ele>8.0</ele><time>2026-04-24T11:27:40Z</time></trkpt><trkpt lat="44.45226835663017" lon="11.886705196793793"><ele>8.0</ele><time>2026-04-24T11:27:41Z</time></trkpt><trkpt lat="44.45215452512379" lon="11.886951266084784"><ele>8.0</ele><time>2026-04-24T11:27:42Z</time></trkpt><trkpt lat="44.45204531761281" lon="11.887186416555819"><ele>8.0</ele><time>2026-04-24T11:27:43Z</time></trkpt><trkpt lat="44.45195163158699" lon="11.887432205889986"><ele>7.333333333333333</ele><time>2026-04-24T11:27:44Z</time></trkpt><trkpt lat="44.45185031149568" lon="11.887669676962702"><ele>6.666666666666666</ele><time>2026-04-24T11:27:45Z</time></trkpt><trkpt lat="44.451758084497186" lon="11.88791420651568"><ele>6.0</ele><time>2026-04-24T11:27:46Z</time></trkpt><trkpt lat="44.45166987350484" lon="11.888159530571869"><ele>6.0</ele><time>2026-04-24T11:27:47Z</time></trkpt><trkpt lat="44.451587807997505" lon="11.88840371413849"><ele>6.0</ele><time>2026-04-24T11:27:48Z</time></trkpt><trkpt lat="44.451499117346074" lon="11.888646314550424"><ele>6.0</ele><time>2026-04-24T11:27:49Z</time></trkpt><trkpt lat="44.45141217394761" lon="11.888899502853992"><ele>6.0</ele><time>2026-04-24T11:27:50Z</time></trkpt><trkpt lat="44.45132898742249" lon="11.889154913652039"><ele>6.0</ele><time>2026-04-24T11:27:51Z</time></trkpt><trkpt lat="44.451249717665796" lon="11.889412903329587"><ele>6.0</ele><time>2026-04-24T11:27:52Z</time></trkpt><trkpt lat="44.45117459458041" lon="11.88967062074482"><ele>7.0</ele><time>2026-04-24T11:27:53Z</time></trkpt><trkpt lat="44.451101699339745" lon="11.889927361581544"><ele>8.0</ele><time>2026-04-24T11:27:54Z</time></trkpt><trkpt lat="44.45102742788748" lon="11.890178093970086"><ele>9.0</ele><time>2026-04-24T11:27:55Z</time></trkpt><trkpt lat="44.45095191360195" lon="11.890427709703513"><ele>9.0</ele><time>2026-04-24T11:27:56Z</time></trkpt><trkpt lat="44.45087231787728" lon="11.89067232014612"><ele>9.0</ele><time>2026-04-24T11:27:57Z</time></trkpt><trkpt lat="44.450793173107286" lon="11.890909400377724"><ele>9.0</ele><time>2026-04-24T11:27:58Z</time></trkpt><trkpt lat="44.45070954155543" lon="11.8911382561081"><ele>9.0</ele><time>2026-04-24T11:27:59Z</time></trkpt><trkpt lat="44.45062308439925" lon="11.891365328170075"><ele>9.0</ele><time>2026-04-24T11:28:00Z</time></trkpt><trkpt lat="44.450533917561614" lon="11.891597105293807"><ele>9.0</ele><time>2026-04-24T11:28:01Z</time></trkpt><trkpt lat="44.4504486260033" lon="11.89183343948347"><ele>9.0</ele><time>2026-04-24T11:28:02Z</time></trkpt><trkpt lat="44.45036322207459" lon="11.892072278776796"><ele>9.0</ele><time>2026-04-24T11:28:03Z</time></trkpt><trkpt lat="44.45027778991378" lon="11.892312025528893"><ele>9.0</ele><time>2026-04-24T11:28:04Z</time></trkpt><trkpt lat="44.45018665749234" lon="11.89255087679909"><ele>8.666666666666666</ele><time>2026-04-24T11:28:05Z</time></trkpt><trkpt lat="44.450092953500004" lon="11.892794219678507"><ele>8.333333333333332</ele><time>2026-04-24T11:28:06Z</time></trkpt><trkpt lat="44.449994356369984" lon="11.893035996828283"><ele>8.0</ele><time>2026-04-24T11:28:07Z</time></trkpt><trkpt lat="44.449892785806526" lon="11.893274945185192"><ele>7.666666666666666</ele><time>2026-04-24T11:28:08Z</time></trkpt><trkpt lat="44.44978900398543" lon="11.893509605795266"><ele>7.333333333333334</ele><time>2026-04-24T11:28:09Z</time></trkpt><trkpt lat="44.4496855560334" lon="11.893741636946766"><ele>7.0</ele><time>2026-04-24T11:28:10Z</time></trkpt><trkpt lat="44.4495797304683" lon="11.893985370726313"><ele>7.0</ele><time>2026-04-24T11:28:11Z</time></trkpt><trkpt lat="44.44947113725064" lon="11.894236596743589"><ele>7.0</ele><time>2026-04-24T11:28:12Z</time></trkpt><trkpt lat="44.44936400293669" lon="11.894493870745872"><ele>7.0</ele><time>2026-04-24T11:28:13Z</time></trkpt><trkpt lat="44.449256991841246" lon="11.894758250002536"><ele>7.0</ele><time>2026-04-24T11:28:14Z</time></trkpt><trkpt lat="44.44914905047332" lon="11.895026959257033"><ele>7.0</ele><time>2026-04-24T11:28:15Z</time></trkpt><trkpt lat="44.44903862547856" lon="11.895300765022276"><ele>7.0</ele><time>2026-04-24T11:28:16Z</time></trkpt><trkpt lat="44.44892927252563" lon="11.895570200349313"><ele>6.666666666666667</ele><time>2026-04-24T11:28:17Z</time></trkpt><trkpt lat="44.44882461692115" lon="11.89583960460447"><ele>6.333333333333334</ele><time>2026-04-24T11:28:18Z</time></trkpt><trkpt lat="44.44872152350869" lon="11.896109855727907"><ele>6.0</ele><time>2026-04-24T11:28:19Z</time></trkpt><trkpt lat="44.4486164283292" lon="11.896375838202921"><ele>6.0</ele><time>2026-04-24T11:28:20Z</time></trkpt><trkpt lat="44.44851165264415" lon="11.896645216503874"><ele>6.0</ele><time>2026-04-24T11:28:21Z</time></trkpt><trkpt lat="44.44841110420802" lon="11.896911634307154"><ele>6.0</ele><time>2026-04-24T11:28:22Z</time></trkpt><trkpt lat="44.44830925839125" lon="11.897175970332617"><ele>6.0</ele><time>2026-04-24T11:28:23Z</time></trkpt><trkpt lat="44.44820986933519" lon="11.89743812283984"><ele>6.0</ele><time>2026-04-24T11:28:24Z</time></trkpt><trkpt lat="44.44810738606726" lon="11.89769916131698"><ele>6.0</ele><time>2026-04-24T11:28:25Z</time></trkpt><trkpt lat="44.44800817555308" lon="11.897959818693673"><ele>6.333333333333334</ele><time>2026-04-24T11:28:26Z</time></trkpt><trkpt lat="44.44790743104053" lon="11.898220785752098"><ele>6.666666666666667</ele><time>2026-04-24T11:28:27Z</time></trkpt><trkpt lat="44.44780955515433" lon="11.898478139570324"><ele>7.0</ele><time>2026-04-24T11:28:28Z</time></trkpt><trkpt lat="44.447711201981534" lon="11.898737869313443"><ele>7.0</ele><time>2026-04-24T11:28:29Z</time></trkpt><trkpt lat="44.44761407918951" lon="11.89899846647116"><ele>7.0</ele><time>2026-04-24T11:28:30Z</time></trkpt><trkpt lat="44.44751503508541" lon="11.89925340445668"><ele>7.0</ele><time>2026-04-24T11:28:31Z</time></trkpt><trkpt lat="44.44741886761003" lon="11.899503845753266"><ele>7.0</ele><time>2026-04-24T11:28:32Z</time></trkpt><trkpt lat="44.44732871311319" lon="11.899738267644782"><ele>7.0</ele><time>2026-04-24T11:28:33Z</time></trkpt><trkpt lat="44.447233515288204" lon="11.899965035240788"><ele>7.0</ele><time>2026-04-24T11:28:34Z</time></trkpt><trkpt lat="44.4471375045189" lon="11.900176599124235"><ele>6.666666666666667</ele><time>2026-04-24T11:28:35Z</time></trkpt><trkpt lat="44.44704468429615" lon="11.900390924290937"><ele>6.333333333333334</ele><time>2026-04-24T11:28:36Z</time></trkpt><trkpt lat="44.44693887970566" lon="11.9006007541373"><ele>6.0</ele><time>2026-04-24T11:28:37Z</time></trkpt><trkpt lat="44.446825586826535" lon="11.900816730494471"><ele>7.0</ele><time>2026-04-24T11:28:38Z</time></trkpt><trkpt lat="44.44670657399509" lon="11.901042237240215"><ele>8.0</ele><time>2026-04-24T11:28:39Z</time></trkpt><trkpt lat="44.446592866168395" lon="11.901280000015621"><ele>9.0</ele><time>2026-04-24T11:28:40Z</time></trkpt><trkpt lat="44.44647968030875" lon="11.901521283035374"><ele>8.333333333333334</ele><time>2026-04-24T11:28:41Z</time></trkpt><trkpt lat="44.446362005442595" lon="11.90176763252066"><ele>7.666666666666667</ele><time>2026-04-24T11:28:42Z</time></trkpt><trkpt lat="44.44624953388952" lon="11.90202085143101"><ele>7.0</ele><time>2026-04-24T11:28:43Z</time></trkpt><trkpt lat="44.44613737688365" lon="11.902279106030342"><ele>7.0</ele><time>2026-04-24T11:28:44Z</time></trkpt><trkpt lat="44.44602858976021" lon="11.90254330080029"><ele>7.0</ele><time>2026-04-24T11:28:45Z</time></trkpt><trkpt lat="44.44592419664582" lon="11.902810826945622"><ele>7.0</ele><time>2026-04-24T11:28:46Z</time></trkpt><trkpt lat="44.44582172058572" lon="11.90308053187998"><ele>7.0</ele><time>2026-04-24T11:28:47Z</time></trkpt><trkpt lat="44.44572118723175" lon="11.90335754638227"><ele>7.0</ele><time>2026-04-24T11:28:48Z</time></trkpt><trkpt lat="44.445626542123236" lon="11.903633995258948"><ele>7.0</ele><time>2026-04-24T11:28:49Z</time></trkpt><trkpt lat="44.44553488664004" lon="11.903905747291077"><ele>7.333333333333334</ele><time>2026-04-24T11:28:50Z</time></trkpt><trkpt lat="44.44544371252669" lon="11.90417236689236"><ele>7.666666666666666</ele><time>2026-04-24T11:28:51Z</time></trkpt><trkpt lat="44.44535035302379" lon="11.904435934939682"><ele>8.0</ele><time>2026-04-24T11:28:52Z</time></trkpt><trkpt lat="44.44525312867837" lon="11.904701421312161"><ele>8.0</ele><time>2026-04-24T11:28:53Z</time></trkpt><trkpt lat="44.445135271328084" lon="11.904957115458878"><ele>8.0</ele><time>2026-04-24T11:28:54Z</time></trkpt><trkpt lat="44.44502809592571" lon="11.905219361256854"><ele>8.0</ele><time>2026-04-24T11:28:55Z</time></trkpt><trkpt lat="44.44493175939001" lon="11.905488284416297"><ele>8.0</ele><time>2026-04-24T11:28:56Z</time></trkpt><trkpt lat="44.44482437597241" lon="11.905742709383045"><ele>8.0</ele><time>2026-04-24T11:28:57Z</time></trkpt><trkpt lat="44.444721492618946" lon="11.905993333795486"><ele>8.0</ele><time>2026-04-24T11:28:58Z</time></trkpt><trkpt lat="44.44462103880866" lon="11.906242156758918"><ele>7.666666666666666</ele><time>2026-04-24T11:28:59Z</time></trkpt><trkpt lat="44.44451752232754" lon="11.906482885317168"><ele>7.333333333333334</ele><time>2026-04-24T11:29:00Z</time></trkpt><trkpt lat="44.44442040299282" lon="11.906722458004229"><ele>7.0</ele><time>2026-04-24T11:29:01Z</time></trkpt><trkpt lat="44.44432388854031" lon="11.906954082561963"><ele>7.666666666666667</ele><time>2026-04-24T11:29:02Z</time></trkpt><trkpt lat="44.44423407850522" lon="11.90717160754252"><ele>8.333333333333334</ele><time>2026-04-24T11:29:03Z</time></trkpt><trkpt lat="44.4441507606818" lon="11.907373002885203"><ele>9.0</ele><time>2026-04-24T11:29:04Z</time></trkpt><trkpt lat="44.44407250219421" lon="11.907563662887357"><ele>9.0</ele><time>2026-04-24T11:29:05Z</time></trkpt><trkpt lat="44.443994596101014" lon="11.907742914274923"><ele>9.0</ele><time>2026-04-24T11:29:06Z</time></trkpt><trkpt lat="44.4439183825665" lon="11.907916956138227"><ele>9.0</ele><time>2026-04-24T11:29:07Z</time></trkpt><trkpt lat="44.4438467125024" lon="11.90808787801434"><ele>9.0</ele><time>2026-04-24T11:29:08Z</time></trkpt><trkpt lat="44.44378187849077" lon="11.908253806986577"><ele>8.75</ele><time>2026-04-24T11:29:09Z</time></trkpt><trkpt lat="44.44371613410987" lon="11.90841903843794"><ele>8.5</ele><time>2026-04-24T11:29:10Z</time></trkpt><trkpt lat="44.44364469312622" lon="11.908596527583976"><ele>8.25</ele><time>2026-04-24T11:29:11Z</time></trkpt><trkpt lat="44.443565456772205" lon="11.908789377513305"><ele>8.0</ele><time>2026-04-24T11:29:12Z</time></trkpt><trkpt lat="44.44347853844193" lon="11.909000982545763"><ele>8.0</ele><time>2026-04-24T11:29:13Z</time></trkpt><trkpt lat="44.44338524680927" lon="11.909220147830792"><ele>8.0</ele><time>2026-04-24T11:29:14Z</time></trkpt><trkpt lat="44.44328797301546" lon="11.909453354554644"><ele>8.0</ele><time>2026-04-24T11:29:15Z</time></trkpt><trkpt lat="44.44318534584778" lon="11.909696689912877"><ele>8.0</ele><time>2026-04-24T11:29:16Z</time></trkpt><trkpt lat="44.44308204297249" lon="11.909945002783761"><ele>8.0</ele><time>2026-04-24T11:29:17Z</time></trkpt><trkpt lat="44.442979798751914" lon="11.910202668126228"><ele>8.0</ele><time>2026-04-24T11:29:18Z</time></trkpt><trkpt lat="44.44287657807905" lon="11.910469237869316"><ele>8.0</ele><time>2026-04-24T11:29:19Z</time></trkpt><trkpt lat="44.442775497431725" lon="11.91073846777342"><ele>8.0</ele><time>2026-04-24T11:29:20Z</time></trkpt><trkpt lat="44.442675159627754" lon="11.91100636777228"><ele>8.0</ele><time>2026-04-24T11:29:21Z</time></trkpt><trkpt lat="44.44257400693733" lon="11.911263588278059"><ele>8.0</ele><time>2026-04-24T11:29:22Z</time></trkpt><trkpt lat="44.44247088126208" lon="11.91151142122394"><ele>8.0</ele><time>2026-04-24T11:29:23Z</time></trkpt><trkpt lat="44.442366781025555" lon="11.911750804316421"><ele>8.0</ele><time>2026-04-24T11:29:24Z</time></trkpt><trkpt lat="44.44226489878579" lon="11.911986227294848"><ele>8.333333333333332</ele><time>2026-04-24T11:29:25Z</time></trkpt><trkpt lat="44.442163473066266" lon="11.912219978115639"><ele>8.666666666666666</ele><time>2026-04-24T11:29:26Z</time></trkpt><trkpt lat="44.442067811186845" lon="11.91244160017596"><ele>9.0</ele><time>2026-04-24T11:29:27Z</time></trkpt><trkpt lat="44.44197355383936" lon="11.912662257058466"><ele>9.0</ele><time>2026-04-24T11:29:28Z</time></trkpt><trkpt lat="44.441880587942094" lon="11.912889108716676"><ele>9.0</ele><time>2026-04-24T11:29:29Z</time></trkpt><trkpt lat="44.44178932144366" lon="11.913114962708244"><ele>9.0</ele><time>2026-04-24T11:29:30Z</time></trkpt><trkpt lat="44.44169565218157" lon="11.91334127145687"><ele>9.0</ele><time>2026-04-24T11:29:31Z</time></trkpt><trkpt lat="44.44160150241566" lon="11.913569704876192"><ele>9.0</ele><time>2026-04-24T11:29:32Z</time></trkpt><trkpt lat="44.441505660903566" lon="11.913800737218063"><ele>9.0</ele><time>2026-04-24T11:29:33Z</time></trkpt><trkpt lat="44.44141937172326" lon="11.914023363043604"><ele>9.0</ele><time>2026-04-24T11:29:34Z</time></trkpt><trkpt lat="44.44133794137902" lon="11.91422697928176"><ele>9.0</ele><time>2026-04-24T11:29:35Z</time></trkpt><trkpt lat="44.441258831488945" lon="11.91440995241748"><ele>9.0</ele><time>2026-04-24T11:29:36Z</time></trkpt><trkpt lat="44.44118353504634" lon="11.914579097793803"><ele>8.75</ele><time>2026-04-24T11:29:37Z</time></trkpt><trkpt lat="44.441112927189046" lon="11.914742634646315"><ele>8.5</ele><time>2026-04-24T11:29:38Z</time></trkpt><trkpt lat="44.441045583958655" lon="11.914898714764945"><ele>8.25</ele><time>2026-04-24T11:29:39Z</time></trkpt><trkpt lat="44.44098108737292" lon="11.915050682957382"><ele>8.0</ele><time>2026-04-24T11:29:40Z</time></trkpt><trkpt lat="44.44092098622804" lon="11.915194633608813"><ele>8.0</ele><time>2026-04-24T11:29:41Z</time></trkpt><trkpt lat="44.440866175603375" lon="11.915330521667117"><ele>8.0</ele><time>2026-04-24T11:29:42Z</time></trkpt><trkpt lat="44.440813353599324" lon="11.91546934734478"><ele>8.0</ele><time>2026-04-24T11:29:43Z</time></trkpt><trkpt lat="44.44075821981629" lon="11.915606816897116"><ele>8.0</ele><time>2026-04-24T11:29:44Z</time></trkpt><trkpt lat="44.440704066751174" lon="11.915736361021423"><ele>8.0</ele><time>2026-04-24T11:29:45Z</time></trkpt><trkpt lat="44.44065011666652" lon="11.915864610173875"><ele>8.0</ele><time>2026-04-24T11:29:46Z</time></trkpt><trkpt lat="44.44060001982568" lon="11.915998715783015"><ele>8.0</ele><time>2026-04-24T11:29:47Z</time></trkpt><trkpt lat="44.44054987524957" lon="11.916139586287713"><ele>8.0</ele><time>2026-04-24T11:29:48Z</time></trkpt><trkpt lat="44.44049607585448" lon="11.916288487667904"><ele>8.0</ele><time>2026-04-24T11:29:49Z</time></trkpt><trkpt lat="44.44043914576432" lon="11.916445968505542"><ele>8.0</ele><time>2026-04-24T11:29:50Z</time></trkpt><trkpt lat="44.44038242057012" lon="11.91660778767533"><ele>8.0</ele><time>2026-04-24T11:29:51Z</time></trkpt><trkpt lat="44.440323307719986" lon="11.91677305578151"><ele>8.0</ele><time>2026-04-24T11:29:52Z</time></trkpt><trkpt lat="44.440263099269245" lon="11.916947669292725"><ele>8.0</ele><time>2026-04-24T11:29:53Z</time></trkpt><trkpt lat="44.44019601592026" lon="11.917126822814737"><ele>8.333333333333332</ele><time>2026-04-24T11:29:54Z</time></trkpt><trkpt lat="44.4401286314552" lon="11.917312673434965"><ele>8.666666666666666</ele><time>2026-04-24T11:29:55Z</time></trkpt><trkpt lat="44.44005697104366" lon="11.917505283231513"><ele>9.0</ele><time>2026-04-24T11:29:56Z</time></trkpt><trkpt lat="44.43998715923842" lon="11.917701520139422"><ele>9.0</ele><time>2026-04-24T11:29:57Z</time></trkpt><trkpt lat="44.43991056534701" lon="11.917899830000684"><ele>9.0</ele><time>2026-04-24T11:29:58Z</time></trkpt><trkpt lat="44.43983047234212" lon="11.91810228399894"><ele>9.0</ele><time>2026-04-24T11:29:59Z</time></trkpt><trkpt lat="44.439745018579195" lon="11.918303962279863"><ele>9.0</ele><time>2026-04-24T11:30:00Z</time></trkpt><trkpt lat="44.43966106620501" lon="11.918508519962675"><ele>9.0</ele><time>2026-04-24T11:30:01Z</time></trkpt><trkpt lat="44.43957362045897" lon="11.918717465949854"><ele>9.0</ele><time>2026-04-24T11:30:02Z</time></trkpt><trkpt lat="44.43948509374401" lon="11.918920954369456"><ele>9.0</ele><time>2026-04-24T11:30:03Z</time></trkpt><trkpt lat="44.439398768638064" lon="11.91911995041292"><ele>9.0</ele><time>2026-04-24T11:30:04Z</time></trkpt><trkpt lat="44.439311176741406" lon="11.919316019413277"><ele>9.0</ele><time>2026-04-24T11:30:05Z</time></trkpt><trkpt lat="44.43922555369418" lon="11.91951125970505"><ele>9.0</ele><time>2026-04-24T11:30:06Z</time></trkpt><trkpt lat="44.439137106415586" lon="11.919709984622983"><ele>9.0</ele><time>2026-04-24T11:30:07Z</time></trkpt><trkpt lat="44.439049352833905" lon="11.919914225738967"><ele>9.0</ele><time>2026-04-24T11:30:08Z</time></trkpt><trkpt lat="44.43895933014036" lon="11.920123945237883"><ele>8.666666666666666</ele><time>2026-04-24T11:30:09Z</time></trkpt><trkpt lat="44.438866759985636" lon="11.920331504438188"><ele>8.333333333333332</ele><time>2026-04-24T11:30:10Z</time></trkpt><trkpt lat="44.43877271712699" lon="11.920542075487452"><ele>8.0</ele><time>2026-04-24T11:30:11Z</time></trkpt><trkpt lat="44.43867835676571" lon="11.920753960272611"><ele>8.333333333333332</ele><time>2026-04-24T11:30:12Z</time></trkpt><trkpt lat="44.43858279243918" lon="11.920973056003701"><ele>8.666666666666666</ele><time>2026-04-24T11:30:13Z</time></trkpt><trkpt lat="44.43849009670946" lon="11.921191118933319"><ele>9.0</ele><time>2026-04-24T11:30:14Z</time></trkpt><trkpt lat="44.438402130962714" lon="11.921410036348927"><ele>9.0</ele><time>2026-04-24T11:30:15Z</time></trkpt><trkpt lat="44.43831948992893" lon="11.92162220489866"><ele>9.0</ele><time>2026-04-24T11:30:16Z</time></trkpt><trkpt lat="44.43824160312397" lon="11.921819430939427"><ele>9.0</ele><time>2026-04-24T11:30:17Z</time></trkpt><trkpt lat="44.43816529396022" lon="11.92201274179361"><ele>9.0</ele><time>2026-04-24T11:30:18Z</time></trkpt><trkpt lat="44.43809597504132" lon="11.922204871384343"><ele>9.0</ele><time>2026-04-24T11:30:19Z</time></trkpt><trkpt lat="44.438037307075994" lon="11.92238538097883"><ele>9.0</ele><time>2026-04-24T11:30:20Z</time></trkpt><trkpt lat="44.43797957707269" lon="11.922554359348556"><ele>9.0</ele><time>2026-04-24T11:30:21Z</time></trkpt><trkpt lat="44.437919069961275" lon="11.922706182136816"><ele>9.0</ele><time>2026-04-24T11:30:22Z</time></trkpt><trkpt lat="44.43785312006274" lon="11.922840107829566"><ele>9.0</ele><time>2026-04-24T11:30:23Z</time></trkpt><trkpt lat="44.43778373864531" lon="11.922963415582924"><ele>9.0</ele><time>2026-04-24T11:30:24Z</time></trkpt><trkpt lat="44.43770764095947" lon="11.923077579201163"><ele>9.0</ele><time>2026-04-24T11:30:25Z</time></trkpt><trkpt lat="44.43762170831491" lon="11.923175057921172"><ele>9.0</ele><time>2026-04-24T11:30:26Z</time></trkpt><trkpt lat="44.43752535671267" lon="11.92325241870907"><ele>9.0</ele><time>2026-04-24T11:30:27Z</time></trkpt><trkpt lat="44.43741534515991" lon="11.923316338859355"><ele>9.0</ele><time>2026-04-24T11:30:28Z</time></trkpt><trkpt lat="44.43729396372195" lon="11.923358151128411"><ele>9.0</ele><time>2026-04-24T11:30:29Z</time></trkpt><trkpt lat="44.437160371011046" lon="11.923377014554243"><ele>10.0</ele><time>2026-04-24T11:30:30Z</time></trkpt><trkpt lat="44.43701537584661" lon="11.923362532044315"><ele>11.0</ele><time>2026-04-24T11:30:31Z</time></trkpt><trkpt lat="44.43687181817268" lon="11.92329070792319"><ele>12.0</ele><time>2026-04-24T11:30:32Z</time></trkpt><trkpt lat="44.43672143715977" lon="11.923198481340227"><ele>12.0</ele><time>2026-04-24T11:30:33Z</time></trkpt><trkpt lat="44.43655604113459" lon="11.923125700747624"><ele>12.0</ele><time>2026-04-24T11:30:34Z</time></trkpt><trkpt lat="44.43640508016304" lon="11.922977456331452"><ele>12.0</ele><time>2026-04-24T11:30:35Z</time></trkpt><trkpt lat="44.43622584436219" lon="11.922876272110527"><ele>11.333333333333334</ele><time>2026-04-24T11:30:36Z</time></trkpt><trkpt lat="44.43605017342348" lon="11.922750801468412"><ele>10.666666666666668</ele><time>2026-04-24T11:30:37Z</time></trkpt><trkpt lat="44.43586989729546" lon="11.922627496567653"><ele>10.0</ele><time>2026-04-24T11:30:38Z</time></trkpt><trkpt lat="44.43568656415761" lon="11.92250017752302"><ele>10.0</ele><time>2026-04-24T11:30:39Z</time></trkpt><trkpt lat="44.43550733550895" lon="11.922375011790816"><ele>10.0</ele><time>2026-04-24T11:30:40Z</time></trkpt><trkpt lat="44.435326406681725" lon="11.922249300180392"><ele>10.0</ele><time>2026-04-24T11:30:41Z</time></trkpt><trkpt lat="44.43513914514251" lon="11.922122365402506"><ele>10.333333333333334</ele><time>2026-04-24T11:30:42Z</time></trkpt><trkpt lat="44.43496038050169" lon="11.921999576818594"><ele>10.666666666666666</ele><time>2026-04-24T11:30:43Z</time></trkpt><trkpt lat="44.43478060025464" lon="11.921876720705828"><ele>11.0</ele><time>2026-04-24T11:30:44Z</time></trkpt><trkpt lat="44.434595312936494" lon="11.921750118472186"><ele>10.333333333333332</ele><time>2026-04-24T11:30:45Z</time></trkpt><trkpt lat="44.43440770215997" lon="11.9216269365093"><ele>9.666666666666666</ele><time>2026-04-24T11:30:46Z</time></trkpt><trkpt lat="44.434224229904615" lon="11.921503055986381"><ele>9.0</ele><time>2026-04-24T11:30:47Z</time></trkpt><trkpt lat="44.43404108139538" lon="11.921373027335477"><ele>9.0</ele><time>2026-04-24T11:30:48Z</time></trkpt><trkpt lat="44.43386754970482" lon="11.921231033270935"><ele>9.0</ele><time>2026-04-24T11:30:49Z</time></trkpt><trkpt lat="44.43370310145482" lon="11.921072230937847"><ele>9.0</ele><time>2026-04-24T11:30:50Z</time></trkpt><trkpt lat="44.43352353655793" lon="11.92094916273687"><ele>9.0</ele><time>2026-04-24T11:30:51Z</time></trkpt><trkpt lat="44.43335638888895" lon="11.920802821459008"><ele>9.0</ele><time>2026-04-24T11:30:52Z</time></trkpt><trkpt lat="44.43319138347784" lon="11.92065777880825"><ele>9.0</ele><time>2026-04-24T11:30:53Z</time></trkpt><trkpt lat="44.43302971104232" lon="11.920514114767716"><ele>9.0</ele><time>2026-04-24T11:30:54Z</time></trkpt><trkpt lat="44.43286689535065" lon="11.920372086553312"><ele>9.0</ele><time>2026-04-24T11:30:55Z</time></trkpt><trkpt lat="44.43270463898542" lon="11.920234337499059"><ele>9.0</ele><time>2026-04-24T11:30:56Z</time></trkpt><trkpt lat="44.43254196314448" lon="11.920098689220847"><ele>9.333333333333334</ele><time>2026-04-24T11:30:57Z</time></trkpt><trkpt lat="44.4323809602542" lon="11.9199681157569"><ele>9.666666666666668</ele><time>2026-04-24T11:30:58Z</time></trkpt><trkpt lat="44.43222258105592" lon="11.919833036107073"><ele>10.0</ele><time>2026-04-24T11:30:59Z</time></trkpt><trkpt lat="44.43206646648648" lon="11.919698617539762"><ele>10.0</ele><time>2026-04-24T11:31:00Z</time></trkpt><trkpt lat="44.43191094555791" lon="11.919569672100344"><ele>10.0</ele><time>2026-04-24T11:31:01Z</time></trkpt><trkpt lat="44.43175677302186" lon="11.91944228189149"><ele>10.0</ele><time>2026-04-24T11:31:02Z</time></trkpt><trkpt lat="44.43160055134121" lon="11.91932374005495"><ele>10.333333333333334</ele><time>2026-04-24T11:31:03Z</time></trkpt><trkpt lat="44.4314413402227" lon="11.919205483124"><ele>10.666666666666666</ele><time>2026-04-24T11:31:04Z</time></trkpt><trkpt lat="44.4312834451694" lon="11.919080024933518"><ele>11.0</ele><time>2026-04-24T11:31:05Z</time></trkpt><trkpt lat="44.431124976335326" lon="11.918949101847064"><ele>9.666666666666666</ele><time>2026-04-24T11:31:06Z</time></trkpt><trkpt lat="44.43096537335497" lon="11.918818878052631"><ele>8.333333333333334</ele><time>2026-04-24T11:31:07Z</time></trkpt><trkpt lat="44.430803084663204" lon="11.91869403243638"><ele>7.0</ele><time>2026-04-24T11:31:08Z</time></trkpt><trkpt lat="44.43063967173349" lon="11.918568905223188"><ele>7.0</ele><time>2026-04-24T11:31:09Z</time></trkpt><trkpt lat="44.43047539475013" lon="11.918440495590383"><ele>7.0</ele><time>2026-04-24T11:31:10Z</time></trkpt><trkpt lat="44.43030869775675" lon="11.918312999201536"><ele>7.0</ele><time>2026-04-24T11:31:11Z</time></trkpt><trkpt lat="44.43013984691766" lon="11.918182767124422"><ele>7.333333333333334</ele><time>2026-04-24T11:31:12Z</time></trkpt><trkpt lat="44.429968184393886" lon="11.918050007329922"><ele>7.666666666666666</ele><time>2026-04-24T11:31:13Z</time></trkpt><trkpt lat="44.42980008976591" lon="11.917917646676964"><ele>8.0</ele><time>2026-04-24T11:31:14Z</time></trkpt><trkpt lat="44.42964055658766" lon="11.917770159383156"><ele>8.0</ele><time>2026-04-24T11:31:15Z</time></trkpt><trkpt lat="44.42947791184687" lon="11.917641167432416"><ele>8.0</ele><time>2026-04-24T11:31:16Z</time></trkpt><trkpt lat="44.42931619089636" lon="11.917513648276733"><ele>8.0</ele><time>2026-04-24T11:31:17Z</time></trkpt><trkpt lat="44.429154764368285" lon="11.91738700851841"><ele>8.0</ele><time>2026-04-24T11:31:18Z</time></trkpt><trkpt lat="44.42899780039991" lon="11.917263869668847"><ele>8.0</ele><time>2026-04-24T11:31:19Z</time></trkpt><trkpt lat="44.42884000898301" lon="11.917164812077543"><ele>8.0</ele><time>2026-04-24T11:31:20Z</time></trkpt><trkpt lat="44.42869074972756" lon="11.917047789390862"><ele>8.0</ele><time>2026-04-24T11:31:21Z</time></trkpt><trkpt lat="44.42854110250349" lon="11.916926981806244"><ele>8.0</ele><time>2026-04-24T11:31:22Z</time></trkpt><trkpt lat="44.428394944018166" lon="11.916812251180563"><ele>8.0</ele><time>2026-04-24T11:31:23Z</time></trkpt><trkpt lat="44.428253451669605" lon="11.916699964595644"><ele>9.0</ele><time>2026-04-24T11:31:24Z</time></trkpt><trkpt lat="44.428113956075784" lon="11.91659019811166"><ele>10.0</ele><time>2026-04-24T11:31:25Z</time></trkpt><trkpt lat="44.42797751868747" lon="11.916477229377609"><ele>11.0</ele><time>2026-04-24T11:31:26Z</time></trkpt><trkpt lat="44.427845489699415" lon="11.916367080643262"><ele>11.25</ele><time>2026-04-24T11:31:27Z</time></trkpt><trkpt lat="44.427716962542576" lon="11.916260233606764"><ele>11.5</ele><time>2026-04-24T11:31:28Z</time></trkpt><trkpt lat="44.427596625163" lon="11.916165343894052"><ele>11.75</ele><time>2026-04-24T11:31:29Z</time></trkpt><trkpt lat="44.4274852435833" lon="11.916074415599061"><ele>12.0</ele><time>2026-04-24T11:31:30Z</time></trkpt><trkpt lat="44.42738001416897" lon="11.915986126968107"><ele>11.6</ele><time>2026-04-24T11:31:31Z</time></trkpt><trkpt lat="44.42728013572432" lon="11.9158990476623"><ele>11.2</ele><time>2026-04-24T11:31:32Z</time></trkpt><trkpt lat="44.42718038759548" lon="11.915819940259583"><ele>10.8</ele><time>2026-04-24T11:31:33Z</time></trkpt><trkpt lat="44.42708580608335" lon="11.915755027073804"><ele>10.4</ele><time>2026-04-24T11:31:34Z</time></trkpt><trkpt lat="44.4269950390321" lon="11.915696092543744"><ele>10.0</ele><time>2026-04-24T11:31:35Z</time></trkpt><trkpt lat="44.42691615526034" lon="11.915639759827808"><ele>10.0</ele><time>2026-04-24T11:31:36Z</time></trkpt><trkpt lat="44.42685880957205" lon="11.915599942351081"><ele>10.0</ele><time>2026-04-24T11:31:37Z</time></trkpt><trkpt lat="44.42677990730509" lon="11.915541564416618"><ele>10.0</ele><time>2026-04-24T11:31:39Z</time></trkpt><trkpt lat="44.426699445535455" lon="11.915470293555828"><ele>10.0</ele><time>2026-04-24T11:31:41Z</time></trkpt><trkpt lat="44.42664674881448" lon="11.915409965800603"><ele>10.0</ele><time>2026-04-24T11:31:44Z</time></trkpt><trkpt lat="44.426604175536056" lon="11.91531722505072"><ele>10.0</ele><time>2026-04-24T11:31:48Z</time></trkpt><trkpt lat="44.426566831654675" lon="11.915200854116078"><ele>10.0</ele><time>2026-04-24T11:31:50Z</time></trkpt><trkpt lat="44.42653715838326" lon="11.915045597812878"><ele>10.0</ele><time>2026-04-24T11:31:52Z</time></trkpt><trkpt lat="44.426579320407996" lon="11.914896508457668"><ele>10.0</ele><time>2026-04-24T11:31:54Z</time></trkpt><trkpt lat="44.42662433978058" lon="11.914790109432305"><ele>10.0</ele><time>2026-04-24T11:31:56Z</time></trkpt><trkpt lat="44.4266937056184" lon="11.914792966544352"><ele>10.0</ele><time>2026-04-24T11:31:58Z</time></trkpt><trkpt lat="44.42673752125822" lon="11.914869186984193"><ele>10.0</ele><time>2026-04-24T11:32:00Z</time></trkpt><trkpt lat="44.426685677576124" lon="11.914925993273057"><ele>10.0</ele><time>2026-04-24T11:32:03Z</time></trkpt><trkpt lat="44.42665269932357" lon="11.915038824759513"><ele>10.0</ele><time>2026-04-24T11:32:06Z</time></trkpt><trkpt lat="44.426642851449856" lon="11.915152283759785"><ele>10.0</ele><time>2026-04-24T11:32:12Z</time></trkpt><trkpt lat="44.426718442740686" lon="11.915169158827043"><ele>10.0</ele><time>2026-04-24T11:33:16Z</time></trkpt><trkpt lat="44.426790136597766" lon="11.91517089192444"><ele>10.0</ele><time>2026-04-24T11:33:52Z</time></trkpt><trkpt lat="44.42679099716104" lon="11.915264854622697"><ele>10.0</ele><time>2026-04-24T11:35:21Z</time></trkpt><trkpt lat="44.42684978053773" lon="11.915319554998996"><ele>10.0</ele><time>2026-04-24T11:35:28Z</time></trkpt><trkpt lat="44.42679060180469" lon="11.91527298312327"><ele>10.0</ele><time>2026-04-24T12:45:30Z</time></trkpt><trkpt lat="44.42678297947969" lon="11.915178154846396"><ele>10.0</ele><time>2026-04-24T12:45:34Z</time></trkpt><trkpt lat="44.42681168588314" lon="11.915268115152017"><ele>10.0</ele><time>2026-04-24T12:46:16Z</time></trkpt><trkpt lat="44.42684862765429" lon="11.915344196029295"><ele>10.0</ele><time>2026-04-24T12:46:47Z</time></trkpt><trkpt lat="44.42679207063659" lon="11.915301769236532"><ele>10.0</ele><time>2026-04-24T12:48:21Z</time></trkpt><trkpt lat="44.426707400436776" lon="11.915195629142827"><ele>10.0</ele><time>2026-04-24T12:49:02Z</time></trkpt><trkpt lat="44.426642427550775" lon="11.91519172070899"><ele>10.0</ele><time>2026-04-24T12:52:12Z</time></trkpt><trkpt lat="44.426655534189145" lon="11.915098050171988"><ele>10.0</ele><time>2026-04-24T12:52:14Z</time></trkpt><trkpt lat="44.42668513299042" lon="11.915007348977749"><ele>10.0</ele><time>2026-04-24T12:52:16Z</time></trkpt><trkpt lat="44.426726087333414" lon="11.914923354278047"><ele>10.0</ele><time>2026-04-24T12:52:18Z</time></trkpt><trkpt lat="44.42678263326123" lon="11.914825438354617"><ele>10.0</ele><time>2026-04-24T12:52:20Z</time></trkpt><trkpt lat="44.42682986801567" lon="11.914745030946259"><ele>10.0</ele><time>2026-04-24T12:52:22Z</time></trkpt><trkpt lat="44.426853799091" lon="11.914650974642937"><ele>10.0</ele><time>2026-04-24T12:52:25Z</time></trkpt><trkpt lat="44.42688642619788" lon="11.914568501548299"><ele>10.0</ele><time>2026-04-24T12:52:31Z</time></trkpt><trkpt lat="44.42691909811692" lon="11.91464815861869"><ele>10.0</ele><time>2026-04-24T12:52:34Z</time></trkpt><trkpt lat="44.426879976006646" lon="11.914746251702844"><ele>10.0</ele><time>2026-04-24T12:53:02Z</time></trkpt><trkpt lat="44.426824922112864" lon="11.914789793459512"><ele>10.0</ele><time>2026-04-24T12:55:31Z</time></trkpt><trkpt lat="44.42680761020057" lon="11.914675514178237"><ele>10.0</ele><time>2026-04-24T12:55:34Z</time></trkpt><trkpt lat="44.426824983729084" lon="11.914567481848687"><ele>10.0</ele><time>2026-04-24T12:55:36Z</time></trkpt><trkpt lat="44.42681680923709" lon="11.91447017863082"><ele>10.0</ele><time>2026-04-24T12:55:38Z</time></trkpt><trkpt lat="44.426783978869146" lon="11.914385990002916"><ele>10.0</ele><time>2026-04-24T12:55:41Z</time></trkpt><trkpt lat="44.426719299388864" lon="11.914414815177398"><ele>10.0</ele><time>2026-04-24T12:55:58Z</time></trkpt><trkpt lat="44.42666987473089" lon="11.914500823559068"><ele>10.0</ele><time>2026-04-24T12:56:00Z</time></trkpt><trkpt lat="44.42661648756877" lon="11.914644678136481"><ele>10.0</ele><time>2026-04-24T12:56:02Z</time></trkpt><trkpt lat="44.4265745768085" lon="11.914771134543969"><ele>10.0</ele><time>2026-04-24T12:56:04Z</time></trkpt><trkpt lat="44.42653723300352" lon="11.914859146635811"><ele>10.0</ele><time>2026-04-24T12:56:06Z</time></trkpt><trkpt lat="44.42649335498739" lon="11.914948772355475"><ele>10.0</ele><time>2026-04-24T12:56:09Z</time></trkpt><trkpt lat="44.426433734143366" lon="11.915025500894812"><ele>10.0</ele><time>2026-04-24T12:56:11Z</time></trkpt><trkpt lat="44.426323510819714" lon="11.915076153483927"><ele>10.0</ele><time>2026-04-24T12:56:13Z</time></trkpt><trkpt lat="44.426252421613505" lon="11.915075491623275"><ele>10.0</ele><time>2026-04-24T12:56:14Z</time></trkpt><trkpt lat="44.42617522526913" lon="11.915056671891284"><ele>10.0</ele><time>2026-04-24T12:56:15Z</time></trkpt><trkpt lat="44.42609275095008" lon="11.915016485666106"><ele>10.2</ele><time>2026-04-24T12:56:16Z</time></trkpt><trkpt lat="44.426025130204124" lon="11.914920102585027"><ele>10.4</ele><time>2026-04-24T12:56:17Z</time></trkpt><trkpt lat="44.42593929960666" lon="11.914854606374409"><ele>10.600000000000001</ele><time>2026-04-24T12:56:18Z</time></trkpt><trkpt lat="44.42584923538938" lon="11.914784392152853"><ele>10.8</ele><time>2026-04-24T12:56:19Z</time></trkpt><trkpt lat="44.425759018874494" lon="11.914714059204835"><ele>11.0</ele><time>2026-04-24T12:56:20Z</time></trkpt><trkpt lat="44.42566416551801" lon="11.914640111363642"><ele>11.0</ele><time>2026-04-24T12:56:21Z</time></trkpt><trkpt lat="44.42557767341743" lon="11.914572681975514"><ele>11.0</ele><time>2026-04-24T12:56:22Z</time></trkpt><trkpt lat="44.425491301226465" lon="11.914505236906331"><ele>11.0</ele><time>2026-04-24T12:56:23Z</time></trkpt><trkpt lat="44.42539841491884" lon="11.914432695236044"><ele>11.0</ele><time>2026-04-24T12:56:24Z</time></trkpt><trkpt lat="44.42530728472909" lon="11.914361525051307"><ele>11.0</ele><time>2026-04-24T12:56:25Z</time></trkpt><trkpt lat="44.42521048443892" lon="11.91428583608634"><ele>11.0</ele><time>2026-04-24T12:56:26Z</time></trkpt><trkpt lat="44.42511587965551" lon="11.91421184351989"><ele>11.0</ele><time>2026-04-24T12:56:27Z</time></trkpt><trkpt lat="44.42501188702769" lon="11.914155018511822"><ele>11.0</ele><time>2026-04-24T12:56:28Z</time></trkpt><trkpt lat="44.42491411392566" lon="11.91407604059098"><ele>11.0</ele><time>2026-04-24T12:56:29Z</time></trkpt><trkpt lat="44.424812454634214" lon="11.914002826982255"><ele>11.0</ele><time>2026-04-24T12:56:30Z</time></trkpt><trkpt lat="44.424719456506104" lon="11.913906199049679"><ele>11.200000000000001</ele><time>2026-04-24T12:56:31Z</time></trkpt><trkpt lat="44.42460878314801" lon="11.913845889726694"><ele>11.4</ele><time>2026-04-24T12:56:32Z</time></trkpt><trkpt lat="44.4245091217921" lon="11.91376114434771"><ele>11.6</ele><time>2026-04-24T12:56:33Z</time></trkpt><trkpt lat="44.42441959665987" lon="11.913683687599043"><ele>11.8</ele><time>2026-04-24T12:56:34Z</time></trkpt><trkpt lat="44.424339688976296" lon="11.913624592194477"><ele>12.0</ele><time>2026-04-24T12:56:35Z</time></trkpt><trkpt lat="44.4242659413268" lon="11.91356921703367"><ele>11.999999999999998</ele><time>2026-04-24T12:56:36Z</time></trkpt><trkpt lat="44.42419001659158" lon="11.913516445374167"><ele>12.0</ele><time>2026-04-24T12:56:37Z</time></trkpt><trkpt lat="44.42412764922422" lon="11.913445154135335"><ele>12.0</ele><time>2026-04-24T12:56:38Z</time></trkpt><trkpt lat="44.424052941655354" lon="11.913414432402584"><ele>12.0</ele><time>2026-04-24T12:56:39Z</time></trkpt><trkpt lat="44.42399860192264" lon="11.913357907008713"><ele>12.0</ele><time>2026-04-24T12:56:40Z</time></trkpt><trkpt lat="44.423945162152684" lon="11.913308302997686"><ele>11.999999999999998</ele><time>2026-04-24T12:56:41Z</time></trkpt><trkpt lat="44.423879997949186" lon="11.913261408576448"><ele>12.0</ele><time>2026-04-24T12:56:42Z</time></trkpt><trkpt lat="44.42380819712376" lon="11.913216994540454"><ele>12.333333333333334</ele><time>2026-04-24T12:56:43Z</time></trkpt><trkpt lat="44.42374011517899" lon="11.913152254995902"><ele>12.666666666666668</ele><time>2026-04-24T12:56:44Z</time></trkpt><trkpt lat="44.423666423307424" lon="11.913095150853474"><ele>13.0</ele><time>2026-04-24T12:56:45Z</time></trkpt><trkpt lat="44.42358898054693" lon="11.913035140129177"><ele>13.333333333333334</ele><time>2026-04-24T12:56:46Z</time></trkpt><trkpt lat="44.42351009958487" lon="11.912974014940835"><ele>13.666666666666668</ele><time>2026-04-24T12:56:47Z</time></trkpt><trkpt lat="44.423430081345046" lon="11.912912509067375"><ele>14.0</ele><time>2026-04-24T12:56:48Z</time></trkpt><trkpt lat="44.4233512688325" lon="11.912851952818999"><ele>14.0</ele><time>2026-04-24T12:56:49Z</time></trkpt><trkpt lat="44.423267236711396" lon="11.912787386034505"><ele>13.999999999999998</ele><time>2026-04-24T12:56:50Z</time></trkpt><trkpt lat="44.423184515345845" lon="11.912723826390296"><ele>13.999999999999998</ele><time>2026-04-24T12:56:51Z</time></trkpt><trkpt lat="44.423098959976784" lon="11.912658089207389"><ele>14.0</ele><time>2026-04-24T12:56:52Z</time></trkpt><trkpt lat="44.42301673786622" lon="11.912594913170116"><ele>14.0</ele><time>2026-04-24T12:56:53Z</time></trkpt><trkpt lat="44.422948651079004" lon="11.912542597996376"><ele>13.833333333333334</ele><time>2026-04-24T12:56:54Z</time></trkpt><trkpt lat="44.42288476043879" lon="11.912493098695982"><ele>13.666666666666668</ele><time>2026-04-24T12:56:55Z</time></trkpt><trkpt lat="44.42282762124038" lon="11.912448965516958"><ele>13.5</ele><time>2026-04-24T12:56:56Z</time></trkpt><trkpt lat="44.422711299573315" lon="11.912359120987356"><ele>13.333333333333332</ele><time>2026-04-24T12:56:58Z</time></trkpt><trkpt lat="44.42264137612318" lon="11.91230511352435"><ele>13.166666666666666</ele><time>2026-04-24T12:56:59Z</time></trkpt><trkpt lat="44.42256506820901" lon="11.912246174811546"><ele>13.0</ele><time>2026-04-24T12:57:00Z</time></trkpt><trkpt lat="44.42248659877964" lon="11.91218556661048"><ele>12.999999999999998</ele><time>2026-04-24T12:57:01Z</time></trkpt><trkpt lat="44.422402115887074" lon="11.912120313723458"><ele>13.0</ele><time>2026-04-24T12:57:02Z</time></trkpt><trkpt lat="44.42231876246516" lon="11.912055933209329"><ele>13.0</ele><time>2026-04-24T12:57:03Z</time></trkpt><trkpt lat="44.42224842964348" lon="11.912001552168142"><ele>13.0</ele><time>2026-04-24T12:57:04Z</time></trkpt><trkpt lat="44.42218554925618" lon="11.911952287752932"><ele>12.999999999999998</ele><time>2026-04-24T12:57:05Z</time></trkpt><trkpt lat="44.42211342444703" lon="11.911895780675293"><ele>13.0</ele><time>2026-04-24T12:57:07Z</time></trkpt><trkpt lat="44.422030193882584" lon="11.911829942358002"><ele>12.8</ele><time>2026-04-24T12:57:13Z</time></trkpt><trkpt lat="44.42194812228075" lon="11.911780610490835"><ele>12.600000000000001</ele><time>2026-04-24T12:57:15Z</time></trkpt><trkpt lat="44.421896057638065" lon="11.911649083902812"><ele>12.399999999999999</ele><time>2026-04-24T12:57:17Z</time></trkpt><trkpt lat="44.42180677422002" lon="11.91167329120658"><ele>12.2</ele><time>2026-04-24T12:57:19Z</time></trkpt><trkpt lat="44.42180523423977" lon="11.9117789059448"><ele>12.0</ele><time>2026-04-24T12:57:20Z</time></trkpt><trkpt lat="44.42179108297481" lon="11.911926267577336"><ele>12.0</ele><time>2026-04-24T12:57:22Z</time></trkpt><trkpt lat="44.42175600475576" lon="11.912085043725298"><ele>12.0</ele><time>2026-04-24T12:57:24Z</time></trkpt><trkpt lat="44.421730381635314" lon="11.912170474616847"><ele>12.0</ele><time>2026-04-24T12:57:25Z</time></trkpt><trkpt lat="44.42170339623098" lon="11.912264308477248"><ele>12.0</ele><time>2026-04-24T12:57:26Z</time></trkpt><trkpt lat="44.421673086776835" lon="11.912370664652318"><ele>12.0</ele><time>2026-04-24T12:57:27Z</time></trkpt><trkpt lat="44.42163468666741" lon="11.912483808884831"><ele>12.0</ele><time>2026-04-24T12:57:28Z</time></trkpt><trkpt lat="44.42159856858747" lon="11.912599234524805"><ele>11.833333333333334</ele><time>2026-04-24T12:57:29Z</time></trkpt><trkpt lat="44.42156533960323" lon="11.912706593613532"><ele>11.666666666666666</ele><time>2026-04-24T12:57:30Z</time></trkpt><trkpt lat="44.421538556205164" lon="11.912802007809317"><ele>11.5</ele><time>2026-04-24T12:57:31Z</time></trkpt><trkpt lat="44.42150681150221" lon="11.912900574507956"><ele>11.333333333333332</ele><time>2026-04-24T12:57:32Z</time></trkpt><trkpt lat="44.42146614384786" lon="11.91300231221223"><ele>11.166666666666666</ele><time>2026-04-24T12:57:33Z</time></trkpt><trkpt lat="44.42140486999665" lon="11.913085297614527"><ele>11.0</ele><time>2026-04-24T12:57:34Z</time></trkpt><trkpt lat="44.421365222189216" lon="11.913194491317844"><ele>11.600000000000001</ele><time>2026-04-24T12:57:35Z</time></trkpt><trkpt lat="44.421314420329104" lon="11.913291937929959"><ele>12.2</ele><time>2026-04-24T12:57:36Z</time></trkpt><trkpt lat="44.4212477901155" lon="11.913376765962184"><ele>12.799999999999999</ele><time>2026-04-24T12:57:37Z</time></trkpt><trkpt lat="44.421189932843575" lon="11.913476028521403"><ele>13.399999999999999</ele><time>2026-04-24T12:57:38Z</time></trkpt><trkpt lat="44.42113149325912" lon="11.913576290093504"><ele>14.0</ele><time>2026-04-24T12:57:39Z</time></trkpt><trkpt lat="44.42107218868406" lon="11.913678035706244"><ele>14.000000000000002</ele><time>2026-04-24T12:57:40Z</time></trkpt><trkpt lat="44.4210212724295" lon="11.913765389914568"><ele>14.0</ele><time>2026-04-24T12:57:41Z</time></trkpt><trkpt lat="44.42098777441556" lon="11.91384029058807"><ele>14.0</ele><time>2026-04-24T12:57:42Z</time></trkpt><trkpt lat="44.42093609604738" lon="11.913932919197446"><ele>14.0</ele><time>2026-04-24T12:57:44Z</time></trkpt><trkpt lat="44.42089250741597" lon="11.913998255353839"><ele>14.000000000000002</ele><time>2026-04-24T12:57:46Z</time></trkpt><trkpt lat="44.42084280050562" lon="11.914117277743765"><ele>14.0</ele><time>2026-04-24T12:57:48Z</time></trkpt><trkpt lat="44.42076527144985" lon="11.91430923886632"><ele>13.666666666666668</ele><time>2026-04-24T12:57:50Z</time></trkpt><trkpt lat="44.42072760949534" lon="11.914414875125804"><ele>13.333333333333334</ele><time>2026-04-24T12:57:51Z</time></trkpt><trkpt lat="44.42068711481822" lon="11.914516512716224"><ele>13.0</ele><time>2026-04-24T12:57:52Z</time></trkpt><trkpt lat="44.420641689214435" lon="11.914630167494638"><ele>12.666666666666668</ele><time>2026-04-24T12:57:53Z</time></trkpt><trkpt lat="44.42059858557468" lon="11.914731642882991"><ele>12.333333333333334</ele><time>2026-04-24T12:57:54Z</time></trkpt><trkpt lat="44.42055289726663" lon="11.91484667622697"><ele>12.0</ele><time>2026-04-24T12:57:55Z</time></trkpt><trkpt lat="44.42050417531182" lon="11.91497263760084"><ele>12.2</ele><time>2026-04-24T12:57:56Z</time></trkpt><trkpt lat="44.420453531089066" lon="11.915101357764078"><ele>12.399999999999999</ele><time>2026-04-24T12:57:57Z</time></trkpt><trkpt lat="44.420400772821246" lon="11.91523341658948"><ele>12.600000000000001</ele><time>2026-04-24T12:57:58Z</time></trkpt><trkpt lat="44.42034422570314" lon="11.915364042180244"><ele>12.8</ele><time>2026-04-24T12:57:59Z</time></trkpt><trkpt lat="44.42028229167048" lon="11.915498250848328"><ele>13.0</ele><time>2026-04-24T12:58:00Z</time></trkpt><trkpt lat="44.420227826293306" lon="11.915644339948136"><ele>13.0</ele><time>2026-04-24T12:58:01Z</time></trkpt><trkpt lat="44.4201717234989" lon="11.915792520704924"><ele>13.0</ele><time>2026-04-24T12:58:02Z</time></trkpt><trkpt lat="44.420117506544635" lon="11.915936704589905"><ele>13.0</ele><time>2026-04-24T12:58:03Z</time></trkpt><trkpt lat="44.420061889857486" lon="11.916077567439835"><ele>13.0</ele><time>2026-04-24T12:58:04Z</time></trkpt><trkpt lat="44.42000699557304" lon="11.916216619673278"><ele>13.0</ele><time>2026-04-24T12:58:05Z</time></trkpt><trkpt lat="44.41995411655337" lon="11.916350908389775"><ele>13.0</ele><time>2026-04-24T12:58:06Z</time></trkpt><trkpt lat="44.419901393948834" lon="11.916481724079917"><ele>13.0</ele><time>2026-04-24T12:58:07Z</time></trkpt><trkpt lat="44.41985127608343" lon="11.916607157010658"><ele>13.0</ele><time>2026-04-24T12:58:08Z</time></trkpt><trkpt lat="44.41979628654037" lon="11.916729399158177"><ele>13.0</ele><time>2026-04-24T12:58:09Z</time></trkpt><trkpt lat="44.419739133947076" lon="11.916844894402043"><ele>13.0</ele><time>2026-04-24T12:58:10Z</time></trkpt><trkpt lat="44.41968033386138" lon="11.916968426349852"><ele>13.0</ele><time>2026-04-24T12:58:11Z</time></trkpt><trkpt lat="44.41962033736736" lon="11.917096539052947"><ele>13.0</ele><time>2026-04-24T12:58:12Z</time></trkpt><trkpt lat="44.41955549647204" lon="11.917226343570249"><ele>13.0</ele><time>2026-04-24T12:58:13Z</time></trkpt><trkpt lat="44.41949804602908" lon="11.917368824272815"><ele>13.0</ele><time>2026-04-24T12:58:14Z</time></trkpt><trkpt lat="44.419429332914966" lon="11.917500958796825"><ele>13.25</ele><time>2026-04-24T12:58:15Z</time></trkpt><trkpt lat="44.41936110768694" lon="11.917633659023076"><ele>13.5</ele><time>2026-04-24T12:58:16Z</time></trkpt><trkpt lat="44.419297314265535" lon="11.917765537892413"><ele>13.75</ele><time>2026-04-24T12:58:17Z</time></trkpt><trkpt lat="44.41923605845857" lon="11.917899819665704"><ele>14.0</ele><time>2026-04-24T12:58:18Z</time></trkpt><trkpt lat="44.41917383954658" lon="11.918028122939825"><ele>14.0</ele><time>2026-04-24T12:58:19Z</time></trkpt><trkpt lat="44.41911078072248" lon="11.918154346674875"><ele>13.999999999999998</ele><time>2026-04-24T12:58:20Z</time></trkpt><trkpt lat="44.41905188360231" lon="11.918281612598788"><ele>13.999999999999998</ele><time>2026-04-24T12:58:21Z</time></trkpt><trkpt lat="44.41899377012891" lon="11.918404658634737"><ele>14.0</ele><time>2026-04-24T12:58:22Z</time></trkpt><trkpt lat="44.41893380394311" lon="11.918525173706284"><ele>14.0</ele><time>2026-04-24T12:58:23Z</time></trkpt><trkpt lat="44.41887827306966" lon="11.918639726014089"><ele>13.799999999999999</ele><time>2026-04-24T12:58:24Z</time></trkpt><trkpt lat="44.41883219425235" lon="11.918738970731226"><ele>13.599999999999998</ele><time>2026-04-24T12:58:25Z</time></trkpt><trkpt lat="44.41879519075033" lon="11.91882745972746"><ele>13.4</ele><time>2026-04-24T12:58:26Z</time></trkpt><trkpt lat="44.41875911096202" lon="11.91890650671764"><ele>13.2</ele><time>2026-04-24T12:58:27Z</time></trkpt><trkpt lat="44.41868894449105" lon="11.9190252228162"><ele>13.0</ele><time>2026-04-24T12:58:29Z</time></trkpt><trkpt lat="44.41860503399323" lon="11.919148333314268"><ele>13.0</ele><time>2026-04-24T12:58:31Z</time></trkpt><trkpt lat="44.41856984073615" lon="11.919232125920056"><ele>13.0</ele><time>2026-04-24T12:58:32Z</time></trkpt><trkpt lat="44.41848673906946" lon="11.919283786696274"><ele>13.0</ele><time>2026-04-24T12:58:33Z</time></trkpt><trkpt lat="44.41838596672976" lon="11.919241288993915"><ele>13.0</ele><time>2026-04-24T12:58:34Z</time></trkpt><trkpt lat="44.41829290223619" lon="11.919240478157192"><ele>13.0</ele><time>2026-04-24T12:58:35Z</time></trkpt><trkpt lat="44.41821478697049" lon="11.919164463819486"><ele>12.999999999999998</ele><time>2026-04-24T12:58:36Z</time></trkpt><trkpt lat="44.41813249188414" lon="11.919109948863756"><ele>13.0</ele><time>2026-04-24T12:58:37Z</time></trkpt><trkpt lat="44.4180521494812" lon="11.919051760393964"><ele>13.0</ele><time>2026-04-24T12:58:38Z</time></trkpt><trkpt lat="44.41797095083569" lon="11.918993640256176"><ele>13.0</ele><time>2026-04-24T12:58:39Z</time></trkpt><trkpt lat="44.417890019309226" lon="11.918951574280532"><ele>12.999999999999998</ele><time>2026-04-24T12:58:40Z</time></trkpt><trkpt lat="44.41783040377818" lon="11.918910893119751"><ele>13.0</ele><time>2026-04-24T12:58:41Z</time></trkpt><trkpt lat="44.4177502689579" lon="11.918803730769866"><ele>13.333333333333332</ele><time>2026-04-24T12:58:43Z</time></trkpt><trkpt lat="44.41765635605245" lon="11.91876201839285"><ele>13.666666666666666</ele><time>2026-04-24T12:58:45Z</time></trkpt><trkpt lat="44.41758340582922" lon="11.918897005464714"><ele>14.0</ele><time>2026-04-24T12:58:47Z</time></trkpt><trkpt lat="44.417589169896445" lon="11.9189908439446"><ele>14.333333333333332</ele><time>2026-04-24T12:58:48Z</time></trkpt><trkpt lat="44.417586589416786" lon="11.919079280477455"><ele>14.666666666666666</ele><time>2026-04-24T12:58:49Z</time></trkpt><trkpt lat="44.41755142083282" lon="11.919163520519438"><ele>15.0</ele><time>2026-04-24T12:58:50Z</time></trkpt><trkpt lat="44.417529957463955" lon="11.919263236394208"><ele>15.2</ele><time>2026-04-24T12:58:51Z</time></trkpt><trkpt lat="44.417492702132265" lon="11.919378989865509"><ele>15.4</ele><time>2026-04-24T12:58:52Z</time></trkpt><trkpt lat="44.4174489963224" lon="11.919507009007344"><ele>15.600000000000001</ele><time>2026-04-24T12:58:53Z</time></trkpt><trkpt lat="44.41739592785174" lon="11.91965194726952"><ele>15.8</ele><time>2026-04-24T12:58:54Z</time></trkpt><trkpt lat="44.41733350806714" lon="11.919808766987504"><ele>16.0</ele><time>2026-04-24T12:58:55Z</time></trkpt><trkpt lat="44.41726597905446" lon="11.919944486811172"><ele>15.600000000000001</ele><time>2026-04-24T12:58:56Z</time></trkpt><trkpt lat="44.41721291595759" lon="11.92008762609436"><ele>15.200000000000001</ele><time>2026-04-24T12:58:57Z</time></trkpt><trkpt lat="44.417161010714615" lon="11.920234931043959"><ele>14.799999999999999</ele><time>2026-04-24T12:58:58Z</time></trkpt><trkpt lat="44.417108330888524" lon="11.920359339521701"><ele>14.399999999999999</ele><time>2026-04-24T12:58:59Z</time></trkpt><trkpt lat="44.417072258826074" lon="11.920446558736533"><ele>14.0</ele><time>2026-04-24T12:59:00Z</time></trkpt><trkpt lat="44.41701319996299" lon="11.920572582914925"><ele>13.833333333333334</ele><time>2026-04-24T12:59:02Z</time></trkpt><trkpt lat="44.416969828081974" lon="11.920728849556689"><ele>13.666666666666668</ele><time>2026-04-24T12:59:04Z</time></trkpt><trkpt lat="44.41693471866298" lon="11.920814159806374"><ele>13.5</ele><time>2026-04-24T12:59:05Z</time></trkpt><trkpt lat="44.416896971403624" lon="11.920902236046587"><ele>13.333333333333332</ele><time>2026-04-24T12:59:06Z</time></trkpt><trkpt lat="44.41686493972024" lon="11.920982300020476"><ele>13.166666666666666</ele><time>2026-04-24T12:59:07Z</time></trkpt><trkpt lat="44.41683008289386" lon="11.921065376100906"><ele>13.0</ele><time>2026-04-24T12:59:08Z</time></trkpt><trkpt lat="44.41679463597644" lon="11.9211460291686"><ele>12.8</ele><time>2026-04-24T12:59:09Z</time></trkpt><trkpt lat="44.41676676038945" lon="11.921227850155812"><ele>12.600000000000001</ele><time>2026-04-24T12:59:10Z</time></trkpt><trkpt lat="44.416713529703074" lon="11.921319951060106"><ele>12.399999999999999</ele><time>2026-04-24T12:59:11Z</time></trkpt><trkpt lat="44.41666451082975" lon="11.921443106313896"><ele>12.2</ele><time>2026-04-24T12:59:12Z</time></trkpt><trkpt lat="44.41660628103665" lon="11.921586982237057"><ele>12.0</ele><time>2026-04-24T12:59:13Z</time></trkpt><trkpt lat="44.41654269186142" lon="11.921744610175784"><ele>12.0</ele><time>2026-04-24T12:59:14Z</time></trkpt><trkpt lat="44.416488174713" lon="11.921919214604069"><ele>12.0</ele><time>2026-04-24T12:59:15Z</time></trkpt><trkpt lat="44.41641328855862" lon="11.922078764597067"><ele>12.0</ele><time>2026-04-24T12:59:16Z</time></trkpt><trkpt lat="44.41634504395114" lon="11.9222347884179"><ele>12.0</ele><time>2026-04-24T12:59:17Z</time></trkpt><trkpt lat="44.416278732246255" lon="11.922384457869322"><ele>12.0</ele><time>2026-04-24T12:59:18Z</time></trkpt><trkpt lat="44.4162108831147" lon="11.92252375010926"><ele>12.0</ele><time>2026-04-24T12:59:19Z</time></trkpt><trkpt lat="44.41613810256947" lon="11.922667758030624"><ele>12.0</ele><time>2026-04-24T12:59:20Z</time></trkpt><trkpt lat="44.416062521443536" lon="11.922813082054892"><ele>12.0</ele><time>2026-04-24T12:59:21Z</time></trkpt><trkpt lat="44.415991463283355" lon="11.922961623663534"><ele>12.0</ele><time>2026-04-24T12:59:22Z</time></trkpt><trkpt lat="44.4159177368783" lon="11.923117434969848"><ele>12.0</ele><time>2026-04-24T12:59:23Z</time></trkpt><trkpt lat="44.41585253502461" lon="11.923278444129894"><ele>12.0</ele><time>2026-04-24T12:59:24Z</time></trkpt><trkpt lat="44.415791588463605" lon="11.923438019811673"><ele>12.0</ele><time>2026-04-24T12:59:25Z</time></trkpt><trkpt lat="44.4157272114921" lon="11.923593246710467"><ele>12.0</ele><time>2026-04-24T12:59:26Z</time></trkpt><trkpt lat="44.41565915229801" lon="11.923729630377313"><ele>12.0</ele><time>2026-04-24T12:59:27Z</time></trkpt><trkpt lat="44.415586030126505" lon="11.923853545025992"><ele>12.0</ele><time>2026-04-24T12:59:28Z</time></trkpt><trkpt lat="44.415507426920755" lon="11.923981095655078"><ele>12.0</ele><time>2026-04-24T12:59:29Z</time></trkpt><trkpt lat="44.41544702020392" lon="11.924093883404163"><ele>11.833333333333334</ele><time>2026-04-24T12:59:30Z</time></trkpt><trkpt lat="44.415394942321946" lon="11.924198678736406"><ele>11.666666666666666</ele><time>2026-04-24T12:59:31Z</time></trkpt><trkpt lat="44.41536338448365" lon="11.924291550305899"><ele>11.5</ele><time>2026-04-24T12:59:32Z</time></trkpt><trkpt lat="44.41533356976491" lon="11.924381186451866"><ele>11.333333333333332</ele><time>2026-04-24T12:59:33Z</time></trkpt><trkpt lat="44.41529911477888" lon="11.924487307835538"><ele>11.166666666666666</ele><time>2026-04-24T12:59:34Z</time></trkpt><trkpt lat="44.41526575128576" lon="11.92460278092078"><ele>11.0</ele><time>2026-04-24T12:59:35Z</time></trkpt><trkpt lat="44.4152271223657" lon="11.924740209622822"><ele>11.0</ele><time>2026-04-24T12:59:36Z</time></trkpt><trkpt lat="44.41518098298158" lon="11.924887608015371"><ele>11.0</ele><time>2026-04-24T12:59:37Z</time></trkpt><trkpt lat="44.41514054570069" lon="11.9250174769578"><ele>11.0</ele><time>2026-04-24T12:59:38Z</time></trkpt><trkpt lat="44.41509625229305" lon="11.925124784036225"><ele>11.0</ele><time>2026-04-24T12:59:39Z</time></trkpt><trkpt lat="44.41503734213769" lon="11.925193546676185"><ele>11.0</ele><time>2026-04-24T12:59:40Z</time></trkpt><trkpt lat="44.414962436652736" lon="11.925210500410715"><ele>11.75</ele><time>2026-04-24T12:59:41Z</time></trkpt><trkpt lat="44.41487936596565" lon="11.925194880476958"><ele>12.5</ele><time>2026-04-24T12:59:42Z</time></trkpt><trkpt lat="44.41480003725824" lon="11.925191648411362"><ele>13.25</ele><time>2026-04-24T12:59:43Z</time></trkpt><trkpt lat="44.41473333037249" lon="11.92534463702224"><ele>14.0</ele><time>2026-04-24T12:59:45Z</time></trkpt><trkpt lat="44.414797514776595" lon="11.925573895641252"><ele>14.0</ele><time>2026-04-24T12:59:47Z</time></trkpt><trkpt lat="44.41484311063283" lon="11.925694253410548"><ele>13.999999999999998</ele><time>2026-04-24T12:59:48Z</time></trkpt><trkpt lat="44.41485682642072" lon="11.92583554256282"><ele>13.999999999999998</ele><time>2026-04-24T12:59:49Z</time></trkpt><trkpt lat="44.414796106963884" lon="11.925967940944425"><ele>14.0</ele><time>2026-04-24T12:59:50Z</time></trkpt><trkpt lat="44.41473373506122" lon="11.92612086831247"><ele>14.0</ele><time>2026-04-24T12:59:51Z</time></trkpt><trkpt lat="44.41468036913216" lon="11.926295526737063"><ele>14.0</ele><time>2026-04-24T12:59:52Z</time></trkpt><trkpt lat="44.41460414776621" lon="11.926463226665401"><ele>14.0</ele><time>2026-04-24T12:59:53Z</time></trkpt><trkpt lat="44.4145333315944" lon="11.926642502944906"><ele>14.0</ele><time>2026-04-24T12:59:54Z</time></trkpt><trkpt lat="44.414465140115276" lon="11.926820609994792"><ele>14.0</ele><time>2026-04-24T12:59:55Z</time></trkpt><trkpt lat="44.41431245640788" lon="11.927158236132783"><ele>13.799999999999999</ele><time>2026-04-24T12:59:57Z</time></trkpt><trkpt lat="44.41424881099768" lon="11.927312541966215"><ele>13.599999999999998</ele><time>2026-04-24T12:59:58Z</time></trkpt><trkpt lat="44.41419021593888" lon="11.927456191912123"><ele>13.4</ele><time>2026-04-24T12:59:59Z</time></trkpt><trkpt lat="44.41413769715214" lon="11.927586539627912"><ele>13.2</ele><time>2026-04-24T13:00:00Z</time></trkpt><trkpt lat="44.414090537707196" lon="11.92770350390811"><ele>13.0</ele><time>2026-04-24T13:00:01Z</time></trkpt><trkpt lat="44.41405633930242" lon="11.92782355075793"><ele>13.0</ele><time>2026-04-24T13:00:02Z</time></trkpt><trkpt lat="44.41400401037596" lon="11.927940983509473"><ele>13.0</ele><time>2026-04-24T13:00:03Z</time></trkpt><trkpt lat="44.413952485462175" lon="11.928055930195928"><ele>13.0</ele><time>2026-04-24T13:00:04Z</time></trkpt><trkpt lat="44.41390919252847" lon="11.928166550627006"><ele>13.0</ele><time>2026-04-24T13:00:05Z</time></trkpt><trkpt lat="44.41387793956093" lon="11.928248719182081"><ele>13.0</ele><time>2026-04-24T13:00:06Z</time></trkpt><trkpt lat="44.41381869525501" lon="11.92836199413198"><ele>13.25</ele><time>2026-04-24T13:00:08Z</time></trkpt><trkpt lat="44.413770954488406" lon="11.928511119011898"><ele>13.5</ele><time>2026-04-24T13:00:10Z</time></trkpt><trkpt lat="44.41372956463034" lon="11.928634546476815"><ele>13.75</ele><time>2026-04-24T13:00:11Z</time></trkpt><trkpt lat="44.41365284124084" lon="11.928787771370324"><ele>14.0</ele><time>2026-04-24T13:00:12Z</time></trkpt><trkpt lat="44.413572789762135" lon="11.928986710861619"><ele>14.0</ele><time>2026-04-24T13:00:13Z</time></trkpt><trkpt lat="44.41348239629668" lon="11.92921135211413"><ele>14.0</ele><time>2026-04-24T13:00:14Z</time></trkpt><trkpt lat="44.41340171436447" lon="11.92945606742091"><ele>14.0</ele><time>2026-04-24T13:00:15Z</time></trkpt><trkpt lat="44.41330090347412" lon="11.9296771784568"><ele>14.333333333333334</ele><time>2026-04-24T13:00:16Z</time></trkpt><trkpt lat="44.41320851740469" lon="11.929887477412674"><ele>14.666666666666668</ele><time>2026-04-24T13:00:17Z</time></trkpt><trkpt lat="44.413118461136605" lon="11.930101937261053"><ele>15.0</ele><time>2026-04-24T13:00:18Z</time></trkpt><trkpt lat="44.413034815011166" lon="11.93031200570924"><ele>14.333333333333332</ele><time>2026-04-24T13:00:19Z</time></trkpt><trkpt lat="44.41295637648152" lon="11.930520931488047"><ele>13.666666666666666</ele><time>2026-04-24T13:00:20Z</time></trkpt><trkpt lat="44.41287947961517" lon="11.930729747818965"><ele>13.0</ele><time>2026-04-24T13:00:21Z</time></trkpt><trkpt lat="44.41279876052666" lon="11.930934655388857"><ele>13.0</ele><time>2026-04-24T13:00:22Z</time></trkpt><trkpt lat="44.4127183939891" lon="11.931141585393329"><ele>13.0</ele><time>2026-04-24T13:00:23Z</time></trkpt><trkpt lat="44.41264292856506" lon="11.931353181295279"><ele>13.0</ele><time>2026-04-24T13:00:24Z</time></trkpt><trkpt lat="44.41256676733751" lon="11.931569587624795"><ele>13.0</ele><time>2026-04-24T13:00:25Z</time></trkpt><trkpt lat="44.41248950903673" lon="11.93178608769617"><ele>13.0</ele><time>2026-04-24T13:00:26Z</time></trkpt><trkpt lat="44.41241298288931" lon="11.93200214814815"><ele>13.0</ele><time>2026-04-24T13:00:27Z</time></trkpt><trkpt lat="44.41234035416337" lon="11.93221881171437"><ele>13.0</ele><time>2026-04-24T13:00:28Z</time></trkpt><trkpt lat="44.41227011281093" lon="11.932430505728433"><ele>13.0</ele><time>2026-04-24T13:00:29Z</time></trkpt><trkpt lat="44.41220338059677" lon="11.932639891315477"><ele>13.0</ele><time>2026-04-24T13:00:30Z</time></trkpt><trkpt lat="44.41213196958072" lon="11.932855733714357"><ele>13.0</ele><time>2026-04-24T13:00:31Z</time></trkpt><trkpt lat="44.41205484267199" lon="11.93306947643335"><ele>13.0</ele><time>2026-04-24T13:00:32Z</time></trkpt><trkpt lat="44.41197669070784" lon="11.933284229199929"><ele>13.0</ele><time>2026-04-24T13:00:33Z</time></trkpt><trkpt lat="44.411901431346614" lon="11.933489063149288"><ele>13.0</ele><time>2026-04-24T13:00:34Z</time></trkpt><trkpt lat="44.4118342229297" lon="11.933673095257284"><ele>13.0</ele><time>2026-04-24T13:00:35Z</time></trkpt><trkpt lat="44.41176558762882" lon="11.933831477246805"><ele>13.0</ele><time>2026-04-24T13:00:36Z</time></trkpt><trkpt lat="44.41171081847904" lon="11.93397181280699"><ele>13.0</ele><time>2026-04-24T13:00:37Z</time></trkpt><trkpt lat="44.41166688366619" lon="11.934088400263565"><ele>13.0</ele><time>2026-04-24T13:00:38Z</time></trkpt><trkpt lat="44.41152858809241" lon="11.934115385906082"><ele>13.0</ele><time>2026-04-24T13:00:39Z</time></trkpt><trkpt lat="44.41144180220466" lon="11.934138706487477"><ele>13.0</ele><time>2026-04-24T13:00:40Z</time></trkpt><trkpt lat="44.411356066727215" lon="11.934119163016208"><ele>13.0</ele><time>2026-04-24T13:00:41Z</time></trkpt><trkpt lat="44.41125132412516" lon="11.934062597540512"><ele>13.0</ele><time>2026-04-24T13:00:42Z</time></trkpt><trkpt lat="44.411138734053196" lon="11.933966555367832"><ele>12.5</ele><time>2026-04-24T13:00:43Z</time></trkpt><trkpt lat="44.410998549607044" lon="11.933930631721553"><ele>12.0</ele><time>2026-04-24T13:00:44Z</time></trkpt><trkpt lat="44.41085695042389" lon="11.933870675168404"><ele>11.5</ele><time>2026-04-24T13:00:45Z</time></trkpt><trkpt lat="44.410703645325626" lon="11.933827688412963"><ele>11.0</ele><time>2026-04-24T13:00:46Z</time></trkpt><trkpt lat="44.41054101307921" lon="11.93380054569494"><ele>11.0</ele><time>2026-04-24T13:00:47Z</time></trkpt><trkpt lat="44.41036953911419" lon="11.933784021751078"><ele>11.0</ele><time>2026-04-24T13:00:48Z</time></trkpt><trkpt lat="44.41019624286074" lon="11.933777846492285"><ele>11.0</ele><time>2026-04-24T13:00:49Z</time></trkpt><trkpt lat="44.41001483197698" lon="11.933782174256763"><ele>11.0</ele><time>2026-04-24T13:00:50Z</time></trkpt><trkpt lat="44.409840703401365" lon="11.933808262177466"><ele>11.0</ele><time>2026-04-24T13:00:51Z</time></trkpt><trkpt lat="44.40966347950679" lon="11.93386094633085"><ele>11.0</ele><time>2026-04-24T13:00:52Z</time></trkpt><trkpt lat="44.409483772932475" lon="11.933930938042682"><ele>11.0</ele><time>2026-04-24T13:00:53Z</time></trkpt><trkpt lat="44.40930043165668" lon="11.934011526888646"><ele>11.0</ele><time>2026-04-24T13:00:54Z</time></trkpt><trkpt lat="44.409114718580746" lon="11.934100353768745"><ele>11.0</ele><time>2026-04-24T13:00:55Z</time></trkpt><trkpt lat="44.40892550686231" lon="11.934189644493285"><ele>12.0</ele><time>2026-04-24T13:00:56Z</time></trkpt><trkpt lat="44.408747886564996" lon="11.934273766699686"><ele>13.0</ele><time>2026-04-24T13:00:57Z</time></trkpt><trkpt lat="44.40858423434394" lon="11.934349164412223"><ele>14.0</ele><time>2026-04-24T13:00:58Z</time></trkpt><trkpt lat="44.40842933283068" lon="11.934414763096003"><ele>14.0</ele><time>2026-04-24T13:00:59Z</time></trkpt><trkpt lat="44.40828239576662" lon="11.93447434623838"><ele>14.0</ele><time>2026-04-24T13:01:00Z</time></trkpt><trkpt lat="44.40814704986796" lon="11.93453237126509"><ele>14.0</ele><time>2026-04-24T13:01:01Z</time></trkpt><trkpt lat="44.40799957719901" lon="11.934552318245023"><ele>14.0</ele><time>2026-04-24T13:01:02Z</time></trkpt><trkpt lat="44.4078482806277" lon="11.934581715219068"><ele>13.666666666666668</ele><time>2026-04-24T13:01:03Z</time></trkpt><trkpt lat="44.407685339576155" lon="11.934602719966719"><ele>13.333333333333332</ele><time>2026-04-24T13:01:04Z</time></trkpt><trkpt lat="44.407511953902514" lon="11.93461445624298"><ele>13.0</ele><time>2026-04-24T13:01:05Z</time></trkpt><trkpt lat="44.407323104402614" lon="11.934616358002607"><ele>12.666666666666666</ele><time>2026-04-24T13:01:06Z</time></trkpt><trkpt lat="44.40713158186626" lon="11.93459893670696"><ele>12.333333333333332</ele><time>2026-04-24T13:01:07Z</time></trkpt><trkpt lat="44.40693177515039" lon="11.934568614466942"><ele>12.0</ele><time>2026-04-24T13:01:08Z</time></trkpt><trkpt lat="44.406730287882404" lon="11.934527076461434"><ele>12.0</ele><time>2026-04-24T13:01:09Z</time></trkpt><trkpt lat="44.40653459114838" lon="11.934459904924681"><ele>12.0</ele><time>2026-04-24T13:01:10Z</time></trkpt><trkpt lat="44.40632826577884" lon="11.9344360106499"><ele>12.0</ele><time>2026-04-24T13:01:11Z</time></trkpt><trkpt lat="44.40613694293092" lon="11.934329220684265"><ele>12.0</ele><time>2026-04-24T13:01:12Z</time></trkpt><trkpt lat="44.40594937506085" lon="11.934199438110348"><ele>12.0</ele><time>2026-04-24T13:01:13Z</time></trkpt><trkpt lat="44.40576343663901" lon="11.934058767680675"><ele>12.0</ele><time>2026-04-24T13:01:14Z</time></trkpt><trkpt lat="44.40557594095701" lon="11.933915636956565"><ele>12.0</ele><time>2026-04-24T13:01:15Z</time></trkpt><trkpt lat="44.40537943512654" lon="11.933770358591007"><ele>12.0</ele><time>2026-04-24T13:01:16Z</time></trkpt><trkpt lat="44.40518095181859" lon="11.933618140300371"><ele>12.0</ele><time>2026-04-24T13:01:17Z</time></trkpt><trkpt lat="44.40498083241223" lon="11.933472789170883"><ele>12.0</ele><time>2026-04-24T13:01:18Z</time></trkpt><trkpt lat="44.40478315078257" lon="11.933334482135152"><ele>12.0</ele><time>2026-04-24T13:01:19Z</time></trkpt><trkpt lat="44.40459147641523" lon="11.933202390778732"><ele>12.0</ele><time>2026-04-24T13:01:20Z</time></trkpt><trkpt lat="44.40439581221403" lon="11.933062576006936"><ele>12.0</ele><time>2026-04-24T13:01:21Z</time></trkpt><trkpt lat="44.404196261949345" lon="11.932920184038515"><ele>12.0</ele><time>2026-04-24T13:01:22Z</time></trkpt><trkpt lat="44.40400008207166" lon="11.932781183243797"><ele>12.0</ele><time>2026-04-24T13:01:23Z</time></trkpt><trkpt lat="44.40380534115665" lon="11.932646121375882"><ele>12.0</ele><time>2026-04-24T13:01:24Z</time></trkpt><trkpt lat="44.40361321627762" lon="11.932508653915388"><ele>12.0</ele><time>2026-04-24T13:01:25Z</time></trkpt><trkpt lat="44.40342223399265" lon="11.93237053479503"><ele>12.0</ele><time>2026-04-24T13:01:26Z</time></trkpt><trkpt lat="44.40323240129566" lon="11.932235745550983"><ele>12.0</ele><time>2026-04-24T13:01:27Z</time></trkpt><trkpt lat="44.40303942489965" lon="11.93210011174032"><ele>12.0</ele><time>2026-04-24T13:01:28Z</time></trkpt><trkpt lat="44.40284741451995" lon="11.931963629690506"><ele>12.0</ele><time>2026-04-24T13:01:29Z</time></trkpt><trkpt lat="44.40265701266332" lon="11.931827097932"><ele>12.666666666666668</ele><time>2026-04-24T13:01:30Z</time></trkpt><trkpt lat="44.40246640122883" lon="11.931694697280403"><ele>13.333333333333334</ele><time>2026-04-24T13:01:31Z</time></trkpt><trkpt lat="44.40227752306711" lon="11.931556022648039"><ele>14.0</ele><time>2026-04-24T13:01:32Z</time></trkpt><trkpt lat="44.40208783977602" lon="11.931412403736536"><ele>14.0</ele><time>2026-04-24T13:01:33Z</time></trkpt><trkpt lat="44.40189590758766" lon="11.931273963559622"><ele>14.0</ele><time>2026-04-24T13:01:34Z</time></trkpt><trkpt lat="44.40170463143305" lon="11.931138362689701"><ele>14.0</ele><time>2026-04-24T13:01:35Z</time></trkpt><trkpt lat="44.40151607391106" lon="11.931003651849638"><ele>13.666666666666668</ele><time>2026-04-24T13:01:36Z</time></trkpt><trkpt lat="44.40132477416705" lon="11.930867710898918"><ele>13.333333333333332</ele><time>2026-04-24T13:01:37Z</time></trkpt><trkpt lat="44.401132731284534" lon="11.930732592277035"><ele>13.0</ele><time>2026-04-24T13:01:38Z</time></trkpt><trkpt lat="44.40093956741528" lon="11.930599420376685"><ele>13.0</ele><time>2026-04-24T13:01:39Z</time></trkpt><trkpt lat="44.40074667143126" lon="11.930466132065472"><ele>13.0</ele><time>2026-04-24T13:01:40Z</time></trkpt><trkpt lat="44.40055540325203" lon="11.930333048798364"><ele>13.0</ele><time>2026-04-24T13:01:41Z</time></trkpt><trkpt lat="44.40036212641398" lon="11.930197932285653"><ele>13.0</ele><time>2026-04-24T13:01:42Z</time></trkpt><trkpt lat="44.400169359851404" lon="11.930056093787494"><ele>13.0</ele><time>2026-04-24T13:01:43Z</time></trkpt><trkpt lat="44.39998761871731" lon="11.929923472327351"><ele>13.0</ele><time>2026-04-24T13:01:44Z</time></trkpt><trkpt lat="44.39982097628419" lon="11.92980368309969"><ele>13.0</ele><time>2026-04-24T13:01:45Z</time></trkpt><trkpt lat="44.39966775044554" lon="11.929697026022964"><ele>13.0</ele><time>2026-04-24T13:01:46Z</time></trkpt><trkpt lat="44.399533543056144" lon="11.929604790913439"><ele>13.0</ele><time>2026-04-24T13:01:47Z</time></trkpt><trkpt lat="44.399418635594" lon="11.929527439799935"><ele>13.0</ele><time>2026-04-24T13:01:48Z</time></trkpt><trkpt lat="44.39932525922263" lon="11.929451132972176"><ele>13.0</ele><time>2026-04-24T13:01:49Z</time></trkpt><trkpt lat="44.39925737170947" lon="11.929353905154883"><ele>13.0</ele><time>2026-04-24T13:01:50Z</time></trkpt><trkpt lat="44.39919320503105" lon="11.92927422698825"><ele>13.0</ele><time>2026-04-24T13:01:51Z</time></trkpt><trkpt lat="44.39913477837577" lon="11.929208550228175"><ele>13.0</ele><time>2026-04-24T13:01:52Z</time></trkpt><trkpt lat="44.39907235932648" lon="11.929182631758872"><ele>13.0</ele><time>2026-04-24T13:01:53Z</time></trkpt><trkpt lat="44.39897257527296" lon="11.929312183986825"><ele>13.25</ele><time>2026-04-24T13:01:55Z</time></trkpt><trkpt lat="44.398969126626675" lon="11.929444922820082"><ele>13.5</ele><time>2026-04-24T13:01:56Z</time></trkpt><trkpt lat="44.39898070861989" lon="11.929608165011304"><ele>13.75</ele><time>2026-04-24T13:01:57Z</time></trkpt><trkpt lat="44.39895506910631" lon="11.929773009026905"><ele>14.0</ele><time>2026-04-24T13:01:58Z</time></trkpt><trkpt lat="44.39888346588614" lon="11.929951233132583"><ele>13.333333333333334</ele><time>2026-04-24T13:01:59Z</time></trkpt><trkpt lat="44.39881616562098" lon="11.930142085418732"><ele>12.666666666666668</ele><time>2026-04-24T13:02:00Z</time></trkpt><trkpt lat="44.39874061552479" lon="11.93034361165479"><ele>12.0</ele><time>2026-04-24T13:02:01Z</time></trkpt><trkpt lat="44.398657240554954" lon="11.930558906283878"><ele>12.0</ele><time>2026-04-24T13:02:02Z</time></trkpt><trkpt lat="44.39856709610241" lon="11.930782459601842"><ele>12.0</ele><time>2026-04-24T13:02:03Z</time></trkpt><trkpt lat="44.39847387884219" lon="11.931016466938585"><ele>12.0</ele><time>2026-04-24T13:02:04Z</time></trkpt><trkpt lat="44.3983741282699" lon="11.931249636353101"><ele>12.0</ele><time>2026-04-24T13:02:05Z</time></trkpt><trkpt lat="44.39827010693206" lon="11.93148857190029"><ele>12.0</ele><time>2026-04-24T13:02:06Z</time></trkpt><trkpt lat="44.398169195488414" lon="11.931725850183815"><ele>12.0</ele><time>2026-04-24T13:02:07Z</time></trkpt><trkpt lat="44.398066173554426" lon="11.931967451382956"><ele>12.0</ele><time>2026-04-24T13:02:08Z</time></trkpt><trkpt lat="44.397965742413874" lon="11.932214714023896"><ele>12.0</ele><time>2026-04-24T13:02:09Z</time></trkpt><trkpt lat="44.39786810385628" lon="11.932462405949542"><ele>12.0</ele><time>2026-04-24T13:02:10Z</time></trkpt><trkpt lat="44.39776749409267" lon="11.932705122530825"><ele>12.333333333333332</ele><time>2026-04-24T13:02:11Z</time></trkpt><trkpt lat="44.397667934326414" lon="11.932943791445908"><ele>12.666666666666666</ele><time>2026-04-24T13:02:12Z</time></trkpt><trkpt lat="44.397568403552924" lon="11.933178192667391"><ele>13.0</ele><time>2026-04-24T13:02:13Z</time></trkpt><trkpt lat="44.39747382319271" lon="11.933411052900116"><ele>12.333333333333332</ele><time>2026-04-24T13:02:14Z</time></trkpt><trkpt lat="44.39737947590953" lon="11.933639166635976"><ele>11.666666666666666</ele><time>2026-04-24T13:02:15Z</time></trkpt><trkpt lat="44.39728281250511" lon="11.933870308939342"><ele>11.0</ele><time>2026-04-24T13:02:16Z</time></trkpt><trkpt lat="44.39718534625517" lon="11.934105159907398"><ele>11.666666666666666</ele><time>2026-04-24T13:02:17Z</time></trkpt><trkpt lat="44.39708957597567" lon="11.934339795872852"><ele>12.333333333333332</ele><time>2026-04-24T13:02:18Z</time></trkpt><trkpt lat="44.39699377844152" lon="11.934572919287495"><ele>13.0</ele><time>2026-04-24T13:02:19Z</time></trkpt><trkpt lat="44.39689549592406" lon="11.9348099085818"><ele>13.0</ele><time>2026-04-24T13:02:20Z</time></trkpt><trkpt lat="44.39680068697878" lon="11.935047225731457"><ele>13.0</ele><time>2026-04-24T13:02:21Z</time></trkpt><trkpt lat="44.396702705651855" lon="11.93528138877204"><ele>13.0</ele><time>2026-04-24T13:02:22Z</time></trkpt><trkpt lat="44.39660920512023" lon="11.93551409859322"><ele>13.0</ele><time>2026-04-24T13:02:23Z</time></trkpt><trkpt lat="44.39651877632598" lon="11.93573718292995"><ele>13.0</ele><time>2026-04-24T13:02:24Z</time></trkpt><trkpt lat="44.396438878769835" lon="11.935936258076183"><ele>13.0</ele><time>2026-04-24T13:02:25Z</time></trkpt><trkpt lat="44.39636410550058" lon="11.936112422654178"><ele>13.0</ele><time>2026-04-24T13:02:26Z</time></trkpt><trkpt lat="44.39629599357795" lon="11.936276723656274"><ele>13.0</ele><time>2026-04-24T13:02:27Z</time></trkpt><trkpt lat="44.3962382576395" lon="11.936438891373136"><ele>13.0</ele><time>2026-04-24T13:02:28Z</time></trkpt><trkpt lat="44.39617813818735" lon="11.936605310004257"><ele>13.0</ele><time>2026-04-24T13:02:29Z</time></trkpt><trkpt lat="44.396112880936364" lon="11.93678153320555"><ele>13.5</ele><time>2026-04-24T13:02:30Z</time></trkpt><trkpt lat="44.3960502807331" lon="11.936945389156977"><ele>14.0</ele><time>2026-04-24T13:02:31Z</time></trkpt><trkpt lat="44.39599153825998" lon="11.937098295361425"><ele>14.5</ele><time>2026-04-24T13:02:32Z</time></trkpt><trkpt lat="44.39592642204234" lon="11.937260859350646"><ele>15.0</ele><time>2026-04-24T13:02:33Z</time></trkpt><trkpt lat="44.39586103228343" lon="11.937427584863128"><ele>14.5</ele><time>2026-04-24T13:02:34Z</time></trkpt><trkpt lat="44.395798742648935" lon="11.937586238427945"><ele>14.0</ele><time>2026-04-24T13:02:35Z</time></trkpt><trkpt lat="44.395739847213726" lon="11.937740912122534"><ele>13.5</ele><time>2026-04-24T13:02:36Z</time></trkpt><trkpt lat="44.395680613319946" lon="11.93790148093318"><ele>13.0</ele><time>2026-04-24T13:02:37Z</time></trkpt><trkpt lat="44.39561910594863" lon="11.938063995554527"><ele>13.0</ele><time>2026-04-24T13:02:38Z</time></trkpt><trkpt lat="44.395554198286256" lon="11.938230898875599"><ele>13.0</ele><time>2026-04-24T13:02:39Z</time></trkpt><trkpt lat="44.39548486908392" lon="11.938397186791162"><ele>13.0</ele><time>2026-04-24T13:02:40Z</time></trkpt><trkpt lat="44.395419341308006" lon="11.938564423318855"><ele>13.0</ele><time>2026-04-24T13:02:41Z</time></trkpt><trkpt lat="44.39535469762161" lon="11.938734687720396"><ele>13.0</ele><time>2026-04-24T13:02:42Z</time></trkpt><trkpt lat="44.39528877627264" lon="11.938904804905876"><ele>13.0</ele><time>2026-04-24T13:02:43Z</time></trkpt><trkpt lat="44.39521855917954" lon="11.939073342837501"><ele>13.0</ele><time>2026-04-24T13:02:44Z</time></trkpt><trkpt lat="44.395147497651664" lon="11.939241190576938"><ele>13.0</ele><time>2026-04-24T13:02:45Z</time></trkpt><trkpt lat="44.39508137425949" lon="11.939406920184526"><ele>13.0</ele><time>2026-04-24T13:02:46Z</time></trkpt><trkpt lat="44.395014438882676" lon="11.939575220370324"><ele>13.0</ele><time>2026-04-24T13:02:47Z</time></trkpt><trkpt lat="44.39494909829247" lon="11.93973636910869"><ele>13.0</ele><time>2026-04-24T13:02:48Z</time></trkpt><trkpt lat="44.39488197968226" lon="11.93989077613983"><ele>13.0</ele><time>2026-04-24T13:02:49Z</time></trkpt><trkpt lat="44.394811487965406" lon="11.940063704959048"><ele>13.0</ele><time>2026-04-24T13:02:50Z</time></trkpt><trkpt lat="44.394741490547275" lon="11.940242616817162"><ele>13.0</ele><time>2026-04-24T13:02:51Z</time></trkpt><trkpt lat="44.39467311325994" lon="11.94041232500195"><ele>13.0</ele><time>2026-04-24T13:02:52Z</time></trkpt><trkpt lat="44.39460194738523" lon="11.940586793014173"><ele>13.0</ele><time>2026-04-24T13:02:53Z</time></trkpt><trkpt lat="44.39452764268075" lon="11.940760058149257"><ele>13.25</ele><time>2026-04-24T13:02:54Z</time></trkpt><trkpt lat="44.3944509167054" lon="11.940937403406226"><ele>13.5</ele><time>2026-04-24T13:02:55Z</time></trkpt><trkpt lat="44.394376311827926" lon="11.941112814175623"><ele>13.75</ele><time>2026-04-24T13:02:56Z</time></trkpt><trkpt lat="44.39430833650757" lon="11.941292852753653"><ele>14.0</ele><time>2026-04-24T13:02:57Z</time></trkpt><trkpt lat="44.39423592170003" lon="11.941467696669301"><ele>14.0</ele><time>2026-04-24T13:02:58Z</time></trkpt><trkpt lat="44.39416723686243" lon="11.941641553922507"><ele>14.0</ele><time>2026-04-24T13:02:59Z</time></trkpt><trkpt lat="44.39409911024012" lon="11.941813387548912"><ele>14.0</ele><time>2026-04-24T13:03:00Z</time></trkpt><trkpt lat="44.394030144728276" lon="11.94198469612131"><ele>14.0</ele><time>2026-04-24T13:03:01Z</time></trkpt><trkpt lat="44.39395914035057" lon="11.942155699576267"><ele>14.0</ele><time>2026-04-24T13:03:02Z</time></trkpt><trkpt lat="44.39388719848111" lon="11.942330208590738"><ele>14.0</ele><time>2026-04-24T13:03:03Z</time></trkpt><trkpt lat="44.393816605663496" lon="11.942505602859683"><ele>14.0</ele><time>2026-04-24T13:03:04Z</time></trkpt><trkpt lat="44.39374290785181" lon="11.942683348598417"><ele>14.0</ele><time>2026-04-24T13:03:05Z</time></trkpt><trkpt lat="44.39367046249255" lon="11.942862038885806"><ele>14.333333333333334</ele><time>2026-04-24T13:03:06Z</time></trkpt><trkpt lat="44.39359466819903" lon="11.943043790293554"><ele>14.666666666666668</ele><time>2026-04-24T13:03:07Z</time></trkpt><trkpt lat="44.393507684841516" lon="11.943219817491087"><ele>15.0</ele><time>2026-04-24T13:03:08Z</time></trkpt><trkpt lat="44.39340559550224" lon="11.943379290853997"><ele>14.666666666666668</ele><time>2026-04-24T13:03:09Z</time></trkpt><trkpt lat="44.39328866968826" lon="11.943524556031463"><ele>14.333333333333334</ele><time>2026-04-24T13:03:10Z</time></trkpt><trkpt lat="44.393157279096926" lon="11.943660750906574"><ele>14.0</ele><time>2026-04-24T13:03:11Z</time></trkpt><trkpt lat="44.393018545794824" lon="11.943796510842503"><ele>13.666666666666668</ele><time>2026-04-24T13:03:12Z</time></trkpt><trkpt lat="44.39287791999683" lon="11.943931881207012"><ele>13.333333333333332</ele><time>2026-04-24T13:03:13Z</time></trkpt><trkpt lat="44.39273116129695" lon="11.944060853819389"><ele>13.0</ele><time>2026-04-24T13:03:14Z</time></trkpt><trkpt lat="44.392584930616565" lon="11.944189017778438"><ele>13.333333333333332</ele><time>2026-04-24T13:03:15Z</time></trkpt><trkpt lat="44.39243519615207" lon="11.944309927906163"><ele>13.666666666666668</ele><time>2026-04-24T13:03:16Z</time></trkpt><trkpt lat="44.39227842896266" lon="11.944415103628566"><ele>14.0</ele><time>2026-04-24T13:03:17Z</time></trkpt><trkpt lat="44.39211861051253" lon="11.94449436231255"><ele>14.666666666666668</ele><time>2026-04-24T13:03:18Z</time></trkpt><trkpt lat="44.391961083356" lon="11.944576366922792"><ele>15.333333333333332</ele><time>2026-04-24T13:03:19Z</time></trkpt><trkpt lat="44.39180410301199" lon="11.94463489050884"><ele>16.0</ele><time>2026-04-24T13:03:20Z</time></trkpt><trkpt lat="44.39165692541858" lon="11.944677255044557"><ele>16.0</ele><time>2026-04-24T13:03:21Z</time></trkpt><trkpt lat="44.39151440772542" lon="11.944708713787"><ele>16.0</ele><time>2026-04-24T13:03:22Z</time></trkpt><trkpt lat="44.391364282256625" lon="11.944733159188848"><ele>16.0</ele><time>2026-04-24T13:03:23Z</time></trkpt><trkpt lat="44.39120944881508" lon="11.94474292947202"><ele>16.333333333333332</ele><time>2026-04-24T13:03:24Z</time></trkpt><trkpt lat="44.39105311939995" lon="11.944747120368982"><ele>16.666666666666668</ele><time>2026-04-24T13:03:25Z</time></trkpt><trkpt lat="44.39089563680191" lon="11.944741810121476"><ele>17.0</ele><time>2026-04-24T13:03:26Z</time></trkpt><trkpt lat="44.39073459947467" lon="11.944734796114334"><ele>17.0</ele><time>2026-04-24T13:03:27Z</time></trkpt><trkpt lat="44.390572757589894" lon="11.944731644297141"><ele>17.0</ele><time>2026-04-24T13:03:28Z</time></trkpt><trkpt lat="44.39041105431485" lon="11.9447284580475"><ele>17.0</ele><time>2026-04-24T13:03:29Z</time></trkpt><trkpt lat="44.39024849164459" lon="11.94472890310653"><ele>17.0</ele><time>2026-04-24T13:03:30Z</time></trkpt><trkpt lat="44.39008464366378" lon="11.944726510267387"><ele>17.0</ele><time>2026-04-24T13:03:31Z</time></trkpt><trkpt lat="44.38992334547309" lon="11.944723423971022"><ele>17.0</ele><time>2026-04-24T13:03:32Z</time></trkpt><trkpt lat="44.389761753315945" lon="11.944719855024585"><ele>16.666666666666668</ele><time>2026-04-24T13:03:33Z</time></trkpt><trkpt lat="44.3895959985476" lon="11.944722173870952"><ele>16.333333333333332</ele><time>2026-04-24T13:03:34Z</time></trkpt><trkpt lat="44.38943032845718" lon="11.944726903961131"><ele>16.0</ele><time>2026-04-24T13:03:35Z</time></trkpt><trkpt lat="44.389267803645325" lon="11.944731556699933"><ele>16.0</ele><time>2026-04-24T13:03:36Z</time></trkpt><trkpt lat="44.3891067412396" lon="11.944734370251656"><ele>16.0</ele><time>2026-04-24T13:03:37Z</time></trkpt><trkpt lat="44.38894724544002" lon="11.944739996482191"><ele>16.0</ele><time>2026-04-24T13:03:38Z</time></trkpt><trkpt lat="44.38879218301408" lon="11.944735868193458"><ele>15.75</ele><time>2026-04-24T13:03:39Z</time></trkpt><trkpt lat="44.38863963625429" lon="11.944729941314245"><ele>15.5</ele><time>2026-04-24T13:03:40Z</time></trkpt><trkpt lat="44.38849293420913" lon="11.944729477798218"><ele>15.25</ele><time>2026-04-24T13:03:41Z</time></trkpt><trkpt lat="44.388349568688945" lon="11.9447261204923"><ele>15.0</ele><time>2026-04-24T13:03:42Z</time></trkpt><trkpt lat="44.38822034857076" lon="11.944730452091168"><ele>15.0</ele><time>2026-04-24T13:03:43Z</time></trkpt><trkpt lat="44.38810802868715" lon="11.944737792619263"><ele>15.0</ele><time>2026-04-24T13:03:44Z</time></trkpt><trkpt lat="44.38801017526187" lon="11.944740956953122"><ele>15.0</ele><time>2026-04-24T13:03:45Z</time></trkpt><trkpt lat="44.387928219156066" lon="11.944740464619153"><ele>15.0</ele><time>2026-04-24T13:03:46Z</time></trkpt><trkpt lat="44.38787109809135" lon="11.944695178471193"><ele>15.0</ele><time>2026-04-24T13:03:47Z</time></trkpt><trkpt lat="44.38779867097642" lon="11.944659522210745"><ele>15.0</ele><time>2026-04-24T13:03:49Z</time></trkpt><trkpt lat="44.38775188242027" lon="11.944562532318741"><ele>15.4</ele><time>2026-04-24T13:03:51Z</time></trkpt><trkpt lat="44.387657312603295" lon="11.944489156768189"><ele>15.8</ele><time>2026-04-24T13:03:53Z</time></trkpt><trkpt lat="44.387511645592056" lon="11.94452900217056"><ele>16.2</ele><time>2026-04-24T13:03:55Z</time></trkpt><trkpt lat="44.38743514413663" lon="11.944580624363422"><ele>16.6</ele><time>2026-04-24T13:03:56Z</time></trkpt><trkpt lat="44.38734600708463" lon="11.944616898402593"><ele>17.0</ele><time>2026-04-24T13:03:57Z</time></trkpt><trkpt lat="44.3872484569399" lon="11.94462529423822"><ele>16.75</ele><time>2026-04-24T13:03:58Z</time></trkpt><trkpt lat="44.387147314836106" lon="11.944577508033309"><ele>16.5</ele><time>2026-04-24T13:03:59Z</time></trkpt><trkpt lat="44.3870278924592" lon="11.944532798531402"><ele>16.25</ele><time>2026-04-24T13:04:00Z</time></trkpt><trkpt lat="44.386891526348926" lon="11.94449145321427"><ele>16.0</ele><time>2026-04-24T13:04:01Z</time></trkpt><trkpt lat="44.38674730368478" lon="11.94444114589686"><ele>16.0</ele><time>2026-04-24T13:04:02Z</time></trkpt><trkpt lat="44.38659459543324" lon="11.944389608121012"><ele>16.0</ele><time>2026-04-24T13:04:03Z</time></trkpt><trkpt lat="44.38643907515223" lon="11.944307199256626"><ele>16.0</ele><time>2026-04-24T13:04:04Z</time></trkpt><trkpt lat="44.38628852876635" lon="11.944250664925509"><ele>16.666666666666664</ele><time>2026-04-24T13:04:05Z</time></trkpt><trkpt lat="44.38613229619222" lon="11.94419297555347"><ele>17.333333333333332</ele><time>2026-04-24T13:04:06Z</time></trkpt><trkpt lat="44.385958926832146" lon="11.944166550242052"><ele>18.0</ele><time>2026-04-24T13:04:07Z</time></trkpt><trkpt lat="44.38578808953661" lon="11.944093762341442"><ele>18.0</ele><time>2026-04-24T13:04:08Z</time></trkpt><trkpt lat="44.385464750086776" lon="11.943956536553165"><ele>18.0</ele><time>2026-04-24T13:04:10Z</time></trkpt><trkpt lat="44.385300267512086" lon="11.943885957843035"><ele>18.0</ele><time>2026-04-24T13:04:11Z</time></trkpt><trkpt lat="44.38513723789805" lon="11.943819283106352"><ele>18.0</ele><time>2026-04-24T13:04:12Z</time></trkpt><trkpt lat="44.38497806682461" lon="11.943756698199095"><ele>18.0</ele><time>2026-04-24T13:04:13Z</time></trkpt><trkpt lat="44.38482196551977" lon="11.94369504628056"><ele>17.0</ele><time>2026-04-24T13:04:14Z</time></trkpt><trkpt lat="44.384663901155584" lon="11.943631486102994"><ele>16.0</ele><time>2026-04-24T13:04:15Z</time></trkpt><trkpt lat="44.3845111171622" lon="11.943557792583762"><ele>15.0</ele><time>2026-04-24T13:04:16Z</time></trkpt><trkpt lat="44.38439050876262" lon="11.943439227641274"><ele>16.0</ele><time>2026-04-24T13:04:17Z</time></trkpt><trkpt lat="44.38427138654753" lon="11.943310739803428"><ele>17.0</ele><time>2026-04-24T13:04:18Z</time></trkpt><trkpt lat="44.3841522438948" lon="11.943160730794057"><ele>18.0</ele><time>2026-04-24T13:04:19Z</time></trkpt><trkpt lat="44.384034630021375" lon="11.94300433392025"><ele>18.0</ele><time>2026-04-24T13:04:20Z</time></trkpt><trkpt lat="44.383915267526085" lon="11.942845967649449"><ele>18.0</ele><time>2026-04-24T13:04:21Z</time></trkpt><trkpt lat="44.383793849898126" lon="11.942697628188746"><ele>18.0</ele><time>2026-04-24T13:04:22Z</time></trkpt><trkpt lat="44.383674712213704" lon="11.942558585144177"><ele>18.0</ele><time>2026-04-24T13:04:23Z</time></trkpt><trkpt lat="44.38355785420819" lon="11.942426598574311"><ele>18.0</ele><time>2026-04-24T13:04:24Z</time></trkpt><trkpt lat="44.38342744746526" lon="11.942326874602427"><ele>18.0</ele><time>2026-04-24T13:04:25Z</time></trkpt><trkpt lat="44.38330838687084" lon="11.94222612965541"><ele>18.0</ele><time>2026-04-24T13:04:26Z</time></trkpt><trkpt lat="44.38320369260684" lon="11.942141147646115"><ele>18.0</ele><time>2026-04-24T13:04:27Z</time></trkpt><trkpt lat="44.38311216507321" lon="11.942072405380255"><ele>18.0</ele><time>2026-04-24T13:04:28Z</time></trkpt><trkpt lat="44.38303939506018" lon="11.942023720679192"><ele>18.0</ele><time>2026-04-24T13:04:29Z</time></trkpt><trkpt lat="44.38297841037358" lon="11.941985388297253"><ele>18.0</ele><time>2026-04-24T13:04:30Z</time></trkpt><trkpt lat="44.38292525972456" lon="11.941936964204022"><ele>18.0</ele><time>2026-04-24T13:04:32Z</time></trkpt><trkpt lat="44.38287844106495" lon="11.942117450087009"><ele>18.0</ele><time>2026-04-24T13:04:33Z</time></trkpt><trkpt lat="44.38283879018252" lon="11.942244666507941"><ele>18.0</ele><time>2026-04-24T13:04:34Z</time></trkpt><trkpt lat="44.38279599991616" lon="11.942379930735052"><ele>18.0</ele><time>2026-04-24T13:04:35Z</time></trkpt><trkpt lat="44.38275278188955" lon="11.942482257015989"><ele>18.0</ele><time>2026-04-24T13:04:36Z</time></trkpt><trkpt lat="44.382734277504476" lon="11.94263264659381"><ele>18.0</ele><time>2026-04-24T13:04:38Z</time></trkpt><trkpt lat="44.382803426294444" lon="11.942720705900216"><ele>17.75</ele><time>2026-04-24T13:04:39Z</time></trkpt><trkpt lat="44.38287990285515" lon="11.942784165211656"><ele>17.5</ele><time>2026-04-24T13:04:40Z</time></trkpt><trkpt lat="44.38297999384343" lon="11.942842932507448"><ele>17.25</ele><time>2026-04-24T13:04:41Z</time></trkpt><trkpt lat="44.383093273770506" lon="11.94290957541323"><ele>17.0</ele><time>2026-04-24T13:04:42Z</time></trkpt><trkpt lat="44.38322111148273" lon="11.943007256213404"><ele>17.0</ele><time>2026-04-24T13:04:43Z</time></trkpt><trkpt lat="44.38334328239971" lon="11.943129751672712"><ele>17.0</ele><time>2026-04-24T13:04:44Z</time></trkpt><trkpt lat="44.38345971748716" lon="11.943278214316711"><ele>17.0</ele><time>2026-04-24T13:04:45Z</time></trkpt><trkpt lat="44.38357606486538" lon="11.94345284249577"><ele>16.666666666666668</ele><time>2026-04-24T13:04:46Z</time></trkpt><trkpt lat="44.38368747597186" lon="11.943638561505923"><ele>16.333333333333332</ele><time>2026-04-24T13:04:47Z</time></trkpt><trkpt lat="44.38379574000935" lon="11.943821443007256"><ele>16.0</ele><time>2026-04-24T13:04:48Z</time></trkpt><trkpt lat="44.383894997647" lon="11.943992114935265"><ele>15.75</ele><time>2026-04-24T13:04:49Z</time></trkpt><trkpt lat="44.38398701770723" lon="11.94414975158594"><ele>15.5</ele><time>2026-04-24T13:04:50Z</time></trkpt><trkpt lat="44.384076353935576" lon="11.944296989846748"><ele>15.25</ele><time>2026-04-24T13:04:51Z</time></trkpt><trkpt lat="44.38416661000247" lon="11.944451164651305"><ele>15.0</ele><time>2026-04-24T13:04:52Z</time></trkpt><trkpt lat="44.38425905868158" lon="11.944612720308628"><ele>15.0</ele><time>2026-04-24T13:04:53Z</time></trkpt><trkpt lat="44.38435128633976" lon="11.944780524070326"><ele>15.0</ele><time>2026-04-24T13:04:54Z</time></trkpt><trkpt lat="44.384445981528124" lon="11.944943794062933"><ele>15.0</ele><time>2026-04-24T13:04:55Z</time></trkpt><trkpt lat="44.384541014493216" lon="11.945105396853885"><ele>15.25</ele><time>2026-04-24T13:04:56Z</time></trkpt><trkpt lat="44.38462980128276" lon="11.945263746439641"><ele>15.5</ele><time>2026-04-24T13:04:57Z</time></trkpt><trkpt lat="44.38470099186191" lon="11.945418203804453"><ele>15.75</ele><time>2026-04-24T13:04:58Z</time></trkpt><trkpt lat="44.38474074603395" lon="11.945579512150916"><ele>16.0</ele><time>2026-04-24T13:04:59Z</time></trkpt><trkpt lat="44.38472555375507" lon="11.94575454207858"><ele>15.75</ele><time>2026-04-24T13:05:00Z</time></trkpt><trkpt lat="44.38470325628508" lon="11.945933538476243"><ele>15.5</ele><time>2026-04-24T13:05:01Z</time></trkpt><trkpt lat="44.384621408109545" lon="11.94610049452246"><ele>15.25</ele><time>2026-04-24T13:05:02Z</time></trkpt><trkpt lat="44.384556865765724" lon="11.946304813794855"><ele>15.0</ele><time>2026-04-24T13:05:03Z</time></trkpt><trkpt lat="44.384489482096974" lon="11.94651844704847"><ele>15.0</ele><time>2026-04-24T13:05:04Z</time></trkpt><trkpt lat="44.384418594958944" lon="11.946743063505917"><ele>15.0</ele><time>2026-04-24T13:05:05Z</time></trkpt><trkpt lat="44.38435014849524" lon="11.946985565371515"><ele>15.0</ele><time>2026-04-24T13:05:06Z</time></trkpt><trkpt lat="44.38430404769978" lon="11.94724296123584"><ele>15.0</ele><time>2026-04-24T13:05:07Z</time></trkpt><trkpt lat="44.384245253402995" lon="11.9474853148584"><ele>15.0</ele><time>2026-04-24T13:05:08Z</time></trkpt><trkpt lat="44.384204881451346" lon="11.947707982698823"><ele>15.0</ele><time>2026-04-24T13:05:09Z</time></trkpt><trkpt lat="44.38416861623723" lon="11.94791674586174"><ele>15.0</ele><time>2026-04-24T13:05:10Z</time></trkpt><trkpt lat="44.384141691271914" lon="11.948118188694977"><ele>15.0</ele><time>2026-04-24T13:05:11Z</time></trkpt><trkpt lat="44.38411637145469" lon="11.948307534280591"><ele>15.0</ele><time>2026-04-24T13:05:12Z</time></trkpt><trkpt lat="44.38408446218191" lon="11.948492514152933"><ele>15.0</ele><time>2026-04-24T13:05:13Z</time></trkpt><trkpt lat="44.38404333147485" lon="11.948682900686675"><ele>15.0</ele><time>2026-04-24T13:05:14Z</time></trkpt><trkpt lat="44.38399563951846" lon="11.948873771038704"><ele>15.0</ele><time>2026-04-24T13:05:15Z</time></trkpt><trkpt lat="44.38393503135097" lon="11.949069178098084"><ele>15.0</ele><time>2026-04-24T13:05:16Z</time></trkpt><trkpt lat="44.38386122078864" lon="11.949276073575911"><ele>14.666666666666668</ele><time>2026-04-24T13:05:17Z</time></trkpt><trkpt lat="44.383783449805605" lon="11.949483814991005"><ele>14.333333333333334</ele><time>2026-04-24T13:05:18Z</time></trkpt><trkpt lat="44.38370140285535" lon="11.94969391601674"><ele>14.0</ele><time>2026-04-24T13:05:19Z</time></trkpt><trkpt lat="44.38361927216903" lon="11.94990464551849"><ele>13.666666666666668</ele><time>2026-04-24T13:05:20Z</time></trkpt><trkpt lat="44.38353280143739" lon="11.95011749990104"><ele>13.333333333333332</ele><time>2026-04-24T13:05:21Z</time></trkpt><trkpt lat="44.38344843022374" lon="11.950327273380452"><ele>13.0</ele><time>2026-04-24T13:05:22Z</time></trkpt><trkpt lat="44.38336616908399" lon="11.950533885437622"><ele>13.0</ele><time>2026-04-24T13:05:23Z</time></trkpt><trkpt lat="44.38329479221211" lon="11.950720397665588"><ele>13.0</ele><time>2026-04-24T13:05:24Z</time></trkpt><trkpt lat="44.38322855493874" lon="11.950883166912712"><ele>13.0</ele><time>2026-04-24T13:05:25Z</time></trkpt><trkpt lat="44.3831644560222" lon="11.951023954999913"><ele>13.0</ele><time>2026-04-24T13:05:26Z</time></trkpt><trkpt lat="44.38309519161012" lon="11.951139765304427"><ele>13.0</ele><time>2026-04-24T13:05:27Z</time></trkpt><trkpt lat="44.38300255743551" lon="11.951210551770496"><ele>13.0</ele><time>2026-04-24T13:05:28Z</time></trkpt><trkpt lat="44.382921066870004" lon="11.951314415758953"><ele>13.0</ele><time>2026-04-24T13:05:29Z</time></trkpt><trkpt lat="44.38282415188085" lon="11.951402794957815"><ele>13.0</ele><time>2026-04-24T13:05:30Z</time></trkpt><trkpt lat="44.38274301217455" lon="11.95152436864941"><ele>13.0</ele><time>2026-04-24T13:05:31Z</time></trkpt><trkpt lat="44.38267861149196" lon="11.951681204284924"><ele>13.0</ele><time>2026-04-24T13:05:32Z</time></trkpt><trkpt lat="44.382643346940256" lon="11.951861797035436"><ele>13.0</ele><time>2026-04-24T13:05:33Z</time></trkpt><trkpt lat="44.382670070753655" lon="11.95206968166538"><ele>13.0</ele><time>2026-04-24T13:05:34Z</time></trkpt><trkpt lat="44.38264706728925" lon="11.95228317571453"><ele>12.666666666666666</ele><time>2026-04-24T13:05:35Z</time></trkpt><trkpt lat="44.382594730909005" lon="11.95249191535554"><ele>12.333333333333332</ele><time>2026-04-24T13:05:36Z</time></trkpt><trkpt lat="44.382551214073324" lon="11.952706361058944"><ele>12.0</ele><time>2026-04-24T13:05:37Z</time></trkpt><trkpt lat="44.38245323175413" lon="11.952895532783723"><ele>12.0</ele><time>2026-04-24T13:05:38Z</time></trkpt><trkpt lat="44.38236351031867" lon="11.953097482849698"><ele>12.0</ele><time>2026-04-24T13:05:39Z</time></trkpt><trkpt lat="44.38227057749497" lon="11.95330454847115"><ele>12.0</ele><time>2026-04-24T13:05:40Z</time></trkpt><trkpt lat="44.38217620341025" lon="11.953520064192414"><ele>12.333333333333332</ele><time>2026-04-24T13:05:41Z</time></trkpt><trkpt lat="44.382080758433744" lon="11.953744979408961"><ele>12.666666666666666</ele><time>2026-04-24T13:05:42Z</time></trkpt><trkpt lat="44.38197918228296" lon="11.953976166918844"><ele>13.0</ele><time>2026-04-24T13:05:43Z</time></trkpt><trkpt lat="44.38187122246289" lon="11.954212972862404"><ele>13.0</ele><time>2026-04-24T13:05:44Z</time></trkpt><trkpt lat="44.38176298050674" lon="11.954448929721615"><ele>13.0</ele><time>2026-04-24T13:05:45Z</time></trkpt><trkpt lat="44.38165726912298" lon="11.954677711974234"><ele>13.0</ele><time>2026-04-24T13:05:46Z</time></trkpt><trkpt lat="44.38154683743259" lon="11.954911249642182"><ele>12.666666666666666</ele><time>2026-04-24T13:05:47Z</time></trkpt><trkpt lat="44.38143778925914" lon="11.955149025158144"><ele>12.333333333333332</ele><time>2026-04-24T13:05:48Z</time></trkpt><trkpt lat="44.38133155769556" lon="11.955391705543049"><ele>12.0</ele><time>2026-04-24T13:05:49Z</time></trkpt><trkpt lat="44.38122451217713" lon="11.955637736728823"><ele>11.333333333333334</ele><time>2026-04-24T13:05:50Z</time></trkpt><trkpt lat="44.38111371064519" lon="11.955881454830648"><ele>10.666666666666668</ele><time>2026-04-24T13:05:51Z</time></trkpt><trkpt lat="44.38100222301602" lon="11.956123409837776"><ele>10.0</ele><time>2026-04-24T13:05:52Z</time></trkpt><trkpt lat="44.38089270666224" lon="11.956367502352727"><ele>10.0</ele><time>2026-04-24T13:05:53Z</time></trkpt><trkpt lat="44.38077943286677" lon="11.956614304703153"><ele>10.0</ele><time>2026-04-24T13:05:54Z</time></trkpt><trkpt lat="44.38066775058519" lon="11.956865604657414"><ele>10.0</ele><time>2026-04-24T13:05:55Z</time></trkpt><trkpt lat="44.38055801196145" lon="11.957117242778782"><ele>11.0</ele><time>2026-04-24T13:05:56Z</time></trkpt><trkpt lat="44.380452703160344" lon="11.957371200302413"><ele>12.0</ele><time>2026-04-24T13:05:57Z</time></trkpt><trkpt lat="44.38035138266351" lon="11.957629474672133"><ele>13.0</ele><time>2026-04-24T13:05:58Z</time></trkpt><trkpt lat="44.380255582077766" lon="11.95788583719923"><ele>13.0</ele><time>2026-04-24T13:05:59Z</time></trkpt><trkpt lat="44.38016204404478" lon="11.958141247632991"><ele>13.0</ele><time>2026-04-24T13:06:00Z</time></trkpt><trkpt lat="44.38007441288988" lon="11.958384221221367"><ele>13.0</ele><time>2026-04-24T13:06:01Z</time></trkpt><trkpt lat="44.379990220465665" lon="11.958616969479774"><ele>12.666666666666666</ele><time>2026-04-24T13:06:02Z</time></trkpt><trkpt lat="44.379903021092964" lon="11.958858297013121"><ele>12.333333333333332</ele><time>2026-04-24T13:06:03Z</time></trkpt><trkpt lat="44.37981477829536" lon="11.959102140250167"><ele>12.0</ele><time>2026-04-24T13:06:04Z</time></trkpt><trkpt lat="44.37972461756979" lon="11.959342647741137"><ele>12.0</ele><time>2026-04-24T13:06:05Z</time></trkpt><trkpt lat="44.379630303352464" lon="11.959575032526441"><ele>12.0</ele><time>2026-04-24T13:06:06Z</time></trkpt><trkpt lat="44.37953545268979" lon="11.959803408731437"><ele>12.0</ele><time>2026-04-24T13:06:07Z</time></trkpt><trkpt lat="44.379443735622516" lon="11.960037278247091"><ele>11.666666666666666</ele><time>2026-04-24T13:06:08Z</time></trkpt><trkpt lat="44.379356635425516" lon="11.960271402085231"><ele>11.333333333333332</ele><time>2026-04-24T13:06:09Z</time></trkpt><trkpt lat="44.379269300994274" lon="11.960499906404861"><ele>11.0</ele><time>2026-04-24T13:06:10Z</time></trkpt><trkpt lat="44.379182101533225" lon="11.960736912288036"><ele>11.0</ele><time>2026-04-24T13:06:11Z</time></trkpt><trkpt lat="44.37909624244336" lon="11.960977994731547"><ele>11.0</ele><time>2026-04-24T13:06:12Z</time></trkpt><trkpt lat="44.37900464787947" lon="11.961218722591248"><ele>11.0</ele><time>2026-04-24T13:06:13Z</time></trkpt><trkpt lat="44.37890946702532" lon="11.961458154767547"><ele>11.0</ele><time>2026-04-24T13:06:14Z</time></trkpt><trkpt lat="44.378811351525364" lon="11.96169809858358"><ele>11.0</ele><time>2026-04-24T13:06:15Z</time></trkpt><trkpt lat="44.37871371914118" lon="11.961939599816066"><ele>11.0</ele><time>2026-04-24T13:06:16Z</time></trkpt><trkpt lat="44.37862317799458" lon="11.96218395623063"><ele>11.0</ele><time>2026-04-24T13:06:17Z</time></trkpt><trkpt lat="44.378531583620614" lon="11.962427180635368"><ele>11.0</ele><time>2026-04-24T13:06:18Z</time></trkpt><trkpt lat="44.37844318194669" lon="11.962652207827468"><ele>11.0</ele><time>2026-04-24T13:06:19Z</time></trkpt><trkpt lat="44.37835626503128" lon="11.962876181434531"><ele>11.0</ele><time>2026-04-24T13:06:20Z</time></trkpt><trkpt lat="44.37827165894809" lon="11.963089730665306"><ele>11.0</ele><time>2026-04-24T13:06:21Z</time></trkpt><trkpt lat="44.37818978420108" lon="11.963295633311034"><ele>11.0</ele><time>2026-04-24T13:06:22Z</time></trkpt><trkpt lat="44.37811484818389" lon="11.963493604587848"><ele>11.0</ele><time>2026-04-24T13:06:23Z</time></trkpt><trkpt lat="44.37804231676706" lon="11.963680334312588"><ele>11.0</ele><time>2026-04-24T13:06:24Z</time></trkpt><trkpt lat="44.37795768149044" lon="11.96386229104165"><ele>11.0</ele><time>2026-04-24T13:06:25Z</time></trkpt><trkpt lat="44.37786893844285" lon="11.964051556733377"><ele>10.666666666666666</ele><time>2026-04-24T13:06:26Z</time></trkpt><trkpt lat="44.37778301004608" lon="11.964240866318702"><ele>10.333333333333334</ele><time>2026-04-24T13:06:27Z</time></trkpt><trkpt lat="44.37769737716057" lon="11.964444984682526"><ele>10.0</ele><time>2026-04-24T13:06:28Z</time></trkpt><trkpt lat="44.37759214484544" lon="11.964654931384654"><ele>10.0</ele><time>2026-04-24T13:06:29Z</time></trkpt><trkpt lat="44.37748549286269" lon="11.964885725396378"><ele>10.0</ele><time>2026-04-24T13:06:30Z</time></trkpt><trkpt lat="44.37737435520024" lon="11.96512862212865"><ele>10.0</ele><time>2026-04-24T13:06:31Z</time></trkpt><trkpt lat="44.37726123913153" lon="11.965375842813252"><ele>10.666666666666668</ele><time>2026-04-24T13:06:32Z</time></trkpt><trkpt lat="44.377159166060714" lon="11.965631785689272"><ele>11.333333333333334</ele><time>2026-04-24T13:06:33Z</time></trkpt><trkpt lat="44.37704059241005" lon="11.965869586379187"><ele>12.0</ele><time>2026-04-24T13:06:34Z</time></trkpt><trkpt lat="44.37692652541644" lon="11.966100197144499"><ele>12.0</ele><time>2026-04-24T13:06:35Z</time></trkpt><trkpt lat="44.37682246540645" lon="11.966317414017754"><ele>12.0</ele><time>2026-04-24T13:06:36Z</time></trkpt><trkpt lat="44.37672886776284" lon="11.966521860708777"><ele>12.0</ele><time>2026-04-24T13:06:37Z</time></trkpt><trkpt lat="44.3766408001" lon="11.966721786985733"><ele>12.0</ele><time>2026-04-24T13:06:38Z</time></trkpt><trkpt lat="44.37655530948123" lon="11.96691579404326"><ele>12.0</ele><time>2026-04-24T13:06:39Z</time></trkpt><trkpt lat="44.376468753236125" lon="11.967107220366008"><ele>12.0</ele><time>2026-04-24T13:06:40Z</time></trkpt><trkpt lat="44.37638288844862" lon="11.967309578490134"><ele>12.0</ele><time>2026-04-24T13:06:41Z</time></trkpt><trkpt lat="44.376287501271605" lon="11.96751248805779"><ele>12.0</ele><time>2026-04-24T13:06:42Z</time></trkpt><trkpt lat="44.37615329112778" lon="11.967697177468498"><ele>12.0</ele><time>2026-04-24T13:06:43Z</time></trkpt><trkpt lat="44.37601326132615" lon="11.96790399056465"><ele>12.0</ele><time>2026-04-24T13:06:44Z</time></trkpt><trkpt lat="44.37586400058391" lon="11.96812192069051"><ele>12.0</ele><time>2026-04-24T13:06:45Z</time></trkpt><trkpt lat="44.37571135960539" lon="11.968345329310658"><ele>12.0</ele><time>2026-04-24T13:06:46Z</time></trkpt><trkpt lat="44.37555756215107" lon="11.968566369961895"><ele>12.0</ele><time>2026-04-24T13:06:47Z</time></trkpt><trkpt lat="44.375413677147826" lon="11.968800638352366"><ele>12.0</ele><time>2026-04-24T13:06:48Z</time></trkpt><trkpt lat="44.37525589176338" lon="11.969007606303812"><ele>12.0</ele><time>2026-04-24T13:06:49Z</time></trkpt><trkpt lat="44.37510393659643" lon="11.969216449049991"><ele>12.0</ele><time>2026-04-24T13:06:50Z</time></trkpt><trkpt lat="44.37495764946007" lon="11.96942661908502"><ele>12.0</ele><time>2026-04-24T13:06:51Z</time></trkpt><trkpt lat="44.374812850015225" lon="11.969634077418947"><ele>12.0</ele><time>2026-04-24T13:06:52Z</time></trkpt><trkpt lat="44.37467110269171" lon="11.969839977231654"><ele>11.666666666666666</ele><time>2026-04-24T13:06:53Z</time></trkpt><trkpt lat="44.3745298487301" lon="11.970043773112474"><ele>11.333333333333332</ele><time>2026-04-24T13:06:54Z</time></trkpt><trkpt lat="44.37439127987126" lon="11.97024710593021"><ele>11.0</ele><time>2026-04-24T13:06:55Z</time></trkpt><trkpt lat="44.37425104704934" lon="11.970448473770679"><ele>11.0</ele><time>2026-04-24T13:06:56Z</time></trkpt><trkpt lat="44.37410894437769" lon="11.970651265457919"><ele>11.0</ele><time>2026-04-24T13:06:57Z</time></trkpt><trkpt lat="44.37396384325357" lon="11.970859768802642"><ele>11.0</ele><time>2026-04-24T13:06:58Z</time></trkpt><trkpt lat="44.37381559543053" lon="11.97107228472042"><ele>11.0</ele><time>2026-04-24T13:06:59Z</time></trkpt><trkpt lat="44.37366342682662" lon="11.971289144657222"><ele>11.0</ele><time>2026-04-24T13:07:00Z</time></trkpt><trkpt lat="44.37351261250134" lon="11.971514614411722"><ele>11.0</ele><time>2026-04-24T13:07:01Z</time></trkpt><trkpt lat="44.37335938130081" lon="11.971742025326142"><ele>11.0</ele><time>2026-04-24T13:07:02Z</time></trkpt><trkpt lat="44.37320737884381" lon="11.971967707084872"><ele>11.0</ele><time>2026-04-24T13:07:03Z</time></trkpt><trkpt lat="44.37305921461631" lon="11.972198235228957"><ele>11.0</ele><time>2026-04-24T13:07:04Z</time></trkpt><trkpt lat="44.372915969914615" lon="11.972423416915762"><ele>11.333333333333332</ele><time>2026-04-24T13:07:05Z</time></trkpt><trkpt lat="44.372779655182875" lon="11.972661584173487"><ele>11.666666666666666</ele><time>2026-04-24T13:07:06Z</time></trkpt><trkpt lat="44.37265390819031" lon="11.972906341353754"><ele>12.0</ele><time>2026-04-24T13:07:07Z</time></trkpt><trkpt lat="44.37253320745604" lon="11.973156275317113"><ele>12.0</ele><time>2026-04-24T13:07:08Z</time></trkpt><trkpt lat="44.372418960897924" lon="11.97341178519612"><ele>12.0</ele><time>2026-04-24T13:07:09Z</time></trkpt><trkpt lat="44.372304134409084" lon="11.973669626877605"><ele>12.0</ele><time>2026-04-24T13:07:10Z</time></trkpt><trkpt lat="44.37219191840753" lon="11.973928858205158"><ele>12.333333333333332</ele><time>2026-04-24T13:07:11Z</time></trkpt><trkpt lat="44.37208497517503" lon="11.974185620747452"><ele>12.666666666666666</ele><time>2026-04-24T13:07:12Z</time></trkpt><trkpt lat="44.371984334976865" lon="11.974425508728915"><ele>13.0</ele><time>2026-04-24T13:07:13Z</time></trkpt><trkpt lat="44.37188648424169" lon="11.974660793003533"><ele>13.0</ele><time>2026-04-24T13:07:14Z</time></trkpt><trkpt lat="44.37179046422439" lon="11.974886054767335"><ele>13.0</ele><time>2026-04-24T13:07:15Z</time></trkpt><trkpt lat="44.37169585337563" lon="11.975106860727651"><ele>13.0</ele><time>2026-04-24T13:07:16Z</time></trkpt><trkpt lat="44.371606684653685" lon="11.975330725645213"><ele>12.666666666666666</ele><time>2026-04-24T13:07:17Z</time></trkpt><trkpt lat="44.371516655857924" lon="11.975552355051546"><ele>12.333333333333332</ele><time>2026-04-24T13:07:18Z</time></trkpt><trkpt lat="44.37142521730531" lon="11.97577656883509"><ele>12.0</ele><time>2026-04-24T13:07:19Z</time></trkpt><trkpt lat="44.371336168685076" lon="11.976000631666519"><ele>12.666666666666668</ele><time>2026-04-24T13:07:20Z</time></trkpt><trkpt lat="44.37125456675287" lon="11.976228600574265"><ele>13.333333333333334</ele><time>2026-04-24T13:07:21Z</time></trkpt><trkpt lat="44.37119117734348" lon="11.97646516047848"><ele>14.0</ele><time>2026-04-24T13:07:22Z</time></trkpt><trkpt lat="44.37114329440166" lon="11.976713636625563"><ele>14.666666666666668</ele><time>2026-04-24T13:07:23Z</time></trkpt><trkpt lat="44.371105199958855" lon="11.976967484195903"><ele>15.333333333333332</ele><time>2026-04-24T13:07:24Z</time></trkpt><trkpt lat="44.37107117317415" lon="11.977222369050926"><ele>16.0</ele><time>2026-04-24T13:07:25Z</time></trkpt><trkpt lat="44.37103775746894" lon="11.977476446462878"><ele>16.0</ele><time>2026-04-24T13:07:26Z</time></trkpt><trkpt lat="44.371008600636124" lon="11.977731459367392"><ele>16.0</ele><time>2026-04-24T13:07:27Z</time></trkpt><trkpt lat="44.37098039077098" lon="11.977983745407844"><ele>16.0</ele><time>2026-04-24T13:07:28Z</time></trkpt><trkpt lat="44.370948744854914" lon="11.97823301105052"><ele>16.0</ele><time>2026-04-24T13:07:29Z</time></trkpt><trkpt lat="44.37091612228966" lon="11.97847980000305"><ele>16.0</ele><time>2026-04-24T13:07:30Z</time></trkpt><trkpt lat="44.37088061761696" lon="11.978730024001655"><ele>16.0</ele><time>2026-04-24T13:07:31Z</time></trkpt><trkpt lat="44.37084907606924" lon="11.978983182054916"><ele>15.333333333333332</ele><time>2026-04-24T13:07:32Z</time></trkpt><trkpt lat="44.37081094567364" lon="11.97924270977373"><ele>14.666666666666668</ele><time>2026-04-24T13:07:33Z</time></trkpt><trkpt lat="44.37076758219751" lon="11.9795027471238"><ele>14.0</ele><time>2026-04-24T13:07:34Z</time></trkpt><trkpt lat="44.37072026831503" lon="11.979764916430753"><ele>14.0</ele><time>2026-04-24T13:07:35Z</time></trkpt><trkpt lat="44.370660642162164" lon="11.980021212588614"><ele>14.0</ele><time>2026-04-24T13:07:36Z</time></trkpt><trkpt lat="44.370587619638364" lon="11.980274188391487"><ele>14.0</ele><time>2026-04-24T13:07:37Z</time></trkpt><trkpt lat="44.3705051224643" lon="11.980523257306062"><ele>14.0</ele><time>2026-04-24T13:07:38Z</time></trkpt><trkpt lat="44.3704142832629" lon="11.980772945808171"><ele>14.0</ele><time>2026-04-24T13:07:39Z</time></trkpt><trkpt lat="44.37031881703574" lon="11.9810181866644"><ele>14.0</ele><time>2026-04-24T13:07:40Z</time></trkpt><trkpt lat="44.370217258154696" lon="11.981265029595466"><ele>14.0</ele><time>2026-04-24T13:07:41Z</time></trkpt><trkpt lat="44.37011770238975" lon="11.981515849206428"><ele>14.0</ele><time>2026-04-24T13:07:42Z</time></trkpt><trkpt lat="44.370018661490825" lon="11.981770919787929"><ele>14.0</ele><time>2026-04-24T13:07:43Z</time></trkpt><trkpt lat="44.36992198015277" lon="11.982031482024544"><ele>13.666666666666668</ele><time>2026-04-24T13:07:44Z</time></trkpt><trkpt lat="44.36982117312755" lon="11.982292666948348"><ele>13.333333333333332</ele><time>2026-04-24T13:07:45Z</time></trkpt><trkpt lat="44.3697209687273" lon="11.98255793920212"><ele>13.0</ele><time>2026-04-24T13:07:46Z</time></trkpt><trkpt lat="44.36961937630896" lon="11.98282289026957"><ele>13.0</ele><time>2026-04-24T13:07:47Z</time></trkpt><trkpt lat="44.369520463389776" lon="11.983093728305768"><ele>13.0</ele><time>2026-04-24T13:07:48Z</time></trkpt><trkpt lat="44.36941887058092" lon="11.983360524543032"><ele>13.0</ele><time>2026-04-24T13:07:49Z</time></trkpt><trkpt lat="44.36931783575684" lon="11.983629496126897"><ele>13.0</ele><time>2026-04-24T13:07:50Z</time></trkpt><trkpt lat="44.36921522744885" lon="11.983897455480491"><ele>13.0</ele><time>2026-04-24T13:07:51Z</time></trkpt><trkpt lat="44.36911257981947" lon="11.984165697848761"><ele>13.0</ele><time>2026-04-24T13:07:52Z</time></trkpt><trkpt lat="44.36901238314347" lon="11.984429298263963"><ele>13.0</ele><time>2026-04-24T13:07:53Z</time></trkpt><trkpt lat="44.36890815444511" lon="11.984696590196483"><ele>13.0</ele><time>2026-04-24T13:07:54Z</time></trkpt><trkpt lat="44.368799722770866" lon="11.984961307713602"><ele>13.0</ele><time>2026-04-24T13:07:55Z</time></trkpt><trkpt lat="44.36869703174781" lon="11.985228143077203"><ele>13.0</ele><time>2026-04-24T13:07:56Z</time></trkpt><trkpt lat="44.368596459357576" lon="11.985496798902457"><ele>13.0</ele><time>2026-04-24T13:07:57Z</time></trkpt><trkpt lat="44.36849541593361" lon="11.985763816290431"><ele>13.0</ele><time>2026-04-24T13:07:58Z</time></trkpt><trkpt lat="44.36839475836183" lon="11.98602992836286"><ele>13.0</ele><time>2026-04-24T13:07:59Z</time></trkpt><trkpt lat="44.36829536961896" lon="11.986295526291578"><ele>13.0</ele><time>2026-04-24T13:08:00Z</time></trkpt><trkpt lat="44.36819662837995" lon="11.986559302349429"><ele>13.0</ele><time>2026-04-24T13:08:01Z</time></trkpt><trkpt lat="44.36809939830016" lon="11.986824827585467"><ele>12.333333333333332</ele><time>2026-04-24T13:08:02Z</time></trkpt><trkpt lat="44.36800006961791" lon="11.987093288561155"><ele>11.666666666666666</ele><time>2026-04-24T13:08:03Z</time></trkpt><trkpt lat="44.36789909752618" lon="11.987359099614393"><ele>11.0</ele><time>2026-04-24T13:08:04Z</time></trkpt><trkpt lat="44.3677962011357" lon="11.987626746341533"><ele>11.0</ele><time>2026-04-24T13:08:05Z</time></trkpt><trkpt lat="44.36769782586304" lon="11.987892029776809"><ele>11.0</ele><time>2026-04-24T13:08:06Z</time></trkpt><trkpt lat="44.367598688787034" lon="11.98815931999881"><ele>11.0</ele><time>2026-04-24T13:08:07Z</time></trkpt><trkpt lat="44.36749849974803" lon="11.988427058730696"><ele>11.0</ele><time>2026-04-24T13:08:08Z</time></trkpt><trkpt lat="44.36739762460755" lon="11.988694695910205"><ele>11.0</ele><time>2026-04-24T13:08:09Z</time></trkpt><trkpt lat="44.36729597788793" lon="11.988957045735818"><ele>11.0</ele><time>2026-04-24T13:08:10Z</time></trkpt><trkpt lat="44.367191096439335" lon="11.989222972027653"><ele>11.0</ele><time>2026-04-24T13:08:11Z</time></trkpt><trkpt lat="44.3670893882027" lon="11.989491248676936"><ele>11.0</ele><time>2026-04-24T13:08:12Z</time></trkpt><trkpt lat="44.36698657773081" lon="11.989757366047824"><ele>11.0</ele><time>2026-04-24T13:08:13Z</time></trkpt><trkpt lat="44.36687846619627" lon="11.990022453876946"><ele>11.0</ele><time>2026-04-24T13:08:14Z</time></trkpt><trkpt lat="44.36676755369536" lon="11.990280069417222"><ele>11.0</ele><time>2026-04-24T13:08:15Z</time></trkpt><trkpt lat="44.366654629263856" lon="11.990537587699064"><ele>11.0</ele><time>2026-04-24T13:08:16Z</time></trkpt><trkpt lat="44.366535364330744" lon="11.990790285939282"><ele>11.333333333333332</ele><time>2026-04-24T13:08:17Z</time></trkpt><trkpt lat="44.36641342519538" lon="11.991038653569465"><ele>11.666666666666666</ele><time>2026-04-24T13:08:18Z</time></trkpt><trkpt lat="44.36628686361961" lon="11.991283817108826"><ele>12.0</ele><time>2026-04-24T13:08:19Z</time></trkpt><trkpt lat="44.36616692680269" lon="11.991531955755624"><ele>11.666666666666666</ele><time>2026-04-24T13:08:20Z</time></trkpt><trkpt lat="44.36604147692064" lon="11.991777018592575"><ele>11.333333333333332</ele><time>2026-04-24T13:08:21Z</time></trkpt><trkpt lat="44.36591145294603" lon="11.992017423594554"><ele>11.0</ele><time>2026-04-24T13:08:22Z</time></trkpt><trkpt lat="44.36577739769834" lon="11.992253441150813"><ele>11.0</ele><time>2026-04-24T13:08:23Z</time></trkpt><trkpt lat="44.365639803104294" lon="11.99248437299754"><ele>11.0</ele><time>2026-04-24T13:08:24Z</time></trkpt><trkpt lat="44.365495911219924" lon="11.992712983757372"><ele>11.0</ele><time>2026-04-24T13:08:25Z</time></trkpt><trkpt lat="44.36535217220703" lon="11.992939857521295"><ele>11.0</ele><time>2026-04-24T13:08:26Z</time></trkpt><trkpt lat="44.36520791890382" lon="11.99316576332138"><ele>11.0</ele><time>2026-04-24T13:08:27Z</time></trkpt><trkpt lat="44.36505566560739" lon="11.99338339549555"><ele>11.0</ele><time>2026-04-24T13:08:28Z</time></trkpt><trkpt lat="44.364904003034596" lon="11.993602591369791"><ele>11.0</ele><time>2026-04-24T13:08:29Z</time></trkpt><trkpt lat="44.36474856092922" lon="11.993817925193675"><ele>11.0</ele><time>2026-04-24T13:08:30Z</time></trkpt><trkpt lat="44.3645936631797" lon="11.994032532982558"><ele>11.0</ele><time>2026-04-24T13:08:31Z</time></trkpt><trkpt lat="44.364435716843424" lon="11.994239584918486"><ele>11.333333333333332</ele><time>2026-04-24T13:08:32Z</time></trkpt><trkpt lat="44.36427919688569" lon="11.994447820297871"><ele>11.666666666666666</ele><time>2026-04-24T13:08:33Z</time></trkpt><trkpt lat="44.36412239970611" lon="11.994652008730679"><ele>12.0</ele><time>2026-04-24T13:08:34Z</time></trkpt><trkpt lat="44.36396841900571" lon="11.994862076886157"><ele>11.666666666666666</ele><time>2026-04-24T13:08:35Z</time></trkpt><trkpt lat="44.36381422924002" lon="11.99507205549409"><ele>11.333333333333332</ele><time>2026-04-24T13:08:36Z</time></trkpt><trkpt lat="44.36365808346104" lon="11.995282700558262"><ele>11.0</ele><time>2026-04-24T13:08:37Z</time></trkpt><trkpt lat="44.36350260049023" lon="11.995495121166215"><ele>11.0</ele><time>2026-04-24T13:08:38Z</time></trkpt><trkpt lat="44.363346964287246" lon="11.995701493264592"><ele>11.0</ele><time>2026-04-24T13:08:39Z</time></trkpt><trkpt lat="44.36319120434538" lon="11.995908967444194"><ele>11.0</ele><time>2026-04-24T13:08:40Z</time></trkpt><trkpt lat="44.3630384532241" lon="11.996116186257053"><ele>10.666666666666666</ele><time>2026-04-24T13:08:41Z</time></trkpt><trkpt lat="44.36288471414105" lon="11.996326776582482"><ele>10.333333333333334</ele><time>2026-04-24T13:08:42Z</time></trkpt><trkpt lat="44.362729896113024" lon="11.996537636483072"><ele>10.0</ele><time>2026-04-24T13:08:43Z</time></trkpt><trkpt lat="44.36257739490792" lon="11.996750587645394"><ele>9.666666666666668</ele><time>2026-04-24T13:08:44Z</time></trkpt><trkpt lat="44.362424313248155" lon="11.996960556877601"><ele>9.333333333333334</ele><time>2026-04-24T13:08:45Z</time></trkpt><trkpt lat="44.36227117634564" lon="11.997172844848512"><ele>9.0</ele><time>2026-04-24T13:08:46Z</time></trkpt><trkpt lat="44.36211735550849" lon="11.997385761293394"><ele>9.333333333333334</ele><time>2026-04-24T13:08:47Z</time></trkpt><trkpt lat="44.36196139400464" lon="11.99759774485564"><ele>9.666666666666668</ele><time>2026-04-24T13:08:48Z</time></trkpt><trkpt lat="44.361806838132935" lon="11.997806885978735"><ele>10.0</ele><time>2026-04-24T13:08:49Z</time></trkpt><trkpt lat="44.36165478425233" lon="11.998016487023815"><ele>10.0</ele><time>2026-04-24T13:08:50Z</time></trkpt><trkpt lat="44.361499422899975" lon="11.998226894801503"><ele>10.0</ele><time>2026-04-24T13:08:51Z</time></trkpt><trkpt lat="44.361342042384145" lon="11.99843770255513"><ele>10.0</ele><time>2026-04-24T13:08:52Z</time></trkpt><trkpt lat="44.3611872602879" lon="11.998649928594157"><ele>10.666666666666668</ele><time>2026-04-24T13:08:53Z</time></trkpt><trkpt lat="44.361028191577866" lon="11.998858463123673"><ele>11.333333333333334</ele><time>2026-04-24T13:08:54Z</time></trkpt><trkpt lat="44.3608735013508" lon="11.99907077343404"><ele>12.0</ele><time>2026-04-24T13:08:55Z</time></trkpt><trkpt lat="44.36071764042466" lon="11.999282285795386"><ele>12.0</ele><time>2026-04-24T13:08:56Z</time></trkpt><trkpt lat="44.36056366647151" lon="11.999491344940564"><ele>12.0</ele><time>2026-04-24T13:08:57Z</time></trkpt><trkpt lat="44.360409790233064" lon="11.9997004686093"><ele>12.0</ele><time>2026-04-24T13:08:58Z</time></trkpt><trkpt lat="44.36025639383854" lon="11.999910416407072"><ele>11.666666666666666</ele><time>2026-04-24T13:08:59Z</time></trkpt><trkpt lat="44.36010126233319" lon="12.000123620892943"><ele>11.333333333333332</ele><time>2026-04-24T13:09:00Z</time></trkpt><trkpt lat="44.35994702092237" lon="12.00033745252777"><ele>11.0</ele><time>2026-04-24T13:09:01Z</time></trkpt><trkpt lat="44.359792469702484" lon="12.000548870506144"><ele>11.0</ele><time>2026-04-24T13:09:02Z</time></trkpt><trkpt lat="44.359637576001525" lon="12.000763026538792"><ele>11.0</ele><time>2026-04-24T13:09:03Z</time></trkpt><trkpt lat="44.359483451390155" lon="12.000975923420972"><ele>11.0</ele><time>2026-04-24T13:09:04Z</time></trkpt><trkpt lat="44.35933278972966" lon="12.001186778426534"><ele>11.0</ele><time>2026-04-24T13:09:05Z</time></trkpt><trkpt lat="44.359180281245315" lon="12.001398291973139"><ele>11.0</ele><time>2026-04-24T13:09:06Z</time></trkpt><trkpt lat="44.35902812536608" lon="12.001610780425318"><ele>11.0</ele><time>2026-04-24T13:09:07Z</time></trkpt><trkpt lat="44.35887561552089" lon="12.001826003302979"><ele>11.0</ele><time>2026-04-24T13:09:08Z</time></trkpt><trkpt lat="44.358720640379836" lon="12.002040055438034"><ele>11.0</ele><time>2026-04-24T13:09:09Z</time></trkpt><trkpt lat="44.35856607167239" lon="12.002249943201713"><ele>11.0</ele><time>2026-04-24T13:09:10Z</time></trkpt><trkpt lat="44.358408341301704" lon="12.002459517911175"><ele>11.0</ele><time>2026-04-24T13:09:11Z</time></trkpt><trkpt lat="44.35825313068454" lon="12.002670063892948"><ele>11.0</ele><time>2026-04-24T13:09:12Z</time></trkpt><trkpt lat="44.35810031915717" lon="12.002885500766492"><ele>11.0</ele><time>2026-04-24T13:09:13Z</time></trkpt><trkpt lat="44.357951903820215" lon="12.003104721823188"><ele>11.0</ele><time>2026-04-24T13:09:14Z</time></trkpt><trkpt lat="44.357809373792705" lon="12.003325573456415"><ele>11.0</ele><time>2026-04-24T13:09:15Z</time></trkpt><trkpt lat="44.35766899230722" lon="12.00355488111509"><ele>11.0</ele><time>2026-04-24T13:09:16Z</time></trkpt><trkpt lat="44.357530262536415" lon="12.003788567121894"><ele>11.0</ele><time>2026-04-24T13:09:17Z</time></trkpt><trkpt lat="44.35739811537041" lon="12.004026110482888"><ele>11.0</ele><time>2026-04-24T13:09:18Z</time></trkpt><trkpt lat="44.35726736611293" lon="12.004267859095053"><ele>11.0</ele><time>2026-04-24T13:09:19Z</time></trkpt><trkpt lat="44.35713868525689" lon="12.00451158598641"><ele>11.333333333333332</ele><time>2026-04-24T13:09:20Z</time></trkpt><trkpt lat="44.35700768246945" lon="12.004754508069176"><ele>11.666666666666666</ele><time>2026-04-24T13:09:21Z</time></trkpt><trkpt lat="44.35687758559669" lon="12.004992349307956"><ele>12.0</ele><time>2026-04-24T13:09:22Z</time></trkpt><trkpt lat="44.35674691383546" lon="12.005234887713078"><ele>12.333333333333332</ele><time>2026-04-24T13:09:23Z</time></trkpt><trkpt lat="44.356618209219285" lon="12.005476602923077"><ele>12.666666666666666</ele><time>2026-04-24T13:09:24Z</time></trkpt><trkpt lat="44.35649284075682" lon="12.005719888906626"><ele>13.0</ele><time>2026-04-24T13:09:25Z</time></trkpt><trkpt lat="44.356366114759886" lon="12.005965474322439"><ele>13.0</ele><time>2026-04-24T13:09:26Z</time></trkpt><trkpt lat="44.35623919675874" lon="12.006209705358927"><ele>13.0</ele><time>2026-04-24T13:09:27Z</time></trkpt><trkpt lat="44.3561108718299" lon="12.00644998631756"><ele>13.0</ele><time>2026-04-24T13:09:28Z</time></trkpt><trkpt lat="44.35598214044141" lon="12.006691508358038"><ele>12.666666666666666</ele><time>2026-04-24T13:09:29Z</time></trkpt><trkpt lat="44.355851475737495" lon="12.006932434360719"><ele>12.333333333333332</ele><time>2026-04-24T13:09:30Z</time></trkpt><trkpt lat="44.35572123030561" lon="12.007175793160469"><ele>12.0</ele><time>2026-04-24T13:09:31Z</time></trkpt><trkpt lat="44.35559207606958" lon="12.007418787126946"><ele>12.0</ele><time>2026-04-24T13:09:32Z</time></trkpt><trkpt lat="44.355467517272274" lon="12.007653534474523"><ele>12.0</ele><time>2026-04-24T13:09:33Z</time></trkpt><trkpt lat="44.35535177718407" lon="12.007867806238897"><ele>12.0</ele><time>2026-04-24T13:09:34Z</time></trkpt><trkpt lat="44.355243919201236" lon="12.008068008904974"><ele>12.0</ele><time>2026-04-24T13:09:35Z</time></trkpt><trkpt lat="44.355140531933365" lon="12.008256654967653"><ele>12.0</ele><time>2026-04-24T13:09:36Z</time></trkpt><trkpt lat="44.355040822843314" lon="12.008432901777953"><ele>12.0</ele><time>2026-04-24T13:09:37Z</time></trkpt><trkpt lat="44.35494915536911" lon="12.008602994242612"><ele>12.25</ele><time>2026-04-24T13:09:38Z</time></trkpt><trkpt lat="44.35486370936739" lon="12.008762077115215"><ele>12.5</ele><time>2026-04-24T13:09:39Z</time></trkpt><trkpt lat="44.35478241630487" lon="12.008910335520477"><ele>12.75</ele><time>2026-04-24T13:09:40Z</time></trkpt><trkpt lat="44.354703677773315" lon="12.009042952975838"><ele>13.0</ele><time>2026-04-24T13:09:41Z</time></trkpt><trkpt lat="44.35463005712403" lon="12.009158512184994"><ele>12.833333333333332</ele><time>2026-04-24T13:09:42Z</time></trkpt><trkpt lat="44.354558488114805" lon="12.009242692426326"><ele>12.666666666666666</ele><time>2026-04-24T13:09:43Z</time></trkpt><trkpt lat="44.35449110707289" lon="12.009302707824071"><ele>12.5</ele><time>2026-04-24T13:09:44Z</time></trkpt><trkpt lat="44.35440835597505" lon="12.00936687155729"><ele>12.333333333333332</ele><time>2026-04-24T13:09:46Z</time></trkpt><trkpt lat="44.35439718733998" lon="12.009475225948302"><ele>12.166666666666666</ele><time>2026-04-24T13:09:48Z</time></trkpt><trkpt lat="44.35438155701978" lon="12.009569036056051"><ele>12.0</ele><time>2026-04-24T13:10:04Z</time></trkpt><trkpt lat="44.35448050639603" lon="12.009774907232137"><ele>12.0</ele><time>2026-04-24T13:10:07Z</time></trkpt><trkpt lat="44.354583387194815" lon="12.009824523758335"><ele>12.0</ele><time>2026-04-24T13:10:08Z</time></trkpt><trkpt lat="44.35468949075157" lon="12.009905511130084"><ele>12.0</ele><time>2026-04-24T13:10:09Z</time></trkpt><trkpt lat="44.35480913925394" lon="12.009987896760759"><ele>12.0</ele><time>2026-04-24T13:10:10Z</time></trkpt><trkpt lat="44.35492995237387" lon="12.010069009529516"><ele>11.5</ele><time>2026-04-24T13:10:11Z</time></trkpt><trkpt lat="44.35505625622075" lon="12.010154704188112"><ele>11.0</ele><time>2026-04-24T13:10:12Z</time></trkpt><trkpt lat="44.35519511761927" lon="12.010239079746777"><ele>10.5</ele><time>2026-04-24T13:10:13Z</time></trkpt><trkpt lat="44.35533772066211" lon="12.010323709919469"><ele>10.0</ele><time>2026-04-24T13:10:14Z</time></trkpt><trkpt lat="44.35547595982588" lon="12.01040402262702"><ele>9.666666666666668</ele><time>2026-04-24T13:10:15Z</time></trkpt><trkpt lat="44.355618935231625" lon="12.01048701958519"><ele>9.333333333333334</ele><time>2026-04-24T13:10:16Z</time></trkpt><trkpt lat="44.355765107278366" lon="12.01057275982729"><ele>9.0</ele><time>2026-04-24T13:10:17Z</time></trkpt><trkpt lat="44.35591493511111" lon="12.01066111303412"><ele>9.0</ele><time>2026-04-24T13:10:18Z</time></trkpt><trkpt lat="44.35606242316106" lon="12.010751238972142"><ele>9.0</ele><time>2026-04-24T13:10:19Z</time></trkpt><trkpt lat="44.35621583661076" lon="12.010847584421175"><ele>9.0</ele><time>2026-04-24T13:10:20Z</time></trkpt><trkpt lat="44.356371553745916" lon="12.010944222916958"><ele>9.333333333333334</ele><time>2026-04-24T13:10:21Z</time></trkpt><trkpt lat="44.35653036296496" lon="12.011039550751025"><ele>9.666666666666668</ele><time>2026-04-24T13:10:22Z</time></trkpt><trkpt lat="44.356694341035464" lon="12.011140837854516"><ele>10.0</ele><time>2026-04-24T13:10:23Z</time></trkpt><trkpt lat="44.35685536885927" lon="12.011239517347432"><ele>10.0</ele><time>2026-04-24T13:10:24Z</time></trkpt><trkpt lat="44.35701838398886" lon="12.011345034381815"><ele>10.0</ele><time>2026-04-24T13:10:25Z</time></trkpt><trkpt lat="44.357177219451046" lon="12.011439403504552"><ele>10.0</ele><time>2026-04-24T13:10:26Z</time></trkpt><trkpt lat="44.35733292890434" lon="12.011532759445457"><ele>10.333333333333334</ele><time>2026-04-24T13:10:27Z</time></trkpt><trkpt lat="44.35748429564215" lon="12.011629036872401"><ele>10.666666666666666</ele><time>2026-04-24T13:10:28Z</time></trkpt><trkpt lat="44.35763356746625" lon="12.011727656573"><ele>11.0</ele><time>2026-04-24T13:10:29Z</time></trkpt><trkpt lat="44.35778250233139" lon="12.011821892032959"><ele>10.666666666666666</ele><time>2026-04-24T13:10:30Z</time></trkpt><trkpt lat="44.35793063299355" lon="12.011916927133019"><ele>10.333333333333334</ele><time>2026-04-24T13:10:31Z</time></trkpt><trkpt lat="44.358074356747665" lon="12.012010405245826"><ele>10.0</ele><time>2026-04-24T13:10:32Z</time></trkpt><trkpt lat="44.35821618913899" lon="12.012107247888107"><ele>10.0</ele><time>2026-04-24T13:10:33Z</time></trkpt><trkpt lat="44.35836035682136" lon="12.012208103386218"><ele>10.0</ele><time>2026-04-24T13:10:34Z</time></trkpt><trkpt lat="44.35850645820564" lon="12.012322984236658"><ele>10.0</ele><time>2026-04-24T13:10:35Z</time></trkpt><trkpt lat="44.35864821727948" lon="12.01243764174228"><ele>10.0</ele><time>2026-04-24T13:10:36Z</time></trkpt><trkpt lat="44.3587866772985" lon="12.01254700761626"><ele>10.0</ele><time>2026-04-24T13:10:37Z</time></trkpt><trkpt lat="44.35892025529218" lon="12.012658471793568"><ele>10.0</ele><time>2026-04-24T13:10:38Z</time></trkpt><trkpt lat="44.35904470138044" lon="12.01277860331012"><ele>10.0</ele><time>2026-04-24T13:10:39Z</time></trkpt><trkpt lat="44.35917280275819" lon="12.012903529711533"><ele>10.0</ele><time>2026-04-24T13:10:40Z</time></trkpt><trkpt lat="44.35930659103809" lon="12.013020062170598"><ele>10.0</ele><time>2026-04-24T13:10:41Z</time></trkpt><trkpt lat="44.3594454948665" lon="12.013133671773195"><ele>10.0</ele><time>2026-04-24T13:10:42Z</time></trkpt><trkpt lat="44.35958415966717" lon="12.013248820207455"><ele>10.0</ele><time>2026-04-24T13:10:43Z</time></trkpt><trkpt lat="44.35972333409942" lon="12.013358312351183"><ele>10.0</ele><time>2026-04-24T13:10:44Z</time></trkpt><trkpt lat="44.35986294049456" lon="12.01347255560151"><ele>10.333333333333334</ele><time>2026-04-24T13:10:45Z</time></trkpt><trkpt lat="44.36000011334096" lon="12.013586589262193"><ele>10.666666666666666</ele><time>2026-04-24T13:10:46Z</time></trkpt><trkpt lat="44.36013529920333" lon="12.013702736321738"><ele>11.0</ele><time>2026-04-24T13:10:47Z</time></trkpt><trkpt lat="44.360272829476095" lon="12.013815995740226"><ele>11.0</ele><time>2026-04-24T13:10:48Z</time></trkpt><trkpt lat="44.360411930815" lon="12.013933155106397"><ele>11.0</ele><time>2026-04-24T13:10:49Z</time></trkpt><trkpt lat="44.36055611752838" lon="12.014051066434858"><ele>11.0</ele><time>2026-04-24T13:10:50Z</time></trkpt><trkpt lat="44.360707891010755" lon="12.01417743127683"><ele>11.0</ele><time>2026-04-24T13:10:51Z</time></trkpt><trkpt lat="44.36086267545638" lon="12.014311652491124"><ele>11.0</ele><time>2026-04-24T13:10:52Z</time></trkpt><trkpt lat="44.361020385864954" lon="12.014448632615096"><ele>11.0</ele><time>2026-04-24T13:10:53Z</time></trkpt><trkpt lat="44.361181574003346" lon="12.014589877097757"><ele>11.0</ele><time>2026-04-24T13:10:54Z</time></trkpt><trkpt lat="44.361343307973904" lon="12.0147313781852"><ele>11.0</ele><time>2026-04-24T13:10:55Z</time></trkpt><trkpt lat="44.361510145934595" lon="12.014869132072572"><ele>11.0</ele><time>2026-04-24T13:10:56Z</time></trkpt><trkpt lat="44.361677229697364" lon="12.015013846080507"><ele>10.666666666666666</ele><time>2026-04-24T13:10:57Z</time></trkpt><trkpt lat="44.36184333978197" lon="12.015155834839948"><ele>10.333333333333334</ele><time>2026-04-24T13:10:58Z</time></trkpt><trkpt lat="44.36200883277159" lon="12.015294915149386"><ele>10.0</ele><time>2026-04-24T13:10:59Z</time></trkpt><trkpt lat="44.36217424466942" lon="12.01543455160533"><ele>10.666666666666668</ele><time>2026-04-24T13:11:00Z</time></trkpt><trkpt lat="44.362338353351255" lon="12.015572657211028"><ele>11.333333333333334</ele><time>2026-04-24T13:11:01Z</time></trkpt><trkpt lat="44.36250130032307" lon="12.015712776617475"><ele>12.0</ele><time>2026-04-24T13:11:02Z</time></trkpt><trkpt lat="44.36265814143335" lon="12.015867910804657"><ele>12.333333333333332</ele><time>2026-04-24T13:11:03Z</time></trkpt><trkpt lat="44.362807097325174" lon="12.01603369581492"><ele>12.666666666666666</ele><time>2026-04-24T13:11:04Z</time></trkpt><trkpt lat="44.36295049429743" lon="12.01620905944215"><ele>13.0</ele><time>2026-04-24T13:11:05Z</time></trkpt><trkpt lat="44.36308243494025" lon="12.016402320224156"><ele>12.666666666666666</ele><time>2026-04-24T13:11:06Z</time></trkpt><trkpt lat="44.363204399443276" lon="12.016605519574734"><ele>12.333333333333332</ele><time>2026-04-24T13:11:07Z</time></trkpt><trkpt lat="44.36332211665797" lon="12.01681616387744"><ele>12.0</ele><time>2026-04-24T13:11:08Z</time></trkpt><trkpt lat="44.36343405079578" lon="12.017024830743553"><ele>12.0</ele><time>2026-04-24T13:11:09Z</time></trkpt><trkpt lat="44.363543921027905" lon="12.017231377584004"><ele>12.0</ele><time>2026-04-24T13:11:10Z</time></trkpt><trkpt lat="44.36365636075245" lon="12.017436034734079"><ele>12.0</ele><time>2026-04-24T13:11:11Z</time></trkpt><trkpt lat="44.36376905177363" lon="12.017638041906235"><ele>11.666666666666666</ele><time>2026-04-24T13:11:12Z</time></trkpt><trkpt lat="44.363881059077464" lon="12.017834401513467"><ele>11.333333333333332</ele><time>2026-04-24T13:11:13Z</time></trkpt><trkpt lat="44.363997344387684" lon="12.018023890253952"><ele>11.0</ele><time>2026-04-24T13:11:14Z</time></trkpt><trkpt lat="44.3641086470556" lon="12.018213370151095"><ele>11.0</ele><time>2026-04-24T13:11:15Z</time></trkpt><trkpt lat="44.36421668527384" lon="12.018402521257222"><ele>11.0</ele><time>2026-04-24T13:11:16Z</time></trkpt><trkpt lat="44.36431995235897" lon="12.018594233456874"><ele>11.0</ele><time>2026-04-24T13:11:17Z</time></trkpt><trkpt lat="44.3644203523379" lon="12.018785639737319"><ele>11.0</ele><time>2026-04-24T13:11:18Z</time></trkpt><trkpt lat="44.36451660505571" lon="12.01896460592407"><ele>11.0</ele><time>2026-04-24T13:11:19Z</time></trkpt><trkpt lat="44.364611962343886" lon="12.019128421984092"><ele>11.0</ele><time>2026-04-24T13:11:20Z</time></trkpt><trkpt lat="44.364704620836065" lon="12.019297415757329"><ele>11.0</ele><time>2026-04-24T13:11:21Z</time></trkpt><trkpt lat="44.364798263475876" lon="12.01946679057797"><ele>11.0</ele><time>2026-04-24T13:11:22Z</time></trkpt><trkpt lat="44.36489503998375" lon="12.01964085430997"><ele>11.0</ele><time>2026-04-24T13:11:23Z</time></trkpt><trkpt lat="44.365000927594934" lon="12.019823228222553"><ele>11.0</ele><time>2026-04-24T13:11:24Z</time></trkpt><trkpt lat="44.36511012031571" lon="12.020006720098483"><ele>11.0</ele><time>2026-04-24T13:11:25Z</time></trkpt><trkpt lat="44.36521983225371" lon="12.020193501263385"><ele>11.0</ele><time>2026-04-24T13:11:26Z</time></trkpt><trkpt lat="44.36532830957045" lon="12.0203838255015"><ele>11.0</ele><time>2026-04-24T13:11:27Z</time></trkpt><trkpt lat="44.36543781757055" lon="12.02057207213117"><ele>11.0</ele><time>2026-04-24T13:11:28Z</time></trkpt><trkpt lat="44.36554618474008" lon="12.020762840238588"><ele>11.0</ele><time>2026-04-24T13:11:29Z</time></trkpt><trkpt lat="44.36565713894442" lon="12.020956197800565"><ele>11.0</ele><time>2026-04-24T13:11:30Z</time></trkpt><trkpt lat="44.36576916018267" lon="12.021145595288171"><ele>11.0</ele><time>2026-04-24T13:11:31Z</time></trkpt><trkpt lat="44.36588155416888" lon="12.021336756479759"><ele>11.0</ele><time>2026-04-24T13:11:32Z</time></trkpt><trkpt lat="44.36599127736614" lon="12.021530935068055"><ele>10.666666666666666</ele><time>2026-04-24T13:11:33Z</time></trkpt><trkpt lat="44.36610304019417" lon="12.0217300243344"><ele>10.333333333333334</ele><time>2026-04-24T13:11:34Z</time></trkpt><trkpt lat="44.36621653841239" lon="12.021923361856137"><ele>10.0</ele><time>2026-04-24T13:11:35Z</time></trkpt><trkpt lat="44.36632800137587" lon="12.022116171784674"><ele>10.666666666666668</ele><time>2026-04-24T13:11:36Z</time></trkpt><trkpt lat="44.366441416284616" lon="12.02230882468881"><ele>11.333333333333334</ele><time>2026-04-24T13:11:37Z</time></trkpt><trkpt lat="44.36655322630903" lon="12.022497933100293"><ele>12.0</ele><time>2026-04-24T13:11:38Z</time></trkpt><trkpt lat="44.36666070067018" lon="12.022681383289962"><ele>12.0</ele><time>2026-04-24T13:11:39Z</time></trkpt><trkpt lat="44.36676648822864" lon="12.022859757625543"><ele>12.0</ele><time>2026-04-24T13:11:40Z</time></trkpt><trkpt lat="44.36686235089855" lon="12.023029802309694"><ele>12.0</ele><time>2026-04-24T13:11:41Z</time></trkpt><trkpt lat="44.366951400847555" lon="12.02319297864149"><ele>11.0</ele><time>2026-04-24T13:11:42Z</time></trkpt><trkpt lat="44.36703651167497" lon="12.023342022327226"><ele>10.0</ele><time>2026-04-24T13:11:43Z</time></trkpt><trkpt lat="44.36711959655764" lon="12.02347915170324"><ele>9.0</ele><time>2026-04-24T13:11:44Z</time></trkpt><trkpt lat="44.367188690870684" lon="12.023595876899886"><ele>8.0</ele><time>2026-04-24T13:11:45Z</time></trkpt><trkpt lat="44.36724331832408" lon="12.023705426802069"><ele>7.999999999999999</ele><time>2026-04-24T13:11:46Z</time></trkpt><trkpt lat="44.36728460910254" lon="12.02382329243821"><ele>8.0</ele><time>2026-04-24T13:11:47Z</time></trkpt><trkpt lat="44.36729990389573" lon="12.02395032051607"><ele>8.0</ele><time>2026-04-24T13:11:48Z</time></trkpt><trkpt lat="44.367311058258" lon="12.024061968497373"><ele>8.0</ele><time>2026-04-24T13:11:49Z</time></trkpt><trkpt lat="44.36734927810357" lon="12.024145319881242"><ele>7.999999999999999</ele><time>2026-04-24T13:11:50Z</time></trkpt><trkpt lat="44.36742591501181" lon="12.024205580094307"><ele>8.0</ele><time>2026-04-24T13:11:51Z</time></trkpt><trkpt lat="44.36752449621434" lon="12.02425796420565"><ele>8.0</ele><time>2026-04-24T13:11:52Z</time></trkpt><trkpt lat="44.367628358621644" lon="12.02433771428331"><ele>8.0</ele><time>2026-04-24T13:11:53Z</time></trkpt><trkpt lat="44.36774514419096" lon="12.024438737918203"><ele>8.0</ele><time>2026-04-24T13:11:54Z</time></trkpt><trkpt lat="44.36780987957089" lon="12.024624919867009"><ele>8.0</ele><time>2026-04-24T13:11:55Z</time></trkpt><trkpt lat="44.36789046756292" lon="12.024809985252208"><ele>8.333333333333332</ele><time>2026-04-24T13:11:56Z</time></trkpt><trkpt lat="44.36798364152481" lon="12.02499885249236"><ele>8.666666666666666</ele><time>2026-04-24T13:11:57Z</time></trkpt><trkpt lat="44.3680867080052" lon="12.025185406346095"><ele>9.0</ele><time>2026-04-24T13:11:58Z</time></trkpt><trkpt lat="44.368191291121214" lon="12.02537408858606"><ele>9.333333333333334</ele><time>2026-04-24T13:11:59Z</time></trkpt><trkpt lat="44.36829899024642" lon="12.025559216350954"><ele>9.666666666666668</ele><time>2026-04-24T13:12:00Z</time></trkpt><trkpt lat="44.36840734914985" lon="12.025738743494902"><ele>10.0</ele><time>2026-04-24T13:12:01Z</time></trkpt><trkpt lat="44.36850961306829" lon="12.025917199497858"><ele>10.333333333333334</ele><time>2026-04-24T13:12:02Z</time></trkpt><trkpt lat="44.368612324891956" lon="12.026089050758019"><ele>10.666666666666666</ele><time>2026-04-24T13:12:03Z</time></trkpt><trkpt lat="44.36870590073884" lon="12.026252226689444"><ele>11.0</ele><time>2026-04-24T13:12:04Z</time></trkpt><trkpt lat="44.3687927644214" lon="12.02640774088374"><ele>10.75</ele><time>2026-04-24T13:12:05Z</time></trkpt><trkpt lat="44.368873134926076" lon="12.026556104160576"><ele>10.5</ele><time>2026-04-24T13:12:06Z</time></trkpt><trkpt lat="44.36895448545872" lon="12.026701356786726"><ele>10.25</ele><time>2026-04-24T13:12:07Z</time></trkpt><trkpt lat="44.36903653627807" lon="12.026850345419547"><ele>10.0</ele><time>2026-04-24T13:12:08Z</time></trkpt><trkpt lat="44.3691228965343" lon="12.027004797423105"><ele>10.0</ele><time>2026-04-24T13:12:09Z</time></trkpt><trkpt lat="44.36921260498964" lon="12.02716009602994"><ele>10.0</ele><time>2026-04-24T13:12:10Z</time></trkpt><trkpt lat="44.369295771687625" lon="12.027300550592514"><ele>10.0</ele><time>2026-04-24T13:12:11Z</time></trkpt><trkpt lat="44.369370521709094" lon="12.02742521266035"><ele>10.0</ele><time>2026-04-24T13:12:12Z</time></trkpt><trkpt lat="44.36944493786204" lon="12.02754947007042"><ele>10.0</ele><time>2026-04-24T13:12:13Z</time></trkpt><trkpt lat="44.36951698213399" lon="12.02767021816475"><ele>10.0</ele><time>2026-04-24T13:12:14Z</time></trkpt><trkpt lat="44.36958325924381" lon="12.027784142079575"><ele>10.0</ele><time>2026-04-24T13:12:15Z</time></trkpt><trkpt lat="44.36964766279999" lon="12.027893828529558"><ele>10.0</ele><time>2026-04-24T13:12:16Z</time></trkpt><trkpt lat="44.36971475856055" lon="12.028018682420935"><ele>10.0</ele><time>2026-04-24T13:12:17Z</time></trkpt><trkpt lat="44.36979207689328" lon="12.028151024020735"><ele>10.0</ele><time>2026-04-24T13:12:18Z</time></trkpt><trkpt lat="44.36987745487496" lon="12.028292938559721"><ele>10.0</ele><time>2026-04-24T13:12:19Z</time></trkpt><trkpt lat="44.36997021937513" lon="12.02844913135779"><ele>10.0</ele><time>2026-04-24T13:12:20Z</time></trkpt><trkpt lat="44.37007157927447" lon="12.028618109932763"><ele>10.0</ele><time>2026-04-24T13:12:21Z</time></trkpt><trkpt lat="44.37017162406102" lon="12.028793739637313"><ele>10.0</ele><time>2026-04-24T13:12:22Z</time></trkpt><trkpt lat="44.37026426313386" lon="12.028967642760383"><ele>10.0</ele><time>2026-04-24T13:12:23Z</time></trkpt><trkpt lat="44.37035118478855" lon="12.02913602128747"><ele>10.0</ele><time>2026-04-24T13:12:24Z</time></trkpt><trkpt lat="44.370440141716" lon="12.029299749245386"><ele>10.0</ele><time>2026-04-24T13:12:25Z</time></trkpt><trkpt lat="44.37052856479469" lon="12.029456284355096"><ele>10.0</ele><time>2026-04-24T13:12:26Z</time></trkpt><trkpt lat="44.370618077479286" lon="12.029607377610079"><ele>10.0</ele><time>2026-04-24T13:12:27Z</time></trkpt><trkpt lat="44.370707221211205" lon="12.029755308408683"><ele>10.0</ele><time>2026-04-24T13:12:28Z</time></trkpt><trkpt lat="44.37079430054852" lon="12.029905422106193"><ele>10.0</ele><time>2026-04-24T13:12:29Z</time></trkpt><trkpt lat="44.37088015307076" lon="12.03005139028159"><ele>10.0</ele><time>2026-04-24T13:12:30Z</time></trkpt><trkpt lat="44.370968739113415" lon="12.030195322924131"><ele>10.0</ele><time>2026-04-24T13:12:31Z</time></trkpt><trkpt lat="44.37105745347078" lon="12.030339905050106"><ele>10.0</ele><time>2026-04-24T13:12:32Z</time></trkpt><trkpt lat="44.371144890329454" lon="12.03048054752713"><ele>10.0</ele><time>2026-04-24T13:12:33Z</time></trkpt><trkpt lat="44.371228872135795" lon="12.030618860539459"><ele>10.0</ele><time>2026-04-24T13:12:34Z</time></trkpt><trkpt lat="44.371308404025164" lon="12.03074700711797"><ele>10.0</ele><time>2026-04-24T13:12:35Z</time></trkpt><trkpt lat="44.371383813163796" lon="12.030858544450847"><ele>10.0</ele><time>2026-04-24T13:12:36Z</time></trkpt><trkpt lat="44.371449486538765" lon="12.0309595501859"><ele>10.4</ele><time>2026-04-24T13:12:37Z</time></trkpt><trkpt lat="44.371516535309794" lon="12.031052211790602"><ele>10.8</ele><time>2026-04-24T13:12:38Z</time></trkpt><trkpt lat="44.37157969255671" lon="12.031141719366943"><ele>11.2</ele><time>2026-04-24T13:12:39Z</time></trkpt><trkpt lat="44.37163552678506" lon="12.031217588118793"><ele>11.6</ele><time>2026-04-24T13:12:40Z</time></trkpt><trkpt lat="44.371691054424396" lon="12.031281541449722"><ele>12.0</ele><time>2026-04-24T13:12:41Z</time></trkpt><trkpt lat="44.371801639654784" lon="12.031342264760191"><ele>12.0</ele><time>2026-04-24T13:12:43Z</time></trkpt><trkpt lat="44.37188297415179" lon="12.031305787817814"><ele>12.0</ele><time>2026-04-24T13:12:44Z</time></trkpt><trkpt lat="44.37196204677241" lon="12.031244118265503"><ele>12.0</ele><time>2026-04-24T13:12:45Z</time></trkpt><trkpt lat="44.37203797977067" lon="12.031157328427197"><ele>12.0</ele><time>2026-04-24T13:12:46Z</time></trkpt><trkpt lat="44.37211765673409" lon="12.031059501038825"><ele>12.0</ele><time>2026-04-24T13:12:47Z</time></trkpt><trkpt lat="44.37222176525872" lon="12.031027275883117"><ele>12.0</ele><time>2026-04-24T13:12:48Z</time></trkpt><trkpt lat="44.3723162566317" lon="12.031044571841218"><ele>12.0</ele><time>2026-04-24T13:12:49Z</time></trkpt><trkpt lat="44.37237742771214" lon="12.0311377407349"><ele>12.0</ele><time>2026-04-24T13:12:50Z</time></trkpt><trkpt lat="44.37244903254686" lon="12.03119640731906"><ele>12.0</ele><time>2026-04-24T13:12:51Z</time></trkpt><trkpt lat="44.372517118708934" lon="12.03124700747749"><ele>12.0</ele><time>2026-04-24T13:12:52Z</time></trkpt><trkpt lat="44.372590018132364" lon="12.03128043817784"><ele>12.0</ele><time>2026-04-24T13:12:53Z</time></trkpt><trkpt lat="44.37265146785533" lon="12.031337728831847"><ele>12.0</ele><time>2026-04-24T13:12:54Z</time></trkpt><trkpt lat="44.372719330904914" lon="12.031399712503804"><ele>12.0</ele><time>2026-04-24T13:12:55Z</time></trkpt><trkpt lat="44.37279135986821" lon="12.031474053666857"><ele>12.0</ele><time>2026-04-24T13:12:56Z</time></trkpt><trkpt lat="44.372861353309084" lon="12.031558805998378"><ele>12.0</ele><time>2026-04-24T13:12:57Z</time></trkpt><trkpt lat="44.37293396440735" lon="12.031655904727074"><ele>12.0</ele><time>2026-04-24T13:12:58Z</time></trkpt><trkpt lat="44.37300034863522" lon="12.03175816724323"><ele>12.0</ele><time>2026-04-24T13:12:59Z</time></trkpt><trkpt lat="44.3730489806884" lon="12.031858065772711"><ele>12.0</ele><time>2026-04-24T13:13:00Z</time></trkpt><trkpt lat="44.37310878567517" lon="12.031936390269822"><ele>12.0</ele><time>2026-04-24T13:13:01Z</time></trkpt><trkpt lat="44.373072293609965" lon="12.032108370523337"><ele>12.0</ele><time>2026-04-24T13:13:02Z</time></trkpt><trkpt lat="44.373037664562894" lon="12.032234575659515"><ele>12.0</ele><time>2026-04-24T13:13:03Z</time></trkpt><trkpt lat="44.372991025306916" lon="12.032369967281108"><ele>12.0</ele><time>2026-04-24T13:13:04Z</time></trkpt><trkpt lat="44.372928258151276" lon="12.032506374252783"><ele>12.0</ele><time>2026-04-24T13:13:05Z</time></trkpt><trkpt lat="44.37285316567643" lon="12.032647523127205"><ele>12.0</ele><time>2026-04-24T13:13:06Z</time></trkpt><trkpt lat="44.37276973871575" lon="12.032790482631242"><ele>12.0</ele><time>2026-04-24T13:13:07Z</time></trkpt><trkpt lat="44.372689650449935" lon="12.032925421884785"><ele>12.0</ele><time>2026-04-24T13:13:08Z</time></trkpt><trkpt lat="44.37260771495616" lon="12.03306371366016"><ele>12.0</ele><time>2026-04-24T13:13:09Z</time></trkpt><trkpt lat="44.37252178576614" lon="12.033208738022363"><ele>12.0</ele><time>2026-04-24T13:13:10Z</time></trkpt><trkpt lat="44.37243598937143" lon="12.033358653979926"><ele>12.0</ele><time>2026-04-24T13:13:11Z</time></trkpt><trkpt lat="44.37235850507618" lon="12.033523255755695"><ele>12.0</ele><time>2026-04-24T13:13:12Z</time></trkpt><trkpt lat="44.372277331274425" lon="12.03367175829378"><ele>12.0</ele><time>2026-04-24T13:13:13Z</time></trkpt><trkpt lat="44.37218915137914" lon="12.033815257463159"><ele>12.0</ele><time>2026-04-24T13:13:14Z</time></trkpt><trkpt lat="44.37211090104619" lon="12.033943132159814"><ele>12.0</ele><time>2026-04-24T13:13:15Z</time></trkpt><trkpt lat="44.3720484948984" lon="12.03406490188449"><ele>11.8</ele><time>2026-04-24T13:13:16Z</time></trkpt><trkpt lat="44.3719866711769" lon="12.034180831738572"><ele>11.6</ele><time>2026-04-24T13:13:17Z</time></trkpt><trkpt lat="44.37191660941733" lon="12.034293207287268"><ele>11.4</ele><time>2026-04-24T13:13:18Z</time></trkpt><trkpt lat="44.37185707156528" lon="12.034395933177908"><ele>11.200000000000001</ele><time>2026-04-24T13:13:19Z</time></trkpt><trkpt lat="44.371800715437566" lon="12.034488705594931"><ele>11.0</ele><time>2026-04-24T13:13:20Z</time></trkpt><trkpt lat="44.37174485554556" lon="12.034582686898922"><ele>11.0</ele><time>2026-04-24T13:13:21Z</time></trkpt><trkpt lat="44.3717030140064" lon="12.034672327793599"><ele>11.0</ele><time>2026-04-24T13:13:22Z</time></trkpt><trkpt lat="44.37164526976358" lon="12.034773452430553"><ele>11.0</ele><time>2026-04-24T13:13:24Z</time></trkpt><trkpt lat="44.37164075187923" lon="12.034893334913399"><ele>11.0</ele><time>2026-04-24T13:14:28Z</time></trkpt><trkpt lat="44.371578638407854" lon="12.03498312204162"><ele>11.0</ele><time>2026-04-24T13:14:29Z</time></trkpt><trkpt lat="44.37153214453865" lon="12.035070680396885"><ele>11.0</ele><time>2026-04-24T13:14:30Z</time></trkpt><trkpt lat="44.371454383351974" lon="12.035142484144517"><ele>10.8</ele><time>2026-04-24T13:14:31Z</time></trkpt><trkpt lat="44.37139715463685" lon="12.035259258856152"><ele>10.600000000000001</ele><time>2026-04-24T13:14:32Z</time></trkpt><trkpt lat="44.37134109513637" lon="12.035381868682995"><ele>10.4</ele><time>2026-04-24T13:14:33Z</time></trkpt><trkpt lat="44.37128134851709" lon="12.035524324081909"><ele>10.2</ele><time>2026-04-24T13:14:34Z</time></trkpt><trkpt lat="44.37122535338716" lon="12.03566805587962"><ele>10.0</ele><time>2026-04-24T13:14:35Z</time></trkpt><trkpt lat="44.371186255326265" lon="12.035813515689071"><ele>9.75</ele><time>2026-04-24T13:14:36Z</time></trkpt><trkpt lat="44.37111307355694" lon="12.035950710660188"><ele>9.5</ele><time>2026-04-24T13:14:37Z</time></trkpt><trkpt lat="44.3710498064126" lon="12.036107349248372"><ele>9.25</ele><time>2026-04-24T13:14:38Z</time></trkpt><trkpt lat="44.37098979553646" lon="12.036261750942087"><ele>9.0</ele><time>2026-04-24T13:14:39Z</time></trkpt><trkpt lat="44.370926740394545" lon="12.036420594238232"><ele>9.0</ele><time>2026-04-24T13:14:40Z</time></trkpt><trkpt lat="44.370866098243404" lon="12.036581405136381"><ele>9.0</ele><time>2026-04-24T13:14:41Z</time></trkpt><trkpt lat="44.37079955812929" lon="12.0367393746735"><ele>9.0</ele><time>2026-04-24T13:14:42Z</time></trkpt><trkpt lat="44.37073024788802" lon="12.036897579840296"><ele>9.0</ele><time>2026-04-24T13:14:43Z</time></trkpt><trkpt lat="44.37065620111589" lon="12.037060609640202"><ele>9.0</ele><time>2026-04-24T13:14:44Z</time></trkpt><trkpt lat="44.370593468789046" lon="12.037226183563794"><ele>9.0</ele><time>2026-04-24T13:14:45Z</time></trkpt><trkpt lat="44.37053044114278" lon="12.037395933891354"><ele>9.0</ele><time>2026-04-24T13:14:46Z</time></trkpt><trkpt lat="44.370466313585574" lon="12.037563847203346"><ele>9.0</ele><time>2026-04-24T13:14:47Z</time></trkpt><trkpt lat="44.37039763513489" lon="12.03774017803576"><ele>9.333333333333334</ele><time>2026-04-24T13:14:48Z</time></trkpt><trkpt lat="44.3703273162318" lon="12.037923846585107"><ele>9.666666666666668</ele><time>2026-04-24T13:14:49Z</time></trkpt><trkpt lat="44.370254091592386" lon="12.038112440846657"><ele>10.0</ele><time>2026-04-24T13:14:50Z</time></trkpt><trkpt lat="44.37017997142609" lon="12.03830289540967"><ele>9.333333333333334</ele><time>2026-04-24T13:14:51Z</time></trkpt><trkpt lat="44.37010393053983" lon="12.038492850050298"><ele>8.666666666666666</ele><time>2026-04-24T13:14:52Z</time></trkpt><trkpt lat="44.37002267876161" lon="12.038684350679876"><ele>8.0</ele><time>2026-04-24T13:14:53Z</time></trkpt><trkpt lat="44.36994620679978" lon="12.038873793682926"><ele>8.0</ele><time>2026-04-24T13:14:54Z</time></trkpt><trkpt lat="44.369870115307215" lon="12.039070457666943"><ele>8.0</ele><time>2026-04-24T13:14:55Z</time></trkpt><trkpt lat="44.369794914281314" lon="12.039261755283123"><ele>8.0</ele><time>2026-04-24T13:14:56Z</time></trkpt><trkpt lat="44.36972378475889" lon="12.039444422883168"><ele>8.0</ele><time>2026-04-24T13:14:57Z</time></trkpt><trkpt lat="44.36965347523028" lon="12.039627983665001"><ele>8.0</ele><time>2026-04-24T13:14:58Z</time></trkpt><trkpt lat="44.369580899197956" lon="12.039817085478692"><ele>8.0</ele><time>2026-04-24T13:14:59Z</time></trkpt><trkpt lat="44.36950493278692" lon="12.040006348776673"><ele>8.0</ele><time>2026-04-24T13:15:00Z</time></trkpt><trkpt lat="44.36943137821742" lon="12.040199311149134"><ele>8.0</ele><time>2026-04-24T13:15:01Z</time></trkpt><trkpt lat="44.36935403350036" lon="12.040392522752514"><ele>8.0</ele><time>2026-04-24T13:15:02Z</time></trkpt><trkpt lat="44.369277443200524" lon="12.040590954910481"><ele>8.0</ele><time>2026-04-24T13:15:03Z</time></trkpt><trkpt lat="44.36920074965725" lon="12.04079206800309"><ele>8.0</ele><time>2026-04-24T13:15:04Z</time></trkpt><trkpt lat="44.36912543052217" lon="12.040998846737029"><ele>8.0</ele><time>2026-04-24T13:15:05Z</time></trkpt><trkpt lat="44.3690496023987" lon="12.041204082282617"><ele>8.0</ele><time>2026-04-24T13:15:06Z</time></trkpt><trkpt lat="44.36897097610478" lon="12.041413408334442"><ele>8.0</ele><time>2026-04-24T13:15:07Z</time></trkpt><trkpt lat="44.36889065215265" lon="12.041619576745974"><ele>8.0</ele><time>2026-04-24T13:15:08Z</time></trkpt><trkpt lat="44.36881188001946" lon="12.041817600811807"><ele>7.666666666666666</ele><time>2026-04-24T13:15:09Z</time></trkpt><trkpt lat="44.368734477435076" lon="12.042012027840132"><ele>7.333333333333334</ele><time>2026-04-24T13:15:10Z</time></trkpt><trkpt lat="44.368658134696624" lon="12.042204639918257"><ele>7.0</ele><time>2026-04-24T13:15:11Z</time></trkpt><trkpt lat="44.368579685714316" lon="12.04239533941031"><ele>7.0</ele><time>2026-04-24T13:15:12Z</time></trkpt><trkpt lat="44.368501920491696" lon="12.042585046542733"><ele>7.0</ele><time>2026-04-24T13:15:13Z</time></trkpt><trkpt lat="44.36842393421848" lon="12.042773320393671"><ele>7.0</ele><time>2026-04-24T13:15:14Z</time></trkpt><trkpt lat="44.368345806357326" lon="12.042957404221163"><ele>7.0</ele><time>2026-04-24T13:15:15Z</time></trkpt><trkpt lat="44.368269434517714" lon="12.04313956060511"><ele>7.0</ele><time>2026-04-24T13:15:16Z</time></trkpt><trkpt lat="44.368194164713096" lon="12.043323578675876"><ele>7.0</ele><time>2026-04-24T13:15:17Z</time></trkpt><trkpt lat="44.368119437470945" lon="12.043507032963221"><ele>7.5</ele><time>2026-04-24T13:15:18Z</time></trkpt><trkpt lat="44.36804896233362" lon="12.043687835861922"><ele>8.0</ele><time>2026-04-24T13:15:19Z</time></trkpt><trkpt lat="44.36797891058861" lon="12.043866662141957"><ele>8.5</ele><time>2026-04-24T13:15:20Z</time></trkpt><trkpt lat="44.36790859071457" lon="12.044042296143498"><ele>9.0</ele><time>2026-04-24T13:15:21Z</time></trkpt><trkpt lat="44.36783799781658" lon="12.044217707675935"><ele>9.0</ele><time>2026-04-24T13:15:22Z</time></trkpt><trkpt lat="44.36776723287802" lon="12.044393366404561"><ele>9.0</ele><time>2026-04-24T13:15:23Z</time></trkpt><trkpt lat="44.36769589392786" lon="12.044573800820677"><ele>9.0</ele><time>2026-04-24T13:15:24Z</time></trkpt><trkpt lat="44.36762472727802" lon="12.044759218331103"><ele>9.0</ele><time>2026-04-24T13:15:25Z</time></trkpt><trkpt lat="44.367552585662345" lon="12.04494445641512"><ele>8.333333333333334</ele><time>2026-04-24T13:15:26Z</time></trkpt><trkpt lat="44.36748007022351" lon="12.045132369634661"><ele>7.666666666666667</ele><time>2026-04-24T13:15:27Z</time></trkpt><trkpt lat="44.36740889180034" lon="12.0453219363764"><ele>7.0</ele><time>2026-04-24T13:15:28Z</time></trkpt><trkpt lat="44.36733364236721" lon="12.045509939365727"><ele>7.0</ele><time>2026-04-24T13:15:29Z</time></trkpt><trkpt lat="44.367260897930436" lon="12.04569990247251"><ele>7.0</ele><time>2026-04-24T13:15:30Z</time></trkpt><trkpt lat="44.36718501288249" lon="12.045893493325325"><ele>7.0</ele><time>2026-04-24T13:15:31Z</time></trkpt><trkpt lat="44.367109099376115" lon="12.046086278893512"><ele>7.0</ele><time>2026-04-24T13:15:32Z</time></trkpt><trkpt lat="44.36703176202213" lon="12.046276243062877"><ele>7.0</ele><time>2026-04-24T13:15:33Z</time></trkpt><trkpt lat="44.366962103163736" lon="12.046469371021253"><ele>7.0</ele><time>2026-04-24T13:15:34Z</time></trkpt><trkpt lat="44.366889027729826" lon="12.046660973340995"><ele>7.333333333333334</ele><time>2026-04-24T13:15:35Z</time></trkpt><trkpt lat="44.366814312040894" lon="12.046849289754027"><ele>7.666666666666666</ele><time>2026-04-24T13:15:36Z</time></trkpt><trkpt lat="44.36673726666493" lon="12.047042972367265"><ele>8.0</ele><time>2026-04-24T13:15:37Z</time></trkpt><trkpt lat="44.36666029907575" lon="12.047247830514282"><ele>8.0</ele><time>2026-04-24T13:15:38Z</time></trkpt><trkpt lat="44.36658500043381" lon="12.047455978099238"><ele>8.0</ele><time>2026-04-24T13:15:39Z</time></trkpt><trkpt lat="44.36650781561209" lon="12.047665572540943"><ele>8.0</ele><time>2026-04-24T13:15:40Z</time></trkpt><trkpt lat="44.36643900117083" lon="12.047859632332086"><ele>8.25</ele><time>2026-04-24T13:15:41Z</time></trkpt><trkpt lat="44.36637313085453" lon="12.04803517910329"><ele>8.5</ele><time>2026-04-24T13:15:42Z</time></trkpt><trkpt lat="44.366308586059354" lon="12.048199532619961"><ele>8.75</ele><time>2026-04-24T13:15:43Z</time></trkpt><trkpt lat="44.36624515635421" lon="12.048364449616985"><ele>9.0</ele><time>2026-04-24T13:15:44Z</time></trkpt><trkpt lat="44.36617416063405" lon="12.048530011740764"><ele>8.5</ele><time>2026-04-24T13:15:45Z</time></trkpt><trkpt lat="44.36610416048924" lon="12.048698845275242"><ele>8.0</ele><time>2026-04-24T13:15:46Z</time></trkpt><trkpt lat="44.366030587302895" lon="12.048875261606883"><ele>7.5</ele><time>2026-04-24T13:15:47Z</time></trkpt><trkpt lat="44.36595465077977" lon="12.04906030414101"><ele>7.0</ele><time>2026-04-24T13:15:48Z</time></trkpt><trkpt lat="44.36588012564334" lon="12.049250123298322"><ele>7.0</ele><time>2026-04-24T13:15:49Z</time></trkpt><trkpt lat="44.36580074745485" lon="12.049441268989291"><ele>7.0</ele><time>2026-04-24T13:15:50Z</time></trkpt><trkpt lat="44.365720263024876" lon="12.04963513264092"><ele>7.0</ele><time>2026-04-24T13:15:51Z</time></trkpt><trkpt lat="44.3656372719072" lon="12.049834029874111"><ele>7.0</ele><time>2026-04-24T13:15:52Z</time></trkpt><trkpt lat="44.36554958208774" lon="12.050038182047253"><ele>7.0</ele><time>2026-04-24T13:15:53Z</time></trkpt><trkpt lat="44.36546228421252" lon="12.050247534055417"><ele>7.0</ele><time>2026-04-24T13:15:54Z</time></trkpt><trkpt lat="44.36537343946144" lon="12.050464326229362"><ele>7.333333333333334</ele><time>2026-04-24T13:15:55Z</time></trkpt><trkpt lat="44.36528682711548" lon="12.050683905764535"><ele>7.666666666666666</ele><time>2026-04-24T13:15:56Z</time></trkpt><trkpt lat="44.365199094974145" lon="12.050907384080924"><ele>8.0</ele><time>2026-04-24T13:15:57Z</time></trkpt><trkpt lat="44.365106086062085" lon="12.05114157242028"><ele>7.333333333333333</ele><time>2026-04-24T13:15:58Z</time></trkpt><trkpt lat="44.36501768676854" lon="12.051374750590591"><ele>6.666666666666666</ele><time>2026-04-24T13:15:59Z</time></trkpt><trkpt lat="44.364928978834605" lon="12.051603990234465"><ele>6.0</ele><time>2026-04-24T13:16:00Z</time></trkpt><trkpt lat="44.36483930669438" lon="12.051832798668816"><ele>6.0</ele><time>2026-04-24T13:16:01Z</time></trkpt><trkpt lat="44.36475160971126" lon="12.052054662263071"><ele>6.0</ele><time>2026-04-24T13:16:02Z</time></trkpt><trkpt lat="44.36466360928835" lon="12.052276581320722"><ele>6.0</ele><time>2026-04-24T13:16:03Z</time></trkpt><trkpt lat="44.364577031845435" lon="12.052498989566075"><ele>6.666666666666666</ele><time>2026-04-24T13:16:04Z</time></trkpt><trkpt lat="44.36449347843269" lon="12.05271346794653"><ele>7.333333333333333</ele><time>2026-04-24T13:16:05Z</time></trkpt><trkpt lat="44.36441285298746" lon="12.052927199532006"><ele>8.0</ele><time>2026-04-24T13:16:06Z</time></trkpt><trkpt lat="44.36433520202218" lon="12.053141155829922"><ele>7.666666666666666</ele><time>2026-04-24T13:16:07Z</time></trkpt><trkpt lat="44.36425839332637" lon="12.053351635327855"><ele>7.333333333333334</ele><time>2026-04-24T13:16:08Z</time></trkpt><trkpt lat="44.36417998394369" lon="12.053556582032593"><ele>7.0</ele><time>2026-04-24T13:16:09Z</time></trkpt><trkpt lat="44.364100127070785" lon="12.053754047754692"><ele>7.0</ele><time>2026-04-24T13:16:10Z</time></trkpt><trkpt lat="44.36402068628668" lon="12.053955380923815"><ele>7.0</ele><time>2026-04-24T13:16:11Z</time></trkpt><trkpt lat="44.36394609074893" lon="12.05416365189441"><ele>7.0</ele><time>2026-04-24T13:16:12Z</time></trkpt><trkpt lat="44.36387198253067" lon="12.054366458042045"><ele>7.0</ele><time>2026-04-24T13:16:13Z</time></trkpt><trkpt lat="44.36379751089385" lon="12.054567189168804"><ele>7.0</ele><time>2026-04-24T13:16:14Z</time></trkpt><trkpt lat="44.363721657546726" lon="12.054767511797081"><ele>7.0</ele><time>2026-04-24T13:16:15Z</time></trkpt><trkpt lat="44.363645440887794" lon="12.054964652534604"><ele>7.0</ele><time>2026-04-24T13:16:16Z</time></trkpt><trkpt lat="44.36356340274973" lon="12.055168032758145"><ele>7.0</ele><time>2026-04-24T13:16:17Z</time></trkpt><trkpt lat="44.36347527338413" lon="12.055377906504345"><ele>7.0</ele><time>2026-04-24T13:16:18Z</time></trkpt><trkpt lat="44.36338711725468" lon="12.055593330030515"><ele>6.666666666666667</ele><time>2026-04-24T13:16:19Z</time></trkpt><trkpt lat="44.3632950234953" lon="12.055812334129628"><ele>6.333333333333334</ele><time>2026-04-24T13:16:20Z</time></trkpt><trkpt lat="44.36320285385165" lon="12.056033294740452"><ele>6.0</ele><time>2026-04-24T13:16:21Z</time></trkpt><trkpt lat="44.36310841584063" lon="12.056259729208826"><ele>6.0</ele><time>2026-04-24T13:16:22Z</time></trkpt><trkpt lat="44.36301224136014" lon="12.05648626144601"><ele>6.0</ele><time>2026-04-24T13:16:23Z</time></trkpt><trkpt lat="44.3629153726144" lon="12.056711071859821"><ele>6.0</ele><time>2026-04-24T13:16:24Z</time></trkpt><trkpt lat="44.362818964566515" lon="12.056938106339116"><ele>6.0</ele><time>2026-04-24T13:16:25Z</time></trkpt><trkpt lat="44.36272565119492" lon="12.057167260533792"><ele>6.0</ele><time>2026-04-24T13:16:26Z</time></trkpt><trkpt lat="44.36263046748538" lon="12.05739828389709"><ele>6.0</ele><time>2026-04-24T13:16:27Z</time></trkpt><trkpt lat="44.362534236272914" lon="12.057624824055086"><ele>6.0</ele><time>2026-04-24T13:16:28Z</time></trkpt><trkpt lat="44.362434246958436" lon="12.057845793172453"><ele>6.0</ele><time>2026-04-24T13:16:29Z</time></trkpt><trkpt lat="44.36233622994378" lon="12.058068355172844"><ele>6.0</ele><time>2026-04-24T13:16:30Z</time></trkpt><trkpt lat="44.36224595673458" lon="12.05829861988426"><ele>7.0</ele><time>2026-04-24T13:16:31Z</time></trkpt><trkpt lat="44.36216149928007" lon="12.058534525855135"><ele>8.0</ele><time>2026-04-24T13:16:32Z</time></trkpt><trkpt lat="44.362077810640514" lon="12.058779366724574"><ele>9.0</ele><time>2026-04-24T13:16:33Z</time></trkpt><trkpt lat="44.361994538975885" lon="12.059021817614635"><ele>8.666666666666666</ele><time>2026-04-24T13:16:34Z</time></trkpt><trkpt lat="44.36191109541086" lon="12.059267236519847"><ele>8.333333333333332</ele><time>2026-04-24T13:16:35Z</time></trkpt><trkpt lat="44.36182907501871" lon="12.059519161919667"><ele>8.0</ele><time>2026-04-24T13:16:36Z</time></trkpt><trkpt lat="44.361749908355044" lon="12.059776675977787"><ele>7.666666666666666</ele><time>2026-04-24T13:16:37Z</time></trkpt><trkpt lat="44.3616725324942" lon="12.060032395996634"><ele>7.333333333333334</ele><time>2026-04-24T13:16:38Z</time></trkpt><trkpt lat="44.361591772430955" lon="12.060306800943131"><ele>7.0</ele><time>2026-04-24T13:16:39Z</time></trkpt><trkpt lat="44.36151365778346" lon="12.060592427179607"><ele>6.0</ele><time>2026-04-24T13:16:40Z</time></trkpt><trkpt lat="44.36143480846279" lon="12.060884509519157"><ele>5.0</ele><time>2026-04-24T13:16:41Z</time></trkpt><trkpt lat="44.36135954387498" lon="12.06118363931802"><ele>3.0</ele><time>2026-04-24T13:16:42Z</time></trkpt><trkpt lat="44.361284040907066" lon="12.06148187265775"><ele>1.0</ele><time>2026-04-24T13:16:43Z</time></trkpt><trkpt lat="44.361207384669505" lon="12.061777325830828"><ele>1.0</ele><time>2026-04-24T13:16:44Z</time></trkpt><trkpt lat="44.36112976862414" lon="12.062067032250278"><ele>1.0</ele><time>2026-04-24T13:16:45Z</time></trkpt><trkpt lat="44.36105758194282" lon="12.062352101232742"><ele>1.0</ele><time>2026-04-24T13:16:46Z</time></trkpt><trkpt lat="44.36098371399181" lon="12.062633340950606"><ele>2.0</ele><time>2026-04-24T13:16:47Z</time></trkpt><trkpt lat="44.360914070322615" lon="12.062912852397051"><ele>3.0</ele><time>2026-04-24T13:16:48Z</time></trkpt><trkpt lat="44.36084416527118" lon="12.06320007565226"><ele>4.0</ele><time>2026-04-24T13:16:49Z</time></trkpt><trkpt lat="44.360770967977146" lon="12.063480429177574"><ele>4.666666666666666</ele><time>2026-04-24T13:16:50Z</time></trkpt><trkpt lat="44.36069480990891" lon="12.063759675615568"><ele>5.333333333333333</ele><time>2026-04-24T13:16:51Z</time></trkpt><trkpt lat="44.36061932965299" lon="12.064042290834712"><ele>6.0</ele><time>2026-04-24T13:16:52Z</time></trkpt><trkpt lat="44.36054570329969" lon="12.06431273840412"><ele>6.0</ele><time>2026-04-24T13:16:53Z</time></trkpt><trkpt lat="44.360476701034116" lon="12.064562980996524"><ele>6.0</ele><time>2026-04-24T13:16:54Z</time></trkpt><trkpt lat="44.360413076915584" lon="12.064799517054286"><ele>6.0</ele><time>2026-04-24T13:16:55Z</time></trkpt><trkpt lat="44.360347785782174" lon="12.065024562457165"><ele>5.666666666666667</ele><time>2026-04-24T13:16:56Z</time></trkpt><trkpt lat="44.36028633479386" lon="12.065249877904089"><ele>5.333333333333334</ele><time>2026-04-24T13:16:57Z</time></trkpt><trkpt lat="44.360227766419506" lon="12.065477354790909"><ele>5.0</ele><time>2026-04-24T13:16:58Z</time></trkpt><trkpt lat="44.3601687321966" lon="12.065692774566338"><ele>5.4</ele><time>2026-04-24T13:16:59Z</time></trkpt><trkpt lat="44.360110199077965" lon="12.0658899526759"><ele>5.8</ele><time>2026-04-24T13:17:00Z</time></trkpt><trkpt lat="44.36007304997282" lon="12.066019958516344"><ele>6.199999999999999</ele><time>2026-04-24T13:17:01Z</time></trkpt><trkpt lat="44.36009482212907" lon="12.0659372654417"><ele>6.6</ele><time>2026-04-24T13:17:08Z</time></trkpt><trkpt lat="44.36006155332176" lon="12.066047389603318"><ele>7.0</ele><time>2026-04-24T13:17:16Z</time></trkpt><trkpt lat="44.36000055727" lon="12.066226697424272"><ele>7.0</ele><time>2026-04-24T13:17:18Z</time></trkpt><trkpt lat="44.359957106770125" lon="12.066372866229948"><ele>6.999999999999999</ele><time>2026-04-24T13:17:19Z</time></trkpt><trkpt lat="44.359913847064796" lon="12.066515598370705"><ele>6.999999999999999</ele><time>2026-04-24T13:17:20Z</time></trkpt><trkpt lat="44.35987457984777" lon="12.066648295376048"><ele>7.0</ele><time>2026-04-24T13:17:21Z</time></trkpt><trkpt lat="44.35983567910954" lon="12.06677422234902"><ele>7.0</ele><time>2026-04-24T13:17:22Z</time></trkpt><trkpt lat="44.35979049594465" lon="12.06691613699642"><ele>7.0</ele><time>2026-04-24T13:17:23Z</time></trkpt><trkpt lat="44.359747938876666" lon="12.067070006479506"><ele>7.0</ele><time>2026-04-24T13:17:24Z</time></trkpt><trkpt lat="44.35970238559419" lon="12.067229186020322"><ele>7.0</ele><time>2026-04-24T13:17:25Z</time></trkpt><trkpt lat="44.35964773977467" lon="12.067410123324777"><ele>7.0</ele><time>2026-04-24T13:17:26Z</time></trkpt><trkpt lat="44.3595877664992" lon="12.067597892300178"><ele>6.666666666666667</ele><time>2026-04-24T13:17:27Z</time></trkpt><trkpt lat="44.35952567872172" lon="12.06778987232045"><ele>6.333333333333334</ele><time>2026-04-24T13:17:28Z</time></trkpt><trkpt lat="44.359463379979545" lon="12.06798657028804"><ele>6.0</ele><time>2026-04-24T13:17:29Z</time></trkpt><trkpt lat="44.35940097710365" lon="12.06818625370761"><ele>6.333333333333334</ele><time>2026-04-24T13:17:30Z</time></trkpt><trkpt lat="44.35933904842113" lon="12.068392262112004"><ele>6.666666666666667</ele><time>2026-04-24T13:17:31Z</time></trkpt><trkpt lat="44.35927592388047" lon="12.068600777149442"><ele>7.0</ele><time>2026-04-24T13:17:32Z</time></trkpt><trkpt lat="44.35921292043076" lon="12.068812155629676"><ele>7.0</ele><time>2026-04-24T13:17:33Z</time></trkpt><trkpt lat="44.35915055938877" lon="12.069018891078386"><ele>7.0</ele><time>2026-04-24T13:17:34Z</time></trkpt><trkpt lat="44.359090112447085" lon="12.069222304362265"><ele>7.0</ele><time>2026-04-24T13:17:35Z</time></trkpt><trkpt lat="44.35902845248309" lon="12.069420267567862"><ele>7.25</ele><time>2026-04-24T13:17:36Z</time></trkpt><trkpt lat="44.35897079679028" lon="12.069610474482904"><ele>7.5</ele><time>2026-04-24T13:17:37Z</time></trkpt><trkpt lat="44.35891347646095" lon="12.069796314998989"><ele>7.75</ele><time>2026-04-24T13:17:38Z</time></trkpt><trkpt lat="44.358854382173384" lon="12.069981964405606"><ele>8.0</ele><time>2026-04-24T13:17:39Z</time></trkpt><trkpt lat="44.35879793676574" lon="12.070160531665742"><ele>8.0</ele><time>2026-04-24T13:17:40Z</time></trkpt><trkpt lat="44.35874335033658" lon="12.070343325909398"><ele>8.0</ele><time>2026-04-24T13:17:41Z</time></trkpt><trkpt lat="44.35868719653416" lon="12.070523586637128"><ele>8.0</ele><time>2026-04-24T13:17:42Z</time></trkpt><trkpt lat="44.35863053674979" lon="12.070701478066884"><ele>8.0</ele><time>2026-04-24T13:17:43Z</time></trkpt><trkpt lat="44.35857081019628" lon="12.070881316487407"><ele>8.0</ele><time>2026-04-24T13:17:44Z</time></trkpt><trkpt lat="44.35851270847742" lon="12.07106722927738"><ele>8.0</ele><time>2026-04-24T13:17:45Z</time></trkpt><trkpt lat="44.35845141960588" lon="12.07125201151332"><ele>8.0</ele><time>2026-04-24T13:17:46Z</time></trkpt><trkpt lat="44.358392542778184" lon="12.071446109042745"><ele>8.0</ele><time>2026-04-24T13:17:47Z</time></trkpt><trkpt lat="44.35833362214876" lon="12.071642100596264"><ele>8.0</ele><time>2026-04-24T13:17:48Z</time></trkpt><trkpt lat="44.358273213797816" lon="12.071836794617614"><ele>8.0</ele><time>2026-04-24T13:17:49Z</time></trkpt><trkpt lat="44.358210245004194" lon="12.07203602051883"><ele>8.0</ele><time>2026-04-24T13:17:50Z</time></trkpt><trkpt lat="44.35814502982284" lon="12.072234128920464"><ele>8.0</ele><time>2026-04-24T13:17:51Z</time></trkpt><trkpt lat="44.35807917773935" lon="12.07242998365403"><ele>8.0</ele><time>2026-04-24T13:17:52Z</time></trkpt><trkpt lat="44.35801237524743" lon="12.072631287345379"><ele>8.0</ele><time>2026-04-24T13:17:53Z</time></trkpt><trkpt lat="44.357951904603226" lon="12.072837684081273"><ele>7.75</ele><time>2026-04-24T13:17:54Z</time></trkpt><trkpt lat="44.35789125097001" lon="12.073042891171626"><ele>7.5</ele><time>2026-04-24T13:17:55Z</time></trkpt><trkpt lat="44.35783212446612" lon="12.073229127612974"><ele>7.25</ele><time>2026-04-24T13:17:56Z</time></trkpt><trkpt lat="44.35777517572947" lon="12.073415397261911"><ele>7.0</ele><time>2026-04-24T13:17:57Z</time></trkpt><trkpt lat="44.3577187052584" lon="12.073598292131006"><ele>7.0</ele><time>2026-04-24T13:17:58Z</time></trkpt><trkpt lat="44.3576583027608" lon="12.07378135806137"><ele>7.0</ele><time>2026-04-24T13:17:59Z</time></trkpt><trkpt lat="44.357598916999514" lon="12.073969510436262"><ele>7.0</ele><time>2026-04-24T13:18:00Z</time></trkpt><trkpt lat="44.35754062693607" lon="12.074158114829718"><ele>7.0</ele><time>2026-04-24T13:18:01Z</time></trkpt><trkpt lat="44.357483449766065" lon="12.074354055595714"><ele>7.333333333333334</ele><time>2026-04-24T13:18:02Z</time></trkpt><trkpt lat="44.35742459990819" lon="12.074549579940967"><ele>7.666666666666666</ele><time>2026-04-24T13:18:03Z</time></trkpt><trkpt lat="44.357360780038356" lon="12.074748913157793"><ele>8.0</ele><time>2026-04-24T13:18:04Z</time></trkpt><trkpt lat="44.357294909850296" lon="12.074956066524159"><ele>8.0</ele><time>2026-04-24T13:18:05Z</time></trkpt><trkpt lat="44.35723031690659" lon="12.07516641153309"><ele>8.0</ele><time>2026-04-24T13:18:06Z</time></trkpt><trkpt lat="44.35716368431893" lon="12.075383334050374"><ele>8.0</ele><time>2026-04-24T13:18:07Z</time></trkpt><trkpt lat="44.35709613820053" lon="12.075602371521683"><ele>7.666666666666666</ele><time>2026-04-24T13:18:08Z</time></trkpt><trkpt lat="44.3570257176234" lon="12.075825329179535"><ele>7.333333333333334</ele><time>2026-04-24T13:18:09Z</time></trkpt><trkpt lat="44.356952970129825" lon="12.076049675685356"><ele>7.0</ele><time>2026-04-24T13:18:10Z</time></trkpt><trkpt lat="44.356882994477964" lon="12.076274380681657"><ele>7.0</ele><time>2026-04-24T13:18:11Z</time></trkpt><trkpt lat="44.35681736705473" lon="12.076490145150114"><ele>7.0</ele><time>2026-04-24T13:18:12Z</time></trkpt><trkpt lat="44.35675499560174" lon="12.076692970769901"><ele>7.0</ele><time>2026-04-24T13:18:13Z</time></trkpt><trkpt lat="44.35668837040099" lon="12.076900435826625"><ele>7.0</ele><time>2026-04-24T13:18:14Z</time></trkpt><trkpt lat="44.356619509142206" lon="12.07711331372145"><ele>7.0</ele><time>2026-04-24T13:18:15Z</time></trkpt><trkpt lat="44.35655050096698" lon="12.077333400846745"><ele>7.0</ele><time>2026-04-24T13:18:16Z</time></trkpt><trkpt lat="44.35648174531627" lon="12.07756195429335"><ele>7.0</ele><time>2026-04-24T13:18:17Z</time></trkpt><trkpt lat="44.356412603309664" lon="12.077792953306115"><ele>7.0</ele><time>2026-04-24T13:18:18Z</time></trkpt><trkpt lat="44.3563413136544" lon="12.078024130541555"><ele>7.0</ele><time>2026-04-24T13:18:19Z</time></trkpt><trkpt lat="44.35626676449372" lon="12.078260262523123"><ele>7.333333333333334</ele><time>2026-04-24T13:18:20Z</time></trkpt><trkpt lat="44.35618977515519" lon="12.07849874440303"><ele>7.666666666666666</ele><time>2026-04-24T13:18:21Z</time></trkpt><trkpt lat="44.35611107348362" lon="12.078747888509264"><ele>8.0</ele><time>2026-04-24T13:18:22Z</time></trkpt><trkpt lat="44.35603264305751" lon="12.079002665721204"><ele>8.0</ele><time>2026-04-24T13:18:23Z</time></trkpt><trkpt lat="44.35595123871" lon="12.079257271745938"><ele>8.0</ele><time>2026-04-24T13:18:24Z</time></trkpt><trkpt lat="44.35586987769705" lon="12.07950744139814"><ele>8.0</ele><time>2026-04-24T13:18:25Z</time></trkpt><trkpt lat="44.35579162768938" lon="12.079759920530007"><ele>8.0</ele><time>2026-04-24T13:18:26Z</time></trkpt><trkpt lat="44.3557162621587" lon="12.08001096995718"><ele>8.0</ele><time>2026-04-24T13:18:27Z</time></trkpt><trkpt lat="44.35563898298931" lon="12.080264062090531"><ele>8.0</ele><time>2026-04-24T13:18:28Z</time></trkpt><trkpt lat="44.35555983967605" lon="12.08051663004039"><ele>8.0</ele><time>2026-04-24T13:18:29Z</time></trkpt><trkpt lat="44.355479024997315" lon="12.080769201929554"><ele>8.0</ele><time>2026-04-24T13:18:30Z</time></trkpt><trkpt lat="44.35539567262435" lon="12.081017702916279"><ele>8.0</ele><time>2026-04-24T13:18:31Z</time></trkpt><trkpt lat="44.35531591136411" lon="12.08126340839694"><ele>8.0</ele><time>2026-04-24T13:18:32Z</time></trkpt><trkpt lat="44.355241260682725" lon="12.081511072820266"><ele>8.0</ele><time>2026-04-24T13:18:33Z</time></trkpt><trkpt lat="44.355166961876115" lon="12.081758499402158"><ele>8.0</ele><time>2026-04-24T13:18:34Z</time></trkpt><trkpt lat="44.35508685645476" lon="12.08200657185933"><ele>7.666666666666666</ele><time>2026-04-24T13:18:35Z</time></trkpt><trkpt lat="44.35500800144003" lon="12.08224891914886"><ele>7.333333333333334</ele><time>2026-04-24T13:18:36Z</time></trkpt><trkpt lat="44.35493274844056" lon="12.08249032430323"><ele>7.0</ele><time>2026-04-24T13:18:37Z</time></trkpt><trkpt lat="44.35485935675753" lon="12.082724532444127"><ele>7.0</ele><time>2026-04-24T13:18:38Z</time></trkpt><trkpt lat="44.354789329731595" lon="12.082951902538355"><ele>7.0</ele><time>2026-04-24T13:18:39Z</time></trkpt><trkpt lat="44.35471830405716" lon="12.083178003462091"><ele>7.0</ele><time>2026-04-24T13:18:40Z</time></trkpt><trkpt lat="44.35464854865318" lon="12.083406060282485"><ele>7.0</ele><time>2026-04-24T13:18:41Z</time></trkpt><trkpt lat="44.35457730367222" lon="12.083634829617331"><ele>7.0</ele><time>2026-04-24T13:18:42Z</time></trkpt><trkpt lat="44.3545034601178" lon="12.083864289620063"><ele>7.0</ele><time>2026-04-24T13:18:43Z</time></trkpt><trkpt lat="44.35442987077873" lon="12.084095971558819"><ele>7.333333333333334</ele><time>2026-04-24T13:18:44Z</time></trkpt><trkpt lat="44.35436040427355" lon="12.084319934012054"><ele>7.666666666666666</ele><time>2026-04-24T13:18:45Z</time></trkpt><trkpt lat="44.35429578953651" lon="12.08452499790751"><ele>8.0</ele><time>2026-04-24T13:18:46Z</time></trkpt><trkpt lat="44.35423450913812" lon="12.084731955973798"><ele>8.0</ele><time>2026-04-24T13:18:47Z</time></trkpt><trkpt lat="44.354171857687845" lon="12.084946110399663"><ele>8.0</ele><time>2026-04-24T13:18:48Z</time></trkpt><trkpt lat="44.354104828060215" lon="12.085162130321248"><ele>8.0</ele><time>2026-04-24T13:18:49Z</time></trkpt><trkpt lat="44.35403442523216" lon="12.085378864671107"><ele>8.0</ele><time>2026-04-24T13:18:50Z</time></trkpt><trkpt lat="44.35396763791809" lon="12.085592485042264"><ele>8.0</ele><time>2026-04-24T13:18:51Z</time></trkpt><trkpt lat="44.35391203292571" lon="12.085814221549088"><ele>8.0</ele><time>2026-04-24T13:18:52Z</time></trkpt><trkpt lat="44.353865529081126" lon="12.086039739362782"><ele>8.0</ele><time>2026-04-24T13:18:53Z</time></trkpt><trkpt lat="44.353835790359604" lon="12.08627259739979"><ele>8.0</ele><time>2026-04-24T13:18:54Z</time></trkpt><trkpt lat="44.35380595122398" lon="12.086505830899664"><ele>8.0</ele><time>2026-04-24T13:18:55Z</time></trkpt><trkpt lat="44.35378428571048" lon="12.086739192120104"><ele>8.0</ele><time>2026-04-24T13:18:56Z</time></trkpt><trkpt lat="44.35376771223352" lon="12.086977473423412"><ele>8.0</ele><time>2026-04-24T13:18:57Z</time></trkpt><trkpt lat="44.3537516570797" lon="12.087218416674682"><ele>8.0</ele><time>2026-04-24T13:18:58Z</time></trkpt><trkpt lat="44.35373523286458" lon="12.087457061278265"><ele>8.0</ele><time>2026-04-24T13:18:59Z</time></trkpt><trkpt lat="44.35371866634467" lon="12.087690406870248"><ele>8.0</ele><time>2026-04-24T13:19:00Z</time></trkpt><trkpt lat="44.3537006793304" lon="12.08791984062745"><ele>8.0</ele><time>2026-04-24T13:19:01Z</time></trkpt><trkpt lat="44.35368167606886" lon="12.088142596479663"><ele>8.0</ele><time>2026-04-24T13:19:02Z</time></trkpt><trkpt lat="44.35366328841354" lon="12.088363394066764"><ele>8.0</ele><time>2026-04-24T13:19:03Z</time></trkpt><trkpt lat="44.353648153166105" lon="12.088581029334607"><ele>8.0</ele><time>2026-04-24T13:19:04Z</time></trkpt><trkpt lat="44.35361954230562" lon="12.088799555885231"><ele>8.0</ele><time>2026-04-24T13:19:05Z</time></trkpt><trkpt lat="44.35358993061365" lon="12.089023633212616"><ele>8.0</ele><time>2026-04-24T13:19:06Z</time></trkpt><trkpt lat="44.353562105970965" lon="12.089251684434121"><ele>8.0</ele><time>2026-04-24T13:19:07Z</time></trkpt><trkpt lat="44.35353171336478" lon="12.089482791225931"><ele>8.0</ele><time>2026-04-24T13:19:08Z</time></trkpt><trkpt lat="44.35350239217914" lon="12.089716618958679"><ele>8.0</ele><time>2026-04-24T13:19:09Z</time></trkpt><trkpt lat="44.35346612686034" lon="12.089945211040796"><ele>8.0</ele><time>2026-04-24T13:19:10Z</time></trkpt><trkpt lat="44.35342086854703" lon="12.090171248172805"><ele>8.333333333333332</ele><time>2026-04-24T13:19:11Z</time></trkpt><trkpt lat="44.353371184618815" lon="12.090404957707538"><ele>8.666666666666666</ele><time>2026-04-24T13:19:12Z</time></trkpt><trkpt lat="44.35331940430795" lon="12.090648104307107"><ele>9.0</ele><time>2026-04-24T13:19:13Z</time></trkpt><trkpt lat="44.353268089494634" lon="12.090897711149566"><ele>8.333333333333334</ele><time>2026-04-24T13:19:14Z</time></trkpt><trkpt lat="44.35321389492671" lon="12.091152350971106"><ele>7.666666666666667</ele><time>2026-04-24T13:19:15Z</time></trkpt><trkpt lat="44.353159040457385" lon="12.091407297491608"><ele>7.0</ele><time>2026-04-24T13:19:16Z</time></trkpt><trkpt lat="44.353096501880984" lon="12.091665863738939"><ele>6.666666666666667</ele><time>2026-04-24T13:19:17Z</time></trkpt><trkpt lat="44.353024696269905" lon="12.091919769184745"><ele>6.333333333333334</ele><time>2026-04-24T13:19:18Z</time></trkpt><trkpt lat="44.35294533230506" lon="12.092169530373013"><ele>6.0</ele><time>2026-04-24T13:19:19Z</time></trkpt><trkpt lat="44.352857507152265" lon="12.092427573190491"><ele>5.666666666666667</ele><time>2026-04-24T13:19:20Z</time></trkpt><trkpt lat="44.35275925642709" lon="12.092687507465564"><ele>5.333333333333334</ele><time>2026-04-24T13:19:21Z</time></trkpt><trkpt lat="44.35265709619988" lon="12.092946801216195"><ele>5.0</ele><time>2026-04-24T13:19:22Z</time></trkpt><trkpt lat="44.352548952377006" lon="12.09319914648006"><ele>5.0</ele><time>2026-04-24T13:19:23Z</time></trkpt><trkpt lat="44.35242573697577" lon="12.093441420331478"><ele>5.0</ele><time>2026-04-24T13:19:24Z</time></trkpt><trkpt lat="44.352289044154055" lon="12.09367056006192"><ele>5.0</ele><time>2026-04-24T13:19:25Z</time></trkpt><trkpt lat="44.35214092512423" lon="12.093885540755004"><ele>5.333333333333334</ele><time>2026-04-24T13:19:26Z</time></trkpt><trkpt lat="44.35198445118229" lon="12.094091534139562"><ele>5.666666666666667</ele><time>2026-04-24T13:19:27Z</time></trkpt><trkpt lat="44.35182557227349" lon="12.094293928463772"><ele>6.0</ele><time>2026-04-24T13:19:28Z</time></trkpt><trkpt lat="44.35166830832461" lon="12.094494420063686"><ele>6.0</ele><time>2026-04-24T13:19:29Z</time></trkpt><trkpt lat="44.35151017214971" lon="12.094700064491454"><ele>6.0</ele><time>2026-04-24T13:19:30Z</time></trkpt><trkpt lat="44.351353178422606" lon="12.094911234236704"><ele>6.0</ele><time>2026-04-24T13:19:31Z</time></trkpt><trkpt lat="44.351194524535885" lon="12.095119893499557"><ele>6.0</ele><time>2026-04-24T13:19:32Z</time></trkpt><trkpt lat="44.351034619211326" lon="12.095331519225217"><ele>6.0</ele><time>2026-04-24T13:19:33Z</time></trkpt><trkpt lat="44.35087660303159" lon="12.095549423294457"><ele>6.0</ele><time>2026-04-24T13:19:34Z</time></trkpt><trkpt lat="44.35072352088376" lon="12.09577143227313"><ele>6.0</ele><time>2026-04-24T13:19:35Z</time></trkpt><trkpt lat="44.35057924620393" lon="12.096000327620343"><ele>6.0</ele><time>2026-04-24T13:19:36Z</time></trkpt><trkpt lat="44.35044293697025" lon="12.096236751617795"><ele>6.0</ele><time>2026-04-24T13:19:37Z</time></trkpt><trkpt lat="44.35030987810062" lon="12.096477684352665"><ele>5.666666666666667</ele><time>2026-04-24T13:19:38Z</time></trkpt><trkpt lat="44.35017814866528" lon="12.096720585492628"><ele>5.333333333333334</ele><time>2026-04-24T13:19:39Z</time></trkpt><trkpt lat="44.3500446102484" lon="12.096959975891252"><ele>5.0</ele><time>2026-04-24T13:19:40Z</time></trkpt><trkpt lat="44.34990520311914" lon="12.097195771183005"><ele>4.666666666666667</ele><time>2026-04-24T13:19:41Z</time></trkpt><trkpt lat="44.349766378122354" lon="12.097432544398746"><ele>4.333333333333333</ele><time>2026-04-24T13:19:42Z</time></trkpt><trkpt lat="44.34961936203424" lon="12.097654577338506"><ele>4.0</ele><time>2026-04-24T13:19:43Z</time></trkpt><trkpt lat="44.3494620647554" lon="12.097864650459845"><ele>4.666666666666666</ele><time>2026-04-24T13:19:44Z</time></trkpt><trkpt lat="44.349300675247385" lon="12.098067733631336"><ele>5.333333333333333</ele><time>2026-04-24T13:19:45Z</time></trkpt><trkpt lat="44.34913912072057" lon="12.098263088654774"><ele>6.0</ele><time>2026-04-24T13:19:46Z</time></trkpt><trkpt lat="44.34897978586745" lon="12.098467188000743"><ele>6.0</ele><time>2026-04-24T13:19:47Z</time></trkpt><trkpt lat="44.348831196915405" lon="12.098689645682686"><ele>6.0</ele><time>2026-04-24T13:19:48Z</time></trkpt><trkpt lat="44.348693416713026" lon="12.098913522333463"><ele>6.0</ele><time>2026-04-24T13:19:49Z</time></trkpt><trkpt lat="44.348559190538545" lon="12.09914928408989"><ele>6.0</ele><time>2026-04-24T13:19:50Z</time></trkpt><trkpt lat="44.34843643102221" lon="12.099405101739661"><ele>6.0</ele><time>2026-04-24T13:19:51Z</time></trkpt><trkpt lat="44.348330372682376" lon="12.09967456652955"><ele>6.0</ele><time>2026-04-24T13:19:52Z</time></trkpt><trkpt lat="44.34823530269003" lon="12.099945724996957"><ele>6.0</ele><time>2026-04-24T13:19:53Z</time></trkpt><trkpt lat="44.34814888081569" lon="12.100225176295258"><ele>6.0</ele><time>2026-04-24T13:19:54Z</time></trkpt><trkpt lat="44.34806727127174" lon="12.100510046903771"><ele>6.0</ele><time>2026-04-24T13:19:55Z</time></trkpt><trkpt lat="44.34798955870266" lon="12.100796632384903"><ele>5.0</ele><time>2026-04-24T13:19:56Z</time></trkpt><trkpt lat="44.347920735013346" lon="12.101089156334078"><ele>4.0</ele><time>2026-04-24T13:19:57Z</time></trkpt><trkpt lat="44.34786181142222" lon="12.10138148717958"><ele>3.0</ele><time>2026-04-24T13:19:58Z</time></trkpt><trkpt lat="44.34781617337924" lon="12.101677610137028"><ele>3.0</ele><time>2026-04-24T13:19:59Z</time></trkpt><trkpt lat="44.34778463898268" lon="12.101973930282035"><ele>3.0</ele><time>2026-04-24T13:20:00Z</time></trkpt><trkpt lat="44.34776372326607" lon="12.102272811900965"><ele>3.0</ele><time>2026-04-24T13:20:01Z</time></trkpt><trkpt lat="44.34775118062169" lon="12.102576262144805"><ele>3.333333333333333</ele><time>2026-04-24T13:20:02Z</time></trkpt><trkpt lat="44.34774365970969" lon="12.10287998895156"><ele>3.6666666666666665</ele><time>2026-04-24T13:20:03Z</time></trkpt><trkpt lat="44.34773041829431" lon="12.103183145805676"><ele>4.0</ele><time>2026-04-24T13:20:04Z</time></trkpt><trkpt lat="44.34771198233211" lon="12.103485612445462"><ele>4.333333333333333</ele><time>2026-04-24T13:20:05Z</time></trkpt><trkpt lat="44.34769441063892" lon="12.103791525010472"><ele>4.666666666666667</ele><time>2026-04-24T13:20:06Z</time></trkpt><trkpt lat="44.347675429363285" lon="12.10409401477731"><ele>5.0</ele><time>2026-04-24T13:20:07Z</time></trkpt><trkpt lat="44.34765355350155" lon="12.104392195972181"><ele>5.0</ele><time>2026-04-24T13:20:08Z</time></trkpt><trkpt lat="44.347619497139526" lon="12.10469122343291"><ele>5.0</ele><time>2026-04-24T13:20:09Z</time></trkpt><trkpt lat="44.34757482924666" lon="12.104989837516145"><ele>5.0</ele><time>2026-04-24T13:20:10Z</time></trkpt><trkpt lat="44.34751895495173" lon="12.105283234587914"><ele>5.0</ele><time>2026-04-24T13:20:11Z</time></trkpt><trkpt lat="44.34745764405777" lon="12.105574025928714"><ele>5.0</ele><time>2026-04-24T13:20:12Z</time></trkpt><trkpt lat="44.347390785882816" lon="12.105863087061"><ele>5.0</ele><time>2026-04-24T13:20:13Z</time></trkpt><trkpt lat="44.34731308143039" lon="12.106147755198204"><ele>4.666666666666667</ele><time>2026-04-24T13:20:14Z</time></trkpt><trkpt lat="44.34723095186958" lon="12.106427424972075"><ele>4.333333333333333</ele><time>2026-04-24T13:20:15Z</time></trkpt><trkpt lat="44.34713494285678" lon="12.10670073583948"><ele>4.0</ele><time>2026-04-24T13:20:16Z</time></trkpt><trkpt lat="44.34702051481716" lon="12.106962116165437"><ele>4.0</ele><time>2026-04-24T13:20:17Z</time></trkpt><trkpt lat="44.34690443467988" lon="12.107222745247938"><ele>4.0</ele><time>2026-04-24T13:20:18Z</time></trkpt><trkpt lat="44.346787422208955" lon="12.107478624525958"><ele>4.0</ele><time>2026-04-24T13:20:19Z</time></trkpt><trkpt lat="44.34665563971409" lon="12.107719782693444"><ele>4.0</ele><time>2026-04-24T13:20:20Z</time></trkpt><trkpt lat="44.34651916050742" lon="12.107960454504582"><ele>4.0</ele><time>2026-04-24T13:20:21Z</time></trkpt><trkpt lat="44.3463748218108" lon="12.108194741665619"><ele>4.0</ele><time>2026-04-24T13:20:22Z</time></trkpt><trkpt lat="44.34622625772558" lon="12.108418348186053"><ele>4.0</ele><time>2026-04-24T13:20:23Z</time></trkpt><trkpt lat="44.34607297774336" lon="12.10863377311027"><ele>4.0</ele><time>2026-04-24T13:20:24Z</time></trkpt><trkpt lat="44.34591787902687" lon="12.10884815253512"><ele>4.0</ele><time>2026-04-24T13:20:25Z</time></trkpt><trkpt lat="44.345762186971875" lon="12.109062617015628"><ele>4.333333333333333</ele><time>2026-04-24T13:20:26Z</time></trkpt><trkpt lat="44.34561323138332" lon="12.109284338516924"><ele>4.666666666666667</ele><time>2026-04-24T13:20:27Z</time></trkpt><trkpt lat="44.34547628664605" lon="12.109519980048177"><ele>5.0</ele><time>2026-04-24T13:20:28Z</time></trkpt><trkpt lat="44.34535030068416" lon="12.109767350272708"><ele>5.333333333333334</ele><time>2026-04-24T13:20:29Z</time></trkpt><trkpt lat="44.34524043513357" lon="12.11002741629818"><ele>5.666666666666667</ele><time>2026-04-24T13:20:30Z</time></trkpt><trkpt lat="44.34514776517712" lon="12.110302385610792"><ele>6.0</ele><time>2026-04-24T13:20:31Z</time></trkpt><trkpt lat="44.345069723569516" lon="12.110589337856936"><ele>6.0</ele><time>2026-04-24T13:20:32Z</time></trkpt><trkpt lat="44.34500852807695" lon="12.110885072784228"><ele>6.0</ele><time>2026-04-24T13:20:33Z</time></trkpt><trkpt lat="44.34496628620344" lon="12.111184591394672"><ele>6.0</ele><time>2026-04-24T13:20:34Z</time></trkpt><trkpt lat="44.34493853610479" lon="12.111490835016035"><ele>5.666666666666667</ele><time>2026-04-24T13:20:35Z</time></trkpt><trkpt lat="44.34492386824185" lon="12.111794684361644"><ele>5.333333333333334</ele><time>2026-04-24T13:20:36Z</time></trkpt><trkpt lat="44.34491884140403" lon="12.11209697763405"><ele>5.0</ele><time>2026-04-24T13:20:37Z</time></trkpt><trkpt lat="44.34492329935879" lon="12.112401381714502"><ele>5.0</ele><time>2026-04-24T13:20:38Z</time></trkpt><trkpt lat="44.34493331723132" lon="12.112680215433846"><ele>5.0</ele><time>2026-04-24T13:20:39Z</time></trkpt><trkpt lat="44.344942575038395" lon="12.112935967313662"><ele>5.0</ele><time>2026-04-24T13:20:40Z</time></trkpt><trkpt lat="44.3449491384174" lon="12.113168486005906"><ele>5.25</ele><time>2026-04-24T13:20:41Z</time></trkpt><trkpt lat="44.344953108665656" lon="12.11337609703503"><ele>5.5</ele><time>2026-04-24T13:20:42Z</time></trkpt><trkpt lat="44.34495793687723" lon="12.113564651699113"><ele>5.75</ele><time>2026-04-24T13:20:43Z</time></trkpt><trkpt lat="44.34497868648866" lon="12.113744814547912"><ele>6.0</ele><time>2026-04-24T13:20:44Z</time></trkpt><trkpt lat="44.3450209431089" lon="12.113929128762683"><ele>5.666666666666667</ele><time>2026-04-24T13:20:45Z</time></trkpt><trkpt lat="44.34508716433121" lon="12.114110569343797"><ele>5.333333333333334</ele><time>2026-04-24T13:20:46Z</time></trkpt><trkpt lat="44.34517433132121" lon="12.114291282883944"><ele>5.0</ele><time>2026-04-24T13:20:47Z</time></trkpt><trkpt lat="44.345278716435594" lon="12.11446756728593"><ele>5.0</ele><time>2026-04-24T13:20:48Z</time></trkpt><trkpt lat="44.34539602693503" lon="12.114640533022516"><ele>5.0</ele><time>2026-04-24T13:20:49Z</time></trkpt><trkpt lat="44.34552018113992" lon="12.114812637244055"><ele>5.0</ele><time>2026-04-24T13:20:50Z</time></trkpt><trkpt lat="44.34564694195429" lon="12.114970544478387"><ele>5.333333333333334</ele><time>2026-04-24T13:20:51Z</time></trkpt><trkpt lat="44.345771556225294" lon="12.115106690458763"><ele>5.666666666666667</ele><time>2026-04-24T13:20:52Z</time></trkpt><trkpt lat="44.34590198337688" lon="12.115231870804488"><ele>6.0</ele><time>2026-04-24T13:20:53Z</time></trkpt><trkpt lat="44.34604066586978" lon="12.115340049368806"><ele>6.0</ele><time>2026-04-24T13:20:54Z</time></trkpt><trkpt lat="44.34618664122476" lon="12.115438615944568"><ele>6.0</ele><time>2026-04-24T13:20:55Z</time></trkpt><trkpt lat="44.346332251262545" lon="12.11552809233979"><ele>6.0</ele><time>2026-04-24T13:20:56Z</time></trkpt><trkpt lat="44.346481127180844" lon="12.115602521153528"><ele>5.666666666666667</ele><time>2026-04-24T13:20:57Z</time></trkpt><trkpt lat="44.34663036186089" lon="12.115659538218761"><ele>5.333333333333334</ele><time>2026-04-24T13:20:58Z</time></trkpt><trkpt lat="44.34677382616039" lon="12.115710453944839"><ele>5.0</ele><time>2026-04-24T13:20:59Z</time></trkpt><trkpt lat="44.346916563992224" lon="12.115766666443317"><ele>5.25</ele><time>2026-04-24T13:21:00Z</time></trkpt><trkpt lat="44.34705633680958" lon="12.115837047312242"><ele>5.5</ele><time>2026-04-24T13:21:01Z</time></trkpt><trkpt lat="44.34719188192022" lon="12.115914416280471"><ele>5.75</ele><time>2026-04-24T13:21:02Z</time></trkpt><trkpt lat="44.347324692594626" lon="12.115997468433262"><ele>6.0</ele><time>2026-04-24T13:21:03Z</time></trkpt><trkpt lat="44.347455075193686" lon="12.116089251761927"><ele>6.0</ele><time>2026-04-24T13:21:04Z</time></trkpt><trkpt lat="44.347583341017256" lon="12.116189100070452"><ele>6.0</ele><time>2026-04-24T13:21:05Z</time></trkpt><trkpt lat="44.34771061439752" lon="12.11629903633711"><ele>6.0</ele><time>2026-04-24T13:21:06Z</time></trkpt><trkpt lat="44.34783470831483" lon="12.116419893553976"><ele>6.0</ele><time>2026-04-24T13:21:07Z</time></trkpt><trkpt lat="44.34795292944436" lon="12.116548439832009"><ele>5.75</ele><time>2026-04-24T13:21:08Z</time></trkpt><trkpt lat="44.34808044647992" lon="12.116659766613228"><ele>5.5</ele><time>2026-04-24T13:21:09Z</time></trkpt><trkpt lat="44.34821406259386" lon="12.116752403364886"><ele>5.25</ele><time>2026-04-24T13:21:10Z</time></trkpt><trkpt lat="44.348351634264766" lon="12.116833482951279"><ele>5.0</ele><time>2026-04-24T13:21:11Z</time></trkpt><trkpt lat="44.348492236039014" lon="12.116908971181356"><ele>5.0</ele><time>2026-04-24T13:21:12Z</time></trkpt><trkpt lat="44.348633227601375" lon="12.11699519567089"><ele>5.0</ele><time>2026-04-24T13:21:13Z</time></trkpt><trkpt lat="44.34876983551863" lon="12.117095993048405"><ele>5.0</ele><time>2026-04-24T13:21:14Z</time></trkpt><trkpt lat="44.34889792599465" lon="12.117216880404074"><ele>4.75</ele><time>2026-04-24T13:21:15Z</time></trkpt><trkpt lat="44.349018097634136" lon="12.117345061460334"><ele>4.5</ele><time>2026-04-24T13:21:16Z</time></trkpt><trkpt lat="44.3491352370863" lon="12.117469671255144"><ele>4.25</ele><time>2026-04-24T13:21:17Z</time></trkpt><trkpt lat="44.349241430670794" lon="12.117591652199714"><ele>4.0</ele><time>2026-04-24T13:21:18Z</time></trkpt><trkpt lat="44.34933013227933" lon="12.117718042861451"><ele>4.0</ele><time>2026-04-24T13:21:19Z</time></trkpt><trkpt lat="44.349397486003625" lon="12.117862163055852"><ele>4.0</ele><time>2026-04-24T13:21:20Z</time></trkpt><trkpt lat="44.34944846147545" lon="12.11802577110641"><ele>4.0</ele><time>2026-04-24T13:21:21Z</time></trkpt><trkpt lat="44.34948683383262" lon="12.118208924749007"><ele>4.0</ele><time>2026-04-24T13:21:22Z</time></trkpt><trkpt lat="44.349529956458476" lon="12.118398816451684"><ele>4.333333333333333</ele><time>2026-04-24T13:21:23Z</time></trkpt><trkpt lat="44.349579314417184" lon="12.11860042750542"><ele>4.666666666666667</ele><time>2026-04-24T13:21:24Z</time></trkpt><trkpt lat="44.34964056740654" lon="12.118809252678755"><ele>5.0</ele><time>2026-04-24T13:21:25Z</time></trkpt><trkpt lat="44.349710355990275" lon="12.119023430029987"><ele>5.333333333333334</ele><time>2026-04-24T13:21:26Z</time></trkpt><trkpt lat="44.349774395816304" lon="12.119237864393801"><ele>5.666666666666667</ele><time>2026-04-24T13:21:27Z</time></trkpt><trkpt lat="44.34983472895153" lon="12.119454127102735"><ele>6.0</ele><time>2026-04-24T13:21:28Z</time></trkpt><trkpt lat="44.349865709738346" lon="12.119670165859963"><ele>6.0</ele><time>2026-04-24T13:21:29Z</time></trkpt><trkpt lat="44.349912607224624" lon="12.119876014259232"><ele>6.0</ele><time>2026-04-24T13:21:30Z</time></trkpt><trkpt lat="44.34993831613016" lon="12.12009033736401"><ele>6.0</ele><time>2026-04-24T13:21:31Z</time></trkpt><trkpt lat="44.34996504798654" lon="12.120303726212919"><ele>6.0</ele><time>2026-04-24T13:21:32Z</time></trkpt><trkpt lat="44.349993326601556" lon="12.12051749080083"><ele>6.0</ele><time>2026-04-24T13:21:33Z</time></trkpt><trkpt lat="44.35003938265418" lon="12.120728593873187"><ele>6.0</ele><time>2026-04-24T13:21:34Z</time></trkpt><trkpt lat="44.350107790511146" lon="12.120931894967068"><ele>6.0</ele><time>2026-04-24T13:21:35Z</time></trkpt><trkpt lat="44.35018487111867" lon="12.121126631749073"><ele>6.0</ele><time>2026-04-24T13:21:36Z</time></trkpt><trkpt lat="44.35026803186057" lon="12.121312480460697"><ele>6.0</ele><time>2026-04-24T13:21:37Z</time></trkpt><trkpt lat="44.35035769890663" lon="12.12148018690478"><ele>5.75</ele><time>2026-04-24T13:21:38Z</time></trkpt><trkpt lat="44.35044174620664" lon="12.121647873857004"><ele>5.5</ele><time>2026-04-24T13:21:39Z</time></trkpt><trkpt lat="44.350516318348454" lon="12.12181936599768"><ele>5.25</ele><time>2026-04-24T13:21:40Z</time></trkpt><trkpt lat="44.35058339339442" lon="12.121999619954831"><ele>5.0</ele><time>2026-04-24T13:21:41Z</time></trkpt><trkpt lat="44.350645471221" lon="12.122180648180443"><ele>5.0</ele><time>2026-04-24T13:21:42Z</time></trkpt><trkpt lat="44.35069740026728" lon="12.122368157621885"><ele>5.0</ele><time>2026-04-24T13:21:43Z</time></trkpt><trkpt lat="44.35074961475148" lon="12.122559597194217"><ele>5.0</ele><time>2026-04-24T13:21:44Z</time></trkpt><trkpt lat="44.350800323252884" lon="12.122756056399359"><ele>5.0</ele><time>2026-04-24T13:21:45Z</time></trkpt><trkpt lat="44.3508443940697" lon="12.122957209816388"><ele>5.0</ele><time>2026-04-24T13:21:46Z</time></trkpt><trkpt lat="44.350877106547436" lon="12.123161889675451"><ele>5.0</ele><time>2026-04-24T13:21:47Z</time></trkpt><trkpt lat="44.35089857844083" lon="12.123365327347218"><ele>5.0</ele><time>2026-04-24T13:21:48Z</time></trkpt><trkpt lat="44.35091791624995" lon="12.123579804898062"><ele>5.0</ele><time>2026-04-24T13:21:49Z</time></trkpt><trkpt lat="44.35093339195652" lon="12.12379282132614"><ele>5.0</ele><time>2026-04-24T13:21:50Z</time></trkpt><trkpt lat="44.350943644112604" lon="12.12400653627235"><ele>5.0</ele><time>2026-04-24T13:21:51Z</time></trkpt><trkpt lat="44.35094500616724" lon="12.124219348865047"><ele>5.333333333333334</ele><time>2026-04-24T13:21:52Z</time></trkpt><trkpt lat="44.350941953750514" lon="12.124433391321341"><ele>5.666666666666667</ele><time>2026-04-24T13:21:53Z</time></trkpt><trkpt lat="44.35093176387048" lon="12.124645985049066"><ele>6.0</ele><time>2026-04-24T13:21:54Z</time></trkpt><trkpt lat="44.35089052288997" lon="12.124850929797548"><ele>5.333333333333333</ele><time>2026-04-24T13:21:55Z</time></trkpt><trkpt lat="44.35086353749441" lon="12.125055181478096"><ele>4.666666666666666</ele><time>2026-04-24T13:21:56Z</time></trkpt><trkpt lat="44.35084828166105" lon="12.125268581881006"><ele>4.0</ele><time>2026-04-24T13:21:57Z</time></trkpt><trkpt lat="44.350816246442314" lon="12.125473988355981"><ele>4.0</ele><time>2026-04-24T13:21:58Z</time></trkpt><trkpt lat="44.35077994275963" lon="12.12567840400815"><ele>4.0</ele><time>2026-04-24T13:21:59Z</time></trkpt><trkpt lat="44.35073343713364" lon="12.12588190430146"><ele>4.0</ele><time>2026-04-24T13:22:00Z</time></trkpt><trkpt lat="44.35065391789439" lon="12.126066128712175"><ele>4.0</ele><time>2026-04-24T13:22:01Z</time></trkpt><trkpt lat="44.35057135862489" lon="12.126249545075423"><ele>4.0</ele><time>2026-04-24T13:22:02Z</time></trkpt><trkpt lat="44.35049414934224" lon="12.126434997871403"><ele>4.0</ele><time>2026-04-24T13:22:03Z</time></trkpt><trkpt lat="44.35040157039508" lon="12.126601404516215"><ele>4.0</ele><time>2026-04-24T13:22:04Z</time></trkpt><trkpt lat="44.350308932300265" lon="12.126771920265156"><ele>4.0</ele><time>2026-04-24T13:22:05Z</time></trkpt><trkpt lat="44.35022176702005" lon="12.126948958809523"><ele>4.0</ele><time>2026-04-24T13:22:06Z</time></trkpt><trkpt lat="44.35014273447152" lon="12.12713358120974"><ele>4.0</ele><time>2026-04-24T13:22:07Z</time></trkpt><trkpt lat="44.350073796499316" lon="12.127327367937738"><ele>4.0</ele><time>2026-04-24T13:22:08Z</time></trkpt><trkpt lat="44.35000922349843" lon="12.127516862501299"><ele>4.0</ele><time>2026-04-24T13:22:09Z</time></trkpt><trkpt lat="44.34994472520571" lon="12.127710965204413"><ele>4.0</ele><time>2026-04-24T13:22:10Z</time></trkpt><trkpt lat="44.34988096310974" lon="12.127906535378969"><ele>4.0</ele><time>2026-04-24T13:22:11Z</time></trkpt><trkpt lat="44.349815097294965" lon="12.128098353098736"><ele>4.0</ele><time>2026-04-24T13:22:12Z</time></trkpt><trkpt lat="44.349742653344265" lon="12.128281388289501"><ele>4.0</ele><time>2026-04-24T13:22:13Z</time></trkpt><trkpt lat="44.34964223696477" lon="12.128442864128804"><ele>4.0</ele><time>2026-04-24T13:22:14Z</time></trkpt><trkpt lat="44.34954609499578" lon="12.128605934437385"><ele>4.0</ele><time>2026-04-24T13:22:15Z</time></trkpt><trkpt lat="44.349439611450286" lon="12.128756329982721"><ele>4.0</ele><time>2026-04-24T13:22:16Z</time></trkpt><trkpt lat="44.34932125130019" lon="12.128888267034847"><ele>4.0</ele><time>2026-04-24T13:22:17Z</time></trkpt><trkpt lat="44.34918944216737" lon="12.128989792932677"><ele>4.0</ele><time>2026-04-24T13:22:18Z</time></trkpt><trkpt lat="44.3490530100431" lon="12.129091170896235"><ele>4.0</ele><time>2026-04-24T13:22:19Z</time></trkpt><trkpt lat="44.34892460276564" lon="12.12919841020319"><ele>4.0</ele><time>2026-04-24T13:22:20Z</time></trkpt><trkpt lat="44.34880862777532" lon="12.129336734576102"><ele>4.0</ele><time>2026-04-24T13:22:21Z</time></trkpt><trkpt lat="44.34868454699257" lon="12.129463282147867"><ele>4.333333333333333</ele><time>2026-04-24T13:22:22Z</time></trkpt><trkpt lat="44.34856294877098" lon="12.129595199130515"><ele>4.666666666666667</ele><time>2026-04-24T13:22:23Z</time></trkpt><trkpt lat="44.34844529049029" lon="12.129730997231562"><ele>5.0</ele><time>2026-04-24T13:22:24Z</time></trkpt><trkpt lat="44.34832545750521" lon="12.129870169325391"><ele>5.0</ele><time>2026-04-24T13:22:25Z</time></trkpt><trkpt lat="44.348208093723876" lon="12.129998471750175"><ele>5.0</ele><time>2026-04-24T13:22:26Z</time></trkpt><trkpt lat="44.34809327546657" lon="12.13012661073883"><ele>5.0</ele><time>2026-04-24T13:22:27Z</time></trkpt><trkpt lat="44.34797928366444" lon="12.130258656737597"><ele>5.0</ele><time>2026-04-24T13:22:28Z</time></trkpt><trkpt lat="44.347866036369226" lon="12.130391560676587"><ele>5.0</ele><time>2026-04-24T13:22:29Z</time></trkpt><trkpt lat="44.34776621873623" lon="12.130542063067978"><ele>5.0</ele><time>2026-04-24T13:22:30Z</time></trkpt><trkpt lat="44.34767949805861" lon="12.13070949840403"><ele>5.0</ele><time>2026-04-24T13:22:31Z</time></trkpt><trkpt lat="44.34761304932965" lon="12.130888138910107"><ele>5.0</ele><time>2026-04-24T13:22:32Z</time></trkpt><trkpt lat="44.34753991519769" lon="12.131069839193913"><ele>5.0</ele><time>2026-04-24T13:22:33Z</time></trkpt><trkpt lat="44.34747468975089" lon="12.131255785515885"><ele>5.0</ele><time>2026-04-24T13:22:34Z</time></trkpt><trkpt lat="44.3474105545223" lon="12.131440450254416"><ele>5.0</ele><time>2026-04-24T13:22:35Z</time></trkpt><trkpt lat="44.347352006074246" lon="12.131627948497778"><ele>5.0</ele><time>2026-04-24T13:22:36Z</time></trkpt><trkpt lat="44.3472979074349" lon="12.131813496781394"><ele>5.0</ele><time>2026-04-24T13:22:37Z</time></trkpt><trkpt lat="44.347242630471406" lon="12.132005592574162"><ele>5.0</ele><time>2026-04-24T13:22:38Z</time></trkpt><trkpt lat="44.34718933629105" lon="12.13219917441896"><ele>5.0</ele><time>2026-04-24T13:22:39Z</time></trkpt><trkpt lat="44.34713116794377" lon="12.132393880188529"><ele>5.0</ele><time>2026-04-24T13:22:40Z</time></trkpt><trkpt lat="44.34707552876488" lon="12.132588026168854"><ele>5.0</ele><time>2026-04-24T13:22:41Z</time></trkpt><trkpt lat="44.34702273702162" lon="12.13278024755307"><ele>5.0</ele><time>2026-04-24T13:22:42Z</time></trkpt><trkpt lat="44.346966464644176" lon="12.132968267561361"><ele>5.0</ele><time>2026-04-24T13:22:43Z</time></trkpt><trkpt lat="44.34690994549636" lon="12.133155902186989"><ele>5.0</ele><time>2026-04-24T13:22:44Z</time></trkpt><trkpt lat="44.34684807404395" lon="12.1333426909051"><ele>5.0</ele><time>2026-04-24T13:22:45Z</time></trkpt><trkpt lat="44.346788054705904" lon="12.133527257494512"><ele>5.0</ele><time>2026-04-24T13:22:46Z</time></trkpt><trkpt lat="44.34672649127149" lon="12.133715683671078"><ele>5.0</ele><time>2026-04-24T13:22:47Z</time></trkpt><trkpt lat="44.3466693763271" lon="12.133907081780668"><ele>5.0</ele><time>2026-04-24T13:22:48Z</time></trkpt><trkpt lat="44.346610448895504" lon="12.134096771070071"><ele>5.0</ele><time>2026-04-24T13:22:49Z</time></trkpt><trkpt lat="44.346551842773835" lon="12.134286505461048"><ele>5.0</ele><time>2026-04-24T13:22:50Z</time></trkpt><trkpt lat="44.34649571590304" lon="12.134475010032672"><ele>5.0</ele><time>2026-04-24T13:22:51Z</time></trkpt><trkpt lat="44.34644241531739" lon="12.134663597236433"><ele>5.0</ele><time>2026-04-24T13:22:52Z</time></trkpt><trkpt lat="44.34639517904945" lon="12.134857563213908"><ele>5.0</ele><time>2026-04-24T13:22:53Z</time></trkpt><trkpt lat="44.34635375911733" lon="12.135052877559437"><ele>5.0</ele><time>2026-04-24T13:22:54Z</time></trkpt><trkpt lat="44.34631418149353" lon="12.135253226941233"><ele>5.0</ele><time>2026-04-24T13:22:55Z</time></trkpt><trkpt lat="44.346281141450035" lon="12.135435264641522"><ele>5.0</ele><time>2026-04-24T13:22:56Z</time></trkpt><trkpt lat="44.34624895739015" lon="12.135604940383505"><ele>4.8</ele><time>2026-04-24T13:22:57Z</time></trkpt><trkpt lat="44.346221723427476" lon="12.135760308142197"><ele>4.6</ele><time>2026-04-24T13:22:58Z</time></trkpt><trkpt lat="44.346199872964306" lon="12.135906716599878"><ele>4.4</ele><time>2026-04-24T13:22:59Z</time></trkpt><trkpt lat="44.34618677863787" lon="12.1360413171596"><ele>4.2</ele><time>2026-04-24T13:23:00Z</time></trkpt><trkpt lat="44.346181160132076" lon="12.13616862007717"><ele>4.0</ele><time>2026-04-24T13:23:01Z</time></trkpt><trkpt lat="44.34618342265098" lon="12.136289036156159"><ele>4.0</ele><time>2026-04-24T13:23:02Z</time></trkpt><trkpt lat="44.34619134498752" lon="12.136414758352515"><ele>4.0</ele><time>2026-04-24T13:23:03Z</time></trkpt><trkpt lat="44.3462048872186" lon="12.136550757777743"><ele>4.0</ele><time>2026-04-24T13:23:04Z</time></trkpt><trkpt lat="44.34621715335077" lon="12.136713558198792"><ele>4.0</ele><time>2026-04-24T13:23:05Z</time></trkpt><trkpt lat="44.34622976706288" lon="12.136881643027085"><ele>4.0</ele><time>2026-04-24T13:23:06Z</time></trkpt><trkpt lat="44.34623935893164" lon="12.137052798316056"><ele>4.0</ele><time>2026-04-24T13:23:07Z</time></trkpt><trkpt lat="44.34624627700133" lon="12.137221329550222"><ele>4.0</ele><time>2026-04-24T13:23:08Z</time></trkpt><trkpt lat="44.34625455563008" lon="12.137384182287063"><ele>4.0</ele><time>2026-04-24T13:23:09Z</time></trkpt><trkpt lat="44.346261260342345" lon="12.137545354970458"><ele>4.0</ele><time>2026-04-24T13:23:10Z</time></trkpt><trkpt lat="44.34626729330052" lon="12.13770641325206"><ele>4.0</ele><time>2026-04-24T13:23:11Z</time></trkpt><trkpt lat="44.34627124917282" lon="12.137866510681485"><ele>4.0</ele><time>2026-04-24T13:23:12Z</time></trkpt><trkpt lat="44.34627587684784" lon="12.138020953960817"><ele>4.0</ele><time>2026-04-24T13:23:13Z</time></trkpt><trkpt lat="44.346282860677796" lon="12.13817413235246"><ele>4.0</ele><time>2026-04-24T13:23:14Z</time></trkpt><trkpt lat="44.346290595880205" lon="12.138328541550505"><ele>4.0</ele><time>2026-04-24T13:23:15Z</time></trkpt><trkpt lat="44.34629427659519" lon="12.138479563538944"><ele>4.2</ele><time>2026-04-24T13:23:16Z</time></trkpt><trkpt lat="44.34630094217666" lon="12.138630378789436"><ele>4.4</ele><time>2026-04-24T13:23:17Z</time></trkpt><trkpt lat="44.34630879526365" lon="12.138778484889135"><ele>4.6</ele><time>2026-04-24T13:23:18Z</time></trkpt><trkpt lat="44.34631574142463" lon="12.138921591952728"><ele>4.8</ele><time>2026-04-24T13:23:19Z</time></trkpt><trkpt lat="44.34632555652497" lon="12.139066108060879"><ele>5.0</ele><time>2026-04-24T13:23:20Z</time></trkpt><trkpt lat="44.346332452556865" lon="12.139207558375432"><ele>5.0</ele><time>2026-04-24T13:23:21Z</time></trkpt><trkpt lat="44.34633878872629" lon="12.13934739106464"><ele>5.0</ele><time>2026-04-24T13:23:22Z</time></trkpt><trkpt lat="44.346345781750074" lon="12.139483707380663"><ele>5.0</ele><time>2026-04-24T13:23:23Z</time></trkpt><trkpt lat="44.34635338837933" lon="12.139621900680572"><ele>5.0</ele><time>2026-04-24T13:23:24Z</time></trkpt><trkpt lat="44.346363938654314" lon="12.139762366275164"><ele>5.0</ele><time>2026-04-24T13:23:25Z</time></trkpt><trkpt lat="44.34637537364104" lon="12.13990116256676"><ele>5.0</ele><time>2026-04-24T13:23:26Z</time></trkpt><trkpt lat="44.346392744291464" lon="12.140035218431064"><ele>5.0</ele><time>2026-04-24T13:23:27Z</time></trkpt><trkpt lat="44.346426832966976" lon="12.140163786888222"><ele>5.0</ele><time>2026-04-24T13:23:28Z</time></trkpt><trkpt lat="44.34646292304129" lon="12.140291303834072"><ele>5.0</ele><time>2026-04-24T13:23:29Z</time></trkpt><trkpt lat="44.34650069201921" lon="12.140418447306313"><ele>5.0</ele><time>2026-04-24T13:23:30Z</time></trkpt><trkpt lat="44.34654094515723" lon="12.140549407931344"><ele>5.0</ele><time>2026-04-24T13:23:31Z</time></trkpt><trkpt lat="44.346579868972384" lon="12.140680117933806"><ele>5.0</ele><time>2026-04-24T13:23:32Z</time></trkpt><trkpt lat="44.34662016654536" lon="12.140809943233178"><ele>5.0</ele><time>2026-04-24T13:23:33Z</time></trkpt><trkpt lat="44.34665745712435" lon="12.140939170713974"><ele>5.0</ele><time>2026-04-24T13:23:34Z</time></trkpt><trkpt lat="44.34669545989668" lon="12.141068350032366"><ele>5.0</ele><time>2026-04-24T13:23:35Z</time></trkpt><trkpt lat="44.34673385885703" lon="12.141199920342325"><ele>5.4</ele><time>2026-04-24T13:23:36Z</time></trkpt><trkpt lat="44.34677052924304" lon="12.14133423191519"><ele>5.8</ele><time>2026-04-24T13:23:37Z</time></trkpt><trkpt lat="44.34680370266713" lon="12.141465437561576"><ele>6.199999999999999</ele><time>2026-04-24T13:23:38Z</time></trkpt><trkpt lat="44.3468303721567" lon="12.14159748533471"><ele>6.6</ele><time>2026-04-24T13:23:39Z</time></trkpt><trkpt lat="44.34685204362639" lon="12.141730560688346"><ele>7.0</ele><time>2026-04-24T13:23:40Z</time></trkpt><trkpt lat="44.34686282614783" lon="12.14185263132909"><ele>7.000000000000001</ele><time>2026-04-24T13:23:41Z</time></trkpt><trkpt lat="44.34687351947607" lon="12.14195640331788"><ele>7.0</ele><time>2026-04-24T13:23:42Z</time></trkpt><trkpt lat="44.34688130607991" lon="12.142055671271567"><ele>7.0</ele><time>2026-04-24T13:23:43Z</time></trkpt><trkpt lat="44.34688632271744" lon="12.14215617737064"><ele>7.0</ele><time>2026-04-24T13:23:44Z</time></trkpt><trkpt lat="44.34688545480652" lon="12.142345480942883"><ele>7.000000000000001</ele><time>2026-04-24T13:23:46Z</time></trkpt><trkpt lat="44.34686848974543" lon="12.14246916301671"><ele>7.0</ele><time>2026-04-24T13:23:48Z</time></trkpt><trkpt lat="44.34674045734691" lon="12.142485296285827"><ele>7.0</ele><time>2026-04-24T13:23:52Z</time></trkpt><trkpt lat="44.34661052141697" lon="12.14238675630305"><ele>6.999999999999999</ele><time>2026-04-24T13:23:54Z</time></trkpt><trkpt lat="44.346527391731755" lon="12.142336611440482"><ele>6.999999999999999</ele><time>2026-04-24T13:23:55Z</time></trkpt><trkpt lat="44.3464417150781" lon="12.142283570991516"><ele>7.0</ele><time>2026-04-24T13:23:56Z</time></trkpt><trkpt lat="44.34634259889427" lon="12.142230824853629"><ele>7.0</ele><time>2026-04-24T13:23:57Z</time></trkpt><trkpt lat="44.34623187051442" lon="12.14219040289522"><ele>7.0</ele><time>2026-04-24T13:23:58Z</time></trkpt><trkpt lat="44.34610971966819" lon="12.142160309558147"><ele>7.0</ele><time>2026-04-24T13:23:59Z</time></trkpt><trkpt lat="44.34598189569475" lon="12.142127887333825"><ele>7.0</ele><time>2026-04-24T13:24:00Z</time></trkpt><trkpt lat="44.34585725953914" lon="12.142088775197742"><ele>7.0</ele><time>2026-04-24T13:24:01Z</time></trkpt><trkpt lat="44.345723665520694" lon="12.14204186879284"><ele>7.0</ele><time>2026-04-24T13:24:02Z</time></trkpt><trkpt lat="44.345586581395075" lon="12.141979809647383"><ele>7.0</ele><time>2026-04-24T13:24:03Z</time></trkpt><trkpt lat="44.34545246571529" lon="12.14190136850047"><ele>7.0</ele><time>2026-04-24T13:24:04Z</time></trkpt><trkpt lat="44.34532047652686" lon="12.141802835429285"><ele>7.0</ele><time>2026-04-24T13:24:05Z</time></trkpt><trkpt lat="44.34520971038676" lon="12.141657706696659"><ele>6.666666666666667</ele><time>2026-04-24T13:24:06Z</time></trkpt><trkpt lat="44.34511122646225" lon="12.141506570666984"><ele>6.333333333333334</ele><time>2026-04-24T13:24:07Z</time></trkpt><trkpt lat="44.345015232025375" lon="12.141338008597538"><ele>6.0</ele><time>2026-04-24T13:24:08Z</time></trkpt><trkpt lat="44.344897116647196" lon="12.141186627699689"><ele>6.0</ele><time>2026-04-24T13:24:09Z</time></trkpt><trkpt lat="44.34481623590973" lon="12.140991511053647"><ele>6.0</ele><time>2026-04-24T13:24:10Z</time></trkpt><trkpt lat="44.34473852187455" lon="12.140791283267577"><ele>6.0</ele><time>2026-04-24T13:24:11Z</time></trkpt><trkpt lat="44.344663274816696" lon="12.140586120186114"><ele>6.0</ele><time>2026-04-24T13:24:12Z</time></trkpt><trkpt lat="44.344610989056626" lon="12.140365063558992"><ele>6.0</ele><time>2026-04-24T13:24:13Z</time></trkpt><trkpt lat="44.34454139114202" lon="12.1401596479903"><ele>6.0</ele><time>2026-04-24T13:24:14Z</time></trkpt><trkpt lat="44.344473654162634" lon="12.139959724779452"><ele>5.75</ele><time>2026-04-24T13:24:15Z</time></trkpt><trkpt lat="44.34441306980927" lon="12.139782774956965"><ele>5.5</ele><time>2026-04-24T13:24:16Z</time></trkpt><trkpt lat="44.344357023133114" lon="12.139620384375066"><ele>5.25</ele><time>2026-04-24T13:24:17Z</time></trkpt><trkpt lat="44.34430424961952" lon="12.139469461936873"><ele>5.0</ele><time>2026-04-24T13:24:18Z</time></trkpt><trkpt lat="44.3442593427036" lon="12.13934317045472"><ele>5.0</ele><time>2026-04-24T13:24:19Z</time></trkpt><trkpt lat="44.34422691225705" lon="12.139251968016346"><ele>5.0</ele><time>2026-04-24T13:24:20Z</time></trkpt><trkpt lat="44.3440374749305" lon="12.139321516608462"><ele>5.0</ele><time>2026-04-24T13:24:23Z</time></trkpt><trkpt lat="44.343952212549205" lon="12.139402617434962"><ele>5.0</ele><time>2026-04-24T13:24:24Z</time></trkpt><trkpt lat="44.343839518468215" lon="12.139486191876536"><ele>5.0</ele><time>2026-04-24T13:24:25Z</time></trkpt><trkpt lat="44.343706547024794" lon="12.139567489974622"><ele>5.0</ele><time>2026-04-24T13:24:26Z</time></trkpt><trkpt lat="44.343557040658894" lon="12.139662711898849"><ele>5.0</ele><time>2026-04-24T13:24:27Z</time></trkpt><trkpt lat="44.343398468626035" lon="12.139760555629222"><ele>5.0</ele><time>2026-04-24T13:24:28Z</time></trkpt><trkpt lat="44.34323286937718" lon="12.139858726801165"><ele>5.0</ele><time>2026-04-24T13:24:29Z</time></trkpt><trkpt lat="44.34305706690286" lon="12.139954890086388"><ele>5.0</ele><time>2026-04-24T13:24:30Z</time></trkpt><trkpt lat="44.342875356916245" lon="12.140054431817328"><ele>4.333333333333334</ele><time>2026-04-24T13:24:31Z</time></trkpt><trkpt lat="44.34268872466546" lon="12.140157683205118"><ele>3.666666666666667</ele><time>2026-04-24T13:24:32Z</time></trkpt><trkpt lat="44.34250568747016" lon="12.14025515242427"><ele>3.0</ele><time>2026-04-24T13:24:33Z</time></trkpt><trkpt lat="44.342326664791436" lon="12.140355354282047"><ele>4.0</ele><time>2026-04-24T13:24:34Z</time></trkpt><trkpt lat="44.34214803073284" lon="12.140453129870668"><ele>5.0</ele><time>2026-04-24T13:24:35Z</time></trkpt><trkpt lat="44.34197089397636" lon="12.140555187058666"><ele>6.0</ele><time>2026-04-24T13:24:36Z</time></trkpt><trkpt lat="44.341794753564926" lon="12.140652984141228"><ele>5.333333333333333</ele><time>2026-04-24T13:24:37Z</time></trkpt><trkpt lat="44.34162102413163" lon="12.140748440222298"><ele>4.666666666666666</ele><time>2026-04-24T13:24:38Z</time></trkpt><trkpt lat="44.34145310325103" lon="12.140837072299169"><ele>4.0</ele><time>2026-04-24T13:24:39Z</time></trkpt><trkpt lat="44.34128927057929" lon="12.140923338557123"><ele>4.0</ele><time>2026-04-24T13:24:40Z</time></trkpt><trkpt lat="44.34113241204605" lon="12.141001536458319"><ele>4.0</ele><time>2026-04-24T13:24:41Z</time></trkpt><trkpt lat="44.3409680660274" lon="12.141030610173738"><ele>4.0</ele><time>2026-04-24T13:24:42Z</time></trkpt><trkpt lat="44.34080295048807" lon="12.141063632497918"><ele>4.0</ele><time>2026-04-24T13:24:43Z</time></trkpt><trkpt lat="44.34065108406731" lon="12.140994693513177"><ele>4.0</ele><time>2026-04-24T13:24:44Z</time></trkpt><trkpt lat="44.340498806896846" lon="12.140952983834733"><ele>4.0</ele><time>2026-04-24T13:24:45Z</time></trkpt><trkpt lat="44.34034919637737" lon="12.140907687918732"><ele>4.0</ele><time>2026-04-24T13:24:46Z</time></trkpt><trkpt lat="44.34019530745502" lon="12.14086050124518"><ele>4.0</ele><time>2026-04-24T13:24:47Z</time></trkpt><trkpt lat="44.34004321538533" lon="12.140809433942595"><ele>4.0</ele><time>2026-04-24T13:24:48Z</time></trkpt><trkpt lat="44.33989381619413" lon="12.14074680596209"><ele>3.6666666666666665</ele><time>2026-04-24T13:24:49Z</time></trkpt><trkpt lat="44.339762910767696" lon="12.140656992069879"><ele>3.333333333333333</ele><time>2026-04-24T13:24:50Z</time></trkpt><trkpt lat="44.339630814688654" lon="12.14054541450711"><ele>3.0</ele><time>2026-04-24T13:24:51Z</time></trkpt><trkpt lat="44.33949621552036" lon="12.140422900075393"><ele>3.666666666666667</ele><time>2026-04-24T13:24:52Z</time></trkpt><trkpt lat="44.339351598657316" lon="12.140293492661197"><ele>4.333333333333334</ele><time>2026-04-24T13:24:53Z</time></trkpt><trkpt lat="44.3391934579756" lon="12.140168896757949"><ele>5.0</ele><time>2026-04-24T13:24:54Z</time></trkpt><trkpt lat="44.33903017836124" lon="12.140047606359484"><ele>4.666666666666667</ele><time>2026-04-24T13:24:55Z</time></trkpt><trkpt lat="44.33885693329829" lon="12.139942134007786"><ele>4.333333333333333</ele><time>2026-04-24T13:24:56Z</time></trkpt><trkpt lat="44.33868392746746" lon="12.139823014032194"><ele>4.0</ele><time>2026-04-24T13:24:57Z</time></trkpt><trkpt lat="44.33851666376353" lon="12.139713698698943"><ele>4.0</ele><time>2026-04-24T13:24:58Z</time></trkpt><trkpt lat="44.33836408020094" lon="12.139617134500394"><ele>4.0</ele><time>2026-04-24T13:24:59Z</time></trkpt><trkpt lat="44.33821065289055" lon="12.139533497308403"><ele>4.0</ele><time>2026-04-24T13:25:00Z</time></trkpt><trkpt lat="44.338047386017394" lon="12.139470195649855"><ele>4.0</ele><time>2026-04-24T13:25:01Z</time></trkpt><trkpt lat="44.3378737307638" lon="12.139434207555011"><ele>4.0</ele><time>2026-04-24T13:25:02Z</time></trkpt><trkpt lat="44.33769047053148" lon="12.139424620543787"><ele>4.0</ele><time>2026-04-24T13:25:03Z</time></trkpt><trkpt lat="44.337499981887106" lon="12.139424274464714"><ele>4.0</ele><time>2026-04-24T13:25:04Z</time></trkpt><trkpt lat="44.33730313466004" lon="12.139421908685415"><ele>4.0</ele><time>2026-04-24T13:25:05Z</time></trkpt><trkpt lat="44.33710090858651" lon="12.139411271928521"><ele>4.0</ele><time>2026-04-24T13:25:06Z</time></trkpt><trkpt lat="44.336902852907805" lon="12.139400078008704"><ele>4.0</ele><time>2026-04-24T13:25:07Z</time></trkpt><trkpt lat="44.33670835385778" lon="12.139383466648692"><ele>4.0</ele><time>2026-04-24T13:25:08Z</time></trkpt><trkpt lat="44.33651061404682" lon="12.139351559851125"><ele>4.0</ele><time>2026-04-24T13:25:09Z</time></trkpt><trkpt lat="44.3363157941387" lon="12.139292269420588"><ele>4.333333333333333</ele><time>2026-04-24T13:25:10Z</time></trkpt><trkpt lat="44.33611858408276" lon="12.139227925964427"><ele>4.666666666666667</ele><time>2026-04-24T13:25:11Z</time></trkpt><trkpt lat="44.3359188995167" lon="12.13916197754463"><ele>5.0</ele><time>2026-04-24T13:25:12Z</time></trkpt><trkpt lat="44.33571853382444" lon="12.139096514362699"><ele>4.666666666666667</ele><time>2026-04-24T13:25:13Z</time></trkpt><trkpt lat="44.335515659229806" lon="12.139033930143968"><ele>4.333333333333333</ele><time>2026-04-24T13:25:14Z</time></trkpt><trkpt lat="44.33530745382797" lon="12.138987859760618"><ele>4.0</ele><time>2026-04-24T13:25:15Z</time></trkpt><trkpt lat="44.3351021772082" lon="12.138921943614669"><ele>4.0</ele><time>2026-04-24T13:25:16Z</time></trkpt><trkpt lat="44.33489697546416" lon="12.138857201990504"><ele>4.0</ele><time>2026-04-24T13:25:17Z</time></trkpt><trkpt lat="44.33469052477519" lon="12.138796063916475"><ele>4.0</ele><time>2026-04-24T13:25:18Z</time></trkpt><trkpt lat="44.334483083968294" lon="12.138742488090191"><ele>4.0</ele><time>2026-04-24T13:25:19Z</time></trkpt><trkpt lat="44.33427623534977" lon="12.138694058876192"><ele>4.0</ele><time>2026-04-24T13:25:20Z</time></trkpt><trkpt lat="44.33407066080572" lon="12.138642909274772"><ele>4.0</ele><time>2026-04-24T13:25:21Z</time></trkpt><trkpt lat="44.33386319910257" lon="12.138590132596415"><ele>4.0</ele><time>2026-04-24T13:25:22Z</time></trkpt><trkpt lat="44.333656253710885" lon="12.138540165639586"><ele>4.0</ele><time>2026-04-24T13:25:23Z</time></trkpt><trkpt lat="44.3334503877194" lon="12.138485571113879"><ele>4.0</ele><time>2026-04-24T13:25:24Z</time></trkpt><trkpt lat="44.333246387845136" lon="12.138431786615994"><ele>3.6666666666666665</ele><time>2026-04-24T13:25:25Z</time></trkpt><trkpt lat="44.33304227978407" lon="12.138375704054921"><ele>3.333333333333333</ele><time>2026-04-24T13:25:26Z</time></trkpt><trkpt lat="44.332853064048706" lon="12.138322601586218"><ele>3.0</ele><time>2026-04-24T13:25:27Z</time></trkpt><trkpt lat="44.332676127625646" lon="12.138278765628854"><ele>3.0</ele><time>2026-04-24T13:25:28Z</time></trkpt><trkpt lat="44.33249622356888" lon="12.138231141353279"><ele>3.0</ele><time>2026-04-24T13:25:29Z</time></trkpt><trkpt lat="44.33231319869687" lon="12.138179714545156"><ele>3.0</ele><time>2026-04-24T13:25:30Z</time></trkpt><trkpt lat="44.33212882378329" lon="12.138127280872022"><ele>3.666666666666667</ele><time>2026-04-24T13:25:31Z</time></trkpt><trkpt lat="44.33194328494236" lon="12.138075388787733"><ele>4.333333333333334</ele><time>2026-04-24T13:25:32Z</time></trkpt><trkpt lat="44.331761715218896" lon="12.138030858990462"><ele>5.0</ele><time>2026-04-24T13:25:33Z</time></trkpt><trkpt lat="44.33159249815046" lon="12.13799002486477"><ele>5.0</ele><time>2026-04-24T13:25:34Z</time></trkpt><trkpt lat="44.331433951441916" lon="12.137953912106939"><ele>5.0</ele><time>2026-04-24T13:25:35Z</time></trkpt><trkpt lat="44.33128467851803" lon="12.137918856390446"><ele>5.0</ele><time>2026-04-24T13:25:36Z</time></trkpt><trkpt lat="44.3311378224221" lon="12.137879043251575"><ele>5.0</ele><time>2026-04-24T13:25:37Z</time></trkpt><trkpt lat="44.330994872269365" lon="12.137831389133064"><ele>5.0</ele><time>2026-04-24T13:25:38Z</time></trkpt><trkpt lat="44.330852767974676" lon="12.137770919332851"><ele>5.0</ele><time>2026-04-24T13:25:39Z</time></trkpt><trkpt lat="44.33072847503805" lon="12.137644802224052"><ele>5.0</ele><time>2026-04-24T13:25:40Z</time></trkpt><trkpt lat="44.33059699189096" lon="12.13756347109087"><ele>4.666666666666667</ele><time>2026-04-24T13:25:41Z</time></trkpt><trkpt lat="44.330441497037086" lon="12.13746557295375"><ele>4.333333333333333</ele><time>2026-04-24T13:25:42Z</time></trkpt><trkpt lat="44.33029109895967" lon="12.137371438123091"><ele>4.0</ele><time>2026-04-24T13:25:43Z</time></trkpt><trkpt lat="44.330154274836275" lon="12.13728678405667"><ele>4.0</ele><time>2026-04-24T13:25:44Z</time></trkpt><trkpt lat="44.33003293497609" lon="12.137211914273257"><ele>4.0</ele><time>2026-04-24T13:25:45Z</time></trkpt><trkpt lat="44.32991823091711" lon="12.137141138971096"><ele>4.0</ele><time>2026-04-24T13:25:46Z</time></trkpt><trkpt lat="44.329791864106106" lon="12.137063167497864"><ele>4.0</ele><time>2026-04-24T13:25:47Z</time></trkpt><trkpt lat="44.329650190565395" lon="12.136996569720962"><ele>4.0</ele><time>2026-04-24T13:25:48Z</time></trkpt><trkpt lat="44.32950321038853" lon="12.136903679217173"><ele>4.0</ele><time>2026-04-24T13:25:49Z</time></trkpt><trkpt lat="44.32934853450989" lon="12.136809052529998"><ele>4.0</ele><time>2026-04-24T13:25:50Z</time></trkpt><trkpt lat="44.329186758276926" lon="12.136708825350922"><ele>4.0</ele><time>2026-04-24T13:25:51Z</time></trkpt><trkpt lat="44.32901788536097" lon="12.136599724207224"><ele>4.0</ele><time>2026-04-24T13:25:52Z</time></trkpt><trkpt lat="44.328841854073744" lon="12.136502910093006"><ele>4.0</ele><time>2026-04-24T13:25:53Z</time></trkpt><trkpt lat="44.328665217732656" lon="12.136417717811586"><ele>4.333333333333333</ele><time>2026-04-24T13:25:54Z</time></trkpt><trkpt lat="44.32849064444942" lon="12.136348112189793"><ele>4.666666666666667</ele><time>2026-04-24T13:25:55Z</time></trkpt><trkpt lat="44.328317320082625" lon="12.13628659187087"><ele>5.0</ele><time>2026-04-24T13:25:56Z</time></trkpt><trkpt lat="44.32815452082295" lon="12.136223540016362"><ele>5.0</ele><time>2026-04-24T13:25:57Z</time></trkpt><trkpt lat="44.32800425766084" lon="12.136160776925177"><ele>5.0</ele><time>2026-04-24T13:25:58Z</time></trkpt><trkpt lat="44.327855623495786" lon="12.136105817578628"><ele>5.0</ele><time>2026-04-24T13:25:59Z</time></trkpt><trkpt lat="44.32769904323824" lon="12.136079732719793"><ele>5.0</ele><time>2026-04-24T13:26:00Z</time></trkpt><trkpt lat="44.32753074403342" lon="12.136095272738924"><ele>5.0</ele><time>2026-04-24T13:26:01Z</time></trkpt><trkpt lat="44.3273609046435" lon="12.136145363978493"><ele>5.0</ele><time>2026-04-24T13:26:02Z</time></trkpt><trkpt lat="44.32718626262681" lon="12.13622006252496"><ele>4.0</ele><time>2026-04-24T13:26:03Z</time></trkpt><trkpt lat="44.327004568331084" lon="12.136300278721361"><ele>3.0</ele><time>2026-04-24T13:26:04Z</time></trkpt><trkpt lat="44.326814098639716" lon="12.13637989206777"><ele>2.0</ele><time>2026-04-24T13:26:05Z</time></trkpt><trkpt lat="44.32662841051926" lon="12.13645762486256"><ele>2.0</ele><time>2026-04-24T13:26:06Z</time></trkpt><trkpt lat="44.326436053982064" lon="12.136535640700524"><ele>2.0</ele><time>2026-04-24T13:26:07Z</time></trkpt><trkpt lat="44.32624024149972" lon="12.13661747877046"><ele>2.0</ele><time>2026-04-24T13:26:08Z</time></trkpt><trkpt lat="44.326042510638025" lon="12.136695568952945"><ele>2.333333333333333</ele><time>2026-04-24T13:26:09Z</time></trkpt><trkpt lat="44.32584208088175" lon="12.13677442109386"><ele>2.6666666666666665</ele><time>2026-04-24T13:26:10Z</time></trkpt><trkpt lat="44.32564392842312" lon="12.136852305737369"><ele>3.0</ele><time>2026-04-24T13:26:11Z</time></trkpt><trkpt lat="44.32544525553618" lon="12.136929509434376"><ele>3.333333333333333</ele><time>2026-04-24T13:26:12Z</time></trkpt><trkpt lat="44.32524514303191" lon="12.137003262964692"><ele>3.6666666666666665</ele><time>2026-04-24T13:26:13Z</time></trkpt><trkpt lat="44.325048262579124" lon="12.137073261317116"><ele>4.0</ele><time>2026-04-24T13:26:14Z</time></trkpt><trkpt lat="44.3248560152443" lon="12.13714103922331"><ele>4.0</ele><time>2026-04-24T13:26:15Z</time></trkpt><trkpt lat="44.32466627606066" lon="12.137212517644018"><ele>4.0</ele><time>2026-04-24T13:26:16Z</time></trkpt><trkpt lat="44.32447686176699" lon="12.13728200793219"><ele>4.0</ele><time>2026-04-24T13:26:17Z</time></trkpt><trkpt lat="44.32428902347389" lon="12.137348371169718"><ele>4.0</ele><time>2026-04-24T13:26:18Z</time></trkpt><trkpt lat="44.32410279249661" lon="12.13741031926491"><ele>4.0</ele><time>2026-04-24T13:26:19Z</time></trkpt><trkpt lat="44.3239151472045" lon="12.137469915017881"><ele>4.0</ele><time>2026-04-24T13:26:20Z</time></trkpt><trkpt lat="44.323727712773255" lon="12.13752140181027"><ele>4.0</ele><time>2026-04-24T13:26:21Z</time></trkpt><trkpt lat="44.32353881945491" lon="12.137562794330819"><ele>4.0</ele><time>2026-04-24T13:26:22Z</time></trkpt><trkpt lat="44.32335249480658" lon="12.137595635792577"><ele>4.0</ele><time>2026-04-24T13:26:23Z</time></trkpt><trkpt lat="44.323176051752824" lon="12.137630924261455"><ele>3.6666666666666665</ele><time>2026-04-24T13:26:24Z</time></trkpt><trkpt lat="44.32300872788668" lon="12.13766713690757"><ele>3.333333333333333</ele><time>2026-04-24T13:26:25Z</time></trkpt><trkpt lat="44.32285080516829" lon="12.137672920719908"><ele>3.0</ele><time>2026-04-24T13:26:26Z</time></trkpt><trkpt lat="44.32270387442345" lon="12.137702651768663"><ele>3.0</ele><time>2026-04-24T13:26:27Z</time></trkpt><trkpt lat="44.32256137781388" lon="12.137703963240993"><ele>3.0</ele><time>2026-04-24T13:26:28Z</time></trkpt><trkpt lat="44.32241861378486" lon="12.137714300377711"><ele>3.0</ele><time>2026-04-24T13:26:29Z</time></trkpt><trkpt lat="44.3222700117192" lon="12.137724378234976"><ele>3.0</ele><time>2026-04-24T13:26:30Z</time></trkpt><trkpt lat="44.32211260074892" lon="12.137750547281092"><ele>3.333333333333333</ele><time>2026-04-24T13:26:31Z</time></trkpt><trkpt lat="44.32194844930768" lon="12.137744720040946"><ele>3.6666666666666665</ele><time>2026-04-24T13:26:32Z</time></trkpt><trkpt lat="44.321774625340076" lon="12.137742044097948"><ele>4.0</ele><time>2026-04-24T13:26:33Z</time></trkpt><trkpt lat="44.321593160425564" lon="12.137738342853476"><ele>4.0</ele><time>2026-04-24T13:26:34Z</time></trkpt><trkpt lat="44.321407672516784" lon="12.137729159076855"><ele>4.0</ele><time>2026-04-24T13:26:35Z</time></trkpt><trkpt lat="44.321218365277076" lon="12.137717894487935"><ele>4.0</ele><time>2026-04-24T13:26:36Z</time></trkpt><trkpt lat="44.32102171115562" lon="12.137708872458198"><ele>4.333333333333333</ele><time>2026-04-24T13:26:37Z</time></trkpt><trkpt lat="44.32081973949073" lon="12.137693711380413"><ele>4.666666666666667</ele><time>2026-04-24T13:26:38Z</time></trkpt><trkpt lat="44.32061471586467" lon="12.137673359388575"><ele>5.0</ele><time>2026-04-24T13:26:39Z</time></trkpt><trkpt lat="44.32040942380954" lon="12.137657656513573"><ele>5.0</ele><time>2026-04-24T13:26:40Z</time></trkpt><trkpt lat="44.3202041852135" lon="12.137648090057551"><ele>5.0</ele><time>2026-04-24T13:26:41Z</time></trkpt><trkpt lat="44.32000159814577" lon="12.13763589482602"><ele>5.0</ele><time>2026-04-24T13:26:42Z</time></trkpt><trkpt lat="44.31979690099767" lon="12.137618385265487"><ele>5.333333333333334</ele><time>2026-04-24T13:26:43Z</time></trkpt><trkpt lat="44.3195924248906" lon="12.137602001521987"><ele>5.666666666666667</ele><time>2026-04-24T13:26:44Z</time></trkpt><trkpt lat="44.31939220645914" lon="12.137593291041119"><ele>6.0</ele><time>2026-04-24T13:26:45Z</time></trkpt><trkpt lat="44.31919188166324" lon="12.137558893510255"><ele>6.0</ele><time>2026-04-24T13:26:46Z</time></trkpt><trkpt lat="44.318991380596664" lon="12.13754362777989"><ele>6.0</ele><time>2026-04-24T13:26:47Z</time></trkpt><trkpt lat="44.318792687151536" lon="12.137528499677929"><ele>6.0</ele><time>2026-04-24T13:26:48Z</time></trkpt><trkpt lat="44.318594842780975" lon="12.1375134362228"><ele>6.333333333333334</ele><time>2026-04-24T13:26:49Z</time></trkpt><trkpt lat="44.31839721941795" lon="12.137515877808749"><ele>6.666666666666667</ele><time>2026-04-24T13:26:50Z</time></trkpt><trkpt lat="44.31820000176718" lon="12.137499457405747"><ele>7.0</ele><time>2026-04-24T13:26:51Z</time></trkpt><trkpt lat="44.31800708854423" lon="12.137486961280423"><ele>7.0</ele><time>2026-04-24T13:26:52Z</time></trkpt><trkpt lat="44.317824030300685" lon="12.137453526819424"><ele>7.0</ele><time>2026-04-24T13:26:53Z</time></trkpt><trkpt lat="44.317632308190376" lon="12.137438490349863"><ele>7.0</ele><time>2026-04-24T13:26:54Z</time></trkpt><trkpt lat="44.31742789633533" lon="12.137422460501698"><ele>6.666666666666667</ele><time>2026-04-24T13:26:55Z</time></trkpt><trkpt lat="44.31721694749511" lon="12.137405916096027"><ele>6.333333333333334</ele><time>2026-04-24T13:26:56Z</time></trkpt><trkpt lat="44.31700135525178" lon="12.1373890075096"><ele>6.0</ele><time>2026-04-24T13:26:57Z</time></trkpt><trkpt lat="44.31678087192964" lon="12.137371489369198"><ele>5.666666666666667</ele><time>2026-04-24T13:26:58Z</time></trkpt><trkpt lat="44.31655187340422" lon="12.137353259388048"><ele>5.333333333333334</ele><time>2026-04-24T13:26:59Z</time></trkpt><trkpt lat="44.31634318266688" lon="12.13733664605729"><ele>5.0</ele><time>2026-04-24T13:27:00Z</time></trkpt><trkpt lat="44.31614819547383" lon="12.137321123633617"><ele>5.666666666666667</ele><time>2026-04-24T13:27:01Z</time></trkpt><trkpt lat="44.3159606925249" lon="12.137306818342488"><ele>6.333333333333334</ele><time>2026-04-24T13:27:02Z</time></trkpt><trkpt lat="44.31577787673025" lon="12.137292989527392"><ele>7.0</ele><time>2026-04-24T13:27:03Z</time></trkpt><trkpt lat="44.31560253498374" lon="12.137302870794283"><ele>6.666666666666667</ele><time>2026-04-24T13:27:04Z</time></trkpt><trkpt lat="44.315438575941066" lon="12.137296514507732"><ele>6.333333333333334</ele><time>2026-04-24T13:27:05Z</time></trkpt><trkpt lat="44.315284085358115" lon="12.13730886952055"><ele>6.0</ele><time>2026-04-24T13:27:06Z</time></trkpt><trkpt lat="44.315127971705714" lon="12.1373391098281"><ele>6.0</ele><time>2026-04-24T13:27:07Z</time></trkpt><trkpt lat="44.31496241305751" lon="12.137395175182263"><ele>6.0</ele><time>2026-04-24T13:27:08Z</time></trkpt><trkpt lat="44.31479576383942" lon="12.13746696805871"><ele>6.0</ele><time>2026-04-24T13:27:09Z</time></trkpt><trkpt lat="44.31463488486705" lon="12.137551440922303"><ele>6.0</ele><time>2026-04-24T13:27:10Z</time></trkpt><trkpt lat="44.31447663098651" lon="12.13765369813336"><ele>6.0</ele><time>2026-04-24T13:27:11Z</time></trkpt><trkpt lat="44.314321055688374" lon="12.13777999665358"><ele>6.0</ele><time>2026-04-24T13:27:12Z</time></trkpt><trkpt lat="44.31417536070651" lon="12.137917495400524"><ele>6.0</ele><time>2026-04-24T13:27:13Z</time></trkpt><trkpt lat="44.31403819023711" lon="12.138074609265798"><ele>6.0</ele><time>2026-04-24T13:27:14Z</time></trkpt><trkpt lat="44.31391090029862" lon="12.138242743453189"><ele>6.0</ele><time>2026-04-24T13:27:15Z</time></trkpt><trkpt lat="44.313797329352894" lon="12.138395071930919"><ele>6.333333333333334</ele><time>2026-04-24T13:27:16Z</time></trkpt><trkpt lat="44.31368985097637" lon="12.138543082529596"><ele>6.666666666666667</ele><time>2026-04-24T13:27:17Z</time></trkpt><trkpt lat="44.31358112415116" lon="12.138701552617523"><ele>7.0</ele><time>2026-04-24T13:27:18Z</time></trkpt><trkpt lat="44.31347365848323" lon="12.138847129256863"><ele>7.0</ele><time>2026-04-24T13:27:19Z</time></trkpt><trkpt lat="44.31337455341525" lon="12.138982511458336"><ele>7.0</ele><time>2026-04-24T13:27:20Z</time></trkpt><trkpt lat="44.31327699759139" lon="12.139106816464786"><ele>7.0</ele><time>2026-04-24T13:27:21Z</time></trkpt><trkpt lat="44.313181900112035" lon="12.139224810092234"><ele>7.0</ele><time>2026-04-24T13:27:22Z</time></trkpt><trkpt lat="44.313087341460964" lon="12.139343019462505"><ele>7.0</ele><time>2026-04-24T13:27:23Z</time></trkpt><trkpt lat="44.31299122364809" lon="12.139458126088433"><ele>7.0</ele><time>2026-04-24T13:27:24Z</time></trkpt><trkpt lat="44.312891945701054" lon="12.139579893418842"><ele>7.0</ele><time>2026-04-24T13:27:25Z</time></trkpt><trkpt lat="44.31279216450797" lon="12.13971032179762"><ele>7.0</ele><time>2026-04-24T13:27:26Z</time></trkpt><trkpt lat="44.31269170262061" lon="12.139842643354624"><ele>6.5</ele><time>2026-04-24T13:27:27Z</time></trkpt><trkpt lat="44.31259102572953" lon="12.139973973994516"><ele>6.0</ele><time>2026-04-24T13:27:28Z</time></trkpt><trkpt lat="44.31248966493124" lon="12.140101691097978"><ele>5.5</ele><time>2026-04-24T13:27:29Z</time></trkpt><trkpt lat="44.31238344978648" lon="12.140222916784438"><ele>5.0</ele><time>2026-04-24T13:27:30Z</time></trkpt><trkpt lat="44.3122742596854" lon="12.14034064753905"><ele>5.25</ele><time>2026-04-24T13:27:31Z</time></trkpt><trkpt lat="44.312161221525486" lon="12.140471347819028"><ele>5.5</ele><time>2026-04-24T13:27:32Z</time></trkpt><trkpt lat="44.312035774443515" lon="12.140576892879716"><ele>5.75</ele><time>2026-04-24T13:27:33Z</time></trkpt><trkpt lat="44.31192363012374" lon="12.140713509143383"><ele>6.0</ele><time>2026-04-24T13:27:34Z</time></trkpt><trkpt lat="44.31180307569828" lon="12.140828713850688"><ele>6.0</ele><time>2026-04-24T13:27:35Z</time></trkpt><trkpt lat="44.311687562616484" lon="12.140934258337593"><ele>6.0</ele><time>2026-04-24T13:27:36Z</time></trkpt><trkpt lat="44.311570950509235" lon="12.14103889121219"><ele>6.0</ele><time>2026-04-24T13:27:37Z</time></trkpt><trkpt lat="44.311455888275674" lon="12.141147392539736"><ele>6.0</ele><time>2026-04-24T13:27:38Z</time></trkpt><trkpt lat="44.31134633777894" lon="12.141253562779498"><ele>6.0</ele><time>2026-04-24T13:27:39Z</time></trkpt><trkpt lat="44.31123923660314" lon="12.141363498744509"><ele>6.0</ele><time>2026-04-24T13:27:40Z</time></trkpt><trkpt lat="44.311132144618426" lon="12.141467498272245"><ele>6.0</ele><time>2026-04-24T13:27:41Z</time></trkpt><trkpt lat="44.311021868905556" lon="12.141566386865467"><ele>6.0</ele><time>2026-04-24T13:27:42Z</time></trkpt><trkpt lat="44.31090145756266" lon="12.141669923118771"><ele>6.0</ele><time>2026-04-24T13:27:43Z</time></trkpt><trkpt lat="44.31076757918983" lon="12.141768619080457"><ele>6.0</ele><time>2026-04-24T13:27:44Z</time></trkpt><trkpt lat="44.31062176758477" lon="12.141860898204294"><ele>6.0</ele><time>2026-04-24T13:27:45Z</time></trkpt><trkpt lat="44.310476885302485" lon="12.141939326890554"><ele>6.25</ele><time>2026-04-24T13:27:46Z</time></trkpt><trkpt lat="44.31034320751668" lon="12.142001832570493"><ele>6.5</ele><time>2026-04-24T13:27:47Z</time></trkpt><trkpt lat="44.31021332639372" lon="12.14205256305646"><ele>6.75</ele><time>2026-04-24T13:27:48Z</time></trkpt><trkpt lat="44.310076888617125" lon="12.142101976336399"><ele>7.0</ele><time>2026-04-24T13:27:49Z</time></trkpt><trkpt lat="44.30993360399729" lon="12.142155809958151"><ele>7.0</ele><time>2026-04-24T13:27:50Z</time></trkpt><trkpt lat="44.309789128628374" lon="12.142215522222688"><ele>7.0</ele><time>2026-04-24T13:27:51Z</time></trkpt><trkpt lat="44.30965180171716" lon="12.1422860955282"><ele>7.0</ele><time>2026-04-24T13:27:52Z</time></trkpt><trkpt lat="44.30952086287713" lon="12.142357956694212"><ele>7.0</ele><time>2026-04-24T13:27:53Z</time></trkpt><trkpt lat="44.309395856794175" lon="12.14243077830643"><ele>7.25</ele><time>2026-04-24T13:27:54Z</time></trkpt><trkpt lat="44.30927931535045" lon="12.142496402097263"><ele>7.5</ele><time>2026-04-24T13:27:55Z</time></trkpt><trkpt lat="44.30916533384246" lon="12.142561302896343"><ele>7.75</ele><time>2026-04-24T13:27:56Z</time></trkpt><trkpt lat="44.30904144359184" lon="12.14263967003982"><ele>8.0</ele><time>2026-04-24T13:27:57Z</time></trkpt><trkpt lat="44.30891247470627" lon="12.14271705741788"><ele>7.5</ele><time>2026-04-24T13:27:58Z</time></trkpt><trkpt lat="44.30877966433387" lon="12.142794047862724"><ele>7.0</ele><time>2026-04-24T13:27:59Z</time></trkpt><trkpt lat="44.30864971415945" lon="12.142864176073719"><ele>6.5</ele><time>2026-04-24T13:28:00Z</time></trkpt><trkpt lat="44.308523741762514" lon="12.14292953708525"><ele>6.0</ele><time>2026-04-24T13:28:01Z</time></trkpt><trkpt lat="44.308404514226545" lon="12.142995206071717"><ele>6.0</ele><time>2026-04-24T13:28:02Z</time></trkpt><trkpt lat="44.30828833905999" lon="12.143051652398418"><ele>6.0</ele><time>2026-04-24T13:28:03Z</time></trkpt><trkpt lat="44.30816428156599" lon="12.143094026965768"><ele>6.0</ele><time>2026-04-24T13:28:04Z</time></trkpt><trkpt lat="44.30804097666569" lon="12.143132011490286"><ele>6.0</ele><time>2026-04-24T13:28:05Z</time></trkpt><trkpt lat="44.307915340813224" lon="12.143160930744813"><ele>6.25</ele><time>2026-04-24T13:28:06Z</time></trkpt><trkpt lat="44.30778126773579" lon="12.143150626245298"><ele>6.5</ele><time>2026-04-24T13:28:07Z</time></trkpt><trkpt lat="44.307654654429754" lon="12.143195067775927"><ele>6.75</ele><time>2026-04-24T13:28:08Z</time></trkpt><trkpt lat="44.30752401712403" lon="12.14322499897814"><ele>7.0</ele><time>2026-04-24T13:28:09Z</time></trkpt><trkpt lat="44.30739400123004" lon="12.143268829760535"><ele>7.75</ele><time>2026-04-24T13:28:10Z</time></trkpt><trkpt lat="44.30726519411194" lon="12.143326968999984"><ele>8.5</ele><time>2026-04-24T13:28:11Z</time></trkpt><trkpt lat="44.30713444422083" lon="12.143402725696278"><ele>9.25</ele><time>2026-04-24T13:28:12Z</time></trkpt><trkpt lat="44.307004906400444" lon="12.143479652746038"><ele>10.0</ele><time>2026-04-24T13:28:13Z</time></trkpt><trkpt lat="44.30687769031299" lon="12.143561190860085"><ele>10.0</ele><time>2026-04-24T13:28:14Z</time></trkpt><trkpt lat="44.306757797389" lon="12.14364611461909"><ele>10.0</ele><time>2026-04-24T13:28:15Z</time></trkpt><trkpt lat="44.30664090810537" lon="12.143730912694915"><ele>10.0</ele><time>2026-04-24T13:28:16Z</time></trkpt><trkpt lat="44.30652823222449" lon="12.143813310977311"><ele>10.0</ele><time>2026-04-24T13:28:17Z</time></trkpt><trkpt lat="44.30641935076898" lon="12.143887487381836"><ele>10.0</ele><time>2026-04-24T13:28:18Z</time></trkpt><trkpt lat="44.30631117875022" lon="12.143957131939537"><ele>10.0</ele><time>2026-04-24T13:28:19Z</time></trkpt><trkpt lat="44.30620611104885" lon="12.144023417424389"><ele>10.0</ele><time>2026-04-24T13:28:20Z</time></trkpt><trkpt lat="44.30610531849189" lon="12.144087762770301"><ele>10.0</ele><time>2026-04-24T13:28:21Z</time></trkpt><trkpt lat="44.30599877088193" lon="12.144145756483436"><ele>10.0</ele><time>2026-04-24T13:28:22Z</time></trkpt><trkpt lat="44.30589436610788" lon="12.144209356531674"><ele>10.0</ele><time>2026-04-24T13:28:23Z</time></trkpt><trkpt lat="44.30578702288214" lon="12.144270907011563"><ele>10.0</ele><time>2026-04-24T13:28:24Z</time></trkpt><trkpt lat="44.30567914752003" lon="12.144333482955041"><ele>10.0</ele><time>2026-04-24T13:28:25Z</time></trkpt><trkpt lat="44.30556786019787" lon="12.144394811788628"><ele>9.75</ele><time>2026-04-24T13:28:26Z</time></trkpt><trkpt lat="44.30545611006516" lon="12.14445764097478"><ele>9.5</ele><time>2026-04-24T13:28:27Z</time></trkpt><trkpt lat="44.305343269637916" lon="12.144519196637795"><ele>9.25</ele><time>2026-04-24T13:28:28Z</time></trkpt><trkpt lat="44.30523293268667" lon="12.144581264747911"><ele>9.0</ele><time>2026-04-24T13:28:29Z</time></trkpt><trkpt lat="44.305126485946516" lon="12.144634682323904"><ele>9.0</ele><time>2026-04-24T13:28:30Z</time></trkpt><trkpt lat="44.30502566184848" lon="12.144683170808582"><ele>9.0</ele><time>2026-04-24T13:28:31Z</time></trkpt><trkpt lat="44.30492619001645" lon="12.144720478515463"><ele>9.0</ele><time>2026-04-24T13:28:32Z</time></trkpt><trkpt lat="44.304820736093106" lon="12.144751689470839"><ele>9.0</ele><time>2026-04-24T13:28:33Z</time></trkpt><trkpt lat="44.30470790047464" lon="12.144742078040636"><ele>9.0</ele><time>2026-04-24T13:28:34Z</time></trkpt><trkpt lat="44.30459264094814" lon="12.144736476962121"><ele>8.75</ele><time>2026-04-24T13:28:35Z</time></trkpt><trkpt lat="44.304472673733926" lon="12.144727234828222"><ele>8.5</ele><time>2026-04-24T13:28:36Z</time></trkpt><trkpt lat="44.30435755352946" lon="12.144717351411533"><ele>8.25</ele><time>2026-04-24T13:28:37Z</time></trkpt><trkpt lat="44.30424694946862" lon="12.144707855720284"><ele>8.0</ele><time>2026-04-24T13:28:38Z</time></trkpt><trkpt lat="44.30414051048107" lon="12.144698717612076"><ele>8.0</ele><time>2026-04-24T13:28:39Z</time></trkpt><trkpt lat="44.30403797169549" lon="12.144689120268474"><ele>8.0</ele><time>2026-04-24T13:28:40Z</time></trkpt><trkpt lat="44.30393797340838" lon="12.144679525015647"><ele>8.0</ele><time>2026-04-24T13:28:41Z</time></trkpt><trkpt lat="44.30384143617037" lon="12.14467026186496"><ele>8.0</ele><time>2026-04-24T13:28:42Z</time></trkpt><trkpt lat="44.303752254211446" lon="12.144671633647317"><ele>8.0</ele><time>2026-04-24T13:28:43Z</time></trkpt><trkpt lat="44.30366386948551" lon="12.144658885226763"><ele>8.0</ele><time>2026-04-24T13:28:44Z</time></trkpt><trkpt lat="44.303562891852856" lon="12.144650127377705"><ele>8.0</ele><time>2026-04-24T13:28:45Z</time></trkpt><trkpt lat="44.30345667585173" lon="12.144639266308216"><ele>8.0</ele><time>2026-04-24T13:28:46Z</time></trkpt><trkpt lat="44.303348676155814" lon="12.144630887572752"><ele>8.0</ele><time>2026-04-24T13:28:47Z</time></trkpt><trkpt lat="44.30324230207189" lon="12.144627935320827"><ele>8.0</ele><time>2026-04-24T13:28:48Z</time></trkpt><trkpt lat="44.30313362623613" lon="12.144621652123018"><ele>8.200000000000001</ele><time>2026-04-24T13:28:49Z</time></trkpt><trkpt lat="44.303026656032614" lon="12.14462451682022"><ele>8.4</ele><time>2026-04-24T13:28:50Z</time></trkpt><trkpt lat="44.302921242142375" lon="12.144637506070199"><ele>8.600000000000001</ele><time>2026-04-24T13:28:51Z</time></trkpt><trkpt lat="44.30281907846608" lon="12.144652905036919"><ele>8.8</ele><time>2026-04-24T13:28:52Z</time></trkpt><trkpt lat="44.302727178499" lon="12.144665094105351"><ele>9.0</ele><time>2026-04-24T13:28:53Z</time></trkpt><trkpt lat="44.302642425510385" lon="12.144675995425294"><ele>9.0</ele><time>2026-04-24T13:28:54Z</time></trkpt><trkpt lat="44.30255603723222" lon="12.144690715179092"><ele>9.0</ele><time>2026-04-24T13:28:55Z</time></trkpt><trkpt lat="44.3024624839504" lon="12.144711597529971"><ele>9.0</ele><time>2026-04-24T13:28:56Z</time></trkpt><trkpt lat="44.30236700925811" lon="12.144737943678079"><ele>9.0</ele><time>2026-04-24T13:28:57Z</time></trkpt><trkpt lat="44.30228061152976" lon="12.144764236358109"><ele>9.0</ele><time>2026-04-24T13:28:58Z</time></trkpt><trkpt lat="44.30220323260717" lon="12.14478976814931"><ele>9.0</ele><time>2026-04-24T13:28:59Z</time></trkpt><trkpt lat="44.302128479896204" lon="12.144809413582175"><ele>9.0</ele><time>2026-04-24T13:29:00Z</time></trkpt><trkpt lat="44.30205218765255" lon="12.144831851701973"><ele>9.0</ele><time>2026-04-24T13:29:01Z</time></trkpt><trkpt lat="44.30198446178811" lon="12.14484743057339"><ele>9.0</ele><time>2026-04-24T13:29:02Z</time></trkpt><trkpt lat="44.30191618132574" lon="12.1448649785106"><ele>9.0</ele><time>2026-04-24T13:29:03Z</time></trkpt><trkpt lat="44.30185296604423" lon="12.144887398267407"><ele>9.0</ele><time>2026-04-24T13:29:04Z</time></trkpt><trkpt lat="44.301746242374605" lon="12.144937851674444"><ele>9.0</ele><time>2026-04-24T13:29:06Z</time></trkpt><trkpt lat="44.301657161314814" lon="12.144985965828731"><ele>9.0</ele><time>2026-04-24T13:29:08Z</time></trkpt><trkpt lat="44.30159556077816" lon="12.145027810396801"><ele>9.0</ele><time>2026-04-24T13:29:10Z</time></trkpt><trkpt lat="44.30150348293819" lon="12.145092760004754"><ele>9.0</ele><time>2026-04-24T13:29:13Z</time></trkpt><trkpt lat="44.30141910587996" lon="12.145168800928237"><ele>9.0</ele><time>2026-04-24T13:29:15Z</time></trkpt><trkpt lat="44.30135622988888" lon="12.145227433208118"><ele>9.0</ele><time>2026-04-24T13:29:16Z</time></trkpt><trkpt lat="44.301283513271194" lon="12.145293191014128"><ele>9.0</ele><time>2026-04-24T13:29:17Z</time></trkpt><trkpt lat="44.30120009643135" lon="12.145364450711714"><ele>9.0</ele><time>2026-04-24T13:29:18Z</time></trkpt><trkpt lat="44.30111148468208" lon="12.14544239302595"><ele>9.0</ele><time>2026-04-24T13:29:19Z</time></trkpt><trkpt lat="44.30101774026979" lon="12.145520843016998"><ele>9.0</ele><time>2026-04-24T13:29:20Z</time></trkpt><trkpt lat="44.30092193851169" lon="12.145608476621552"><ele>9.0</ele><time>2026-04-24T13:29:21Z</time></trkpt><trkpt lat="44.30082649224444" lon="12.145701828881755"><ele>9.0</ele><time>2026-04-24T13:29:22Z</time></trkpt><trkpt lat="44.30073214034451" lon="12.145794153369849"><ele>9.0</ele><time>2026-04-24T13:29:23Z</time></trkpt><trkpt lat="44.30064070844157" lon="12.145885353658938"><ele>9.0</ele><time>2026-04-24T13:29:24Z</time></trkpt><trkpt lat="44.300551926771476" lon="12.145976620590972"><ele>9.0</ele><time>2026-04-24T13:29:25Z</time></trkpt><trkpt lat="44.30046551950958" lon="12.146066620417768"><ele>9.0</ele><time>2026-04-24T13:29:26Z</time></trkpt><trkpt lat="44.300378649766905" lon="12.146164279600688"><ele>9.0</ele><time>2026-04-24T13:29:27Z</time></trkpt><trkpt lat="44.30028768768242" lon="12.14626299754729"><ele>9.0</ele><time>2026-04-24T13:29:28Z</time></trkpt><trkpt lat="44.30018939513167" lon="12.146365659258413"><ele>9.0</ele><time>2026-04-24T13:29:29Z</time></trkpt><trkpt lat="44.30009013802876" lon="12.14647985951953"><ele>9.0</ele><time>2026-04-24T13:29:30Z</time></trkpt><trkpt lat="44.29998489270484" lon="12.146591293248408"><ele>9.0</ele><time>2026-04-24T13:29:31Z</time></trkpt><trkpt lat="44.29987567612747" lon="12.146700350017227"><ele>9.25</ele><time>2026-04-24T13:29:32Z</time></trkpt><trkpt lat="44.299771900838486" lon="12.146805821316969"><ele>9.5</ele><time>2026-04-24T13:29:33Z</time></trkpt><trkpt lat="44.29966294859516" lon="12.146920856902236"><ele>9.75</ele><time>2026-04-24T13:29:34Z</time></trkpt><trkpt lat="44.29954734956185" lon="12.147030952852619"><ele>10.0</ele><time>2026-04-24T13:29:35Z</time></trkpt><trkpt lat="44.299432470847215" lon="12.147151863303671"><ele>10.0</ele><time>2026-04-24T13:29:36Z</time></trkpt><trkpt lat="44.29931679041781" lon="12.147275955343863"><ele>10.0</ele><time>2026-04-24T13:29:37Z</time></trkpt><trkpt lat="44.299200665817" lon="12.1474050268017"><ele>10.0</ele><time>2026-04-24T13:29:38Z</time></trkpt><trkpt lat="44.299079938494515" lon="12.147529295806624"><ele>10.0</ele><time>2026-04-24T13:29:39Z</time></trkpt><trkpt lat="44.29895536794829" lon="12.147656987395829"><ele>10.333333333333334</ele><time>2026-04-24T13:29:40Z</time></trkpt><trkpt lat="44.29882113333127" lon="12.147785506643157"><ele>10.666666666666666</ele><time>2026-04-24T13:29:41Z</time></trkpt><trkpt lat="44.29868803643064" lon="12.147924419369927"><ele>11.0</ele><time>2026-04-24T13:29:42Z</time></trkpt><trkpt lat="44.29854966352201" lon="12.148062527096766"><ele>11.0</ele><time>2026-04-24T13:29:43Z</time></trkpt><trkpt lat="44.29841382277148" lon="12.14820942897638"><ele>11.0</ele><time>2026-04-24T13:29:44Z</time></trkpt><trkpt lat="44.29827592878408" lon="12.14835279109997"><ele>11.0</ele><time>2026-04-24T13:29:45Z</time></trkpt><trkpt lat="44.298136537385346" lon="12.148505060101202"><ele>10.666666666666666</ele><time>2026-04-24T13:29:46Z</time></trkpt><trkpt lat="44.29800057032398" lon="12.14865880124054"><ele>10.333333333333334</ele><time>2026-04-24T13:29:47Z</time></trkpt><trkpt lat="44.2978597833241" lon="12.148816435222102"><ele>10.0</ele><time>2026-04-24T13:29:48Z</time></trkpt><trkpt lat="44.29772573685458" lon="12.148966638181728"><ele>10.333333333333334</ele><time>2026-04-24T13:29:49Z</time></trkpt><trkpt lat="44.29759664585756" lon="12.149109583386487"><ele>10.666666666666666</ele><time>2026-04-24T13:29:50Z</time></trkpt><trkpt lat="44.29746549866582" lon="12.149259347677212"><ele>11.0</ele><time>2026-04-24T13:29:51Z</time></trkpt><trkpt lat="44.29733177466617" lon="12.14940211469258"><ele>10.666666666666666</ele><time>2026-04-24T13:29:52Z</time></trkpt><trkpt lat="44.297197635148756" lon="12.149544916140204"><ele>10.333333333333334</ele><time>2026-04-24T13:29:53Z</time></trkpt><trkpt lat="44.297066348947034" lon="12.149684721376369"><ele>10.0</ele><time>2026-04-24T13:29:54Z</time></trkpt><trkpt lat="44.29693737378547" lon="12.149825354714777"><ele>10.333333333333334</ele><time>2026-04-24T13:29:55Z</time></trkpt><trkpt lat="44.2968056664943" lon="12.149968452187258"><ele>10.666666666666666</ele><time>2026-04-24T13:29:56Z</time></trkpt><trkpt lat="44.29667322414463" lon="12.150110703700618"><ele>11.0</ele><time>2026-04-24T13:29:57Z</time></trkpt><trkpt lat="44.296536484242544" lon="12.150247896580169"><ele>10.0</ele><time>2026-04-24T13:29:58Z</time></trkpt><trkpt lat="44.296401108383165" lon="12.1503865115657"><ele>9.0</ele><time>2026-04-24T13:29:59Z</time></trkpt><trkpt lat="44.296266804051385" lon="12.150534831513056"><ele>8.0</ele><time>2026-04-24T13:30:00Z</time></trkpt><trkpt lat="44.296128831960345" lon="12.150680835339553"><ele>8.666666666666666</ele><time>2026-04-24T13:30:01Z</time></trkpt><trkpt lat="44.2959901232658" lon="12.15082568694258"><ele>9.333333333333334</ele><time>2026-04-24T13:30:02Z</time></trkpt><trkpt lat="44.29584891406303" lon="12.150971903925956"><ele>10.0</ele><time>2026-04-24T13:30:03Z</time></trkpt><trkpt lat="44.29570056971094" lon="12.151125649817331"><ele>9.666666666666668</ele><time>2026-04-24T13:30:04Z</time></trkpt><trkpt lat="44.29554708346493" lon="12.151288983745264"><ele>9.333333333333334</ele><time>2026-04-24T13:30:05Z</time></trkpt><trkpt lat="44.295388115474395" lon="12.151455311806666"><ele>9.0</ele><time>2026-04-24T13:30:06Z</time></trkpt><trkpt lat="44.295230835037955" lon="12.151623587915527"><ele>9.0</ele><time>2026-04-24T13:30:07Z</time></trkpt><trkpt lat="44.29507530144833" lon="12.151788535078067"><ele>9.0</ele><time>2026-04-24T13:30:08Z</time></trkpt><trkpt lat="44.29492400507618" lon="12.151949192566128"><ele>9.0</ele><time>2026-04-24T13:30:09Z</time></trkpt><trkpt lat="44.294782143159985" lon="12.15211241158642"><ele>9.0</ele><time>2026-04-24T13:30:10Z</time></trkpt><trkpt lat="44.294650532934774" lon="12.152289759070594"><ele>9.0</ele><time>2026-04-24T13:30:11Z</time></trkpt><trkpt lat="44.29452800079267" lon="12.152476412163352"><ele>9.0</ele><time>2026-04-24T13:30:12Z</time></trkpt><trkpt lat="44.294414759103745" lon="12.152677549927645"><ele>9.0</ele><time>2026-04-24T13:30:13Z</time></trkpt><trkpt lat="44.29430743850274" lon="12.152896059338"><ele>9.0</ele><time>2026-04-24T13:30:14Z</time></trkpt><trkpt lat="44.294213467872225" lon="12.1531300511183"><ele>9.0</ele><time>2026-04-24T13:30:15Z</time></trkpt><trkpt lat="44.294129600805846" lon="12.153374471586362"><ele>9.0</ele><time>2026-04-24T13:30:16Z</time></trkpt><trkpt lat="44.29405611267211" lon="12.153622400826958"><ele>9.0</ele><time>2026-04-24T13:30:17Z</time></trkpt><trkpt lat="44.29399693890142" lon="12.153869853887922"><ele>9.0</ele><time>2026-04-24T13:30:18Z</time></trkpt><trkpt lat="44.29395166483882" lon="12.15412660631375"><ele>9.0</ele><time>2026-04-24T13:30:19Z</time></trkpt><trkpt lat="44.293918878389256" lon="12.154383970770533"><ele>9.0</ele><time>2026-04-24T13:30:20Z</time></trkpt><trkpt lat="44.29389733411295" lon="12.154648882144345"><ele>9.0</ele><time>2026-04-24T13:30:21Z</time></trkpt><trkpt lat="44.29388591641352" lon="12.154915499169284"><ele>9.333333333333334</ele><time>2026-04-24T13:30:22Z</time></trkpt><trkpt lat="44.29388634947777" lon="12.155182926188797"><ele>9.666666666666668</ele><time>2026-04-24T13:30:23Z</time></trkpt><trkpt lat="44.29388757993197" lon="12.155452782606181"><ele>10.0</ele><time>2026-04-24T13:30:24Z</time></trkpt><trkpt lat="44.29388483850839" lon="12.155720754868304"><ele>10.0</ele><time>2026-04-24T13:30:25Z</time></trkpt><trkpt lat="44.29388109170948" lon="12.155994060855024"><ele>10.0</ele><time>2026-04-24T13:30:26Z</time></trkpt><trkpt lat="44.29387309652866" lon="12.15626208715558"><ele>10.0</ele><time>2026-04-24T13:30:27Z</time></trkpt><trkpt lat="44.29386487521759" lon="12.156520842844056"><ele>9.666666666666668</ele><time>2026-04-24T13:30:28Z</time></trkpt><trkpt lat="44.29385806069979" lon="12.156768986976134"><ele>9.333333333333334</ele><time>2026-04-24T13:30:29Z</time></trkpt><trkpt lat="44.29385128776026" lon="12.157021338663403"><ele>9.0</ele><time>2026-04-24T13:30:30Z</time></trkpt><trkpt lat="44.293845319813414" lon="12.157273033299072"><ele>8.666666666666666</ele><time>2026-04-24T13:30:31Z</time></trkpt><trkpt lat="44.29383570314692" lon="12.157524791368738"><ele>8.333333333333332</ele><time>2026-04-24T13:30:32Z</time></trkpt><trkpt lat="44.293825604193756" lon="12.1577800423492"><ele>8.0</ele><time>2026-04-24T13:30:33Z</time></trkpt><trkpt lat="44.29381896830653" lon="12.158034005523987"><ele>8.0</ele><time>2026-04-24T13:30:34Z</time></trkpt><trkpt lat="44.293814280128316" lon="12.158285795309858"><ele>8.0</ele><time>2026-04-24T13:30:35Z</time></trkpt><trkpt lat="44.29380554262244" lon="12.15853943254958"><ele>8.0</ele><time>2026-04-24T13:30:36Z</time></trkpt><trkpt lat="44.293797385010954" lon="12.158794326924038"><ele>7.666666666666666</ele><time>2026-04-24T13:30:37Z</time></trkpt><trkpt lat="44.29378770121526" lon="12.15905030719325"><ele>7.333333333333334</ele><time>2026-04-24T13:30:38Z</time></trkpt><trkpt lat="44.29377964242588" lon="12.159305939526831"><ele>7.0</ele><time>2026-04-24T13:30:39Z</time></trkpt><trkpt lat="44.293773977112565" lon="12.159558253907454"><ele>7.0</ele><time>2026-04-24T13:30:40Z</time></trkpt><trkpt lat="44.29376660158089" lon="12.159809713524533"><ele>7.0</ele><time>2026-04-24T13:30:41Z</time></trkpt><trkpt lat="44.293759525681416" lon="12.160062298560995"><ele>7.0</ele><time>2026-04-24T13:30:42Z</time></trkpt><trkpt lat="44.2937537325637" lon="12.160312956290102"><ele>7.333333333333334</ele><time>2026-04-24T13:30:43Z</time></trkpt><trkpt lat="44.29374774744069" lon="12.160566250489392"><ele>7.666666666666666</ele><time>2026-04-24T13:30:44Z</time></trkpt><trkpt lat="44.29374120388614" lon="12.160812481828657"><ele>8.0</ele><time>2026-04-24T13:30:45Z</time></trkpt><trkpt lat="44.29373508276977" lon="12.16106607153256"><ele>8.0</ele><time>2026-04-24T13:30:46Z</time></trkpt><trkpt lat="44.29372839046829" lon="12.161320515833578"><ele>8.0</ele><time>2026-04-24T13:30:47Z</time></trkpt><trkpt lat="44.29372250864462" lon="12.161579328745816"><ele>8.0</ele><time>2026-04-24T13:30:48Z</time></trkpt><trkpt lat="44.2937146325515" lon="12.161830339376104"><ele>8.0</ele><time>2026-04-24T13:30:49Z</time></trkpt><trkpt lat="44.29370872977183" lon="12.162082378091617"><ele>8.0</ele><time>2026-04-24T13:30:50Z</time></trkpt><trkpt lat="44.293698200733616" lon="12.162333727683743"><ele>8.0</ele><time>2026-04-24T13:30:51Z</time></trkpt><trkpt lat="44.29369162912524" lon="12.162580420560138"><ele>7.0</ele><time>2026-04-24T13:30:52Z</time></trkpt><trkpt lat="44.29368510066839" lon="12.162822519195968"><ele>6.0</ele><time>2026-04-24T13:30:53Z</time></trkpt><trkpt lat="44.29367500480171" lon="12.163066064736888"><ele>5.0</ele><time>2026-04-24T13:30:54Z</time></trkpt><trkpt lat="44.29366903283132" lon="12.163308602964271"><ele>5.0</ele><time>2026-04-24T13:30:55Z</time></trkpt><trkpt lat="44.29365938264433" lon="12.163553066334456"><ele>5.0</ele><time>2026-04-24T13:30:56Z</time></trkpt><trkpt lat="44.29364688917883" lon="12.163795386627237"><ele>5.0</ele><time>2026-04-24T13:30:57Z</time></trkpt><trkpt lat="44.293626997663274" lon="12.164040537965365"><ele>5.0</ele><time>2026-04-24T13:30:58Z</time></trkpt><trkpt lat="44.29359521403695" lon="12.1642790919894"><ele>5.0</ele><time>2026-04-24T13:30:59Z</time></trkpt><trkpt lat="44.293553105354604" lon="12.16451612793141"><ele>5.0</ele><time>2026-04-24T13:31:00Z</time></trkpt><trkpt lat="44.29350667725106" lon="12.16474914404652"><ele>5.333333333333334</ele><time>2026-04-24T13:31:01Z</time></trkpt><trkpt lat="44.29345950012842" lon="12.16497925891327"><ele>5.666666666666667</ele><time>2026-04-24T13:31:02Z</time></trkpt><trkpt lat="44.293411008964775" lon="12.165209630279714"><ele>6.0</ele><time>2026-04-24T13:31:03Z</time></trkpt><trkpt lat="44.29336941144275" lon="12.16544221908127"><ele>6.0</ele><time>2026-04-24T13:31:04Z</time></trkpt><trkpt lat="44.29332386311751" lon="12.16567062983632"><ele>6.0</ele><time>2026-04-24T13:31:05Z</time></trkpt><trkpt lat="44.29327239725263" lon="12.165901435094364"><ele>6.0</ele><time>2026-04-24T13:31:06Z</time></trkpt><trkpt lat="44.293215406716456" lon="12.16612609136075"><ele>6.333333333333334</ele><time>2026-04-24T13:31:07Z</time></trkpt><trkpt lat="44.293151028493675" lon="12.1663529910666"><ele>6.666666666666667</ele><time>2026-04-24T13:31:08Z</time></trkpt><trkpt lat="44.293073586707145" lon="12.166569510475282"><ele>7.0</ele><time>2026-04-24T13:31:09Z</time></trkpt><trkpt lat="44.29299823574451" lon="12.166791090738267"><ele>7.0</ele><time>2026-04-24T13:31:10Z</time></trkpt><trkpt lat="44.292919110957584" lon="12.167007694378919"><ele>7.0</ele><time>2026-04-24T13:31:11Z</time></trkpt><trkpt lat="44.292840458442974" lon="12.167227210696971"><ele>7.0</ele><time>2026-04-24T13:31:12Z</time></trkpt><trkpt lat="44.29275894519609" lon="12.167449955113725"><ele>7.333333333333334</ele><time>2026-04-24T13:31:13Z</time></trkpt><trkpt lat="44.29268285036327" lon="12.167670061950178"><ele>7.666666666666666</ele><time>2026-04-24T13:31:14Z</time></trkpt><trkpt lat="44.29260530323344" lon="12.167903357881507"><ele>8.0</ele><time>2026-04-24T13:31:15Z</time></trkpt><trkpt lat="44.29252654888344" lon="12.168138198137989"><ele>7.666666666666666</ele><time>2026-04-24T13:31:16Z</time></trkpt><trkpt lat="44.29244459317083" lon="12.168374652076205"><ele>7.333333333333334</ele><time>2026-04-24T13:31:17Z</time></trkpt><trkpt lat="44.29235958443951" lon="12.1686160187955"><ele>7.0</ele><time>2026-04-24T13:31:18Z</time></trkpt><trkpt lat="44.29227661708467" lon="12.168857083534316"><ele>6.666666666666667</ele><time>2026-04-24T13:31:19Z</time></trkpt><trkpt lat="44.292190348075955" lon="12.169098536245688"><ele>6.333333333333334</ele><time>2026-04-24T13:31:20Z</time></trkpt><trkpt lat="44.2921082755187" lon="12.169346501376992"><ele>6.0</ele><time>2026-04-24T13:31:21Z</time></trkpt><trkpt lat="44.29202340881167" lon="12.169588627409025"><ele>6.0</ele><time>2026-04-24T13:31:22Z</time></trkpt><trkpt lat="44.29193952654753" lon="12.169833471010987"><ele>6.0</ele><time>2026-04-24T13:31:23Z</time></trkpt><trkpt lat="44.291849739966196" lon="12.170080458217335"><ele>6.0</ele><time>2026-04-24T13:31:24Z</time></trkpt><trkpt lat="44.29176117162568" lon="12.170322622699976"><ele>6.0</ele><time>2026-04-24T13:31:25Z</time></trkpt><trkpt lat="44.29167705376788" lon="12.170558477819052"><ele>6.0</ele><time>2026-04-24T13:31:26Z</time></trkpt><trkpt lat="44.29159522593205" lon="12.170792907472785"><ele>6.0</ele><time>2026-04-24T13:31:27Z</time></trkpt><trkpt lat="44.29151597435021" lon="12.171024704329025"><ele>6.0</ele><time>2026-04-24T13:31:28Z</time></trkpt><trkpt lat="44.2914355266452" lon="12.171258359432262"><ele>6.0</ele><time>2026-04-24T13:31:29Z</time></trkpt><trkpt lat="44.29136077793176" lon="12.171486638001053"><ele>6.0</ele><time>2026-04-24T13:31:30Z</time></trkpt><trkpt lat="44.291286198048944" lon="12.171710987876011"><ele>6.0</ele><time>2026-04-24T13:31:31Z</time></trkpt><trkpt lat="44.29121426405513" lon="12.171931781452106"><ele>6.0</ele><time>2026-04-24T13:31:32Z</time></trkpt><trkpt lat="44.291137046587814" lon="12.172149397231305"><ele>6.0</ele><time>2026-04-24T13:31:33Z</time></trkpt><trkpt lat="44.29105712037955" lon="12.17236405529332"><ele>6.333333333333334</ele><time>2026-04-24T13:31:34Z</time></trkpt><trkpt lat="44.29096469468954" lon="12.172577018721288"><ele>6.666666666666667</ele><time>2026-04-24T13:31:35Z</time></trkpt><trkpt lat="44.290861537610375" lon="12.172783102130362"><ele>7.0</ele><time>2026-04-24T13:31:36Z</time></trkpt><trkpt lat="44.290754853683396" lon="12.172985436344641"><ele>7.0</ele><time>2026-04-24T13:31:37Z</time></trkpt><trkpt lat="44.290645604911546" lon="12.17318067915171"><ele>7.0</ele><time>2026-04-24T13:31:38Z</time></trkpt><trkpt lat="44.29053591465224" lon="12.173376566279263"><ele>7.0</ele><time>2026-04-24T13:31:39Z</time></trkpt><trkpt lat="44.29042784571587" lon="12.173573595344493"><ele>7.0</ele><time>2026-04-24T13:31:40Z</time></trkpt><trkpt lat="44.29031969010591" lon="12.173771702047762"><ele>7.0</ele><time>2026-04-24T13:31:41Z</time></trkpt><trkpt lat="44.29021192297443" lon="12.173972106611991"><ele>7.0</ele><time>2026-04-24T13:31:42Z</time></trkpt><trkpt lat="44.290107038809616" lon="12.174172413301651"><ele>7.0</ele><time>2026-04-24T13:31:43Z</time></trkpt><trkpt lat="44.29000319540022" lon="12.174373434930699"><ele>7.0</ele><time>2026-04-24T13:31:44Z</time></trkpt><trkpt lat="44.289901384505946" lon="12.17457513307676"><ele>7.0</ele><time>2026-04-24T13:31:45Z</time></trkpt><trkpt lat="44.2898024627238" lon="12.174776271130714"><ele>7.333333333333334</ele><time>2026-04-24T13:31:46Z</time></trkpt><trkpt lat="44.28970279563688" lon="12.174972961552806"><ele>7.666666666666666</ele><time>2026-04-24T13:31:47Z</time></trkpt><trkpt lat="44.28960884157514" lon="12.175172369346514"><ele>8.0</ele><time>2026-04-24T13:31:48Z</time></trkpt><trkpt lat="44.289523281467446" lon="12.175357144619479"><ele>8.0</ele><time>2026-04-24T13:31:49Z</time></trkpt><trkpt lat="44.28943142961827" lon="12.175538681896759"><ele>8.0</ele><time>2026-04-24T13:31:50Z</time></trkpt><trkpt lat="44.28932905705916" lon="12.175709398529154"><ele>8.0</ele><time>2026-04-24T13:31:51Z</time></trkpt><trkpt lat="44.28922661648187" lon="12.175874857717028"><ele>8.0</ele><time>2026-04-24T13:31:52Z</time></trkpt><trkpt lat="44.289110888532996" lon="12.1760247008508"><ele>8.0</ele><time>2026-04-24T13:31:53Z</time></trkpt><trkpt lat="44.289001643915924" lon="12.17616964049468"><ele>8.0</ele><time>2026-04-24T13:31:54Z</time></trkpt><trkpt lat="44.288880729653506" lon="12.176319390694841"><ele>9.0</ele><time>2026-04-24T13:31:55Z</time></trkpt><trkpt lat="44.288770822162036" lon="12.176479584079923"><ele>10.0</ele><time>2026-04-24T13:31:56Z</time></trkpt><trkpt lat="44.288663145898845" lon="12.176648420793269"><ele>11.0</ele><time>2026-04-24T13:31:57Z</time></trkpt><trkpt lat="44.28857174161434" lon="12.176839518435832"><ele>11.0</ele><time>2026-04-24T13:31:58Z</time></trkpt><trkpt lat="44.28849660191475" lon="12.17702801080714"><ele>11.0</ele><time>2026-04-24T13:31:59Z</time></trkpt><trkpt lat="44.288427964504855" lon="12.177218502752558"><ele>11.0</ele><time>2026-04-24T13:32:00Z</time></trkpt><trkpt lat="44.2883581234926" lon="12.17740677983281"><ele>11.0</ele><time>2026-04-24T13:32:01Z</time></trkpt><trkpt lat="44.28828505851367" lon="12.177578157598719"><ele>11.0</ele><time>2026-04-24T13:32:02Z</time></trkpt><trkpt lat="44.28820613360183" lon="12.177747962110278"><ele>11.0</ele><time>2026-04-24T13:32:03Z</time></trkpt><trkpt lat="44.28812093052506" lon="12.177914609056623"><ele>11.0</ele><time>2026-04-24T13:32:04Z</time></trkpt><trkpt lat="44.288035653849526" lon="12.178087115758181"><ele>9.666666666666666</ele><time>2026-04-24T13:32:05Z</time></trkpt><trkpt lat="44.287947096570285" lon="12.178259275276547"><ele>8.333333333333334</ele><time>2026-04-24T13:32:06Z</time></trkpt><trkpt lat="44.28784883221897" lon="12.178432628952805"><ele>7.0</ele><time>2026-04-24T13:32:07Z</time></trkpt><trkpt lat="44.287742108131454" lon="12.178607173990367"><ele>7.0</ele><time>2026-04-24T13:32:08Z</time></trkpt><trkpt lat="44.28763109739449" lon="12.178784468273511"><ele>7.0</ele><time>2026-04-24T13:32:09Z</time></trkpt><trkpt lat="44.28752500706642" lon="12.178966952874466"><ele>7.0</ele><time>2026-04-24T13:32:10Z</time></trkpt><trkpt lat="44.28741822656355" lon="12.179144948166293"><ele>6.666666666666667</ele><time>2026-04-24T13:32:11Z</time></trkpt><trkpt lat="44.28730960297502" lon="12.17932424506652"><ele>6.333333333333334</ele><time>2026-04-24T13:32:12Z</time></trkpt><trkpt lat="44.28720411723368" lon="12.179504543337623"><ele>6.0</ele><time>2026-04-24T13:32:13Z</time></trkpt><trkpt lat="44.28709706986549" lon="12.179684754183969"><ele>6.0</ele><time>2026-04-24T13:32:14Z</time></trkpt><trkpt lat="44.28698481968839" lon="12.179861020911469"><ele>6.0</ele><time>2026-04-24T13:32:15Z</time></trkpt><trkpt lat="44.28686976195112" lon="12.180034053748708"><ele>6.0</ele><time>2026-04-24T13:32:16Z</time></trkpt><trkpt lat="44.286754869128245" lon="12.18021102111071"><ele>6.0</ele><time>2026-04-24T13:32:17Z</time></trkpt><trkpt lat="44.286643065912635" lon="12.180391369043026"><ele>6.0</ele><time>2026-04-24T13:32:18Z</time></trkpt><trkpt lat="44.286533325816684" lon="12.180573671025103"><ele>6.0</ele><time>2026-04-24T13:32:19Z</time></trkpt><trkpt lat="44.28642248062657" lon="12.18075215240071"><ele>6.333333333333334</ele><time>2026-04-24T13:32:20Z</time></trkpt><trkpt lat="44.28630975869085" lon="12.180931090978891"><ele>6.666666666666667</ele><time>2026-04-24T13:32:21Z</time></trkpt><trkpt lat="44.286196907451576" lon="12.181113026932843"><ele>7.0</ele><time>2026-04-24T13:32:22Z</time></trkpt><trkpt lat="44.28608064734964" lon="12.181294937887484"><ele>7.0</ele><time>2026-04-24T13:32:23Z</time></trkpt><trkpt lat="44.285965989952146" lon="12.181479013458334"><ele>7.0</ele><time>2026-04-24T13:32:24Z</time></trkpt><trkpt lat="44.28585672940344" lon="12.181663072942548"><ele>7.0</ele><time>2026-04-24T13:32:25Z</time></trkpt><trkpt lat="44.28574056926045" lon="12.181844768678868"><ele>6.666666666666667</ele><time>2026-04-24T13:32:26Z</time></trkpt><trkpt lat="44.285624999438085" lon="12.182027929640947"><ele>6.333333333333334</ele><time>2026-04-24T13:32:27Z</time></trkpt><trkpt lat="44.28551095027852" lon="12.182215467255638"><ele>6.0</ele><time>2026-04-24T13:32:28Z</time></trkpt><trkpt lat="44.28539753598155" lon="12.18239987957156"><ele>5.666666666666667</ele><time>2026-04-24T13:32:29Z</time></trkpt><trkpt lat="44.28528667681235" lon="12.182582049238363"><ele>5.333333333333334</ele><time>2026-04-24T13:32:30Z</time></trkpt><trkpt lat="44.28517656480193" lon="12.182766255559255"><ele>5.0</ele><time>2026-04-24T13:32:31Z</time></trkpt><trkpt lat="44.28507149434993" lon="12.182960228694713"><ele>5.0</ele><time>2026-04-24T13:32:32Z</time></trkpt><trkpt lat="44.28497383640816" lon="12.183170499998958"><ele>5.0</ele><time>2026-04-24T13:32:33Z</time></trkpt><trkpt lat="44.28488778736559" lon="12.183389545269137"><ele>5.0</ele><time>2026-04-24T13:32:34Z</time></trkpt><trkpt lat="44.28480659881818" lon="12.183617124175717"><ele>5.0</ele><time>2026-04-24T13:32:35Z</time></trkpt><trkpt lat="44.28472589971693" lon="12.183851628610913"><ele>5.0</ele><time>2026-04-24T13:32:36Z</time></trkpt><trkpt lat="44.28464360839974" lon="12.18408587549712"><ele>5.0</ele><time>2026-04-24T13:32:37Z</time></trkpt><trkpt lat="44.28456133008305" lon="12.184323857268877"><ele>4.666666666666667</ele><time>2026-04-24T13:32:38Z</time></trkpt><trkpt lat="44.284477644777816" lon="12.184558100014717"><ele>4.333333333333333</ele><time>2026-04-24T13:32:39Z</time></trkpt><trkpt lat="44.28439077057915" lon="12.184795113140423"><ele>4.0</ele><time>2026-04-24T13:32:40Z</time></trkpt><trkpt lat="44.28430611436064" lon="12.18502932801345"><ele>4.0</ele><time>2026-04-24T13:32:41Z</time></trkpt><trkpt lat="44.284219738484175" lon="12.18526612161975"><ele>4.0</ele><time>2026-04-24T13:32:42Z</time></trkpt><trkpt lat="44.28413245077536" lon="12.185505712385012"><ele>4.0</ele><time>2026-04-24T13:32:43Z</time></trkpt><trkpt lat="44.28404433571055" lon="12.185742371464944"><ele>3.6666666666666665</ele><time>2026-04-24T13:32:44Z</time></trkpt><trkpt lat="44.28395573060332" lon="12.185978471322521"><ele>3.333333333333333</ele><time>2026-04-24T13:32:45Z</time></trkpt><trkpt lat="44.283867650042694" lon="12.186214619402064"><ele>3.0</ele><time>2026-04-24T13:32:46Z</time></trkpt><trkpt lat="44.283778497847884" lon="12.186452439458703"><ele>4.0</ele><time>2026-04-24T13:32:47Z</time></trkpt><trkpt lat="44.283690934886856" lon="12.186691230732892"><ele>5.0</ele><time>2026-04-24T13:32:48Z</time></trkpt><trkpt lat="44.28359952154291" lon="12.186925273249255"><ele>6.0</ele><time>2026-04-24T13:32:49Z</time></trkpt><trkpt lat="44.2835075694589" lon="12.187164668419369"><ele>5.666666666666667</ele><time>2026-04-24T13:32:50Z</time></trkpt><trkpt lat="44.28341419836642" lon="12.18740474076094"><ele>5.333333333333334</ele><time>2026-04-24T13:32:51Z</time></trkpt><trkpt lat="44.28332183559175" lon="12.187643284217094"><ele>5.0</ele><time>2026-04-24T13:32:52Z</time></trkpt><trkpt lat="44.28323448598093" lon="12.187880329512467"><ele>5.0</ele><time>2026-04-24T13:32:53Z</time></trkpt><trkpt lat="44.28314832083804" lon="12.188118742705903"><ele>5.0</ele><time>2026-04-24T13:32:54Z</time></trkpt><trkpt lat="44.28306453958849" lon="12.188360641444687"><ele>5.0</ele><time>2026-04-24T13:32:55Z</time></trkpt><trkpt lat="44.28298200535351" lon="12.188588183448639"><ele>5.0</ele><time>2026-04-24T13:32:56Z</time></trkpt><trkpt lat="44.282902268537356" lon="12.188800844599232"><ele>5.0</ele><time>2026-04-24T13:32:57Z</time></trkpt><trkpt lat="44.28282731352621" lon="12.188998991386775"><ele>5.0</ele><time>2026-04-24T13:32:58Z</time></trkpt><trkpt lat="44.28275313973784" lon="12.189199487635168"><ele>4.666666666666667</ele><time>2026-04-24T13:32:59Z</time></trkpt><trkpt lat="44.2826798887063" lon="12.189401334866117"><ele>4.333333333333333</ele><time>2026-04-24T13:33:00Z</time></trkpt><trkpt lat="44.28260725729607" lon="12.189591093921464"><ele>4.0</ele><time>2026-04-24T13:33:01Z</time></trkpt><trkpt lat="44.28253401694923" lon="12.189776328898963"><ele>4.0</ele><time>2026-04-24T13:33:02Z</time></trkpt><trkpt lat="44.28244792974097" lon="12.189954938514182"><ele>4.0</ele><time>2026-04-24T13:33:03Z</time></trkpt><trkpt lat="44.282325196442464" lon="12.190103156340468"><ele>4.0</ele><time>2026-04-24T13:33:04Z</time></trkpt><trkpt lat="44.282205906641664" lon="12.19026443487365"><ele>4.333333333333333</ele><time>2026-04-24T13:33:05Z</time></trkpt><trkpt lat="44.282083760607556" lon="12.190441995737569"><ele>4.666666666666667</ele><time>2026-04-24T13:33:06Z</time></trkpt><trkpt lat="44.28194736542842" lon="12.190611237144505"><ele>5.0</ele><time>2026-04-24T13:33:07Z</time></trkpt><trkpt lat="44.28180783307794" lon="12.190784765271367"><ele>5.0</ele><time>2026-04-24T13:33:08Z</time></trkpt><trkpt lat="44.28167191746744" lon="12.190954837246695"><ele>5.0</ele><time>2026-04-24T13:33:09Z</time></trkpt><trkpt lat="44.28153829420148" lon="12.191119781311961"><ele>5.0</ele><time>2026-04-24T13:33:10Z</time></trkpt><trkpt lat="44.2814086168313" lon="12.191281903860355"><ele>4.666666666666667</ele><time>2026-04-24T13:33:11Z</time></trkpt><trkpt lat="44.28128327561385" lon="12.191437056930603"><ele>4.333333333333333</ele><time>2026-04-24T13:33:12Z</time></trkpt><trkpt lat="44.28116924594479" lon="12.191584485210502"><ele>4.0</ele><time>2026-04-24T13:33:13Z</time></trkpt><trkpt lat="44.28105558737487" lon="12.191737710365409"><ele>4.0</ele><time>2026-04-24T13:33:14Z</time></trkpt><trkpt lat="44.28094167711485" lon="12.191889335671716"><ele>4.0</ele><time>2026-04-24T13:33:15Z</time></trkpt><trkpt lat="44.280831550277206" lon="12.192029667345999"><ele>4.0</ele><time>2026-04-24T13:33:16Z</time></trkpt><trkpt lat="44.28072464518089" lon="12.19216325231797"><ele>4.0</ele><time>2026-04-24T13:33:17Z</time></trkpt><trkpt lat="44.28060890546014" lon="12.192290983136926"><ele>4.0</ele><time>2026-04-24T13:33:18Z</time></trkpt><trkpt lat="44.28048320733171" lon="12.192409553550165"><ele>4.0</ele><time>2026-04-24T13:33:19Z</time></trkpt><trkpt lat="44.280353064359126" lon="12.192524900894929"><ele>3.0</ele><time>2026-04-24T13:33:20Z</time></trkpt><trkpt lat="44.280219076595216" lon="12.192634847152592"><ele>2.0</ele><time>2026-04-24T13:33:21Z</time></trkpt><trkpt lat="44.28008535366029" lon="12.192744586485679"><ele>1.0</ele><time>2026-04-24T13:33:22Z</time></trkpt><trkpt lat="44.279948076803336" lon="12.192857903803006"><ele>1.0</ele><time>2026-04-24T13:33:23Z</time></trkpt><trkpt lat="44.279811573972225" lon="12.192980999987382"><ele>1.0</ele><time>2026-04-24T13:33:24Z</time></trkpt><trkpt lat="44.279677384539525" lon="12.19311221519211"><ele>1.0</ele><time>2026-04-24T13:33:25Z</time></trkpt><trkpt lat="44.279544805747534" lon="12.193252135369562"><ele>2.0</ele><time>2026-04-24T13:33:26Z</time></trkpt><trkpt lat="44.279410635367014" lon="12.193392246791603"><ele>3.0</ele><time>2026-04-24T13:33:27Z</time></trkpt><trkpt lat="44.27927991086794" lon="12.193536882429438"><ele>4.0</ele><time>2026-04-24T13:33:28Z</time></trkpt><trkpt lat="44.279147496214726" lon="12.193681005327795"><ele>4.0</ele><time>2026-04-24T13:33:29Z</time></trkpt><trkpt lat="44.27901486886377" lon="12.193826074214122"><ele>4.0</ele><time>2026-04-24T13:33:30Z</time></trkpt><trkpt lat="44.2788841552216" lon="12.193972789164906"><ele>4.0</ele><time>2026-04-24T13:33:31Z</time></trkpt><trkpt lat="44.27875493711868" lon="12.19412115832076"><ele>3.6666666666666665</ele><time>2026-04-24T13:33:32Z</time></trkpt><trkpt lat="44.27862247249639" lon="12.194273373992784"><ele>3.333333333333333</ele><time>2026-04-24T13:33:33Z</time></trkpt><trkpt lat="44.278485530263055" lon="12.194415944697056"><ele>3.0</ele><time>2026-04-24T13:33:34Z</time></trkpt><trkpt lat="44.27833185671598" lon="12.194516435406475"><ele>3.0</ele><time>2026-04-24T13:33:35Z</time></trkpt><trkpt lat="44.27817642369843" lon="12.19461282845137"><ele>3.0</ele><time>2026-04-24T13:33:36Z</time></trkpt><trkpt lat="44.27801370772415" lon="12.194713738083813"><ele>3.0</ele><time>2026-04-24T13:33:37Z</time></trkpt><trkpt lat="44.277852386083126" lon="12.194830212057747"><ele>3.333333333333333</ele><time>2026-04-24T13:33:38Z</time></trkpt><trkpt lat="44.27768273158651" lon="12.194928164180448"><ele>3.6666666666666665</ele><time>2026-04-24T13:33:39Z</time></trkpt><trkpt lat="44.277504976515665" lon="12.195034107013171"><ele>4.0</ele><time>2026-04-24T13:33:40Z</time></trkpt><trkpt lat="44.27733053565261" lon="12.195141008941759"><ele>4.0</ele><time>2026-04-24T13:33:41Z</time></trkpt><trkpt lat="44.277162873702935" lon="12.195246499372889"><ele>4.0</ele><time>2026-04-24T13:33:42Z</time></trkpt><trkpt lat="44.2769944618712" lon="12.195359770984407"><ele>4.0</ele><time>2026-04-24T13:33:43Z</time></trkpt><trkpt lat="44.276826182511286" lon="12.195479950312249"><ele>4.0</ele><time>2026-04-24T13:33:44Z</time></trkpt><trkpt lat="44.276673141941004" lon="12.195597580185753"><ele>4.0</ele><time>2026-04-24T13:33:45Z</time></trkpt><trkpt lat="44.27653097573466" lon="12.19570781404927"><ele>4.0</ele><time>2026-04-24T13:33:46Z</time></trkpt><trkpt lat="44.27640071942572" lon="12.195815208113581"><ele>3.75</ele><time>2026-04-24T13:33:47Z</time></trkpt><trkpt lat="44.27627759035309" lon="12.195923359103057"><ele>3.5</ele><time>2026-04-24T13:33:48Z</time></trkpt><trkpt lat="44.27616224096034" lon="12.19602930354252"><ele>3.25</ele><time>2026-04-24T13:33:49Z</time></trkpt><trkpt lat="44.276050568466786" lon="12.196132611742025"><ele>3.0</ele><time>2026-04-24T13:33:50Z</time></trkpt><trkpt lat="44.27595127915512" lon="12.196248668162724"><ele>3.0</ele><time>2026-04-24T13:33:51Z</time></trkpt><trkpt lat="44.27586439115119" lon="12.196402231518988"><ele>3.0</ele><time>2026-04-24T13:33:52Z</time></trkpt><trkpt lat="44.27578377146876" lon="12.196572135740498"><ele>3.0</ele><time>2026-04-24T13:33:53Z</time></trkpt><trkpt lat="44.27571124933856" lon="12.196766202222971"><ele>3.0</ele><time>2026-04-24T13:33:54Z</time></trkpt><trkpt lat="44.27564094901332" lon="12.196977004904138"><ele>3.0</ele><time>2026-04-24T13:33:55Z</time></trkpt><trkpt lat="44.27557469236485" lon="12.197200873825826"><ele>3.0</ele><time>2026-04-24T13:33:56Z</time></trkpt><trkpt lat="44.27549050116743" lon="12.197428856835442"><ele>3.0</ele><time>2026-04-24T13:33:57Z</time></trkpt><trkpt lat="44.275406732463416" lon="12.19766506101929"><ele>3.333333333333333</ele><time>2026-04-24T13:33:58Z</time></trkpt><trkpt lat="44.27532381219224" lon="12.197902795559946"><ele>3.6666666666666665</ele><time>2026-04-24T13:33:59Z</time></trkpt><trkpt lat="44.275238191880085" lon="12.198148717514986"><ele>4.0</ele><time>2026-04-24T13:34:00Z</time></trkpt><trkpt lat="44.275149350491944" lon="12.198398086925598"><ele>4.0</ele><time>2026-04-24T13:34:01Z</time></trkpt><trkpt lat="44.275053202712215" lon="12.198653784548782"><ele>4.0</ele><time>2026-04-24T13:34:02Z</time></trkpt><trkpt lat="44.274958985970905" lon="12.198915303517698"><ele>4.0</ele><time>2026-04-24T13:34:03Z</time></trkpt><trkpt lat="44.2748657869249" lon="12.19918401178401"><ele>3.6666666666666665</ele><time>2026-04-24T13:34:04Z</time></trkpt><trkpt lat="44.27477348682328" lon="12.199454359589076"><ele>3.333333333333333</ele><time>2026-04-24T13:34:05Z</time></trkpt><trkpt lat="44.27468621654486" lon="12.199728899116316"><ele>3.0</ele><time>2026-04-24T13:34:06Z</time></trkpt><trkpt lat="44.27460221562623" lon="12.200001572038895"><ele>3.666666666666667</ele><time>2026-04-24T13:34:07Z</time></trkpt><trkpt lat="44.274524685541536" lon="12.200268548535554"><ele>4.333333333333334</ele><time>2026-04-24T13:34:08Z</time></trkpt><trkpt lat="44.27445787499477" lon="12.20053098478381"><ele>5.0</ele><time>2026-04-24T13:34:09Z</time></trkpt><trkpt lat="44.27439817313686" lon="12.200790673685214"><ele>5.0</ele><time>2026-04-24T13:34:10Z</time></trkpt><trkpt lat="44.274342107505305" lon="12.20104797522729"><ele>5.0</ele><time>2026-04-24T13:34:11Z</time></trkpt><trkpt lat="44.27428643625265" lon="12.201304317040725"><ele>5.0</ele><time>2026-04-24T13:34:12Z</time></trkpt><trkpt lat="44.27423237185909" lon="12.201560089005156"><ele>5.0</ele><time>2026-04-24T13:34:13Z</time></trkpt><trkpt lat="44.274179114711565" lon="12.201812886690785"><ele>5.0</ele><time>2026-04-24T13:34:14Z</time></trkpt><trkpt lat="44.27412811077423" lon="12.202066680926634"><ele>5.0</ele><time>2026-04-24T13:34:15Z</time></trkpt><trkpt lat="44.27407764686662" lon="12.202316873648432"><ele>5.0</ele><time>2026-04-24T13:34:16Z</time></trkpt><trkpt lat="44.27402827723242" lon="12.20256674767226"><ele>5.0</ele><time>2026-04-24T13:34:17Z</time></trkpt><trkpt lat="44.27398337133638" lon="12.202819043868361"><ele>5.0</ele><time>2026-04-24T13:34:18Z</time></trkpt><trkpt lat="44.27393953286971" lon="12.20307210660131"><ele>5.0</ele><time>2026-04-24T13:34:19Z</time></trkpt><trkpt lat="44.273907082874395" lon="12.203328763271116"><ele>5.0</ele><time>2026-04-24T13:34:20Z</time></trkpt><trkpt lat="44.27389044443742" lon="12.203584935299403"><ele>5.0</ele><time>2026-04-24T13:34:21Z</time></trkpt><trkpt lat="44.27388386439697" lon="12.203846504307133"><ele>5.0</ele><time>2026-04-24T13:34:22Z</time></trkpt><trkpt lat="44.273891799727885" lon="12.204110104857865"><ele>5.0</ele><time>2026-04-24T13:34:23Z</time></trkpt><trkpt lat="44.27389488047343" lon="12.204379720534645"><ele>5.0</ele><time>2026-04-24T13:34:24Z</time></trkpt><trkpt lat="44.27389906290388" lon="12.204644029702065"><ele>4.666666666666667</ele><time>2026-04-24T13:34:25Z</time></trkpt><trkpt lat="44.2739019450322" lon="12.20490653666063"><ele>4.333333333333333</ele><time>2026-04-24T13:34:26Z</time></trkpt><trkpt lat="44.27390351728288" lon="12.205170008056"><ele>4.0</ele><time>2026-04-24T13:34:27Z</time></trkpt><trkpt lat="44.273906261749914" lon="12.205435407108256"><ele>4.0</ele><time>2026-04-24T13:34:28Z</time></trkpt><trkpt lat="44.273910655101886" lon="12.205702485661012"><ele>4.0</ele><time>2026-04-24T13:34:29Z</time></trkpt><trkpt lat="44.27391432062756" lon="12.205969517144341"><ele>4.0</ele><time>2026-04-24T13:34:30Z</time></trkpt><trkpt lat="44.2739180642089" lon="12.206234571780447"><ele>4.333333333333333</ele><time>2026-04-24T13:34:31Z</time></trkpt><trkpt lat="44.27391940059971" lon="12.206497379317733"><ele>4.666666666666667</ele><time>2026-04-24T13:34:32Z</time></trkpt><trkpt lat="44.27391981162416" lon="12.206761350191078"><ele>5.0</ele><time>2026-04-24T13:34:33Z</time></trkpt><trkpt lat="44.273921830076844" lon="12.207019716074543"><ele>5.0</ele><time>2026-04-24T13:34:34Z</time></trkpt><trkpt lat="44.2739232535202" lon="12.207269680803138"><ele>5.0</ele><time>2026-04-24T13:34:35Z</time></trkpt><trkpt lat="44.27392300305178" lon="12.207508360895964"><ele>5.0</ele><time>2026-04-24T13:34:36Z</time></trkpt><trkpt lat="44.273918509044286" lon="12.20774184604427"><ele>5.0</ele><time>2026-04-24T13:34:37Z</time></trkpt><trkpt lat="44.27391235358419" lon="12.207965405302668"><ele>5.0</ele><time>2026-04-24T13:34:38Z</time></trkpt><trkpt lat="44.273901499396295" lon="12.208185239228015"><ele>5.0</ele><time>2026-04-24T13:34:39Z</time></trkpt><trkpt lat="44.273884681538995" lon="12.208405283851905"><ele>5.0</ele><time>2026-04-24T13:34:40Z</time></trkpt><trkpt lat="44.27386296814151" lon="12.208621087272736"><ele>5.0</ele><time>2026-04-24T13:34:41Z</time></trkpt><trkpt lat="44.2738501427725" lon="12.208838601734879"><ele>5.0</ele><time>2026-04-24T13:34:42Z</time></trkpt><trkpt lat="44.27384149566505" lon="12.209059614095256"><ele>5.333333333333334</ele><time>2026-04-24T13:34:43Z</time></trkpt><trkpt lat="44.27383979292848" lon="12.209283971752775"><ele>5.666666666666667</ele><time>2026-04-24T13:34:44Z</time></trkpt><trkpt lat="44.27384598049394" lon="12.209510922190304"><ele>6.0</ele><time>2026-04-24T13:34:45Z</time></trkpt><trkpt lat="44.27385616342566" lon="12.209739598665708"><ele>6.333333333333334</ele><time>2026-04-24T13:34:46Z</time></trkpt><trkpt lat="44.27386556640491" lon="12.209968085135152"><ele>6.666666666666667</ele><time>2026-04-24T13:34:47Z</time></trkpt><trkpt lat="44.273875320202535" lon="12.210194685101616"><ele>7.0</ele><time>2026-04-24T13:34:48Z</time></trkpt><trkpt lat="44.27388108796818" lon="12.21041718610946"><ele>7.0</ele><time>2026-04-24T13:34:49Z</time></trkpt><trkpt lat="44.27388782054534" lon="12.210628083827178"><ele>7.0</ele><time>2026-04-24T13:34:50Z</time></trkpt><trkpt lat="44.273893292428575" lon="12.210824524646"><ele>7.0</ele><time>2026-04-24T13:34:51Z</time></trkpt><trkpt lat="44.273893762995755" lon="12.211015674721693"><ele>7.0</ele><time>2026-04-24T13:34:52Z</time></trkpt><trkpt lat="44.2738875527776" lon="12.211211278835764"><ele>6.75</ele><time>2026-04-24T13:34:53Z</time></trkpt><trkpt lat="44.27387456720872" lon="12.211397924544716"><ele>6.5</ele><time>2026-04-24T13:34:54Z</time></trkpt><trkpt lat="44.27386140707872" lon="12.211568943601794"><ele>6.25</ele><time>2026-04-24T13:34:55Z</time></trkpt><trkpt lat="44.27384888726475" lon="12.211727381048286"><ele>6.0</ele><time>2026-04-24T13:34:56Z</time></trkpt><trkpt lat="44.273837719500385" lon="12.211878154933768"><ele>5.75</ele><time>2026-04-24T13:34:57Z</time></trkpt><trkpt lat="44.27382431012723" lon="12.212048436945414"><ele>5.5</ele><time>2026-04-24T13:34:58Z</time></trkpt><trkpt lat="44.27381269431635" lon="12.212231596659501"><ele>5.25</ele><time>2026-04-24T13:34:59Z</time></trkpt><trkpt lat="44.273800291595435" lon="12.212420576518284"><ele>5.0</ele><time>2026-04-24T13:35:00Z</time></trkpt><trkpt lat="44.27378171966582" lon="12.212610891833236"><ele>5.0</ele><time>2026-04-24T13:35:01Z</time></trkpt><trkpt lat="44.27375476038078" lon="12.212782518510299"><ele>5.0</ele><time>2026-04-24T13:35:02Z</time></trkpt><trkpt lat="44.273733044947264" lon="12.212937229071127"><ele>5.0</ele><time>2026-04-24T13:35:03Z</time></trkpt><trkpt lat="44.27370928289104" lon="12.213068553883485"><ele>5.0</ele><time>2026-04-24T13:35:04Z</time></trkpt><trkpt lat="44.2736868779612" lon="12.213167887065861"><ele>5.0</ele><time>2026-04-24T13:35:05Z</time></trkpt><trkpt lat="44.27369446035574" lon="12.21329615176737"><ele>5.4</ele><time>2026-04-24T13:35:07Z</time></trkpt><trkpt lat="44.27379298436889" lon="12.213287758688985"><ele>5.8</ele><time>2026-04-24T13:35:12Z</time></trkpt><trkpt lat="44.273859732953866" lon="12.213290810848987"><ele>6.199999999999999</ele><time>2026-04-24T13:35:13Z</time></trkpt><trkpt lat="44.27397601149037" lon="12.213309137537648"><ele>6.6</ele><time>2026-04-24T13:35:14Z</time></trkpt><trkpt lat="44.27409803224824" lon="12.213307608573736"><ele>7.0</ele><time>2026-04-24T13:35:15Z</time></trkpt><trkpt lat="44.274251691345555" lon="12.213324852409766"><ele>7.0</ele><time>2026-04-24T13:35:16Z</time></trkpt><trkpt lat="44.274409619942254" lon="12.213356751375235"><ele>7.0</ele><time>2026-04-24T13:35:17Z</time></trkpt><trkpt lat="44.27456679029735" lon="12.21335445240944"><ele>7.0</ele><time>2026-04-24T13:35:18Z</time></trkpt><trkpt lat="44.27472331170348" lon="12.213352162935157"><ele>6.666666666666667</ele><time>2026-04-24T13:35:19Z</time></trkpt><trkpt lat="44.27487775209298" lon="12.213329683081374"><ele>6.333333333333334</ele><time>2026-04-24T13:35:20Z</time></trkpt><trkpt lat="44.27503470586406" lon="12.213325788141983"><ele>6.0</ele><time>2026-04-24T13:35:21Z</time></trkpt><trkpt lat="44.275199103788935" lon="12.213345203407941"><ele>6.0</ele><time>2026-04-24T13:35:22Z</time></trkpt><trkpt lat="44.275353238064554" lon="12.21334267244064"><ele>6.0</ele><time>2026-04-24T13:35:23Z</time></trkpt><trkpt lat="44.27550902025906" lon="12.2133401549052"><ele>6.0</ele><time>2026-04-24T13:35:24Z</time></trkpt><trkpt lat="44.27566434109149" lon="12.213315898011249"><ele>6.0</ele><time>2026-04-24T13:35:25Z</time></trkpt><trkpt lat="44.275825558847856" lon="12.213321274698151"><ele>6.0</ele><time>2026-04-24T13:35:26Z</time></trkpt><trkpt lat="44.27598857724911" lon="12.21332346191238"><ele>6.0</ele><time>2026-04-24T13:35:27Z</time></trkpt><trkpt lat="44.276153661234254" lon="12.213320820739405"><ele>6.0</ele><time>2026-04-24T13:35:28Z</time></trkpt><trkpt lat="44.27632485284683" lon="12.21331707964527"><ele>6.0</ele><time>2026-04-24T13:35:29Z</time></trkpt><trkpt lat="44.276495544243495" lon="12.213317749319177"><ele>6.0</ele><time>2026-04-24T13:35:30Z</time></trkpt><trkpt lat="44.27666714854009" lon="12.213318239527528"><ele>5.333333333333333</ele><time>2026-04-24T13:35:31Z</time></trkpt><trkpt lat="44.276836176515914" lon="12.213318907002137"><ele>4.666666666666666</ele><time>2026-04-24T13:35:32Z</time></trkpt><trkpt lat="44.27700302454042" lon="12.213319800955091"><ele>4.0</ele><time>2026-04-24T13:35:33Z</time></trkpt><trkpt lat="44.27715671624726" lon="12.213316386487719"><ele>4.0</ele><time>2026-04-24T13:35:34Z</time></trkpt><trkpt lat="44.27730292283677" lon="12.213313965032984"><ele>4.0</ele><time>2026-04-24T13:35:35Z</time></trkpt><trkpt lat="44.27743664101006" lon="12.213310346971076"><ele>4.0</ele><time>2026-04-24T13:35:36Z</time></trkpt><trkpt lat="44.27756951463173" lon="12.213310504947557"><ele>4.0</ele><time>2026-04-24T13:35:37Z</time></trkpt><trkpt lat="44.277701631500065" lon="12.213307884968291"><ele>4.0</ele><time>2026-04-24T13:35:38Z</time></trkpt><trkpt lat="44.27782802636353" lon="12.21330258382634"><ele>4.0</ele><time>2026-04-24T13:35:39Z</time></trkpt><trkpt lat="44.277940786712634" lon="12.213302752300462"><ele>4.0</ele><time>2026-04-24T13:35:40Z</time></trkpt><trkpt lat="44.27804303611145" lon="12.213307680055186"><ele>4.0</ele><time>2026-04-24T13:35:41Z</time></trkpt><trkpt lat="44.27819564708446" lon="12.21337064372269"><ele>3.6</ele><time>2026-04-24T13:35:43Z</time></trkpt><trkpt lat="44.27826200022853" lon="12.213382065226893"><ele>3.2</ele><time>2026-04-24T13:35:45Z</time></trkpt><trkpt lat="44.278270688516784" lon="12.213649509837378"><ele>2.8000000000000003</ele><time>2026-04-24T13:35:46Z</time></trkpt><trkpt lat="44.27824632745765" lon="12.21376374790648"><ele>2.4000000000000004</ele><time>2026-04-24T13:35:47Z</time></trkpt><trkpt lat="44.27819696573663" lon="12.213866299810705"><ele>2.0</ele><time>2026-04-24T13:35:48Z</time></trkpt><trkpt lat="44.278121248076495" lon="12.213974781597967"><ele>2.333333333333333</ele><time>2026-04-24T13:35:49Z</time></trkpt><trkpt lat="44.27802688704902" lon="12.21410107936416"><ele>2.6666666666666665</ele><time>2026-04-24T13:35:50Z</time></trkpt><trkpt lat="44.27792501580445" lon="12.214260502052769"><ele>3.0</ele><time>2026-04-24T13:35:51Z</time></trkpt><trkpt lat="44.2778173282185" lon="12.214451024250604"><ele>3.0</ele><time>2026-04-24T13:35:52Z</time></trkpt><trkpt lat="44.27767891868928" lon="12.214644292707584"><ele>3.0</ele><time>2026-04-24T13:35:53Z</time></trkpt><trkpt lat="44.27754936963674" lon="12.21486114486649"><ele>3.0</ele><time>2026-04-24T13:35:54Z</time></trkpt><trkpt lat="44.27742174350041" lon="12.215077477766156"><ele>3.0</ele><time>2026-04-24T13:35:55Z</time></trkpt><trkpt lat="44.277297620243644" lon="12.215288034771708"><ele>3.0</ele><time>2026-04-24T13:35:56Z</time></trkpt><trkpt lat="44.277184281704784" lon="12.215503190496836"><ele>3.0</ele><time>2026-04-24T13:35:57Z</time></trkpt><trkpt lat="44.277057284833596" lon="12.215703583593923"><ele>3.0</ele><time>2026-04-24T13:35:58Z</time></trkpt><trkpt lat="44.27693578711461" lon="12.2159023693372"><ele>3.0</ele><time>2026-04-24T13:35:59Z</time></trkpt><trkpt lat="44.27681788345324" lon="12.21610504950524"><ele>3.0</ele><time>2026-04-24T13:36:00Z</time></trkpt><trkpt lat="44.27670083915676" lon="12.216308994856247"><ele>3.0</ele><time>2026-04-24T13:36:01Z</time></trkpt><trkpt lat="44.276584549297425" lon="12.216508378078068"><ele>3.0</ele><time>2026-04-24T13:36:02Z</time></trkpt><trkpt lat="44.27646871861674" lon="12.216703222735639"><ele>3.0</ele><time>2026-04-24T13:36:03Z</time></trkpt><trkpt lat="44.27635363958381" lon="12.21689793736488"><ele>3.333333333333333</ele><time>2026-04-24T13:36:04Z</time></trkpt><trkpt lat="44.27623774367321" lon="12.217093755585969"><ele>3.6666666666666665</ele><time>2026-04-24T13:36:05Z</time></trkpt><trkpt lat="44.27612117625724" lon="12.217287063571357"><ele>4.0</ele><time>2026-04-24T13:36:06Z</time></trkpt><trkpt lat="44.27600840965776" lon="12.21748078167656"><ele>4.333333333333333</ele><time>2026-04-24T13:36:07Z</time></trkpt><trkpt lat="44.27589815054269" lon="12.217673643434209"><ele>4.666666666666667</ele><time>2026-04-24T13:36:08Z</time></trkpt><trkpt lat="44.27578896558915" lon="12.217862537149347"><ele>5.0</ele><time>2026-04-24T13:36:09Z</time></trkpt><trkpt lat="44.27568003254088" lon="12.218047726857723"><ele>4.666666666666667</ele><time>2026-04-24T13:36:10Z</time></trkpt><trkpt lat="44.27557185662198" lon="12.218231235388188"><ele>4.333333333333333</ele><time>2026-04-24T13:36:11Z</time></trkpt><trkpt lat="44.275463001910644" lon="12.218416290766937"><ele>4.0</ele><time>2026-04-24T13:36:12Z</time></trkpt><trkpt lat="44.27535405791451" lon="12.218598343751044"><ele>4.0</ele><time>2026-04-24T13:36:13Z</time></trkpt><trkpt lat="44.275243838638644" lon="12.21878278904402"><ele>4.0</ele><time>2026-04-24T13:36:14Z</time></trkpt><trkpt lat="44.27513311806896" lon="12.218964441076562"><ele>4.0</ele><time>2026-04-24T13:36:15Z</time></trkpt><trkpt lat="44.27501938883209" lon="12.219148002679683"><ele>4.0</ele><time>2026-04-24T13:36:16Z</time></trkpt><trkpt lat="44.27490882955568" lon="12.219333073089265"><ele>4.0</ele><time>2026-04-24T13:36:17Z</time></trkpt><trkpt lat="44.274792162728595" lon="12.21952637969617"><ele>4.0</ele><time>2026-04-24T13:36:18Z</time></trkpt><trkpt lat="44.2746756395518" lon="12.219720991945083"><ele>3.6666666666666665</ele><time>2026-04-24T13:36:19Z</time></trkpt><trkpt lat="44.274554172857364" lon="12.219921682140118"><ele>3.333333333333333</ele><time>2026-04-24T13:36:20Z</time></trkpt><trkpt lat="44.27443318996288" lon="12.220119205576726"><ele>3.0</ele><time>2026-04-24T13:36:21Z</time></trkpt><trkpt lat="44.27430855681956" lon="12.220314539606905"><ele>3.0</ele><time>2026-04-24T13:36:22Z</time></trkpt><trkpt lat="44.27418456808887" lon="12.220515081467498"><ele>3.0</ele><time>2026-04-24T13:36:23Z</time></trkpt><trkpt lat="44.27406523522714" lon="12.220719481847528"><ele>3.0</ele><time>2026-04-24T13:36:24Z</time></trkpt><trkpt lat="44.27394809289847" lon="12.22091642330267"><ele>3.666666666666667</ele><time>2026-04-24T13:36:25Z</time></trkpt><trkpt lat="44.27383246015758" lon="12.22111126477695"><ele>4.333333333333334</ele><time>2026-04-24T13:36:26Z</time></trkpt><trkpt lat="44.273721303091094" lon="12.221296664222589"><ele>5.0</ele><time>2026-04-24T13:36:27Z</time></trkpt><trkpt lat="44.27362010064689" lon="12.221477234109246"><ele>4.5</ele><time>2026-04-24T13:36:28Z</time></trkpt><trkpt lat="44.27351825213122" lon="12.221640687293743"><ele>4.0</ele><time>2026-04-24T13:36:29Z</time></trkpt><trkpt lat="44.27342555708911" lon="12.221798865176003"><ele>3.5</ele><time>2026-04-24T13:36:30Z</time></trkpt><trkpt lat="44.27333173919569" lon="12.221950328756568"><ele>3.0</ele><time>2026-04-24T13:36:31Z</time></trkpt><trkpt lat="44.2732376661217" lon="12.222105743700865"><ele>3.0</ele><time>2026-04-24T13:36:32Z</time></trkpt><trkpt lat="44.27314015001624" lon="12.22226765688183"><ele>3.0</ele><time>2026-04-24T13:36:33Z</time></trkpt><trkpt lat="44.2730358042347" lon="12.222439239573209"><ele>3.0</ele><time>2026-04-24T13:36:34Z</time></trkpt><trkpt lat="44.27293041948362" lon="12.222614184380932"><ele>3.0</ele><time>2026-04-24T13:36:35Z</time></trkpt><trkpt lat="44.2728208591599" lon="12.222804833756854"><ele>3.0</ele><time>2026-04-24T13:36:36Z</time></trkpt><trkpt lat="44.272687804907214" lon="12.222993408620042"><ele>3.0</ele><time>2026-04-24T13:36:37Z</time></trkpt><trkpt lat="44.27256178099102" lon="12.223201683147245"><ele>3.0</ele><time>2026-04-24T13:36:38Z</time></trkpt><trkpt lat="44.272439980411654" lon="12.223404432043912"><ele>3.0</ele><time>2026-04-24T13:36:39Z</time></trkpt><trkpt lat="44.27231955287022" lon="12.223604895325066"><ele>3.0</ele><time>2026-04-24T13:36:40Z</time></trkpt><trkpt lat="44.27220674772762" lon="12.223814083590971"><ele>3.333333333333333</ele><time>2026-04-24T13:36:41Z</time></trkpt><trkpt lat="44.27208266487046" lon="12.22400750685478"><ele>3.6666666666666665</ele><time>2026-04-24T13:36:42Z</time></trkpt><trkpt lat="44.271966310654776" lon="12.224196189410181"><ele>4.0</ele><time>2026-04-24T13:36:43Z</time></trkpt><trkpt lat="44.27185667185339" lon="12.224373178655739"><ele>4.0</ele><time>2026-04-24T13:36:44Z</time></trkpt><trkpt lat="44.27175742008961" lon="12.224539759844816"><ele>4.0</ele><time>2026-04-24T13:36:45Z</time></trkpt><trkpt lat="44.27165773560141" lon="12.224703705200136"><ele>4.0</ele><time>2026-04-24T13:36:46Z</time></trkpt><trkpt lat="44.271558912898726" lon="12.224867959285042"><ele>3.6666666666666665</ele><time>2026-04-24T13:36:47Z</time></trkpt><trkpt lat="44.27146141508893" lon="12.225039143914577"><ele>3.333333333333333</ele><time>2026-04-24T13:36:48Z</time></trkpt><trkpt lat="44.27136227927311" lon="12.225203628608732"><ele>3.0</ele><time>2026-04-24T13:36:49Z</time></trkpt><trkpt lat="44.27126039662385" lon="12.22536737470316"><ele>3.0</ele><time>2026-04-24T13:36:50Z</time></trkpt><trkpt lat="44.27116152781198" lon="12.225531503770513"><ele>3.0</ele><time>2026-04-24T13:36:51Z</time></trkpt><trkpt lat="44.27106391805372" lon="12.22569699528541"><ele>3.0</ele><time>2026-04-24T13:36:52Z</time></trkpt><trkpt lat="44.270968295397" lon="12.225871246614927"><ele>3.0</ele><time>2026-04-24T13:36:53Z</time></trkpt><trkpt lat="44.270866639820916" lon="12.226046735423246"><ele>3.0</ele><time>2026-04-24T13:36:54Z</time></trkpt><trkpt lat="44.270767959139306" lon="12.22621882627859"><ele>3.0</ele><time>2026-04-24T13:36:55Z</time></trkpt><trkpt lat="44.270678967541166" lon="12.226376458436043"><ele>3.0</ele><time>2026-04-24T13:36:56Z</time></trkpt><trkpt lat="44.27059855807347" lon="12.226522481199213"><ele>3.0</ele><time>2026-04-24T13:36:57Z</time></trkpt><trkpt lat="44.270516732217885" lon="12.226658882432714"><ele>3.0</ele><time>2026-04-24T13:36:58Z</time></trkpt><trkpt lat="44.27043400069074" lon="12.226794676769645"><ele>3.0</ele><time>2026-04-24T13:36:59Z</time></trkpt><trkpt lat="44.27035075008592" lon="12.22693084176669"><ele>3.0</ele><time>2026-04-24T13:37:00Z</time></trkpt><trkpt lat="44.270269686220495" lon="12.22706831041879"><ele>3.0</ele><time>2026-04-24T13:37:01Z</time></trkpt><trkpt lat="44.270184659918264" lon="12.227224729706926"><ele>3.0</ele><time>2026-04-24T13:37:02Z</time></trkpt><trkpt lat="44.27008523333874" lon="12.227402408153786"><ele>3.0</ele><time>2026-04-24T13:37:03Z</time></trkpt><trkpt lat="44.26997495272634" lon="12.227606818622235"><ele>3.0</ele><time>2026-04-24T13:37:04Z</time></trkpt><trkpt lat="44.26985082368186" lon="12.227828033113063"><ele>3.0</ele><time>2026-04-24T13:37:05Z</time></trkpt><trkpt lat="44.26971617250419" lon="12.228066617995356"><ele>3.0</ele><time>2026-04-24T13:37:06Z</time></trkpt><trkpt lat="44.26957596206464" lon="12.228315276471085"><ele>3.0</ele><time>2026-04-24T13:37:07Z</time></trkpt><trkpt lat="44.269427674171254" lon="12.228557484810365"><ele>3.0</ele><time>2026-04-24T13:37:08Z</time></trkpt><trkpt lat="44.269280793787" lon="12.228794669314574"><ele>2.6666666666666665</ele><time>2026-04-24T13:37:09Z</time></trkpt><trkpt lat="44.269139879087874" lon="12.229031206841347"><ele>2.333333333333333</ele><time>2026-04-24T13:37:10Z</time></trkpt><trkpt lat="44.26900370786258" lon="12.22926416900639"><ele>2.0</ele><time>2026-04-24T13:37:11Z</time></trkpt><trkpt lat="44.26887252169686" lon="12.229493798301"><ele>2.0</ele><time>2026-04-24T13:37:12Z</time></trkpt><trkpt lat="44.268744944950505" lon="12.229723352904006"><ele>2.0</ele><time>2026-04-24T13:37:13Z</time></trkpt><trkpt lat="44.268624779880206" lon="12.229949120998677"><ele>2.0</ele><time>2026-04-24T13:37:14Z</time></trkpt><trkpt lat="44.26851078521579" lon="12.230158685030398"><ele>2.0</ele><time>2026-04-24T13:37:15Z</time></trkpt><trkpt lat="44.26840003077084" lon="12.230358771710613"><ele>2.0</ele><time>2026-04-24T13:37:16Z</time></trkpt><trkpt lat="44.26829386265051" lon="12.230556082173807"><ele>2.0</ele><time>2026-04-24T13:37:17Z</time></trkpt><trkpt lat="44.26818732215557" lon="12.230750148063777"><ele>2.0</ele><time>2026-04-24T13:37:18Z</time></trkpt><trkpt lat="44.26808301606848" lon="12.230942651608181"><ele>2.0</ele><time>2026-04-24T13:37:19Z</time></trkpt><trkpt lat="44.26797868654173" lon="12.231130045334584"><ele>2.0</ele><time>2026-04-24T13:37:20Z</time></trkpt><trkpt lat="44.267876737269134" lon="12.231316982532942"><ele>2.333333333333333</ele><time>2026-04-24T13:37:21Z</time></trkpt><trkpt lat="44.26777541079193" lon="12.231508008510033"><ele>2.6666666666666665</ele><time>2026-04-24T13:37:22Z</time></trkpt><trkpt lat="44.26767726606918" lon="12.231701119614494"><ele>3.0</ele><time>2026-04-24T13:37:23Z</time></trkpt><trkpt lat="44.26757504534185" lon="12.231892649724163"><ele>3.0</ele><time>2026-04-24T13:37:24Z</time></trkpt><trkpt lat="44.26747442786728" lon="12.232089578992564"><ele>3.0</ele><time>2026-04-24T13:37:25Z</time></trkpt><trkpt lat="44.26737276052377" lon="12.23228130505783"><ele>3.0</ele><time>2026-04-24T13:37:26Z</time></trkpt><trkpt lat="44.267274414605225" lon="12.232471411165657"><ele>3.0</ele><time>2026-04-24T13:37:27Z</time></trkpt><trkpt lat="44.26717658000435" lon="12.232665406382186"><ele>3.0</ele><time>2026-04-24T13:37:28Z</time></trkpt><trkpt lat="44.26707461621625" lon="12.232856814751225"><ele>3.0</ele><time>2026-04-24T13:37:29Z</time></trkpt><trkpt lat="44.26696436210015" lon="12.23304463374126"><ele>2.6666666666666665</ele><time>2026-04-24T13:37:30Z</time></trkpt><trkpt lat="44.26684963961903" lon="12.23322457262633"><ele>2.333333333333333</ele><time>2026-04-24T13:37:31Z</time></trkpt><trkpt lat="44.266730043746264" lon="12.233396007545917"><ele>2.0</ele><time>2026-04-24T13:37:32Z</time></trkpt><trkpt lat="44.26661476841024" lon="12.233547160237956"><ele>2.0</ele><time>2026-04-24T13:37:33Z</time></trkpt><trkpt lat="44.266503692247284" lon="12.233682978203486"><ele>2.0</ele><time>2026-04-24T13:37:34Z</time></trkpt><trkpt lat="44.26639392777412" lon="12.233829703784588"><ele>2.0</ele><time>2026-04-24T13:37:35Z</time></trkpt><trkpt lat="44.2662814188395" lon="12.233984643165206"><ele>2.0</ele><time>2026-04-24T13:37:36Z</time></trkpt><trkpt lat="44.26615859983615" lon="12.234136757868606"><ele>2.0</ele><time>2026-04-24T13:37:37Z</time></trkpt><trkpt lat="44.26602273463602" lon="12.234284175922038"><ele>2.0</ele><time>2026-04-24T13:37:38Z</time></trkpt><trkpt lat="44.26588567905009" lon="12.23443013172558"><ele>2.0</ele><time>2026-04-24T13:37:39Z</time></trkpt><trkpt lat="44.26574388477364" lon="12.234581157834802"><ele>2.0</ele><time>2026-04-24T13:37:40Z</time></trkpt><trkpt lat="44.26559900102885" lon="12.234731393760562"><ele>2.0</ele><time>2026-04-24T13:37:41Z</time></trkpt><trkpt lat="44.26544915284421" lon="12.234878190240405"><ele>2.333333333333333</ele><time>2026-04-24T13:37:42Z</time></trkpt><trkpt lat="44.26530546545961" lon="12.235026819647572"><ele>2.6666666666666665</ele><time>2026-04-24T13:37:43Z</time></trkpt><trkpt lat="44.26516719610761" lon="12.235188507525791"><ele>3.0</ele><time>2026-04-24T13:37:44Z</time></trkpt><trkpt lat="44.26504156512725" lon="12.235366566705627"><ele>3.0</ele><time>2026-04-24T13:37:45Z</time></trkpt><trkpt lat="44.26491889564664" lon="12.235559850315626"><ele>3.0</ele><time>2026-04-24T13:37:46Z</time></trkpt><trkpt lat="44.26480287657435" lon="12.235757661841253"><ele>3.0</ele><time>2026-04-24T13:37:47Z</time></trkpt><trkpt lat="44.264686056929165" lon="12.2359567986466"><ele>2.6666666666666665</ele><time>2026-04-24T13:37:48Z</time></trkpt><trkpt lat="44.264578693198324" lon="12.236146737270076"><ele>2.333333333333333</ele><time>2026-04-24T13:37:49Z</time></trkpt><trkpt lat="44.26447742903708" lon="12.236319179962694"><ele>2.0</ele><time>2026-04-24T13:37:50Z</time></trkpt><trkpt lat="44.26437972428727" lon="12.23647538871133"><ele>2.5</ele><time>2026-04-24T13:37:51Z</time></trkpt><trkpt lat="44.26428748515279" lon="12.236614597582667"><ele>3.0</ele><time>2026-04-24T13:37:52Z</time></trkpt><trkpt lat="44.264198812920476" lon="12.236743808419535"><ele>3.5</ele><time>2026-04-24T13:37:53Z</time></trkpt><trkpt lat="44.26410959124552" lon="12.23687046711459"><ele>4.0</ele><time>2026-04-24T13:37:54Z</time></trkpt><trkpt lat="44.26401579942793" lon="12.237011294548946"><ele>3.6666666666666665</ele><time>2026-04-24T13:37:55Z</time></trkpt><trkpt lat="44.26391415832551" lon="12.237167427610713"><ele>3.333333333333333</ele><time>2026-04-24T13:37:56Z</time></trkpt><trkpt lat="44.26381130219601" lon="12.237329419531616"><ele>3.0</ele><time>2026-04-24T13:37:57Z</time></trkpt><trkpt lat="44.26370879198798" lon="12.237490875488888"><ele>2.75</ele><time>2026-04-24T13:37:58Z</time></trkpt><trkpt lat="44.26360847948423" lon="12.237649275378377"><ele>2.5</ele><time>2026-04-24T13:37:59Z</time></trkpt><trkpt lat="44.263511505706454" lon="12.237792868384586"><ele>2.25</ele><time>2026-04-24T13:38:00Z</time></trkpt><trkpt lat="44.26341792365554" lon="12.237938937844486"><ele>2.0</ele><time>2026-04-24T13:38:01Z</time></trkpt><trkpt lat="44.26331925732567" lon="12.238088551023038"><ele>2.333333333333333</ele><time>2026-04-24T13:38:02Z</time></trkpt><trkpt lat="44.26321617795975" lon="12.238241595208086"><ele>2.6666666666666665</ele><time>2026-04-24T13:38:03Z</time></trkpt><trkpt lat="44.26311172047249" lon="12.23840002690938"><ele>3.0</ele><time>2026-04-24T13:38:04Z</time></trkpt><trkpt lat="44.2630047130646" lon="12.238578426599995"><ele>3.0</ele><time>2026-04-24T13:38:05Z</time></trkpt><trkpt lat="44.26287320226995" lon="12.238750495771363"><ele>3.0</ele><time>2026-04-24T13:38:06Z</time></trkpt><trkpt lat="44.26274694549698" lon="12.23894478600421"><ele>3.0</ele><time>2026-04-24T13:38:07Z</time></trkpt><trkpt lat="44.26261596048775" lon="12.239146352230808"><ele>3.333333333333333</ele><time>2026-04-24T13:38:08Z</time></trkpt><trkpt lat="44.26248083942182" lon="12.239354283182461"><ele>3.6666666666666665</ele><time>2026-04-24T13:38:09Z</time></trkpt><trkpt lat="44.26234845355983" lon="12.239558005081271"><ele>4.0</ele><time>2026-04-24T13:38:10Z</time></trkpt><trkpt lat="44.26223914484053" lon="12.239758470480758"><ele>4.0</ele><time>2026-04-24T13:38:11Z</time></trkpt><trkpt lat="44.262122501031506" lon="12.239924412191302"><ele>4.0</ele><time>2026-04-24T13:38:12Z</time></trkpt><trkpt lat="44.262015732223524" lon="12.24007879455609"><ele>4.0</ele><time>2026-04-24T13:38:13Z</time></trkpt><trkpt lat="44.26191760310538" lon="12.240228819356718"><ele>4.0</ele><time>2026-04-24T13:38:14Z</time></trkpt><trkpt lat="44.26182490675709" lon="12.240374082109266"><ele>4.0</ele><time>2026-04-24T13:38:15Z</time></trkpt><trkpt lat="44.261734243937056" lon="12.240510134335285"><ele>4.0</ele><time>2026-04-24T13:38:16Z</time></trkpt><trkpt lat="44.261646033597195" lon="12.24063516891582"><ele>4.0</ele><time>2026-04-24T13:38:17Z</time></trkpt><trkpt lat="44.26156948506025" lon="12.240751283974571"><ele>3.9999999999999996</ele><time>2026-04-24T13:38:18Z</time></trkpt><trkpt lat="44.26150312544693" lon="12.240852840399652"><ele>4.0</ele><time>2026-04-24T13:38:19Z</time></trkpt><trkpt lat="44.26144315170475" lon="12.240948083878678"><ele>4.0</ele><time>2026-04-24T13:38:20Z</time></trkpt><trkpt lat="44.26138343938066" lon="12.24103991383458"><ele>4.0</ele><time>2026-04-24T13:38:21Z</time></trkpt><trkpt lat="44.261330641063594" lon="12.241125635966162"><ele>3.9999999999999996</ele><time>2026-04-24T13:38:22Z</time></trkpt><trkpt lat="44.26127191529186" lon="12.241214747159455"><ele>4.0</ele><time>2026-04-24T13:38:23Z</time></trkpt><trkpt lat="44.26120636401753" lon="12.24132025625224"><ele>4.0</ele><time>2026-04-24T13:38:24Z</time></trkpt><trkpt lat="44.2611339314055" lon="12.241437547448765"><ele>4.0</ele><time>2026-04-24T13:38:25Z</time></trkpt><trkpt lat="44.26104494721879" lon="12.241582987434159"><ele>4.0</ele><time>2026-04-24T13:38:26Z</time></trkpt><trkpt lat="44.26093007586847" lon="12.24172515456208"><ele>4.0</ele><time>2026-04-24T13:38:27Z</time></trkpt><trkpt lat="44.26083774532931" lon="12.241866713845392"><ele>4.0</ele><time>2026-04-24T13:38:28Z</time></trkpt><trkpt lat="44.26076534747763" lon="12.242007118215446"><ele>4.0</ele><time>2026-04-24T13:38:29Z</time></trkpt><trkpt lat="44.26068527100252" lon="12.242128193873343"><ele>4.0</ele><time>2026-04-24T13:38:30Z</time></trkpt><trkpt lat="44.26060926123723" lon="12.242262354741573"><ele>4.0</ele><time>2026-04-24T13:38:31Z</time></trkpt><trkpt lat="44.2605345600399" lon="12.242406377476742"><ele>4.25</ele><time>2026-04-24T13:38:32Z</time></trkpt><trkpt lat="44.260466849590294" lon="12.24256891544579"><ele>4.5</ele><time>2026-04-24T13:38:33Z</time></trkpt><trkpt lat="44.26039606608949" lon="12.242739194660544"><ele>4.75</ele><time>2026-04-24T13:38:34Z</time></trkpt><trkpt lat="44.26032935529708" lon="12.242924398986318"><ele>5.0</ele><time>2026-04-24T13:38:35Z</time></trkpt><trkpt lat="44.26026179737489" lon="12.243120393361421"><ele>5.333333333333334</ele><time>2026-04-24T13:38:36Z</time></trkpt><trkpt lat="44.260192765365666" lon="12.243318410065529"><ele>5.666666666666667</ele><time>2026-04-24T13:38:37Z</time></trkpt><trkpt lat="44.260128954333474" lon="12.243513312891402"><ele>6.0</ele><time>2026-04-24T13:38:38Z</time></trkpt><trkpt lat="44.26006653073434" lon="12.243704164098391"><ele>6.0</ele><time>2026-04-24T13:38:39Z</time></trkpt><trkpt lat="44.26000891972704" lon="12.2438880073971"><ele>6.0</ele><time>2026-04-24T13:38:40Z</time></trkpt><trkpt lat="44.25995343510513" lon="12.244072727042703"><ele>6.0</ele><time>2026-04-24T13:38:41Z</time></trkpt><trkpt lat="44.25989726324861" lon="12.244253397626798"><ele>6.0</ele><time>2026-04-24T13:38:42Z</time></trkpt><trkpt lat="44.25983881370291" lon="12.244438099652042"><ele>6.0</ele><time>2026-04-24T13:38:43Z</time></trkpt><trkpt lat="44.2597790084979" lon="12.244617470340252"><ele>6.0</ele><time>2026-04-24T13:38:44Z</time></trkpt><trkpt lat="44.25972277819818" lon="12.24479825598073"><ele>6.0</ele><time>2026-04-24T13:38:45Z</time></trkpt><trkpt lat="44.259664620864086" lon="12.24498440068526"><ele>6.0</ele><time>2026-04-24T13:38:46Z</time></trkpt><trkpt lat="44.25960410634261" lon="12.245170159057212"><ele>6.0</ele><time>2026-04-24T13:38:47Z</time></trkpt><trkpt lat="44.259547095814355" lon="12.245352946869069"><ele>6.0</ele><time>2026-04-24T13:38:48Z</time></trkpt><trkpt lat="44.25949508170095" lon="12.245543173955522"><ele>6.0</ele><time>2026-04-24T13:38:49Z</time></trkpt><trkpt lat="44.259451183683666" lon="12.245735941455145"><ele>6.0</ele><time>2026-04-24T13:38:50Z</time></trkpt><trkpt lat="44.25941772411167" lon="12.245923060585149"><ele>5.8</ele><time>2026-04-24T13:38:51Z</time></trkpt><trkpt lat="44.25938837286491" lon="12.246093297889095"><ele>5.6</ele><time>2026-04-24T13:38:52Z</time></trkpt><trkpt lat="44.25935919007233" lon="12.246249116684432"><ele>5.4</ele><time>2026-04-24T13:38:53Z</time></trkpt><trkpt lat="44.25933168542112" lon="12.246389684112398"><ele>5.2</ele><time>2026-04-24T13:38:54Z</time></trkpt><trkpt lat="44.25930861870827" lon="12.246518676156246"><ele>5.0</ele><time>2026-04-24T13:38:55Z</time></trkpt><trkpt lat="44.25928866524986" lon="12.246635184754425"><ele>5.0</ele><time>2026-04-24T13:38:56Z</time></trkpt><trkpt lat="44.25926952498126" lon="12.246733948376985"><ele>5.0</ele><time>2026-04-24T13:38:57Z</time></trkpt><trkpt lat="44.25925431369047" lon="12.246830975987585"><ele>5.0</ele><time>2026-04-24T13:38:58Z</time></trkpt><trkpt lat="44.25921908082963" lon="12.247011897937083"><ele>5.0</ele><time>2026-04-24T13:39:00Z</time></trkpt><trkpt lat="44.25920076356773" lon="12.2471199883846"><ele>5.0</ele><time>2026-04-24T13:39:01Z</time></trkpt><trkpt lat="44.25918157686299" lon="12.24722710555304"><ele>5.0</ele><time>2026-04-24T13:39:02Z</time></trkpt><trkpt lat="44.259163594474444" lon="12.24731652103834"><ele>5.0</ele><time>2026-04-24T13:39:03Z</time></trkpt><trkpt lat="44.25913832153198" lon="12.247434339612907"><ele>5.0</ele><time>2026-04-24T13:39:05Z</time></trkpt><trkpt lat="44.25911606554008" lon="12.247517420291025"><ele>5.0</ele><time>2026-04-24T13:39:11Z</time></trkpt><trkpt lat="44.25909223550476" lon="12.247644065355004"><ele>5.0</ele><time>2026-04-24T13:39:14Z</time></trkpt><trkpt lat="44.25907872525764" lon="12.247736326066185"><ele>5.0</ele><time>2026-04-24T13:39:15Z</time></trkpt><trkpt lat="44.2590527549164" lon="12.24789704182897"><ele>5.0</ele><time>2026-04-24T13:39:16Z</time></trkpt><trkpt lat="44.25901782822074" lon="12.248062251204743"><ele>5.5</ele><time>2026-04-24T13:39:17Z</time></trkpt><trkpt lat="44.25898689567874" lon="12.248257977645792"><ele>6.0</ele><time>2026-04-24T13:39:18Z</time></trkpt><trkpt lat="44.25895320421387" lon="12.248465768696596"><ele>6.5</ele><time>2026-04-24T13:39:19Z</time></trkpt><trkpt lat="44.25892065373864" lon="12.248668630166975"><ele>7.0</ele><time>2026-04-24T13:39:20Z</time></trkpt><trkpt lat="44.258881410802076" lon="12.248853298984853"><ele>7.0</ele><time>2026-04-24T13:39:21Z</time></trkpt><trkpt lat="44.25884615315898" lon="12.24903923998919"><ele>7.0</ele><time>2026-04-24T13:39:22Z</time></trkpt><trkpt lat="44.25881335790756" lon="12.249220085894368"><ele>7.0</ele><time>2026-04-24T13:39:23Z</time></trkpt><trkpt lat="44.25877860182205" lon="12.249417372562325"><ele>7.0</ele><time>2026-04-24T13:39:24Z</time></trkpt><trkpt lat="44.25874934004112" lon="12.249615774600665"><ele>6.666666666666667</ele><time>2026-04-24T13:39:25Z</time></trkpt><trkpt lat="44.258715453057576" lon="12.249819632695534"><ele>6.333333333333334</ele><time>2026-04-24T13:39:26Z</time></trkpt><trkpt lat="44.25867735286353" lon="12.25002231624116"><ele>6.0</ele><time>2026-04-24T13:39:27Z</time></trkpt><trkpt lat="44.258639666504045" lon="12.250225721281822"><ele>6.0</ele><time>2026-04-24T13:39:28Z</time></trkpt><trkpt lat="44.258604963795975" lon="12.250415132784058"><ele>6.0</ele><time>2026-04-24T13:39:29Z</time></trkpt><trkpt lat="44.25856908656943" lon="12.250599537677195"><ele>6.0</ele><time>2026-04-24T13:39:30Z</time></trkpt><trkpt lat="44.258538828869575" lon="12.250779704581005"><ele>6.0</ele><time>2026-04-24T13:39:31Z</time></trkpt><trkpt lat="44.25850617477582" lon="12.250964076569243"><ele>6.25</ele><time>2026-04-24T13:39:32Z</time></trkpt><trkpt lat="44.258473639091264" lon="12.251142856554095"><ele>6.5</ele><time>2026-04-24T13:39:33Z</time></trkpt><trkpt lat="44.25844199483189" lon="12.251319140873756"><ele>6.75</ele><time>2026-04-24T13:39:34Z</time></trkpt><trkpt lat="44.25840766286323" lon="12.251497332807805"><ele>7.0</ele><time>2026-04-24T13:39:35Z</time></trkpt><trkpt lat="44.25837338442901" lon="12.25167316077709"><ele>7.0</ele><time>2026-04-24T13:39:36Z</time></trkpt><trkpt lat="44.258340686181924" lon="12.251848565829404"><ele>7.0</ele><time>2026-04-24T13:39:37Z</time></trkpt><trkpt lat="44.25831193176388" lon="12.2520276273314"><ele>7.0</ele><time>2026-04-24T13:39:38Z</time></trkpt><trkpt lat="44.2582838479196" lon="12.252201738148441"><ele>7.0</ele><time>2026-04-24T13:39:39Z</time></trkpt><trkpt lat="44.25824804380106" lon="12.252370249199785"><ele>7.0</ele><time>2026-04-24T13:39:40Z</time></trkpt><trkpt lat="44.25822126138508" lon="12.252531948413917"><ele>6.999999999999999</ele><time>2026-04-24T13:39:41Z</time></trkpt><trkpt lat="44.25819614240381" lon="12.252673233543417"><ele>6.999999999999999</ele><time>2026-04-24T13:39:42Z</time></trkpt><trkpt lat="44.258174911798136" lon="12.252799040495013"><ele>7.0</ele><time>2026-04-24T13:39:43Z</time></trkpt><trkpt lat="44.258151846810485" lon="12.252925205933563"><ele>7.0</ele><time>2026-04-24T13:39:44Z</time></trkpt><trkpt lat="44.25812567504847" lon="12.253042578592845"><ele>7.166666666666667</ele><time>2026-04-24T13:39:45Z</time></trkpt><trkpt lat="44.25809477587988" lon="12.253144208872701"><ele>7.333333333333334</ele><time>2026-04-24T13:39:46Z</time></trkpt><trkpt lat="44.25806036498417" lon="12.253233001187327"><ele>7.5</ele><time>2026-04-24T13:39:47Z</time></trkpt><trkpt lat="44.25802519381505" lon="12.253315901664413"><ele>7.666666666666666</ele><time>2026-04-24T13:39:48Z</time></trkpt><trkpt lat="44.257964353623315" lon="12.253423508802866"><ele>7.833333333333333</ele><time>2026-04-24T13:39:50Z</time></trkpt><trkpt lat="44.25791433182222" lon="12.253519698113292"><ele>8.0</ele><time>2026-04-24T13:39:53Z</time></trkpt><trkpt lat="44.25787478524129" lon="12.253624226664503"><ele>8.0</ele><time>2026-04-24T13:39:56Z</time></trkpt><trkpt lat="44.257955838301164" lon="12.253756521240552"><ele>8.0</ele><time>2026-04-24T13:39:57Z</time></trkpt><trkpt lat="44.25802931530915" lon="12.253862273885806"><ele>8.0</ele><time>2026-04-24T13:39:58Z</time></trkpt><trkpt lat="44.258096687199505" lon="12.253962224571172"><ele>8.0</ele><time>2026-04-24T13:39:59Z</time></trkpt><trkpt lat="44.25816925517781" lon="12.254088084736441"><ele>8.0</ele><time>2026-04-24T13:40:00Z</time></trkpt><trkpt lat="44.25824393869" lon="12.254241509293706"><ele>8.0</ele><time>2026-04-24T13:40:01Z</time></trkpt><trkpt lat="44.25830861607443" lon="12.254420843315643"><ele>8.0</ele><time>2026-04-24T13:40:02Z</time></trkpt><trkpt lat="44.258360387294815" lon="12.254625912420277"><ele>8.0</ele><time>2026-04-24T13:40:03Z</time></trkpt><trkpt lat="44.258385338561915" lon="12.254830082318213"><ele>8.0</ele><time>2026-04-24T13:40:04Z</time></trkpt><trkpt lat="44.25839091258738" lon="12.25504769405453"><ele>8.0</ele><time>2026-04-24T13:40:05Z</time></trkpt><trkpt lat="44.25838174170372" lon="12.255269983748207"><ele>8.0</ele><time>2026-04-24T13:40:06Z</time></trkpt><trkpt lat="44.258357098432235" lon="12.255487447615051"><ele>8.0</ele><time>2026-04-24T13:40:07Z</time></trkpt><trkpt lat="44.25832235612892" lon="12.255701840154039"><ele>8.0</ele><time>2026-04-24T13:40:08Z</time></trkpt><trkpt lat="44.25828657215842" lon="12.255916812755723"><ele>8.0</ele><time>2026-04-24T13:40:09Z</time></trkpt><trkpt lat="44.25825598690229" lon="12.256133440096228"><ele>8.0</ele><time>2026-04-24T13:40:10Z</time></trkpt><trkpt lat="44.258220401948705" lon="12.25635719764161"><ele>8.333333333333332</ele><time>2026-04-24T13:40:11Z</time></trkpt><trkpt lat="44.25818275171365" lon="12.256592400973064"><ele>8.666666666666666</ele><time>2026-04-24T13:40:12Z</time></trkpt><trkpt lat="44.258146864577604" lon="12.256832920469185"><ele>9.0</ele><time>2026-04-24T13:40:13Z</time></trkpt><trkpt lat="44.25811080934987" lon="12.257065884610112"><ele>8.5</ele><time>2026-04-24T13:40:14Z</time></trkpt><trkpt lat="44.2580778352467" lon="12.257273047030772"><ele>8.0</ele><time>2026-04-24T13:40:15Z</time></trkpt><trkpt lat="44.258048243037216" lon="12.257467272597543"><ele>7.5</ele><time>2026-04-24T13:40:16Z</time></trkpt><trkpt lat="44.25802058455967" lon="12.257647594076635"><ele>7.0</ele><time>2026-04-24T13:40:17Z</time></trkpt><trkpt lat="44.25798940536131" lon="12.257818310166842"><ele>7.0</ele><time>2026-04-24T13:40:18Z</time></trkpt><trkpt lat="44.25796567911219" lon="12.257979547338174"><ele>7.0</ele><time>2026-04-24T13:40:19Z</time></trkpt><trkpt lat="44.257945912755176" lon="12.258148511364375"><ele>7.0</ele><time>2026-04-24T13:40:20Z</time></trkpt><trkpt lat="44.25792299882039" lon="12.258329023991093"><ele>7.0</ele><time>2026-04-24T13:40:21Z</time></trkpt><trkpt lat="44.25789418419361" lon="12.258517436433465"><ele>7.25</ele><time>2026-04-24T13:40:22Z</time></trkpt><trkpt lat="44.257866626285214" lon="12.25871623569151"><ele>7.5</ele><time>2026-04-24T13:40:23Z</time></trkpt><trkpt lat="44.25783465341367" lon="12.258923015079963"><ele>7.75</ele><time>2026-04-24T13:40:24Z</time></trkpt><trkpt lat="44.257804448606755" lon="12.25911984330647"><ele>8.0</ele><time>2026-04-24T13:40:25Z</time></trkpt><trkpt lat="44.25777765521188" lon="12.25929020808447"><ele>8.0</ele><time>2026-04-24T13:40:26Z</time></trkpt><trkpt lat="44.257752934432574" lon="12.259447705348826"><ele>8.0</ele><time>2026-04-24T13:40:27Z</time></trkpt><trkpt lat="44.25772483443945" lon="12.259608671570652"><ele>8.0</ele><time>2026-04-24T13:40:28Z</time></trkpt><trkpt lat="44.257703139251184" lon="12.259753438685323"><ele>8.0</ele><time>2026-04-24T13:40:29Z</time></trkpt><trkpt lat="44.25768351025796" lon="12.259873635885697"><ele>8.0</ele><time>2026-04-24T13:40:30Z</time></trkpt><trkpt lat="44.25766744115925" lon="12.25998530732918"><ele>7.999999999999999</ele><time>2026-04-24T13:40:31Z</time></trkpt><trkpt lat="44.2576516506956" lon="12.2600892978081"><ele>8.0</ele><time>2026-04-24T13:40:32Z</time></trkpt><trkpt lat="44.25763620514002" lon="12.260183214813384"><ele>8.0</ele><time>2026-04-24T13:40:33Z</time></trkpt><trkpt lat="44.257622348662125" lon="12.260280542976998"><ele>8.0</ele><time>2026-04-24T13:40:34Z</time></trkpt><trkpt lat="44.25760548081372" lon="12.260387835555335"><ele>7.999999999999999</ele><time>2026-04-24T13:40:35Z</time></trkpt><trkpt lat="44.25758605731402" lon="12.260506945738243"><ele>8.0</ele><time>2026-04-24T13:40:36Z</time></trkpt><trkpt lat="44.257564033258326" lon="12.260633871127105"><ele>8.0</ele><time>2026-04-24T13:40:37Z</time></trkpt><trkpt lat="44.25754239582886" lon="12.260766062503881"><ele>8.0</ele><time>2026-04-24T13:40:38Z</time></trkpt><trkpt lat="44.25752120412959" lon="12.260898948332919"><ele>8.0</ele><time>2026-04-24T13:40:39Z</time></trkpt><trkpt lat="44.257502452215434" lon="12.261025761334952"><ele>8.0</ele><time>2026-04-24T13:40:40Z</time></trkpt><trkpt lat="44.257486470572246" lon="12.261149149356212"><ele>8.0</ele><time>2026-04-24T13:40:41Z</time></trkpt><trkpt lat="44.25747628441095" lon="12.261251142904323"><ele>8.0</ele><time>2026-04-24T13:40:42Z</time></trkpt><trkpt lat="44.25740866206589" lon="12.261365669020753"><ele>8.0</ele><time>2026-04-24T13:40:44Z</time></trkpt><trkpt lat="44.25728367936747" lon="12.26127817175749"><ele>8.0</ele><time>2026-04-24T13:40:46Z</time></trkpt><trkpt lat="44.25718943089415" lon="12.261226554250458"><ele>8.0</ele><time>2026-04-24T13:40:47Z</time></trkpt><trkpt lat="44.25708570857768" lon="12.261169983551632"><ele>7.75</ele><time>2026-04-24T13:40:48Z</time></trkpt><trkpt lat="44.25697145587657" lon="12.261118386645359"><ele>7.5</ele><time>2026-04-24T13:40:49Z</time></trkpt><trkpt lat="44.256852508039074" lon="12.261053564631698"><ele>7.25</ele><time>2026-04-24T13:40:50Z</time></trkpt><trkpt lat="44.25672251091801" lon="12.26098447635388"><ele>7.0</ele><time>2026-04-24T13:40:51Z</time></trkpt><trkpt lat="44.25658560839768" lon="12.260906740586629"><ele>7.333333333333334</ele><time>2026-04-24T13:40:52Z</time></trkpt><trkpt lat="44.25644120681929" lon="12.260826172577048"><ele>7.666666666666666</ele><time>2026-04-24T13:40:53Z</time></trkpt><trkpt lat="44.256290019449885" lon="12.260744777128307"><ele>8.0</ele><time>2026-04-24T13:40:54Z</time></trkpt><trkpt lat="44.25613241289312" lon="12.26066617295414"><ele>7.333333333333333</ele><time>2026-04-24T13:40:55Z</time></trkpt><trkpt lat="44.25598215203658" lon="12.260561179380453"><ele>6.666666666666666</ele><time>2026-04-24T13:40:56Z</time></trkpt><trkpt lat="44.25582037471121" lon="12.260498482298164"><ele>6.0</ele><time>2026-04-24T13:40:57Z</time></trkpt><trkpt lat="44.255676138586665" lon="12.26038889246422"><ele>6.333333333333334</ele><time>2026-04-24T13:40:58Z</time></trkpt><trkpt lat="44.25552487752802" lon="12.260298399316005"><ele>6.666666666666667</ele><time>2026-04-24T13:40:59Z</time></trkpt><trkpt lat="44.25538096949107" lon="12.260213552475685"><ele>7.0</ele><time>2026-04-24T13:41:00Z</time></trkpt><trkpt lat="44.25524585470127" lon="12.26013326614796"><ele>7.0</ele><time>2026-04-24T13:41:01Z</time></trkpt><trkpt lat="44.25511086004791" lon="12.260049417679173"><ele>7.0</ele><time>2026-04-24T13:41:02Z</time></trkpt><trkpt lat="44.254972750658055" lon="12.259962938850224"><ele>7.0</ele><time>2026-04-24T13:41:03Z</time></trkpt><trkpt lat="44.25482949246678" lon="12.259870827346457"><ele>7.0</ele><time>2026-04-24T13:41:04Z</time></trkpt><trkpt lat="44.25468285050687" lon="12.259795508549303"><ele>7.0</ele><time>2026-04-24T13:41:05Z</time></trkpt><trkpt lat="44.25455738091756" lon="12.259671292758757"><ele>7.0</ele><time>2026-04-24T13:41:06Z</time></trkpt><trkpt lat="44.254437495868935" lon="12.25957830028415"><ele>7.0</ele><time>2026-04-24T13:41:07Z</time></trkpt><trkpt lat="44.25431785395182" lon="12.259502973984647"><ele>7.0</ele><time>2026-04-24T13:41:08Z</time></trkpt><trkpt lat="44.25419611806949" lon="12.259464419532113"><ele>7.0</ele><time>2026-04-24T13:41:09Z</time></trkpt><trkpt lat="44.25406086578495" lon="12.259433484460743"><ele>7.0</ele><time>2026-04-24T13:41:10Z</time></trkpt><trkpt lat="44.253901017446445" lon="12.259408135953663"><ele>7.0</ele><time>2026-04-24T13:41:11Z</time></trkpt><trkpt lat="44.253746976017936" lon="12.2593845274014"><ele>7.0</ele><time>2026-04-24T13:41:12Z</time></trkpt><trkpt lat="44.25360032950732" lon="12.259342162473677"><ele>7.0</ele><time>2026-04-24T13:41:13Z</time></trkpt><trkpt lat="44.25347065238078" lon="12.259255723616075"><ele>7.0</ele><time>2026-04-24T13:41:14Z</time></trkpt><trkpt lat="44.253346369582175" lon="12.259170462035256"><ele>7.0</ele><time>2026-04-24T13:41:15Z</time></trkpt><trkpt lat="44.253228813466905" lon="12.259077092784596"><ele>7.25</ele><time>2026-04-24T13:41:16Z</time></trkpt><trkpt lat="44.25311927306268" lon="12.258966390752612"><ele>7.5</ele><time>2026-04-24T13:41:17Z</time></trkpt><trkpt lat="44.25301289999051" lon="12.258848631194242"><ele>7.75</ele><time>2026-04-24T13:41:18Z</time></trkpt><trkpt lat="44.252918042323756" lon="12.258718185832956"><ele>8.0</ele><time>2026-04-24T13:41:19Z</time></trkpt><trkpt lat="44.25283166752503" lon="12.258579784064978"><ele>8.200000000000001</ele><time>2026-04-24T13:41:20Z</time></trkpt><trkpt lat="44.25273973913007" lon="12.258458258772343"><ele>8.4</ele><time>2026-04-24T13:41:21Z</time></trkpt><trkpt lat="44.252677258936004" lon="12.258339335575796"><ele>8.600000000000001</ele><time>2026-04-24T13:41:22Z</time></trkpt><trkpt lat="44.25262787188735" lon="12.258246276514882"><ele>8.8</ele><time>2026-04-24T13:41:23Z</time></trkpt><trkpt lat="44.25258806074706" lon="12.258164935965787"><ele>9.0</ele><time>2026-04-24T13:41:24Z</time></trkpt><trkpt lat="44.25255091793948" lon="12.258079873576603"><ele>9.0</ele><time>2026-04-24T13:41:30Z</time></trkpt><trkpt lat="44.25247950444986" lon="12.25792494359272"><ele>9.0</ele><time>2026-04-24T13:41:32Z</time></trkpt><trkpt lat="44.252407196776986" lon="12.257838505758954"><ele>9.0</ele><time>2026-04-24T13:41:33Z</time></trkpt><trkpt lat="44.252343568193595" lon="12.257733111485967"><ele>9.0</ele><time>2026-04-24T13:41:34Z</time></trkpt><trkpt lat="44.25226162533956" lon="12.257624699560381"><ele>9.0</ele><time>2026-04-24T13:41:35Z</time></trkpt><trkpt lat="44.25214958444682" lon="12.257494452583998"><ele>9.333333333333334</ele><time>2026-04-24T13:41:36Z</time></trkpt><trkpt lat="44.2519880157212" lon="12.257349744332931"><ele>9.666666666666668</ele><time>2026-04-24T13:41:37Z</time></trkpt><trkpt lat="44.251816732500664" lon="12.257206287429241"><ele>10.0</ele><time>2026-04-24T13:41:38Z</time></trkpt><trkpt lat="44.25163480415865" lon="12.25707570508413"><ele>10.0</ele><time>2026-04-24T13:41:39Z</time></trkpt><trkpt lat="44.251471608508055" lon="12.256905166465607"><ele>10.0</ele><time>2026-04-24T13:41:40Z</time></trkpt><trkpt lat="44.25131467382349" lon="12.256734948495017"><ele>10.0</ele><time>2026-04-24T13:41:41Z</time></trkpt><trkpt lat="44.251155807152195" lon="12.256568376785323"><ele>10.0</ele><time>2026-04-24T13:41:42Z</time></trkpt><trkpt lat="44.25099487414862" lon="12.25642189472018"><ele>10.0</ele><time>2026-04-24T13:41:43Z</time></trkpt><trkpt lat="44.25082787849718" lon="12.256282198122301"><ele>10.0</ele><time>2026-04-24T13:41:44Z</time></trkpt><trkpt lat="44.25066052486443" lon="12.256138889587456"><ele>10.333333333333334</ele><time>2026-04-24T13:41:45Z</time></trkpt><trkpt lat="44.25049642242002" lon="12.255995414191823"><ele>10.666666666666666</ele><time>2026-04-24T13:41:46Z</time></trkpt><trkpt lat="44.250336031089205" lon="12.2558497081155"><ele>11.0</ele><time>2026-04-24T13:41:47Z</time></trkpt><trkpt lat="44.25017529527705" lon="12.25570035762996"><ele>11.0</ele><time>2026-04-24T13:41:48Z</time></trkpt><trkpt lat="44.25001895178624" lon="12.255555962042454"><ele>11.0</ele><time>2026-04-24T13:41:49Z</time></trkpt><trkpt lat="44.249874131631145" lon="12.255422042576084"><ele>11.0</ele><time>2026-04-24T13:41:50Z</time></trkpt><trkpt lat="44.24974339308556" lon="12.255303510038663"><ele>11.0</ele><time>2026-04-24T13:41:51Z</time></trkpt><trkpt lat="44.24962768322088" lon="12.25519318679427"><ele>11.0</ele><time>2026-04-24T13:41:52Z</time></trkpt><trkpt lat="44.24950294626408" lon="12.255124361162473"><ele>11.0</ele><time>2026-04-24T13:41:53Z</time></trkpt><trkpt lat="44.24936679340822" lon="12.255089592802882"><ele>11.0</ele><time>2026-04-24T13:41:54Z</time></trkpt><trkpt lat="44.24921122011177" lon="12.255076350424735"><ele>11.0</ele><time>2026-04-24T13:41:55Z</time></trkpt><trkpt lat="44.24904324063755" lon="12.255062480912146"><ele>11.0</ele><time>2026-04-24T13:41:56Z</time></trkpt><trkpt lat="44.24886754600226" lon="12.255056230441975"><ele>11.0</ele><time>2026-04-24T13:41:57Z</time></trkpt><trkpt lat="44.24868514664074" lon="12.25505229125784"><ele>9.666666666666666</ele><time>2026-04-24T13:41:58Z</time></trkpt><trkpt lat="44.24849650248108" lon="12.255034598287537"><ele>8.333333333333334</ele><time>2026-04-24T13:41:59Z</time></trkpt><trkpt lat="44.24831338110446" lon="12.255011389011486"><ele>7.0</ele><time>2026-04-24T13:42:00Z</time></trkpt><trkpt lat="44.24812522501806" lon="12.25499072709251"><ele>6.666666666666667</ele><time>2026-04-24T13:42:01Z</time></trkpt><trkpt lat="44.24792943450964" lon="12.254971839288906"><ele>6.333333333333334</ele><time>2026-04-24T13:42:02Z</time></trkpt><trkpt lat="44.247726660126894" lon="12.25495107225835"><ele>6.0</ele><time>2026-04-24T13:42:03Z</time></trkpt><trkpt lat="44.2475188831127" lon="12.254930845669664"><ele>6.0</ele><time>2026-04-24T13:42:04Z</time></trkpt><trkpt lat="44.24731466922322" lon="12.254886764691532"><ele>6.0</ele><time>2026-04-24T13:42:05Z</time></trkpt><trkpt lat="44.247112873980875" lon="12.254864788095487"><ele>6.0</ele><time>2026-04-24T13:42:06Z</time></trkpt><trkpt lat="44.24690918083261" lon="12.254862463412243"><ele>6.666666666666666</ele><time>2026-04-24T13:42:07Z</time></trkpt><trkpt lat="44.24670748304492" lon="12.25484041679658"><ele>7.333333333333333</ele><time>2026-04-24T13:42:08Z</time></trkpt><trkpt lat="44.24650513496359" lon="12.254818156201235"><ele>8.0</ele><time>2026-04-24T13:42:09Z</time></trkpt><trkpt lat="44.2463027864578" lon="12.254789133389735"><ele>8.0</ele><time>2026-04-24T13:42:10Z</time></trkpt><trkpt lat="44.24610002194697" lon="12.25476323156731"><ele>8.0</ele><time>2026-04-24T13:42:11Z</time></trkpt><trkpt lat="44.245899819155824" lon="12.254737019159695"><ele>8.0</ele><time>2026-04-24T13:42:12Z</time></trkpt><trkpt lat="44.24569387863097" lon="12.254712188617745"><ele>7.666666666666666</ele><time>2026-04-24T13:42:13Z</time></trkpt><trkpt lat="44.24548686343303" lon="12.254688158342898"><ele>7.333333333333334</ele><time>2026-04-24T13:42:14Z</time></trkpt><trkpt lat="44.24527690871364" lon="12.254658766088305"><ele>7.0</ele><time>2026-04-24T13:42:15Z</time></trkpt><trkpt lat="44.245067285740575" lon="12.25463339823501"><ele>7.0</ele><time>2026-04-24T13:42:16Z</time></trkpt><trkpt lat="44.24485097478748" lon="12.254607047707283"><ele>7.0</ele><time>2026-04-24T13:42:17Z</time></trkpt><trkpt lat="44.24463499866438" lon="12.254576981046105"><ele>7.0</ele><time>2026-04-24T13:42:18Z</time></trkpt><trkpt lat="44.24442562239057" lon="12.254554743109896"><ele>7.0</ele><time>2026-04-24T13:42:19Z</time></trkpt><trkpt lat="44.24422039578896" lon="12.254536464718685"><ele>7.0</ele><time>2026-04-24T13:42:20Z</time></trkpt><trkpt lat="44.24401050770247" lon="12.254520045021849"><ele>7.0</ele><time>2026-04-24T13:42:21Z</time></trkpt><trkpt lat="44.24379540194024" lon="12.254516008438602"><ele>7.333333333333334</ele><time>2026-04-24T13:42:22Z</time></trkpt><trkpt lat="44.243577687483864" lon="12.254523356110619"><ele>7.666666666666666</ele><time>2026-04-24T13:42:23Z</time></trkpt><trkpt lat="44.24335438972404" lon="12.254535429943632"><ele>8.0</ele><time>2026-04-24T13:42:24Z</time></trkpt><trkpt lat="44.24313197057321" lon="12.254552573307885"><ele>8.0</ele><time>2026-04-24T13:42:25Z</time></trkpt><trkpt lat="44.24291246427288" lon="12.25456969014614"><ele>8.0</ele><time>2026-04-24T13:42:26Z</time></trkpt><trkpt lat="44.24269634413908" lon="12.254582571996426"><ele>8.0</ele><time>2026-04-24T13:42:27Z</time></trkpt><trkpt lat="44.242483149350655" lon="12.254596227005953"><ele>8.0</ele><time>2026-04-24T13:42:28Z</time></trkpt><trkpt lat="44.24226976953959" lon="12.254610693451806"><ele>8.0</ele><time>2026-04-24T13:42:29Z</time></trkpt><trkpt lat="44.24205906632585" lon="12.25462683066063"><ele>8.0</ele><time>2026-04-24T13:42:30Z</time></trkpt><trkpt lat="44.24184742003601" lon="12.254642653634736"><ele>8.0</ele><time>2026-04-24T13:42:31Z</time></trkpt><trkpt lat="44.24163870594523" lon="12.254650690422991"><ele>8.0</ele><time>2026-04-24T13:42:32Z</time></trkpt><trkpt lat="44.241430169826565" lon="12.254656198214613"><ele>8.0</ele><time>2026-04-24T13:42:33Z</time></trkpt><trkpt lat="44.24122249734139" lon="12.254672012956446"><ele>8.0</ele><time>2026-04-24T13:42:34Z</time></trkpt><trkpt lat="44.24101500078865" lon="12.254690553708166"><ele>8.0</ele><time>2026-04-24T13:42:35Z</time></trkpt><trkpt lat="44.24080945363977" lon="12.254716910684662"><ele>8.0</ele><time>2026-04-24T13:42:36Z</time></trkpt><trkpt lat="44.24060531851809" lon="12.254748259037402"><ele>8.333333333333332</ele><time>2026-04-24T13:42:37Z</time></trkpt><trkpt lat="44.2404067702092" lon="12.25477597896765"><ele>8.666666666666666</ele><time>2026-04-24T13:42:38Z</time></trkpt><trkpt lat="44.2402106577589" lon="12.254810013077018"><ele>9.0</ele><time>2026-04-24T13:42:39Z</time></trkpt><trkpt lat="44.24002320453222" lon="12.254851346719764"><ele>9.0</ele><time>2026-04-24T13:42:40Z</time></trkpt><trkpt lat="44.23983553370804" lon="12.254882638900494"><ele>9.0</ele><time>2026-04-24T13:42:41Z</time></trkpt><trkpt lat="44.239651792015394" lon="12.254916720471806"><ele>9.0</ele><time>2026-04-24T13:42:42Z</time></trkpt><trkpt lat="44.239464294143374" lon="12.254941319001151"><ele>9.0</ele><time>2026-04-24T13:42:43Z</time></trkpt><trkpt lat="44.23927965242991" lon="12.254959384886181"><ele>9.0</ele><time>2026-04-24T13:42:44Z</time></trkpt><trkpt lat="44.239097393730006" lon="12.254982452874433"><ele>9.0</ele><time>2026-04-24T13:42:45Z</time></trkpt><trkpt lat="44.23891585988195" lon="12.25500985681445"><ele>9.0</ele><time>2026-04-24T13:42:46Z</time></trkpt><trkpt lat="44.238733994605056" lon="12.25503572816123"><ele>9.0</ele><time>2026-04-24T13:42:47Z</time></trkpt><trkpt lat="44.23855624950802" lon="12.2550682818702"><ele>9.0</ele><time>2026-04-24T13:42:48Z</time></trkpt><trkpt lat="44.238385585167336" lon="12.255095848057593"><ele>9.0</ele><time>2026-04-24T13:42:49Z</time></trkpt><trkpt lat="44.23822910597999" lon="12.255098064322429"><ele>9.0</ele><time>2026-04-24T13:42:50Z</time></trkpt><trkpt lat="44.23809769009557" lon="12.255117213658963"><ele>9.0</ele><time>2026-04-24T13:42:51Z</time></trkpt><trkpt lat="44.23798962741257" lon="12.25513292740066"><ele>9.0</ele><time>2026-04-24T13:42:52Z</time></trkpt><trkpt lat="44.23790352930768" lon="12.255145447225525"><ele>9.0</ele><time>2026-04-24T13:42:53Z</time></trkpt><trkpt lat="44.237839468943015" lon="12.255154762450765"><ele>9.0</ele><time>2026-04-24T13:42:54Z</time></trkpt><trkpt lat="44.237774804687284" lon="12.255164359167246"><ele>9.0</ele><time>2026-04-24T13:42:56Z</time></trkpt><trkpt lat="44.237694980956135" lon="12.255177157908847"><ele>9.0</ele><time>2026-04-24T13:43:05Z</time></trkpt><trkpt lat="44.23766353783342" lon="12.25542470373196"><ele>9.0</ele><time>2026-04-24T13:43:09Z</time></trkpt><trkpt lat="44.237672307390774" lon="12.255549454191124"><ele>9.0</ele><time>2026-04-24T13:43:10Z</time></trkpt><trkpt lat="44.23768819848453" lon="12.255674003602772"><ele>9.0</ele><time>2026-04-24T13:43:11Z</time></trkpt><trkpt lat="44.23770648009719" lon="12.255820416688087"><ele>9.0</ele><time>2026-04-24T13:43:12Z</time></trkpt><trkpt lat="44.23772269940872" lon="12.255985900072593"><ele>9.0</ele><time>2026-04-24T13:43:13Z</time></trkpt><trkpt lat="44.23774290465043" lon="12.256172516333159"><ele>9.0</ele><time>2026-04-24T13:43:14Z</time></trkpt><trkpt lat="44.23775806665187" lon="12.256356810021009"><ele>9.0</ele><time>2026-04-24T13:43:15Z</time></trkpt><trkpt lat="44.23777220384648" lon="12.256541975645007"><ele>9.0</ele><time>2026-04-24T13:43:16Z</time></trkpt><trkpt lat="44.237787709515686" lon="12.256734657109515"><ele>9.0</ele><time>2026-04-24T13:43:17Z</time></trkpt><trkpt lat="44.23780722933759" lon="12.256930391047641"><ele>9.0</ele><time>2026-04-24T13:43:18Z</time></trkpt><trkpt lat="44.237821494319725" lon="12.25712997038164"><ele>9.0</ele><time>2026-04-24T13:43:19Z</time></trkpt><trkpt lat="44.23783485997556" lon="12.257327510215081"><ele>9.0</ele><time>2026-04-24T13:43:20Z</time></trkpt><trkpt lat="44.237847183988244" lon="12.257523911486203"><ele>9.0</ele><time>2026-04-24T13:43:21Z</time></trkpt><trkpt lat="44.23786307266238" lon="12.257719050768554"><ele>9.0</ele><time>2026-04-24T13:43:22Z</time></trkpt><trkpt lat="44.237878656336285" lon="12.257915735200628"><ele>9.0</ele><time>2026-04-24T13:43:23Z</time></trkpt><trkpt lat="44.237896619166904" lon="12.258109824012786"><ele>9.0</ele><time>2026-04-24T13:43:24Z</time></trkpt><trkpt lat="44.237917735938545" lon="12.258300725537971"><ele>9.0</ele><time>2026-04-24T13:43:25Z</time></trkpt><trkpt lat="44.23793442129655" lon="12.258485319123501"><ele>9.0</ele><time>2026-04-24T13:43:26Z</time></trkpt><trkpt lat="44.23794798483659" lon="12.25866792947974"><ele>9.0</ele><time>2026-04-24T13:43:27Z</time></trkpt><trkpt lat="44.23796257745918" lon="12.258841947974673"><ele>9.0</ele><time>2026-04-24T13:43:28Z</time></trkpt><trkpt lat="44.23796987942881" lon="12.259017378882277"><ele>9.0</ele><time>2026-04-24T13:43:29Z</time></trkpt><trkpt lat="44.23797956190457" lon="12.259196472708494"><ele>8.75</ele><time>2026-04-24T13:43:30Z</time></trkpt><trkpt lat="44.23798865599724" lon="12.259374088605329"><ele>8.5</ele><time>2026-04-24T13:43:31Z</time></trkpt><trkpt lat="44.23799907816272" lon="12.259548261427629"><ele>8.25</ele><time>2026-04-24T13:43:32Z</time></trkpt><trkpt lat="44.23801233279933" lon="12.259715887313773"><ele>8.0</ele><time>2026-04-24T13:43:33Z</time></trkpt><trkpt lat="44.238024164749376" lon="12.259883752199858"><ele>8.0</ele><time>2026-04-24T13:43:34Z</time></trkpt><trkpt lat="44.238035259287955" lon="12.260050931963553"><ele>8.0</ele><time>2026-04-24T13:43:35Z</time></trkpt><trkpt lat="44.23804194444602" lon="12.260221152849704"><ele>8.0</ele><time>2026-04-24T13:43:36Z</time></trkpt><trkpt lat="44.23805175293302" lon="12.260392490884941"><ele>8.0</ele><time>2026-04-24T13:43:37Z</time></trkpt><trkpt lat="44.238058280569554" lon="12.260564502433539"><ele>8.0</ele><time>2026-04-24T13:43:38Z</time></trkpt><trkpt lat="44.238065488075605" lon="12.260737680577643"><ele>8.0</ele><time>2026-04-24T13:43:39Z</time></trkpt><trkpt lat="44.23807020020483" lon="12.26090801884462"><ele>8.0</ele><time>2026-04-24T13:43:40Z</time></trkpt><trkpt lat="44.23808507275823" lon="12.261083976026793"><ele>8.0</ele><time>2026-04-24T13:43:41Z</time></trkpt><trkpt lat="44.238099438812654" lon="12.26126012656793"><ele>8.0</ele><time>2026-04-24T13:43:42Z</time></trkpt><trkpt lat="44.23811290384758" lon="12.261433772655456"><ele>8.0</ele><time>2026-04-24T13:43:43Z</time></trkpt><trkpt lat="44.23811951806105" lon="12.261610158836618"><ele>8.0</ele><time>2026-04-24T13:43:44Z</time></trkpt><trkpt lat="44.23812519565198" lon="12.261786315900483"><ele>8.0</ele><time>2026-04-24T13:43:45Z</time></trkpt><trkpt lat="44.238129744077774" lon="12.26196549177732"><ele>7.75</ele><time>2026-04-24T13:43:46Z</time></trkpt><trkpt lat="44.23813770026921" lon="12.262146974262489"><ele>7.5</ele><time>2026-04-24T13:43:47Z</time></trkpt><trkpt lat="44.23814496731202" lon="12.262332743461673"><ele>7.25</ele><time>2026-04-24T13:43:48Z</time></trkpt><trkpt lat="44.238158531247414" lon="12.262519241687881"><ele>7.0</ele><time>2026-04-24T13:43:49Z</time></trkpt><trkpt lat="44.23816299686208" lon="12.262712552866766"><ele>7.0</ele><time>2026-04-24T13:43:50Z</time></trkpt><trkpt lat="44.238172620813664" lon="12.262904878140434"><ele>7.0</ele><time>2026-04-24T13:43:51Z</time></trkpt><trkpt lat="44.23818214127748" lon="12.263102173393891"><ele>7.0</ele><time>2026-04-24T13:43:52Z</time></trkpt><trkpt lat="44.23818816935691" lon="12.263295078331666"><ele>7.0</ele><time>2026-04-24T13:43:53Z</time></trkpt><trkpt lat="44.23819977198946" lon="12.263491681870025"><ele>7.0</ele><time>2026-04-24T13:43:54Z</time></trkpt><trkpt lat="44.238211819264684" lon="12.263691290231606"><ele>7.0</ele><time>2026-04-24T13:43:55Z</time></trkpt><trkpt lat="44.23822555072619" lon="12.263890007246102"><ele>7.0</ele><time>2026-04-24T13:43:56Z</time></trkpt><trkpt lat="44.23823703283184" lon="12.264089889958823"><ele>7.0</ele><time>2026-04-24T13:43:57Z</time></trkpt><trkpt lat="44.23824742119165" lon="12.264288779275509"><ele>7.0</ele><time>2026-04-24T13:43:58Z</time></trkpt><trkpt lat="44.23825541527735" lon="12.264493186372803"><ele>7.0</ele><time>2026-04-24T13:43:59Z</time></trkpt><trkpt lat="44.2382613075149" lon="12.264701840848266"><ele>7.0</ele><time>2026-04-24T13:44:00Z</time></trkpt><trkpt lat="44.23826742542765" lon="12.264911341694143"><ele>7.0</ele><time>2026-04-24T13:44:01Z</time></trkpt><trkpt lat="44.238274351817665" lon="12.26511892420179"><ele>7.25</ele><time>2026-04-24T13:44:02Z</time></trkpt><trkpt lat="44.23828225377238" lon="12.265323428791037"><ele>7.5</ele><time>2026-04-24T13:44:03Z</time></trkpt><trkpt lat="44.23829141552297" lon="12.265526139453364"><ele>7.75</ele><time>2026-04-24T13:44:04Z</time></trkpt><trkpt lat="44.23830220165694" lon="12.265733685272599"><ele>8.0</ele><time>2026-04-24T13:44:05Z</time></trkpt><trkpt lat="44.23831627952253" lon="12.26594466667033"><ele>8.0</ele><time>2026-04-24T13:44:06Z</time></trkpt><trkpt lat="44.238332704246005" lon="12.266162240049942"><ele>8.0</ele><time>2026-04-24T13:44:07Z</time></trkpt><trkpt lat="44.23834911722164" lon="12.266373407448041"><ele>8.0</ele><time>2026-04-24T13:44:08Z</time></trkpt><trkpt lat="44.23836624106196" lon="12.266573180465128"><ele>8.0</ele><time>2026-04-24T13:44:09Z</time></trkpt><trkpt lat="44.23838063258013" lon="12.266770878014174"><ele>8.0</ele><time>2026-04-24T13:44:10Z</time></trkpt><trkpt lat="44.23839540411073" lon="12.266965759222424"><ele>8.0</ele><time>2026-04-24T13:44:11Z</time></trkpt><trkpt lat="44.23841316488452" lon="12.267155043668726"><ele>8.0</ele><time>2026-04-24T13:44:12Z</time></trkpt><trkpt lat="44.23843025640942" lon="12.267348707407907"><ele>8.0</ele><time>2026-04-24T13:44:13Z</time></trkpt><trkpt lat="44.23844849569063" lon="12.267543209501918"><ele>8.0</ele><time>2026-04-24T13:44:14Z</time></trkpt><trkpt lat="44.23846366355118" lon="12.267741663405602"><ele>8.0</ele><time>2026-04-24T13:44:15Z</time></trkpt><trkpt lat="44.23848304765622" lon="12.267935337076086"><ele>8.0</ele><time>2026-04-24T13:44:16Z</time></trkpt><trkpt lat="44.23850300553383" lon="12.268123788672968"><ele>7.75</ele><time>2026-04-24T13:44:17Z</time></trkpt><trkpt lat="44.23852206655709" lon="12.268305475897058"><ele>7.5</ele><time>2026-04-24T13:44:18Z</time></trkpt><trkpt lat="44.238535732273654" lon="12.268465162499815"><ele>7.25</ele><time>2026-04-24T13:44:19Z</time></trkpt><trkpt lat="44.238549441559655" lon="12.268610506284325"><ele>7.0</ele><time>2026-04-24T13:44:20Z</time></trkpt><trkpt lat="44.23855873215455" lon="12.268755902258235"><ele>7.0</ele><time>2026-04-24T13:44:21Z</time></trkpt><trkpt lat="44.23857075271398" lon="12.268902846553958"><ele>6.999999999999999</ele><time>2026-04-24T13:44:22Z</time></trkpt><trkpt lat="44.23858120454356" lon="12.269036927025534"><ele>6.999999999999999</ele><time>2026-04-24T13:44:23Z</time></trkpt><trkpt lat="44.238592979515964" lon="12.269164622621105"><ele>7.0</ele><time>2026-04-24T13:44:24Z</time></trkpt><trkpt lat="44.23860662168324" lon="12.269285157556913"><ele>7.0</ele><time>2026-04-24T13:44:25Z</time></trkpt><trkpt lat="44.238622242359284" lon="12.269398659442926"><ele>7.0</ele><time>2026-04-24T13:44:26Z</time></trkpt><trkpt lat="44.238638378154384" lon="12.26953656637276"><ele>6.999999999999999</ele><time>2026-04-24T13:44:28Z</time></trkpt><trkpt lat="44.23865689732542" lon="12.26965051067133"><ele>6.999999999999999</ele><time>2026-04-24T13:44:30Z</time></trkpt><trkpt lat="44.238702396402836" lon="12.269760586686486"><ele>7.0</ele><time>2026-04-24T13:44:32Z</time></trkpt><trkpt lat="44.23871511132902" lon="12.269928269326133"><ele>7.0</ele><time>2026-04-24T13:44:34Z</time></trkpt><trkpt lat="44.23873247142213" lon="12.270027453134023"><ele>7.000000000000001</ele><time>2026-04-24T13:44:35Z</time></trkpt><trkpt lat="44.238749244611846" lon="12.270131008877705"><ele>7.0</ele><time>2026-04-24T13:44:36Z</time></trkpt><trkpt lat="44.23876872226255" lon="12.270249725395347"><ele>7.0</ele><time>2026-04-24T13:44:37Z</time></trkpt><trkpt lat="44.238792328386275" lon="12.270372952134107"><ele>7.0</ele><time>2026-04-24T13:44:38Z</time></trkpt><trkpt lat="44.238817138788825" lon="12.270493917732573"><ele>7.000000000000001</ele><time>2026-04-24T13:44:39Z</time></trkpt><trkpt lat="44.23883990058607" lon="12.270621253063366"><ele>7.0</ele><time>2026-04-24T13:44:40Z</time></trkpt><trkpt lat="44.23884943615951" lon="12.270746149664859"><ele>7.0</ele><time>2026-04-24T13:44:41Z</time></trkpt><trkpt lat="44.23884537677783" lon="12.270869376955792"><ele>6.999999999999999</ele><time>2026-04-24T13:44:42Z</time></trkpt><trkpt lat="44.238817526463706" lon="12.270991631256466"><ele>6.999999999999999</ele><time>2026-04-24T13:44:43Z</time></trkpt><trkpt lat="44.238740824410634" lon="12.27108210486024"><ele>7.0</ele><time>2026-04-24T13:44:44Z</time></trkpt><trkpt lat="44.23867121664628" lon="12.271190923893855"><ele>7.0</ele><time>2026-04-24T13:44:45Z</time></trkpt><trkpt lat="44.23859896391359" lon="12.271311066675407"><ele>7.0</ele><time>2026-04-24T13:44:46Z</time></trkpt><trkpt lat="44.238520931170186" lon="12.271440820916244"><ele>7.0</ele><time>2026-04-24T13:44:47Z</time></trkpt><trkpt lat="44.238445428141326" lon="12.271588957483415"><ele>7.0</ele><time>2026-04-24T13:44:48Z</time></trkpt><trkpt lat="44.23835572963262" lon="12.271737356866387"><ele>7.0</ele><time>2026-04-24T13:44:49Z</time></trkpt><trkpt lat="44.2382645241908" lon="12.271879212038284"><ele>7.0</ele><time>2026-04-24T13:44:50Z</time></trkpt><trkpt lat="44.23817350119698" lon="12.272019494720317"><ele>7.0</ele><time>2026-04-24T13:44:51Z</time></trkpt><trkpt lat="44.238087033964554" lon="12.27216630425074"><ele>7.0</ele><time>2026-04-24T13:44:52Z</time></trkpt><trkpt lat="44.23799670107702" lon="12.272317215668249"><ele>7.0</ele><time>2026-04-24T13:44:53Z</time></trkpt><trkpt lat="44.23790543253723" lon="12.272466138395336"><ele>7.0</ele><time>2026-04-24T13:44:54Z</time></trkpt><trkpt lat="44.237813441271385" lon="12.272628414235694"><ele>7.0</ele><time>2026-04-24T13:44:55Z</time></trkpt><trkpt lat="44.23771893694255" lon="12.272787928464053"><ele>7.0</ele><time>2026-04-24T13:44:56Z</time></trkpt><trkpt lat="44.23762083293302" lon="12.272949793131568"><ele>7.0</ele><time>2026-04-24T13:44:57Z</time></trkpt><trkpt lat="44.23751638395555" lon="12.27312275481402"><ele>6.75</ele><time>2026-04-24T13:44:58Z</time></trkpt><trkpt lat="44.23741865616908" lon="12.27328496854442"><ele>6.5</ele><time>2026-04-24T13:44:59Z</time></trkpt><trkpt lat="44.23733188836347" lon="12.273424530751312"><ele>6.25</ele><time>2026-04-24T13:45:00Z</time></trkpt><trkpt lat="44.23724870685542" lon="12.273563119838498"><ele>6.0</ele><time>2026-04-24T13:45:01Z</time></trkpt><trkpt lat="44.23716539795689" lon="12.273702182419328"><ele>6.0</ele><time>2026-04-24T13:45:02Z</time></trkpt><trkpt lat="44.23708282897686" lon="12.273839498427769"><ele>6.0</ele><time>2026-04-24T13:45:03Z</time></trkpt><trkpt lat="44.23699784851003" lon="12.273971931026932"><ele>6.0</ele><time>2026-04-24T13:45:04Z</time></trkpt><trkpt lat="44.23691376014787" lon="12.274106039682616"><ele>6.0</ele><time>2026-04-24T13:45:05Z</time></trkpt><trkpt lat="44.2368311880759" lon="12.274244976851714"><ele>6.0</ele><time>2026-04-24T13:45:06Z</time></trkpt><trkpt lat="44.2367491227066" lon="12.274377764090966"><ele>6.0</ele><time>2026-04-24T13:45:07Z</time></trkpt><trkpt lat="44.236662984312005" lon="12.274517232165836"><ele>6.0</ele><time>2026-04-24T13:45:08Z</time></trkpt><trkpt lat="44.23657632867779" lon="12.274663075455612"><ele>6.0</ele><time>2026-04-24T13:45:09Z</time></trkpt><trkpt lat="44.236489141668805" lon="12.27480852337025"><ele>6.0</ele><time>2026-04-24T13:45:10Z</time></trkpt><trkpt lat="44.23640273151456" lon="12.274953228676365"><ele>6.0</ele><time>2026-04-24T13:45:11Z</time></trkpt><trkpt lat="44.23631401438952" lon="12.275099121503668"><ele>6.0</ele><time>2026-04-24T13:45:12Z</time></trkpt><trkpt lat="44.23622262865535" lon="12.27525040635817"><ele>6.0</ele><time>2026-04-24T13:45:13Z</time></trkpt><trkpt lat="44.23612507155895" lon="12.275414801170799"><ele>6.0</ele><time>2026-04-24T13:45:14Z</time></trkpt><trkpt lat="44.23602138285264" lon="12.275586830884356"><ele>6.0</ele><time>2026-04-24T13:45:15Z</time></trkpt><trkpt lat="44.235911352969325" lon="12.27575972448048"><ele>6.0</ele><time>2026-04-24T13:45:16Z</time></trkpt><trkpt lat="44.23580701286501" lon="12.275935545846087"><ele>5.75</ele><time>2026-04-24T13:45:17Z</time></trkpt><trkpt lat="44.23570439353112" lon="12.27610551856557"><ele>5.5</ele><time>2026-04-24T13:45:18Z</time></trkpt><trkpt lat="44.235609526625254" lon="12.276261442220537"><ele>5.25</ele><time>2026-04-24T13:45:19Z</time></trkpt><trkpt lat="44.235523284217166" lon="12.276401568595793"><ele>5.0</ele><time>2026-04-24T13:45:20Z</time></trkpt><trkpt lat="44.23544088862363" lon="12.276531239047152"><ele>5.5</ele><time>2026-04-24T13:45:21Z</time></trkpt><trkpt lat="44.23535556321327" lon="12.276675805531431"><ele>6.0</ele><time>2026-04-24T13:45:22Z</time></trkpt><trkpt lat="44.23527208824422" lon="12.276819717927518"><ele>6.5</ele><time>2026-04-24T13:45:23Z</time></trkpt><trkpt lat="44.23518727460528" lon="12.276962191009316"><ele>7.0</ele><time>2026-04-24T13:45:24Z</time></trkpt><trkpt lat="44.235095020814995" lon="12.27711698607241"><ele>6.666666666666667</ele><time>2026-04-24T13:45:25Z</time></trkpt><trkpt lat="44.23500039049116" lon="12.277277210438008"><ele>6.333333333333334</ele><time>2026-04-24T13:45:26Z</time></trkpt><trkpt lat="44.234901042030565" lon="12.277442887076683"><ele>6.0</ele><time>2026-04-24T13:45:27Z</time></trkpt><trkpt lat="44.234795670934275" lon="12.277612590449557"><ele>6.0</ele><time>2026-04-24T13:45:28Z</time></trkpt><trkpt lat="44.2346812288683" lon="12.277793222158433"><ele>6.0</ele><time>2026-04-24T13:45:29Z</time></trkpt><trkpt lat="44.23456743613342" lon="12.2779794037811"><ele>6.0</ele><time>2026-04-24T13:45:30Z</time></trkpt><trkpt lat="44.234460106181594" lon="12.278152131134995"><ele>5.333333333333333</ele><time>2026-04-24T13:45:31Z</time></trkpt><trkpt lat="44.23435472321163" lon="12.278333672119107"><ele>4.666666666666666</ele><time>2026-04-24T13:45:32Z</time></trkpt><trkpt lat="44.23424166070329" lon="12.278530236091646"><ele>4.0</ele><time>2026-04-24T13:45:33Z</time></trkpt><trkpt lat="44.234125572477595" lon="12.278737299363527"><ele>4.333333333333333</ele><time>2026-04-24T13:45:34Z</time></trkpt><trkpt lat="44.233985678919325" lon="12.278937279456585"><ele>4.666666666666667</ele><time>2026-04-24T13:45:35Z</time></trkpt><trkpt lat="44.233855753790785" lon="12.279151734696175"><ele>5.0</ele><time>2026-04-24T13:45:36Z</time></trkpt><trkpt lat="44.23373750605694" lon="12.27938381906543"><ele>5.0</ele><time>2026-04-24T13:45:37Z</time></trkpt><trkpt lat="44.233588610211214" lon="12.279595303842658"><ele>5.0</ele><time>2026-04-24T13:45:38Z</time></trkpt><trkpt lat="44.233449029637875" lon="12.279827065454054"><ele>5.0</ele><time>2026-04-24T13:45:39Z</time></trkpt><trkpt lat="44.233305792727094" lon="12.280062257432114"><ele>5.0</ele><time>2026-04-24T13:45:40Z</time></trkpt><trkpt lat="44.23315944672988" lon="12.280300136059516"><ele>5.0</ele><time>2026-04-24T13:45:41Z</time></trkpt><trkpt lat="44.23301275411863" lon="12.280538169308606"><ele>4.666666666666667</ele><time>2026-04-24T13:45:42Z</time></trkpt><trkpt lat="44.23287503306178" lon="12.280785001595314"><ele>4.333333333333333</ele><time>2026-04-24T13:45:43Z</time></trkpt><trkpt lat="44.23272324352184" lon="12.28101658614027"><ele>4.0</ele><time>2026-04-24T13:45:44Z</time></trkpt><trkpt lat="44.232577385332824" lon="12.281245614643792"><ele>4.0</ele><time>2026-04-24T13:45:45Z</time></trkpt><trkpt lat="44.23243480315802" lon="12.281472849127208"><ele>4.0</ele><time>2026-04-24T13:45:46Z</time></trkpt><trkpt lat="44.23229345152851" lon="12.281701256193465"><ele>4.0</ele><time>2026-04-24T13:45:47Z</time></trkpt><trkpt lat="44.232152356412755" lon="12.281930692902467"><ele>4.0</ele><time>2026-04-24T13:45:48Z</time></trkpt><trkpt lat="44.23201192484499" lon="12.28215831260703"><ele>4.0</ele><time>2026-04-24T13:45:49Z</time></trkpt><trkpt lat="44.231872696996916" lon="12.282384306353226"><ele>4.0</ele><time>2026-04-24T13:45:50Z</time></trkpt><trkpt lat="44.231734623506675" lon="12.282607325603976"><ele>4.0</ele><time>2026-04-24T13:45:51Z</time></trkpt><trkpt lat="44.231597919347045" lon="12.28283229133606"><ele>4.0</ele><time>2026-04-24T13:45:52Z</time></trkpt><trkpt lat="44.23146078235974" lon="12.283056794413614"><ele>4.0</ele><time>2026-04-24T13:45:53Z</time></trkpt><trkpt lat="44.231323989273754" lon="12.283283564375306"><ele>4.0</ele><time>2026-04-24T13:45:54Z</time></trkpt><trkpt lat="44.23118673055529" lon="12.283506554703159"><ele>4.0</ele><time>2026-04-24T13:45:55Z</time></trkpt><trkpt lat="44.23104798145049" lon="12.283730149166935"><ele>4.0</ele><time>2026-04-24T13:45:56Z</time></trkpt><trkpt lat="44.23090550249397" lon="12.283950564054093"><ele>4.0</ele><time>2026-04-24T13:45:57Z</time></trkpt><trkpt lat="44.230761993337524" lon="12.28417319960046"><ele>4.0</ele><time>2026-04-24T13:45:58Z</time></trkpt><trkpt lat="44.23062146700078" lon="12.284398710763115"><ele>4.0</ele><time>2026-04-24T13:45:59Z</time></trkpt><trkpt lat="44.230480746642634" lon="12.284625047039018"><ele>4.0</ele><time>2026-04-24T13:46:00Z</time></trkpt><trkpt lat="44.230336695503084" lon="12.284848953796343"><ele>4.0</ele><time>2026-04-24T13:46:01Z</time></trkpt><trkpt lat="44.23019608900868" lon="12.285070538757072"><ele>4.0</ele><time>2026-04-24T13:46:02Z</time></trkpt><trkpt lat="44.23005756072011" lon="12.285296710064165"><ele>4.0</ele><time>2026-04-24T13:46:03Z</time></trkpt><trkpt lat="44.229921591086864" lon="12.285521450535654"><ele>4.0</ele><time>2026-04-24T13:46:04Z</time></trkpt><trkpt lat="44.229785010609405" lon="12.285747459094463"><ele>4.0</ele><time>2026-04-24T13:46:05Z</time></trkpt><trkpt lat="44.22964702227362" lon="12.285976539378932"><ele>4.0</ele><time>2026-04-24T13:46:06Z</time></trkpt><trkpt lat="44.22950641032147" lon="12.286201158734169"><ele>4.0</ele><time>2026-04-24T13:46:07Z</time></trkpt><trkpt lat="44.22936622781686" lon="12.286428935127901"><ele>4.0</ele><time>2026-04-24T13:46:08Z</time></trkpt><trkpt lat="44.22922418741301" lon="12.28665092579996"><ele>4.0</ele><time>2026-04-24T13:46:09Z</time></trkpt><trkpt lat="44.22908480431522" lon="12.28687109949589"><ele>4.0</ele><time>2026-04-24T13:46:10Z</time></trkpt><trkpt lat="44.228947618356955" lon="12.287091520503957"><ele>4.0</ele><time>2026-04-24T13:46:11Z</time></trkpt><trkpt lat="44.22881188033218" lon="12.287313554314998"><ele>3.6666666666666665</ele><time>2026-04-24T13:46:12Z</time></trkpt><trkpt lat="44.22867208940398" lon="12.2875398531276"><ele>3.333333333333333</ele><time>2026-04-24T13:46:13Z</time></trkpt><trkpt lat="44.228535075740275" lon="12.28776565046803"><ele>3.0</ele><time>2026-04-24T13:46:14Z</time></trkpt><trkpt lat="44.22839681451944" lon="12.287992154588169"><ele>3.0</ele><time>2026-04-24T13:46:15Z</time></trkpt><trkpt lat="44.22825998370045" lon="12.288214041514545"><ele>3.0</ele><time>2026-04-24T13:46:16Z</time></trkpt><trkpt lat="44.22812169708621" lon="12.288444764396898"><ele>3.0</ele><time>2026-04-24T13:46:17Z</time></trkpt><trkpt lat="44.22798442594941" lon="12.288674965317162"><ele>3.0</ele><time>2026-04-24T13:46:18Z</time></trkpt><trkpt lat="44.22784487821211" lon="12.288902487563103"><ele>3.0</ele><time>2026-04-24T13:46:19Z</time></trkpt><trkpt lat="44.22770285878495" lon="12.289129506594461"><ele>3.0</ele><time>2026-04-24T13:46:20Z</time></trkpt><trkpt lat="44.22756400302336" lon="12.289356252078036"><ele>3.666666666666667</ele><time>2026-04-24T13:46:21Z</time></trkpt><trkpt lat="44.22742502129063" lon="12.289580193103667"><ele>4.333333333333334</ele><time>2026-04-24T13:46:22Z</time></trkpt><trkpt lat="44.22728320192695" lon="12.289804095933643"><ele>5.0</ele><time>2026-04-24T13:46:23Z</time></trkpt><trkpt lat="44.22714043423577" lon="12.290022103840018"><ele>5.0</ele><time>2026-04-24T13:46:24Z</time></trkpt><trkpt lat="44.2269935470654" lon="12.290240815520564"><ele>5.0</ele><time>2026-04-24T13:46:25Z</time></trkpt><trkpt lat="44.22684674035" lon="12.290460547887786"><ele>5.0</ele><time>2026-04-24T13:46:26Z</time></trkpt><trkpt lat="44.22670711090907" lon="12.290684704277677"><ele>4.333333333333334</ele><time>2026-04-24T13:46:27Z</time></trkpt><trkpt lat="44.22656925321616" lon="12.290910457611563"><ele>3.666666666666667</ele><time>2026-04-24T13:46:28Z</time></trkpt><trkpt lat="44.22643070953979" lon="12.291133748965645"><ele>3.0</ele><time>2026-04-24T13:46:29Z</time></trkpt><trkpt lat="44.226289274529556" lon="12.291354901529965"><ele>2.6666666666666665</ele><time>2026-04-24T13:46:30Z</time></trkpt><trkpt lat="44.22614650729018" lon="12.291575761004111"><ele>2.333333333333333</ele><time>2026-04-24T13:46:31Z</time></trkpt><trkpt lat="44.226004768875065" lon="12.291801578053724"><ele>2.0</ele><time>2026-04-24T13:46:32Z</time></trkpt><trkpt lat="44.22586092497727" lon="12.292024920300461"><ele>2.0</ele><time>2026-04-24T13:46:33Z</time></trkpt><trkpt lat="44.22572137474339" lon="12.292245803980906"><ele>2.0</ele><time>2026-04-24T13:46:34Z</time></trkpt><trkpt lat="44.22558092682823" lon="12.292469541038313"><ele>2.0</ele><time>2026-04-24T13:46:35Z</time></trkpt><trkpt lat="44.22544310553184" lon="12.292698470483899"><ele>2.333333333333333</ele><time>2026-04-24T13:46:36Z</time></trkpt><trkpt lat="44.225305984507926" lon="12.29292385774163"><ele>2.6666666666666665</ele><time>2026-04-24T13:46:37Z</time></trkpt><trkpt lat="44.22516669121661" lon="12.293149616529046"><ele>3.0</ele><time>2026-04-24T13:46:38Z</time></trkpt><trkpt lat="44.225028659968245" lon="12.293372859408636"><ele>3.333333333333333</ele><time>2026-04-24T13:46:39Z</time></trkpt><trkpt lat="44.22488678813328" lon="12.293595300240383"><ele>3.6666666666666665</ele><time>2026-04-24T13:46:40Z</time></trkpt><trkpt lat="44.224745820884934" lon="12.293821173362035"><ele>4.0</ele><time>2026-04-24T13:46:41Z</time></trkpt><trkpt lat="44.22460743363462" lon="12.29404919005795"><ele>4.0</ele><time>2026-04-24T13:46:42Z</time></trkpt><trkpt lat="44.22446765061642" lon="12.29427727073185"><ele>4.0</ele><time>2026-04-24T13:46:43Z</time></trkpt><trkpt lat="44.22433019032277" lon="12.294505228209607"><ele>4.0</ele><time>2026-04-24T13:46:44Z</time></trkpt><trkpt lat="44.22419508082351" lon="12.29473333030753"><ele>4.0</ele><time>2026-04-24T13:46:45Z</time></trkpt><trkpt lat="44.224059479428085" lon="12.294965659735125"><ele>4.0</ele><time>2026-04-24T13:46:46Z</time></trkpt><trkpt lat="44.22392473039934" lon="12.295192925003205"><ele>4.0</ele><time>2026-04-24T13:46:47Z</time></trkpt><trkpt lat="44.223786566505076" lon="12.295419529932156"><ele>4.0</ele><time>2026-04-24T13:46:48Z</time></trkpt><trkpt lat="44.22365219403766" lon="12.295643463616216"><ele>4.0</ele><time>2026-04-24T13:46:49Z</time></trkpt><trkpt lat="44.22351487865697" lon="12.29586722643269"><ele>4.0</ele><time>2026-04-24T13:46:50Z</time></trkpt><trkpt lat="44.22337645087792" lon="12.296095245136385"><ele>4.0</ele><time>2026-04-24T13:46:51Z</time></trkpt><trkpt lat="44.22323725871208" lon="12.296322193207518"><ele>4.0</ele><time>2026-04-24T13:46:52Z</time></trkpt><trkpt lat="44.22309608419007" lon="12.296548411990896"><ele>4.0</ele><time>2026-04-24T13:46:53Z</time></trkpt><trkpt lat="44.22295519722695" lon="12.296775207105064"><ele>4.0</ele><time>2026-04-24T13:46:54Z</time></trkpt><trkpt lat="44.22282713091224" lon="12.29697338041204"><ele>4.0</ele><time>2026-04-24T13:46:55Z</time></trkpt><trkpt lat="44.22270908611379" lon="12.29715597198867"><ele>4.0</ele><time>2026-04-24T13:46:56Z</time></trkpt><trkpt lat="44.22259821256445" lon="12.297325779094962"><ele>4.0</ele><time>2026-04-24T13:46:57Z</time></trkpt><trkpt lat="44.22249129907664" lon="12.297493222812221"><ele>4.0</ele><time>2026-04-24T13:46:58Z</time></trkpt><trkpt lat="44.22238453316457" lon="12.297662673973736"><ele>4.0</ele><time>2026-04-24T13:46:59Z</time></trkpt><trkpt lat="44.22227765352966" lon="12.297837627006677"><ele>4.333333333333333</ele><time>2026-04-24T13:47:00Z</time></trkpt><trkpt lat="44.2221718866338" lon="12.298011787865715"><ele>4.666666666666667</ele><time>2026-04-24T13:47:01Z</time></trkpt><trkpt lat="44.22206420311034" lon="12.298188873156088"><ele>5.0</ele><time>2026-04-24T13:47:02Z</time></trkpt><trkpt lat="44.22195031251812" lon="12.298366888249179"><ele>5.0</ele><time>2026-04-24T13:47:03Z</time></trkpt><trkpt lat="44.22183894809743" lon="12.298544969699751"><ele>5.0</ele><time>2026-04-24T13:47:04Z</time></trkpt><trkpt lat="44.2217275666925" lon="12.298726104213005"><ele>5.0</ele><time>2026-04-24T13:47:05Z</time></trkpt><trkpt lat="44.22161457225643" lon="12.298911328109574"><ele>5.0</ele><time>2026-04-24T13:47:06Z</time></trkpt><trkpt lat="44.22149505424612" lon="12.299106307951863"><ele>5.0</ele><time>2026-04-24T13:47:07Z</time></trkpt><trkpt lat="44.22137017689672" lon="12.29930665531228"><ele>5.0</ele><time>2026-04-24T13:47:08Z</time></trkpt><trkpt lat="44.221242922605484" lon="12.29951600163672"><ele>5.0</ele><time>2026-04-24T13:47:09Z</time></trkpt><trkpt lat="44.221114521600015" lon="12.299734819369313"><ele>5.0</ele><time>2026-04-24T13:47:10Z</time></trkpt><trkpt lat="44.22097639623519" lon="12.299960061701725"><ele>5.0</ele><time>2026-04-24T13:47:11Z</time></trkpt><trkpt lat="44.22084010663551" lon="12.3001910040439"><ele>4.666666666666667</ele><time>2026-04-24T13:47:12Z</time></trkpt><trkpt lat="44.22070178233169" lon="12.300415829746745"><ele>4.333333333333333</ele><time>2026-04-24T13:47:13Z</time></trkpt><trkpt lat="44.22055699432661" lon="12.300644081346418"><ele>4.0</ele><time>2026-04-24T13:47:14Z</time></trkpt><trkpt lat="44.2204090659793" lon="12.300868098143386"><ele>3.6666666666666665</ele><time>2026-04-24T13:47:15Z</time></trkpt><trkpt lat="44.22026359960953" lon="12.301086777346034"><ele>3.333333333333333</ele><time>2026-04-24T13:47:16Z</time></trkpt><trkpt lat="44.220121872647084" lon="12.301304704137273"><ele>3.0</ele><time>2026-04-24T13:47:17Z</time></trkpt><trkpt lat="44.21998141778332" lon="12.301527550379518"><ele>3.0</ele><time>2026-04-24T13:47:18Z</time></trkpt><trkpt lat="44.21984427885515" lon="12.301753001759982"><ele>3.0</ele><time>2026-04-24T13:47:19Z</time></trkpt><trkpt lat="44.21970899569519" lon="12.301977313649012"><ele>3.0</ele><time>2026-04-24T13:47:20Z</time></trkpt><trkpt lat="44.2195790989863" lon="12.30220295484827"><ele>3.333333333333333</ele><time>2026-04-24T13:47:21Z</time></trkpt><trkpt lat="44.21944764799409" lon="12.302432149860127"><ele>3.6666666666666665</ele><time>2026-04-24T13:47:22Z</time></trkpt><trkpt lat="44.21931332612473" lon="12.302661903285047"><ele>4.0</ele><time>2026-04-24T13:47:23Z</time></trkpt><trkpt lat="44.21917908471127" lon="12.302887957740872"><ele>4.333333333333333</ele><time>2026-04-24T13:47:24Z</time></trkpt><trkpt lat="44.21904369912413" lon="12.303111989970516"><ele>4.666666666666667</ele><time>2026-04-24T13:47:25Z</time></trkpt><trkpt lat="44.21890815844803" lon="12.3033388339541"><ele>5.0</ele><time>2026-04-24T13:47:26Z</time></trkpt><trkpt lat="44.21877171872867" lon="12.303565829689624"><ele>4.0</ele><time>2026-04-24T13:47:27Z</time></trkpt><trkpt lat="44.21863766494619" lon="12.303791288172398"><ele>3.0</ele><time>2026-04-24T13:47:28Z</time></trkpt><trkpt lat="44.218501785898724" lon="12.30401831419096"><ele>2.0</ele><time>2026-04-24T13:47:29Z</time></trkpt><trkpt lat="44.21836688112251" lon="12.304244648998932"><ele>2.0</ele><time>2026-04-24T13:47:30Z</time></trkpt><trkpt lat="44.2182294775909" lon="12.304468437721193"><ele>2.0</ele><time>2026-04-24T13:47:31Z</time></trkpt><trkpt lat="44.218091272841995" lon="12.304692979392355"><ele>2.0</ele><time>2026-04-24T13:47:32Z</time></trkpt><trkpt lat="44.217954430555565" lon="12.30492100073099"><ele>2.0</ele><time>2026-04-24T13:47:33Z</time></trkpt><trkpt lat="44.2178197931005" lon="12.305152413998371"><ele>2.0</ele><time>2026-04-24T13:47:34Z</time></trkpt><trkpt lat="44.217686484214745" lon="12.305387197807647"><ele>2.0</ele><time>2026-04-24T13:47:35Z</time></trkpt><trkpt lat="44.21755262778052" lon="12.305616614351448"><ele>2.0</ele><time>2026-04-24T13:47:36Z</time></trkpt><trkpt lat="44.21741905954505" lon="12.305846813661502"><ele>2.0</ele><time>2026-04-24T13:47:37Z</time></trkpt><trkpt lat="44.2172851600195" lon="12.306073406255544"><ele>2.0</ele><time>2026-04-24T13:47:38Z</time></trkpt><trkpt lat="44.217149213942875" lon="12.306301342716138"><ele>2.0</ele><time>2026-04-24T13:47:39Z</time></trkpt><trkpt lat="44.21701257391158" lon="12.306530250986448"><ele>2.0</ele><time>2026-04-24T13:47:40Z</time></trkpt><trkpt lat="44.216873310758814" lon="12.306758041970841"><ele>2.0</ele><time>2026-04-24T13:47:41Z</time></trkpt><trkpt lat="44.216738620024294" lon="12.306982566172357"><ele>2.0</ele><time>2026-04-24T13:47:42Z</time></trkpt><trkpt lat="44.216601344890904" lon="12.307206909626082"><ele>2.0</ele><time>2026-04-24T13:47:43Z</time></trkpt><trkpt lat="44.21646194076256" lon="12.30743123156932"><ele>2.0</ele><time>2026-04-24T13:47:44Z</time></trkpt><trkpt lat="44.21632621029351" lon="12.307660775554307"><ele>2.0</ele><time>2026-04-24T13:47:45Z</time></trkpt><trkpt lat="44.21619130440618" lon="12.307892803498621"><ele>2.0</ele><time>2026-04-24T13:47:46Z</time></trkpt><trkpt lat="44.21605725071782" lon="12.308121768259909"><ele>2.0</ele><time>2026-04-24T13:47:47Z</time></trkpt><trkpt lat="44.21591922724734" lon="12.308352690048647"><ele>2.0</ele><time>2026-04-24T13:47:48Z</time></trkpt><trkpt lat="44.21578488920192" lon="12.308578991693029"><ele>2.0</ele><time>2026-04-24T13:47:49Z</time></trkpt><trkpt lat="44.21564868594537" lon="12.308803645677415"><ele>2.0</ele><time>2026-04-24T13:47:50Z</time></trkpt><trkpt lat="44.215513702732636" lon="12.309030162254338"><ele>2.333333333333333</ele><time>2026-04-24T13:47:51Z</time></trkpt><trkpt lat="44.215376536066266" lon="12.30925904483439"><ele>2.6666666666666665</ele><time>2026-04-24T13:47:52Z</time></trkpt><trkpt lat="44.21524166168417" lon="12.309492103592184"><ele>3.0</ele><time>2026-04-24T13:47:53Z</time></trkpt><trkpt lat="44.215107564897195" lon="12.309723106818042"><ele>3.0</ele><time>2026-04-24T13:47:54Z</time></trkpt><trkpt lat="44.21496901091402" lon="12.309950041760043"><ele>3.0</ele><time>2026-04-24T13:47:55Z</time></trkpt><trkpt lat="44.21483199222145" lon="12.310177607892735"><ele>3.0</ele><time>2026-04-24T13:47:56Z</time></trkpt><trkpt lat="44.21469406449673" lon="12.31040349443806"><ele>2.6666666666666665</ele><time>2026-04-24T13:47:57Z</time></trkpt><trkpt lat="44.21456085235582" lon="12.310632508107771"><ele>2.333333333333333</ele><time>2026-04-24T13:47:58Z</time></trkpt><trkpt lat="44.214428931376176" lon="12.310861483550704"><ele>2.0</ele><time>2026-04-24T13:47:59Z</time></trkpt><trkpt lat="44.214295717895524" lon="12.311085707746612"><ele>2.0</ele><time>2026-04-24T13:48:00Z</time></trkpt><trkpt lat="44.2141619817869" lon="12.311312140669495"><ele>2.0</ele><time>2026-04-24T13:48:01Z</time></trkpt><trkpt lat="44.214027253244176" lon="12.311539691005764"><ele>2.0</ele><time>2026-04-24T13:48:02Z</time></trkpt><trkpt lat="44.21389010272743" lon="12.311768391733398"><ele>2.333333333333333</ele><time>2026-04-24T13:48:03Z</time></trkpt><trkpt lat="44.21375120307729" lon="12.31199781433394"><ele>2.6666666666666665</ele><time>2026-04-24T13:48:04Z</time></trkpt><trkpt lat="44.21361471585096" lon="12.312225594237262"><ele>3.0</ele><time>2026-04-24T13:48:05Z</time></trkpt><trkpt lat="44.21347372946861" lon="12.312455677319512"><ele>3.0</ele><time>2026-04-24T13:48:06Z</time></trkpt><trkpt lat="44.213337265328484" lon="12.312686321817354"><ele>3.0</ele><time>2026-04-24T13:48:07Z</time></trkpt><trkpt lat="44.21320052477496" lon="12.312914571643454"><ele>3.0</ele><time>2026-04-24T13:48:08Z</time></trkpt><trkpt lat="44.21306581922277" lon="12.313145212704729"><ele>3.0</ele><time>2026-04-24T13:48:09Z</time></trkpt><trkpt lat="44.212930746528784" lon="12.313372854625973"><ele>3.0</ele><time>2026-04-24T13:48:10Z</time></trkpt><trkpt lat="44.21279603378095" lon="12.313601027627534"><ele>3.0</ele><time>2026-04-24T13:48:11Z</time></trkpt><trkpt lat="44.21266266355065" lon="12.313822879860828"><ele>2.6666666666666665</ele><time>2026-04-24T13:48:12Z</time></trkpt><trkpt lat="44.212528725449744" lon="12.314046305259616"><ele>2.333333333333333</ele><time>2026-04-24T13:48:13Z</time></trkpt><trkpt lat="44.21239396859938" lon="12.314270489956066"><ele>2.0</ele><time>2026-04-24T13:48:14Z</time></trkpt><trkpt lat="44.21225506798032" lon="12.314494209059209"><ele>2.333333333333333</ele><time>2026-04-24T13:48:15Z</time></trkpt><trkpt lat="44.21211457921328" lon="12.314713427368137"><ele>2.6666666666666665</ele><time>2026-04-24T13:48:16Z</time></trkpt><trkpt lat="44.21197442227477" lon="12.31493297122125"><ele>3.0</ele><time>2026-04-24T13:48:17Z</time></trkpt><trkpt lat="44.21183506003189" lon="12.315153830389788"><ele>3.0</ele><time>2026-04-24T13:48:18Z</time></trkpt><trkpt lat="44.211692737495476" lon="12.315375882401112"><ele>3.0</ele><time>2026-04-24T13:48:19Z</time></trkpt><trkpt lat="44.2115489118045" lon="12.315598808286328"><ele>3.0</ele><time>2026-04-24T13:48:20Z</time></trkpt><trkpt lat="44.211407027592095" lon="12.315819203492941"><ele>3.0</ele><time>2026-04-24T13:48:21Z</time></trkpt><trkpt lat="44.21126684746365" lon="12.316038425438133"><ele>3.0</ele><time>2026-04-24T13:48:22Z</time></trkpt><trkpt lat="44.2111261653069" lon="12.316262907863479"><ele>3.0</ele><time>2026-04-24T13:48:23Z</time></trkpt><trkpt lat="44.2109894795006" lon="12.31648887339442"><ele>3.0</ele><time>2026-04-24T13:48:24Z</time></trkpt><trkpt lat="44.210850323904964" lon="12.3167125402191"><ele>3.0</ele><time>2026-04-24T13:48:25Z</time></trkpt><trkpt lat="44.21070949404445" lon="12.316932139032089"><ele>3.0</ele><time>2026-04-24T13:48:26Z</time></trkpt><trkpt lat="44.21056894608869" lon="12.317146350382883"><ele>3.333333333333333</ele><time>2026-04-24T13:48:27Z</time></trkpt><trkpt lat="44.2104318285418" lon="12.317359172661435"><ele>3.6666666666666665</ele><time>2026-04-24T13:48:28Z</time></trkpt><trkpt lat="44.210296547787095" lon="12.317576364887591"><ele>4.0</ele><time>2026-04-24T13:48:29Z</time></trkpt><trkpt lat="44.21016114543798" lon="12.317793040876056"><ele>4.0</ele><time>2026-04-24T13:48:30Z</time></trkpt><trkpt lat="44.210027636581486" lon="12.318007706923472"><ele>4.0</ele><time>2026-04-24T13:48:31Z</time></trkpt><trkpt lat="44.209892225966314" lon="12.318224456182497"><ele>4.0</ele><time>2026-04-24T13:48:32Z</time></trkpt><trkpt lat="44.20975516219001" lon="12.31844213650909"><ele>3.6666666666666665</ele><time>2026-04-24T13:48:33Z</time></trkpt><trkpt lat="44.209615758424796" lon="12.318658194099879"><ele>3.333333333333333</ele><time>2026-04-24T13:48:34Z</time></trkpt><trkpt lat="44.209476739518706" lon="12.318870393289513"><ele>3.0</ele><time>2026-04-24T13:48:35Z</time></trkpt><trkpt lat="44.20933548855454" lon="12.319083238741033"><ele>3.0</ele><time>2026-04-24T13:48:36Z</time></trkpt><trkpt lat="44.20919493716819" lon="12.31929784514489"><ele>3.0</ele><time>2026-04-24T13:48:37Z</time></trkpt><trkpt lat="44.20905950686993" lon="12.319518313199207"><ele>3.0</ele><time>2026-04-24T13:48:38Z</time></trkpt><trkpt lat="44.20892112361442" lon="12.319732199110847"><ele>3.333333333333333</ele><time>2026-04-24T13:48:39Z</time></trkpt><trkpt lat="44.20878063775561" lon="12.319946646996781"><ele>3.6666666666666665</ele><time>2026-04-24T13:48:40Z</time></trkpt><trkpt lat="44.20864129156008" lon="12.320160801961338"><ele>4.0</ele><time>2026-04-24T13:48:41Z</time></trkpt><trkpt lat="44.20850599658095" lon="12.320377606771864"><ele>3.6666666666666665</ele><time>2026-04-24T13:48:42Z</time></trkpt><trkpt lat="44.20837089207472" lon="12.32059617902252"><ele>3.333333333333333</ele><time>2026-04-24T13:48:43Z</time></trkpt><trkpt lat="44.208234936883464" lon="12.32081325363989"><ele>3.0</ele><time>2026-04-24T13:48:44Z</time></trkpt><trkpt lat="44.20809686394387" lon="12.321027744656728"><ele>3.0</ele><time>2026-04-24T13:48:45Z</time></trkpt><trkpt lat="44.20795738836613" lon="12.32124334831904"><ele>3.0</ele><time>2026-04-24T13:48:46Z</time></trkpt><trkpt lat="44.20782020463676" lon="12.3214621711632"><ele>3.0</ele><time>2026-04-24T13:48:47Z</time></trkpt><trkpt lat="44.20768150824233" lon="12.321681782017576"><ele>2.6666666666666665</ele><time>2026-04-24T13:48:48Z</time></trkpt><trkpt lat="44.207542302002494" lon="12.321896862410227"><ele>2.333333333333333</ele><time>2026-04-24T13:48:49Z</time></trkpt><trkpt lat="44.20740193159154" lon="12.32211213591069"><ele>2.0</ele><time>2026-04-24T13:48:50Z</time></trkpt><trkpt lat="44.20726131483513" lon="12.322329719217825"><ele>2.6666666666666665</ele><time>2026-04-24T13:48:51Z</time></trkpt><trkpt lat="44.207122589758164" lon="12.322547775638283"><ele>3.333333333333333</ele><time>2026-04-24T13:48:52Z</time></trkpt><trkpt lat="44.2069822186346" lon="12.322765154342779"><ele>4.0</ele><time>2026-04-24T13:48:53Z</time></trkpt><trkpt lat="44.20684663592957" lon="12.322980467338025"><ele>3.6666666666666665</ele><time>2026-04-24T13:48:54Z</time></trkpt><trkpt lat="44.2067131133027" lon="12.323196240536653"><ele>3.333333333333333</ele><time>2026-04-24T13:48:55Z</time></trkpt><trkpt lat="44.20658251280307" lon="12.323412791398562"><ele>3.0</ele><time>2026-04-24T13:48:56Z</time></trkpt><trkpt lat="44.206448041984714" lon="12.323637026770015"><ele>3.0</ele><time>2026-04-24T13:48:57Z</time></trkpt><trkpt lat="44.20631523678693" lon="12.323854637353886"><ele>3.0</ele><time>2026-04-24T13:48:58Z</time></trkpt><trkpt lat="44.20619205652557" lon="12.32405318268563"><ele>3.0</ele><time>2026-04-24T13:48:59Z</time></trkpt><trkpt lat="44.2060753879737" lon="12.32423709710501"><ele>2.6666666666666665</ele><time>2026-04-24T13:49:00Z</time></trkpt><trkpt lat="44.205963016598545" lon="12.324405543423984"><ele>2.333333333333333</ele><time>2026-04-24T13:49:01Z</time></trkpt><trkpt lat="44.20585717129125" lon="12.324566120355314"><ele>2.0</ele><time>2026-04-24T13:49:02Z</time></trkpt><trkpt lat="44.20575820406356" lon="12.324716444542114"><ele>1.75</ele><time>2026-04-24T13:49:03Z</time></trkpt><trkpt lat="44.20566410090696" lon="12.324867162382777"><ele>1.5</ele><time>2026-04-24T13:49:04Z</time></trkpt><trkpt lat="44.205573369513516" lon="12.325017397877845"><ele>1.25</ele><time>2026-04-24T13:49:05Z</time></trkpt><trkpt lat="44.20548589442029" lon="12.325159128373821"><ele>1.0</ele><time>2026-04-24T13:49:06Z</time></trkpt><trkpt lat="44.20540549627075" lon="12.325276029783122"><ele>1.0</ele><time>2026-04-24T13:49:07Z</time></trkpt><trkpt lat="44.205330187181424" lon="12.325365192570196"><ele>1.0</ele><time>2026-04-24T13:49:08Z</time></trkpt><trkpt lat="44.205250830715144" lon="12.325429680887668"><ele>1.0</ele><time>2026-04-24T13:49:09Z</time></trkpt><trkpt lat="44.20516878500769" lon="12.325462094055315"><ele>1.0</ele><time>2026-04-24T13:49:10Z</time></trkpt><trkpt lat="44.205076339402375" lon="12.325484087744544"><ele>1.0</ele><time>2026-04-24T13:49:11Z</time></trkpt><trkpt lat="44.20497087490101" lon="12.325509820732478"><ele>1.2000000000000002</ele><time>2026-04-24T13:49:12Z</time></trkpt><trkpt lat="44.204866066593056" lon="12.325569126138436"><ele>1.4000000000000001</ele><time>2026-04-24T13:49:13Z</time></trkpt><trkpt lat="44.204788153113995" lon="12.32567316166669"><ele>1.6</ele><time>2026-04-24T13:49:14Z</time></trkpt><trkpt lat="44.20475146421644" lon="12.325803158007561"><ele>1.8</ele><time>2026-04-24T13:49:15Z</time></trkpt><trkpt lat="44.204739017344856" lon="12.325965784502134"><ele>2.0</ele><time>2026-04-24T13:49:16Z</time></trkpt><trkpt lat="44.20473965586743" lon="12.32614672718127"><ele>2.25</ele><time>2026-04-24T13:49:17Z</time></trkpt><trkpt lat="44.20472570980759" lon="12.3263346620163"><ele>2.5</ele><time>2026-04-24T13:49:18Z</time></trkpt><trkpt lat="44.204677743211846" lon="12.326507111964066"><ele>2.75</ele><time>2026-04-24T13:49:19Z</time></trkpt><trkpt lat="44.20460114978945" lon="12.326656747559145"><ele>3.0</ele><time>2026-04-24T13:49:20Z</time></trkpt><trkpt lat="44.20449907724613" lon="12.326809180122522"><ele>3.333333333333333</ele><time>2026-04-24T13:49:21Z</time></trkpt><trkpt lat="44.20439544378877" lon="12.326970215602119"><ele>3.6666666666666665</ele><time>2026-04-24T13:49:22Z</time></trkpt><trkpt lat="44.204289702285166" lon="12.327137337480096"><ele>4.0</ele><time>2026-04-24T13:49:23Z</time></trkpt><trkpt lat="44.204192042196674" lon="12.327296681566533"><ele>3.6666666666666665</ele><time>2026-04-24T13:49:24Z</time></trkpt><trkpt lat="44.20409639431492" lon="12.327460097740278"><ele>3.333333333333333</ele><time>2026-04-24T13:49:25Z</time></trkpt><trkpt lat="44.20399223124663" lon="12.327630511549282"><ele>3.0</ele><time>2026-04-24T13:49:26Z</time></trkpt><trkpt lat="44.20388584373215" lon="12.327816090307877"><ele>3.0</ele><time>2026-04-24T13:49:27Z</time></trkpt><trkpt lat="44.20377338474636" lon="12.328012377198618"><ele>3.0</ele><time>2026-04-24T13:49:28Z</time></trkpt><trkpt lat="44.20365581671725" lon="12.328216126453155"><ele>3.0</ele><time>2026-04-24T13:49:29Z</time></trkpt><trkpt lat="44.20353498792787" lon="12.328430014136043"><ele>2.6666666666666665</ele><time>2026-04-24T13:49:30Z</time></trkpt><trkpt lat="44.20341105075075" lon="12.328648990344643"><ele>2.333333333333333</ele><time>2026-04-24T13:49:31Z</time></trkpt><trkpt lat="44.20327783562319" lon="12.328867236332526"><ele>2.0</ele><time>2026-04-24T13:49:32Z</time></trkpt><trkpt lat="44.203143975925926" lon="12.329085703029358"><ele>2.0</ele><time>2026-04-24T13:49:33Z</time></trkpt><trkpt lat="44.20301201620481" lon="12.329299533128243"><ele>2.0</ele><time>2026-04-24T13:49:34Z</time></trkpt><trkpt lat="44.20287674654399" lon="12.329514259907185"><ele>2.0</ele><time>2026-04-24T13:49:35Z</time></trkpt><trkpt lat="44.20273993813836" lon="12.329733153374516"><ele>2.0</ele><time>2026-04-24T13:49:36Z</time></trkpt><trkpt lat="44.2026096893129" lon="12.329950792189432"><ele>2.0</ele><time>2026-04-24T13:49:37Z</time></trkpt><trkpt lat="44.202478151302216" lon="12.330174246815792"><ele>2.0</ele><time>2026-04-24T13:49:38Z</time></trkpt><trkpt lat="44.2023478429397" lon="12.330399839937556"><ele>2.0</ele><time>2026-04-24T13:49:39Z</time></trkpt><trkpt lat="44.20221811375923" lon="12.330629639138396"><ele>2.0</ele><time>2026-04-24T13:49:40Z</time></trkpt><trkpt lat="44.20208592528462" lon="12.330858262159413"><ele>2.0</ele><time>2026-04-24T13:49:41Z</time></trkpt><trkpt lat="44.20195135500585" lon="12.331085870744777"><ele>2.0</ele><time>2026-04-24T13:49:42Z</time></trkpt><trkpt lat="44.201813373654375" lon="12.331314936322373"><ele>2.0</ele><time>2026-04-24T13:49:43Z</time></trkpt><trkpt lat="44.201673533055875" lon="12.331547758728624"><ele>2.0</ele><time>2026-04-24T13:49:44Z</time></trkpt><trkpt lat="44.20153523031526" lon="12.331787014428025"><ele>2.0</ele><time>2026-04-24T13:49:45Z</time></trkpt><trkpt lat="44.201394980812225" lon="12.332028717107754"><ele>2.0</ele><time>2026-04-24T13:49:46Z</time></trkpt><trkpt lat="44.201255880467805" lon="12.332268360491524"><ele>2.0</ele><time>2026-04-24T13:49:47Z</time></trkpt><trkpt lat="44.20111388256889" lon="12.332505949660945"><ele>2.333333333333333</ele><time>2026-04-24T13:49:48Z</time></trkpt><trkpt lat="44.20097497196271" lon="12.33274167333548"><ele>2.6666666666666665</ele><time>2026-04-24T13:49:49Z</time></trkpt><trkpt lat="44.20083670016716" lon="12.332976205274836"><ele>3.0</ele><time>2026-04-24T13:49:50Z</time></trkpt><trkpt lat="44.200698852410646" lon="12.333213927335475"><ele>3.0</ele><time>2026-04-24T13:49:51Z</time></trkpt><trkpt lat="44.20055860598611" lon="12.33345024178352"><ele>3.0</ele><time>2026-04-24T13:49:52Z</time></trkpt><trkpt lat="44.200415024187144" lon="12.333683134595038"><ele>3.0</ele><time>2026-04-24T13:49:53Z</time></trkpt><trkpt lat="44.20026939533881" lon="12.333910184082223"><ele>3.0</ele><time>2026-04-24T13:49:54Z</time></trkpt><trkpt lat="44.200124202285394" lon="12.33413673974689"><ele>3.0</ele><time>2026-04-24T13:49:55Z</time></trkpt><trkpt lat="44.19997876440032" lon="12.334362374466993"><ele>3.0</ele><time>2026-04-24T13:49:56Z</time></trkpt><trkpt lat="44.19983478062632" lon="12.33458916439002"><ele>3.0</ele><time>2026-04-24T13:49:57Z</time></trkpt><trkpt lat="44.19968829237803" lon="12.334816804832641"><ele>3.0</ele><time>2026-04-24T13:49:58Z</time></trkpt><trkpt lat="44.1995414558316" lon="12.335040941362143"><ele>3.0</ele><time>2026-04-24T13:49:59Z</time></trkpt><trkpt lat="44.199391587821026" lon="12.33526475407765"><ele>3.0</ele><time>2026-04-24T13:50:00Z</time></trkpt><trkpt lat="44.19924745323939" lon="12.33548907251108"><ele>3.0</ele><time>2026-04-24T13:50:01Z</time></trkpt><trkpt lat="44.19909944520309" lon="12.33571274257875"><ele>3.0</ele><time>2026-04-24T13:50:02Z</time></trkpt><trkpt lat="44.19895133724476" lon="12.335939661962161"><ele>3.333333333333333</ele><time>2026-04-24T13:50:03Z</time></trkpt><trkpt lat="44.19880190018339" lon="12.336161851368896"><ele>3.6666666666666665</ele><time>2026-04-24T13:50:04Z</time></trkpt><trkpt lat="44.19865279083275" lon="12.336383061158205"><ele>4.0</ele><time>2026-04-24T13:50:05Z</time></trkpt><trkpt lat="44.198504817679" lon="12.33660740203233"><ele>4.0</ele><time>2026-04-24T13:50:06Z</time></trkpt><trkpt lat="44.19835546516485" lon="12.336829503081432"><ele>4.0</ele><time>2026-04-24T13:50:07Z</time></trkpt><trkpt lat="44.19819894023745" lon="12.337043262910393"><ele>4.0</ele><time>2026-04-24T13:50:08Z</time></trkpt><trkpt lat="44.198044906082046" lon="12.337261117091169"><ele>3.6666666666666665</ele><time>2026-04-24T13:50:09Z</time></trkpt><trkpt lat="44.19789630714896" lon="12.337489023772939"><ele>3.333333333333333</ele><time>2026-04-24T13:50:10Z</time></trkpt><trkpt lat="44.19775369963841" lon="12.337714224615711"><ele>3.0</ele><time>2026-04-24T13:50:11Z</time></trkpt><trkpt lat="44.19761051541962" lon="12.33794090827422"><ele>3.0</ele><time>2026-04-24T13:50:12Z</time></trkpt><trkpt lat="44.19746649834379" lon="12.338172057044497"><ele>3.0</ele><time>2026-04-24T13:50:13Z</time></trkpt><trkpt lat="44.19732705764581" lon="12.33840446807473"><ele>3.0</ele><time>2026-04-24T13:50:14Z</time></trkpt><trkpt lat="44.19718884373339" lon="12.338643086744199"><ele>3.333333333333333</ele><time>2026-04-24T13:50:15Z</time></trkpt><trkpt lat="44.197047403821465" lon="12.338880553661532"><ele>3.6666666666666665</ele><time>2026-04-24T13:50:16Z</time></trkpt><trkpt lat="44.19690830178357" lon="12.339116163504595"><ele>4.0</ele><time>2026-04-24T13:50:17Z</time></trkpt><trkpt lat="44.1967692735401" lon="12.339351412434812"><ele>4.0</ele><time>2026-04-24T13:50:18Z</time></trkpt><trkpt lat="44.19662832151321" lon="12.339588011616321"><ele>4.0</ele><time>2026-04-24T13:50:19Z</time></trkpt><trkpt lat="44.196487831035704" lon="12.339822412649605"><ele>4.0</ele><time>2026-04-24T13:50:20Z</time></trkpt><trkpt lat="44.19634672272979" lon="12.340057680711912"><ele>3.6666666666666665</ele><time>2026-04-24T13:50:21Z</time></trkpt><trkpt lat="44.196205060996" lon="12.340288871901567"><ele>3.333333333333333</ele><time>2026-04-24T13:50:22Z</time></trkpt><trkpt lat="44.19606310601175" lon="12.340523074859618"><ele>3.0</ele><time>2026-04-24T13:50:23Z</time></trkpt><trkpt lat="44.19592345427084" lon="12.340760151800291"><ele>3.0</ele><time>2026-04-24T13:50:24Z</time></trkpt><trkpt lat="44.19578496404354" lon="12.340996743097678"><ele>3.0</ele><time>2026-04-24T13:50:25Z</time></trkpt><trkpt lat="44.19564424160009" lon="12.341231527072303"><ele>3.0</ele><time>2026-04-24T13:50:26Z</time></trkpt><trkpt lat="44.19550499168011" lon="12.341468162210054"><ele>3.666666666666667</ele><time>2026-04-24T13:50:27Z</time></trkpt><trkpt lat="44.19536297594785" lon="12.341704388883388"><ele>4.333333333333334</ele><time>2026-04-24T13:50:28Z</time></trkpt><trkpt lat="44.195221292902964" lon="12.341934213208994"><ele>5.0</ele><time>2026-04-24T13:50:29Z</time></trkpt><trkpt lat="44.19508046578826" lon="12.342165080292734"><ele>4.666666666666667</ele><time>2026-04-24T13:50:30Z</time></trkpt><trkpt lat="44.194940378782164" lon="12.342398046786908"><ele>4.333333333333333</ele><time>2026-04-24T13:50:31Z</time></trkpt><trkpt lat="44.1948001003404" lon="12.342632439381457"><ele>4.0</ele><time>2026-04-24T13:50:32Z</time></trkpt><trkpt lat="44.194660762207235" lon="12.342863860010263"><ele>3.6666666666666665</ele><time>2026-04-24T13:50:33Z</time></trkpt><trkpt lat="44.1945214589167" lon="12.343096068569645"><ele>3.333333333333333</ele><time>2026-04-24T13:50:34Z</time></trkpt><trkpt lat="44.1943807800893" lon="12.343331086308174"><ele>3.0</ele><time>2026-04-24T13:50:35Z</time></trkpt><trkpt lat="44.19423809880481" lon="12.343563467860573"><ele>3.0</ele><time>2026-04-24T13:50:36Z</time></trkpt><trkpt lat="44.19409904498317" lon="12.343795649811653"><ele>3.0</ele><time>2026-04-24T13:50:37Z</time></trkpt><trkpt lat="44.193959988736886" lon="12.34403277907669"><ele>3.0</ele><time>2026-04-24T13:50:38Z</time></trkpt><trkpt lat="44.19382096949276" lon="12.344268283280167"><ele>3.0</ele><time>2026-04-24T13:50:39Z</time></trkpt><trkpt lat="44.193682712961255" lon="12.3445048915918"><ele>3.0</ele><time>2026-04-24T13:50:40Z</time></trkpt><trkpt lat="44.193539780914456" lon="12.344738748982454"><ele>3.0</ele><time>2026-04-24T13:50:41Z</time></trkpt><trkpt lat="44.19339898509292" lon="12.344973288284457"><ele>3.0</ele><time>2026-04-24T13:50:42Z</time></trkpt><trkpt lat="44.19325453936766" lon="12.34520993630971"><ele>3.0</ele><time>2026-04-24T13:50:43Z</time></trkpt><trkpt lat="44.19310899979065" lon="12.34544183961637"><ele>3.0</ele><time>2026-04-24T13:50:44Z</time></trkpt><trkpt lat="44.19296726782605" lon="12.345673527030938"><ele>3.0</ele><time>2026-04-24T13:50:45Z</time></trkpt><trkpt lat="44.192825109276754" lon="12.345901759148026"><ele>3.0</ele><time>2026-04-24T13:50:46Z</time></trkpt><trkpt lat="44.19268294801398" lon="12.346133013825266"><ele>3.0</ele><time>2026-04-24T13:50:47Z</time></trkpt><trkpt lat="44.19254060736355" lon="12.346363816002219"><ele>3.0</ele><time>2026-04-24T13:50:48Z</time></trkpt><trkpt lat="44.19239987645769" lon="12.346598289573366"><ele>3.0</ele><time>2026-04-24T13:50:49Z</time></trkpt><trkpt lat="44.192259352538365" lon="12.346832133188947"><ele>3.0</ele><time>2026-04-24T13:50:50Z</time></trkpt><trkpt lat="44.19211612779273" lon="12.347068040867262"><ele>4.0</ele><time>2026-04-24T13:50:51Z</time></trkpt><trkpt lat="44.19197660642158" lon="12.347299578986627"><ele>5.0</ele><time>2026-04-24T13:50:52Z</time></trkpt><trkpt lat="44.191834298825036" lon="12.347526876756673"><ele>6.0</ele><time>2026-04-24T13:50:53Z</time></trkpt><trkpt lat="44.19168816676099" lon="12.347754318330896"><ele>6.0</ele><time>2026-04-24T13:50:54Z</time></trkpt><trkpt lat="44.19154296816857" lon="12.347981770116995"><ele>6.0</ele><time>2026-04-24T13:50:55Z</time></trkpt><trkpt lat="44.191397235510124" lon="12.348208036326143"><ele>6.0</ele><time>2026-04-24T13:50:56Z</time></trkpt><trkpt lat="44.19125233804" lon="12.348436451467482"><ele>5.333333333333333</ele><time>2026-04-24T13:50:57Z</time></trkpt><trkpt lat="44.19111093706384" lon="12.348667712892663"><ele>4.666666666666666</ele><time>2026-04-24T13:50:58Z</time></trkpt><trkpt lat="44.190969301764696" lon="12.348901121352347"><ele>4.0</ele><time>2026-04-24T13:50:59Z</time></trkpt><trkpt lat="44.19082342705752" lon="12.349134284148464"><ele>3.6666666666666665</ele><time>2026-04-24T13:51:00Z</time></trkpt><trkpt lat="44.190678470006866" lon="12.3493673100065"><ele>3.333333333333333</ele><time>2026-04-24T13:51:01Z</time></trkpt><trkpt lat="44.19053473340286" lon="12.349601083603476"><ele>3.0</ele><time>2026-04-24T13:51:02Z</time></trkpt><trkpt lat="44.19039212379157" lon="12.34983218395184"><ele>2.3333333333333335</ele><time>2026-04-24T13:51:03Z</time></trkpt><trkpt lat="44.190248706606454" lon="12.350061228651992"><ele>1.6666666666666665</ele><time>2026-04-24T13:51:04Z</time></trkpt><trkpt lat="44.190103072001186" lon="12.350290479704464"><ele>1.0</ele><time>2026-04-24T13:51:05Z</time></trkpt><trkpt lat="44.18995771660191" lon="12.350520772314594"><ele>1.0</ele><time>2026-04-24T13:51:06Z</time></trkpt><trkpt lat="44.1898111247486" lon="12.350749345692327"><ele>1.0</ele><time>2026-04-24T13:51:07Z</time></trkpt><trkpt lat="44.18966301799565" lon="12.350978137741327"><ele>1.0</ele><time>2026-04-24T13:51:08Z</time></trkpt><trkpt lat="44.189516963911366" lon="12.35120347569138"><ele>1.6666666666666665</ele><time>2026-04-24T13:51:09Z</time></trkpt><trkpt lat="44.18936962201968" lon="12.35142546482201"><ele>2.3333333333333335</ele><time>2026-04-24T13:51:10Z</time></trkpt><trkpt lat="44.18922915214293" lon="12.351650975790195"><ele>3.0</ele><time>2026-04-24T13:51:11Z</time></trkpt><trkpt lat="44.18908775732077" lon="12.351872605196426"><ele>2.6666666666666665</ele><time>2026-04-24T13:51:12Z</time></trkpt><trkpt lat="44.188944634864804" lon="12.352098519070422"><ele>2.333333333333333</ele><time>2026-04-24T13:51:13Z</time></trkpt><trkpt lat="44.188800582722166" lon="12.352322917991314"><ele>2.0</ele><time>2026-04-24T13:51:14Z</time></trkpt><trkpt lat="44.188655439627354" lon="12.352556263503713"><ele>2.0</ele><time>2026-04-24T13:51:15Z</time></trkpt><trkpt lat="44.188509307985974" lon="12.352791954115931"><ele>2.0</ele><time>2026-04-24T13:51:16Z</time></trkpt><trkpt lat="44.18836852380553" lon="12.353023424342545"><ele>2.0</ele><time>2026-04-24T13:51:17Z</time></trkpt><trkpt lat="44.1882328843023" lon="12.35326110764314"><ele>2.333333333333333</ele><time>2026-04-24T13:51:18Z</time></trkpt><trkpt lat="44.18809928215815" lon="12.353501516756785"><ele>2.6666666666666665</ele><time>2026-04-24T13:51:19Z</time></trkpt><trkpt lat="44.187963127880295" lon="12.35374112684256"><ele>3.0</ele><time>2026-04-24T13:51:20Z</time></trkpt><trkpt lat="44.187827737410274" lon="12.353980757870605"><ele>3.0</ele><time>2026-04-24T13:51:21Z</time></trkpt><trkpt lat="44.18769247591749" lon="12.354221053486693"><ele>3.0</ele><time>2026-04-24T13:51:22Z</time></trkpt><trkpt lat="44.18755621709284" lon="12.354462028028657"><ele>3.0</ele><time>2026-04-24T13:51:23Z</time></trkpt><trkpt lat="44.18741526454603" lon="12.35469665472634"><ele>3.0</ele><time>2026-04-24T13:51:24Z</time></trkpt><trkpt lat="44.18727338586542" lon="12.35492655691145"><ele>3.0</ele><time>2026-04-24T13:51:25Z</time></trkpt><trkpt lat="44.18713199086188" lon="12.355163862835086"><ele>3.0</ele><time>2026-04-24T13:51:26Z</time></trkpt><trkpt lat="44.18699257410513" lon="12.35539851125032"><ele>3.333333333333333</ele><time>2026-04-24T13:51:27Z</time></trkpt><trkpt lat="44.18685246418763" lon="12.355630811789649"><ele>3.6666666666666665</ele><time>2026-04-24T13:51:28Z</time></trkpt><trkpt lat="44.186710308438656" lon="12.355862124315514"><ele>4.0</ele><time>2026-04-24T13:51:29Z</time></trkpt><trkpt lat="44.18656530137953" lon="12.35609365245717"><ele>3.6666666666666665</ele><time>2026-04-24T13:51:30Z</time></trkpt><trkpt lat="44.18642294616154" lon="12.356324051495985"><ele>3.333333333333333</ele><time>2026-04-24T13:51:31Z</time></trkpt><trkpt lat="44.186278396528316" lon="12.356549841080438"><ele>3.0</ele><time>2026-04-24T13:51:32Z</time></trkpt><trkpt lat="44.186132301922655" lon="12.356777590141151"><ele>3.0</ele><time>2026-04-24T13:51:33Z</time></trkpt><trkpt lat="44.18598949906849" lon="12.357008717889146"><ele>3.0</ele><time>2026-04-24T13:51:34Z</time></trkpt><trkpt lat="44.18584608222842" lon="12.35723901187928"><ele>3.0</ele><time>2026-04-24T13:51:35Z</time></trkpt><trkpt lat="44.18570160709016" lon="12.357467946498653"><ele>2.6666666666666665</ele><time>2026-04-24T13:51:36Z</time></trkpt><trkpt lat="44.18555757814326" lon="12.357697390783633"><ele>2.333333333333333</ele><time>2026-04-24T13:51:37Z</time></trkpt><trkpt lat="44.185412420054604" lon="12.357919027550844"><ele>2.0</ele><time>2026-04-24T13:51:38Z</time></trkpt><trkpt lat="44.18527895710651" lon="12.358121407127562"><ele>2.0</ele><time>2026-04-24T13:51:39Z</time></trkpt><trkpt lat="44.18515341380278" lon="12.358306728770508"><ele>2.0</ele><time>2026-04-24T13:51:40Z</time></trkpt><trkpt lat="44.18503191020458" lon="12.35848262406275"><ele>2.0</ele><time>2026-04-24T13:51:41Z</time></trkpt><trkpt lat="44.184919096266775" lon="12.358645906050398"><ele>2.0</ele><time>2026-04-24T13:51:42Z</time></trkpt><trkpt lat="44.18480955858708" lon="12.358797323234331"><ele>2.0</ele><time>2026-04-24T13:51:43Z</time></trkpt><trkpt lat="44.18469831190195" lon="12.358953443619576"><ele>2.0</ele><time>2026-04-24T13:51:44Z</time></trkpt><trkpt lat="44.18458931850585" lon="12.359115248193357"><ele>2.0</ele><time>2026-04-24T13:51:45Z</time></trkpt><trkpt lat="44.184478512221546" lon="12.359281976463036"><ele>2.0</ele><time>2026-04-24T13:51:46Z</time></trkpt><trkpt lat="44.18436634363109" lon="12.359452766951238"><ele>2.0</ele><time>2026-04-24T13:51:47Z</time></trkpt><trkpt lat="44.18425359258799" lon="12.3596260434603"><ele>2.0</ele><time>2026-04-24T13:51:48Z</time></trkpt><trkpt lat="44.18413929047497" lon="12.359797390098462"><ele>2.0</ele><time>2026-04-24T13:51:49Z</time></trkpt><trkpt lat="44.18402423495486" lon="12.359968598126741"><ele>2.0</ele><time>2026-04-24T13:51:50Z</time></trkpt><trkpt lat="44.183912073669624" lon="12.360143989754928"><ele>2.0</ele><time>2026-04-24T13:51:51Z</time></trkpt><trkpt lat="44.18380384117554" lon="12.360321679378998"><ele>2.0</ele><time>2026-04-24T13:51:52Z</time></trkpt><trkpt lat="44.18369741336242" lon="12.360498587218158"><ele>2.0</ele><time>2026-04-24T13:51:53Z</time></trkpt><trkpt lat="44.183590123817446" lon="12.360674492625888"><ele>2.333333333333333</ele><time>2026-04-24T13:51:54Z</time></trkpt><trkpt lat="44.18348106192407" lon="12.36085148473822"><ele>2.6666666666666665</ele><time>2026-04-24T13:51:55Z</time></trkpt><trkpt lat="44.183367616612614" lon="12.361036979192205"><ele>3.0</ele><time>2026-04-24T13:51:56Z</time></trkpt><trkpt lat="44.183248844440264" lon="12.361225436110992"><ele>3.0</ele><time>2026-04-24T13:51:57Z</time></trkpt><trkpt lat="44.183128814457945" lon="12.361423084509203"><ele>3.0</ele><time>2026-04-24T13:51:58Z</time></trkpt><trkpt lat="44.18301427450043" lon="12.361622390878862"><ele>3.0</ele><time>2026-04-24T13:51:59Z</time></trkpt><trkpt lat="44.18289959066188" lon="12.36181818179711"><ele>3.0</ele><time>2026-04-24T13:52:00Z</time></trkpt><trkpt lat="44.18278128691716" lon="12.362012805726595"><ele>3.0</ele><time>2026-04-24T13:52:01Z</time></trkpt><trkpt lat="44.18266214322808" lon="12.362208379033802"><ele>3.0</ele><time>2026-04-24T13:52:02Z</time></trkpt><trkpt lat="44.18254798645156" lon="12.362402073993659"><ele>3.0</ele><time>2026-04-24T13:52:03Z</time></trkpt><trkpt lat="44.18243634279304" lon="12.362594244126887"><ele>3.0</ele><time>2026-04-24T13:52:04Z</time></trkpt><trkpt lat="44.18232286580055" lon="12.36277987277309"><ele>3.0</ele><time>2026-04-24T13:52:05Z</time></trkpt><trkpt lat="44.18221287856776" lon="12.36296080793853"><ele>3.333333333333333</ele><time>2026-04-24T13:52:06Z</time></trkpt><trkpt lat="44.182108763282" lon="12.363147005987418"><ele>3.6666666666666665</ele><time>2026-04-24T13:52:07Z</time></trkpt><trkpt lat="44.182003306051065" lon="12.363334502800933"><ele>4.0</ele><time>2026-04-24T13:52:08Z</time></trkpt><trkpt lat="44.18189900828354" lon="12.36352529978688"><ele>4.0</ele><time>2026-04-24T13:52:09Z</time></trkpt><trkpt lat="44.18179514424935" lon="12.363718516385756"><ele>4.0</ele><time>2026-04-24T13:52:10Z</time></trkpt><trkpt lat="44.181688759815295" lon="12.363913193821572"><ele>4.0</ele><time>2026-04-24T13:52:11Z</time></trkpt><trkpt lat="44.18158284010526" lon="12.364108643929029"><ele>3.6666666666666665</ele><time>2026-04-24T13:52:12Z</time></trkpt><trkpt lat="44.181473630370114" lon="12.364305670863375"><ele>3.333333333333333</ele><time>2026-04-24T13:52:13Z</time></trkpt><trkpt lat="44.18136586274296" lon="12.36450194426616"><ele>3.0</ele><time>2026-04-24T13:52:14Z</time></trkpt><trkpt lat="44.18125851116508" lon="12.364702876506026"><ele>3.0</ele><time>2026-04-24T13:52:15Z</time></trkpt><trkpt lat="44.181150958199275" lon="12.364907795486314"><ele>3.0</ele><time>2026-04-24T13:52:16Z</time></trkpt><trkpt lat="44.18104342620468" lon="12.365108323503641"><ele>3.0</ele><time>2026-04-24T13:52:17Z</time></trkpt><trkpt lat="44.180929943361974" lon="12.365308050219797"><ele>3.0</ele><time>2026-04-24T13:52:18Z</time></trkpt><trkpt lat="44.18081442174617" lon="12.365506219817904"><ele>3.0</ele><time>2026-04-24T13:52:19Z</time></trkpt><trkpt lat="44.18069958460593" lon="12.365702333222888"><ele>3.0</ele><time>2026-04-24T13:52:20Z</time></trkpt><trkpt lat="44.180576702571" lon="12.365892607830077"><ele>3.0</ele><time>2026-04-24T13:52:21Z</time></trkpt><trkpt lat="44.18045036376005" lon="12.366079808958876"><ele>3.0</ele><time>2026-04-24T13:52:22Z</time></trkpt><trkpt lat="44.1803176338613" lon="12.36625934135256"><ele>3.0</ele><time>2026-04-24T13:52:23Z</time></trkpt><trkpt lat="44.180181853160605" lon="12.366435268966796"><ele>3.0</ele><time>2026-04-24T13:52:24Z</time></trkpt><trkpt lat="44.18004715855471" lon="12.366613228581924"><ele>3.0</ele><time>2026-04-24T13:52:25Z</time></trkpt><trkpt lat="44.17991085221897" lon="12.366792689338746"><ele>3.0</ele><time>2026-04-24T13:52:26Z</time></trkpt><trkpt lat="44.179775415736145" lon="12.366970618116051"><ele>3.0</ele><time>2026-04-24T13:52:27Z</time></trkpt><trkpt lat="44.17964000566617" lon="12.367156036788387"><ele>3.0</ele><time>2026-04-24T13:52:28Z</time></trkpt><trkpt lat="44.17950595528777" lon="12.367340483815203"><ele>3.0</ele><time>2026-04-24T13:52:29Z</time></trkpt><trkpt lat="44.179373711442494" lon="12.367522592817474"><ele>3.0</ele><time>2026-04-24T13:52:30Z</time></trkpt><trkpt lat="44.1792383752311" lon="12.367703802750793"><ele>3.0</ele><time>2026-04-24T13:52:31Z</time></trkpt><trkpt lat="44.17910269289374" lon="12.367885286155696"><ele>3.0</ele><time>2026-04-24T13:52:32Z</time></trkpt><trkpt lat="44.17896762963063" lon="12.368065240788717"><ele>3.333333333333333</ele><time>2026-04-24T13:52:33Z</time></trkpt><trkpt lat="44.17883182435038" lon="12.368241902922676"><ele>3.6666666666666665</ele><time>2026-04-24T13:52:34Z</time></trkpt><trkpt lat="44.178696770796755" lon="12.36842185443362"><ele>4.0</ele><time>2026-04-24T13:52:35Z</time></trkpt><trkpt lat="44.17856194400179" lon="12.36860012320362"><ele>4.0</ele><time>2026-04-24T13:52:36Z</time></trkpt><trkpt lat="44.17842826257272" lon="12.36877834615978"><ele>4.0</ele><time>2026-04-24T13:52:37Z</time></trkpt><trkpt lat="44.17829296440273" lon="12.36895311676902"><ele>4.0</ele><time>2026-04-24T13:52:38Z</time></trkpt><trkpt lat="44.17816053272293" lon="12.36912405814738"><ele>4.333333333333333</ele><time>2026-04-24T13:52:39Z</time></trkpt><trkpt lat="44.178031978039606" lon="12.369300378604953"><ele>4.666666666666667</ele><time>2026-04-24T13:52:40Z</time></trkpt><trkpt lat="44.177905048669885" lon="12.369472330188017"><ele>5.0</ele><time>2026-04-24T13:52:41Z</time></trkpt><trkpt lat="44.17778938908076" lon="12.36963517376341"><ele>5.0</ele><time>2026-04-24T13:52:42Z</time></trkpt><trkpt lat="44.17767254174057" lon="12.369795013888567"><ele>5.0</ele><time>2026-04-24T13:52:43Z</time></trkpt><trkpt lat="44.1775545666311" lon="12.369956859725347"><ele>5.0</ele><time>2026-04-24T13:52:44Z</time></trkpt><trkpt lat="44.17743752061266" lon="12.370115181295992"><ele>6.0</ele><time>2026-04-24T13:52:45Z</time></trkpt><trkpt lat="44.17732842115002" lon="12.370260474692863"><ele>7.0</ele><time>2026-04-24T13:52:46Z</time></trkpt><trkpt lat="44.177228954890495" lon="12.370400689970547"><ele>8.0</ele><time>2026-04-24T13:52:47Z</time></trkpt><trkpt lat="44.177132607919184" lon="12.370534749258432"><ele>9.0</ele><time>2026-04-24T13:52:48Z</time></trkpt><trkpt lat="44.17703971373727" lon="12.370662726003543"><ele>9.0</ele><time>2026-04-24T13:52:49Z</time></trkpt><trkpt lat="44.17695394607841" lon="12.370783354852803"><ele>9.0</ele><time>2026-04-24T13:52:50Z</time></trkpt><trkpt lat="44.1768756792036" lon="12.37089073372964"><ele>9.0</ele><time>2026-04-24T13:52:51Z</time></trkpt><trkpt lat="44.17681115551804" lon="12.370976011606604"><ele>9.0</ele><time>2026-04-24T13:52:52Z</time></trkpt><trkpt lat="44.176764335115486" lon="12.37104130127647"><ele>9.0</ele><time>2026-04-24T13:52:53Z</time></trkpt><trkpt lat="44.176706930394886" lon="12.371134090405812"><ele>9.0</ele><time>2026-04-24T13:52:55Z</time></trkpt><trkpt lat="44.176638082066866" lon="12.371171979323512"><ele>9.0</ele><time>2026-04-24T13:52:59Z</time></trkpt><trkpt lat="44.17654671146986" lon="12.371253426373846"><ele>9.0</ele><time>2026-04-24T13:53:02Z</time></trkpt><trkpt lat="44.176490290001176" lon="12.37133821837565"><ele>9.0</ele><time>2026-04-24T13:53:03Z</time></trkpt><trkpt lat="44.17641524851616" lon="12.371418789541403"><ele>9.0</ele><time>2026-04-24T13:53:04Z</time></trkpt><trkpt lat="44.176312267987285" lon="12.371483436378634"><ele>8.5</ele><time>2026-04-24T13:53:05Z</time></trkpt><trkpt lat="44.17620286164484" lon="12.371584513440183"><ele>8.0</ele><time>2026-04-24T13:53:06Z</time></trkpt><trkpt lat="44.176091563752244" lon="12.371693342718839"><ele>7.5</ele><time>2026-04-24T13:53:07Z</time></trkpt><trkpt lat="44.17597367472106" lon="12.371824022591225"><ele>7.0</ele><time>2026-04-24T13:53:08Z</time></trkpt><trkpt lat="44.17584049012293" lon="12.37197171927392"><ele>7.0</ele><time>2026-04-24T13:53:09Z</time></trkpt><trkpt lat="44.17568302077629" lon="12.372114740877983"><ele>7.0</ele><time>2026-04-24T13:53:10Z</time></trkpt><trkpt lat="44.175522748948104" lon="12.372289264984397"><ele>7.0</ele><time>2026-04-24T13:53:11Z</time></trkpt><trkpt lat="44.1753680162849" lon="12.372457757252514"><ele>7.0</ele><time>2026-04-24T13:53:12Z</time></trkpt><trkpt lat="44.17522421682504" lon="12.372639071857327"><ele>7.0</ele><time>2026-04-24T13:53:13Z</time></trkpt><trkpt lat="44.175063796741775" lon="12.372800857067267"><ele>7.0</ele><time>2026-04-24T13:53:14Z</time></trkpt><trkpt lat="44.17491293347386" lon="12.372955764357346"><ele>7.0</ele><time>2026-04-24T13:53:15Z</time></trkpt><trkpt lat="44.17476322774629" lon="12.373115343816814"><ele>7.0</ele><time>2026-04-24T13:53:16Z</time></trkpt><trkpt lat="44.17461335425009" lon="12.37327633004441"><ele>7.0</ele><time>2026-04-24T13:53:17Z</time></trkpt><trkpt lat="44.174466017199094" lon="12.373438998359632"><ele>7.0</ele><time>2026-04-24T13:53:18Z</time></trkpt><trkpt lat="44.174319033389644" lon="12.373600799331843"><ele>7.0</ele><time>2026-04-24T13:53:19Z</time></trkpt><trkpt lat="44.174173456227145" lon="12.373764406112592"><ele>7.0</ele><time>2026-04-24T13:53:20Z</time></trkpt><trkpt lat="44.17402577114611" lon="12.373925319465995"><ele>6.666666666666667</ele><time>2026-04-24T13:53:21Z</time></trkpt><trkpt lat="44.1738786545519" lon="12.374084911717288"><ele>6.333333333333334</ele><time>2026-04-24T13:53:22Z</time></trkpt><trkpt lat="44.17372915287279" lon="12.37424398911666"><ele>6.0</ele><time>2026-04-24T13:53:23Z</time></trkpt><trkpt lat="44.17358411962971" lon="12.374406092241804"><ele>6.0</ele><time>2026-04-24T13:53:24Z</time></trkpt><trkpt lat="44.17343850248152" lon="12.374568441341268"><ele>6.0</ele><time>2026-04-24T13:53:25Z</time></trkpt><trkpt lat="44.17329356907909" lon="12.374724224728753"><ele>6.0</ele><time>2026-04-24T13:53:26Z</time></trkpt><trkpt lat="44.173151825101094" lon="12.37488482970671"><ele>5.0</ele><time>2026-04-24T13:53:27Z</time></trkpt><trkpt lat="44.173010341249224" lon="12.375048818151448"><ele>4.0</ele><time>2026-04-24T13:53:28Z</time></trkpt><trkpt lat="44.17286925295649" lon="12.375220710401315"><ele>3.0</ele><time>2026-04-24T13:53:29Z</time></trkpt><trkpt lat="44.17273240400153" lon="12.375391194038764"><ele>3.0</ele><time>2026-04-24T13:53:30Z</time></trkpt><trkpt lat="44.17259374174899" lon="12.375562244684723"><ele>3.0</ele><time>2026-04-24T13:53:31Z</time></trkpt><trkpt lat="44.17245492757197" lon="12.375733700787706"><ele>3.0</ele><time>2026-04-24T13:53:32Z</time></trkpt><trkpt lat="44.17231672967524" lon="12.37590719390269"><ele>3.0</ele><time>2026-04-24T13:53:33Z</time></trkpt><trkpt lat="44.17217996382593" lon="12.37608079671174"><ele>3.0</ele><time>2026-04-24T13:53:34Z</time></trkpt><trkpt lat="44.172042122596814" lon="12.376253246055823"><ele>3.0</ele><time>2026-04-24T13:53:35Z</time></trkpt><trkpt lat="44.17190537990246" lon="12.376422323184586"><ele>3.0</ele><time>2026-04-24T13:53:36Z</time></trkpt><trkpt lat="44.17176964576791" lon="12.376592795992138"><ele>3.0</ele><time>2026-04-24T13:53:37Z</time></trkpt><trkpt lat="44.17163538281443" lon="12.376761978418207"><ele>3.0</ele><time>2026-04-24T13:53:38Z</time></trkpt><trkpt lat="44.17150191871022" lon="12.376929847408167"><ele>3.0</ele><time>2026-04-24T13:53:39Z</time></trkpt><trkpt lat="44.17136910654974" lon="12.37709708053811"><ele>3.0</ele><time>2026-04-24T13:53:40Z</time></trkpt><trkpt lat="44.17123395987181" lon="12.377257729608358"><ele>3.0</ele><time>2026-04-24T13:53:41Z</time></trkpt><trkpt lat="44.17110156681348" lon="12.377419446669062"><ele>3.0</ele><time>2026-04-24T13:53:42Z</time></trkpt><trkpt lat="44.17096039878317" lon="12.377569050483501"><ele>3.0</ele><time>2026-04-24T13:53:43Z</time></trkpt><trkpt lat="44.17081287047762" lon="12.377695228065846"><ele>3.0</ele><time>2026-04-24T13:53:44Z</time></trkpt><trkpt lat="44.17064774112004" lon="12.377769272189877"><ele>3.333333333333333</ele><time>2026-04-24T13:53:45Z</time></trkpt><trkpt lat="44.17049116623747" lon="12.377849006331946"><ele>3.6666666666666665</ele><time>2026-04-24T13:53:46Z</time></trkpt><trkpt lat="44.17033163251977" lon="12.377929667425201"><ele>4.0</ele><time>2026-04-24T13:53:47Z</time></trkpt><trkpt lat="44.17018408420589" lon="12.378026141251107"><ele>4.0</ele><time>2026-04-24T13:53:48Z</time></trkpt><trkpt lat="44.170034457635076" lon="12.378094209100466"><ele>4.0</ele><time>2026-04-24T13:53:49Z</time></trkpt><trkpt lat="44.16989644914974" lon="12.37816518016785"><ele>4.0</ele><time>2026-04-24T13:53:50Z</time></trkpt><trkpt lat="44.16975672718032" lon="12.378239879905882"><ele>4.25</ele><time>2026-04-24T13:53:51Z</time></trkpt><trkpt lat="44.16962020351215" lon="12.378314175779705"><ele>4.5</ele><time>2026-04-24T13:53:52Z</time></trkpt><trkpt lat="44.16948667158892" lon="12.378388452543103"><ele>4.75</ele><time>2026-04-24T13:53:53Z</time></trkpt><trkpt lat="44.16935616950522" lon="12.37845825060378"><ele>5.0</ele><time>2026-04-24T13:53:54Z</time></trkpt><trkpt lat="44.16921781431627" lon="12.378526529041117"><ele>5.0</ele><time>2026-04-24T13:53:55Z</time></trkpt><trkpt lat="44.16907452537621" lon="12.378598126465494"><ele>5.0</ele><time>2026-04-24T13:53:56Z</time></trkpt><trkpt lat="44.1689303672966" lon="12.378674902700684"><ele>5.0</ele><time>2026-04-24T13:53:57Z</time></trkpt><trkpt lat="44.168782937173866" lon="12.37875465268856"><ele>5.0</ele><time>2026-04-24T13:53:58Z</time></trkpt><trkpt lat="44.16863153507143" lon="12.378834280516621"><ele>5.0</ele><time>2026-04-24T13:53:59Z</time></trkpt><trkpt lat="44.16848268165319" lon="12.378904956468405"><ele>5.0</ele><time>2026-04-24T13:54:00Z</time></trkpt><trkpt lat="44.16833320733032" lon="12.378984860626081"><ele>4.75</ele><time>2026-04-24T13:54:01Z</time></trkpt><trkpt lat="44.168189906917966" lon="12.379071976376569"><ele>4.5</ele><time>2026-04-24T13:54:02Z</time></trkpt><trkpt lat="44.16805398089719" lon="12.379155582342621"><ele>4.25</ele><time>2026-04-24T13:54:03Z</time></trkpt><trkpt lat="44.16793110853785" lon="12.379240559329746"><ele>4.0</ele><time>2026-04-24T13:54:04Z</time></trkpt><trkpt lat="44.16782164268484" lon="12.379325596889737"><ele>4.0</ele><time>2026-04-24T13:54:05Z</time></trkpt><trkpt lat="44.167719922429725" lon="12.37940355826926"><ele>4.0</ele><time>2026-04-24T13:54:06Z</time></trkpt><trkpt lat="44.167619637485245" lon="12.379469381750889"><ele>4.0</ele><time>2026-04-24T13:54:07Z</time></trkpt><trkpt lat="44.16752117148032" lon="12.379547149476943"><ele>4.0</ele><time>2026-04-24T13:54:08Z</time></trkpt><trkpt lat="44.167423179120206" lon="12.37961381475663"><ele>4.0</ele><time>2026-04-24T13:54:09Z</time></trkpt><trkpt lat="44.1673244352952" lon="12.379683174536591"><ele>4.0</ele><time>2026-04-24T13:54:10Z</time></trkpt><trkpt lat="44.16721973307251" lon="12.37976397847722"><ele>4.0</ele><time>2026-04-24T13:54:11Z</time></trkpt><trkpt lat="44.167103634908344" lon="12.37983783739057"><ele>4.0</ele><time>2026-04-24T13:54:12Z</time></trkpt><trkpt lat="44.16698385486119" lon="12.379923103480365"><ele>4.0</ele><time>2026-04-24T13:54:13Z</time></trkpt><trkpt lat="44.166855233106816" lon="12.380009487565554"><ele>4.0</ele><time>2026-04-24T13:54:14Z</time></trkpt><trkpt lat="44.1667274170582" lon="12.380104064366666"><ele>4.0</ele><time>2026-04-24T13:54:15Z</time></trkpt><trkpt lat="44.1665975569309" lon="12.380200037889992"><ele>4.0</ele><time>2026-04-24T13:54:16Z</time></trkpt><trkpt lat="44.166467551482484" lon="12.38029234465557"><ele>4.0</ele><time>2026-04-24T13:54:17Z</time></trkpt><trkpt lat="44.16633320666446" lon="12.380385596772081"><ele>4.0</ele><time>2026-04-24T13:54:18Z</time></trkpt><trkpt lat="44.16619977803408" lon="12.380477939635737"><ele>4.0</ele><time>2026-04-24T13:54:19Z</time></trkpt><trkpt lat="44.16606924156215" lon="12.380572527503771"><ele>4.0</ele><time>2026-04-24T13:54:20Z</time></trkpt><trkpt lat="44.1659427304794" lon="12.380669983393986"><ele>4.0</ele><time>2026-04-24T13:54:21Z</time></trkpt><trkpt lat="44.16582164254981" lon="12.38076637583837"><ele>4.5</ele><time>2026-04-24T13:54:22Z</time></trkpt><trkpt lat="44.165689240905365" lon="12.380834448640492"><ele>5.0</ele><time>2026-04-24T13:54:23Z</time></trkpt><trkpt lat="44.16557601499775" lon="12.380940266897671"><ele>5.5</ele><time>2026-04-24T13:54:24Z</time></trkpt><trkpt lat="44.165462211388316" lon="12.381017398482163"><ele>6.0</ele><time>2026-04-24T13:54:25Z</time></trkpt><trkpt lat="44.16535716316159" lon="12.381081537542661"><ele>6.0</ele><time>2026-04-24T13:54:26Z</time></trkpt><trkpt lat="44.16526178321879" lon="12.38115162433252"><ele>6.0</ele><time>2026-04-24T13:54:27Z</time></trkpt><trkpt lat="44.16516561294702" lon="12.38122229816316"><ele>6.0</ele><time>2026-04-24T13:54:28Z</time></trkpt><trkpt lat="44.165064443768316" lon="12.381301798476834"><ele>6.0</ele><time>2026-04-24T13:54:29Z</time></trkpt><trkpt lat="44.164956085674454" lon="12.381383876604199"><ele>5.75</ele><time>2026-04-24T13:54:30Z</time></trkpt><trkpt lat="44.16483805145616" lon="12.381463354713077"><ele>5.5</ele><time>2026-04-24T13:54:31Z</time></trkpt><trkpt lat="44.16471620538512" lon="12.381541236248312"><ele>5.25</ele><time>2026-04-24T13:54:32Z</time></trkpt><trkpt lat="44.1645883693284" lon="12.381628920454833"><ele>5.0</ele><time>2026-04-24T13:54:33Z</time></trkpt><trkpt lat="44.164453782278855" lon="12.381721715666673"><ele>5.0</ele><time>2026-04-24T13:54:34Z</time></trkpt><trkpt lat="44.164313661710246" lon="12.38182602821697"><ele>5.0</ele><time>2026-04-24T13:54:35Z</time></trkpt><trkpt lat="44.16417220207958" lon="12.381929748751778"><ele>5.0</ele><time>2026-04-24T13:54:36Z</time></trkpt><trkpt lat="44.16402680887151" lon="12.382039328970667"><ele>5.0</ele><time>2026-04-24T13:54:37Z</time></trkpt><trkpt lat="44.16387182829691" lon="12.38213243172216"><ele>5.0</ele><time>2026-04-24T13:54:38Z</time></trkpt><trkpt lat="44.1637193309247" lon="12.382241821635963"><ele>5.0</ele><time>2026-04-24T13:54:39Z</time></trkpt><trkpt lat="44.16355584203406" lon="12.382359325127442"><ele>5.0</ele><time>2026-04-24T13:54:40Z</time></trkpt><trkpt lat="44.163394008272114" lon="12.382476200553961"><ele>5.0</ele><time>2026-04-24T13:54:41Z</time></trkpt><trkpt lat="44.16325021738225" lon="12.382581575056037"><ele>5.0</ele><time>2026-04-24T13:54:42Z</time></trkpt><trkpt lat="44.16310996166367" lon="12.382682905466206"><ele>5.666666666666667</ele><time>2026-04-24T13:54:43Z</time></trkpt><trkpt lat="44.162961862483364" lon="12.38274894786656"><ele>6.333333333333334</ele><time>2026-04-24T13:54:44Z</time></trkpt><trkpt lat="44.16281063285937" lon="12.382771538751667"><ele>7.0</ele><time>2026-04-24T13:54:45Z</time></trkpt><trkpt lat="44.16267245361307" lon="12.382817681836558"><ele>7.0</ele><time>2026-04-24T13:54:46Z</time></trkpt><trkpt lat="44.16253406734573" lon="12.382841327689476"><ele>7.0</ele><time>2026-04-24T13:54:47Z</time></trkpt><trkpt lat="44.16238744006859" lon="12.382861899142329"><ele>7.0</ele><time>2026-04-24T13:54:48Z</time></trkpt><trkpt lat="44.16223825056788" lon="12.382886440689955"><ele>7.0</ele><time>2026-04-24T13:54:49Z</time></trkpt><trkpt lat="44.162084355826316" lon="12.38290989023912"><ele>7.333333333333334</ele><time>2026-04-24T13:54:50Z</time></trkpt><trkpt lat="44.161925119369826" lon="12.382934476600733"><ele>7.666666666666666</ele><time>2026-04-24T13:54:51Z</time></trkpt><trkpt lat="44.16176104880355" lon="12.38295718798598"><ele>8.0</ele><time>2026-04-24T13:54:52Z</time></trkpt><trkpt lat="44.16159296553366" lon="12.382981560697674"><ele>7.666666666666666</ele><time>2026-04-24T13:54:53Z</time></trkpt><trkpt lat="44.16142907835724" lon="12.383000976327486"><ele>7.333333333333334</ele><time>2026-04-24T13:54:54Z</time></trkpt><trkpt lat="44.161270586439876" lon="12.38301829320272"><ele>7.0</ele><time>2026-04-24T13:54:55Z</time></trkpt><trkpt lat="44.161115274713666" lon="12.383039199540603"><ele>6.666666666666667</ele><time>2026-04-24T13:54:56Z</time></trkpt><trkpt lat="44.16096120165358" lon="12.383056408540481"><ele>6.333333333333334</ele><time>2026-04-24T13:54:57Z</time></trkpt><trkpt lat="44.16080717530508" lon="12.383076849086352"><ele>6.0</ele><time>2026-04-24T13:54:58Z</time></trkpt><trkpt lat="44.16065449999197" lon="12.383099116274773"><ele>6.0</ele><time>2026-04-24T13:54:59Z</time></trkpt><trkpt lat="44.16050253882618" lon="12.383126702728887"><ele>6.0</ele><time>2026-04-24T13:55:00Z</time></trkpt><trkpt lat="44.16036201337374" lon="12.383149647806214"><ele>6.0</ele><time>2026-04-24T13:55:01Z</time></trkpt><trkpt lat="44.16023231836123" lon="12.383171461240424"><ele>6.0</ele><time>2026-04-24T13:55:02Z</time></trkpt><trkpt lat="44.16010839138071" lon="12.383188741641954"><ele>6.0</ele><time>2026-04-24T13:55:03Z</time></trkpt><trkpt lat="44.159990171832014" lon="12.383203668476236"><ele>6.0</ele><time>2026-04-24T13:55:04Z</time></trkpt><trkpt lat="44.15988594620505" lon="12.383220812718545"><ele>6.0</ele><time>2026-04-24T13:55:05Z</time></trkpt><trkpt lat="44.15979228370996" lon="12.383235486503935"><ele>6.0</ele><time>2026-04-24T13:55:06Z</time></trkpt><trkpt lat="44.159709528702656" lon="12.383246997283152"><ele>6.0</ele><time>2026-04-24T13:55:07Z</time></trkpt><trkpt lat="44.15959889976247" lon="12.38325265488339"><ele>6.4</ele><time>2026-04-24T13:55:09Z</time></trkpt><trkpt lat="44.159532817159224" lon="12.383253670947363"><ele>6.8</ele><time>2026-04-24T13:55:12Z</time></trkpt><trkpt lat="44.15942262287405" lon="12.383266080354511"><ele>7.200000000000001</ele><time>2026-04-24T13:55:15Z</time></trkpt><trkpt lat="44.159284691978684" lon="12.38326220504288"><ele>7.6000000000000005</ele><time>2026-04-24T13:55:17Z</time></trkpt><trkpt lat="44.159216286120454" lon="12.383267328851343"><ele>8.0</ele><time>2026-04-24T13:55:18Z</time></trkpt><trkpt lat="44.15914493789751" lon="12.383274102800655"><ele>8.0</ele><time>2026-04-24T13:55:19Z</time></trkpt><trkpt lat="44.15905682007707" lon="12.383282286609118"><ele>8.0</ele><time>2026-04-24T13:55:20Z</time></trkpt><trkpt lat="44.15895507420741" lon="12.383290276377902"><ele>8.0</ele><time>2026-04-24T13:55:21Z</time></trkpt><trkpt lat="44.15883624365272" lon="12.383294666509359"><ele>8.0</ele><time>2026-04-24T13:55:22Z</time></trkpt><trkpt lat="44.158683526187474" lon="12.383300165054818"><ele>7.75</ele><time>2026-04-24T13:55:23Z</time></trkpt><trkpt lat="44.158533523342854" lon="12.383315106830004"><ele>7.5</ele><time>2026-04-24T13:55:24Z</time></trkpt><trkpt lat="44.15838433355595" lon="12.383337788421874"><ele>7.25</ele><time>2026-04-24T13:55:25Z</time></trkpt><trkpt lat="44.15825492130959" lon="12.383375792877146"><ele>7.0</ele><time>2026-04-24T13:55:26Z</time></trkpt><trkpt lat="44.158128761719304" lon="12.383400515573781"><ele>7.0</ele><time>2026-04-24T13:55:27Z</time></trkpt><trkpt lat="44.15800907898845" lon="12.383433357596065"><ele>7.0</ele><time>2026-04-24T13:55:28Z</time></trkpt><trkpt lat="44.157902752860885" lon="12.38346818773385"><ele>7.0</ele><time>2026-04-24T13:55:29Z</time></trkpt><trkpt lat="44.15777336979268" lon="12.383508295032485"><ele>7.0</ele><time>2026-04-24T13:55:30Z</time></trkpt><trkpt lat="44.15765126389475" lon="12.383562275623229"><ele>7.0</ele><time>2026-04-24T13:55:31Z</time></trkpt><trkpt lat="44.1575312200442" lon="12.383599991255318"><ele>7.0</ele><time>2026-04-24T13:55:32Z</time></trkpt><trkpt lat="44.15741111186861" lon="12.3836597597178"><ele>7.0</ele><time>2026-04-24T13:55:33Z</time></trkpt><trkpt lat="44.157284251478885" lon="12.383721098886824"><ele>7.0</ele><time>2026-04-24T13:55:34Z</time></trkpt><trkpt lat="44.15715761392559" lon="12.383777344229836"><ele>7.25</ele><time>2026-04-24T13:55:35Z</time></trkpt><trkpt lat="44.157027466915814" lon="12.383831469930588"><ele>7.5</ele><time>2026-04-24T13:55:36Z</time></trkpt><trkpt lat="44.156895176387856" lon="12.383890147577244"><ele>7.75</ele><time>2026-04-24T13:55:37Z</time></trkpt><trkpt lat="44.15676630591632" lon="12.383946443220806"><ele>8.0</ele><time>2026-04-24T13:55:38Z</time></trkpt><trkpt lat="44.15663733912385" lon="12.384001066428338"><ele>8.0</ele><time>2026-04-24T13:55:39Z</time></trkpt><trkpt lat="44.156511198718874" lon="12.384053022966967"><ele>8.0</ele><time>2026-04-24T13:55:40Z</time></trkpt><trkpt lat="44.156402978435395" lon="12.384095725650564"><ele>8.0</ele><time>2026-04-24T13:55:41Z</time></trkpt><trkpt lat="44.156294930003895" lon="12.38412302652683"><ele>8.0</ele><time>2026-04-24T13:55:42Z</time></trkpt><trkpt lat="44.156192337774186" lon="12.384145591283206"><ele>7.999999999999999</ele><time>2026-04-24T13:55:43Z</time></trkpt><trkpt lat="44.15609620006525" lon="12.384156439759982"><ele>8.0</ele><time>2026-04-24T13:55:44Z</time></trkpt><trkpt lat="44.156004666944064" lon="12.38416018111012"><ele>8.0</ele><time>2026-04-24T13:55:45Z</time></trkpt><trkpt lat="44.15591887181892" lon="12.384160235409325"><ele>8.0</ele><time>2026-04-24T13:55:46Z</time></trkpt><trkpt lat="44.15584284652731" lon="12.384160115243434"><ele>7.999999999999999</ele><time>2026-04-24T13:55:47Z</time></trkpt><trkpt lat="44.155748708197066" lon="12.384162152295387"><ele>8.0</ele><time>2026-04-24T13:55:49Z</time></trkpt><trkpt lat="44.15566708348041" lon="12.384138630098741"><ele>8.25</ele><time>2026-04-24T13:55:52Z</time></trkpt><trkpt lat="44.15557179258053" lon="12.384114143293067"><ele>8.5</ele><time>2026-04-24T13:55:54Z</time></trkpt><trkpt lat="44.15541191823713" lon="12.384113724661113"><ele>8.75</ele><time>2026-04-24T13:55:56Z</time></trkpt><trkpt lat="44.15529942484235" lon="12.38410846530966"><ele>9.0</ele><time>2026-04-24T13:55:57Z</time></trkpt><trkpt lat="44.15516869067693" lon="12.384090466818849"><ele>9.0</ele><time>2026-04-24T13:55:58Z</time></trkpt><trkpt lat="44.15502398084807" lon="12.384057593993084"><ele>9.0</ele><time>2026-04-24T13:55:59Z</time></trkpt><trkpt lat="44.15487606321845" lon="12.384015599189738"><ele>9.0</ele><time>2026-04-24T13:56:00Z</time></trkpt><trkpt lat="44.154732591250486" lon="12.383974969419148"><ele>9.0</ele><time>2026-04-24T13:56:01Z</time></trkpt><trkpt lat="44.15458096409922" lon="12.38394662290256"><ele>9.0</ele><time>2026-04-24T13:56:02Z</time></trkpt><trkpt lat="44.15443501326442" lon="12.383928456793981"><ele>9.0</ele><time>2026-04-24T13:56:03Z</time></trkpt><trkpt lat="44.15428622819851" lon="12.383900319380027"><ele>9.0</ele><time>2026-04-24T13:56:04Z</time></trkpt><trkpt lat="44.15413389943516" lon="12.383881784099186"><ele>9.0</ele><time>2026-04-24T13:56:05Z</time></trkpt><trkpt lat="44.153987583319214" lon="12.383863175033134"><ele>9.0</ele><time>2026-04-24T13:56:06Z</time></trkpt><trkpt lat="44.153841006581196" lon="12.383842232446398"><ele>9.0</ele><time>2026-04-24T13:56:07Z</time></trkpt><trkpt lat="44.153701677194" lon="12.383814824758284"><ele>9.0</ele><time>2026-04-24T13:56:08Z</time></trkpt><trkpt lat="44.15356704517028" lon="12.383795299217555"><ele>8.6</ele><time>2026-04-24T13:56:09Z</time></trkpt><trkpt lat="44.15344215855208" lon="12.383776594210318"><ele>8.2</ele><time>2026-04-24T13:56:10Z</time></trkpt><trkpt lat="44.15332311476687" lon="12.38376022833017"><ele>7.799999999999999</ele><time>2026-04-24T13:56:11Z</time></trkpt><trkpt lat="44.15321525896721" lon="12.383741921070406"><ele>7.3999999999999995</ele><time>2026-04-24T13:56:12Z</time></trkpt><trkpt lat="44.153121682492234" lon="12.38372312767512"><ele>7.0</ele><time>2026-04-24T13:56:13Z</time></trkpt><trkpt lat="44.153042091330946" lon="12.38370226884296"><ele>7.0</ele><time>2026-04-24T13:56:14Z</time></trkpt><trkpt lat="44.15297749485064" lon="12.383685878732626"><ele>6.999999999999999</ele><time>2026-04-24T13:56:15Z</time></trkpt><trkpt lat="44.15291434150334" lon="12.383692600458684"><ele>6.999999999999999</ele><time>2026-04-24T13:56:17Z</time></trkpt><trkpt lat="44.15292766668356" lon="12.383839820505862"><ele>7.0</ele><time>2026-04-24T13:56:18Z</time></trkpt><trkpt lat="44.153057637348006" lon="12.38395560407443"><ele>7.0</ele><time>2026-04-24T13:56:20Z</time></trkpt><trkpt lat="44.15316546670905" lon="12.383994326212603"><ele>7.5</ele><time>2026-04-24T13:56:21Z</time></trkpt><trkpt lat="44.15326900461155" lon="12.384049445812778"><ele>8.0</ele><time>2026-04-24T13:56:22Z</time></trkpt><trkpt lat="44.15338642264178" lon="12.384120070419396"><ele>8.5</ele><time>2026-04-24T13:56:23Z</time></trkpt><trkpt lat="44.15350935499587" lon="12.384198560334854"><ele>9.0</ele><time>2026-04-24T13:56:24Z</time></trkpt><trkpt lat="44.153639591834484" lon="12.384280246330489"><ele>9.0</ele><time>2026-04-24T13:56:25Z</time></trkpt><trkpt lat="44.15378048919993" lon="12.384361037660794"><ele>9.0</ele><time>2026-04-24T13:56:26Z</time></trkpt><trkpt lat="44.1539290050268" lon="12.384442978088096"><ele>9.0</ele><time>2026-04-24T13:56:27Z</time></trkpt><trkpt lat="44.154066172425665" lon="12.38452568115765"><ele>9.0</ele><time>2026-04-24T13:56:28Z</time></trkpt><trkpt lat="44.15419139551899" lon="12.384596867396333"><ele>9.0</ele><time>2026-04-24T13:56:29Z</time></trkpt><trkpt lat="44.15430553192544" lon="12.384659148122953"><ele>9.0</ele><time>2026-04-24T13:56:30Z</time></trkpt><trkpt lat="44.154407572887315" lon="12.384718749031768"><ele>9.0</ele><time>2026-04-24T13:56:31Z</time></trkpt><trkpt lat="44.15449183576801" lon="12.384777491346794"><ele>8.833333333333334</ele><time>2026-04-24T13:56:32Z</time></trkpt><trkpt lat="44.154569885317336" lon="12.384825508529262"><ele>8.666666666666666</ele><time>2026-04-24T13:56:33Z</time></trkpt><trkpt lat="44.15463190286028" lon="12.384867110767075"><ele>8.5</ele><time>2026-04-24T13:56:34Z</time></trkpt><trkpt lat="44.154728258803964" lon="12.38497816759614"><ele>8.333333333333332</ele><time>2026-04-24T13:56:36Z</time></trkpt><trkpt lat="44.154783267997956" lon="12.385054841275664"><ele>8.166666666666666</ele><time>2026-04-24T13:56:37Z</time></trkpt><trkpt lat="44.154837301350625" lon="12.38514664290262"><ele>8.0</ele><time>2026-04-24T13:56:38Z</time></trkpt><trkpt lat="44.15487995571349" lon="12.385272569059746"><ele>8.0</ele><time>2026-04-24T13:56:39Z</time></trkpt><trkpt lat="44.15490926193225" lon="12.385428680860615"><ele>8.0</ele><time>2026-04-24T13:56:40Z</time></trkpt><trkpt lat="44.15494550175451" lon="12.3856036646215"><ele>8.0</ele><time>2026-04-24T13:56:41Z</time></trkpt><trkpt lat="44.15501193219716" lon="12.385783208132736"><ele>8.0</ele><time>2026-04-24T13:56:42Z</time></trkpt><trkpt lat="44.155103787931914" lon="12.385959455158247"><ele>7.666666666666666</ele><time>2026-04-24T13:56:43Z</time></trkpt><trkpt lat="44.15520963448979" lon="12.386141067441146"><ele>7.333333333333334</ele><time>2026-04-24T13:56:44Z</time></trkpt><trkpt lat="44.15531575256347" lon="12.386331173394325"><ele>7.0</ele><time>2026-04-24T13:56:45Z</time></trkpt><trkpt lat="44.15542296942402" lon="12.386520829246049"><ele>7.0</ele><time>2026-04-24T13:56:46Z</time></trkpt><trkpt lat="44.15553045037659" lon="12.38672244562731"><ele>7.0</ele><time>2026-04-24T13:56:47Z</time></trkpt><trkpt lat="44.15563321768637" lon="12.38691179284759"><ele>7.0</ele><time>2026-04-24T13:56:48Z</time></trkpt><trkpt lat="44.155726833023095" lon="12.387088847855503"><ele>7.0</ele><time>2026-04-24T13:56:49Z</time></trkpt><trkpt lat="44.15579598420727" lon="12.38726772907001"><ele>7.0</ele><time>2026-04-24T13:56:50Z</time></trkpt><trkpt lat="44.15583051736246" lon="12.387481543461387"><ele>7.0</ele><time>2026-04-24T13:56:51Z</time></trkpt><trkpt lat="44.15586500875554" lon="12.38770458646742"><ele>7.0</ele><time>2026-04-24T13:56:52Z</time></trkpt><trkpt lat="44.155913380384014" lon="12.38793796913394"><ele>7.0</ele><time>2026-04-24T13:56:53Z</time></trkpt><trkpt lat="44.15594418556325" lon="12.388181022284952"><ele>7.0</ele><time>2026-04-24T13:56:54Z</time></trkpt><trkpt lat="44.155979070425516" lon="12.388432921405734"><ele>7.0</ele><time>2026-04-24T13:56:55Z</time></trkpt><trkpt lat="44.15601402745508" lon="12.388693036596589"><ele>7.0</ele><time>2026-04-24T13:56:56Z</time></trkpt><trkpt lat="44.15604903062794" lon="12.388956100231995"><ele>7.0</ele><time>2026-04-24T13:56:57Z</time></trkpt><trkpt lat="44.156090850257" lon="12.389221062040484"><ele>7.0</ele><time>2026-04-24T13:56:58Z</time></trkpt><trkpt lat="44.15613002401332" lon="12.38948673900623"><ele>7.0</ele><time>2026-04-24T13:56:59Z</time></trkpt><trkpt lat="44.15616735985772" lon="12.389754748316143"><ele>7.0</ele><time>2026-04-24T13:57:00Z</time></trkpt><trkpt lat="44.156204729596446" lon="12.39001512804675"><ele>7.0</ele><time>2026-04-24T13:57:01Z</time></trkpt><trkpt lat="44.15624219027544" lon="12.390274484198798"><ele>7.0</ele><time>2026-04-24T13:57:02Z</time></trkpt><trkpt lat="44.156279223422" lon="12.390531803530246"><ele>7.0</ele><time>2026-04-24T13:57:03Z</time></trkpt><trkpt lat="44.15631703213057" lon="12.390786910343353"><ele>7.0</ele><time>2026-04-24T13:57:04Z</time></trkpt><trkpt lat="44.15635495140472" lon="12.391040441620968"><ele>7.0</ele><time>2026-04-24T13:57:05Z</time></trkpt><trkpt lat="44.156392507503426" lon="12.391294816867832"><ele>7.0</ele><time>2026-04-24T13:57:06Z</time></trkpt><trkpt lat="44.156429887026256" lon="12.391537884685057"><ele>6.333333333333334</ele><time>2026-04-24T13:57:07Z</time></trkpt><trkpt lat="44.15646328839322" lon="12.391776564702429"><ele>5.666666666666667</ele><time>2026-04-24T13:57:08Z</time></trkpt><trkpt lat="44.15649667418082" lon="12.392001517404207"><ele>5.0</ele><time>2026-04-24T13:57:09Z</time></trkpt><trkpt lat="44.156530350749584" lon="12.392216681492041"><ele>5.333333333333334</ele><time>2026-04-24T13:57:10Z</time></trkpt><trkpt lat="44.15656324287699" lon="12.392434540914834"><ele>5.666666666666667</ele><time>2026-04-24T13:57:11Z</time></trkpt><trkpt lat="44.1565939563401" lon="12.392647590260257"><ele>6.0</ele><time>2026-04-24T13:57:12Z</time></trkpt><trkpt lat="44.15662212089873" lon="12.392847521350616"><ele>5.75</ele><time>2026-04-24T13:57:13Z</time></trkpt><trkpt lat="44.1566485743146" lon="12.393034538955412"><ele>5.5</ele><time>2026-04-24T13:57:14Z</time></trkpt><trkpt lat="44.15667077134868" lon="12.393208078148673"><ele>5.25</ele><time>2026-04-24T13:57:15Z</time></trkpt><trkpt lat="44.15668737676459" lon="12.393364366964832"><ele>5.0</ele><time>2026-04-24T13:57:16Z</time></trkpt><trkpt lat="44.1567078926554" lon="12.393508126506292"><ele>5.0</ele><time>2026-04-24T13:57:17Z</time></trkpt><trkpt lat="44.15672605749738" lon="12.393650502507393"><ele>5.0</ele><time>2026-04-24T13:57:18Z</time></trkpt><trkpt lat="44.156751392003464" lon="12.393810079015243"><ele>5.0</ele><time>2026-04-24T13:57:19Z</time></trkpt><trkpt lat="44.15672883334249" lon="12.393999832881983"><ele>5.0</ele><time>2026-04-24T13:57:20Z</time></trkpt><trkpt lat="44.15671033786066" lon="12.394217028539268"><ele>5.0</ele><time>2026-04-24T13:57:21Z</time></trkpt><trkpt lat="44.15668156640344" lon="12.394448625699003"><ele>5.0</ele><time>2026-04-24T13:57:22Z</time></trkpt><trkpt lat="44.156654216011056" lon="12.394701277106412"><ele>5.0</ele><time>2026-04-24T13:57:23Z</time></trkpt><trkpt lat="44.156628073076455" lon="12.394953713167522"><ele>5.0</ele><time>2026-04-24T13:57:24Z</time></trkpt><trkpt lat="44.15660172055626" lon="12.395194301575156"><ele>5.0</ele><time>2026-04-24T13:57:25Z</time></trkpt><trkpt lat="44.15658203832556" lon="12.395437227864477"><ele>5.0</ele><time>2026-04-24T13:57:26Z</time></trkpt><trkpt lat="44.15656834917591" lon="12.395688392709912"><ele>5.0</ele><time>2026-04-24T13:57:27Z</time></trkpt><trkpt lat="44.15655569739021" lon="12.395944475621977"><ele>5.0</ele><time>2026-04-24T13:57:28Z</time></trkpt><trkpt lat="44.156545509739125" lon="12.396196308179148"><ele>5.0</ele><time>2026-04-24T13:57:29Z</time></trkpt><trkpt lat="44.156532864113075" lon="12.396448849874659"><ele>5.0</ele><time>2026-04-24T13:57:30Z</time></trkpt><trkpt lat="44.1565219225244" lon="12.396706925471557"><ele>5.0</ele><time>2026-04-24T13:57:31Z</time></trkpt><trkpt lat="44.156510301341285" lon="12.39696613295804"><ele>5.0</ele><time>2026-04-24T13:57:32Z</time></trkpt><trkpt lat="44.15649702235612" lon="12.397223000469657"><ele>4.666666666666667</ele><time>2026-04-24T13:57:33Z</time></trkpt><trkpt lat="44.15648412990022" lon="12.39747610208141"><ele>4.333333333333333</ele><time>2026-04-24T13:57:34Z</time></trkpt><trkpt lat="44.156474435955445" lon="12.397727473803458"><ele>4.0</ele><time>2026-04-24T13:57:35Z</time></trkpt><trkpt lat="44.15646270092582" lon="12.39797681095641"><ele>4.0</ele><time>2026-04-24T13:57:36Z</time></trkpt><trkpt lat="44.15645047978911" lon="12.39821922325975"><ele>4.0</ele><time>2026-04-24T13:57:37Z</time></trkpt><trkpt lat="44.15643545104163" lon="12.398456485977203"><ele>4.0</ele><time>2026-04-24T13:57:38Z</time></trkpt><trkpt lat="44.156419711953646" lon="12.39868546069698"><ele>4.333333333333333</ele><time>2026-04-24T13:57:39Z</time></trkpt><trkpt lat="44.156404432899905" lon="12.398906925958752"><ele>4.666666666666667</ele><time>2026-04-24T13:57:40Z</time></trkpt><trkpt lat="44.15639026218623" lon="12.399129596010226"><ele>5.0</ele><time>2026-04-24T13:57:41Z</time></trkpt><trkpt lat="44.15637606360762" lon="12.399358803498652"><ele>5.0</ele><time>2026-04-24T13:57:42Z</time></trkpt><trkpt lat="44.15635762421851" lon="12.399594762299401"><ele>5.0</ele><time>2026-04-24T13:57:43Z</time></trkpt><trkpt lat="44.156340855556024" lon="12.399834583204575"><ele>5.0</ele><time>2026-04-24T13:57:44Z</time></trkpt><trkpt lat="44.156325661899054" lon="12.400056200372985"><ele>4.666666666666667</ele><time>2026-04-24T13:57:45Z</time></trkpt><trkpt lat="44.15631097372465" lon="12.40026793381655"><ele>4.333333333333333</ele><time>2026-04-24T13:57:46Z</time></trkpt><trkpt lat="44.15629294464399" lon="12.40047456254622"><ele>4.0</ele><time>2026-04-24T13:57:47Z</time></trkpt><trkpt lat="44.15627419514167" lon="12.40067970059358"><ele>3.75</ele><time>2026-04-24T13:57:48Z</time></trkpt><trkpt lat="44.15625281325131" lon="12.400888489623116"><ele>3.5</ele><time>2026-04-24T13:57:49Z</time></trkpt><trkpt lat="44.15623221160963" lon="12.401092335038168"><ele>3.25</ele><time>2026-04-24T13:57:50Z</time></trkpt><trkpt lat="44.15621231821991" lon="12.401294728189553"><ele>3.0</ele><time>2026-04-24T13:57:51Z</time></trkpt><trkpt lat="44.15618837616458" lon="12.401495649357287"><ele>2.3333333333333335</ele><time>2026-04-24T13:57:52Z</time></trkpt><trkpt lat="44.15616351030032" lon="12.401699333611212"><ele>1.6666666666666665</ele><time>2026-04-24T13:57:53Z</time></trkpt><trkpt lat="44.15614098325945" lon="12.401906761771265"><ele>1.0</ele><time>2026-04-24T13:57:54Z</time></trkpt><trkpt lat="44.15611207441072" lon="12.402120852754194"><ele>1.3333333333333333</ele><time>2026-04-24T13:57:55Z</time></trkpt><trkpt lat="44.15608501408382" lon="12.402349633963842"><ele>1.6666666666666665</ele><time>2026-04-24T13:57:56Z</time></trkpt><trkpt lat="44.15605449547441" lon="12.402590711964075"><ele>2.0</ele><time>2026-04-24T13:57:57Z</time></trkpt><trkpt lat="44.15601739378547" lon="12.402830224121258"><ele>2.333333333333333</ele><time>2026-04-24T13:57:58Z</time></trkpt><trkpt lat="44.15597543540474" lon="12.40307823609741"><ele>2.6666666666666665</ele><time>2026-04-24T13:57:59Z</time></trkpt><trkpt lat="44.15592996039389" lon="12.403333268300688"><ele>3.0</ele><time>2026-04-24T13:58:00Z</time></trkpt><trkpt lat="44.15588743265443" lon="12.403588757469459"><ele>2.6666666666666665</ele><time>2026-04-24T13:58:01Z</time></trkpt><trkpt lat="44.15584516849379" lon="12.40384390264684"><ele>2.333333333333333</ele><time>2026-04-24T13:58:02Z</time></trkpt><trkpt lat="44.15580235688025" lon="12.404095850078322"><ele>2.0</ele><time>2026-04-24T13:58:03Z</time></trkpt><trkpt lat="44.15576280287319" lon="12.404344978934937"><ele>2.0</ele><time>2026-04-24T13:58:04Z</time></trkpt><trkpt lat="44.15572193269806" lon="12.404591269393752"><ele>2.0</ele><time>2026-04-24T13:58:05Z</time></trkpt><trkpt lat="44.155684031969" lon="12.404817730340282"><ele>2.0</ele><time>2026-04-24T13:58:06Z</time></trkpt><trkpt lat="44.15564775198493" lon="12.405031030597332"><ele>2.5</ele><time>2026-04-24T13:58:07Z</time></trkpt><trkpt lat="44.15561730895716" lon="12.40523070926647"><ele>3.0</ele><time>2026-04-24T13:58:08Z</time></trkpt><trkpt lat="44.15559032033934" lon="12.405412668722999"><ele>3.5</ele><time>2026-04-24T13:58:09Z</time></trkpt><trkpt lat="44.15556390631717" lon="12.405590009027637"><ele>4.0</ele><time>2026-04-24T13:58:10Z</time></trkpt><trkpt lat="44.155542264953446" lon="12.405755440449619"><ele>4.0</ele><time>2026-04-24T13:58:11Z</time></trkpt><trkpt lat="44.15553472988588" lon="12.405914649163446"><ele>4.0</ele><time>2026-04-24T13:58:12Z</time></trkpt><trkpt lat="44.155529318662325" lon="12.406063878284854"><ele>4.0</ele><time>2026-04-24T13:58:13Z</time></trkpt><trkpt lat="44.155527907387835" lon="12.40619346341669"><ele>4.0</ele><time>2026-04-24T13:58:14Z</time></trkpt><trkpt lat="44.15553456939688" lon="12.406313969845428"><ele>4.0</ele><time>2026-04-24T13:58:16Z</time></trkpt><trkpt lat="44.15553925949018" lon="12.406404016368475"><ele>3.9999999999999996</ele><time>2026-04-24T13:58:22Z</time></trkpt><trkpt lat="44.155528311059896" lon="12.406535465798857"><ele>4.0</ele><time>2026-04-24T13:58:24Z</time></trkpt><trkpt lat="44.15551783370278" lon="12.406643986384529"><ele>4.0</ele><time>2026-04-24T13:58:27Z</time></trkpt><trkpt lat="44.155496691077204" lon="12.406762233931984"><ele>4.0</ele><time>2026-04-24T13:58:29Z</time></trkpt><trkpt lat="44.15548815740598" lon="12.40685049985965"><ele>3.9999999999999996</ele><time>2026-04-24T13:58:30Z</time></trkpt><trkpt lat="44.155479775318874" lon="12.406976488549684"><ele>4.0</ele><time>2026-04-24T13:58:31Z</time></trkpt><trkpt lat="44.15547733022451" lon="12.407108960531602"><ele>4.0</ele><time>2026-04-24T13:58:32Z</time></trkpt><trkpt lat="44.155469762556805" lon="12.407248901115732"><ele>4.0</ele><time>2026-04-24T13:58:33Z</time></trkpt><trkpt lat="44.15545915353105" lon="12.407385250582971"><ele>4.0</ele><time>2026-04-24T13:58:34Z</time></trkpt><trkpt lat="44.15544351236327" lon="12.407515911862342"><ele>4.0</ele><time>2026-04-24T13:58:35Z</time></trkpt><trkpt lat="44.15542906986773" lon="12.407645708509255"><ele>4.0</ele><time>2026-04-24T13:58:36Z</time></trkpt><trkpt lat="44.155421156669746" lon="12.407781589557821"><ele>4.0</ele><time>2026-04-24T13:58:37Z</time></trkpt><trkpt lat="44.15540793653465" lon="12.407919520612584"><ele>4.0</ele><time>2026-04-24T13:58:38Z</time></trkpt><trkpt lat="44.15539289266295" lon="12.408058395167064"><ele>4.0</ele><time>2026-04-24T13:58:39Z</time></trkpt><trkpt lat="44.15537926204092" lon="12.408194791583792"><ele>4.0</ele><time>2026-04-24T13:58:40Z</time></trkpt><trkpt lat="44.15535829345305" lon="12.408331851113646"><ele>4.0</ele><time>2026-04-24T13:58:41Z</time></trkpt><trkpt lat="44.155332353184576" lon="12.408441848877318"><ele>4.4</ele><time>2026-04-24T13:58:42Z</time></trkpt><trkpt lat="44.15530964832678" lon="12.408528649110211"><ele>4.800000000000001</ele><time>2026-04-24T13:58:43Z</time></trkpt><trkpt lat="44.15527004285713" lon="12.408656287725286"><ele>5.199999999999999</ele><time>2026-04-24T13:58:45Z</time></trkpt><trkpt lat="44.15521196282705" lon="12.40872772299285"><ele>5.6</ele><time>2026-04-24T13:58:47Z</time></trkpt><trkpt lat="44.1551334987988" lon="12.408769804415108"><ele>6.0</ele><time>2026-04-24T13:58:49Z</time></trkpt><trkpt lat="44.155007531353" lon="12.408818644673392"><ele>6.0</ele><time>2026-04-24T13:58:51Z</time></trkpt><trkpt lat="44.15493801125234" lon="12.40880027450578"><ele>6.0</ele><time>2026-04-24T13:58:52Z</time></trkpt><trkpt lat="44.1548257134475" lon="12.409009506001388"><ele>6.0</ele><time>2026-04-24T13:58:54Z</time></trkpt><trkpt lat="44.15480406117554" lon="12.40913072791755"><ele>6.0</ele><time>2026-04-24T13:58:55Z</time></trkpt><trkpt lat="44.15483018782585" lon="12.40927350211046"><ele>5.75</ele><time>2026-04-24T13:58:56Z</time></trkpt><trkpt lat="44.154843480194536" lon="12.40942941293913"><ele>5.5</ele><time>2026-04-24T13:58:57Z</time></trkpt><trkpt lat="44.154874438735966" lon="12.409574175400095"><ele>5.25</ele><time>2026-04-24T13:58:58Z</time></trkpt><trkpt lat="44.15478147366812" lon="12.409699511243826"><ele>5.0</ele><time>2026-04-24T13:58:59Z</time></trkpt><trkpt lat="44.15470450245985" lon="12.409855860242436"><ele>4.666666666666667</ele><time>2026-04-24T13:59:00Z</time></trkpt><trkpt lat="44.15461855300043" lon="12.410026656726467"><ele>4.333333333333333</ele><time>2026-04-24T13:59:01Z</time></trkpt><trkpt lat="44.15453180773229" lon="12.41022526291232"><ele>4.0</ele><time>2026-04-24T13:59:02Z</time></trkpt><trkpt lat="44.15443090983375" lon="12.410426877365282"><ele>4.333333333333333</ele><time>2026-04-24T13:59:03Z</time></trkpt><trkpt lat="44.15433015866403" lon="12.41063065182345"><ele>4.666666666666667</ele><time>2026-04-24T13:59:04Z</time></trkpt><trkpt lat="44.15423041868183" lon="12.41084122064826"><ele>5.0</ele><time>2026-04-24T13:59:05Z</time></trkpt><trkpt lat="44.1541199070309" lon="12.411067301358075"><ele>4.333333333333334</ele><time>2026-04-24T13:59:06Z</time></trkpt><trkpt lat="44.154006557568984" lon="12.411300411912242"><ele>3.666666666666667</ele><time>2026-04-24T13:59:07Z</time></trkpt><trkpt lat="44.15389063710812" lon="12.411537754022046"><ele>3.0</ele><time>2026-04-24T13:59:08Z</time></trkpt><trkpt lat="44.15376881119939" lon="12.41178042050748"><ele>3.0</ele><time>2026-04-24T13:59:09Z</time></trkpt><trkpt lat="44.153648447413545" lon="12.41201666797273"><ele>3.0</ele><time>2026-04-24T13:59:10Z</time></trkpt><trkpt lat="44.15353161853307" lon="12.41224357356674"><ele>3.0</ele><time>2026-04-24T13:59:11Z</time></trkpt><trkpt lat="44.1534269385806" lon="12.412449554441363"><ele>3.0</ele><time>2026-04-24T13:59:12Z</time></trkpt><trkpt lat="44.15332837065336" lon="12.412642989432637"><ele>3.0</ele><time>2026-04-24T13:59:13Z</time></trkpt><trkpt lat="44.15324192035483" lon="12.41281593636146"><ele>3.0</ele><time>2026-04-24T13:59:14Z</time></trkpt><trkpt lat="44.153165883120586" lon="12.412987145968135"><ele>2.6666666666666665</ele><time>2026-04-24T13:59:15Z</time></trkpt><trkpt lat="44.15311001011076" lon="12.413178088083233"><ele>2.333333333333333</ele><time>2026-04-24T13:59:16Z</time></trkpt><trkpt lat="44.15306925081252" lon="12.413392852358736"><ele>2.0</ele><time>2026-04-24T13:59:17Z</time></trkpt><trkpt lat="44.153037328664446" lon="12.413629143583066"><ele>2.333333333333333</ele><time>2026-04-24T13:59:18Z</time></trkpt><trkpt lat="44.15300998706135" lon="12.413893015094184"><ele>2.6666666666666665</ele><time>2026-04-24T13:59:19Z</time></trkpt><trkpt lat="44.15298185945335" lon="12.414162811666827"><ele>3.0</ele><time>2026-04-24T13:59:20Z</time></trkpt><trkpt lat="44.15295041734215" lon="12.414436006591929"><ele>3.666666666666667</ele><time>2026-04-24T13:59:21Z</time></trkpt><trkpt lat="44.15291581106051" lon="12.414710736597007"><ele>4.333333333333334</ele><time>2026-04-24T13:59:22Z</time></trkpt><trkpt lat="44.15288197979131" lon="12.414985533038648"><ele>5.0</ele><time>2026-04-24T13:59:23Z</time></trkpt><trkpt lat="44.152850109052736" lon="12.415253386010658"><ele>5.333333333333334</ele><time>2026-04-24T13:59:24Z</time></trkpt><trkpt lat="44.15281770278828" lon="12.415497957315171"><ele>5.666666666666667</ele><time>2026-04-24T13:59:25Z</time></trkpt><trkpt lat="44.15278722887205" lon="12.415724808915755"><ele>6.0</ele><time>2026-04-24T13:59:26Z</time></trkpt><trkpt lat="44.15275756815678" lon="12.415936254393479"><ele>6.0</ele><time>2026-04-24T13:59:27Z</time></trkpt><trkpt lat="44.152739041433236" lon="12.416135203792633"><ele>6.0</ele><time>2026-04-24T13:59:28Z</time></trkpt><trkpt lat="44.15274209521256" lon="12.416313635021561"><ele>6.0</ele><time>2026-04-24T13:59:29Z</time></trkpt><trkpt lat="44.15274735129466" lon="12.416466018558415"><ele>6.0</ele><time>2026-04-24T13:59:30Z</time></trkpt><trkpt lat="44.15275216948158" lon="12.416589427531045"><ele>5.5</ele><time>2026-04-24T13:59:31Z</time></trkpt><trkpt lat="44.15276088916557" lon="12.416683663676533"><ele>5.0</ele><time>2026-04-24T13:59:32Z</time></trkpt><trkpt lat="44.152749255288576" lon="12.41679871871989"><ele>4.5</ele><time>2026-04-24T13:59:34Z</time></trkpt><trkpt lat="44.152672064748195" lon="12.416813790954992"><ele>4.0</ele><time>2026-04-24T13:59:36Z</time></trkpt><trkpt lat="44.152607498098405" lon="12.416789400190293"><ele>3.5</ele><time>2026-04-24T13:59:37Z</time></trkpt><trkpt lat="44.15255775858567" lon="12.416697092531253"><ele>3.0</ele><time>2026-04-24T13:59:38Z</time></trkpt><trkpt lat="44.152484557912324" lon="12.416628351645816"><ele>3.0</ele><time>2026-04-24T13:59:39Z</time></trkpt><trkpt lat="44.1524184522285" lon="12.416565635567581"><ele>3.0</ele><time>2026-04-24T13:59:40Z</time></trkpt><trkpt lat="44.15233047356708" lon="12.416508319385057"><ele>3.0</ele><time>2026-04-24T13:59:42Z</time></trkpt><trkpt lat="44.15227960219206" lon="12.416610908083252"><ele>3.0</ele><time>2026-04-24T13:59:43Z</time></trkpt><trkpt lat="44.15222426486074" lon="12.416760326965775"><ele>3.0</ele><time>2026-04-24T13:59:45Z</time></trkpt><trkpt lat="44.15218701244224" lon="12.41686715497341"><ele>3.0</ele><time>2026-04-24T13:59:47Z</time></trkpt><trkpt lat="44.15214616462295" lon="12.416943677633524"><ele>3.0</ele><time>2026-04-24T13:59:49Z</time></trkpt><trkpt lat="44.15208584959382" lon="12.417118053361246"><ele>3.0</ele><time>2026-04-24T13:59:51Z</time></trkpt><trkpt lat="44.15202882430553" lon="12.417271231859315"><ele>3.0</ele><time>2026-04-24T13:59:52Z</time></trkpt><trkpt lat="44.15195958239136" lon="12.417427087429335"><ele>3.0</ele><time>2026-04-24T13:59:53Z</time></trkpt><trkpt lat="44.15188378561251" lon="12.417591404129507"><ele>3.0</ele><time>2026-04-24T13:59:54Z</time></trkpt><trkpt lat="44.15180434523746" lon="12.4177671012486"><ele>3.0</ele><time>2026-04-24T13:59:55Z</time></trkpt><trkpt lat="44.1517303644459" lon="12.417930476811435"><ele>3.0</ele><time>2026-04-24T13:59:56Z</time></trkpt><trkpt lat="44.15165594508991" lon="12.418090887234566"><ele>3.25</ele><time>2026-04-24T13:59:57Z</time></trkpt><trkpt lat="44.15157400540205" lon="12.418254235729485"><ele>3.5</ele><time>2026-04-24T13:59:58Z</time></trkpt><trkpt lat="44.151484992324356" lon="12.4184262904319"><ele>3.75</ele><time>2026-04-24T13:59:59Z</time></trkpt><trkpt lat="44.1513998681331" lon="12.418600028488937"><ele>4.0</ele><time>2026-04-24T14:00:00Z</time></trkpt><trkpt lat="44.15131361286792" lon="12.418784248571228"><ele>3.333333333333333</ele><time>2026-04-24T14:00:01Z</time></trkpt><trkpt lat="44.151229773593016" lon="12.418961415835364"><ele>2.6666666666666665</ele><time>2026-04-24T14:00:02Z</time></trkpt><trkpt lat="44.15114703278179" lon="12.419149550163002"><ele>2.0</ele><time>2026-04-24T14:00:03Z</time></trkpt><trkpt lat="44.15105826171443" lon="12.419354787652832"><ele>2.0</ele><time>2026-04-24T14:00:04Z</time></trkpt><trkpt lat="44.15096370855621" lon="12.41956662555666"><ele>2.0</ele><time>2026-04-24T14:00:05Z</time></trkpt><trkpt lat="44.15086500121365" lon="12.419775787150456"><ele>2.0</ele><time>2026-04-24T14:00:06Z</time></trkpt><trkpt lat="44.15076499133623" lon="12.419983709316087"><ele>2.0</ele><time>2026-04-24T14:00:07Z</time></trkpt><trkpt lat="44.15066137665846" lon="12.420195463704605"><ele>2.0</ele><time>2026-04-24T14:00:08Z</time></trkpt><trkpt lat="44.15055596806772" lon="12.42040664413871"><ele>2.0</ele><time>2026-04-24T14:00:09Z</time></trkpt><trkpt lat="44.150450928903716" lon="12.42062045770226"><ele>2.0</ele><time>2026-04-24T14:00:10Z</time></trkpt><trkpt lat="44.15035137164025" lon="12.420833711448479"><ele>2.0</ele><time>2026-04-24T14:00:11Z</time></trkpt><trkpt lat="44.15024828051357" lon="12.421049437652263"><ele>2.0</ele><time>2026-04-24T14:00:12Z</time></trkpt><trkpt lat="44.15014618470439" lon="12.421264135635814"><ele>2.0</ele><time>2026-04-24T14:00:13Z</time></trkpt><trkpt lat="44.15004380747829" lon="12.421478419891995"><ele>2.0</ele><time>2026-04-24T14:00:14Z</time></trkpt><trkpt lat="44.14994247693163" lon="12.421693295076564"><ele>2.0</ele><time>2026-04-24T14:00:15Z</time></trkpt><trkpt lat="44.1498415572201" lon="12.421908499326532"><ele>1.6666666666666665</ele><time>2026-04-24T14:00:16Z</time></trkpt><trkpt lat="44.14973993951801" lon="12.422124689389733"><ele>1.3333333333333333</ele><time>2026-04-24T14:00:17Z</time></trkpt><trkpt lat="44.14964296581669" lon="12.422338218791305"><ele>1.0</ele><time>2026-04-24T14:00:18Z</time></trkpt><trkpt lat="44.14955314421525" lon="12.422541206413767"><ele>1.0</ele><time>2026-04-24T14:00:19Z</time></trkpt><trkpt lat="44.149467535080944" lon="12.422721393966574"><ele>1.0</ele><time>2026-04-24T14:00:20Z</time></trkpt><trkpt lat="44.149387480483206" lon="12.42289123202496"><ele>1.0</ele><time>2026-04-24T14:00:21Z</time></trkpt><trkpt lat="44.1493066860239" lon="12.423063763082936"><ele>1.0</ele><time>2026-04-24T14:00:22Z</time></trkpt><trkpt lat="44.149222285187165" lon="12.423243476532381"><ele>1.0</ele><time>2026-04-24T14:00:23Z</time></trkpt><trkpt lat="44.14913251597119" lon="12.423433845753927"><ele>1.0</ele><time>2026-04-24T14:00:24Z</time></trkpt><trkpt lat="44.14904099101532" lon="12.423627716872565"><ele>1.0</ele><time>2026-04-24T14:00:25Z</time></trkpt><trkpt lat="44.148946352511324" lon="12.423824204895793"><ele>1.0</ele><time>2026-04-24T14:00:26Z</time></trkpt><trkpt lat="44.14885126289391" lon="12.424017620931576"><ele>1.0</ele><time>2026-04-24T14:00:27Z</time></trkpt><trkpt lat="44.1487624398334" lon="12.4242027277351"><ele>1.0</ele><time>2026-04-24T14:00:28Z</time></trkpt><trkpt lat="44.14868262460939" lon="12.424369135743342"><ele>1.0</ele><time>2026-04-24T14:00:29Z</time></trkpt><trkpt lat="44.148612003618084" lon="12.424518348144236"><ele>1.0</ele><time>2026-04-24T14:00:30Z</time></trkpt><trkpt lat="44.14855212193646" lon="12.424640857296357"><ele>1.0</ele><time>2026-04-24T14:00:31Z</time></trkpt><trkpt lat="44.148498272965604" lon="12.424746835333988"><ele>1.0</ele><time>2026-04-24T14:00:32Z</time></trkpt><trkpt lat="44.1484515708307" lon="12.424824864230544"><ele>1.0</ele><time>2026-04-24T14:00:33Z</time></trkpt><trkpt lat="44.14838317571117" lon="12.424900708972643"><ele>0.9999999999999999</ele><time>2026-04-24T14:00:35Z</time></trkpt><trkpt lat="44.14827577076146" lon="12.424938363199876"><ele>1.0</ele><time>2026-04-24T14:00:37Z</time></trkpt><trkpt lat="44.14819695288902" lon="12.424982486386517"><ele>1.0</ele><time>2026-04-24T14:00:38Z</time></trkpt><trkpt lat="44.14812023852379" lon="12.425050441037403"><ele>1.0</ele><time>2026-04-24T14:00:39Z</time></trkpt><trkpt lat="44.14808291604787" lon="12.425141423889372"><ele>0.9999999999999999</ele><time>2026-04-24T14:00:40Z</time></trkpt><trkpt lat="44.14809301380933" lon="12.425242246248482"><ele>1.0</ele><time>2026-04-24T14:00:41Z</time></trkpt><trkpt lat="44.14814212338837" lon="12.42533613338234"><ele>1.0</ele><time>2026-04-24T14:00:42Z</time></trkpt><trkpt lat="44.14816518149522" lon="12.425419712109608"><ele>1.0</ele><time>2026-04-24T14:00:43Z</time></trkpt><trkpt lat="44.14831878657352" lon="12.425456099396909"><ele>1.0</ele><time>2026-04-24T14:00:44Z</time></trkpt><trkpt lat="44.148436463770146" lon="12.425480274788585"><ele>1.0</ele><time>2026-04-24T14:00:45Z</time></trkpt><trkpt lat="44.14856740018354" lon="12.425501115343986"><ele>1.0</ele><time>2026-04-24T14:00:46Z</time></trkpt><trkpt lat="44.148693343587716" lon="12.42547746464655"><ele>1.0</ele><time>2026-04-24T14:00:47Z</time></trkpt><trkpt lat="44.148821154610175" lon="12.425623252637392"><ele>1.0</ele><time>2026-04-24T14:00:48Z</time></trkpt><trkpt lat="44.148924062421635" lon="12.425722799087648"><ele>1.0</ele><time>2026-04-24T14:00:49Z</time></trkpt><trkpt lat="44.14903606425116" lon="12.425848822841337"><ele>0.75</ele><time>2026-04-24T14:00:50Z</time></trkpt><trkpt lat="44.14914894730084" lon="12.425994442018217"><ele>0.5</ele><time>2026-04-24T14:00:51Z</time></trkpt><trkpt lat="44.14925490934027" lon="12.426119108436449"><ele>0.25</ele><time>2026-04-24T14:00:52Z</time></trkpt><trkpt lat="44.14934229631625" lon="12.426224561515468"><ele>0.0</ele><time>2026-04-24T14:00:53Z</time></trkpt><trkpt lat="44.14942214232261" lon="12.426319777658492"><ele>0.0</ele><time>2026-04-24T14:00:54Z</time></trkpt><trkpt lat="44.149491181584395" lon="12.42640136527952"><ele>0.0</ele><time>2026-04-24T14:00:55Z</time></trkpt><trkpt lat="44.14955783604161" lon="12.426480157361967"><ele>0.0</ele><time>2026-04-24T14:00:56Z</time></trkpt><trkpt lat="44.14963089944994" lon="12.426562673140987"><ele>0.0</ele><time>2026-04-24T14:00:57Z</time></trkpt><trkpt lat="44.14971048762329" lon="12.426652583581525"><ele>0.0</ele><time>2026-04-24T14:00:58Z</time></trkpt><trkpt lat="44.14979238649279" lon="12.426748926803581"><ele>0.0</ele><time>2026-04-24T14:00:59Z</time></trkpt><trkpt lat="44.1498836015948" lon="12.42686287876621"><ele>0.0</ele><time>2026-04-24T14:01:00Z</time></trkpt><trkpt lat="44.14998298920032" lon="12.426991942263706"><ele>0.0</ele><time>2026-04-24T14:01:01Z</time></trkpt><trkpt lat="44.15009287621185" lon="12.42712623001288"><ele>0.0</ele><time>2026-04-24T14:01:02Z</time></trkpt><trkpt lat="44.1502114638927" lon="12.427265568946682"><ele>0.0</ele><time>2026-04-24T14:01:03Z</time></trkpt><trkpt lat="44.15033204820681" lon="12.42740476054543"><ele>0.0</ele><time>2026-04-24T14:01:04Z</time></trkpt><trkpt lat="44.150454168235726" lon="12.427555070740322"><ele>0.0</ele><time>2026-04-24T14:01:05Z</time></trkpt><trkpt lat="44.1505800246232" lon="12.427702034906632"><ele>0.0</ele><time>2026-04-24T14:01:06Z</time></trkpt><trkpt lat="44.150702735970484" lon="12.42785105578639"><ele>0.0</ele><time>2026-04-24T14:01:07Z</time></trkpt><trkpt lat="44.15082727143612" lon="12.428005259936237"><ele>0.0</ele><time>2026-04-24T14:01:08Z</time></trkpt><trkpt lat="44.150953380223456" lon="12.428157968329645"><ele>0.3333333333333333</ele><time>2026-04-24T14:01:09Z</time></trkpt><trkpt lat="44.151075686981756" lon="12.428299997105547"><ele>0.6666666666666666</ele><time>2026-04-24T14:01:10Z</time></trkpt><trkpt lat="44.15120150986457" lon="12.428448919734674"><ele>1.0</ele><time>2026-04-24T14:01:11Z</time></trkpt><trkpt lat="44.151329880867905" lon="12.428596432895644"><ele>1.0</ele><time>2026-04-24T14:01:12Z</time></trkpt><trkpt lat="44.151451578558515" lon="12.428741170018336"><ele>1.0</ele><time>2026-04-24T14:01:13Z</time></trkpt><trkpt lat="44.151576711307044" lon="12.428886939041506"><ele>1.0</ele><time>2026-04-24T14:01:14Z</time></trkpt><trkpt lat="44.151699559359436" lon="12.42903350213886"><ele>1.0</ele><time>2026-04-24T14:01:15Z</time></trkpt><trkpt lat="44.15181624110354" lon="12.429180993021886"><ele>1.0</ele><time>2026-04-24T14:01:16Z</time></trkpt><trkpt lat="44.151931908678336" lon="12.429322690057761"><ele>1.0</ele><time>2026-04-24T14:01:17Z</time></trkpt><trkpt lat="44.152050697865846" lon="12.429461799139146"><ele>1.0</ele><time>2026-04-24T14:01:18Z</time></trkpt><trkpt lat="44.15217324299138" lon="12.42959948074867"><ele>1.0</ele><time>2026-04-24T14:01:19Z</time></trkpt><trkpt lat="44.15229916121616" lon="12.429736351975249"><ele>1.0</ele><time>2026-04-24T14:01:20Z</time></trkpt><trkpt lat="44.15241662827215" lon="12.429882559951814"><ele>1.3333333333333333</ele><time>2026-04-24T14:01:21Z</time></trkpt><trkpt lat="44.152537905518884" lon="12.430024684959179"><ele>1.6666666666666665</ele><time>2026-04-24T14:01:22Z</time></trkpt><trkpt lat="44.15265703147489" lon="12.430166889040125"><ele>2.0</ele><time>2026-04-24T14:01:23Z</time></trkpt><trkpt lat="44.15277368952114" lon="12.430316956211866"><ele>2.0</ele><time>2026-04-24T14:01:24Z</time></trkpt><trkpt lat="44.15289383536945" lon="12.43046347931662"><ele>2.0</ele><time>2026-04-24T14:01:25Z</time></trkpt><trkpt lat="44.153017034526016" lon="12.430618644226236"><ele>2.0</ele><time>2026-04-24T14:01:26Z</time></trkpt><trkpt lat="44.15313790487952" lon="12.430770257890087"><ele>1.6666666666666665</ele><time>2026-04-24T14:01:27Z</time></trkpt><trkpt lat="44.15326074059473" lon="12.430918650104289"><ele>1.3333333333333333</ele><time>2026-04-24T14:01:28Z</time></trkpt><trkpt lat="44.15338071141275" lon="12.431060444317946"><ele>1.0</ele><time>2026-04-24T14:01:29Z</time></trkpt><trkpt lat="44.153499584794005" lon="12.431205927533496"><ele>1.0</ele><time>2026-04-24T14:01:30Z</time></trkpt><trkpt lat="44.153619569986155" lon="12.431348192902512"><ele>1.0</ele><time>2026-04-24T14:01:31Z</time></trkpt><trkpt lat="44.153734763398674" lon="12.43147856479059"><ele>1.0</ele><time>2026-04-24T14:01:32Z</time></trkpt><trkpt lat="44.153848456772955" lon="12.431609231285025"><ele>1.0</ele><time>2026-04-24T14:01:33Z</time></trkpt><trkpt lat="44.153960118044765" lon="12.4317413716038"><ele>1.0</ele><time>2026-04-24T14:01:34Z</time></trkpt><trkpt lat="44.154068667392885" lon="12.431868735509637"><ele>1.0</ele><time>2026-04-24T14:01:35Z</time></trkpt><trkpt lat="44.15417688647746" lon="12.431999027401405"><ele>1.0</ele><time>2026-04-24T14:01:36Z</time></trkpt><trkpt lat="44.15428599715907" lon="12.432129778494362"><ele>0.75</ele><time>2026-04-24T14:01:37Z</time></trkpt><trkpt lat="44.154393891002265" lon="12.432264877669349"><ele>0.5</ele><time>2026-04-24T14:01:38Z</time></trkpt><trkpt lat="44.15450367453237" lon="12.43240081984174"><ele>0.25</ele><time>2026-04-24T14:01:39Z</time></trkpt><trkpt lat="44.15461053067652" lon="12.43252886718169"><ele>0.0</ele><time>2026-04-24T14:01:40Z</time></trkpt><trkpt lat="44.15471845045654" lon="12.432651588864685"><ele>0.0</ele><time>2026-04-24T14:01:41Z</time></trkpt><trkpt lat="44.15481582269107" lon="12.432765145626746"><ele>0.0</ele><time>2026-04-24T14:01:42Z</time></trkpt><trkpt lat="44.15490806161459" lon="12.432871619718393"><ele>0.0</ele><time>2026-04-24T14:01:43Z</time></trkpt><trkpt lat="44.15499056788618" lon="12.432966542467646"><ele>0.0</ele><time>2026-04-24T14:01:44Z</time></trkpt><trkpt lat="44.155068258080284" lon="12.433056686419974"><ele>0.16666666666666666</ele><time>2026-04-24T14:01:45Z</time></trkpt><trkpt lat="44.1551396687986" lon="12.433140145736278"><ele>0.3333333333333333</ele><time>2026-04-24T14:01:46Z</time></trkpt><trkpt lat="44.15520586278498" lon="12.433217357696982"><ele>0.5</ele><time>2026-04-24T14:01:47Z</time></trkpt><trkpt lat="44.15527084939891" lon="12.433288430890725"><ele>0.6666666666666666</ele><time>2026-04-24T14:01:48Z</time></trkpt><trkpt lat="44.155325439772916" lon="12.43335454975796"><ele>0.8333333333333333</ele><time>2026-04-24T14:01:49Z</time></trkpt><trkpt lat="44.155375049646054" lon="12.433422820476952"><ele>1.0</ele><time>2026-04-24T14:01:50Z</time></trkpt><trkpt lat="44.155459556773366" lon="12.433531671096334"><ele>1.0</ele><time>2026-04-24T14:01:52Z</time></trkpt><trkpt lat="44.155513279888964" lon="12.433654671476777"><ele>1.0</ele><time>2026-04-24T14:01:54Z</time></trkpt><trkpt lat="44.15555023879347" lon="12.433775535640157"><ele>1.0</ele><time>2026-04-24T14:01:56Z</time></trkpt><trkpt lat="44.15560695681724" lon="12.433965410682468"><ele>1.0</ele><time>2026-04-24T14:01:58Z</time></trkpt><trkpt lat="44.15563394502568" lon="12.434094530151151"><ele>1.0</ele><time>2026-04-24T14:01:59Z</time></trkpt><trkpt lat="44.15569540223079" lon="12.43417604058632"><ele>1.0</ele><time>2026-04-24T14:02:00Z</time></trkpt><trkpt lat="44.15576120788114" lon="12.434244764245074"><ele>1.0</ele><time>2026-04-24T14:02:01Z</time></trkpt><trkpt lat="44.15585699927056" lon="12.434284717682948"><ele>1.0</ele><time>2026-04-24T14:02:02Z</time></trkpt><trkpt lat="44.15595954566148" lon="12.434307295417824"><ele>1.0</ele><time>2026-04-24T14:02:03Z</time></trkpt><trkpt lat="44.15605664284327" lon="12.434331858601631"><ele>1.0</ele><time>2026-04-24T14:02:04Z</time></trkpt><trkpt lat="44.156147450961484" lon="12.434362619064686"><ele>1.0</ele><time>2026-04-24T14:02:05Z</time></trkpt><trkpt lat="44.15624441460079" lon="12.43442100487652"><ele>1.0</ele><time>2026-04-24T14:02:06Z</time></trkpt><trkpt lat="44.15634052333666" lon="12.434511481585584"><ele>1.0</ele><time>2026-04-24T14:02:07Z</time></trkpt><trkpt lat="44.15644073500292" lon="12.434628261334169"><ele>1.0</ele><time>2026-04-24T14:02:08Z</time></trkpt><trkpt lat="44.156545392378405" lon="12.434763236398327"><ele>1.3333333333333333</ele><time>2026-04-24T14:02:09Z</time></trkpt><trkpt lat="44.156666032971934" lon="12.434908261153414"><ele>1.6666666666666665</ele><time>2026-04-24T14:02:10Z</time></trkpt><trkpt lat="44.1567987311626" lon="12.435063193750409"><ele>2.0</ele><time>2026-04-24T14:02:11Z</time></trkpt><trkpt lat="44.156929981393866" lon="12.435223619206615"><ele>2.0</ele><time>2026-04-24T14:02:12Z</time></trkpt><trkpt lat="44.157050580712855" lon="12.435377910625032"><ele>2.0</ele><time>2026-04-24T14:02:13Z</time></trkpt><trkpt lat="44.15717027963198" lon="12.43553048733032"><ele>2.0</ele><time>2026-04-24T14:02:14Z</time></trkpt><trkpt lat="44.15728496868814" lon="12.435675563050888"><ele>1.6666666666666665</ele><time>2026-04-24T14:02:15Z</time></trkpt><trkpt lat="44.157398566453644" lon="12.435817098171116"><ele>1.3333333333333333</ele><time>2026-04-24T14:02:16Z</time></trkpt><trkpt lat="44.15751340926671" lon="12.435958596633782"><ele>1.0</ele><time>2026-04-24T14:02:17Z</time></trkpt><trkpt lat="44.157626234559835" lon="12.436100587863868"><ele>1.0</ele><time>2026-04-24T14:02:18Z</time></trkpt><trkpt lat="44.157741844646154" lon="12.436235634114581"><ele>1.0</ele><time>2026-04-24T14:02:19Z</time></trkpt><trkpt lat="44.157857482842914" lon="12.436366965304503"><ele>1.0</ele><time>2026-04-24T14:02:20Z</time></trkpt><trkpt lat="44.15797298211727" lon="12.436505594826178"><ele>1.0</ele><time>2026-04-24T14:02:21Z</time></trkpt><trkpt lat="44.15808762375431" lon="12.436641087914358"><ele>1.0</ele><time>2026-04-24T14:02:22Z</time></trkpt><trkpt lat="44.15820148460677" lon="12.436776867563944"><ele>1.0</ele><time>2026-04-24T14:02:23Z</time></trkpt><trkpt lat="44.15831038746423" lon="12.436906119392845"><ele>1.0</ele><time>2026-04-24T14:02:24Z</time></trkpt><trkpt lat="44.15841600499957" lon="12.437037042573136"><ele>1.0</ele><time>2026-04-24T14:02:25Z</time></trkpt><trkpt lat="44.15851952459395" lon="12.43716813143452"><ele>1.0</ele><time>2026-04-24T14:02:26Z</time></trkpt><trkpt lat="44.158622049015676" lon="12.437297354023533"><ele>1.0</ele><time>2026-04-24T14:02:27Z</time></trkpt><trkpt lat="44.15872155990058" lon="12.43742467766361"><ele>1.0</ele><time>2026-04-24T14:02:28Z</time></trkpt><trkpt lat="44.15881384081687" lon="12.43753861773044"><ele>1.0</ele><time>2026-04-24T14:02:29Z</time></trkpt><trkpt lat="44.15889655278438" lon="12.437636745725737"><ele>1.0</ele><time>2026-04-24T14:02:30Z</time></trkpt><trkpt lat="44.15897507189583" lon="12.437731166010698"><ele>1.0</ele><time>2026-04-24T14:02:31Z</time></trkpt><trkpt lat="44.15904490926018" lon="12.437819329601451"><ele>1.0</ele><time>2026-04-24T14:02:32Z</time></trkpt><trkpt lat="44.159119473107566" lon="12.437920097142923"><ele>1.0</ele><time>2026-04-24T14:02:33Z</time></trkpt><trkpt lat="44.1591943995519" lon="12.438023536942024"><ele>0.6666666666666666</ele><time>2026-04-24T14:02:34Z</time></trkpt><trkpt lat="44.15926119416333" lon="12.438129645909237"><ele>0.3333333333333333</ele><time>2026-04-24T14:02:35Z</time></trkpt><trkpt lat="44.15932361149791" lon="12.43822996743894"><ele>0.0</ele><time>2026-04-24T14:02:36Z</time></trkpt><trkpt lat="44.15936040619553" lon="12.438306665670787"><ele>-0.3333333333333333</ele><time>2026-04-24T14:02:37Z</time></trkpt><trkpt lat="44.159385299321954" lon="12.438411770262123"><ele>-0.6666666666666666</ele><time>2026-04-24T14:02:39Z</time></trkpt><trkpt lat="44.1593818062981" lon="12.438535004411296"><ele>-1.0</ele><time>2026-04-24T14:02:42Z</time></trkpt><trkpt lat="44.15940658774632" lon="12.438710001463704"><ele>-0.8</ele><time>2026-04-24T14:02:44Z</time></trkpt><trkpt lat="44.159416279995284" lon="12.438817612091459"><ele>-0.6000000000000001</ele><time>2026-04-24T14:02:45Z</time></trkpt><trkpt lat="44.159386291564616" lon="12.438942633739005"><ele>-0.4</ele><time>2026-04-24T14:02:46Z</time></trkpt><trkpt lat="44.15935987016612" lon="12.439065476891269"><ele>-0.2</ele><time>2026-04-24T14:02:47Z</time></trkpt><trkpt lat="44.159314231604505" lon="12.439188202269735"><ele>0.0</ele><time>2026-04-24T14:02:48Z</time></trkpt><trkpt lat="44.15925420299933" lon="12.439307831152849"><ele>0.0</ele><time>2026-04-24T14:02:49Z</time></trkpt><trkpt lat="44.15916152640014" lon="12.439396041583452"><ele>0.0</ele><time>2026-04-24T14:02:50Z</time></trkpt><trkpt lat="44.15908640830191" lon="12.439510659714495"><ele>0.0</ele><time>2026-04-24T14:02:51Z</time></trkpt><trkpt lat="44.1590125752346" lon="12.439623608311328"><ele>0.0</ele><time>2026-04-24T14:02:52Z</time></trkpt><trkpt lat="44.15893437359146" lon="12.439743238974916"><ele>0.0</ele><time>2026-04-24T14:02:53Z</time></trkpt><trkpt lat="44.1588618806934" lon="12.439869206833457"><ele>0.0</ele><time>2026-04-24T14:02:54Z</time></trkpt><trkpt lat="44.158782297437824" lon="12.439989016086969"><ele>0.0</ele><time>2026-04-24T14:02:55Z</time></trkpt><trkpt lat="44.15869790096575" lon="12.440103694002993"><ele>0.0</ele><time>2026-04-24T14:02:56Z</time></trkpt><trkpt lat="44.15860594825628" lon="12.44021949863199"><ele>0.0</ele><time>2026-04-24T14:02:57Z</time></trkpt><trkpt lat="44.158509111341964" lon="12.440336131670536"><ele>0.0</ele><time>2026-04-24T14:02:58Z</time></trkpt><trkpt lat="44.15841175524172" lon="12.440456561561733"><ele>0.0</ele><time>2026-04-24T14:02:59Z</time></trkpt><trkpt lat="44.15831362348197" lon="12.440579956852346"><ele>0.0</ele><time>2026-04-24T14:03:00Z</time></trkpt><trkpt lat="44.158215852690574" lon="12.440702550493118"><ele>0.0</ele><time>2026-04-24T14:03:01Z</time></trkpt><trkpt lat="44.15812076423112" lon="12.440823546016672"><ele>0.0</ele><time>2026-04-24T14:03:02Z</time></trkpt><trkpt lat="44.15802483786513" lon="12.440935480258018"><ele>0.0</ele><time>2026-04-24T14:03:03Z</time></trkpt><trkpt lat="44.157928246696514" lon="12.441046633332382"><ele>0.0</ele><time>2026-04-24T14:03:04Z</time></trkpt><trkpt lat="44.15782802101484" lon="12.441162538091355"><ele>0.0</ele><time>2026-04-24T14:03:05Z</time></trkpt><trkpt lat="44.15772743436116" lon="12.441283379397282"><ele>0.0</ele><time>2026-04-24T14:03:06Z</time></trkpt><trkpt lat="44.157630634547104" lon="12.441404893234443"><ele>0.0</ele><time>2026-04-24T14:03:07Z</time></trkpt><trkpt lat="44.157531017327344" lon="12.441524504268822"><ele>0.0</ele><time>2026-04-24T14:03:08Z</time></trkpt><trkpt lat="44.157427059924466" lon="12.441641343911524"><ele>0.0</ele><time>2026-04-24T14:03:09Z</time></trkpt><trkpt lat="44.15732739129385" lon="12.44175956151853"><ele>-0.2</ele><time>2026-04-24T14:03:10Z</time></trkpt><trkpt lat="44.15723906069459" lon="12.441867776016545"><ele>-0.4</ele><time>2026-04-24T14:03:11Z</time></trkpt><trkpt lat="44.15715793082732" lon="12.441966594738243"><ele>-0.6000000000000001</ele><time>2026-04-24T14:03:12Z</time></trkpt><trkpt lat="44.157082976410024" lon="12.442056048628283"><ele>-0.8</ele><time>2026-04-24T14:03:13Z</time></trkpt><trkpt lat="44.15700453295969" lon="12.442144224971575"><ele>-1.0</ele><time>2026-04-24T14:03:14Z</time></trkpt><trkpt lat="44.156926337176294" lon="12.44224501243762"><ele>-1.0</ele><time>2026-04-24T14:03:15Z</time></trkpt><trkpt lat="44.15683679065969" lon="12.442353922000361"><ele>-1.0</ele><time>2026-04-24T14:03:16Z</time></trkpt><trkpt lat="44.15674349640271" lon="12.442463763014015"><ele>-1.0</ele><time>2026-04-24T14:03:17Z</time></trkpt><trkpt lat="44.156645715948216" lon="12.442576344780734"><ele>-1.0</ele><time>2026-04-24T14:03:18Z</time></trkpt><trkpt lat="44.156550546296394" lon="12.442677217100876"><ele>-1.0</ele><time>2026-04-24T14:03:19Z</time></trkpt><trkpt lat="44.15646289773062" lon="12.442775105527819"><ele>-1.0</ele><time>2026-04-24T14:03:20Z</time></trkpt><trkpt lat="44.15638194139527" lon="12.442870751605307"><ele>-1.0</ele><time>2026-04-24T14:03:21Z</time></trkpt><trkpt lat="44.15630584467642" lon="12.442960908716561"><ele>-1.0</ele><time>2026-04-24T14:03:22Z</time></trkpt><trkpt lat="44.156224267909565" lon="12.443059550665248"><ele>-1.0</ele><time>2026-04-24T14:03:23Z</time></trkpt><trkpt lat="44.156137223024636" lon="12.443160994242142"><ele>-0.75</ele><time>2026-04-24T14:03:24Z</time></trkpt><trkpt lat="44.15604932096638" lon="12.443263006213126"><ele>-0.5</ele><time>2026-04-24T14:03:25Z</time></trkpt><trkpt lat="44.15595635097384" lon="12.44336451904134"><ele>-0.25</ele><time>2026-04-24T14:03:26Z</time></trkpt><trkpt lat="44.15586574107415" lon="12.443467258216343"><ele>0.0</ele><time>2026-04-24T14:03:27Z</time></trkpt><trkpt lat="44.155774459048914" lon="12.443575907444922"><ele>-0.25</ele><time>2026-04-24T14:03:28Z</time></trkpt><trkpt lat="44.155680489741066" lon="12.443691649809312"><ele>-0.5</ele><time>2026-04-24T14:03:29Z</time></trkpt><trkpt lat="44.15558541664485" lon="12.443809400697685"><ele>-0.75</ele><time>2026-04-24T14:03:30Z</time></trkpt><trkpt lat="44.15549160807304" lon="12.443928667415207"><ele>-1.0</ele><time>2026-04-24T14:03:31Z</time></trkpt><trkpt lat="44.15540109243497" lon="12.4440436449153"><ele>-1.0</ele><time>2026-04-24T14:03:32Z</time></trkpt><trkpt lat="44.15531478991995" lon="12.444156126615203"><ele>-1.0</ele><time>2026-04-24T14:03:33Z</time></trkpt><trkpt lat="44.155230160305535" lon="12.444269133505127"><ele>-1.0</ele><time>2026-04-24T14:03:34Z</time></trkpt><trkpt lat="44.155149237665235" lon="12.444376526289549"><ele>-1.0</ele><time>2026-04-24T14:03:35Z</time></trkpt><trkpt lat="44.15507348642015" lon="12.444475733649213"><ele>-1.0</ele><time>2026-04-24T14:03:36Z</time></trkpt><trkpt lat="44.1550049762578" lon="12.44456807616142"><ele>-1.0</ele><time>2026-04-24T14:03:37Z</time></trkpt><trkpt lat="44.1549452707192" lon="12.444631539736228"><ele>-1.0</ele><time>2026-04-24T14:03:38Z</time></trkpt><trkpt lat="44.15485642066472" lon="12.44472526113635"><ele>-1.0</ele><time>2026-04-24T14:03:40Z</time></trkpt><trkpt lat="44.15479348767127" lon="12.444801014373704"><ele>-1.0</ele><time>2026-04-24T14:03:41Z</time></trkpt><trkpt lat="44.154717100105884" lon="12.444886088232824"><ele>-0.75</ele><time>2026-04-24T14:03:42Z</time></trkpt><trkpt lat="44.15462649541986" lon="12.444980902542916"><ele>-0.5</ele><time>2026-04-24T14:03:43Z</time></trkpt><trkpt lat="44.154526421657955" lon="12.445081423879325"><ele>-0.25</ele><time>2026-04-24T14:03:44Z</time></trkpt><trkpt lat="44.1544171475883" lon="12.445190026347683"><ele>0.0</ele><time>2026-04-24T14:03:45Z</time></trkpt><trkpt lat="44.15430500709899" lon="12.44530107544071"><ele>0.0</ele><time>2026-04-24T14:03:46Z</time></trkpt><trkpt lat="44.15419856650665" lon="12.445420706130538"><ele>0.0</ele><time>2026-04-24T14:03:47Z</time></trkpt><trkpt lat="44.15409386888234" lon="12.445535389561515"><ele>0.0</ele><time>2026-04-24T14:03:48Z</time></trkpt><trkpt lat="44.15399245666695" lon="12.445647409210496"><ele>0.0</ele><time>2026-04-24T14:03:49Z</time></trkpt><trkpt lat="44.15389730838622" lon="12.445763066928315"><ele>0.25</ele><time>2026-04-24T14:03:50Z</time></trkpt><trkpt lat="44.15380062455625" lon="12.445880062587042"><ele>0.5</ele><time>2026-04-24T14:03:51Z</time></trkpt><trkpt lat="44.15370312700829" lon="12.445993898578863"><ele>0.75</ele><time>2026-04-24T14:03:52Z</time></trkpt><trkpt lat="44.153610987372474" lon="12.44610869598286"><ele>1.0</ele><time>2026-04-24T14:03:53Z</time></trkpt><trkpt lat="44.153514917693535" lon="12.44621936014682"><ele>1.2000000000000002</ele><time>2026-04-24T14:03:54Z</time></trkpt><trkpt lat="44.15341956024477" lon="12.446326753734745"><ele>1.4000000000000001</ele><time>2026-04-24T14:03:55Z</time></trkpt><trkpt lat="44.15333065464141" lon="12.44643044966677"><ele>1.6</ele><time>2026-04-24T14:03:56Z</time></trkpt><trkpt lat="44.153249749416375" lon="12.446520220709864"><ele>1.8</ele><time>2026-04-24T14:03:57Z</time></trkpt><trkpt lat="44.15316863092302" lon="12.446613270203146"><ele>2.0</ele><time>2026-04-24T14:03:58Z</time></trkpt><trkpt lat="44.15309012877848" lon="12.446695248153093"><ele>1.9999999999999998</ele><time>2026-04-24T14:03:59Z</time></trkpt><trkpt lat="44.153021673392715" lon="12.446760775989498"><ele>2.0</ele><time>2026-04-24T14:04:00Z</time></trkpt><trkpt lat="44.15295772162952" lon="12.446812238709967"><ele>2.0</ele><time>2026-04-24T14:04:01Z</time></trkpt><trkpt lat="44.15289754449191" lon="12.446856800074874"><ele>2.0</ele><time>2026-04-24T14:04:02Z</time></trkpt><trkpt lat="44.152827554052685" lon="12.446917619441173"><ele>1.9999999999999998</ele><time>2026-04-24T14:04:03Z</time></trkpt><trkpt lat="44.152748497025165" lon="12.447004891254043"><ele>2.0</ele><time>2026-04-24T14:04:04Z</time></trkpt><trkpt lat="44.15267432203551" lon="12.44712231532455"><ele>2.0</ele><time>2026-04-24T14:04:05Z</time></trkpt><trkpt lat="44.15259985963586" lon="12.447252797569963"><ele>2.0</ele><time>2026-04-24T14:04:06Z</time></trkpt><trkpt lat="44.15251899303316" lon="12.44737094832278"><ele>2.0</ele><time>2026-04-24T14:04:07Z</time></trkpt><trkpt lat="44.1524321478885" lon="12.44748961298599"><ele>2.0</ele><time>2026-04-24T14:04:08Z</time></trkpt><trkpt lat="44.15233988655083" lon="12.447604635206982"><ele>2.0</ele><time>2026-04-24T14:04:09Z</time></trkpt><trkpt lat="44.15224674778041" lon="12.447726085122358"><ele>2.0</ele><time>2026-04-24T14:04:10Z</time></trkpt><trkpt lat="44.152153366508266" lon="12.44784440000688"><ele>2.0</ele><time>2026-04-24T14:04:11Z</time></trkpt><trkpt lat="44.15206088917183" lon="12.447966653351699"><ele>2.0</ele><time>2026-04-24T14:04:12Z</time></trkpt><trkpt lat="44.151969778559625" lon="12.44809143612597"><ele>1.5</ele><time>2026-04-24T14:04:13Z</time></trkpt><trkpt lat="44.15188097217672" lon="12.448215556808456"><ele>1.0</ele><time>2026-04-24T14:04:14Z</time></trkpt><trkpt lat="44.15179259133056" lon="12.448342133908064"><ele>0.5</ele><time>2026-04-24T14:04:15Z</time></trkpt><trkpt lat="44.15169647387053" lon="12.448478547373167"><ele>0.0</ele><time>2026-04-24T14:04:16Z</time></trkpt><trkpt lat="44.15160158239054" lon="12.448620913512718"><ele>0.25</ele><time>2026-04-24T14:04:17Z</time></trkpt><trkpt lat="44.15150529149153" lon="12.448765425070318"><ele>0.5</ele><time>2026-04-24T14:04:18Z</time></trkpt><trkpt lat="44.15140922882297" lon="12.448904648826248"><ele>0.75</ele><time>2026-04-24T14:04:19Z</time></trkpt><trkpt lat="44.15131278124395" lon="12.449044110832697"><ele>1.0</ele><time>2026-04-24T14:04:20Z</time></trkpt><trkpt lat="44.15122120206399" lon="12.44917986461113"><ele>1.0</ele><time>2026-04-24T14:04:21Z</time></trkpt><trkpt lat="44.15113834842411" lon="12.449306298642679"><ele>1.0</ele><time>2026-04-24T14:04:22Z</time></trkpt><trkpt lat="44.1510615297004" lon="12.4494218986696"><ele>1.0</ele><time>2026-04-24T14:04:23Z</time></trkpt><trkpt lat="44.15099225813206" lon="12.449528537574752"><ele>1.0</ele><time>2026-04-24T14:04:24Z</time></trkpt><trkpt lat="44.15092570045633" lon="12.449628382022409"><ele>1.0</ele><time>2026-04-24T14:04:25Z</time></trkpt><trkpt lat="44.15085601632087" lon="12.449725319267202"><ele>0.8333333333333333</ele><time>2026-04-24T14:04:26Z</time></trkpt><trkpt lat="44.150788025867406" lon="12.449828880428376"><ele>0.6666666666666666</ele><time>2026-04-24T14:04:27Z</time></trkpt><trkpt lat="44.15072622369434" lon="12.449922632887784"><ele>0.5</ele><time>2026-04-24T14:04:28Z</time></trkpt><trkpt lat="44.1506693035966" lon="12.45000693076061"><ele>0.3333333333333333</ele><time>2026-04-24T14:04:29Z</time></trkpt><trkpt lat="44.15061736336399" lon="12.450084358235108"><ele>0.16666666666666666</ele><time>2026-04-24T14:04:30Z</time></trkpt><trkpt lat="44.15056106234467" lon="12.450148364392138"><ele>0.0</ele><time>2026-04-24T14:04:31Z</time></trkpt><trkpt lat="44.15050584706645" lon="12.450211629052907"><ele>0.0</ele><time>2026-04-24T14:04:32Z</time></trkpt><trkpt lat="44.15044533359612" lon="12.450283781062032"><ele>0.0</ele><time>2026-04-24T14:04:33Z</time></trkpt><trkpt lat="44.15038656470173" lon="12.450376695139761"><ele>0.0</ele><time>2026-04-24T14:04:34Z</time></trkpt><trkpt lat="44.150322859278546" lon="12.450479099750208"><ele>0.0</ele><time>2026-04-24T14:04:35Z</time></trkpt><trkpt lat="44.15024836130629" lon="12.450595401834228"><ele>0.0</ele><time>2026-04-24T14:04:36Z</time></trkpt><trkpt lat="44.15016419773833" lon="12.450720992109874"><ele>0.0</ele><time>2026-04-24T14:04:37Z</time></trkpt><trkpt lat="44.15007574835952" lon="12.450857033866026"><ele>0.0</ele><time>2026-04-24T14:04:38Z</time></trkpt><trkpt lat="44.149981368941646" lon="12.451002772725198"><ele>0.0</ele><time>2026-04-24T14:04:39Z</time></trkpt><trkpt lat="44.149879162597955" lon="12.451148050813655"><ele>0.0</ele><time>2026-04-24T14:04:40Z</time></trkpt><trkpt lat="44.14977478053882" lon="12.451299707006491"><ele>0.0</ele><time>2026-04-24T14:04:41Z</time></trkpt><trkpt lat="44.14966899837236" lon="12.451453205161801"><ele>0.0</ele><time>2026-04-24T14:04:42Z</time></trkpt><trkpt lat="44.14956445685839" lon="12.451610698603767"><ele>0.0</ele><time>2026-04-24T14:04:43Z</time></trkpt><trkpt lat="44.14946106464826" lon="12.451765402801355"><ele>0.0</ele><time>2026-04-24T14:04:44Z</time></trkpt><trkpt lat="44.14935882232687" lon="12.451917446115948"><ele>0.0</ele><time>2026-04-24T14:04:45Z</time></trkpt><trkpt lat="44.14925797256602" lon="12.452063037673062"><ele>0.0</ele><time>2026-04-24T14:04:46Z</time></trkpt><trkpt lat="44.149152123830824" lon="12.452205507745811"><ele>0.0</ele><time>2026-04-24T14:04:47Z</time></trkpt><trkpt lat="44.14906605374572" lon="12.452332839149202"><ele>0.0</ele><time>2026-04-24T14:04:48Z</time></trkpt><trkpt lat="44.14898978010458" lon="12.452448508281776"><ele>0.0</ele><time>2026-04-24T14:04:49Z</time></trkpt><trkpt lat="44.14892106482541" lon="12.452552808175657"><ele>0.0</ele><time>2026-04-24T14:04:50Z</time></trkpt><trkpt lat="44.148854940381916" lon="12.45265022017236"><ele>0.0</ele><time>2026-04-24T14:04:51Z</time></trkpt><trkpt lat="44.148791244583975" lon="12.452753174530073"><ele>0.0</ele><time>2026-04-24T14:04:52Z</time></trkpt><trkpt lat="44.14872911280494" lon="12.452853027022735"><ele>0.0</ele><time>2026-04-24T14:04:53Z</time></trkpt><trkpt lat="44.148666313689745" lon="12.452950195021371"><ele>0.0</ele><time>2026-04-24T14:04:54Z</time></trkpt><trkpt lat="44.14860434388503" lon="12.453048657534227"><ele>0.0</ele><time>2026-04-24T14:04:55Z</time></trkpt><trkpt lat="44.14854135031167" lon="12.45314440865922"><ele>0.0</ele><time>2026-04-24T14:04:56Z</time></trkpt><trkpt lat="44.14848002534243" lon="12.453233565180353"><ele>0.0</ele><time>2026-04-24T14:04:57Z</time></trkpt><trkpt lat="44.14842429479998" lon="12.453322008915842"><ele>0.3333333333333333</ele><time>2026-04-24T14:04:58Z</time></trkpt><trkpt lat="44.14837030193695" lon="12.453396369155502"><ele>0.6666666666666666</ele><time>2026-04-24T14:04:59Z</time></trkpt><trkpt lat="44.14832023447552" lon="12.45345828513202"><ele>1.0</ele><time>2026-04-24T14:05:00Z</time></trkpt><trkpt lat="44.14825542081309" lon="12.453547193329639"><ele>1.3333333333333333</ele><time>2026-04-24T14:05:02Z</time></trkpt><trkpt lat="44.14819593705916" lon="12.453661754202413"><ele>1.6666666666666665</ele><time>2026-04-24T14:05:14Z</time></trkpt><trkpt lat="44.14815314963996" lon="12.45373062840285"><ele>2.0</ele><time>2026-04-24T14:05:15Z</time></trkpt><trkpt lat="44.148083135853916" lon="12.453826373856426"><ele>2.0</ele><time>2026-04-24T14:05:16Z</time></trkpt><trkpt lat="44.148022088063904" lon="12.453909623985089"><ele>2.0</ele><time>2026-04-24T14:05:17Z</time></trkpt><trkpt lat="44.147948542056014" lon="12.454001784246099"><ele>2.0</ele><time>2026-04-24T14:05:18Z</time></trkpt><trkpt lat="44.147865588591344" lon="12.454091721748746"><ele>2.0</ele><time>2026-04-24T14:05:19Z</time></trkpt><trkpt lat="44.147784255012915" lon="12.454183428998514"><ele>2.0</ele><time>2026-04-24T14:05:20Z</time></trkpt><trkpt lat="44.147708731847764" lon="12.454262672936853"><ele>2.0</ele><time>2026-04-24T14:05:21Z</time></trkpt><trkpt lat="44.14763386966711" lon="12.454340003957153"><ele>2.0</ele><time>2026-04-24T14:05:22Z</time></trkpt><trkpt lat="44.14755583170445" lon="12.45441941525669"><ele>2.0</ele><time>2026-04-24T14:05:23Z</time></trkpt><trkpt lat="44.14747950964673" lon="12.454495553594407"><ele>2.0</ele><time>2026-04-24T14:05:24Z</time></trkpt><trkpt lat="44.147405706001614" lon="12.454561908287348"><ele>2.0</ele><time>2026-04-24T14:05:25Z</time></trkpt><trkpt lat="44.14732554585737" lon="12.454628733984858"><ele>1.8333333333333333</ele><time>2026-04-24T14:05:26Z</time></trkpt><trkpt lat="44.147247799429806" lon="12.454691863790003"><ele>1.6666666666666665</ele><time>2026-04-24T14:05:27Z</time></trkpt><trkpt lat="44.14717435113027" lon="12.454754324691939"><ele>1.5</ele><time>2026-04-24T14:05:28Z</time></trkpt><trkpt lat="44.14710871192294" lon="12.45480373942966"><ele>1.3333333333333333</ele><time>2026-04-24T14:05:29Z</time></trkpt><trkpt lat="44.147039561811326" lon="12.45486381428887"><ele>1.1666666666666665</ele><time>2026-04-24T14:05:30Z</time></trkpt><trkpt lat="44.146977412442425" lon="12.45491289797125"><ele>1.0</ele><time>2026-04-24T14:05:31Z</time></trkpt><trkpt lat="44.146923508299984" lon="12.45495892010255"><ele>0.9999999999999999</ele><time>2026-04-24T14:05:32Z</time></trkpt><trkpt lat="44.14684187109418" lon="12.455017660298365"><ele>1.0</ele><time>2026-04-24T14:05:34Z</time></trkpt><trkpt lat="44.14678130356918" lon="12.455053798980975"><ele>1.0</ele><time>2026-04-24T14:05:44Z</time></trkpt><trkpt lat="44.1466860968384" lon="12.455094982795607"><ele>1.0</ele><time>2026-04-24T14:05:46Z</time></trkpt><trkpt lat="44.146625475459196" lon="12.455131145442484"><ele>0.9999999999999999</ele><time>2026-04-24T14:05:47Z</time></trkpt><trkpt lat="44.14657232649754" lon="12.455193200050438"><ele>1.0</ele><time>2026-04-24T14:05:48Z</time></trkpt><trkpt lat="44.146529891126626" lon="12.455275830165487"><ele>1.2000000000000002</ele><time>2026-04-24T14:05:49Z</time></trkpt><trkpt lat="44.14649321791548" lon="12.455364979796087"><ele>1.4000000000000001</ele><time>2026-04-24T14:05:50Z</time></trkpt><trkpt lat="44.14644272456844" lon="12.455451418764195"><ele>1.6</ele><time>2026-04-24T14:05:51Z</time></trkpt><trkpt lat="44.14637388903924" lon="12.45553675058368"><ele>1.8</ele><time>2026-04-24T14:05:52Z</time></trkpt><trkpt lat="44.14621222955697" lon="12.455703380160255"><ele>2.0</ele><time>2026-04-24T14:05:54Z</time></trkpt><trkpt lat="44.14613863224325" lon="12.455776170848422"><ele>1.9999999999999998</ele><time>2026-04-24T14:05:55Z</time></trkpt><trkpt lat="44.14607755304946" lon="12.455842083030436"><ele>2.0</ele><time>2026-04-24T14:05:56Z</time></trkpt><trkpt lat="44.14602080136656" lon="12.455895741587078"><ele>2.0</ele><time>2026-04-24T14:05:57Z</time></trkpt><trkpt lat="44.14596280202435" lon="12.455945517083233"><ele>2.0</ele><time>2026-04-24T14:05:58Z</time></trkpt><trkpt lat="44.14589679292693" lon="12.4560106746762"><ele>1.9999999999999998</ele><time>2026-04-24T14:05:59Z</time></trkpt><trkpt lat="44.145824967461266" lon="12.456088199915921"><ele>2.0</ele><time>2026-04-24T14:06:00Z</time></trkpt><trkpt lat="44.14574600387588" lon="12.456168099202218"><ele>2.0</ele><time>2026-04-24T14:06:01Z</time></trkpt><trkpt lat="44.14566067056884" lon="12.456249173880687"><ele>2.0</ele><time>2026-04-24T14:06:02Z</time></trkpt><trkpt lat="44.14557229963937" lon="12.45633510584521"><ele>2.0</ele><time>2026-04-24T14:06:03Z</time></trkpt><trkpt lat="44.145478530885256" lon="12.456418867888656"><ele>2.0</ele><time>2026-04-24T14:06:04Z</time></trkpt><trkpt lat="44.14538658215238" lon="12.45650054262031"><ele>2.0</ele><time>2026-04-24T14:06:05Z</time></trkpt><trkpt lat="44.14529927486856" lon="12.456588144304103"><ele>2.0</ele><time>2026-04-24T14:06:06Z</time></trkpt><trkpt lat="44.1452122174388" lon="12.456676766732683"><ele>2.0</ele><time>2026-04-24T14:06:07Z</time></trkpt><trkpt lat="44.14512606699869" lon="12.45676162766153"><ele>2.0</ele><time>2026-04-24T14:06:08Z</time></trkpt><trkpt lat="44.145039729182656" lon="12.456841410056965"><ele>2.0</ele><time>2026-04-24T14:06:09Z</time></trkpt><trkpt lat="44.144953167783285" lon="12.45692057316879"><ele>2.0</ele><time>2026-04-24T14:06:10Z</time></trkpt><trkpt lat="44.14486725499628" lon="12.456996019411775"><ele>1.5</ele><time>2026-04-24T14:06:11Z</time></trkpt><trkpt lat="44.144772595950656" lon="12.457078758624071"><ele>1.0</ele><time>2026-04-24T14:06:12Z</time></trkpt><trkpt lat="44.14468031268641" lon="12.457170680452135"><ele>0.5</ele><time>2026-04-24T14:06:13Z</time></trkpt><trkpt lat="44.14458966592138" lon="12.457262814455708"><ele>0.0</ele><time>2026-04-24T14:06:14Z</time></trkpt><trkpt lat="44.14449306357129" lon="12.457349815570543"><ele>0.0</ele><time>2026-04-24T14:06:15Z</time></trkpt><trkpt lat="44.14439618560799" lon="12.457440881366455"><ele>0.0</ele><time>2026-04-24T14:06:16Z</time></trkpt><trkpt lat="44.14429921036599" lon="12.45754227061124"><ele>0.0</ele><time>2026-04-24T14:06:17Z</time></trkpt><trkpt lat="44.144195462819404" lon="12.457641574087534"><ele>0.0</ele><time>2026-04-24T14:06:18Z</time></trkpt><trkpt lat="44.14408701397804" lon="12.457746693062935"><ele>0.25</ele><time>2026-04-24T14:06:19Z</time></trkpt><trkpt lat="44.14397581091013" lon="12.457852150445554"><ele>0.5</ele><time>2026-04-24T14:06:20Z</time></trkpt><trkpt lat="44.14386582874208" lon="12.457955265745827"><ele>0.75</ele><time>2026-04-24T14:06:21Z</time></trkpt><trkpt lat="44.14376140402606" lon="12.458056034526072"><ele>1.0</ele><time>2026-04-24T14:06:22Z</time></trkpt><trkpt lat="44.143655774930366" lon="12.45815669062324"><ele>1.25</ele><time>2026-04-24T14:06:23Z</time></trkpt><trkpt lat="44.14354970824278" lon="12.458253921861765"><ele>1.5</ele><time>2026-04-24T14:06:24Z</time></trkpt><trkpt lat="44.143445988196554" lon="12.45835380636077"><ele>1.75</ele><time>2026-04-24T14:06:25Z</time></trkpt><trkpt lat="44.14335010642275" lon="12.458451184463588"><ele>2.0</ele><time>2026-04-24T14:06:26Z</time></trkpt><trkpt lat="44.14326139466101" lon="12.458541940070747"><ele>1.9999999999999998</ele><time>2026-04-24T14:06:27Z</time></trkpt><trkpt lat="44.14317879267114" lon="12.458619435785199"><ele>2.0</ele><time>2026-04-24T14:06:28Z</time></trkpt><trkpt lat="44.143097431702486" lon="12.458667685349827"><ele>2.0</ele><time>2026-04-24T14:06:29Z</time></trkpt><trkpt lat="44.14302416699411" lon="12.458695030793669"><ele>2.0</ele><time>2026-04-24T14:06:30Z</time></trkpt><trkpt lat="44.14295331593229" lon="12.458699166265468"><ele>1.9999999999999998</ele><time>2026-04-24T14:06:31Z</time></trkpt><trkpt lat="44.14286677257663" lon="12.458683468721178"><ele>2.0</ele><time>2026-04-24T14:06:32Z</time></trkpt><trkpt lat="44.14277438142157" lon="12.458645145096517"><ele>2.0</ele><time>2026-04-24T14:06:33Z</time></trkpt><trkpt lat="44.142680089763864" lon="12.458584834790363"><ele>2.0</ele><time>2026-04-24T14:06:34Z</time></trkpt><trkpt lat="44.142585919341066" lon="12.458513371077006"><ele>2.0</ele><time>2026-04-24T14:06:35Z</time></trkpt><trkpt lat="44.142490314695465" lon="12.458433280617733"><ele>2.0</ele><time>2026-04-24T14:06:36Z</time></trkpt><trkpt lat="44.14240542652102" lon="12.458315805874644"><ele>2.0</ele><time>2026-04-24T14:06:37Z</time></trkpt><trkpt lat="44.14230441162936" lon="12.458228641154752"><ele>1.75</ele><time>2026-04-24T14:06:38Z</time></trkpt><trkpt lat="44.14220864953635" lon="12.458138544674702"><ele>1.5</ele><time>2026-04-24T14:06:39Z</time></trkpt><trkpt lat="44.14213065884514" lon="12.458031660175081"><ele>1.25</ele><time>2026-04-24T14:06:40Z</time></trkpt><trkpt lat="44.14206160323446" lon="12.457907170697625"><ele>1.0</ele><time>2026-04-24T14:06:41Z</time></trkpt><trkpt lat="44.14200001233931" lon="12.457772142133074"><ele>1.0</ele><time>2026-04-24T14:06:42Z</time></trkpt><trkpt lat="44.14193357242189" lon="12.457644349083564"><ele>1.0</ele><time>2026-04-24T14:06:43Z</time></trkpt><trkpt lat="44.14187379249259" lon="12.457507306805294"><ele>1.0</ele><time>2026-04-24T14:06:44Z</time></trkpt><trkpt lat="44.14181083340892" lon="12.457366493082024"><ele>1.0</ele><time>2026-04-24T14:06:45Z</time></trkpt><trkpt lat="44.14175167654654" lon="12.457228006630496"><ele>1.0</ele><time>2026-04-24T14:06:46Z</time></trkpt><trkpt lat="44.14169003795903" lon="12.457092697283068"><ele>1.0</ele><time>2026-04-24T14:06:47Z</time></trkpt><trkpt lat="44.14162650188621" lon="12.456945296746197"><ele>1.0</ele><time>2026-04-24T14:06:48Z</time></trkpt><trkpt lat="44.141569055740284" lon="12.456797834576893"><ele>1.0</ele><time>2026-04-24T14:06:49Z</time></trkpt><trkpt lat="44.1415083607148" lon="12.456666945550788"><ele>1.0</ele><time>2026-04-24T14:06:50Z</time></trkpt><trkpt lat="44.141443656226556" lon="12.456551505836119"><ele>1.0</ele><time>2026-04-24T14:06:51Z</time></trkpt><trkpt lat="44.14137554731433" lon="12.45645791488786"><ele>1.0</ele><time>2026-04-24T14:06:52Z</time></trkpt><trkpt lat="44.14130829940528" lon="12.456385673328853"><ele>1.0</ele><time>2026-04-24T14:06:53Z</time></trkpt><trkpt lat="44.141249507519696" lon="12.456324913823487"><ele>1.0</ele><time>2026-04-24T14:06:54Z</time></trkpt><trkpt lat="44.14115274221149" lon="12.456236805838305"><ele>0.9999999999999999</ele><time>2026-04-24T14:06:56Z</time></trkpt><trkpt lat="44.1410956291148" lon="12.456183543241597"><ele>1.0</ele><time>2026-04-24T14:06:58Z</time></trkpt><trkpt lat="44.14103875199666" lon="12.456129331389459"><ele>1.0</ele><time>2026-04-24T14:07:00Z</time></trkpt><trkpt lat="44.140972403106254" lon="12.456092895162133"><ele>1.0</ele><time>2026-04-24T14:07:03Z</time></trkpt><trkpt lat="44.14096017401967" lon="12.456003705428792"><ele>0.9999999999999999</ele><time>2026-04-24T14:07:28Z</time></trkpt><trkpt lat="44.14090098262373" lon="12.455908549536996"><ele>1.0</ele><time>2026-04-24T14:08:06Z</time></trkpt><trkpt lat="44.1408801826822" lon="12.455734281601247"><ele>1.0</ele><time>2026-04-24T14:08:08Z</time></trkpt><trkpt lat="44.14089988069441" lon="12.455621341221036"><ele>1.0</ele><time>2026-04-24T14:08:09Z</time></trkpt><trkpt lat="44.14094597172686" lon="12.455512975063247"><ele>1.0</ele><time>2026-04-24T14:08:10Z</time></trkpt><trkpt lat="44.141017465129714" lon="12.455414157675586"><ele>1.0</ele><time>2026-04-24T14:08:11Z</time></trkpt><trkpt lat="44.141105847423084" lon="12.45534157899281"><ele>1.0</ele><time>2026-04-24T14:08:12Z</time></trkpt><trkpt lat="44.14120173802918" lon="12.455304609028426"><ele>1.0</ele><time>2026-04-24T14:08:13Z</time></trkpt><trkpt lat="44.14129619373099" lon="12.4553103843294"><ele>1.0</ele><time>2026-04-24T14:08:14Z</time></trkpt><trkpt lat="44.141385739473854" lon="12.455348106973902"><ele>1.0</ele><time>2026-04-24T14:08:15Z</time></trkpt><trkpt lat="44.14146255440786" lon="12.455431977647958"><ele>1.0</ele><time>2026-04-24T14:08:16Z</time></trkpt><trkpt lat="44.141554227888044" lon="12.455492711067063"><ele>1.0</ele><time>2026-04-24T14:08:17Z</time></trkpt><trkpt lat="44.14163728853892" lon="12.455588030092935"><ele>1.0</ele><time>2026-04-24T14:08:18Z</time></trkpt><trkpt lat="44.14172398485143" lon="12.455686001643064"><ele>1.0</ele><time>2026-04-24T14:08:19Z</time></trkpt><trkpt lat="44.1418133666479" lon="12.455783834921899"><ele>1.0</ele><time>2026-04-24T14:08:20Z</time></trkpt><trkpt lat="44.14190276361525" lon="12.45588254342113"><ele>1.0</ele><time>2026-04-24T14:08:21Z</time></trkpt><trkpt lat="44.14198924978107" lon="12.455982777748599"><ele>1.0</ele><time>2026-04-24T14:08:22Z</time></trkpt><trkpt lat="44.142074154616694" lon="12.456080113270747"><ele>1.0</ele><time>2026-04-24T14:08:23Z</time></trkpt><trkpt lat="44.14215248937282" lon="12.456177567915056"><ele>1.0</ele><time>2026-04-24T14:08:24Z</time></trkpt><trkpt lat="44.14222342399672" lon="12.45628013589625"><ele>1.0</ele><time>2026-04-24T14:08:25Z</time></trkpt><trkpt lat="44.1422865814604" lon="12.456393216202489"><ele>1.0</ele><time>2026-04-24T14:08:26Z</time></trkpt><trkpt lat="44.14233616454945" lon="12.45650227924172"><ele>0.9999999999999999</ele><time>2026-04-24T14:08:27Z</time></trkpt><trkpt lat="44.14237540976779" lon="12.456603765194448"><ele>1.0</ele><time>2026-04-24T14:08:28Z</time></trkpt><trkpt lat="44.142400791806345" lon="12.45670083434513"><ele>1.0</ele><time>2026-04-24T14:08:29Z</time></trkpt><trkpt lat="44.14241405910121" lon="12.456798010915113"><ele>1.0</ele><time>2026-04-24T14:08:30Z</time></trkpt><trkpt lat="44.14240591050954" lon="12.456895343088748"><ele>0.9999999999999999</ele><time>2026-04-24T14:08:31Z</time></trkpt><trkpt lat="44.14237209584972" lon="12.45700146128195"><ele>1.0</ele><time>2026-04-24T14:08:32Z</time></trkpt><trkpt lat="44.142315374392524" lon="12.457096088916117"><ele>1.0</ele><time>2026-04-24T14:08:33Z</time></trkpt><trkpt lat="44.14223710357185" lon="12.457177236361298"><ele>1.0</ele><time>2026-04-24T14:08:34Z</time></trkpt><trkpt lat="44.14214168881364" lon="12.457253544414732"><ele>1.0</ele><time>2026-04-24T14:08:35Z</time></trkpt><trkpt lat="44.142037897820344" lon="12.457338951539809"><ele>1.0</ele><time>2026-04-24T14:08:36Z</time></trkpt><trkpt lat="44.14192686425139" lon="12.457434012025168"><ele>1.0</ele><time>2026-04-24T14:08:37Z</time></trkpt><trkpt lat="44.14180808791912" lon="12.457532829803723"><ele>1.0</ele><time>2026-04-24T14:08:38Z</time></trkpt><trkpt lat="44.14168405801294" lon="12.457638148201365"><ele>1.0</ele><time>2026-04-24T14:08:39Z</time></trkpt><trkpt lat="44.14155410379042" lon="12.457748730968891"><ele>1.0</ele><time>2026-04-24T14:08:40Z</time></trkpt><trkpt lat="44.14141924998601" lon="12.457858772338225"><ele>0.6666666666666666</ele><time>2026-04-24T14:08:41Z</time></trkpt><trkpt lat="44.141278019905556" lon="12.457978983686733"><ele>0.3333333333333333</ele><time>2026-04-24T14:08:42Z</time></trkpt><trkpt lat="44.14113047046414" lon="12.458105996809866"><ele>0.0</ele><time>2026-04-24T14:08:43Z</time></trkpt><trkpt lat="44.14098352771074" lon="12.45822661967127"><ele>0.0</ele><time>2026-04-24T14:08:44Z</time></trkpt><trkpt lat="44.1408343942232" lon="12.458349259614765"><ele>0.0</ele><time>2026-04-24T14:08:45Z</time></trkpt><trkpt lat="44.14068059880779" lon="12.458482182663198"><ele>0.0</ele><time>2026-04-24T14:08:46Z</time></trkpt><trkpt lat="44.140520455156064" lon="12.45861169263073"><ele>0.6666666666666666</ele><time>2026-04-24T14:08:47Z</time></trkpt><trkpt lat="44.140357965002984" lon="12.458741244233725"><ele>1.3333333333333333</ele><time>2026-04-24T14:08:48Z</time></trkpt><trkpt lat="44.14019117671518" lon="12.458874623880938"><ele>2.0</ele><time>2026-04-24T14:08:49Z</time></trkpt><trkpt lat="44.140020825267904" lon="12.459009928597714"><ele>2.333333333333333</ele><time>2026-04-24T14:08:50Z</time></trkpt><trkpt lat="44.13984749552328" lon="12.459152537018772"><ele>2.6666666666666665</ele><time>2026-04-24T14:08:51Z</time></trkpt><trkpt lat="44.13967137075393" lon="12.459297336793535"><ele>3.0</ele><time>2026-04-24T14:08:52Z</time></trkpt><trkpt lat="44.13949245800464" lon="12.459446548759995"><ele>3.0</ele><time>2026-04-24T14:08:53Z</time></trkpt><trkpt lat="44.13931142014228" lon="12.45959643279962"><ele>3.0</ele><time>2026-04-24T14:08:54Z</time></trkpt><trkpt lat="44.13912252616053" lon="12.45974502093307"><ele>3.0</ele><time>2026-04-24T14:08:55Z</time></trkpt><trkpt lat="44.138933065041904" lon="12.45990169277203"><ele>2.0</ele><time>2026-04-24T14:08:56Z</time></trkpt><trkpt lat="44.13874539239577" lon="12.460055800123657"><ele>1.0</ele><time>2026-04-24T14:08:57Z</time></trkpt><trkpt lat="44.1385564678762" lon="12.460211698590006"><ele>0.0</ele><time>2026-04-24T14:08:58Z</time></trkpt><trkpt lat="44.138368485613775" lon="12.460365327815714"><ele>-0.3333333333333333</ele><time>2026-04-24T14:08:59Z</time></trkpt><trkpt lat="44.138179348422625" lon="12.460518426579261"><ele>-0.6666666666666666</ele><time>2026-04-24T14:09:00Z</time></trkpt><trkpt lat="44.13798929306991" lon="12.460666841171967"><ele>-1.0</ele><time>2026-04-24T14:09:01Z</time></trkpt><trkpt lat="44.13780272478789" lon="12.460819611711933"><ele>-1.0</ele><time>2026-04-24T14:09:02Z</time></trkpt><trkpt lat="44.13761782962247" lon="12.46097417804641"><ele>-1.0</ele><time>2026-04-24T14:09:03Z</time></trkpt><trkpt lat="44.13743236025408" lon="12.461127996420178"><ele>-1.0</ele><time>2026-04-24T14:09:04Z</time></trkpt><trkpt lat="44.13724611067801" lon="12.461284317870978"><ele>-0.3333333333333333</ele><time>2026-04-24T14:09:05Z</time></trkpt><trkpt lat="44.13705867425501" lon="12.461436352724295"><ele>0.3333333333333333</ele><time>2026-04-24T14:09:06Z</time></trkpt><trkpt lat="44.136871509571" lon="12.461588056144427"><ele>1.0</ele><time>2026-04-24T14:09:07Z</time></trkpt><trkpt lat="44.13668139973648" lon="12.46173990659151"><ele>0.6666666666666666</ele><time>2026-04-24T14:09:08Z</time></trkpt><trkpt lat="44.136495790945645" lon="12.461891107341831"><ele>0.3333333333333333</ele><time>2026-04-24T14:09:09Z</time></trkpt><trkpt lat="44.1363118895688" lon="12.462045196388791"><ele>0.0</ele><time>2026-04-24T14:09:10Z</time></trkpt><trkpt lat="44.13612358590548" lon="12.462198330306624"><ele>0.0</ele><time>2026-04-24T14:09:11Z</time></trkpt><trkpt lat="44.13593617178196" lon="12.462353934291011"><ele>0.0</ele><time>2026-04-24T14:09:12Z</time></trkpt><trkpt lat="44.1357480666448" lon="12.462509622268005"><ele>0.0</ele><time>2026-04-24T14:09:13Z</time></trkpt><trkpt lat="44.135557273595786" lon="12.462663903032636"><ele>0.3333333333333333</ele><time>2026-04-24T14:09:14Z</time></trkpt><trkpt lat="44.135369504425924" lon="12.462815935535703"><ele>0.6666666666666666</ele><time>2026-04-24T14:09:15Z</time></trkpt><trkpt lat="44.135182280929364" lon="12.462971677448278"><ele>1.0</ele><time>2026-04-24T14:09:16Z</time></trkpt><trkpt lat="44.13499746850297" lon="12.46312844407557"><ele>1.3333333333333333</ele><time>2026-04-24T14:09:17Z</time></trkpt><trkpt lat="44.13481341038283" lon="12.463283344324449"><ele>1.6666666666666665</ele><time>2026-04-24T14:09:18Z</time></trkpt><trkpt lat="44.13463219789126" lon="12.463439590788653"><ele>2.0</ele><time>2026-04-24T14:09:19Z</time></trkpt><trkpt lat="44.13444860848365" lon="12.463592216858798"><ele>2.0</ele><time>2026-04-24T14:09:20Z</time></trkpt><trkpt lat="44.13426080087527" lon="12.463743821450459"><ele>2.0</ele><time>2026-04-24T14:09:21Z</time></trkpt><trkpt lat="44.134076745678705" lon="12.463896166110581"><ele>2.0</ele><time>2026-04-24T14:09:22Z</time></trkpt><trkpt lat="44.13388885550283" lon="12.464046639243703"><ele>2.0</ele><time>2026-04-24T14:09:23Z</time></trkpt><trkpt lat="44.13370060647004" lon="12.464202290332143"><ele>2.0</ele><time>2026-04-24T14:09:24Z</time></trkpt><trkpt lat="44.13351255211654" lon="12.464356638982629"><ele>2.0</ele><time>2026-04-24T14:09:25Z</time></trkpt><trkpt lat="44.13332569487293" lon="12.464513985109193"><ele>2.333333333333333</ele><time>2026-04-24T14:09:26Z</time></trkpt><trkpt lat="44.13313718337202" lon="12.46466267739908"><ele>2.6666666666666665</ele><time>2026-04-24T14:09:27Z</time></trkpt><trkpt lat="44.13295123814758" lon="12.464814586349764"><ele>3.0</ele><time>2026-04-24T14:09:28Z</time></trkpt><trkpt lat="44.13276364692343" lon="12.464968836471895"><ele>3.0</ele><time>2026-04-24T14:09:29Z</time></trkpt><trkpt lat="44.13257458281526" lon="12.465120470488065"><ele>3.0</ele><time>2026-04-24T14:09:30Z</time></trkpt><trkpt lat="44.13238672317212" lon="12.465273526996336"><ele>3.0</ele><time>2026-04-24T14:09:31Z</time></trkpt><trkpt lat="44.13220280187525" lon="12.465432202068806"><ele>3.0</ele><time>2026-04-24T14:09:32Z</time></trkpt><trkpt lat="44.13201547309055" lon="12.46559029636702"><ele>3.0</ele><time>2026-04-24T14:09:33Z</time></trkpt><trkpt lat="44.13182827021645" lon="12.465744388017011"><ele>3.0</ele><time>2026-04-24T14:09:34Z</time></trkpt><trkpt lat="44.131642612013074" lon="12.46589672128165"><ele>3.0</ele><time>2026-04-24T14:09:35Z</time></trkpt><trkpt lat="44.131456228095615" lon="12.466050958287129"><ele>3.0</ele><time>2026-04-24T14:09:36Z</time></trkpt><trkpt lat="44.1312683155479" lon="12.46620111324778"><ele>3.0</ele><time>2026-04-24T14:09:37Z</time></trkpt><trkpt lat="44.13108132075027" lon="12.466353209025486"><ele>2.6666666666666665</ele><time>2026-04-24T14:09:38Z</time></trkpt><trkpt lat="44.1308945251969" lon="12.46650552428283"><ele>2.333333333333333</ele><time>2026-04-24T14:09:39Z</time></trkpt><trkpt lat="44.130709885243796" lon="12.466658386105644"><ele>2.0</ele><time>2026-04-24T14:09:40Z</time></trkpt><trkpt lat="44.1305216344944" lon="12.466810786604507"><ele>2.6666666666666665</ele><time>2026-04-24T14:09:41Z</time></trkpt><trkpt lat="44.130334059708105" lon="12.46696046276021"><ele>3.333333333333333</ele><time>2026-04-24T14:09:42Z</time></trkpt><trkpt lat="44.130150712257205" lon="12.467115046008349"><ele>4.0</ele><time>2026-04-24T14:09:43Z</time></trkpt><trkpt lat="44.12996323241681" lon="12.467268104789575"><ele>4.333333333333333</ele><time>2026-04-24T14:09:44Z</time></trkpt><trkpt lat="44.12977641165328" lon="12.467423124019655"><ele>4.666666666666667</ele><time>2026-04-24T14:09:45Z</time></trkpt><trkpt lat="44.129587251742265" lon="12.467574664686426"><ele>5.0</ele><time>2026-04-24T14:09:46Z</time></trkpt><trkpt lat="44.12939803555461" lon="12.467724367967683"><ele>5.0</ele><time>2026-04-24T14:09:47Z</time></trkpt><trkpt lat="44.12921198253334" lon="12.467879217040101"><ele>5.0</ele><time>2026-04-24T14:09:48Z</time></trkpt><trkpt lat="44.12902301463367" lon="12.468032812683962"><ele>5.0</ele><time>2026-04-24T14:09:49Z</time></trkpt><trkpt lat="44.128834311770035" lon="12.468184782294454"><ele>4.666666666666667</ele><time>2026-04-24T14:09:50Z</time></trkpt><trkpt lat="44.12864394249351" lon="12.468336908188926"><ele>4.333333333333333</ele><time>2026-04-24T14:09:51Z</time></trkpt><trkpt lat="44.128458149537686" lon="12.468488876814927"><ele>4.0</ele><time>2026-04-24T14:09:52Z</time></trkpt><trkpt lat="44.12827211088906" lon="12.468640982027042"><ele>5.0</ele><time>2026-04-24T14:09:53Z</time></trkpt><trkpt lat="44.128084102420814" lon="12.46879003680582"><ele>6.0</ele><time>2026-04-24T14:09:54Z</time></trkpt><trkpt lat="44.12789450561041" lon="12.468940103672505"><ele>7.0</ele><time>2026-04-24T14:09:55Z</time></trkpt><trkpt lat="44.12770285127415" lon="12.469086145970085"><ele>7.0</ele><time>2026-04-24T14:09:56Z</time></trkpt><trkpt lat="44.12751082532212" lon="12.469228478688626"><ele>7.0</ele><time>2026-04-24T14:09:57Z</time></trkpt><trkpt lat="44.12731465072259" lon="12.469367724799998"><ele>7.0</ele><time>2026-04-24T14:09:58Z</time></trkpt><trkpt lat="44.12711800509826" lon="12.469496469485417"><ele>6.666666666666667</ele><time>2026-04-24T14:09:59Z</time></trkpt><trkpt lat="44.126919441056245" lon="12.469623348486278"><ele>6.333333333333334</ele><time>2026-04-24T14:10:00Z</time></trkpt><trkpt lat="44.12672163269642" lon="12.469745229514155"><ele>6.0</ele><time>2026-04-24T14:10:01Z</time></trkpt><trkpt lat="44.12652178293851" lon="12.46986280530687"><ele>5.666666666666667</ele><time>2026-04-24T14:10:02Z</time></trkpt><trkpt lat="44.126321886557044" lon="12.469980504400194"><ele>5.333333333333334</ele><time>2026-04-24T14:10:03Z</time></trkpt><trkpt lat="44.12611740070035" lon="12.47008805877456"><ele>5.0</ele><time>2026-04-24T14:10:04Z</time></trkpt><trkpt lat="44.12591610911569" lon="12.470192587954003"><ele>5.333333333333334</ele><time>2026-04-24T14:10:05Z</time></trkpt><trkpt lat="44.125712237112715" lon="12.470297154315649"><ele>5.666666666666667</ele><time>2026-04-24T14:10:06Z</time></trkpt><trkpt lat="44.12550917102448" lon="12.470406614199563"><ele>6.0</ele><time>2026-04-24T14:10:07Z</time></trkpt><trkpt lat="44.12530699314392" lon="12.470517647864265"><ele>6.333333333333334</ele><time>2026-04-24T14:10:08Z</time></trkpt><trkpt lat="44.125102566415826" lon="12.470626914953998"><ele>6.666666666666667</ele><time>2026-04-24T14:10:09Z</time></trkpt><trkpt lat="44.12489656055098" lon="12.470731284055848"><ele>7.0</ele><time>2026-04-24T14:10:10Z</time></trkpt><trkpt lat="44.12469408715651" lon="12.470840378462329"><ele>7.333333333333334</ele><time>2026-04-24T14:10:11Z</time></trkpt><trkpt lat="44.12448978639684" lon="12.470945886656871"><ele>7.666666666666666</ele><time>2026-04-24T14:10:12Z</time></trkpt><trkpt lat="44.12428961267526" lon="12.471050431937273"><ele>8.0</ele><time>2026-04-24T14:10:13Z</time></trkpt><trkpt lat="44.12408894916558" lon="12.471157397562866"><ele>7.333333333333333</ele><time>2026-04-24T14:10:14Z</time></trkpt><trkpt lat="44.12388584602827" lon="12.47126275095748"><ele>6.666666666666666</ele><time>2026-04-24T14:10:15Z</time></trkpt><trkpt lat="44.12368154757981" lon="12.471368538139895"><ele>6.0</ele><time>2026-04-24T14:10:16Z</time></trkpt><trkpt lat="44.12347734632361" lon="12.471474972008435"><ele>5.666666666666667</ele><time>2026-04-24T14:10:17Z</time></trkpt><trkpt lat="44.12327708172268" lon="12.471584522197126"><ele>5.333333333333334</ele><time>2026-04-24T14:10:18Z</time></trkpt><trkpt lat="44.12307498276718" lon="12.471692219657552"><ele>5.0</ele><time>2026-04-24T14:10:19Z</time></trkpt><trkpt lat="44.1228695911024" lon="12.471799383767863"><ele>5.666666666666667</ele><time>2026-04-24T14:10:20Z</time></trkpt><trkpt lat="44.12266770484787" lon="12.471907343522904"><ele>6.333333333333334</ele><time>2026-04-24T14:10:21Z</time></trkpt><trkpt lat="44.122465760835986" lon="12.472014067527692"><ele>7.0</ele><time>2026-04-24T14:10:22Z</time></trkpt><trkpt lat="44.12226263149746" lon="12.472121226275938"><ele>7.333333333333334</ele><time>2026-04-24T14:10:23Z</time></trkpt><trkpt lat="44.12205857836955" lon="12.4722289360283"><ele>7.666666666666666</ele><time>2026-04-24T14:10:24Z</time></trkpt><trkpt lat="44.12185650262755" lon="12.472337480504024"><ele>8.0</ele><time>2026-04-24T14:10:25Z</time></trkpt><trkpt lat="44.121652187254725" lon="12.472447445569221"><ele>7.666666666666666</ele><time>2026-04-24T14:10:26Z</time></trkpt><trkpt lat="44.121449555061815" lon="12.472557681737579"><ele>7.333333333333334</ele><time>2026-04-24T14:10:27Z</time></trkpt><trkpt lat="44.12124829099587" lon="12.472661919502828"><ele>7.0</ele><time>2026-04-24T14:10:28Z</time></trkpt><trkpt lat="44.121047033315016" lon="12.472769590862358"><ele>7.0</ele><time>2026-04-24T14:10:29Z</time></trkpt><trkpt lat="44.12084160572814" lon="12.47288276670432"><ele>7.0</ele><time>2026-04-24T14:10:30Z</time></trkpt><trkpt lat="44.12063978755865" lon="12.472991399634465"><ele>7.0</ele><time>2026-04-24T14:10:31Z</time></trkpt><trkpt lat="44.12043628903817" lon="12.473098445253756"><ele>7.0</ele><time>2026-04-24T14:10:32Z</time></trkpt><trkpt lat="44.120235701102416" lon="12.473205243322269"><ele>7.0</ele><time>2026-04-24T14:10:33Z</time></trkpt><trkpt lat="44.120035267362994" lon="12.47331351667649"><ele>7.0</ele><time>2026-04-24T14:10:34Z</time></trkpt><trkpt lat="44.11983059465689" lon="12.473422652457655"><ele>7.666666666666667</ele><time>2026-04-24T14:10:35Z</time></trkpt><trkpt lat="44.119630289412804" lon="12.473533515355099"><ele>8.333333333333334</ele><time>2026-04-24T14:10:36Z</time></trkpt><trkpt lat="44.11942725000218" lon="12.47363970817945"><ele>9.0</ele><time>2026-04-24T14:10:37Z</time></trkpt><trkpt lat="44.119224846430065" lon="12.473747962308893"><ele>9.0</ele><time>2026-04-24T14:10:38Z</time></trkpt><trkpt lat="44.119022209093316" lon="12.473858806005017"><ele>9.0</ele><time>2026-04-24T14:10:39Z</time></trkpt><trkpt lat="44.11881736198621" lon="12.473972520779986"><ele>9.0</ele><time>2026-04-24T14:10:40Z</time></trkpt><trkpt lat="44.11861387502924" lon="12.474077827353353"><ele>9.0</ele><time>2026-04-24T14:10:41Z</time></trkpt><trkpt lat="44.11841049668926" lon="12.474185914949427"><ele>9.0</ele><time>2026-04-24T14:10:42Z</time></trkpt><trkpt lat="44.118207156929195" lon="12.474293100262681"><ele>9.0</ele><time>2026-04-24T14:10:43Z</time></trkpt><trkpt lat="44.11800421342586" lon="12.474400672058037"><ele>9.0</ele><time>2026-04-24T14:10:44Z</time></trkpt><trkpt lat="44.117800889396484" lon="12.474504490518926"><ele>9.0</ele><time>2026-04-24T14:10:45Z</time></trkpt><trkpt lat="44.11759927966794" lon="12.474611143708852"><ele>9.0</ele><time>2026-04-24T14:10:46Z</time></trkpt><trkpt lat="44.1173984516246" lon="12.47471866186901"><ele>9.333333333333334</ele><time>2026-04-24T14:10:47Z</time></trkpt><trkpt lat="44.11719952017108" lon="12.47483302124178"><ele>9.666666666666668</ele><time>2026-04-24T14:10:48Z</time></trkpt><trkpt lat="44.11699971015888" lon="12.474952246999681"><ele>10.0</ele><time>2026-04-24T14:10:49Z</time></trkpt><trkpt lat="44.11680097799941" lon="12.475079315337156"><ele>10.0</ele><time>2026-04-24T14:10:50Z</time></trkpt><trkpt lat="44.116608041318806" lon="12.475212142406807"><ele>10.0</ele><time>2026-04-24T14:10:51Z</time></trkpt><trkpt lat="44.11641577211645" lon="12.475352989541493"><ele>10.0</ele><time>2026-04-24T14:10:52Z</time></trkpt><trkpt lat="44.116223801549246" lon="12.4755021431301"><ele>9.666666666666668</ele><time>2026-04-24T14:10:53Z</time></trkpt><trkpt lat="44.116035895510464" lon="12.475653998611321"><ele>9.333333333333334</ele><time>2026-04-24T14:10:54Z</time></trkpt><trkpt lat="44.11584915027745" lon="12.475810275029838"><ele>9.0</ele><time>2026-04-24T14:10:55Z</time></trkpt><trkpt lat="44.115667542791705" lon="12.475974782776218"><ele>9.0</ele><time>2026-04-24T14:10:56Z</time></trkpt><trkpt lat="44.11548866401582" lon="12.476141015535863"><ele>9.0</ele><time>2026-04-24T14:10:57Z</time></trkpt><trkpt lat="44.115313060962215" lon="12.476314539888929"><ele>9.0</ele><time>2026-04-24T14:10:58Z</time></trkpt><trkpt lat="44.11513970820162" lon="12.4764997424278"><ele>9.0</ele><time>2026-04-24T14:10:59Z</time></trkpt><trkpt lat="44.11496998241298" lon="12.476687848096747"><ele>9.0</ele><time>2026-04-24T14:11:00Z</time></trkpt><trkpt lat="44.114804431643535" lon="12.476881732891593"><ele>9.0</ele><time>2026-04-24T14:11:01Z</time></trkpt><trkpt lat="44.114640524933385" lon="12.477079058349245"><ele>10.0</ele><time>2026-04-24T14:11:02Z</time></trkpt><trkpt lat="44.11447878400199" lon="12.477283930320858"><ele>11.0</ele><time>2026-04-24T14:11:03Z</time></trkpt><trkpt lat="44.11432045570635" lon="12.477493796671745"><ele>12.0</ele><time>2026-04-24T14:11:04Z</time></trkpt><trkpt lat="44.11416180466355" lon="12.477703329627856"><ele>11.333333333333334</ele><time>2026-04-24T14:11:05Z</time></trkpt><trkpt lat="44.11400500507341" lon="12.47791293798907"><ele>10.666666666666668</ele><time>2026-04-24T14:11:06Z</time></trkpt><trkpt lat="44.11385106475514" lon="12.478127102307269"><ele>10.0</ele><time>2026-04-24T14:11:07Z</time></trkpt><trkpt lat="44.11369598755759" lon="12.478339704382067"><ele>10.0</ele><time>2026-04-24T14:11:08Z</time></trkpt><trkpt lat="44.11353982574183" lon="12.478551381053169"><ele>10.0</ele><time>2026-04-24T14:11:09Z</time></trkpt><trkpt lat="44.11338713455358" lon="12.478760779348441"><ele>10.0</ele><time>2026-04-24T14:11:10Z</time></trkpt><trkpt lat="44.11323364843616" lon="12.478969700129069"><ele>10.333333333333334</ele><time>2026-04-24T14:11:11Z</time></trkpt><trkpt lat="44.11308070206035" lon="12.479182558031386"><ele>10.666666666666666</ele><time>2026-04-24T14:11:12Z</time></trkpt><trkpt lat="44.11293180700485" lon="12.479392974353127"><ele>11.0</ele><time>2026-04-24T14:11:13Z</time></trkpt><trkpt lat="44.112777144052565" lon="12.479603484341633"><ele>11.0</ele><time>2026-04-24T14:11:14Z</time></trkpt><trkpt lat="44.11261955673962" lon="12.479811657807156"><ele>11.0</ele><time>2026-04-24T14:11:15Z</time></trkpt><trkpt lat="44.11246166358542" lon="12.480021837337937"><ele>11.0</ele><time>2026-04-24T14:11:16Z</time></trkpt><trkpt lat="44.11230715061397" lon="12.48023053405595"><ele>11.0</ele><time>2026-04-24T14:11:17Z</time></trkpt><trkpt lat="44.1121516203559" lon="12.480440360589336"><ele>11.0</ele><time>2026-04-24T14:11:18Z</time></trkpt><trkpt lat="44.11199559045617" lon="12.480648926060361"><ele>11.0</ele><time>2026-04-24T14:11:19Z</time></trkpt><trkpt lat="44.11183844011144" lon="12.480858158475012"><ele>11.0</ele><time>2026-04-24T14:11:20Z</time></trkpt><trkpt lat="44.11168268562281" lon="12.481067719812849"><ele>11.0</ele><time>2026-04-24T14:11:21Z</time></trkpt><trkpt lat="44.11152118047038" lon="12.48127320395879"><ele>11.0</ele><time>2026-04-24T14:11:22Z</time></trkpt><trkpt lat="44.11136897627306" lon="12.481461203673824"><ele>10.333333333333332</ele><time>2026-04-24T14:11:23Z</time></trkpt><trkpt lat="44.111226698335166" lon="12.48164042113564"><ele>9.666666666666666</ele><time>2026-04-24T14:11:24Z</time></trkpt><trkpt lat="44.11108312734149" lon="12.481815609249235"><ele>9.0</ele><time>2026-04-24T14:11:25Z</time></trkpt><trkpt lat="44.110935312352765" lon="12.481997907976425"><ele>9.333333333333334</ele><time>2026-04-24T14:11:26Z</time></trkpt><trkpt lat="44.11078697064159" lon="12.482181849074792"><ele>9.666666666666668</ele><time>2026-04-24T14:11:27Z</time></trkpt><trkpt lat="44.110638258590654" lon="12.482362572686673"><ele>10.0</ele><time>2026-04-24T14:11:28Z</time></trkpt><trkpt lat="44.110486025882146" lon="12.482536183919173"><ele>10.0</ele><time>2026-04-24T14:11:29Z</time></trkpt><trkpt lat="44.11033180510333" lon="12.482704726271908"><ele>10.0</ele><time>2026-04-24T14:11:30Z</time></trkpt><trkpt lat="44.11017226099524" lon="12.482859172839976"><ele>10.0</ele><time>2026-04-24T14:11:31Z</time></trkpt><trkpt lat="44.11000657954263" lon="12.48300269370652"><ele>10.666666666666668</ele><time>2026-04-24T14:11:32Z</time></trkpt><trkpt lat="44.10983860483256" lon="12.483142426074368"><ele>11.333333333333334</ele><time>2026-04-24T14:11:33Z</time></trkpt><trkpt lat="44.10966800533289" lon="12.483274285536885"><ele>12.0</ele><time>2026-04-24T14:11:34Z</time></trkpt><trkpt lat="44.10949928687774" lon="12.48341119294762"><ele>12.0</ele><time>2026-04-24T14:11:35Z</time></trkpt><trkpt lat="44.109329502172244" lon="12.48354592480053"><ele>12.0</ele><time>2026-04-24T14:11:36Z</time></trkpt><trkpt lat="44.10916259311716" lon="12.48368110148059"><ele>12.0</ele><time>2026-04-24T14:11:37Z</time></trkpt><trkpt lat="44.10899676699988" lon="12.48381541827609"><ele>12.333333333333332</ele><time>2026-04-24T14:11:38Z</time></trkpt><trkpt lat="44.10883248764756" lon="12.483951744629335"><ele>12.666666666666666</ele><time>2026-04-24T14:11:39Z</time></trkpt><trkpt lat="44.10867152810257" lon="12.484090149579059"><ele>13.0</ele><time>2026-04-24T14:11:40Z</time></trkpt><trkpt lat="44.10851092972072" lon="12.48422841392419"><ele>13.0</ele><time>2026-04-24T14:11:41Z</time></trkpt><trkpt lat="44.108348991844714" lon="12.484365596250889"><ele>13.0</ele><time>2026-04-24T14:11:42Z</time></trkpt><trkpt lat="44.10818426064344" lon="12.484501896303287"><ele>13.0</ele><time>2026-04-24T14:11:43Z</time></trkpt><trkpt lat="44.10802450152146" lon="12.484635441125564"><ele>11.333333333333332</ele><time>2026-04-24T14:11:44Z</time></trkpt><trkpt lat="44.107860583308785" lon="12.484765602825766"><ele>9.666666666666666</ele><time>2026-04-24T14:11:45Z</time></trkpt><trkpt lat="44.107698947515225" lon="12.484894924346197"><ele>8.0</ele><time>2026-04-24T14:11:46Z</time></trkpt><trkpt lat="44.107540853844846" lon="12.485027625862715"><ele>8.666666666666666</ele><time>2026-04-24T14:11:47Z</time></trkpt><trkpt lat="44.10738776405153" lon="12.485165139731729"><ele>9.333333333333334</ele><time>2026-04-24T14:11:48Z</time></trkpt><trkpt lat="44.1072260653211" lon="12.485288736958614"><ele>10.0</ele><time>2026-04-24T14:11:49Z</time></trkpt><trkpt lat="44.10706908326539" lon="12.48540946440738"><ele>10.666666666666668</ele><time>2026-04-24T14:11:50Z</time></trkpt><trkpt lat="44.106912349816845" lon="12.485538909337645"><ele>11.333333333333334</ele><time>2026-04-24T14:11:51Z</time></trkpt><trkpt lat="44.106759613355315" lon="12.485672126947833"><ele>12.0</ele><time>2026-04-24T14:11:52Z</time></trkpt><trkpt lat="44.10661373899563" lon="12.485806465102602"><ele>12.0</ele><time>2026-04-24T14:11:53Z</time></trkpt><trkpt lat="44.106483506127006" lon="12.485939750284116"><ele>12.0</ele><time>2026-04-24T14:11:54Z</time></trkpt><trkpt lat="44.106359662011585" lon="12.486077357272446"><ele>12.0</ele><time>2026-04-24T14:11:55Z</time></trkpt><trkpt lat="44.10623970070582" lon="12.486233599743711"><ele>11.666666666666666</ele><time>2026-04-24T14:11:56Z</time></trkpt><trkpt lat="44.106116452807" lon="12.486397842513272"><ele>11.333333333333332</ele><time>2026-04-24T14:11:57Z</time></trkpt><trkpt lat="44.10599761723355" lon="12.486576633963306"><ele>11.0</ele><time>2026-04-24T14:11:58Z</time></trkpt><trkpt lat="44.105879076319695" lon="12.486765561564392"><ele>11.0</ele><time>2026-04-24T14:11:59Z</time></trkpt><trkpt lat="44.105760988388035" lon="12.486959597269447"><ele>11.0</ele><time>2026-04-24T14:12:00Z</time></trkpt><trkpt lat="44.105638035734344" lon="12.487159084334014"><ele>11.0</ele><time>2026-04-24T14:12:01Z</time></trkpt><trkpt lat="44.10551281916886" lon="12.48735811842725"><ele>11.333333333333332</ele><time>2026-04-24T14:12:02Z</time></trkpt><trkpt lat="44.10538738298929" lon="12.487564194044307"><ele>11.666666666666666</ele><time>2026-04-24T14:12:03Z</time></trkpt><trkpt lat="44.105266080740826" lon="12.487763283177241"><ele>12.0</ele><time>2026-04-24T14:12:04Z</time></trkpt><trkpt lat="44.10514348750532" lon="12.487957041813218"><ele>12.333333333333332</ele><time>2026-04-24T14:12:05Z</time></trkpt><trkpt lat="44.105025617551256" lon="12.48815232368377"><ele>12.666666666666666</ele><time>2026-04-24T14:12:06Z</time></trkpt><trkpt lat="44.104907790394535" lon="12.488347518845423"><ele>13.0</ele><time>2026-04-24T14:12:07Z</time></trkpt><trkpt lat="44.10479289480211" lon="12.488537669939895"><ele>13.0</ele><time>2026-04-24T14:12:08Z</time></trkpt><trkpt lat="44.10467910165812" lon="12.488723093981266"><ele>13.0</ele><time>2026-04-24T14:12:09Z</time></trkpt><trkpt lat="44.104567306739405" lon="12.488906653944122"><ele>13.0</ele><time>2026-04-24T14:12:10Z</time></trkpt><trkpt lat="44.104454141154356" lon="12.489092010873799"><ele>12.666666666666666</ele><time>2026-04-24T14:12:11Z</time></trkpt><trkpt lat="44.10434852349649" lon="12.489274265564593"><ele>12.333333333333332</ele><time>2026-04-24T14:12:12Z</time></trkpt><trkpt lat="44.10424741549171" lon="12.489456896827736"><ele>12.0</ele><time>2026-04-24T14:12:13Z</time></trkpt><trkpt lat="44.10414550477007" lon="12.489637969314103"><ele>11.666666666666666</ele><time>2026-04-24T14:12:14Z</time></trkpt><trkpt lat="44.10403908619032" lon="12.48982470940079"><ele>11.333333333333332</ele><time>2026-04-24T14:12:15Z</time></trkpt><trkpt lat="44.103920028339964" lon="12.489989713237504"><ele>11.0</ele><time>2026-04-24T14:12:16Z</time></trkpt><trkpt lat="44.10381501160795" lon="12.490157800421384"><ele>11.0</ele><time>2026-04-24T14:12:17Z</time></trkpt><trkpt lat="44.103718789695364" lon="12.490313807630718"><ele>11.0</ele><time>2026-04-24T14:12:18Z</time></trkpt><trkpt lat="44.10364391442046" lon="12.490462193059194"><ele>11.0</ele><time>2026-04-24T14:12:19Z</time></trkpt><trkpt lat="44.1035649817817" lon="12.490580905644777"><ele>11.0</ele><time>2026-04-24T14:12:20Z</time></trkpt><trkpt lat="44.1034973995659" lon="12.49068713498092"><ele>11.0</ele><time>2026-04-24T14:12:21Z</time></trkpt><trkpt lat="44.1034447623859" lon="12.490778485313127"><ele>11.0</ele><time>2026-04-24T14:12:22Z</time></trkpt><trkpt lat="44.10339245059333" lon="12.490855414460004"><ele>11.0</ele><time>2026-04-24T14:12:23Z</time></trkpt><trkpt lat="44.10333553048017" lon="12.490908954858037"><ele>11.0</ele><time>2026-04-24T14:12:24Z</time></trkpt><trkpt lat="44.10324437642098" lon="12.490968605368588"><ele>11.0</ele><time>2026-04-24T14:12:26Z</time></trkpt><trkpt lat="44.10313723404213" lon="12.49101334531014"><ele>11.0</ele><time>2026-04-24T14:12:28Z</time></trkpt><trkpt lat="44.10304097441945" lon="12.49103537666723"><ele>11.0</ele><time>2026-04-24T14:12:29Z</time></trkpt><trkpt lat="44.102935021889856" lon="12.491067422887312"><ele>11.0</ele><time>2026-04-24T14:12:30Z</time></trkpt><trkpt lat="44.10285717646555" lon="12.491130196506735"><ele>11.0</ele><time>2026-04-24T14:12:31Z</time></trkpt><trkpt lat="44.10279091893234" lon="12.491230261925848"><ele>11.0</ele><time>2026-04-24T14:12:32Z</time></trkpt><trkpt lat="44.1027516093775" lon="12.491352135286094"><ele>11.0</ele><time>2026-04-24T14:12:33Z</time></trkpt><trkpt lat="44.102734391142036" lon="12.49148541609715"><ele>11.0</ele><time>2026-04-24T14:12:34Z</time></trkpt><trkpt lat="44.10272978299184" lon="12.491630039232655"><ele>11.0</ele><time>2026-04-24T14:12:35Z</time></trkpt><trkpt lat="44.10272233485469" lon="12.491785359817694"><ele>11.0</ele><time>2026-04-24T14:12:36Z</time></trkpt><trkpt lat="44.10270187907788" lon="12.491925916045288"><ele>11.0</ele><time>2026-04-24T14:12:37Z</time></trkpt><trkpt lat="44.10266320651822" lon="12.492060521791673"><ele>11.0</ele><time>2026-04-24T14:12:38Z</time></trkpt><trkpt lat="44.102601312702774" lon="12.492197754003522"><ele>11.25</ele><time>2026-04-24T14:12:39Z</time></trkpt><trkpt lat="44.1025187037671" lon="12.492338878361258"><ele>11.5</ele><time>2026-04-24T14:12:40Z</time></trkpt><trkpt lat="44.10242101828237" lon="12.492489411914939"><ele>11.75</ele><time>2026-04-24T14:12:41Z</time></trkpt><trkpt lat="44.10231298506127" lon="12.492645203478181"><ele>12.0</ele><time>2026-04-24T14:12:42Z</time></trkpt><trkpt lat="44.10220235801802" lon="12.492813691363137"><ele>11.333333333333334</ele><time>2026-04-24T14:12:43Z</time></trkpt><trkpt lat="44.102092452896805" lon="12.492981499811288"><ele>10.666666666666668</ele><time>2026-04-24T14:12:44Z</time></trkpt><trkpt lat="44.101990309452304" lon="12.493138581832024"><ele>10.0</ele><time>2026-04-24T14:12:45Z</time></trkpt><trkpt lat="44.10189040388362" lon="12.493292510863954"><ele>10.0</ele><time>2026-04-24T14:12:46Z</time></trkpt><trkpt lat="44.101794880652896" lon="12.493445259902105"><ele>10.0</ele><time>2026-04-24T14:12:47Z</time></trkpt><trkpt lat="44.10169805034863" lon="12.493597113047658"><ele>10.0</ele><time>2026-04-24T14:12:48Z</time></trkpt><trkpt lat="44.101599822390256" lon="12.493753666246565"><ele>10.0</ele><time>2026-04-24T14:12:49Z</time></trkpt><trkpt lat="44.101499509541895" lon="12.493910203269978"><ele>10.0</ele><time>2026-04-24T14:12:50Z</time></trkpt><trkpt lat="44.1014009438056" lon="12.494069941954587"><ele>10.0</ele><time>2026-04-24T14:12:51Z</time></trkpt><trkpt lat="44.10130415145919" lon="12.494235954158583"><ele>10.0</ele><time>2026-04-24T14:12:52Z</time></trkpt><trkpt lat="44.10120759396322" lon="12.494402725196503"><ele>10.0</ele><time>2026-04-24T14:12:53Z</time></trkpt><trkpt lat="44.101109396985905" lon="12.494566410627648"><ele>10.0</ele><time>2026-04-24T14:12:54Z</time></trkpt><trkpt lat="44.10100129130111" lon="12.49473060397223"><ele>10.0</ele><time>2026-04-24T14:12:55Z</time></trkpt><trkpt lat="44.10088917388123" lon="12.494895672420638"><ele>10.333333333333334</ele><time>2026-04-24T14:12:56Z</time></trkpt><trkpt lat="44.10077507187988" lon="12.49507336438469"><ele>10.666666666666666</ele><time>2026-04-24T14:12:57Z</time></trkpt><trkpt lat="44.100663979589896" lon="12.495255609029154"><ele>11.0</ele><time>2026-04-24T14:12:58Z</time></trkpt><trkpt lat="44.100553183498654" lon="12.495434531013691"><ele>10.333333333333332</ele><time>2026-04-24T14:12:59Z</time></trkpt><trkpt lat="44.100439156485606" lon="12.495618413946548"><ele>9.666666666666666</ele><time>2026-04-24T14:13:00Z</time></trkpt><trkpt lat="44.100326993668844" lon="12.495808240313577"><ele>9.0</ele><time>2026-04-24T14:13:01Z</time></trkpt><trkpt lat="44.100212774375265" lon="12.496001550842854"><ele>9.0</ele><time>2026-04-24T14:13:02Z</time></trkpt><trkpt lat="44.100094580630916" lon="12.496197892180987"><ele>9.0</ele><time>2026-04-24T14:13:03Z</time></trkpt><trkpt lat="44.09997692196528" lon="12.496395921946492"><ele>9.0</ele><time>2026-04-24T14:13:04Z</time></trkpt><trkpt lat="44.09986282810587" lon="12.49659386620384"><ele>9.333333333333334</ele><time>2026-04-24T14:13:05Z</time></trkpt><trkpt lat="44.099748773173786" lon="12.49678388935131"><ele>9.666666666666668</ele><time>2026-04-24T14:13:06Z</time></trkpt><trkpt lat="44.09963809129994" lon="12.496964522945996"><ele>10.0</ele><time>2026-04-24T14:13:07Z</time></trkpt><trkpt lat="44.099539671964266" lon="12.49713103287938"><ele>9.5</ele><time>2026-04-24T14:13:08Z</time></trkpt><trkpt lat="44.09944378664052" lon="12.497289068795762"><ele>9.0</ele><time>2026-04-24T14:13:09Z</time></trkpt><trkpt lat="44.09935428946269" lon="12.497432257607148"><ele>8.5</ele><time>2026-04-24T14:13:10Z</time></trkpt><trkpt lat="44.09926214610347" lon="12.497583928170005"><ele>8.0</ele><time>2026-04-24T14:13:11Z</time></trkpt><trkpt lat="44.09916647786927" lon="12.497748672851541"><ele>8.0</ele><time>2026-04-24T14:13:12Z</time></trkpt><trkpt lat="44.099071252618266" lon="12.497916447538024"><ele>8.0</ele><time>2026-04-24T14:13:13Z</time></trkpt><trkpt lat="44.09895893210052" lon="12.498048203635964"><ele>8.0</ele><time>2026-04-24T14:13:14Z</time></trkpt><trkpt lat="44.09887994750546" lon="12.498209892012293"><ele>8.0</ele><time>2026-04-24T14:13:15Z</time></trkpt><trkpt lat="44.09879163523714" lon="12.498339119876231"><ele>8.25</ele><time>2026-04-24T14:13:16Z</time></trkpt><trkpt lat="44.09871291519667" lon="12.498456823824409"><ele>8.5</ele><time>2026-04-24T14:13:17Z</time></trkpt><trkpt lat="44.098635499178286" lon="12.498573477845442"><ele>8.75</ele><time>2026-04-24T14:13:18Z</time></trkpt><trkpt lat="44.09855448745425" lon="12.498704766762632"><ele>9.0</ele><time>2026-04-24T14:13:19Z</time></trkpt><trkpt lat="44.09846812818411" lon="12.49884724921966"><ele>9.0</ele><time>2026-04-24T14:13:20Z</time></trkpt><trkpt lat="44.09838158164593" lon="12.499000580169222"><ele>9.0</ele><time>2026-04-24T14:13:21Z</time></trkpt><trkpt lat="44.09829122467679" lon="12.499152650633873"><ele>9.0</ele><time>2026-04-24T14:13:22Z</time></trkpt><trkpt lat="44.09820847159702" lon="12.499288296407963"><ele>9.0</ele><time>2026-04-24T14:13:23Z</time></trkpt><trkpt lat="44.09811886597268" lon="12.499428705705073"><ele>9.25</ele><time>2026-04-24T14:13:24Z</time></trkpt><trkpt lat="44.098027918530825" lon="12.499575490518213"><ele>9.5</ele><time>2026-04-24T14:13:25Z</time></trkpt><trkpt lat="44.09793397517197" lon="12.4997205085594"><ele>9.75</ele><time>2026-04-24T14:13:26Z</time></trkpt><trkpt lat="44.09783930530041" lon="12.499867710655778"><ele>10.0</ele><time>2026-04-24T14:13:27Z</time></trkpt><trkpt lat="44.09774736739705" lon="12.500017631981073"><ele>10.0</ele><time>2026-04-24T14:13:28Z</time></trkpt><trkpt lat="44.09765416879217" lon="12.500168380070349"><ele>10.0</ele><time>2026-04-24T14:13:29Z</time></trkpt><trkpt lat="44.09756275137925" lon="12.500328566462645"><ele>10.0</ele><time>2026-04-24T14:13:30Z</time></trkpt><trkpt lat="44.097463330631" lon="12.50049685245719"><ele>10.0</ele><time>2026-04-24T14:13:31Z</time></trkpt><trkpt lat="44.09735351840664" lon="12.500676132425461"><ele>10.0</ele><time>2026-04-24T14:13:32Z</time></trkpt><trkpt lat="44.09724421148415" lon="12.500864715096432"><ele>10.0</ele><time>2026-04-24T14:13:33Z</time></trkpt><trkpt lat="44.09713468675024" lon="12.501051680692562"><ele>10.0</ele><time>2026-04-24T14:13:34Z</time></trkpt><trkpt lat="44.09702199196439" lon="12.501221202690802"><ele>10.0</ele><time>2026-04-24T14:13:35Z</time></trkpt><trkpt lat="44.09691768857879" lon="12.501384814793795"><ele>10.0</ele><time>2026-04-24T14:13:36Z</time></trkpt><trkpt lat="44.09681961018791" lon="12.501539634225697"><ele>10.0</ele><time>2026-04-24T14:13:37Z</time></trkpt><trkpt lat="44.09673110542532" lon="12.501680711330739"><ele>10.0</ele><time>2026-04-24T14:13:38Z</time></trkpt><trkpt lat="44.09664874459272" lon="12.50181212226753"><ele>9.5</ele><time>2026-04-24T14:13:39Z</time></trkpt><trkpt lat="44.096571936997954" lon="12.501937259542036"><ele>9.0</ele><time>2026-04-24T14:13:40Z</time></trkpt><trkpt lat="44.096491503948734" lon="12.502064022689373"><ele>8.5</ele><time>2026-04-24T14:13:41Z</time></trkpt><trkpt lat="44.096405079391346" lon="12.502194664808172"><ele>8.0</ele><time>2026-04-24T14:13:42Z</time></trkpt><trkpt lat="44.09632373979671" lon="12.50232830573229"><ele>8.0</ele><time>2026-04-24T14:13:43Z</time></trkpt><trkpt lat="44.09624592242784" lon="12.502460441169267"><ele>8.0</ele><time>2026-04-24T14:13:44Z</time></trkpt><trkpt lat="44.096164415895515" lon="12.502596460153915"><ele>8.0</ele><time>2026-04-24T14:13:45Z</time></trkpt><trkpt lat="44.09608230942529" lon="12.502725825337262"><ele>8.0</ele><time>2026-04-24T14:13:46Z</time></trkpt><trkpt lat="44.09599887997355" lon="12.502853348979436"><ele>8.25</ele><time>2026-04-24T14:13:47Z</time></trkpt><trkpt lat="44.09592093600588" lon="12.502976406569045"><ele>8.5</ele><time>2026-04-24T14:13:48Z</time></trkpt><trkpt lat="44.095845753866136" lon="12.503091813374967"><ele>8.75</ele><time>2026-04-24T14:13:49Z</time></trkpt><trkpt lat="44.09577115194784" lon="12.503207798825006"><ele>9.0</ele><time>2026-04-24T14:13:50Z</time></trkpt><trkpt lat="44.09569304003259" lon="12.503330977577418"><ele>9.2</ele><time>2026-04-24T14:13:51Z</time></trkpt><trkpt lat="44.095617701813666" lon="12.503451721452327"><ele>9.4</ele><time>2026-04-24T14:13:52Z</time></trkpt><trkpt lat="44.0955476035446" lon="12.503566734350253"><ele>9.6</ele><time>2026-04-24T14:13:53Z</time></trkpt><trkpt lat="44.09547473830114" lon="12.50368208605293"><ele>9.8</ele><time>2026-04-24T14:13:54Z</time></trkpt><trkpt lat="44.095408650056854" lon="12.50378761393578"><ele>10.0</ele><time>2026-04-24T14:13:55Z</time></trkpt><trkpt lat="44.09534580371267" lon="12.503877368351102"><ele>10.0</ele><time>2026-04-24T14:13:56Z</time></trkpt><trkpt lat="44.09528351116862" lon="12.503961924429747"><ele>10.0</ele><time>2026-04-24T14:13:57Z</time></trkpt><trkpt lat="44.09522477349759" lon="12.504031179457773"><ele>10.0</ele><time>2026-04-24T14:13:58Z</time></trkpt><trkpt lat="44.0951757554431" lon="12.504095461206187"><ele>10.0</ele><time>2026-04-24T14:13:59Z</time></trkpt><trkpt lat="44.095101044187366" lon="12.504201607070433"><ele>10.0</ele><time>2026-04-24T14:14:01Z</time></trkpt><trkpt lat="44.0950247232689" lon="12.504311268919967"><ele>10.0</ele><time>2026-04-24T14:14:03Z</time></trkpt><trkpt lat="44.09497809389698" lon="12.504384787941792"><ele>9.4</ele><time>2026-04-24T14:14:04Z</time></trkpt><trkpt lat="44.09491975168568" lon="12.504477960247264"><ele>8.8</ele><time>2026-04-24T14:14:05Z</time></trkpt><trkpt lat="44.09485602554418" lon="12.504586540995902"><ele>8.2</ele><time>2026-04-24T14:14:06Z</time></trkpt><trkpt lat="44.09478252818623" lon="12.504715455673146"><ele>7.6</ele><time>2026-04-24T14:14:07Z</time></trkpt><trkpt lat="44.094699059813934" lon="12.50486333646809"><ele>7.0</ele><time>2026-04-24T14:14:08Z</time></trkpt><trkpt lat="44.09459978856005" lon="12.50502277713847"><ele>7.0</ele><time>2026-04-24T14:14:09Z</time></trkpt><trkpt lat="44.094496966749915" lon="12.505194550076313"><ele>7.0</ele><time>2026-04-24T14:14:10Z</time></trkpt><trkpt lat="44.09439067130065" lon="12.50537998293804"><ele>7.0</ele><time>2026-04-24T14:14:11Z</time></trkpt><trkpt lat="44.09427364610964" lon="12.505572049051336"><ele>7.333333333333334</ele><time>2026-04-24T14:14:12Z</time></trkpt><trkpt lat="44.09414981433728" lon="12.505769386330874"><ele>7.666666666666666</ele><time>2026-04-24T14:14:13Z</time></trkpt><trkpt lat="44.094022497578095" lon="12.505971778978155"><ele>8.0</ele><time>2026-04-24T14:14:14Z</time></trkpt><trkpt lat="44.09389473158084" lon="12.506178918654806"><ele>8.333333333333332</ele><time>2026-04-24T14:14:15Z</time></trkpt><trkpt lat="44.093769803086275" lon="12.50638666297564"><ele>8.666666666666666</ele><time>2026-04-24T14:14:16Z</time></trkpt><trkpt lat="44.09365211530442" lon="12.506584832573754"><ele>9.0</ele><time>2026-04-24T14:14:17Z</time></trkpt><trkpt lat="44.09353238288042" lon="12.506784183013835"><ele>9.0</ele><time>2026-04-24T14:14:18Z</time></trkpt><trkpt lat="44.093411649431744" lon="12.506978795881697"><ele>9.0</ele><time>2026-04-24T14:14:19Z</time></trkpt><trkpt lat="44.09328938064331" lon="12.507171780508836"><ele>9.0</ele><time>2026-04-24T14:14:20Z</time></trkpt><trkpt lat="44.09317171769855" lon="12.507360271532878"><ele>9.0</ele><time>2026-04-24T14:14:21Z</time></trkpt><trkpt lat="44.093054140446604" lon="12.50755053061117"><ele>9.0</ele><time>2026-04-24T14:14:22Z</time></trkpt><trkpt lat="44.09293590927117" lon="12.507735632063943"><ele>9.0</ele><time>2026-04-24T14:14:23Z</time></trkpt><trkpt lat="44.092821019665855" lon="12.507914640986108"><ele>9.0</ele><time>2026-04-24T14:14:24Z</time></trkpt><trkpt lat="44.0927127971754" lon="12.508091736571412"><ele>9.0</ele><time>2026-04-24T14:14:25Z</time></trkpt><trkpt lat="44.09261149080669" lon="12.508257107036552"><ele>9.0</ele><time>2026-04-24T14:14:26Z</time></trkpt><trkpt lat="44.09251389823912" lon="12.508420594256911"><ele>8.666666666666666</ele><time>2026-04-24T14:14:27Z</time></trkpt><trkpt lat="44.09241699340038" lon="12.508586767636636"><ele>8.333333333333332</ele><time>2026-04-24T14:14:28Z</time></trkpt><trkpt lat="44.09232569075483" lon="12.508757033932307"><ele>8.0</ele><time>2026-04-24T14:14:29Z</time></trkpt><trkpt lat="44.09223945321272" lon="12.508921926933407"><ele>8.0</ele><time>2026-04-24T14:14:30Z</time></trkpt><trkpt lat="44.09216055616891" lon="12.50909094936773"><ele>8.0</ele><time>2026-04-24T14:14:31Z</time></trkpt><trkpt lat="44.09210494593748" lon="12.509256348887599"><ele>8.0</ele><time>2026-04-24T14:14:32Z</time></trkpt><trkpt lat="44.09206669243405" lon="12.509401516398373"><ele>8.0</ele><time>2026-04-24T14:14:33Z</time></trkpt><trkpt lat="44.09204065312414" lon="12.509514276646573"><ele>8.4</ele><time>2026-04-24T14:14:34Z</time></trkpt><trkpt lat="44.09200592557614" lon="12.509589665004954"><ele>8.8</ele><time>2026-04-24T14:14:35Z</time></trkpt><trkpt lat="44.09194331770649" lon="12.509655872607611"><ele>9.2</ele><time>2026-04-24T14:14:36Z</time></trkpt><trkpt lat="44.09185599551913" lon="12.509725282203792"><ele>9.6</ele><time>2026-04-24T14:14:37Z</time></trkpt><trkpt lat="44.09176823144938" lon="12.509834802942782"><ele>10.0</ele><time>2026-04-24T14:14:38Z</time></trkpt><trkpt lat="44.09168314937178" lon="12.509986850080104"><ele>10.0</ele><time>2026-04-24T14:14:39Z</time></trkpt><trkpt lat="44.09157864785246" lon="12.510158837873279"><ele>10.0</ele><time>2026-04-24T14:14:40Z</time></trkpt><trkpt lat="44.09145540367292" lon="12.510335350095069"><ele>10.0</ele><time>2026-04-24T14:14:41Z</time></trkpt><trkpt lat="44.091323825676774" lon="12.510520909326615"><ele>10.0</ele><time>2026-04-24T14:14:42Z</time></trkpt><trkpt lat="44.091191127637295" lon="12.510713866994422"><ele>10.0</ele><time>2026-04-24T14:14:43Z</time></trkpt><trkpt lat="44.09106334481559" lon="12.510904221901567"><ele>10.0</ele><time>2026-04-24T14:14:44Z</time></trkpt><trkpt lat="44.090947487781605" lon="12.511087784262974"><ele>10.25</ele><time>2026-04-24T14:14:45Z</time></trkpt><trkpt lat="44.090849266382" lon="12.511252313957284"><ele>10.5</ele><time>2026-04-24T14:14:46Z</time></trkpt><trkpt lat="44.09076000811789" lon="12.511405468084703"><ele>10.75</ele><time>2026-04-24T14:14:47Z</time></trkpt><trkpt lat="44.090678931323" lon="12.511547044293707"><ele>11.0</ele><time>2026-04-24T14:14:48Z</time></trkpt><trkpt lat="44.09059966103584" lon="12.511684253305573"><ele>11.0</ele><time>2026-04-24T14:14:49Z</time></trkpt><trkpt lat="44.090519988381885" lon="12.511811915007094"><ele>11.0</ele><time>2026-04-24T14:14:50Z</time></trkpt><trkpt lat="44.090442588807555" lon="12.511937789562625"><ele>11.0</ele><time>2026-04-24T14:14:51Z</time></trkpt><trkpt lat="44.0903650082699" lon="12.512061622284586"><ele>11.0</ele><time>2026-04-24T14:14:52Z</time></trkpt><trkpt lat="44.090284218701115" lon="12.51218890475542"><ele>10.5</ele><time>2026-04-24T14:14:53Z</time></trkpt><trkpt lat="44.09019734074303" lon="12.512324108639662"><ele>10.0</ele><time>2026-04-24T14:14:54Z</time></trkpt><trkpt lat="44.09010669859708" lon="12.512470207749796"><ele>9.5</ele><time>2026-04-24T14:14:55Z</time></trkpt><trkpt lat="44.09002283664336" lon="12.512602581765266"><ele>9.0</ele><time>2026-04-24T14:14:56Z</time></trkpt><trkpt lat="44.089946355602734" lon="12.512730948865682"><ele>9.25</ele><time>2026-04-24T14:14:57Z</time></trkpt><trkpt lat="44.0898585543779" lon="12.51287009841481"><ele>9.5</ele><time>2026-04-24T14:14:58Z</time></trkpt><trkpt lat="44.08976769610638" lon="12.513029982846625"><ele>9.75</ele><time>2026-04-24T14:14:59Z</time></trkpt><trkpt lat="44.08965942534602" lon="12.513180230816454"><ele>10.0</ele><time>2026-04-24T14:15:00Z</time></trkpt><trkpt lat="44.08955664748619" lon="12.513347327433085"><ele>10.0</ele><time>2026-04-24T14:15:01Z</time></trkpt><trkpt lat="44.08945309478952" lon="12.513515514180868"><ele>10.0</ele><time>2026-04-24T14:15:02Z</time></trkpt><trkpt lat="44.08934296740159" lon="12.513695504129892"><ele>10.0</ele><time>2026-04-24T14:15:03Z</time></trkpt><trkpt lat="44.089240765330295" lon="12.513897413421375"><ele>10.0</ele><time>2026-04-24T14:15:04Z</time></trkpt><trkpt lat="44.08912840358821" lon="12.514079267567258"><ele>10.0</ele><time>2026-04-24T14:15:05Z</time></trkpt><trkpt lat="44.08902026950686" lon="12.514248849971063"><ele>10.0</ele><time>2026-04-24T14:15:06Z</time></trkpt><trkpt lat="44.08891673218404" lon="12.514412438266586"><ele>10.0</ele><time>2026-04-24T14:15:07Z</time></trkpt><trkpt lat="44.08881166712557" lon="12.5145785913881"><ele>10.0</ele><time>2026-04-24T14:15:08Z</time></trkpt><trkpt lat="44.08870234180747" lon="12.514756355295626"><ele>10.0</ele><time>2026-04-24T14:15:09Z</time></trkpt><trkpt lat="44.08858931329126" lon="12.514940580842184"><ele>10.0</ele><time>2026-04-24T14:15:10Z</time></trkpt><trkpt lat="44.08847896060693" lon="12.515125263329216"><ele>10.0</ele><time>2026-04-24T14:15:11Z</time></trkpt><trkpt lat="44.088367524834034" lon="12.515311281144642"><ele>10.0</ele><time>2026-04-24T14:15:12Z</time></trkpt><trkpt lat="44.08825778378899" lon="12.51549487096633"><ele>10.0</ele><time>2026-04-24T14:15:13Z</time></trkpt><trkpt lat="44.0881449247301" lon="12.515676859040695"><ele>10.0</ele><time>2026-04-24T14:15:14Z</time></trkpt><trkpt lat="44.08802953952508" lon="12.515851484713124"><ele>10.0</ele><time>2026-04-24T14:15:15Z</time></trkpt><trkpt lat="44.08791945608558" lon="12.516024616555908"><ele>10.0</ele><time>2026-04-24T14:15:16Z</time></trkpt><trkpt lat="44.08782132190757" lon="12.51618575110156"><ele>10.0</ele><time>2026-04-24T14:15:17Z</time></trkpt><trkpt lat="44.08771745307274" lon="12.516350405322315"><ele>10.0</ele><time>2026-04-24T14:15:18Z</time></trkpt><trkpt lat="44.087611912784624" lon="12.516527243600713"><ele>10.0</ele><time>2026-04-24T14:15:19Z</time></trkpt><trkpt lat="44.0875030411139" lon="12.516709308503923"><ele>10.0</ele><time>2026-04-24T14:15:20Z</time></trkpt><trkpt lat="44.08739116024669" lon="12.51690037421126"><ele>10.0</ele><time>2026-04-24T14:15:21Z</time></trkpt><trkpt lat="44.087270057068515" lon="12.517093166600336"><ele>10.333333333333334</ele><time>2026-04-24T14:15:22Z</time></trkpt><trkpt lat="44.08714551774119" lon="12.5172875873228"><ele>10.666666666666666</ele><time>2026-04-24T14:15:23Z</time></trkpt><trkpt lat="44.08702471052927" lon="12.517483449087141"><ele>11.0</ele><time>2026-04-24T14:15:24Z</time></trkpt><trkpt lat="44.086909472887584" lon="12.517676503228966"><ele>11.0</ele><time>2026-04-24T14:15:25Z</time></trkpt><trkpt lat="44.08679421274455" lon="12.517868663617095"><ele>11.0</ele><time>2026-04-24T14:15:26Z</time></trkpt><trkpt lat="44.08667778514461" lon="12.518062641843944"><ele>11.0</ele><time>2026-04-24T14:15:27Z</time></trkpt><trkpt lat="44.08655998681588" lon="12.518252630682722"><ele>11.0</ele><time>2026-04-24T14:15:28Z</time></trkpt><trkpt lat="44.08644953511013" lon="12.518454654046728"><ele>11.0</ele><time>2026-04-24T14:15:29Z</time></trkpt><trkpt lat="44.08633409011966" lon="12.518664461754371"><ele>11.0</ele><time>2026-04-24T14:15:30Z</time></trkpt><trkpt lat="44.08621228370507" lon="12.51888003679475"><ele>11.333333333333332</ele><time>2026-04-24T14:15:31Z</time></trkpt><trkpt lat="44.086074155068545" lon="12.519081428704549"><ele>11.666666666666666</ele><time>2026-04-24T14:15:32Z</time></trkpt><trkpt lat="44.08595092987019" lon="12.51929726003899"><ele>12.0</ele><time>2026-04-24T14:15:33Z</time></trkpt><trkpt lat="44.085839491687935" lon="12.519509932152655"><ele>11.333333333333334</ele><time>2026-04-24T14:15:34Z</time></trkpt><trkpt lat="44.085716305290916" lon="12.519695133832169"><ele>10.666666666666668</ele><time>2026-04-24T14:15:35Z</time></trkpt><trkpt lat="44.08558423250504" lon="12.51987603159219"><ele>10.0</ele><time>2026-04-24T14:15:36Z</time></trkpt><trkpt lat="44.08544280388283" lon="12.520046035647269"><ele>10.0</ele><time>2026-04-24T14:15:37Z</time></trkpt><trkpt lat="44.08529200979983" lon="12.52021076412523"><ele>10.0</ele><time>2026-04-24T14:15:38Z</time></trkpt><trkpt lat="44.085137070953195" lon="12.520372848725764"><ele>10.0</ele><time>2026-04-24T14:15:39Z</time></trkpt><trkpt lat="44.084979850079435" lon="12.520535605831979"><ele>10.0</ele><time>2026-04-24T14:15:40Z</time></trkpt><trkpt lat="44.08481561134428" lon="12.52069686599359"><ele>10.0</ele><time>2026-04-24T14:15:41Z</time></trkpt><trkpt lat="44.08464731547361" lon="12.520852875290796"><ele>10.0</ele><time>2026-04-24T14:15:42Z</time></trkpt><trkpt lat="44.08447825585188" lon="12.521011096764848"><ele>10.0</ele><time>2026-04-24T14:15:43Z</time></trkpt><trkpt lat="44.08430808090615" lon="12.521174566553947"><ele>10.0</ele><time>2026-04-24T14:15:44Z</time></trkpt><trkpt lat="44.08413630008143" lon="12.521331888974983"><ele>10.0</ele><time>2026-04-24T14:15:45Z</time></trkpt><trkpt lat="44.08396785354149" lon="12.521491291411971"><ele>9.666666666666668</ele><time>2026-04-24T14:15:46Z</time></trkpt><trkpt lat="44.083799094150606" lon="12.52165617288953"><ele>9.333333333333334</ele><time>2026-04-24T14:15:47Z</time></trkpt><trkpt lat="44.08363087303762" lon="12.521816303081012"><ele>9.0</ele><time>2026-04-24T14:15:48Z</time></trkpt><trkpt lat="44.08346501808513" lon="12.521980547355378"><ele>9.0</ele><time>2026-04-24T14:15:49Z</time></trkpt><trkpt lat="44.0832979903826" lon="12.522146073156327"><ele>9.0</ele><time>2026-04-24T14:15:50Z</time></trkpt><trkpt lat="44.08313235819483" lon="12.522315181829342"><ele>9.0</ele><time>2026-04-24T14:15:51Z</time></trkpt><trkpt lat="44.08296504626109" lon="12.52249258067739"><ele>9.0</ele><time>2026-04-24T14:15:52Z</time></trkpt><trkpt lat="44.08280469438591" lon="12.522677846797048"><ele>9.0</ele><time>2026-04-24T14:15:53Z</time></trkpt><trkpt lat="44.082648115012255" lon="12.522875695628072"><ele>9.0</ele><time>2026-04-24T14:15:54Z</time></trkpt><trkpt lat="44.08250394185509" lon="12.52308654399854"><ele>9.0</ele><time>2026-04-24T14:15:55Z</time></trkpt><trkpt lat="44.08236745640683" lon="12.52330599129403"><ele>9.0</ele><time>2026-04-24T14:15:56Z</time></trkpt><trkpt lat="44.0822405859015" lon="12.52353915982729"><ele>9.0</ele><time>2026-04-24T14:15:57Z</time></trkpt><trkpt lat="44.08212122498317" lon="12.523779666382932"><ele>9.0</ele><time>2026-04-24T14:15:58Z</time></trkpt><trkpt lat="44.082001748188816" lon="12.524023591379946"><ele>9.0</ele><time>2026-04-24T14:15:59Z</time></trkpt><trkpt lat="44.08188462794854" lon="12.524269962340396"><ele>9.0</ele><time>2026-04-24T14:16:00Z</time></trkpt><trkpt lat="44.081767042893645" lon="12.524512252072773"><ele>9.333333333333334</ele><time>2026-04-24T14:16:01Z</time></trkpt><trkpt lat="44.08164968443765" lon="12.524754623142815"><ele>9.666666666666668</ele><time>2026-04-24T14:16:02Z</time></trkpt><trkpt lat="44.081531692286205" lon="12.5249998829572"><ele>10.0</ele><time>2026-04-24T14:16:03Z</time></trkpt><trkpt lat="44.0814167137549" lon="12.525242549296141"><ele>9.333333333333334</ele><time>2026-04-24T14:16:04Z</time></trkpt><trkpt lat="44.08130578791369" lon="12.525480958491316"><ele>8.666666666666666</ele><time>2026-04-24T14:16:05Z</time></trkpt><trkpt lat="44.081201185878925" lon="12.525700627544472"><ele>8.0</ele><time>2026-04-24T14:16:06Z</time></trkpt><trkpt lat="44.08110433669411" lon="12.525911671943929"><ele>8.0</ele><time>2026-04-24T14:16:07Z</time></trkpt><trkpt lat="44.08100580411084" lon="12.526123556233202"><ele>8.0</ele><time>2026-04-24T14:16:08Z</time></trkpt><trkpt lat="44.08090603471143" lon="12.526337436684738"><ele>8.0</ele><time>2026-04-24T14:16:09Z</time></trkpt><trkpt lat="44.080804935540016" lon="12.52655062861323"><ele>8.666666666666666</ele><time>2026-04-24T14:16:10Z</time></trkpt><trkpt lat="44.08070558676122" lon="12.526766171992582"><ele>9.333333333333334</ele><time>2026-04-24T14:16:11Z</time></trkpt><trkpt lat="44.08060232631335" lon="12.52698279885377"><ele>10.0</ele><time>2026-04-24T14:16:12Z</time></trkpt><trkpt lat="44.08049694359086" lon="12.527201655871119"><ele>10.0</ele><time>2026-04-24T14:16:13Z</time></trkpt><trkpt lat="44.08039258816435" lon="12.527417316029998"><ele>10.0</ele><time>2026-04-24T14:16:14Z</time></trkpt><trkpt lat="44.08028864480285" lon="12.52763543342243"><ele>10.0</ele><time>2026-04-24T14:16:15Z</time></trkpt><trkpt lat="44.08018700088755" lon="12.527849782963937"><ele>10.0</ele><time>2026-04-24T14:16:16Z</time></trkpt><trkpt lat="44.080085292487084" lon="12.528066142414135"><ele>10.0</ele><time>2026-04-24T14:16:17Z</time></trkpt><trkpt lat="44.07997782137876" lon="12.528284007814412"><ele>10.0</ele><time>2026-04-24T14:16:18Z</time></trkpt><trkpt lat="44.07986884620861" lon="12.52849685507795"><ele>10.0</ele><time>2026-04-24T14:16:19Z</time></trkpt><trkpt lat="44.079760423529514" lon="12.528707513644076"><ele>10.0</ele><time>2026-04-24T14:16:20Z</time></trkpt><trkpt lat="44.07965015897108" lon="12.528916962266887"><ele>10.0</ele><time>2026-04-24T14:16:21Z</time></trkpt><trkpt lat="44.07953534810368" lon="12.529121341336328"><ele>9.666666666666668</ele><time>2026-04-24T14:16:22Z</time></trkpt><trkpt lat="44.07941796479707" lon="12.529321229708696"><ele>9.333333333333334</ele><time>2026-04-24T14:16:23Z</time></trkpt><trkpt lat="44.079301723117766" lon="12.529520635842644"><ele>9.0</ele><time>2026-04-24T14:16:24Z</time></trkpt><trkpt lat="44.07918440625589" lon="12.529723044492846"><ele>8.666666666666666</ele><time>2026-04-24T14:16:25Z</time></trkpt><trkpt lat="44.079068517197776" lon="12.529926869912819"><ele>8.333333333333332</ele><time>2026-04-24T14:16:26Z</time></trkpt><trkpt lat="44.0789524474203" lon="12.530134497229966"><ele>8.0</ele><time>2026-04-24T14:16:27Z</time></trkpt><trkpt lat="44.07883937352228" lon="12.530338940373538"><ele>8.0</ele><time>2026-04-24T14:16:28Z</time></trkpt><trkpt lat="44.07872493379103" lon="12.530546241565476"><ele>8.0</ele><time>2026-04-24T14:16:29Z</time></trkpt><trkpt lat="44.078608944106335" lon="12.53075647645721"><ele>8.0</ele><time>2026-04-24T14:16:30Z</time></trkpt><trkpt lat="44.07849411266226" lon="12.53096571410362"><ele>8.0</ele><time>2026-04-24T14:16:31Z</time></trkpt><trkpt lat="44.07837813532433" lon="12.531174805647721"><ele>8.0</ele><time>2026-04-24T14:16:32Z</time></trkpt><trkpt lat="44.07826219193721" lon="12.531380435846058"><ele>8.0</ele><time>2026-04-24T14:16:33Z</time></trkpt><trkpt lat="44.07814647821665" lon="12.531581691809961"><ele>8.333333333333332</ele><time>2026-04-24T14:16:34Z</time></trkpt><trkpt lat="44.07803000328964" lon="12.53178173929178"><ele>8.666666666666666</ele><time>2026-04-24T14:16:35Z</time></trkpt><trkpt lat="44.07792462850341" lon="12.531968346565463"><ele>9.0</ele><time>2026-04-24T14:16:36Z</time></trkpt><trkpt lat="44.077824436654595" lon="12.53214786499814"><ele>9.0</ele><time>2026-04-24T14:16:37Z</time></trkpt><trkpt lat="44.07772376379574" lon="12.532320314677904"><ele>9.0</ele><time>2026-04-24T14:16:38Z</time></trkpt><trkpt lat="44.07762756614027" lon="12.532482835862597"><ele>9.0</ele><time>2026-04-24T14:16:39Z</time></trkpt><trkpt lat="44.07753241647436" lon="12.53263939903299"><ele>9.0</ele><time>2026-04-24T14:16:40Z</time></trkpt><trkpt lat="44.07743490807097" lon="12.532797000032032"><ele>9.0</ele><time>2026-04-24T14:16:41Z</time></trkpt><trkpt lat="44.077335785368554" lon="12.532963065510069"><ele>9.0</ele><time>2026-04-24T14:16:42Z</time></trkpt><trkpt lat="44.07723488766584" lon="12.533138506295344"><ele>7.666666666666667</ele><time>2026-04-24T14:16:43Z</time></trkpt><trkpt lat="44.07712607899733" lon="12.533317351134155"><ele>6.333333333333334</ele><time>2026-04-24T14:16:44Z</time></trkpt><trkpt lat="44.07701573888027" lon="12.533501018654269"><ele>5.0</ele><time>2026-04-24T14:16:45Z</time></trkpt><trkpt lat="44.076899825295015" lon="12.533685585214744"><ele>6.0</ele><time>2026-04-24T14:16:46Z</time></trkpt><trkpt lat="44.076785013821905" lon="12.533875261078126"><ele>7.0</ele><time>2026-04-24T14:16:47Z</time></trkpt><trkpt lat="44.076668443227774" lon="12.534066674718044"><ele>8.0</ele><time>2026-04-24T14:16:48Z</time></trkpt><trkpt lat="44.0765505424678" lon="12.53425984990913"><ele>8.0</ele><time>2026-04-24T14:16:49Z</time></trkpt><trkpt lat="44.07643404387801" lon="12.534450183768241"><ele>8.0</ele><time>2026-04-24T14:16:50Z</time></trkpt><trkpt lat="44.076316716054556" lon="12.534642557172125"><ele>8.0</ele><time>2026-04-24T14:16:51Z</time></trkpt><trkpt lat="44.076197319712534" lon="12.534831709131561"><ele>8.0</ele><time>2026-04-24T14:16:52Z</time></trkpt><trkpt lat="44.07607906174623" lon="12.535018172637342"><ele>8.0</ele><time>2026-04-24T14:16:53Z</time></trkpt><trkpt lat="44.07596279687296" lon="12.535203968128153"><ele>8.0</ele><time>2026-04-24T14:16:54Z</time></trkpt><trkpt lat="44.07584669603708" lon="12.535390840811356"><ele>8.0</ele><time>2026-04-24T14:16:55Z</time></trkpt><trkpt lat="44.07573185232436" lon="12.535578708583094"><ele>8.0</ele><time>2026-04-24T14:16:56Z</time></trkpt><trkpt lat="44.07562097532315" lon="12.535766386149888"><ele>8.0</ele><time>2026-04-24T14:16:57Z</time></trkpt><trkpt lat="44.0755047814891" lon="12.535942686161691"><ele>8.0</ele><time>2026-04-24T14:16:58Z</time></trkpt><trkpt lat="44.075388217893824" lon="12.536121168195736"><ele>8.0</ele><time>2026-04-24T14:16:59Z</time></trkpt><trkpt lat="44.075276563535056" lon="12.536302890327942"><ele>8.0</ele><time>2026-04-24T14:17:00Z</time></trkpt><trkpt lat="44.0751653400462" lon="12.536485540199982"><ele>7.666666666666666</ele><time>2026-04-24T14:17:01Z</time></trkpt><trkpt lat="44.07505270595783" lon="12.536663470572064"><ele>7.333333333333334</ele><time>2026-04-24T14:17:02Z</time></trkpt><trkpt lat="44.07493936612524" lon="12.536837651274174"><ele>7.0</ele><time>2026-04-24T14:17:03Z</time></trkpt><trkpt lat="44.074817793429695" lon="12.537006160434501"><ele>6.666666666666667</ele><time>2026-04-24T14:17:04Z</time></trkpt><trkpt lat="44.074694671552635" lon="12.537180635716725"><ele>6.333333333333334</ele><time>2026-04-24T14:17:05Z</time></trkpt><trkpt lat="44.074562334083296" lon="12.537351568464873"><ele>6.0</ele><time>2026-04-24T14:17:06Z</time></trkpt><trkpt lat="44.07441844602988" lon="12.537520287993503"><ele>6.0</ele><time>2026-04-24T14:17:07Z</time></trkpt><trkpt lat="44.0742666237102" lon="12.53768934455722"><ele>6.0</ele><time>2026-04-24T14:17:08Z</time></trkpt><trkpt lat="44.07411290248832" lon="12.537862384935877"><ele>6.0</ele><time>2026-04-24T14:17:09Z</time></trkpt><trkpt lat="44.07395953166307" lon="12.538025855694306"><ele>6.333333333333334</ele><time>2026-04-24T14:17:10Z</time></trkpt><trkpt lat="44.07380857758102" lon="12.538190652843491"><ele>6.666666666666667</ele><time>2026-04-24T14:17:11Z</time></trkpt><trkpt lat="44.07365352538413" lon="12.53834613565149"><ele>7.0</ele><time>2026-04-24T14:17:12Z</time></trkpt><trkpt lat="44.07350072176531" lon="12.538493461300213"><ele>7.0</ele><time>2026-04-24T14:17:13Z</time></trkpt><trkpt lat="44.07334824340389" lon="12.53863579577347"><ele>7.0</ele><time>2026-04-24T14:17:14Z</time></trkpt><trkpt lat="44.07319654280726" lon="12.538774181428737"><ele>7.0</ele><time>2026-04-24T14:17:15Z</time></trkpt><trkpt lat="44.07304202161145" lon="12.538912843183883"><ele>7.0</ele><time>2026-04-24T14:17:16Z</time></trkpt><trkpt lat="44.07288936612302" lon="12.539048852969483"><ele>7.0</ele><time>2026-04-24T14:17:17Z</time></trkpt><trkpt lat="44.07273146146659" lon="12.539184336945064"><ele>7.0</ele><time>2026-04-24T14:17:18Z</time></trkpt><trkpt lat="44.07257014351525" lon="12.539313658843614"><ele>7.0</ele><time>2026-04-24T14:17:19Z</time></trkpt><trkpt lat="44.072408122219166" lon="12.539435723070602"><ele>7.0</ele><time>2026-04-24T14:17:20Z</time></trkpt><trkpt lat="44.07224073526766" lon="12.539556259462492"><ele>7.0</ele><time>2026-04-24T14:17:21Z</time></trkpt><trkpt lat="44.07207067122976" lon="12.539670310635236"><ele>7.0</ele><time>2026-04-24T14:17:22Z</time></trkpt><trkpt lat="44.07190237524505" lon="12.539782779231924"><ele>7.0</ele><time>2026-04-24T14:17:23Z</time></trkpt><trkpt lat="44.07173262755632" lon="12.53988741962329"><ele>7.0</ele><time>2026-04-24T14:17:24Z</time></trkpt><trkpt lat="44.071564087395785" lon="12.539991086406394"><ele>7.333333333333334</ele><time>2026-04-24T14:17:25Z</time></trkpt><trkpt lat="44.07139258613392" lon="12.540085401657217"><ele>7.666666666666666</ele><time>2026-04-24T14:17:26Z</time></trkpt><trkpt lat="44.07121817658332" lon="12.540177943905869"><ele>8.0</ele><time>2026-04-24T14:17:27Z</time></trkpt><trkpt lat="44.071043596703376" lon="12.540260633676112"><ele>8.0</ele><time>2026-04-24T14:17:28Z</time></trkpt><trkpt lat="44.0708662497713" lon="12.54034673012845"><ele>8.0</ele><time>2026-04-24T14:17:29Z</time></trkpt><trkpt lat="44.07068888036447" lon="12.540428217464193"><ele>8.0</ele><time>2026-04-24T14:17:30Z</time></trkpt><trkpt lat="44.07051386626031" lon="12.5405052223587"><ele>8.333333333333332</ele><time>2026-04-24T14:17:31Z</time></trkpt><trkpt lat="44.070331235634384" lon="12.540582476085733"><ele>8.666666666666666</ele><time>2026-04-24T14:17:32Z</time></trkpt><trkpt lat="44.07015235522053" lon="12.5406571755789"><ele>9.0</ele><time>2026-04-24T14:17:33Z</time></trkpt><trkpt lat="44.06997178542988" lon="12.54072448548566"><ele>8.333333333333334</ele><time>2026-04-24T14:17:34Z</time></trkpt><trkpt lat="44.06979254583157" lon="12.54078189963442"><ele>7.666666666666667</ele><time>2026-04-24T14:17:35Z</time></trkpt><trkpt lat="44.0696096091815" lon="12.54083231986181"><ele>7.0</ele><time>2026-04-24T14:17:36Z</time></trkpt><trkpt lat="44.06942629320847" lon="12.540887463869632"><ele>7.0</ele><time>2026-04-24T14:17:37Z</time></trkpt><trkpt lat="44.0692431094802" lon="12.54093569351417"><ele>7.0</ele><time>2026-04-24T14:17:38Z</time></trkpt><trkpt lat="44.06905941582512" lon="12.540972895197406"><ele>7.0</ele><time>2026-04-24T14:17:39Z</time></trkpt><trkpt lat="44.06887568415999" lon="12.541002764111576"><ele>7.333333333333334</ele><time>2026-04-24T14:17:40Z</time></trkpt><trkpt lat="44.06869026711665" lon="12.541030940597913"><ele>7.666666666666666</ele><time>2026-04-24T14:17:41Z</time></trkpt><trkpt lat="44.06850489264043" lon="12.541053198780144"><ele>8.0</ele><time>2026-04-24T14:17:42Z</time></trkpt><trkpt lat="44.06831879310619" lon="12.541073127173874"><ele>7.666666666666666</ele><time>2026-04-24T14:17:43Z</time></trkpt><trkpt lat="44.06813026582" lon="12.541100274337122"><ele>7.333333333333334</ele><time>2026-04-24T14:17:44Z</time></trkpt><trkpt lat="44.06794082971856" lon="12.541128748479814"><ele>7.0</ele><time>2026-04-24T14:17:45Z</time></trkpt><trkpt lat="44.06774940225625" lon="12.541129542610786"><ele>7.0</ele><time>2026-04-24T14:17:46Z</time></trkpt><trkpt lat="44.067559426564394" lon="12.541153453872207"><ele>7.0</ele><time>2026-04-24T14:17:47Z</time></trkpt><trkpt lat="44.06737421673836" lon="12.541197812127933"><ele>7.0</ele><time>2026-04-24T14:17:48Z</time></trkpt><trkpt lat="44.067191713816186" lon="12.541215637399185"><ele>7.666666666666667</ele><time>2026-04-24T14:17:49Z</time></trkpt><trkpt lat="44.06700723055407" lon="12.541234362943708"><ele>8.333333333333334</ele><time>2026-04-24T14:17:50Z</time></trkpt><trkpt lat="44.06682129309439" lon="12.541254333508043"><ele>9.0</ele><time>2026-04-24T14:17:51Z</time></trkpt><trkpt lat="44.06663468357774" lon="12.541282363682852"><ele>9.0</ele><time>2026-04-24T14:17:52Z</time></trkpt><trkpt lat="44.06644795244428" lon="12.541307512394354"><ele>9.0</ele><time>2026-04-24T14:17:53Z</time></trkpt><trkpt lat="44.06626468728617" lon="12.541334774065113"><ele>9.0</ele><time>2026-04-24T14:17:54Z</time></trkpt><trkpt lat="44.066081157911945" lon="12.541357547338194"><ele>9.0</ele><time>2026-04-24T14:17:55Z</time></trkpt><trkpt lat="44.065896667491025" lon="12.541379693787402"><ele>9.0</ele><time>2026-04-24T14:17:56Z</time></trkpt><trkpt lat="44.06570996753054" lon="12.541400677107562"><ele>9.0</ele><time>2026-04-24T14:17:57Z</time></trkpt><trkpt lat="44.06552329835618" lon="12.541413846387629"><ele>8.666666666666666</ele><time>2026-04-24T14:17:58Z</time></trkpt><trkpt lat="44.06534667302079" lon="12.541435804191613"><ele>8.333333333333332</ele><time>2026-04-24T14:17:59Z</time></trkpt><trkpt lat="44.06518421319969" lon="12.541455096801261"><ele>8.0</ele><time>2026-04-24T14:18:00Z</time></trkpt><trkpt lat="44.065037535964414" lon="12.541473007281633"><ele>7.75</ele><time>2026-04-24T14:18:01Z</time></trkpt><trkpt lat="44.06490192011261" lon="12.54148355706262"><ele>7.5</ele><time>2026-04-24T14:18:02Z</time></trkpt><trkpt lat="44.064779410644086" lon="12.541486249062254"><ele>7.25</ele><time>2026-04-24T14:18:03Z</time></trkpt><trkpt lat="44.06467561186095" lon="12.541481685633878"><ele>7.0</ele><time>2026-04-24T14:18:04Z</time></trkpt><trkpt lat="44.06458140514682" lon="12.541458119264782"><ele>7.000000000000001</ele><time>2026-04-24T14:18:05Z</time></trkpt><trkpt lat="44.064501524594505" lon="12.541421443870062"><ele>7.0</ele><time>2026-04-24T14:18:06Z</time></trkpt><trkpt lat="44.06443275787081" lon="12.541374520923565"><ele>7.0</ele><time>2026-04-24T14:18:07Z</time></trkpt><trkpt lat="44.064357081325184" lon="12.541295573874217"><ele>7.0</ele><time>2026-04-24T14:18:09Z</time></trkpt><trkpt lat="44.0643265355844" lon="12.541205403538662"><ele>7.000000000000001</ele><time>2026-04-24T14:18:22Z</time></trkpt><trkpt lat="44.064300285459865" lon="12.541075013214906"><ele>7.0</ele><time>2026-04-24T14:18:24Z</time></trkpt><trkpt lat="44.06426664877309" lon="12.540969714216228"><ele>7.0</ele><time>2026-04-24T14:18:25Z</time></trkpt><trkpt lat="44.064220670463214" lon="12.540882953968579"><ele>6.999999999999999</ele><time>2026-04-24T14:18:26Z</time></trkpt><trkpt lat="44.06414174011135" lon="12.54081000647354"><ele>6.999999999999999</ele><time>2026-04-24T14:18:27Z</time></trkpt><trkpt lat="44.064044279235986" lon="12.540772900866914"><ele>7.0</ele><time>2026-04-24T14:18:28Z</time></trkpt><trkpt lat="44.063933905704545" lon="12.540778317037512"><ele>7.0</ele><time>2026-04-24T14:18:29Z</time></trkpt><trkpt lat="44.06383069942738" lon="12.540832668149418"><ele>7.0</ele><time>2026-04-24T14:18:30Z</time></trkpt><trkpt lat="44.063739600760485" lon="12.540932780195202"><ele>7.0</ele><time>2026-04-24T14:18:31Z</time></trkpt><trkpt lat="44.06367113533886" lon="12.541067797894144"><ele>7.0</ele><time>2026-04-24T14:18:32Z</time></trkpt><trkpt lat="44.06364394773153" lon="12.541230177442912"><ele>7.0</ele><time>2026-04-24T14:18:33Z</time></trkpt><trkpt lat="44.06358468338201" lon="12.541373341261474"><ele>6.75</ele><time>2026-04-24T14:18:34Z</time></trkpt><trkpt lat="44.06353113009721" lon="12.541510385745053"><ele>6.5</ele><time>2026-04-24T14:18:35Z</time></trkpt><trkpt lat="44.063439967182525" lon="12.541615312861133"><ele>6.25</ele><time>2026-04-24T14:18:36Z</time></trkpt><trkpt lat="44.063312132717094" lon="12.541680068142016"><ele>6.0</ele><time>2026-04-24T14:18:37Z</time></trkpt><trkpt lat="44.06316974515056" lon="12.541681304315208"><ele>5.666666666666667</ele><time>2026-04-24T14:18:38Z</time></trkpt><trkpt lat="44.063017772986846" lon="12.54170878146771"><ele>5.333333333333334</ele><time>2026-04-24T14:18:39Z</time></trkpt><trkpt lat="44.06285677162505" lon="12.541727770330667"><ele>5.0</ele><time>2026-04-24T14:18:40Z</time></trkpt><trkpt lat="44.062689371170784" lon="12.541747394678403"><ele>5.0</ele><time>2026-04-24T14:18:41Z</time></trkpt><trkpt lat="44.06251377759899" lon="12.541768402201928"><ele>5.0</ele><time>2026-04-24T14:18:42Z</time></trkpt><trkpt lat="44.06233082276014" lon="12.541790622749843"><ele>5.0</ele><time>2026-04-24T14:18:43Z</time></trkpt><trkpt lat="44.062145815128765" lon="12.541812809052795"><ele>4.666666666666667</ele><time>2026-04-24T14:18:44Z</time></trkpt><trkpt lat="44.06196711265059" lon="12.541834447779905"><ele>4.333333333333333</ele><time>2026-04-24T14:18:45Z</time></trkpt><trkpt lat="44.06178453164306" lon="12.541856556139157"><ele>4.0</ele><time>2026-04-24T14:18:46Z</time></trkpt><trkpt lat="44.061607704651344" lon="12.541900104402472"><ele>4.0</ele><time>2026-04-24T14:18:47Z</time></trkpt><trkpt lat="44.06142970998718" lon="12.541920945752524"><ele>4.0</ele><time>2026-04-24T14:18:48Z</time></trkpt><trkpt lat="44.06124389364281" lon="12.541937892086077"><ele>4.0</ele><time>2026-04-24T14:18:49Z</time></trkpt><trkpt lat="44.06105806144968" lon="12.541956586412917"><ele>4.0</ele><time>2026-04-24T14:18:50Z</time></trkpt><trkpt lat="44.060865766717846" lon="12.541977808192469"><ele>4.0</ele><time>2026-04-24T14:18:51Z</time></trkpt><trkpt lat="44.06067454378973" lon="12.542000211045421"><ele>4.0</ele><time>2026-04-24T14:18:52Z</time></trkpt><trkpt lat="44.06048710185805" lon="12.542025236601274"><ele>5.333333333333333</ele><time>2026-04-24T14:18:53Z</time></trkpt><trkpt lat="44.06029733362003" lon="12.542050837877055"><ele>6.666666666666666</ele><time>2026-04-24T14:18:54Z</time></trkpt><trkpt lat="44.060094705796146" lon="12.542073569324229"><ele>8.0</ele><time>2026-04-24T14:18:55Z</time></trkpt><trkpt lat="44.05990226125361" lon="12.542106538203127"><ele>8.0</ele><time>2026-04-24T14:18:56Z</time></trkpt><trkpt lat="44.05971945253132" lon="12.542127559436647"><ele>8.0</ele><time>2026-04-24T14:18:57Z</time></trkpt><trkpt lat="44.059530763310825" lon="12.542151628546286"><ele>8.0</ele><time>2026-04-24T14:18:58Z</time></trkpt><trkpt lat="44.05933940858321" lon="12.54217732634742"><ele>8.0</ele><time>2026-04-24T14:18:59Z</time></trkpt><trkpt lat="44.05915200013934" lon="12.542194317041087"><ele>8.0</ele><time>2026-04-24T14:19:00Z</time></trkpt><trkpt lat="44.05896403804184" lon="12.542207533711906"><ele>8.0</ele><time>2026-04-24T14:19:01Z</time></trkpt><trkpt lat="44.05877679864495" lon="12.542229397324688"><ele>8.666666666666666</ele><time>2026-04-24T14:19:02Z</time></trkpt><trkpt lat="44.05859008212152" lon="12.542250757034209"><ele>9.333333333333334</ele><time>2026-04-24T14:19:03Z</time></trkpt><trkpt lat="44.05840384635653" lon="12.542266010105852"><ele>10.0</ele><time>2026-04-24T14:19:04Z</time></trkpt><trkpt lat="44.05819211040568" lon="12.542287581096351"><ele>11.0</ele><time>2026-04-24T14:19:05Z</time></trkpt><trkpt lat="44.05795958122803" lon="12.542315160148538"><ele>12.0</ele><time>2026-04-24T14:19:06Z</time></trkpt><trkpt lat="44.05770677263549" lon="12.542347739090092"><ele>11.5</ele><time>2026-04-24T14:19:07Z</time></trkpt><trkpt lat="44.05744726249101" lon="12.542379737593262"><ele>11.0</ele><time>2026-04-24T14:19:08Z</time></trkpt><trkpt lat="44.05721837722007" lon="12.542406381805428"><ele>11.0</ele><time>2026-04-24T14:19:09Z</time></trkpt><trkpt lat="44.05700869737869" lon="12.542433336469317"><ele>11.0</ele><time>2026-04-24T14:19:10Z</time></trkpt><trkpt lat="44.056806800663516" lon="12.542464388045204"><ele>11.0</ele><time>2026-04-24T14:19:11Z</time></trkpt><trkpt lat="44.0566177655377" lon="12.542509482017664"><ele>10.333333333333332</ele><time>2026-04-24T14:19:12Z</time></trkpt><trkpt lat="44.05643108379637" lon="12.542566179264078"><ele>9.666666666666666</ele><time>2026-04-24T14:19:13Z</time></trkpt><trkpt lat="44.05625062431349" lon="12.542632214205543"><ele>9.0</ele><time>2026-04-24T14:19:14Z</time></trkpt><trkpt lat="44.056076248911424" lon="12.542708839843677"><ele>9.0</ele><time>2026-04-24T14:19:15Z</time></trkpt><trkpt lat="44.05590096668843" lon="12.542788529409709"><ele>9.0</ele><time>2026-04-24T14:19:16Z</time></trkpt><trkpt lat="44.055719680787554" lon="12.542888888320848"><ele>9.0</ele><time>2026-04-24T14:19:17Z</time></trkpt><trkpt lat="44.05553093871159" lon="12.543014922643252"><ele>9.666666666666666</ele><time>2026-04-24T14:19:18Z</time></trkpt><trkpt lat="44.05534022603767" lon="12.543169130076182"><ele>10.333333333333332</ele><time>2026-04-24T14:19:19Z</time></trkpt><trkpt lat="44.055149493398126" lon="12.543342598513643"><ele>11.0</ele><time>2026-04-24T14:19:20Z</time></trkpt><trkpt lat="44.054962134025416" lon="12.543537490469541"><ele>9.5</ele><time>2026-04-24T14:19:21Z</time></trkpt><trkpt lat="44.054774797375245" lon="12.543739411923605"><ele>8.0</ele><time>2026-04-24T14:19:22Z</time></trkpt><trkpt lat="44.05459364929345" lon="12.543930809838352"><ele>8.0</ele><time>2026-04-24T14:19:23Z</time></trkpt><trkpt lat="44.054420934733" lon="12.544106368114662"><ele>8.0</ele><time>2026-04-24T14:19:24Z</time></trkpt><trkpt lat="44.05425284798002" lon="12.54427511541769"><ele>8.0</ele><time>2026-04-24T14:19:25Z</time></trkpt><trkpt lat="44.054092606512725" lon="12.544427923671822"><ele>8.0</ele><time>2026-04-24T14:19:26Z</time></trkpt><trkpt lat="44.0539394368491" lon="12.544579790559276"><ele>8.0</ele><time>2026-04-24T14:19:27Z</time></trkpt><trkpt lat="44.05378191147482" lon="12.544729846893256"><ele>8.0</ele><time>2026-04-24T14:19:28Z</time></trkpt><trkpt lat="44.053624016459885" lon="12.54488394081058"><ele>8.0</ele><time>2026-04-24T14:19:29Z</time></trkpt><trkpt lat="44.05346567878737" lon="12.545042705641393"><ele>8.0</ele><time>2026-04-24T14:19:30Z</time></trkpt><trkpt lat="44.05330265068748" lon="12.545201246829798"><ele>8.0</ele><time>2026-04-24T14:19:31Z</time></trkpt><trkpt lat="44.05314010380155" lon="12.545360992076631"><ele>8.0</ele><time>2026-04-24T14:19:32Z</time></trkpt><trkpt lat="44.05297373060318" lon="12.545524030406948"><ele>8.0</ele><time>2026-04-24T14:19:33Z</time></trkpt><trkpt lat="44.05280506766002" lon="12.54568165713212"><ele>8.0</ele><time>2026-04-24T14:19:34Z</time></trkpt><trkpt lat="44.05263352954138" lon="12.54584455174577"><ele>8.0</ele><time>2026-04-24T14:19:35Z</time></trkpt><trkpt lat="44.05246196250015" lon="12.546014365476768"><ele>8.0</ele><time>2026-04-24T14:19:36Z</time></trkpt><trkpt lat="44.05228780271617" lon="12.54618687419028"><ele>8.0</ele><time>2026-04-24T14:19:37Z</time></trkpt><trkpt lat="44.05211295771496" lon="12.546358088048725"><ele>8.666666666666666</ele><time>2026-04-24T14:19:38Z</time></trkpt><trkpt lat="44.051933790635566" lon="12.546527799791864"><ele>9.333333333333334</ele><time>2026-04-24T14:19:39Z</time></trkpt><trkpt lat="44.05175453513422" lon="12.546701310891462"><ele>10.0</ele><time>2026-04-24T14:19:40Z</time></trkpt><trkpt lat="44.05158084206725" lon="12.54687485520752"><ele>10.333333333333334</ele><time>2026-04-24T14:19:41Z</time></trkpt><trkpt lat="44.05141262920878" lon="12.547043934965627"><ele>10.666666666666666</ele><time>2026-04-24T14:19:42Z</time></trkpt><trkpt lat="44.05124810675958" lon="12.547207884527143"><ele>11.0</ele><time>2026-04-24T14:19:43Z</time></trkpt><trkpt lat="44.0510903339997" lon="12.547360530529362"><ele>11.0</ele><time>2026-04-24T14:19:44Z</time></trkpt><trkpt lat="44.05094147866878" lon="12.547509617211881"><ele>11.0</ele><time>2026-04-24T14:19:45Z</time></trkpt><trkpt lat="44.0508028734718" lon="12.547646289151023"><ele>11.0</ele><time>2026-04-24T14:19:46Z</time></trkpt><trkpt lat="44.050672683730085" lon="12.547773260759103"><ele>10.5</ele><time>2026-04-24T14:19:47Z</time></trkpt><trkpt lat="44.05054778946389" lon="12.547888930978507"><ele>10.0</ele><time>2026-04-24T14:19:48Z</time></trkpt><trkpt lat="44.050439483049665" lon="12.54798996370786"><ele>9.5</ele><time>2026-04-24T14:19:49Z</time></trkpt><trkpt lat="44.05034916407438" lon="12.548074876329181"><ele>9.0</ele><time>2026-04-24T14:19:50Z</time></trkpt><trkpt lat="44.05028242201847" lon="12.548142635979197"><ele>9.000000000000002</ele><time>2026-04-24T14:19:51Z</time></trkpt><trkpt lat="44.05022274665713" lon="12.548200272546351"><ele>9.0</ele><time>2026-04-24T14:19:52Z</time></trkpt><trkpt lat="44.05015999292887" lon="12.548244954902891"><ele>9.0</ele><time>2026-04-24T14:19:53Z</time></trkpt><trkpt lat="44.05009047578289" lon="12.548277039816917"><ele>9.0</ele><time>2026-04-24T14:19:54Z</time></trkpt><trkpt lat="44.05002609836876" lon="12.548303607190432"><ele>9.0</ele><time>2026-04-24T14:19:55Z</time></trkpt><trkpt lat="44.04996340756983" lon="12.548331249736915"><ele>9.000000000000002</ele><time>2026-04-24T14:19:56Z</time></trkpt><trkpt lat="44.04987906802742" lon="12.548353956415314"><ele>9.0</ele><time>2026-04-24T14:19:57Z</time></trkpt><trkpt lat="44.049784865252526" lon="12.548357491385362"><ele>8.4</ele><time>2026-04-24T14:19:58Z</time></trkpt><trkpt lat="44.04969959539984" lon="12.548371212808478"><ele>7.800000000000001</ele><time>2026-04-24T14:19:59Z</time></trkpt><trkpt lat="44.049632855841175" lon="12.548421886951258"><ele>7.199999999999999</ele><time>2026-04-24T14:20:00Z</time></trkpt><trkpt lat="44.04957448113789" lon="12.548513687142032"><ele>6.6</ele><time>2026-04-24T14:20:01Z</time></trkpt><trkpt lat="44.049532912879705" lon="12.548641825663994"><ele>6.0</ele><time>2026-04-24T14:20:02Z</time></trkpt><trkpt lat="44.0495304006991" lon="12.548783056068267"><ele>5.666666666666667</ele><time>2026-04-24T14:20:03Z</time></trkpt><trkpt lat="44.04953040069766" lon="12.54890985384227"><ele>5.333333333333334</ele><time>2026-04-24T14:20:04Z</time></trkpt><trkpt lat="44.049526261271104" lon="12.549008423974833"><ele>5.0</ele><time>2026-04-24T14:20:05Z</time></trkpt><trkpt lat="44.04922096111508" lon="12.549179503739586"><ele>5.0</ele><time>2026-04-24T14:20:07Z</time></trkpt><trkpt lat="44.049156640901415" lon="12.549245263892077"><ele>5.0</ele><time>2026-04-24T14:20:08Z</time></trkpt><trkpt lat="44.049095539363464" lon="12.549306032264099"><ele>5.0</ele><time>2026-04-24T14:20:09Z</time></trkpt><trkpt lat="44.04903585746505" lon="12.549359052646738"><ele>5.0</ele><time>2026-04-24T14:20:10Z</time></trkpt><trkpt lat="44.048972055948056" lon="12.549413484994187"><ele>5.0</ele><time>2026-04-24T14:20:11Z</time></trkpt><trkpt lat="44.04891009168292" lon="12.549473012315772"><ele>5.0</ele><time>2026-04-24T14:20:12Z</time></trkpt><trkpt lat="44.048851079650014" lon="12.54953312283609"><ele>5.0</ele><time>2026-04-24T14:20:13Z</time></trkpt><trkpt lat="44.04878249205227" lon="12.549599981723896"><ele>5.0</ele><time>2026-04-24T14:20:14Z</time></trkpt><trkpt lat="44.04870951087043" lon="12.549667801784052"><ele>5.0</ele><time>2026-04-24T14:20:15Z</time></trkpt><trkpt lat="44.0486440978765" lon="12.54973300226214"><ele>5.0</ele><time>2026-04-24T14:20:16Z</time></trkpt><trkpt lat="44.04858296453438" lon="12.54978930608538"><ele>5.0</ele><time>2026-04-24T14:20:17Z</time></trkpt><trkpt lat="44.04851347360243" lon="12.549853889060435"><ele>5.0</ele><time>2026-04-24T14:20:18Z</time></trkpt><trkpt lat="44.04842537317458" lon="12.549926719205759"><ele>5.0</ele><time>2026-04-24T14:20:19Z</time></trkpt><trkpt lat="44.04833856442101" lon="12.54998861087479"><ele>5.833333333333334</ele><time>2026-04-24T14:20:20Z</time></trkpt><trkpt lat="44.048273572154685" lon="12.550056239017373"><ele>6.666666666666667</ele><time>2026-04-24T14:20:21Z</time></trkpt><trkpt lat="44.04821792053353" lon="12.550107323887957"><ele>7.5</ele><time>2026-04-24T14:20:22Z</time></trkpt><trkpt lat="44.04813942892235" lon="12.550191664415781"><ele>8.333333333333334</ele><time>2026-04-24T14:20:24Z</time></trkpt><trkpt lat="44.04804468208731" lon="12.550292146873305"><ele>9.166666666666668</ele><time>2026-04-24T14:20:26Z</time></trkpt><trkpt lat="44.04797522654454" lon="12.550351671895909"><ele>10.0</ele><time>2026-04-24T14:20:27Z</time></trkpt><trkpt lat="44.04789332057321" lon="12.55041864616431"><ele>10.0</ele><time>2026-04-24T14:20:28Z</time></trkpt><trkpt lat="44.047816023376555" lon="12.550498211263193"><ele>10.0</ele><time>2026-04-24T14:20:29Z</time></trkpt><trkpt lat="44.047750941029605" lon="12.550566625813318"><ele>10.0</ele><time>2026-04-24T14:20:30Z</time></trkpt><trkpt lat="44.04765811363348" lon="12.55068734308803"><ele>10.0</ele><time>2026-04-24T14:20:32Z</time></trkpt><trkpt lat="44.047594721504154" lon="12.550742283682894"><ele>10.0</ele><time>2026-04-24T14:20:33Z</time></trkpt><trkpt lat="44.047533860060604" lon="12.550824135491107"><ele>10.0</ele><time>2026-04-24T14:20:34Z</time></trkpt><trkpt lat="44.04747014311103" lon="12.550899526029037"><ele>10.0</ele><time>2026-04-24T14:20:35Z</time></trkpt><trkpt lat="44.04741504938322" lon="12.550959151046312"><ele>10.0</ele><time>2026-04-24T14:20:36Z</time></trkpt><trkpt lat="44.04733710112505" lon="12.551065379682258"><ele>10.0</ele><time>2026-04-24T14:20:38Z</time></trkpt><trkpt lat="44.04725209558583" lon="12.55115738944558"><ele>10.0</ele><time>2026-04-24T14:20:40Z</time></trkpt><trkpt lat="44.04718843594571" lon="12.551230023786864"><ele>10.4</ele><time>2026-04-24T14:20:43Z</time></trkpt><trkpt lat="44.04709924250078" lon="12.55136936789289"><ele>10.8</ele><time>2026-04-24T14:20:52Z</time></trkpt><trkpt lat="44.047031579353536" lon="12.551469946982062"><ele>11.2</ele><time>2026-04-24T14:20:53Z</time></trkpt><trkpt lat="44.04697268724392" lon="12.551529307654084"><ele>11.6</ele><time>2026-04-24T14:20:54Z</time></trkpt><trkpt lat="44.046897596658376" lon="12.551608221969726"><ele>12.0</ele><time>2026-04-24T14:20:55Z</time></trkpt><trkpt lat="44.046836627084026" lon="12.551710178180544"><ele>12.0</ele><time>2026-04-24T14:20:56Z</time></trkpt><trkpt lat="44.04677385699801" lon="12.551807607172043"><ele>12.0</ele><time>2026-04-24T14:20:57Z</time></trkpt><trkpt lat="44.046724193155704" lon="12.551902395026652"><ele>12.0</ele><time>2026-04-24T14:20:58Z</time></trkpt><trkpt lat="44.046671969678656" lon="12.551987466588207"><ele>12.0</ele><time>2026-04-24T14:20:59Z</time></trkpt><trkpt lat="44.04662416515349" lon="12.552056219496508"><ele>12.0</ele><time>2026-04-24T14:21:00Z</time></trkpt><trkpt lat="44.04656461081988" lon="12.552145062320493"><ele>12.0</ele><time>2026-04-24T14:21:01Z</time></trkpt><trkpt lat="44.04651227362368" lon="12.552219551083384"><ele>12.0</ele><time>2026-04-24T14:21:02Z</time></trkpt><trkpt lat="44.04647090921553" lon="12.552292414863413"><ele>12.0</ele><time>2026-04-24T14:21:03Z</time></trkpt><trkpt lat="44.04643388216264" lon="12.552367027069433"><ele>12.0</ele><time>2026-04-24T14:21:04Z</time></trkpt><trkpt lat="44.046356462212316" lon="12.552482498957344"><ele>12.0</ele><time>2026-04-24T14:21:06Z</time></trkpt><trkpt lat="44.04630008824775" lon="12.552542699124517"><ele>12.0</ele><time>2026-04-24T14:21:07Z</time></trkpt><trkpt lat="44.0462286511265" lon="12.552599070230412"><ele>12.0</ele><time>2026-04-24T14:21:08Z</time></trkpt><trkpt lat="44.046149725684316" lon="12.5526362221691"><ele>12.0</ele><time>2026-04-24T14:21:09Z</time></trkpt><trkpt lat="44.04608408142231" lon="12.552667263663723"><ele>12.0</ele><time>2026-04-24T14:21:10Z</time></trkpt><trkpt lat="44.04599017446456" lon="12.552799189417584"><ele>12.0</ele><time>2026-04-24T14:21:12Z</time></trkpt><trkpt lat="44.04596799712982" lon="12.55290815642738"><ele>12.0</ele><time>2026-04-24T14:21:13Z</time></trkpt><trkpt lat="44.04596642459144" lon="12.55304175998337"><ele>12.0</ele><time>2026-04-24T14:21:14Z</time></trkpt><trkpt lat="44.04596451849204" lon="12.553177350328685"><ele>12.25</ele><time>2026-04-24T14:21:15Z</time></trkpt><trkpt lat="44.045941969536536" lon="12.553326684089392"><ele>12.5</ele><time>2026-04-24T14:21:16Z</time></trkpt><trkpt lat="44.04589579609759" lon="12.55347590664162"><ele>12.75</ele><time>2026-04-24T14:21:17Z</time></trkpt><trkpt lat="44.04583366392851" lon="12.553622256306197"><ele>13.0</ele><time>2026-04-24T14:21:18Z</time></trkpt><trkpt lat="44.045764047709966" lon="12.55378305900679"><ele>13.0</ele><time>2026-04-24T14:21:19Z</time></trkpt><trkpt lat="44.045698886210275" lon="12.553948707197176"><ele>13.0</ele><time>2026-04-24T14:21:20Z</time></trkpt><trkpt lat="44.04563923198575" lon="12.554119216953477"><ele>13.0</ele><time>2026-04-24T14:21:21Z</time></trkpt><trkpt lat="44.04558112105312" lon="12.554288123299486"><ele>13.0</ele><time>2026-04-24T14:21:22Z</time></trkpt><trkpt lat="44.045528724997375" lon="12.554450089100769"><ele>12.5</ele><time>2026-04-24T14:21:23Z</time></trkpt><trkpt lat="44.045476752911505" lon="12.554609893344292"><ele>12.0</ele><time>2026-04-24T14:21:24Z</time></trkpt><trkpt lat="44.045427598609244" lon="12.554773746722429"><ele>11.5</ele><time>2026-04-24T14:21:25Z</time></trkpt><trkpt lat="44.045378434797406" lon="12.554942312080879"><ele>11.0</ele><time>2026-04-24T14:21:26Z</time></trkpt><trkpt lat="44.04533057783792" lon="12.555112822919764"><ele>11.0</ele><time>2026-04-24T14:21:27Z</time></trkpt><trkpt lat="44.04528286207946" lon="12.55528985214567"><ele>11.0</ele><time>2026-04-24T14:21:28Z</time></trkpt><trkpt lat="44.045234787608415" lon="12.555471351844076"><ele>11.0</ele><time>2026-04-24T14:21:29Z</time></trkpt><trkpt lat="44.04518474097468" lon="12.55566062382824"><ele>11.0</ele><time>2026-04-24T14:21:30Z</time></trkpt><trkpt lat="44.0451353182646" lon="12.55585202423691"><ele>10.75</ele><time>2026-04-24T14:21:31Z</time></trkpt><trkpt lat="44.0450840084214" lon="12.55604025109786"><ele>10.5</ele><time>2026-04-24T14:21:32Z</time></trkpt><trkpt lat="44.04503419611151" lon="12.55623137710436"><ele>10.25</ele><time>2026-04-24T14:21:33Z</time></trkpt><trkpt lat="44.04498267080171" lon="12.556417968132479"><ele>10.0</ele><time>2026-04-24T14:21:34Z</time></trkpt><trkpt lat="44.04493708409411" lon="12.556595116789335"><ele>9.75</ele><time>2026-04-24T14:21:35Z</time></trkpt><trkpt lat="44.04489488265727" lon="12.556760750019448"><ele>9.5</ele><time>2026-04-24T14:21:36Z</time></trkpt><trkpt lat="44.04485014449251" lon="12.556915820650381"><ele>9.25</ele><time>2026-04-24T14:21:37Z</time></trkpt><trkpt lat="44.044808646070585" lon="12.557062846867646"><ele>9.0</ele><time>2026-04-24T14:21:38Z</time></trkpt><trkpt lat="44.044773702762406" lon="12.557203311672309"><ele>9.333333333333334</ele><time>2026-04-24T14:21:39Z</time></trkpt><trkpt lat="44.044740311210504" lon="12.557328519403885"><ele>9.666666666666666</ele><time>2026-04-24T14:21:40Z</time></trkpt><trkpt lat="44.04470941277149" lon="12.557454917234436"><ele>10.0</ele><time>2026-04-24T14:21:41Z</time></trkpt><trkpt lat="44.04468499381911" lon="12.557549866600146"><ele>10.333333333333332</ele><time>2026-04-24T14:21:42Z</time></trkpt><trkpt lat="44.04465455294752" lon="12.557656199137396"><ele>10.666666666666666</ele><time>2026-04-24T14:21:44Z</time></trkpt><trkpt lat="44.044618417291446" lon="12.557785244365338"><ele>11.0</ele><time>2026-04-24T14:21:47Z</time></trkpt><trkpt lat="44.044585180111824" lon="12.557905534404329"><ele>11.0</ele><time>2026-04-24T14:21:49Z</time></trkpt><trkpt lat="44.044562011452946" lon="12.558001950513868"><ele>11.0</ele><time>2026-04-24T14:21:51Z</time></trkpt><trkpt lat="44.04452560977342" lon="12.558088970423487"><ele>11.0</ele><time>2026-04-24T14:21:53Z</time></trkpt><trkpt lat="44.04449444859419" lon="12.558212685333011"><ele>11.0</ele><time>2026-04-24T14:21:55Z</time></trkpt><trkpt lat="44.04446815796129" lon="12.558324458969482"><ele>11.0</ele><time>2026-04-24T14:21:57Z</time></trkpt><trkpt lat="44.04443139470102" lon="12.558445452409389"><ele>11.0</ele><time>2026-04-24T14:21:59Z</time></trkpt><trkpt lat="44.044414686276525" lon="12.558537326297817"><ele>11.0</ele><time>2026-04-24T14:22:00Z</time></trkpt><trkpt lat="44.04439345853522" lon="12.558645337014942"><ele>11.0</ele><time>2026-04-24T14:22:01Z</time></trkpt><trkpt lat="44.04436739309034" lon="12.558734903477658"><ele>11.0</ele><time>2026-04-24T14:22:02Z</time></trkpt><trkpt lat="44.04434766349241" lon="12.558834332327857"><ele>11.0</ele><time>2026-04-24T14:22:04Z</time></trkpt><trkpt lat="44.04431290309929" lon="12.558938417685322"><ele>11.0</ele><time>2026-04-24T14:22:06Z</time></trkpt><trkpt lat="44.04426802940454" lon="12.559102237179248"><ele>11.0</ele><time>2026-04-24T14:22:08Z</time></trkpt><trkpt lat="44.04424139225842" lon="12.559201491919842"><ele>10.833333333333332</ele><time>2026-04-24T14:22:09Z</time></trkpt><trkpt lat="44.04423306200692" lon="12.559298762200651"><ele>10.666666666666666</ele><time>2026-04-24T14:22:10Z</time></trkpt><trkpt lat="44.04418828031024" lon="12.559360782735384"><ele>10.5</ele><time>2026-04-24T14:22:11Z</time></trkpt><trkpt lat="44.04412990731233" lon="12.559410000312807"><ele>10.333333333333334</ele><time>2026-04-24T14:22:12Z</time></trkpt><trkpt lat="44.04405240663399" lon="12.559457710857327"><ele>10.166666666666668</ele><time>2026-04-24T14:22:13Z</time></trkpt><trkpt lat="44.043967709725244" lon="12.559502359297333"><ele>10.0</ele><time>2026-04-24T14:22:14Z</time></trkpt><trkpt lat="44.04389504113215" lon="12.5595517188765"><ele>10.4</ele><time>2026-04-24T14:22:15Z</time></trkpt><trkpt lat="44.04383610799592" lon="12.559634814421399"><ele>10.8</ele><time>2026-04-24T14:22:16Z</time></trkpt><trkpt lat="44.04381261149472" lon="12.55974769001544"><ele>11.2</ele><time>2026-04-24T14:22:17Z</time></trkpt><trkpt lat="44.04382293237548" lon="12.559872551279533"><ele>11.6</ele><time>2026-04-24T14:22:18Z</time></trkpt><trkpt lat="44.04386514574154" lon="12.560000454281413"><ele>12.0</ele><time>2026-04-24T14:22:19Z</time></trkpt><trkpt lat="44.04391129658756" lon="12.56013655304535"><ele>12.0</ele><time>2026-04-24T14:22:20Z</time></trkpt><trkpt lat="44.04393622335624" lon="12.56028588046088"><ele>12.0</ele><time>2026-04-24T14:22:21Z</time></trkpt><trkpt lat="44.04393702418899" lon="12.560448726530803"><ele>12.0</ele><time>2026-04-24T14:22:22Z</time></trkpt><trkpt lat="44.04387434636716" lon="12.56060260895373"><ele>12.0</ele><time>2026-04-24T14:22:23Z</time></trkpt><trkpt lat="44.043835658436876" lon="12.56078374524485"><ele>12.0</ele><time>2026-04-24T14:22:24Z</time></trkpt><trkpt lat="44.04377037594125" lon="12.56098865374493"><ele>12.0</ele><time>2026-04-24T14:22:25Z</time></trkpt><trkpt lat="44.04371502308756" lon="12.561177648418937"><ele>12.0</ele><time>2026-04-24T14:22:26Z</time></trkpt><trkpt lat="44.04366282634901" lon="12.561359829118931"><ele>12.0</ele><time>2026-04-24T14:22:27Z</time></trkpt><trkpt lat="44.04361337565861" lon="12.561545527877808"><ele>12.0</ele><time>2026-04-24T14:22:28Z</time></trkpt><trkpt lat="44.04355951741635" lon="12.561746737937291"><ele>12.0</ele><time>2026-04-24T14:22:29Z</time></trkpt><trkpt lat="44.043504987180015" lon="12.561956209621572"><ele>12.0</ele><time>2026-04-24T14:22:30Z</time></trkpt><trkpt lat="44.04344638282514" lon="12.562175863066683"><ele>11.333333333333334</ele><time>2026-04-24T14:22:31Z</time></trkpt><trkpt lat="44.04338509817544" lon="12.562404319232586"><ele>10.666666666666668</ele><time>2026-04-24T14:22:32Z</time></trkpt><trkpt lat="44.043324421927046" lon="12.562635123588489"><ele>10.0</ele><time>2026-04-24T14:22:33Z</time></trkpt><trkpt lat="44.04326409003213" lon="12.562863337795505"><ele>9.333333333333334</ele><time>2026-04-24T14:22:34Z</time></trkpt><trkpt lat="44.04320424297862" lon="12.563077584422102"><ele>8.666666666666666</ele><time>2026-04-24T14:22:35Z</time></trkpt><trkpt lat="44.04314800204383" lon="12.563273490664827"><ele>8.0</ele><time>2026-04-24T14:22:36Z</time></trkpt><trkpt lat="44.04309766707605" lon="12.563468153220503"><ele>8.0</ele><time>2026-04-24T14:22:37Z</time></trkpt><trkpt lat="44.04305098174598" lon="12.563659850623045"><ele>8.0</ele><time>2026-04-24T14:22:38Z</time></trkpt><trkpt lat="44.043002687790214" lon="12.563851651445477"><ele>8.0</ele><time>2026-04-24T14:22:39Z</time></trkpt><trkpt lat="44.04294921615649" lon="12.564049449200395"><ele>8.0</ele><time>2026-04-24T14:22:40Z</time></trkpt><trkpt lat="44.04289790850597" lon="12.564251653225233"><ele>8.0</ele><time>2026-04-24T14:22:41Z</time></trkpt><trkpt lat="44.042846790574764" lon="12.564453969980326"><ele>8.0</ele><time>2026-04-24T14:22:42Z</time></trkpt><trkpt lat="44.04279175885251" lon="12.564651693500506"><ele>8.0</ele><time>2026-04-24T14:22:43Z</time></trkpt><trkpt lat="44.04273850208598" lon="12.564844609813758"><ele>8.333333333333332</ele><time>2026-04-24T14:22:44Z</time></trkpt><trkpt lat="44.042689606014974" lon="12.56504260778941"><ele>8.666666666666666</ele><time>2026-04-24T14:22:45Z</time></trkpt><trkpt lat="44.042640955355104" lon="12.565244146134004"><ele>9.0</ele><time>2026-04-24T14:22:46Z</time></trkpt><trkpt lat="44.04258805772964" lon="12.56544594540207"><ele>9.0</ele><time>2026-04-24T14:22:47Z</time></trkpt><trkpt lat="44.042539881845165" lon="12.56565011052699"><ele>9.0</ele><time>2026-04-24T14:22:48Z</time></trkpt><trkpt lat="44.04249545718121" lon="12.565852902431724"><ele>9.0</ele><time>2026-04-24T14:22:49Z</time></trkpt><trkpt lat="44.04245411056608" lon="12.566053416799374"><ele>9.0</ele><time>2026-04-24T14:22:50Z</time></trkpt><trkpt lat="44.04241762316835" lon="12.56625870234828"><ele>9.0</ele><time>2026-04-24T14:22:51Z</time></trkpt><trkpt lat="44.04238541090123" lon="12.566471066534996"><ele>9.0</ele><time>2026-04-24T14:22:52Z</time></trkpt><trkpt lat="44.042351250775226" lon="12.56668657531766"><ele>9.0</ele><time>2026-04-24T14:22:53Z</time></trkpt><trkpt lat="44.042320501145355" lon="12.566904031738778"><ele>9.0</ele><time>2026-04-24T14:22:54Z</time></trkpt><trkpt lat="44.042293938630515" lon="12.567123253723139"><ele>9.0</ele><time>2026-04-24T14:22:55Z</time></trkpt><trkpt lat="44.04226901540471" lon="12.567352013945976"><ele>10.0</ele><time>2026-04-24T14:22:56Z</time></trkpt><trkpt lat="44.04224745999066" lon="12.56758246714107"><ele>11.0</ele><time>2026-04-24T14:22:57Z</time></trkpt><trkpt lat="44.042222329424085" lon="12.567817169494614"><ele>12.0</ele><time>2026-04-24T14:22:58Z</time></trkpt><trkpt lat="44.04220685674919" lon="12.568045432162114"><ele>12.0</ele><time>2026-04-24T14:22:59Z</time></trkpt><trkpt lat="44.042193693125206" lon="12.568254493635656"><ele>12.0</ele><time>2026-04-24T14:23:00Z</time></trkpt><trkpt lat="44.04217971248131" lon="12.568456627263009"><ele>12.0</ele><time>2026-04-24T14:23:01Z</time></trkpt><trkpt lat="44.04216903923974" lon="12.568665567535371"><ele>12.0</ele><time>2026-04-24T14:23:02Z</time></trkpt><trkpt lat="44.04215726486263" lon="12.568863242419384"><ele>11.25</ele><time>2026-04-24T14:23:03Z</time></trkpt><trkpt lat="44.042146023350796" lon="12.5690478057236"><ele>10.5</ele><time>2026-04-24T14:23:04Z</time></trkpt><trkpt lat="44.04213827829147" lon="12.569226036340174"><ele>9.75</ele><time>2026-04-24T14:23:05Z</time></trkpt><trkpt lat="44.04212899273368" lon="12.569379959288414"><ele>9.0</ele><time>2026-04-24T14:23:06Z</time></trkpt><trkpt lat="44.042118272929265" lon="12.569507680083634"><ele>8.666666666666666</ele><time>2026-04-24T14:23:07Z</time></trkpt><trkpt lat="44.04211118308403" lon="12.569626680280027"><ele>8.333333333333334</ele><time>2026-04-24T14:23:08Z</time></trkpt><trkpt lat="44.042101523520955" lon="12.569737487055377"><ele>8.0</ele><time>2026-04-24T14:23:09Z</time></trkpt><trkpt lat="44.04209224108469" lon="12.569839592810819"><ele>7.666666666666667</ele><time>2026-04-24T14:23:10Z</time></trkpt><trkpt lat="44.04208609309184" lon="12.569940551111749"><ele>7.333333333333334</ele><time>2026-04-24T14:23:11Z</time></trkpt><trkpt lat="44.042079990803984" lon="12.570037421611927"><ele>7.0</ele><time>2026-04-24T14:23:12Z</time></trkpt><trkpt lat="44.04207517486392" lon="12.570130432617486"><ele>7.000000000000001</ele><time>2026-04-24T14:23:13Z</time></trkpt><trkpt lat="44.04204355955418" lon="12.570281627952046"><ele>7.0</ele><time>2026-04-24T14:23:15Z</time></trkpt><trkpt lat="44.04196868657085" lon="12.57037717413603"><ele>7.0</ele><time>2026-04-24T14:23:17Z</time></trkpt><trkpt lat="44.041874305235986" lon="12.570414246172335"><ele>7.0</ele><time>2026-04-24T14:23:19Z</time></trkpt><trkpt lat="44.0418114653338" lon="12.570434561168494"><ele>7.000000000000001</ele><time>2026-04-24T14:23:20Z</time></trkpt><trkpt lat="44.04174817260675" lon="12.570448234859287"><ele>7.0</ele><time>2026-04-24T14:23:21Z</time></trkpt><trkpt lat="44.04168067910793" lon="12.57046864108556"><ele>6.833333333333334</ele><time>2026-04-24T14:23:22Z</time></trkpt><trkpt lat="44.04161324200767" lon="12.570508323224796"><ele>6.666666666666667</ele><time>2026-04-24T14:23:23Z</time></trkpt><trkpt lat="44.04153968724129" lon="12.570559512796853"><ele>6.5</ele><time>2026-04-24T14:23:24Z</time></trkpt><trkpt lat="44.04146234203227" lon="12.57062818402288"><ele>6.333333333333334</ele><time>2026-04-24T14:23:25Z</time></trkpt><trkpt lat="44.04139022859928" lon="12.570719106913248"><ele>6.166666666666667</ele><time>2026-04-24T14:23:26Z</time></trkpt><trkpt lat="44.04133837228533" lon="12.570829414465878"><ele>6.0</ele><time>2026-04-24T14:23:27Z</time></trkpt><trkpt lat="44.04130206909487" lon="12.570953985325847"><ele>6.0</ele><time>2026-04-24T14:23:28Z</time></trkpt><trkpt lat="44.041282024150895" lon="12.571087560384958"><ele>6.0</ele><time>2026-04-24T14:23:29Z</time></trkpt><trkpt lat="44.04128531441074" lon="12.571213023715947"><ele>6.0</ele><time>2026-04-24T14:23:30Z</time></trkpt><trkpt lat="44.04129350659022" lon="12.571329757899596"><ele>6.0</ele><time>2026-04-24T14:23:31Z</time></trkpt><trkpt lat="44.04130462285273" lon="12.571464756683971"><ele>6.0</ele><time>2026-04-24T14:23:32Z</time></trkpt><trkpt lat="44.04131530213693" lon="12.571621770470902"><ele>6.0</ele><time>2026-04-24T14:23:33Z</time></trkpt><trkpt lat="44.04131388754226" lon="12.571811382102629"><ele>6.0</ele><time>2026-04-24T14:23:34Z</time></trkpt><trkpt lat="44.04129750152864" lon="12.5720009168985"><ele>6.0</ele><time>2026-04-24T14:23:35Z</time></trkpt><trkpt lat="44.04129680410972" lon="12.57218771742651"><ele>6.0</ele><time>2026-04-24T14:23:36Z</time></trkpt><trkpt lat="44.04133686233766" lon="12.572368392020056"><ele>7.666666666666666</ele><time>2026-04-24T14:23:37Z</time></trkpt><trkpt lat="44.04140749874303" lon="12.572549492647816"><ele>9.333333333333332</ele><time>2026-04-24T14:23:38Z</time></trkpt><trkpt lat="44.04149521230886" lon="12.572724732414066"><ele>11.0</ele><time>2026-04-24T14:23:39Z</time></trkpt><trkpt lat="44.04158315169256" lon="12.572897893496252"><ele>10.333333333333332</ele><time>2026-04-24T14:23:40Z</time></trkpt><trkpt lat="44.041666500271994" lon="12.57307595212479"><ele>9.666666666666666</ele><time>2026-04-24T14:23:41Z</time></trkpt><trkpt lat="44.04174260157826" lon="12.573263780236001"><ele>9.0</ele><time>2026-04-24T14:23:42Z</time></trkpt><trkpt lat="44.04179983044467" lon="12.573467147597094"><ele>9.0</ele><time>2026-04-24T14:23:43Z</time></trkpt><trkpt lat="44.0418421069073" lon="12.57368550259602"><ele>9.0</ele><time>2026-04-24T14:23:44Z</time></trkpt><trkpt lat="44.04186776576707" lon="12.573908828473622"><ele>9.0</ele><time>2026-04-24T14:23:45Z</time></trkpt><trkpt lat="44.04187532862696" lon="12.574133300809008"><ele>9.333333333333334</ele><time>2026-04-24T14:23:46Z</time></trkpt><trkpt lat="44.04187149515989" lon="12.574357893953891"><ele>9.666666666666668</ele><time>2026-04-24T14:23:47Z</time></trkpt><trkpt lat="44.041861262960985" lon="12.574587182299338"><ele>10.0</ele><time>2026-04-24T14:23:48Z</time></trkpt><trkpt lat="44.04184504512423" lon="12.574819043768036"><ele>10.25</ele><time>2026-04-24T14:23:49Z</time></trkpt><trkpt lat="44.041831789179525" lon="12.575029868815472"><ele>10.5</ele><time>2026-04-24T14:23:50Z</time></trkpt><trkpt lat="44.04181343101611" lon="12.575216019229147"><ele>10.75</ele><time>2026-04-24T14:23:51Z</time></trkpt><trkpt lat="44.0417924165923" lon="12.575371921293232"><ele>11.0</ele><time>2026-04-24T14:23:52Z</time></trkpt><trkpt lat="44.04177021871242" lon="12.575501060743772"><ele>11.0</ele><time>2026-04-24T14:23:53Z</time></trkpt><trkpt lat="44.041747656446745" lon="12.57561518150512"><ele>11.0</ele><time>2026-04-24T14:23:54Z</time></trkpt><trkpt lat="44.0417059547759" lon="12.575726107653656"><ele>11.0</ele><time>2026-04-24T14:23:55Z</time></trkpt><trkpt lat="44.04165092083195" lon="12.575852624700639"><ele>11.0</ele><time>2026-04-24T14:23:56Z</time></trkpt><trkpt lat="44.04161020381884" lon="12.575970943054552"><ele>11.0</ele><time>2026-04-24T14:23:57Z</time></trkpt><trkpt lat="44.041597879870324" lon="12.576089345400687"><ele>10.75</ele><time>2026-04-24T14:23:58Z</time></trkpt><trkpt lat="44.04161491344554" lon="12.576218455695749"><ele>10.5</ele><time>2026-04-24T14:23:59Z</time></trkpt><trkpt lat="44.04165900150576" lon="12.576365861487483"><ele>10.25</ele><time>2026-04-24T14:24:00Z</time></trkpt><trkpt lat="44.041703635997635" lon="12.576529892852482"><ele>10.0</ele><time>2026-04-24T14:24:01Z</time></trkpt><trkpt lat="44.04173229893054" lon="12.576716338045795"><ele>10.0</ele><time>2026-04-24T14:24:02Z</time></trkpt><trkpt lat="44.041736750673834" lon="12.576924548667762"><ele>10.0</ele><time>2026-04-24T14:24:03Z</time></trkpt><trkpt lat="44.04172989521634" lon="12.577147942812205"><ele>10.0</ele><time>2026-04-24T14:24:04Z</time></trkpt><trkpt lat="44.04171365393269" lon="12.57738195491766"><ele>9.666666666666668</ele><time>2026-04-24T14:24:05Z</time></trkpt><trkpt lat="44.04169755191134" lon="12.577607291223389"><ele>9.333333333333334</ele><time>2026-04-24T14:24:06Z</time></trkpt><trkpt lat="44.04168127826894" lon="12.577849503577852"><ele>9.0</ele><time>2026-04-24T14:24:07Z</time></trkpt><trkpt lat="44.04166443965149" lon="12.578095461202722"><ele>8.666666666666666</ele><time>2026-04-24T14:24:08Z</time></trkpt><trkpt lat="44.04164811459607" lon="12.578353514053227"><ele>8.333333333333332</ele><time>2026-04-24T14:24:09Z</time></trkpt><trkpt lat="44.04162735324017" lon="12.578617010248838"><ele>8.0</ele><time>2026-04-24T14:24:10Z</time></trkpt><trkpt lat="44.041611032420434" lon="12.57888299750258"><ele>8.0</ele><time>2026-04-24T14:24:11Z</time></trkpt><trkpt lat="44.04159537395364" lon="12.579144041579047"><ele>8.0</ele><time>2026-04-24T14:24:12Z</time></trkpt><trkpt lat="44.04158046741098" lon="12.579412954805807"><ele>8.0</ele><time>2026-04-24T14:24:13Z</time></trkpt><trkpt lat="44.041564644978365" lon="12.579681663953584"><ele>8.0</ele><time>2026-04-24T14:24:14Z</time></trkpt><trkpt lat="44.04154828275113" lon="12.5799516161948"><ele>8.0</ele><time>2026-04-24T14:24:15Z</time></trkpt><trkpt lat="44.041536463913374" lon="12.580221020057543"><ele>8.0</ele><time>2026-04-24T14:24:16Z</time></trkpt><trkpt lat="44.041523872710755" lon="12.580488176913754"><ele>8.0</ele><time>2026-04-24T14:24:17Z</time></trkpt><trkpt lat="44.041515189388285" lon="12.580754636723631"><ele>8.0</ele><time>2026-04-24T14:24:18Z</time></trkpt><trkpt lat="44.04150497165311" lon="12.581022514894604"><ele>8.0</ele><time>2026-04-24T14:24:19Z</time></trkpt><trkpt lat="44.04148948282" lon="12.58129098477513"><ele>7.0</ele><time>2026-04-24T14:24:20Z</time></trkpt><trkpt lat="44.04147575379452" lon="12.581553697011557"><ele>6.0</ele><time>2026-04-24T14:24:21Z</time></trkpt><trkpt lat="44.04146274296987" lon="12.58182057561907"><ele>5.0</ele><time>2026-04-24T14:24:22Z</time></trkpt><trkpt lat="44.04144955746121" lon="12.58209237361865"><ele>5.0</ele><time>2026-04-24T14:24:23Z</time></trkpt><trkpt lat="44.04143496534748" lon="12.582362419874931"><ele>5.0</ele><time>2026-04-24T14:24:24Z</time></trkpt><trkpt lat="44.04142002621653" lon="12.58263520214454"><ele>5.0</ele><time>2026-04-24T14:24:25Z</time></trkpt><trkpt lat="44.041407559368736" lon="12.582903950575647"><ele>5.333333333333334</ele><time>2026-04-24T14:24:26Z</time></trkpt><trkpt lat="44.04139352121801" lon="12.583172404164946"><ele>5.666666666666667</ele><time>2026-04-24T14:24:27Z</time></trkpt><trkpt lat="44.04138042312175" lon="12.583438790974535"><ele>6.0</ele><time>2026-04-24T14:24:28Z</time></trkpt><trkpt lat="44.041364796618694" lon="12.583705727814506"><ele>5.0</ele><time>2026-04-24T14:24:29Z</time></trkpt><trkpt lat="44.041346859699054" lon="12.583980221187588"><ele>4.0</ele><time>2026-04-24T14:24:30Z</time></trkpt><trkpt lat="44.04133074789453" lon="12.58424656641802"><ele>3.0</ele><time>2026-04-24T14:24:31Z</time></trkpt><trkpt lat="44.04130986037814" lon="12.584516300202768"><ele>2.3333333333333335</ele><time>2026-04-24T14:24:32Z</time></trkpt><trkpt lat="44.04129306209108" lon="12.584784636928887"><ele>1.6666666666666665</ele><time>2026-04-24T14:24:33Z</time></trkpt><trkpt lat="44.04127770064793" lon="12.585050451236544"><ele>1.0</ele><time>2026-04-24T14:24:34Z</time></trkpt><trkpt lat="44.04126405030902" lon="12.585317476405606"><ele>2.0</ele><time>2026-04-24T14:24:35Z</time></trkpt><trkpt lat="44.041251751291654" lon="12.585585820306862"><ele>3.0</ele><time>2026-04-24T14:24:36Z</time></trkpt><trkpt lat="44.041240836025416" lon="12.585853099730306"><ele>4.0</ele><time>2026-04-24T14:24:37Z</time></trkpt><trkpt lat="44.04122965586629" lon="12.586123340074348"><ele>4.0</ele><time>2026-04-24T14:24:38Z</time></trkpt><trkpt lat="44.04121606628622" lon="12.586388368653243"><ele>4.0</ele><time>2026-04-24T14:24:39Z</time></trkpt><trkpt lat="44.04120466152458" lon="12.586656977127042"><ele>4.0</ele><time>2026-04-24T14:24:40Z</time></trkpt><trkpt lat="44.04119297389728" lon="12.586923291314811"><ele>4.333333333333333</ele><time>2026-04-24T14:24:41Z</time></trkpt><trkpt lat="44.04117753274323" lon="12.587193623194494"><ele>4.666666666666667</ele><time>2026-04-24T14:24:42Z</time></trkpt><trkpt lat="44.041161223884835" lon="12.587465307253026"><ele>5.0</ele><time>2026-04-24T14:24:43Z</time></trkpt><trkpt lat="44.04114364919757" lon="12.587733154631337"><ele>4.0</ele><time>2026-04-24T14:24:44Z</time></trkpt><trkpt lat="44.041130289242496" lon="12.587981176977442"><ele>3.0</ele><time>2026-04-24T14:24:45Z</time></trkpt><trkpt lat="44.04111815859302" lon="12.58821514167435"><ele>2.0</ele><time>2026-04-24T14:24:46Z</time></trkpt><trkpt lat="44.04110629959033" lon="12.588434488607836"><ele>2.0</ele><time>2026-04-24T14:24:47Z</time></trkpt><trkpt lat="44.041091408249606" lon="12.588641742467674"><ele>2.0</ele><time>2026-04-24T14:24:48Z</time></trkpt><trkpt lat="44.041072730425995" lon="12.588849585104262"><ele>2.0</ele><time>2026-04-24T14:24:49Z</time></trkpt><trkpt lat="44.041052657266086" lon="12.58905681587831"><ele>2.25</ele><time>2026-04-24T14:24:50Z</time></trkpt><trkpt lat="44.04102693377747" lon="12.589246752134725"><ele>2.5</ele><time>2026-04-24T14:24:51Z</time></trkpt><trkpt lat="44.04099516473843" lon="12.589428698633274"><ele>2.75</ele><time>2026-04-24T14:24:52Z</time></trkpt><trkpt lat="44.04095620776981" lon="12.589605382590534"><ele>3.0</ele><time>2026-04-24T14:24:53Z</time></trkpt><trkpt lat="44.04090930333185" lon="12.589758920473193"><ele>3.0</ele><time>2026-04-24T14:24:54Z</time></trkpt><trkpt lat="44.04085087052413" lon="12.589877324716719"><ele>3.0</ele><time>2026-04-24T14:24:55Z</time></trkpt><trkpt lat="44.04079547740103" lon="12.589964055533391"><ele>3.0</ele><time>2026-04-24T14:24:56Z</time></trkpt><trkpt lat="44.040746607333645" lon="12.590033890415791"><ele>3.0</ele><time>2026-04-24T14:24:57Z</time></trkpt><trkpt lat="44.040675101935065" lon="12.590116902457073"><ele>3.0</ele><time>2026-04-24T14:24:59Z</time></trkpt><trkpt lat="44.04059071996599" lon="12.590180327491044"><ele>3.0</ele><time>2026-04-24T14:25:01Z</time></trkpt><trkpt lat="44.04052630145074" lon="12.590223651623733"><ele>3.0</ele><time>2026-04-24T14:25:02Z</time></trkpt><trkpt lat="44.040443754222636" lon="12.590274027007293"><ele>3.0</ele><time>2026-04-24T14:25:03Z</time></trkpt><trkpt lat="44.04035002061089" lon="12.59033734575095"><ele>3.0</ele><time>2026-04-24T14:25:04Z</time></trkpt><trkpt lat="44.040254128899" lon="12.590418983460463"><ele>3.0</ele><time>2026-04-24T14:25:05Z</time></trkpt><trkpt lat="44.04016718975449" lon="12.590522196614458"><ele>3.0</ele><time>2026-04-24T14:25:06Z</time></trkpt><trkpt lat="44.04010399149792" lon="12.590641416708854"><ele>3.0</ele><time>2026-04-24T14:25:07Z</time></trkpt><trkpt lat="44.04006176424654" lon="12.590762873872402"><ele>3.0</ele><time>2026-04-24T14:25:08Z</time></trkpt><trkpt lat="44.040045686267234" lon="12.590889726577695"><ele>3.0</ele><time>2026-04-24T14:25:09Z</time></trkpt><trkpt lat="44.0400452701413" lon="12.591030569431176"><ele>3.0</ele><time>2026-04-24T14:25:10Z</time></trkpt><trkpt lat="44.04008524216041" lon="12.591174966494755"><ele>3.0</ele><time>2026-04-24T14:25:11Z</time></trkpt><trkpt lat="44.04010149490761" lon="12.591346547502846"><ele>2.75</ele><time>2026-04-24T14:25:12Z</time></trkpt><trkpt lat="44.04015880581837" lon="12.591515683749073"><ele>2.5</ele><time>2026-04-24T14:25:13Z</time></trkpt><trkpt lat="44.04021922648617" lon="12.591662759270251"><ele>2.25</ele><time>2026-04-24T14:25:14Z</time></trkpt><trkpt lat="44.04026708997682" lon="12.59179187517176"><ele>2.0</ele><time>2026-04-24T14:25:15Z</time></trkpt><trkpt lat="44.04029980948066" lon="12.591922171118345"><ele>1.9999999999999998</ele><time>2026-04-24T14:25:16Z</time></trkpt><trkpt lat="44.04031504398457" lon="12.59204465161593"><ele>2.0</ele><time>2026-04-24T14:25:17Z</time></trkpt><trkpt lat="44.04031294342993" lon="12.592160047803405"><ele>2.0</ele><time>2026-04-24T14:25:18Z</time></trkpt><trkpt lat="44.040297574060084" lon="12.592271274644498"><ele>2.0</ele><time>2026-04-24T14:25:19Z</time></trkpt><trkpt lat="44.04026896309494" lon="12.592378435838999"><ele>1.9999999999999998</ele><time>2026-04-24T14:25:20Z</time></trkpt><trkpt lat="44.04023270231246" lon="12.592481519835507"><ele>2.0</ele><time>2026-04-24T14:25:21Z</time></trkpt><trkpt lat="44.040187042834674" lon="12.592587628751042"><ele>2.0</ele><time>2026-04-24T14:25:22Z</time></trkpt><trkpt lat="44.04013731886024" lon="12.592703806648972"><ele>2.0</ele><time>2026-04-24T14:25:23Z</time></trkpt><trkpt lat="44.04008079547421" lon="12.59282292736344"><ele>2.0</ele><time>2026-04-24T14:25:24Z</time></trkpt><trkpt lat="44.04002241661517" lon="12.592941681607622"><ele>2.0</ele><time>2026-04-24T14:25:25Z</time></trkpt><trkpt lat="44.0399544571253" lon="12.593066811809626"><ele>2.0</ele><time>2026-04-24T14:25:26Z</time></trkpt><trkpt lat="44.039884667496196" lon="12.593198725829614"><ele>2.0</ele><time>2026-04-24T14:25:27Z</time></trkpt><trkpt lat="44.03981215776095" lon="12.593330437490684"><ele>2.0</ele><time>2026-04-24T14:25:28Z</time></trkpt><trkpt lat="44.03973912725158" lon="12.593467924514048"><ele>2.0</ele><time>2026-04-24T14:25:29Z</time></trkpt><trkpt lat="44.03966220354344" lon="12.593607501641142"><ele>2.0</ele><time>2026-04-24T14:25:30Z</time></trkpt><trkpt lat="44.039584836546155" lon="12.593747544936502"><ele>2.0</ele><time>2026-04-24T14:25:31Z</time></trkpt><trkpt lat="44.03950289137451" lon="12.59388326283812"><ele>2.0</ele><time>2026-04-24T14:25:32Z</time></trkpt><trkpt lat="44.039423018726644" lon="12.59401406768244"><ele>2.0</ele><time>2026-04-24T14:25:33Z</time></trkpt><trkpt lat="44.039346017375664" lon="12.594138032014966"><ele>2.0</ele><time>2026-04-24T14:25:34Z</time></trkpt><trkpt lat="44.0392698130488" lon="12.594256097762203"><ele>2.0</ele><time>2026-04-24T14:25:35Z</time></trkpt><trkpt lat="44.039191915941586" lon="12.594371748378315"><ele>2.0</ele><time>2026-04-24T14:25:36Z</time></trkpt><trkpt lat="44.03911325011377" lon="12.594486771030136"><ele>2.0</ele><time>2026-04-24T14:25:37Z</time></trkpt><trkpt lat="44.039036690275054" lon="12.594606689049314"><ele>2.0</ele><time>2026-04-24T14:25:38Z</time></trkpt><trkpt lat="44.038962716869776" lon="12.594733071939961"><ele>2.25</ele><time>2026-04-24T14:25:39Z</time></trkpt><trkpt lat="44.038889702366475" lon="12.594854115942614"><ele>2.5</ele><time>2026-04-24T14:25:40Z</time></trkpt><trkpt lat="44.03881077048575" lon="12.594972288247655"><ele>2.75</ele><time>2026-04-24T14:25:41Z</time></trkpt><trkpt lat="44.03873073117011" lon="12.595090881560916"><ele>3.0</ele><time>2026-04-24T14:25:42Z</time></trkpt><trkpt lat="44.03865432475113" lon="12.59520894100799"><ele>3.0</ele><time>2026-04-24T14:25:43Z</time></trkpt><trkpt lat="44.038579516282994" lon="12.595324119369524"><ele>3.0</ele><time>2026-04-24T14:25:44Z</time></trkpt><trkpt lat="44.03850831508835" lon="12.595442549606863"><ele>3.0</ele><time>2026-04-24T14:25:45Z</time></trkpt><trkpt lat="44.03843037824125" lon="12.595564129136191"><ele>3.0</ele><time>2026-04-24T14:25:46Z</time></trkpt><trkpt lat="44.03835490186285" lon="12.595681060228083"><ele>3.0</ele><time>2026-04-24T14:25:47Z</time></trkpt><trkpt lat="44.03828095406229" lon="12.59580590159759"><ele>3.0</ele><time>2026-04-24T14:25:48Z</time></trkpt><trkpt lat="44.03820430954015" lon="12.595926558350401"><ele>3.0</ele><time>2026-04-24T14:25:49Z</time></trkpt><trkpt lat="44.03812494984508" lon="12.596052000819792"><ele>3.0</ele><time>2026-04-24T14:25:50Z</time></trkpt><trkpt lat="44.03804405565332" lon="12.596182221221367"><ele>3.0</ele><time>2026-04-24T14:25:51Z</time></trkpt><trkpt lat="44.037962532897055" lon="12.596314499199785"><ele>3.0</ele><time>2026-04-24T14:25:52Z</time></trkpt><trkpt lat="44.03788290555189" lon="12.596442510363536"><ele>3.0</ele><time>2026-04-24T14:25:53Z</time></trkpt><trkpt lat="44.03780301447667" lon="12.596570809492844"><ele>3.0</ele><time>2026-04-24T14:25:54Z</time></trkpt><trkpt lat="44.037723143286286" lon="12.59669739708792"><ele>3.0</ele><time>2026-04-24T14:25:55Z</time></trkpt><trkpt lat="44.03764434667295" lon="12.596823458354764"><ele>3.0</ele><time>2026-04-24T14:25:56Z</time></trkpt><trkpt lat="44.03757376128109" lon="12.59694230924781"><ele>3.0</ele><time>2026-04-24T14:25:57Z</time></trkpt><trkpt lat="44.03750668896801" lon="12.597051392394397"><ele>3.0</ele><time>2026-04-24T14:25:58Z</time></trkpt><trkpt lat="44.037441134378305" lon="12.59714502868387"><ele>3.0</ele><time>2026-04-24T14:25:59Z</time></trkpt><trkpt lat="44.03738130413572" lon="12.59723404616605"><ele>3.0</ele><time>2026-04-24T14:26:00Z</time></trkpt><trkpt lat="44.037326460198535" lon="12.59731055248423"><ele>3.0</ele><time>2026-04-24T14:26:01Z</time></trkpt><trkpt lat="44.03727392336052" lon="12.597373188808668"><ele>3.0</ele><time>2026-04-24T14:26:02Z</time></trkpt><trkpt lat="44.037209719542716" lon="12.597430753660595"><ele>3.0</ele><time>2026-04-24T14:26:04Z</time></trkpt><trkpt lat="44.03708330662305" lon="12.597471643175519"><ele>3.0</ele><time>2026-04-24T14:26:06Z</time></trkpt><trkpt lat="44.037005911879625" lon="12.597509118198625"><ele>3.0</ele><time>2026-04-24T14:26:07Z</time></trkpt><trkpt lat="44.036938029379336" lon="12.597560133359"><ele>3.0</ele><time>2026-04-24T14:26:08Z</time></trkpt><trkpt lat="44.036882530845276" lon="12.59763350308726"><ele>3.0</ele><time>2026-04-24T14:26:09Z</time></trkpt><trkpt lat="44.03684321416782" lon="12.597735422193814"><ele>3.0</ele><time>2026-04-24T14:26:10Z</time></trkpt><trkpt lat="44.036824797416905" lon="12.597854461651792"><ele>3.0</ele><time>2026-04-24T14:26:11Z</time></trkpt><trkpt lat="44.03681978192949" lon="12.597983587470186"><ele>3.0</ele><time>2026-04-24T14:26:12Z</time></trkpt><trkpt lat="44.03681729992723" lon="12.598118231284708"><ele>3.0</ele><time>2026-04-24T14:26:13Z</time></trkpt><trkpt lat="44.03679437161323" lon="12.598250177408609"><ele>3.0</ele><time>2026-04-24T14:26:14Z</time></trkpt><trkpt lat="44.036743955094884" lon="12.598365198712495"><ele>3.0</ele><time>2026-04-24T14:26:15Z</time></trkpt><trkpt lat="44.03667583307014" lon="12.598475110241829"><ele>3.0</ele><time>2026-04-24T14:26:16Z</time></trkpt><trkpt lat="44.03660043602859" lon="12.598598356866969"><ele>3.0</ele><time>2026-04-24T14:26:17Z</time></trkpt><trkpt lat="44.036517176484836" lon="12.598730053592579"><ele>3.0</ele><time>2026-04-24T14:26:18Z</time></trkpt><trkpt lat="44.03642594477937" lon="12.598870877565677"><ele>3.5</ele><time>2026-04-24T14:26:19Z</time></trkpt><trkpt lat="44.03633264065375" lon="12.599018402831623"><ele>4.0</ele><time>2026-04-24T14:26:20Z</time></trkpt><trkpt lat="44.036238943929646" lon="12.599167851903495"><ele>4.5</ele><time>2026-04-24T14:26:21Z</time></trkpt><trkpt lat="44.03614349461814" lon="12.599314224075194"><ele>5.0</ele><time>2026-04-24T14:26:22Z</time></trkpt><trkpt lat="44.03605124122932" lon="12.599455313520089"><ele>4.75</ele><time>2026-04-24T14:26:23Z</time></trkpt><trkpt lat="44.03596616385796" lon="12.599584273160994"><ele>4.5</ele><time>2026-04-24T14:26:24Z</time></trkpt><trkpt lat="44.03588463872886" lon="12.599703263038197"><ele>4.25</ele><time>2026-04-24T14:26:25Z</time></trkpt><trkpt lat="44.035805816955985" lon="12.599822363357752"><ele>4.0</ele><time>2026-04-24T14:26:26Z</time></trkpt><trkpt lat="44.035734132979734" lon="12.599948259173168"><ele>4.0</ele><time>2026-04-24T14:26:27Z</time></trkpt><trkpt lat="44.035664955035784" lon="12.600075728551879"><ele>4.0</ele><time>2026-04-24T14:26:28Z</time></trkpt><trkpt lat="44.03559436510202" lon="12.600202004023549"><ele>4.0</ele><time>2026-04-24T14:26:29Z</time></trkpt><trkpt lat="44.0355266369772" lon="12.600321008505077"><ele>4.0</ele><time>2026-04-24T14:26:30Z</time></trkpt><trkpt lat="44.035455066264305" lon="12.600444623379177"><ele>3.75</ele><time>2026-04-24T14:26:31Z</time></trkpt><trkpt lat="44.03537088870973" lon="12.600566365708147"><ele>3.5</ele><time>2026-04-24T14:26:32Z</time></trkpt><trkpt lat="44.03529560874099" lon="12.600688769562899"><ele>3.25</ele><time>2026-04-24T14:26:33Z</time></trkpt><trkpt lat="44.0352203656692" lon="12.600807811992484"><ele>3.0</ele><time>2026-04-24T14:26:34Z</time></trkpt><trkpt lat="44.03514573359757" lon="12.600918718377361"><ele>3.0</ele><time>2026-04-24T14:26:35Z</time></trkpt><trkpt lat="44.035074433064885" lon="12.601031858346545"><ele>3.0</ele><time>2026-04-24T14:26:36Z</time></trkpt><trkpt lat="44.03499948598051" lon="12.601149378022539"><ele>3.0</ele><time>2026-04-24T14:26:37Z</time></trkpt><trkpt lat="44.03492648098765" lon="12.601281802559278"><ele>3.0</ele><time>2026-04-24T14:26:38Z</time></trkpt><trkpt lat="44.03485273365178" lon="12.601414373410956"><ele>3.0</ele><time>2026-04-24T14:26:39Z</time></trkpt><trkpt lat="44.03478514835891" lon="12.601529176833045"><ele>3.0</ele><time>2026-04-24T14:26:40Z</time></trkpt><trkpt lat="44.03472117007687" lon="12.601629331055307"><ele>3.0</ele><time>2026-04-24T14:26:41Z</time></trkpt><trkpt lat="44.034639656344645" lon="12.601746860558368"><ele>3.0</ele><time>2026-04-24T14:26:42Z</time></trkpt><trkpt lat="44.034556342292895" lon="12.60187423981455"><ele>3.0</ele><time>2026-04-24T14:26:43Z</time></trkpt><trkpt lat="44.0344909555044" lon="12.601985936636927"><ele>3.0</ele><time>2026-04-24T14:26:44Z</time></trkpt><trkpt lat="44.034432034622384" lon="12.60208808912678"><ele>3.0</ele><time>2026-04-24T14:26:45Z</time></trkpt><trkpt lat="44.03437756472203" lon="12.602178759341001"><ele>3.0</ele><time>2026-04-24T14:26:46Z</time></trkpt><trkpt lat="44.03431664533563" lon="12.60224482397679"><ele>3.0</ele><time>2026-04-24T14:26:47Z</time></trkpt><trkpt lat="44.03426152553713" lon="12.602333686116047"><ele>3.0</ele><time>2026-04-24T14:26:48Z</time></trkpt><trkpt lat="44.03420371793892" lon="12.602426983480331"><ele>3.0</ele><time>2026-04-24T14:26:49Z</time></trkpt><trkpt lat="44.03414383096823" lon="12.602523634567047"><ele>2.8</ele><time>2026-04-24T14:26:50Z</time></trkpt><trkpt lat="44.03408613902411" lon="12.602615884364678"><ele>2.5999999999999996</ele><time>2026-04-24T14:26:51Z</time></trkpt><trkpt lat="44.034030461213874" lon="12.602705219851865"><ele>2.4000000000000004</ele><time>2026-04-24T14:26:52Z</time></trkpt><trkpt lat="44.033971398189" lon="12.602799986939134"><ele>2.2</ele><time>2026-04-24T14:26:53Z</time></trkpt><trkpt lat="44.03390432779325" lon="12.602907601927086"><ele>2.0</ele><time>2026-04-24T14:26:54Z</time></trkpt><trkpt lat="44.0338301464314" lon="12.603026626662459"><ele>2.75</ele><time>2026-04-24T14:26:55Z</time></trkpt><trkpt lat="44.03375227036176" lon="12.603151831130946"><ele>3.5</ele><time>2026-04-24T14:26:56Z</time></trkpt><trkpt lat="44.03367477682695" lon="12.60327673144752"><ele>4.25</ele><time>2026-04-24T14:26:57Z</time></trkpt><trkpt lat="44.033612205709154" lon="12.603420420277848"><ele>5.0</ele><time>2026-04-24T14:26:58Z</time></trkpt><trkpt lat="44.033533105557325" lon="12.603543185209242"><ele>5.0</ele><time>2026-04-24T14:26:59Z</time></trkpt><trkpt lat="44.03345837801118" lon="12.603667315268922"><ele>5.0</ele><time>2026-04-24T14:27:00Z</time></trkpt><trkpt lat="44.033384041687675" lon="12.603793124609354"><ele>5.0</ele><time>2026-04-24T14:27:01Z</time></trkpt><trkpt lat="44.03329127574143" lon="12.603893140205644"><ele>5.0</ele><time>2026-04-24T14:27:02Z</time></trkpt><trkpt lat="44.03322998273169" lon="12.604026947857095"><ele>5.0</ele><time>2026-04-24T14:27:03Z</time></trkpt><trkpt lat="44.03315716039556" lon="12.604143236905724"><ele>5.0</ele><time>2026-04-24T14:27:04Z</time></trkpt><trkpt lat="44.03308035549993" lon="12.604252218963396"><ele>5.0</ele><time>2026-04-24T14:27:05Z</time></trkpt><trkpt lat="44.033017143749085" lon="12.604358737336405"><ele>5.0</ele><time>2026-04-24T14:27:06Z</time></trkpt><trkpt lat="44.03295764997598" lon="12.604451368350189"><ele>5.0</ele><time>2026-04-24T14:27:07Z</time></trkpt><trkpt lat="44.032904845627115" lon="12.604539962484933"><ele>4.833333333333334</ele><time>2026-04-24T14:27:08Z</time></trkpt><trkpt lat="44.032850178061935" lon="12.604622781195719"><ele>4.666666666666667</ele><time>2026-04-24T14:27:09Z</time></trkpt><trkpt lat="44.03279354885665" lon="12.604714500055898"><ele>4.5</ele><time>2026-04-24T14:27:10Z</time></trkpt><trkpt lat="44.032736633136196" lon="12.60480872188243"><ele>4.333333333333333</ele><time>2026-04-24T14:27:11Z</time></trkpt><trkpt lat="44.03267507869778" lon="12.604903172213525"><ele>4.166666666666666</ele><time>2026-04-24T14:27:12Z</time></trkpt><trkpt lat="44.03261485622" lon="12.605004493747698"><ele>4.0</ele><time>2026-04-24T14:27:13Z</time></trkpt><trkpt lat="44.03256260054415" lon="12.605088119249476"><ele>3.9999999999999996</ele><time>2026-04-24T14:27:14Z</time></trkpt><trkpt lat="44.032513757103494" lon="12.605156378893412"><ele>4.0</ele><time>2026-04-24T14:27:15Z</time></trkpt><trkpt lat="44.03246294291244" lon="12.605233415140805"><ele>4.0</ele><time>2026-04-24T14:27:16Z</time></trkpt><trkpt lat="44.03240900305776" lon="12.605321090987395"><ele>4.0</ele><time>2026-04-24T14:27:17Z</time></trkpt><trkpt lat="44.03235361139153" lon="12.605419826598602"><ele>3.9999999999999996</ele><time>2026-04-24T14:27:18Z</time></trkpt><trkpt lat="44.0322950389971" lon="12.605513788649505"><ele>4.0</ele><time>2026-04-24T14:27:19Z</time></trkpt><trkpt lat="44.03223793702242" lon="12.605605376326208"><ele>3.9999999999999996</ele><time>2026-04-24T14:27:20Z</time></trkpt><trkpt lat="44.032185474961594" lon="12.605688418980455"><ele>4.0</ele><time>2026-04-24T14:27:21Z</time></trkpt><trkpt lat="44.03213506893667" lon="12.605767229628542"><ele>4.0</ele><time>2026-04-24T14:27:22Z</time></trkpt><trkpt lat="44.03208393870578" lon="12.605844700421926"><ele>4.0</ele><time>2026-04-24T14:27:23Z</time></trkpt><trkpt lat="44.03203810707444" lon="12.605920374056716"><ele>3.9999999999999996</ele><time>2026-04-24T14:27:24Z</time></trkpt><trkpt lat="44.031985461654614" lon="12.606006168835707"><ele>4.0</ele><time>2026-04-24T14:27:25Z</time></trkpt><trkpt lat="44.03193619178106" lon="12.606096921349668"><ele>3.8000000000000003</ele><time>2026-04-24T14:27:26Z</time></trkpt><trkpt lat="44.03189736900671" lon="12.606180197632618"><ele>3.6000000000000005</ele><time>2026-04-24T14:27:27Z</time></trkpt><trkpt lat="44.03185652545729" lon="12.606267595000073"><ele>3.4</ele><time>2026-04-24T14:27:28Z</time></trkpt><trkpt lat="44.03180224990014" lon="12.606366700094705"><ele>3.2</ele><time>2026-04-24T14:27:29Z</time></trkpt><trkpt lat="44.031739166813026" lon="12.606474614900472"><ele>3.0</ele><time>2026-04-24T14:27:30Z</time></trkpt><trkpt lat="44.03166485647961" lon="12.606598629770916"><ele>3.0</ele><time>2026-04-24T14:27:31Z</time></trkpt><trkpt lat="44.03158493818605" lon="12.606731116355165"><ele>3.0</ele><time>2026-04-24T14:27:32Z</time></trkpt><trkpt lat="44.03150795079577" lon="12.606852247095272"><ele>3.0</ele><time>2026-04-24T14:27:33Z</time></trkpt><trkpt lat="44.031435943348995" lon="12.606967063512764"><ele>3.0</ele><time>2026-04-24T14:27:34Z</time></trkpt><trkpt lat="44.03135283282833" lon="12.607088249106008"><ele>3.0</ele><time>2026-04-24T14:27:35Z</time></trkpt><trkpt lat="44.031270116695886" lon="12.60721068727119"><ele>3.0</ele><time>2026-04-24T14:27:36Z</time></trkpt><trkpt lat="44.03118733843756" lon="12.607333906255418"><ele>3.0</ele><time>2026-04-24T14:27:37Z</time></trkpt><trkpt lat="44.0311033469919" lon="12.607458576437432"><ele>3.0</ele><time>2026-04-24T14:27:38Z</time></trkpt><trkpt lat="44.03101816679347" lon="12.607576318088729"><ele>3.0</ele><time>2026-04-24T14:27:39Z</time></trkpt><trkpt lat="44.03093651928714" lon="12.607689497253839"><ele>3.0</ele><time>2026-04-24T14:27:40Z</time></trkpt><trkpt lat="44.03085792564811" lon="12.6078093768281"><ele>3.0</ele><time>2026-04-24T14:27:41Z</time></trkpt><trkpt lat="44.03078012404299" lon="12.607935379323582"><ele>3.0</ele><time>2026-04-24T14:27:42Z</time></trkpt><trkpt lat="44.03069352028861" lon="12.608063961257045"><ele>2.75</ele><time>2026-04-24T14:27:43Z</time></trkpt><trkpt lat="44.030607093254055" lon="12.608198669461832"><ele>2.5</ele><time>2026-04-24T14:27:44Z</time></trkpt><trkpt lat="44.0305235965681" lon="12.608333191992937"><ele>2.25</ele><time>2026-04-24T14:27:45Z</time></trkpt><trkpt lat="44.03043977779696" lon="12.608469009475863"><ele>2.0</ele><time>2026-04-24T14:27:46Z</time></trkpt><trkpt lat="44.030354103207166" lon="12.608605363181136"><ele>2.5</ele><time>2026-04-24T14:27:47Z</time></trkpt><trkpt lat="44.03026855156403" lon="12.608735625191535"><ele>3.0</ele><time>2026-04-24T14:27:48Z</time></trkpt><trkpt lat="44.03019541602723" lon="12.608858961396443"><ele>3.5</ele><time>2026-04-24T14:27:49Z</time></trkpt><trkpt lat="44.03011913440654" lon="12.608982589003075"><ele>4.0</ele><time>2026-04-24T14:27:50Z</time></trkpt><trkpt lat="44.030037792952015" lon="12.609117167647602"><ele>3.75</ele><time>2026-04-24T14:27:51Z</time></trkpt><trkpt lat="44.02995952452307" lon="12.60924770173314"><ele>3.5</ele><time>2026-04-24T14:27:52Z</time></trkpt><trkpt lat="44.02988550398154" lon="12.609366198209075"><ele>3.25</ele><time>2026-04-24T14:27:53Z</time></trkpt><trkpt lat="44.029809034109654" lon="12.609494416526958"><ele>3.0</ele><time>2026-04-24T14:27:54Z</time></trkpt><trkpt lat="44.029739804698686" lon="12.60961606566665"><ele>3.0</ele><time>2026-04-24T14:27:55Z</time></trkpt><trkpt lat="44.02966239064138" lon="12.609732466719631"><ele>3.0</ele><time>2026-04-24T14:27:56Z</time></trkpt><trkpt lat="44.02958319685043" lon="12.609877909805732"><ele>3.0</ele><time>2026-04-24T14:27:57Z</time></trkpt><trkpt lat="44.029493745181725" lon="12.610053426148482"><ele>3.0</ele><time>2026-04-24T14:27:58Z</time></trkpt><trkpt lat="44.029392473448354" lon="12.610223832533427"><ele>3.0</ele><time>2026-04-24T14:27:59Z</time></trkpt><trkpt lat="44.029287091834384" lon="12.610384485836827"><ele>3.0</ele><time>2026-04-24T14:28:00Z</time></trkpt><trkpt lat="44.02917888865096" lon="12.61055088121957"><ele>3.0</ele><time>2026-04-24T14:28:01Z</time></trkpt><trkpt lat="44.029071519080546" lon="12.61071673623579"><ele>3.0</ele><time>2026-04-24T14:28:02Z</time></trkpt><trkpt lat="44.028963343890894" lon="12.610880092216664"><ele>3.0</ele><time>2026-04-24T14:28:03Z</time></trkpt><trkpt lat="44.028861908006256" lon="12.611039921936664"><ele>3.0</ele><time>2026-04-24T14:28:04Z</time></trkpt><trkpt lat="44.02876302041561" lon="12.611197380294515"><ele>3.0</ele><time>2026-04-24T14:28:05Z</time></trkpt><trkpt lat="44.028668740139366" lon="12.61134951719558"><ele>3.0</ele><time>2026-04-24T14:28:06Z</time></trkpt><trkpt lat="44.028578509544346" lon="12.61149834651149"><ele>3.0</ele><time>2026-04-24T14:28:07Z</time></trkpt><trkpt lat="44.0284863744229" lon="12.611652392573218"><ele>3.0</ele><time>2026-04-24T14:28:08Z</time></trkpt><trkpt lat="44.028395881792115" lon="12.61180115639097"><ele>3.5</ele><time>2026-04-24T14:28:09Z</time></trkpt><trkpt lat="44.028301953534886" lon="12.611949689837251"><ele>4.0</ele><time>2026-04-24T14:28:10Z</time></trkpt><trkpt lat="44.02820093064504" lon="12.612102114588401"><ele>4.5</ele><time>2026-04-24T14:28:11Z</time></trkpt><trkpt lat="44.02810510441751" lon="12.612250932001094"><ele>5.0</ele><time>2026-04-24T14:28:12Z</time></trkpt><trkpt lat="44.02800791913996" lon="12.612400477229118"><ele>5.0</ele><time>2026-04-24T14:28:13Z</time></trkpt><trkpt lat="44.02791763530981" lon="12.612544658633988"><ele>5.0</ele><time>2026-04-24T14:28:14Z</time></trkpt><trkpt lat="44.02783712069978" lon="12.612673027511772"><ele>5.0</ele><time>2026-04-24T14:28:15Z</time></trkpt><trkpt lat="44.0277557026286" lon="12.612809333715793"><ele>5.0</ele><time>2026-04-24T14:28:16Z</time></trkpt><trkpt lat="44.027674676251316" lon="12.612943947968622"><ele>4.75</ele><time>2026-04-24T14:28:17Z</time></trkpt><trkpt lat="44.027596278156764" lon="12.61307659397081"><ele>4.5</ele><time>2026-04-24T14:28:18Z</time></trkpt><trkpt lat="44.02751971385729" lon="12.613210671742214"><ele>4.25</ele><time>2026-04-24T14:28:19Z</time></trkpt><trkpt lat="44.02743631426635" lon="12.613353231053638"><ele>4.0</ele><time>2026-04-24T14:28:20Z</time></trkpt><trkpt lat="44.02734726583739" lon="12.613506666380818"><ele>4.5</ele><time>2026-04-24T14:28:21Z</time></trkpt><trkpt lat="44.02724882409677" lon="12.61366868268031"><ele>5.0</ele><time>2026-04-24T14:28:22Z</time></trkpt><trkpt lat="44.02714798991902" lon="12.613826032353929"><ele>5.5</ele><time>2026-04-24T14:28:23Z</time></trkpt><trkpt lat="44.02705621800798" lon="12.613976117556572"><ele>6.0</ele><time>2026-04-24T14:28:24Z</time></trkpt><trkpt lat="44.02697205399291" lon="12.614107124977492"><ele>6.0</ele><time>2026-04-24T14:28:25Z</time></trkpt><trkpt lat="44.02689600234946" lon="12.614225494522417"><ele>6.0</ele><time>2026-04-24T14:28:26Z</time></trkpt><trkpt lat="44.026825797753254" lon="12.614338732943082"><ele>6.0</ele><time>2026-04-24T14:28:27Z</time></trkpt><trkpt lat="44.02676164472448" lon="12.614436710369352"><ele>6.0</ele><time>2026-04-24T14:28:28Z</time></trkpt><trkpt lat="44.02670118114712" lon="12.614531998498263"><ele>6.0</ele><time>2026-04-24T14:28:29Z</time></trkpt><trkpt lat="44.0266282114352" lon="12.61464276863144"><ele>5.8</ele><time>2026-04-24T14:28:30Z</time></trkpt><trkpt lat="44.02655318375991" lon="12.614753747608212"><ele>5.6</ele><time>2026-04-24T14:28:31Z</time></trkpt><trkpt lat="44.02648221478838" lon="12.614869153480322"><ele>5.4</ele><time>2026-04-24T14:28:32Z</time></trkpt><trkpt lat="44.02640887040061" lon="12.614992544811567"><ele>5.2</ele><time>2026-04-24T14:28:33Z</time></trkpt><trkpt lat="44.026334603125974" lon="12.615110514482225"><ele>5.0</ele><time>2026-04-24T14:28:34Z</time></trkpt><trkpt lat="44.026261931291685" lon="12.615218502609938"><ele>4.6</ele><time>2026-04-24T14:28:35Z</time></trkpt><trkpt lat="44.02618908782817" lon="12.61533635164757"><ele>4.2</ele><time>2026-04-24T14:28:36Z</time></trkpt><trkpt lat="44.0261103457422" lon="12.615454105517268"><ele>3.8</ele><time>2026-04-24T14:28:37Z</time></trkpt><trkpt lat="44.026035412908946" lon="12.615563589108143"><ele>3.4</ele><time>2026-04-24T14:28:38Z</time></trkpt><trkpt lat="44.02595881516796" lon="12.615672853021227"><ele>3.0</ele><time>2026-04-24T14:28:39Z</time></trkpt><trkpt lat="44.02588729033441" lon="12.615782442005205"><ele>3.0</ele><time>2026-04-24T14:28:40Z</time></trkpt><trkpt lat="44.02582115996509" lon="12.615892304258095"><ele>3.0</ele><time>2026-04-24T14:28:41Z</time></trkpt><trkpt lat="44.02574801221175" lon="12.616021339963993"><ele>3.0</ele><time>2026-04-24T14:28:42Z</time></trkpt><trkpt lat="44.02566498636937" lon="12.616161498046663"><ele>3.0</ele><time>2026-04-24T14:28:43Z</time></trkpt><trkpt lat="44.02558115150081" lon="12.616298714288398"><ele>3.5</ele><time>2026-04-24T14:28:44Z</time></trkpt><trkpt lat="44.025500221908" lon="12.616424036864437"><ele>4.0</ele><time>2026-04-24T14:28:45Z</time></trkpt><trkpt lat="44.02542429272233" lon="12.616541851529446"><ele>4.5</ele><time>2026-04-24T14:28:46Z</time></trkpt><trkpt lat="44.025346304664694" lon="12.616655997714705"><ele>5.0</ele><time>2026-04-24T14:28:47Z</time></trkpt><trkpt lat="44.025275127399404" lon="12.616763667496455"><ele>5.0</ele><time>2026-04-24T14:28:48Z</time></trkpt><trkpt lat="44.02520587858056" lon="12.616872025801062"><ele>5.0</ele><time>2026-04-24T14:28:49Z</time></trkpt><trkpt lat="44.0251375382498" lon="12.616983153019298"><ele>5.0</ele><time>2026-04-24T14:28:50Z</time></trkpt><trkpt lat="44.02506354976174" lon="12.6170967729639"><ele>5.0</ele><time>2026-04-24T14:28:51Z</time></trkpt><trkpt lat="44.024986601605846" lon="12.6172173367504"><ele>5.0</ele><time>2026-04-24T14:28:52Z</time></trkpt><trkpt lat="44.02490690801602" lon="12.617340625810257"><ele>4.75</ele><time>2026-04-24T14:28:53Z</time></trkpt><trkpt lat="44.02482330747801" lon="12.617468423467422"><ele>4.5</ele><time>2026-04-24T14:28:54Z</time></trkpt><trkpt lat="44.02473779884049" lon="12.617600944410565"><ele>4.25</ele><time>2026-04-24T14:28:55Z</time></trkpt><trkpt lat="44.02465029166932" lon="12.617738081944449"><ele>4.0</ele><time>2026-04-24T14:28:56Z</time></trkpt><trkpt lat="44.02456478576995" lon="12.617879654645355"><ele>4.0</ele><time>2026-04-24T14:28:57Z</time></trkpt><trkpt lat="44.02448096749452" lon="12.618020948170065"><ele>4.0</ele><time>2026-04-24T14:28:58Z</time></trkpt><trkpt lat="44.024391696894924" lon="12.618164425051585"><ele>4.0</ele><time>2026-04-24T14:28:59Z</time></trkpt><trkpt lat="44.024302580733604" lon="12.61830583894322"><ele>4.0</ele><time>2026-04-24T14:29:00Z</time></trkpt><trkpt lat="44.02421541193345" lon="12.618449144495534"><ele>4.75</ele><time>2026-04-24T14:29:01Z</time></trkpt><trkpt lat="44.02413054027427" lon="12.618592986607698"><ele>5.5</ele><time>2026-04-24T14:29:02Z</time></trkpt><trkpt lat="44.024046951269625" lon="12.618731879425834"><ele>6.25</ele><time>2026-04-24T14:29:03Z</time></trkpt><trkpt lat="44.023966739494206" lon="12.618862002663752"><ele>7.0</ele><time>2026-04-24T14:29:04Z</time></trkpt><trkpt lat="44.02389606860116" lon="12.61897790181973"><ele>7.0</ele><time>2026-04-24T14:29:05Z</time></trkpt><trkpt lat="44.02383102419167" lon="12.619081238437415"><ele>6.999999999999999</ele><time>2026-04-24T14:29:06Z</time></trkpt><trkpt lat="44.023765319555004" lon="12.619188256186558"><ele>6.999999999999999</ele><time>2026-04-24T14:29:07Z</time></trkpt><trkpt lat="44.02370044271954" lon="12.619292723971432"><ele>7.0</ele><time>2026-04-24T14:29:08Z</time></trkpt><trkpt lat="44.02363285997123" lon="12.619399124481435"><ele>7.0</ele><time>2026-04-24T14:29:09Z</time></trkpt><trkpt lat="44.023563557304385" lon="12.619514141137476"><ele>7.0</ele><time>2026-04-24T14:29:10Z</time></trkpt><trkpt lat="44.02349452174622" lon="12.619629690184825"><ele>6.999999999999999</ele><time>2026-04-24T14:29:11Z</time></trkpt><trkpt lat="44.02342797581813" lon="12.619732798700642"><ele>6.999999999999999</ele><time>2026-04-24T14:29:12Z</time></trkpt><trkpt lat="44.02336536633033" lon="12.619829889848678"><ele>7.0</ele><time>2026-04-24T14:29:13Z</time></trkpt><trkpt lat="44.02329889178866" lon="12.61993420568145"><ele>7.0</ele><time>2026-04-24T14:29:14Z</time></trkpt><trkpt lat="44.023229897268706" lon="12.620047565787083"><ele>7.0</ele><time>2026-04-24T14:29:15Z</time></trkpt><trkpt lat="44.02315147302224" lon="12.62018061043446"><ele>7.0</ele><time>2026-04-24T14:29:16Z</time></trkpt><trkpt lat="44.02306802477833" lon="12.620322478660688"><ele>7.0</ele><time>2026-04-24T14:29:17Z</time></trkpt><trkpt lat="44.022984673190265" lon="12.620464965958979"><ele>7.0</ele><time>2026-04-24T14:29:18Z</time></trkpt><trkpt lat="44.022902482651595" lon="12.620605052325383"><ele>7.0</ele><time>2026-04-24T14:29:19Z</time></trkpt><trkpt lat="44.02282256689046" lon="12.620744682171747"><ele>7.0</ele><time>2026-04-24T14:29:20Z</time></trkpt><trkpt lat="44.022743406190884" lon="12.620880532714615"><ele>7.0</ele><time>2026-04-24T14:29:21Z</time></trkpt><trkpt lat="44.022660132859635" lon="12.621017053151112"><ele>7.0</ele><time>2026-04-24T14:29:22Z</time></trkpt><trkpt lat="44.02257557286209" lon="12.621160576896003"><ele>7.0</ele><time>2026-04-24T14:29:23Z</time></trkpt><trkpt lat="44.02248598247581" lon="12.621307648313053"><ele>7.0</ele><time>2026-04-24T14:29:24Z</time></trkpt><trkpt lat="44.02239246181123" lon="12.621463014931582"><ele>7.0</ele><time>2026-04-24T14:29:25Z</time></trkpt><trkpt lat="44.02229080249804" lon="12.62162379435273"><ele>7.0</ele><time>2026-04-24T14:29:26Z</time></trkpt><trkpt lat="44.02219087600061" lon="12.621783572488212"><ele>7.0</ele><time>2026-04-24T14:29:27Z</time></trkpt><trkpt lat="44.02208932248936" lon="12.621932248695904"><ele>7.0</ele><time>2026-04-24T14:29:28Z</time></trkpt><trkpt lat="44.022003501404164" lon="12.622070690190078"><ele>7.0</ele><time>2026-04-24T14:29:29Z</time></trkpt><trkpt lat="44.02192641559023" lon="12.622198040954922"><ele>7.0</ele><time>2026-04-24T14:29:30Z</time></trkpt><trkpt lat="44.02185926325664" lon="12.622306252379335"><ele>6.833333333333334</ele><time>2026-04-24T14:29:31Z</time></trkpt><trkpt lat="44.021789945640705" lon="12.622414492207811"><ele>6.666666666666667</ele><time>2026-04-24T14:29:32Z</time></trkpt><trkpt lat="44.021730674631364" lon="12.622511785844296"><ele>6.5</ele><time>2026-04-24T14:29:33Z</time></trkpt><trkpt lat="44.02168023484033" lon="12.622601513370615"><ele>6.333333333333334</ele><time>2026-04-24T14:29:34Z</time></trkpt><trkpt lat="44.02162666703962" lon="12.622695235398371"><ele>6.166666666666667</ele><time>2026-04-24T14:29:35Z</time></trkpt><trkpt lat="44.02157928413562" lon="12.622790963468647"><ele>6.0</ele><time>2026-04-24T14:29:36Z</time></trkpt><trkpt lat="44.02153543448065" lon="12.622869299661408"><ele>5.8</ele><time>2026-04-24T14:29:37Z</time></trkpt><trkpt lat="44.021468815900946" lon="12.623003467075641"><ele>5.6</ele><time>2026-04-24T14:29:39Z</time></trkpt><trkpt lat="44.02136118234707" lon="12.623117973268934"><ele>5.4</ele><time>2026-04-24T14:29:41Z</time></trkpt><trkpt lat="44.021295777842006" lon="12.62318398296274"><ele>5.2</ele><time>2026-04-24T14:29:42Z</time></trkpt><trkpt lat="44.021239223705486" lon="12.62325018360481"><ele>5.0</ele><time>2026-04-24T14:29:43Z</time></trkpt><trkpt lat="44.02118757512763" lon="12.623328296581002"><ele>5.0</ele><time>2026-04-24T14:29:44Z</time></trkpt><trkpt lat="44.02113657008138" lon="12.623430850489866"><ele>5.0</ele><time>2026-04-24T14:29:45Z</time></trkpt><trkpt lat="44.02108132712551" lon="12.62355902274392"><ele>5.0</ele><time>2026-04-24T14:29:46Z</time></trkpt><trkpt lat="44.021009967495026" lon="12.62370942491253"><ele>5.0</ele><time>2026-04-24T14:29:47Z</time></trkpt><trkpt lat="44.02089697715539" lon="12.623848532310445"><ele>4.333333333333334</ele><time>2026-04-24T14:29:48Z</time></trkpt><trkpt lat="44.02078972088881" lon="12.624018357632401"><ele>3.666666666666667</ele><time>2026-04-24T14:29:49Z</time></trkpt><trkpt lat="44.02068824566995" lon="12.624217298567395"><ele>3.0</ele><time>2026-04-24T14:29:50Z</time></trkpt><trkpt lat="44.02057127097167" lon="12.624392992753469"><ele>3.333333333333333</ele><time>2026-04-24T14:29:51Z</time></trkpt><trkpt lat="44.020460607418904" lon="12.624567199500133"><ele>3.6666666666666665</ele><time>2026-04-24T14:29:52Z</time></trkpt><trkpt lat="44.02034682335713" lon="12.624748169409141"><ele>4.0</ele><time>2026-04-24T14:29:53Z</time></trkpt><trkpt lat="44.02023288462775" lon="12.624928574349017"><ele>4.0</ele><time>2026-04-24T14:29:54Z</time></trkpt><trkpt lat="44.02012168145696" lon="12.625111039566026"><ele>4.0</ele><time>2026-04-24T14:29:55Z</time></trkpt><trkpt lat="44.020011419112095" lon="12.625286089278877"><ele>4.0</ele><time>2026-04-24T14:29:56Z</time></trkpt><trkpt lat="44.01990300715058" lon="12.625460071102305"><ele>4.666666666666666</ele><time>2026-04-24T14:29:57Z</time></trkpt><trkpt lat="44.01979823556495" lon="12.625630037989739"><ele>5.333333333333333</ele><time>2026-04-24T14:29:58Z</time></trkpt><trkpt lat="44.019692610846064" lon="12.625790741813487"><ele>6.0</ele><time>2026-04-24T14:29:59Z</time></trkpt><trkpt lat="44.019591901485974" lon="12.62595052186758"><ele>6.0</ele><time>2026-04-24T14:30:00Z</time></trkpt><trkpt lat="44.01949195898873" lon="12.626103154129966"><ele>6.0</ele><time>2026-04-24T14:30:01Z</time></trkpt><trkpt lat="44.01939881706205" lon="12.62625010572395"><ele>6.0</ele><time>2026-04-24T14:30:02Z</time></trkpt><trkpt lat="44.01931062759939" lon="12.626390693548975"><ele>6.0</ele><time>2026-04-24T14:30:03Z</time></trkpt><trkpt lat="44.019222023192846" lon="12.626526997545763"><ele>5.75</ele><time>2026-04-24T14:30:04Z</time></trkpt><trkpt lat="44.01913414648835" lon="12.626662264105308"><ele>5.5</ele><time>2026-04-24T14:30:05Z</time></trkpt><trkpt lat="44.01904785892759" lon="12.626795602019842"><ele>5.25</ele><time>2026-04-24T14:30:06Z</time></trkpt><trkpt lat="44.018971069149465" lon="12.626919259584685"><ele>5.0</ele><time>2026-04-24T14:30:07Z</time></trkpt><trkpt lat="44.018900981585894" lon="12.627035353141824"><ele>5.0</ele><time>2026-04-24T14:30:08Z</time></trkpt><trkpt lat="44.01882907046451" lon="12.627150773384404"><ele>5.0</ele><time>2026-04-24T14:30:09Z</time></trkpt><trkpt lat="44.01875122555487" lon="12.627271103424338"><ele>5.0</ele><time>2026-04-24T14:30:10Z</time></trkpt><trkpt lat="44.0186739350581" lon="12.627390312263953"><ele>5.0</ele><time>2026-04-24T14:30:11Z</time></trkpt><trkpt lat="44.018599173021705" lon="12.62751410236033"><ele>5.0</ele><time>2026-04-24T14:30:12Z</time></trkpt><trkpt lat="44.01852544939807" lon="12.6276367311596"><ele>5.0</ele><time>2026-04-24T14:30:13Z</time></trkpt><trkpt lat="44.01845639878856" lon="12.62774760175739"><ele>5.0</ele><time>2026-04-24T14:30:14Z</time></trkpt><trkpt lat="44.01839311516599" lon="12.62784667654516"><ele>5.0</ele><time>2026-04-24T14:30:15Z</time></trkpt><trkpt lat="44.018325674445435" lon="12.62795644020177"><ele>5.0</ele><time>2026-04-24T14:30:16Z</time></trkpt><trkpt lat="44.01824893783177" lon="12.628077943953748"><ele>5.25</ele><time>2026-04-24T14:30:17Z</time></trkpt><trkpt lat="44.01816836806351" lon="12.628211498867643"><ele>5.5</ele><time>2026-04-24T14:30:18Z</time></trkpt><trkpt lat="44.01808202095271" lon="12.628358820194933"><ele>5.75</ele><time>2026-04-24T14:30:19Z</time></trkpt><trkpt lat="44.01799833958635" lon="12.62850588841639"><ele>6.0</ele><time>2026-04-24T14:30:20Z</time></trkpt><trkpt lat="44.01791360171067" lon="12.62865219328403"><ele>6.0</ele><time>2026-04-24T14:30:21Z</time></trkpt><trkpt lat="44.017826125189885" lon="12.62880655948473"><ele>6.0</ele><time>2026-04-24T14:30:22Z</time></trkpt><trkpt lat="44.017735559750164" lon="12.628972893217599"><ele>6.0</ele><time>2026-04-24T14:30:23Z</time></trkpt><trkpt lat="44.01763837614346" lon="12.629142028897201"><ele>6.0</ele><time>2026-04-24T14:30:24Z</time></trkpt><trkpt lat="44.017532056549086" lon="12.629312602292801"><ele>6.666666666666666</ele><time>2026-04-24T14:30:25Z</time></trkpt><trkpt lat="44.01741875182348" lon="12.629491386260446"><ele>7.333333333333333</ele><time>2026-04-24T14:30:26Z</time></trkpt><trkpt lat="44.01730107749122" lon="12.629673248592042"><ele>8.0</ele><time>2026-04-24T14:30:27Z</time></trkpt><trkpt lat="44.01718596333473" lon="12.629861243830476"><ele>8.0</ele><time>2026-04-24T14:30:28Z</time></trkpt><trkpt lat="44.01704807274846" lon="12.630031721890099"><ele>8.0</ele><time>2026-04-24T14:30:29Z</time></trkpt><trkpt lat="44.016944137055326" lon="12.630242796582774"><ele>8.0</ele><time>2026-04-24T14:30:30Z</time></trkpt><trkpt lat="44.01682372869534" lon="12.630427250186488"><ele>7.666666666666666</ele><time>2026-04-24T14:30:31Z</time></trkpt><trkpt lat="44.01671128522269" lon="12.630603093043595"><ele>7.333333333333334</ele><time>2026-04-24T14:30:32Z</time></trkpt><trkpt lat="44.016602598501706" lon="12.630768823037917"><ele>7.0</ele><time>2026-04-24T14:30:33Z</time></trkpt><trkpt lat="44.016498629440704" lon="12.630932620864392"><ele>7.0</ele><time>2026-04-24T14:30:34Z</time></trkpt><trkpt lat="44.016396695979275" lon="12.631088891390764"><ele>7.0</ele><time>2026-04-24T14:30:35Z</time></trkpt><trkpt lat="44.016301236095885" lon="12.631243637515237"><ele>7.0</ele><time>2026-04-24T14:30:36Z</time></trkpt><trkpt lat="44.01620428922141" lon="12.631386634244025"><ele>7.0</ele><time>2026-04-24T14:30:37Z</time></trkpt><trkpt lat="44.0161030308014" lon="12.63152735309442"><ele>7.0</ele><time>2026-04-24T14:30:38Z</time></trkpt><trkpt lat="44.01599834487446" lon="12.631661320771261"><ele>7.0</ele><time>2026-04-24T14:30:39Z</time></trkpt><trkpt lat="44.01588425259591" lon="12.631788795220704"><ele>7.0</ele><time>2026-04-24T14:30:40Z</time></trkpt><trkpt lat="44.015761094354154" lon="12.631909182336589"><ele>7.0</ele><time>2026-04-24T14:30:41Z</time></trkpt><trkpt lat="44.015630143543184" lon="12.632018048508964"><ele>5.666666666666667</ele><time>2026-04-24T14:30:42Z</time></trkpt><trkpt lat="44.01549080459442" lon="12.63211179573673"><ele>4.333333333333334</ele><time>2026-04-24T14:30:43Z</time></trkpt><trkpt lat="44.01533768249663" lon="12.632168359713928"><ele>3.0</ele><time>2026-04-24T14:30:44Z</time></trkpt><trkpt lat="44.015188498255114" lon="12.632232538755341"><ele>3.0</ele><time>2026-04-24T14:30:45Z</time></trkpt><trkpt lat="44.01504580825766" lon="12.632294879932433"><ele>3.0</ele><time>2026-04-24T14:30:46Z</time></trkpt><trkpt lat="44.014893190566426" lon="12.632316211659038"><ele>3.0</ele><time>2026-04-24T14:30:47Z</time></trkpt><trkpt lat="44.01474096319209" lon="12.63235315194474"><ele>4.666666666666666</ele><time>2026-04-24T14:30:48Z</time></trkpt><trkpt lat="44.01458592734188" lon="12.632390857317084"><ele>6.333333333333333</ele><time>2026-04-24T14:30:49Z</time></trkpt><trkpt lat="44.01443266697592" lon="12.632449572781386"><ele>8.0</ele><time>2026-04-24T14:30:50Z</time></trkpt><trkpt lat="44.01427623868133" lon="12.632480403802903"><ele>5.666666666666666</ele><time>2026-04-24T14:30:51Z</time></trkpt><trkpt lat="44.014121880528315" lon="12.632515684300298"><ele>3.333333333333333</ele><time>2026-04-24T14:30:52Z</time></trkpt><trkpt lat="44.01397098088014" lon="12.632561147866529"><ele>1.0</ele><time>2026-04-24T14:30:53Z</time></trkpt><trkpt lat="44.01381971425013" lon="12.632599920218587"><ele>1.0</ele><time>2026-04-24T14:30:54Z</time></trkpt><trkpt lat="44.01366763436688" lon="12.63263582883402"><ele>1.0</ele><time>2026-04-24T14:30:55Z</time></trkpt><trkpt lat="44.0135157889493" lon="12.632670749456128"><ele>1.0</ele><time>2026-04-24T14:30:56Z</time></trkpt><trkpt lat="44.01336090764942" lon="12.632704238459102"><ele>1.5</ele><time>2026-04-24T14:30:57Z</time></trkpt><trkpt lat="44.01320995749418" lon="12.632738868294135"><ele>2.0</ele><time>2026-04-24T14:30:58Z</time></trkpt><trkpt lat="44.01306606398184" lon="12.632772708723753"><ele>2.5</ele><time>2026-04-24T14:30:59Z</time></trkpt><trkpt lat="44.012921258239125" lon="12.632805261915083"><ele>3.0</ele><time>2026-04-24T14:31:00Z</time></trkpt><trkpt lat="44.01277556782986" lon="12.632844250827926"><ele>3.0</ele><time>2026-04-24T14:31:01Z</time></trkpt><trkpt lat="44.012628656791264" lon="12.63288328512148"><ele>3.0</ele><time>2026-04-24T14:31:02Z</time></trkpt><trkpt lat="44.01248367458149" lon="12.632917311622773"><ele>3.0</ele><time>2026-04-24T14:31:03Z</time></trkpt><trkpt lat="44.012339278471636" lon="12.632951001206546"><ele>3.0</ele><time>2026-04-24T14:31:04Z</time></trkpt><trkpt lat="44.01218883582032" lon="12.632982899556058"><ele>4.5</ele><time>2026-04-24T14:31:05Z</time></trkpt><trkpt lat="44.01204708591134" lon="12.633011060446982"><ele>6.0</ele><time>2026-04-24T14:31:06Z</time></trkpt><trkpt lat="44.01190731788913" lon="12.633042326397092"><ele>7.5</ele><time>2026-04-24T14:31:07Z</time></trkpt><trkpt lat="44.011767203728944" lon="12.63307286318357"><ele>9.0</ele><time>2026-04-24T14:31:08Z</time></trkpt><trkpt lat="44.011626764675" lon="12.633099631416746"><ele>9.0</ele><time>2026-04-24T14:31:09Z</time></trkpt><trkpt lat="44.011486227471565" lon="12.63311981600292"><ele>9.0</ele><time>2026-04-24T14:31:10Z</time></trkpt><trkpt lat="44.01134285423732" lon="12.633133298557482"><ele>9.0</ele><time>2026-04-24T14:31:11Z</time></trkpt><trkpt lat="44.011201912295675" lon="12.633148775999379"><ele>9.0</ele><time>2026-04-24T14:31:12Z</time></trkpt><trkpt lat="44.011060261468785" lon="12.63314161172465"><ele>9.0</ele><time>2026-04-24T14:31:13Z</time></trkpt><trkpt lat="44.01092007514538" lon="12.63315375718099"><ele>9.0</ele><time>2026-04-24T14:31:14Z</time></trkpt><trkpt lat="44.01078070231471" lon="12.6331658321506"><ele>9.0</ele><time>2026-04-24T14:31:15Z</time></trkpt><trkpt lat="44.01063580159549" lon="12.63317741493243"><ele>9.0</ele><time>2026-04-24T14:31:16Z</time></trkpt><trkpt lat="44.01048906175013" lon="12.633188548744334"><ele>9.25</ele><time>2026-04-24T14:31:17Z</time></trkpt><trkpt lat="44.0103427683012" lon="12.633218414125412"><ele>9.5</ele><time>2026-04-24T14:31:18Z</time></trkpt><trkpt lat="44.010193031842846" lon="12.633216685740416"><ele>9.75</ele><time>2026-04-24T14:31:19Z</time></trkpt><trkpt lat="44.01004429075403" lon="12.633220086755237"><ele>10.0</ele><time>2026-04-24T14:31:20Z</time></trkpt><trkpt lat="44.009894147976496" lon="12.633224772153792"><ele>10.0</ele><time>2026-04-24T14:31:21Z</time></trkpt><trkpt lat="44.00974651862355" lon="12.633232283749964"><ele>10.0</ele><time>2026-04-24T14:31:22Z</time></trkpt><trkpt lat="44.009598953557905" lon="12.63324440072956"><ele>10.0</ele><time>2026-04-24T14:31:23Z</time></trkpt><trkpt lat="44.0094523671475" lon="12.633253671460904"><ele>10.0</ele><time>2026-04-24T14:31:24Z</time></trkpt><trkpt lat="44.00930122630584" lon="12.633260745314235"><ele>11.0</ele><time>2026-04-24T14:31:25Z</time></trkpt><trkpt lat="44.00915017994625" lon="12.633268825806391"><ele>12.0</ele><time>2026-04-24T14:31:26Z</time></trkpt><trkpt lat="44.00900127087948" lon="12.633275978884017"><ele>13.0</ele><time>2026-04-24T14:31:27Z</time></trkpt><trkpt lat="44.008846488727" lon="12.633287099866262"><ele>13.0</ele><time>2026-04-24T14:31:28Z</time></trkpt><trkpt lat="44.00869262443672" lon="12.63330223237124"><ele>13.0</ele><time>2026-04-24T14:31:29Z</time></trkpt><trkpt lat="44.00853637380373" lon="12.633312830198413"><ele>13.0</ele><time>2026-04-24T14:31:30Z</time></trkpt><trkpt lat="44.008378054301176" lon="12.63332736373012"><ele>13.333333333333332</ele><time>2026-04-24T14:31:31Z</time></trkpt><trkpt lat="44.00822185251496" lon="12.633343229839937"><ele>13.666666666666668</ele><time>2026-04-24T14:31:32Z</time></trkpt><trkpt lat="44.00805957702444" lon="12.63336132090443"><ele>14.0</ele><time>2026-04-24T14:31:33Z</time></trkpt><trkpt lat="44.00789080672622" lon="12.633372472462343"><ele>14.0</ele><time>2026-04-24T14:31:34Z</time></trkpt><trkpt lat="44.00771830484792" lon="12.633390551262039"><ele>14.0</ele><time>2026-04-24T14:31:35Z</time></trkpt><trkpt lat="44.007545249355545" lon="12.633408224583322"><ele>14.0</ele><time>2026-04-24T14:31:36Z</time></trkpt><trkpt lat="44.00737193342139" lon="12.633425897585557"><ele>14.0</ele><time>2026-04-24T14:31:37Z</time></trkpt><trkpt lat="44.007196228355305" lon="12.63343241165589"><ele>14.0</ele><time>2026-04-24T14:31:38Z</time></trkpt><trkpt lat="44.00702267202996" lon="12.633440967081869"><ele>14.0</ele><time>2026-04-24T14:31:39Z</time></trkpt><trkpt lat="44.00686023246537" lon="12.633452301254286"><ele>14.0</ele><time>2026-04-24T14:31:40Z</time></trkpt><trkpt lat="44.0067057108497" lon="12.633459502372299"><ele>14.0</ele><time>2026-04-24T14:31:41Z</time></trkpt><trkpt lat="44.00655587081326" lon="12.633468781971763"><ele>14.0</ele><time>2026-04-24T14:31:42Z</time></trkpt><trkpt lat="44.00640744972676" lon="12.633483151548171"><ele>14.25</ele><time>2026-04-24T14:31:43Z</time></trkpt><trkpt lat="44.0062561964438" lon="12.633496481418286"><ele>14.5</ele><time>2026-04-24T14:31:44Z</time></trkpt><trkpt lat="44.00610995761225" lon="12.63351141512861"><ele>14.75</ele><time>2026-04-24T14:31:45Z</time></trkpt><trkpt lat="44.005973103204155" lon="12.63352962289968"><ele>15.0</ele><time>2026-04-24T14:31:46Z</time></trkpt><trkpt lat="44.00583780541819" lon="12.633543765231574"><ele>15.25</ele><time>2026-04-24T14:31:47Z</time></trkpt><trkpt lat="44.00571061318627" lon="12.633559731278915"><ele>15.5</ele><time>2026-04-24T14:31:48Z</time></trkpt><trkpt lat="44.00558943103894" lon="12.633579457480879"><ele>15.75</ele><time>2026-04-24T14:31:49Z</time></trkpt><trkpt lat="44.00547712882604" lon="12.633590321857229"><ele>16.0</ele><time>2026-04-24T14:31:50Z</time></trkpt><trkpt lat="44.00538095539305" lon="12.633601108437382"><ele>16.0</ele><time>2026-04-24T14:31:51Z</time></trkpt><trkpt lat="44.005301772865025" lon="12.633613626013927"><ele>16.0</ele><time>2026-04-24T14:31:52Z</time></trkpt><trkpt lat="44.00519709558719" lon="12.633620537374231"><ele>16.0</ele><time>2026-04-24T14:31:54Z</time></trkpt><trkpt lat="44.00512833529324" lon="12.633563771003143"><ele>16.0</ele><time>2026-04-24T14:31:57Z</time></trkpt><trkpt lat="44.0050238498" lon="12.633470668665495"><ele>16.0</ele><time>2026-04-24T14:31:59Z</time></trkpt><trkpt lat="44.0049594897035" lon="12.63342666286879"><ele>15.999999999999998</ele><time>2026-04-24T14:32:00Z</time></trkpt><trkpt lat="44.00487875671731" lon="12.633384174408137"><ele>16.0</ele><time>2026-04-24T14:32:01Z</time></trkpt><trkpt lat="44.004827554975584" lon="12.633438931452291"><ele>16.0</ele><time>2026-04-24T14:32:02Z</time></trkpt><trkpt lat="44.004773015596" lon="12.633501854922148"><ele>16.0</ele><time>2026-04-24T14:32:03Z</time></trkpt><trkpt lat="44.00472317929135" lon="12.633584267738247"><ele>15.999999999999998</ele><time>2026-04-24T14:32:04Z</time></trkpt><trkpt lat="44.0046669442426" lon="12.63367759086583"><ele>16.0</ele><time>2026-04-24T14:32:05Z</time></trkpt><trkpt lat="44.00459479795817" lon="12.633773959253864"><ele>15.4</ele><time>2026-04-24T14:32:06Z</time></trkpt><trkpt lat="44.004514499155015" lon="12.63385050226831"><ele>14.8</ele><time>2026-04-24T14:32:07Z</time></trkpt><trkpt lat="44.00442646884783" lon="12.63390987745938"><ele>14.200000000000001</ele><time>2026-04-24T14:32:08Z</time></trkpt><trkpt lat="44.00432357570133" lon="12.633914528780627"><ele>13.600000000000001</ele><time>2026-04-24T14:32:09Z</time></trkpt><trkpt lat="44.00423185691539" lon="12.633947712436166"><ele>13.0</ele><time>2026-04-24T14:32:10Z</time></trkpt><trkpt lat="44.00415379284296" lon="12.633976375963343"><ele>13.0</ele><time>2026-04-24T14:32:11Z</time></trkpt><trkpt lat="44.00407781263862" lon="12.634004831690527"><ele>13.0</ele><time>2026-04-24T14:32:12Z</time></trkpt><trkpt lat="44.00399494078744" lon="12.634035868638113"><ele>13.0</ele><time>2026-04-24T14:32:13Z</time></trkpt><trkpt lat="44.00390583381346" lon="12.634069240677926"><ele>13.0</ele><time>2026-04-24T14:32:14Z</time></trkpt><trkpt lat="44.00380504221499" lon="12.634107175221402"><ele>13.0</ele><time>2026-04-24T14:32:15Z</time></trkpt><trkpt lat="44.00369750046671" lon="12.634148201699293"><ele>13.0</ele><time>2026-04-24T14:32:16Z</time></trkpt><trkpt lat="44.00358383191102" lon="12.634190314899131"><ele>13.0</ele><time>2026-04-24T14:32:17Z</time></trkpt><trkpt lat="44.00346876315119" lon="12.63425003456973"><ele>13.0</ele><time>2026-04-24T14:32:18Z</time></trkpt><trkpt lat="44.00335314150795" lon="12.634287941744972"><ele>13.0</ele><time>2026-04-24T14:32:19Z</time></trkpt><trkpt lat="44.00324812298751" lon="12.634328358867275"><ele>13.0</ele><time>2026-04-24T14:32:20Z</time></trkpt><trkpt lat="44.00315255291771" lon="12.634366661344389"><ele>13.0</ele><time>2026-04-24T14:32:21Z</time></trkpt><trkpt lat="44.00306104311504" lon="12.63440065746538"><ele>13.0</ele><time>2026-04-24T14:32:22Z</time></trkpt><trkpt lat="44.0029818716928" lon="12.634437588178445"><ele>13.0</ele><time>2026-04-24T14:32:23Z</time></trkpt><trkpt lat="44.00290981910487" lon="12.634461138459022"><ele>13.0</ele><time>2026-04-24T14:32:24Z</time></trkpt><trkpt lat="44.002787905636204" lon="12.634454106935463"><ele>13.0</ele><time>2026-04-24T14:32:26Z</time></trkpt><trkpt lat="44.002672678701515" lon="12.63437503675069"><ele>13.0</ele><time>2026-04-24T14:32:28Z</time></trkpt><trkpt lat="44.00260860905671" lon="12.634329925002207"><ele>13.0</ele><time>2026-04-24T14:32:29Z</time></trkpt><trkpt lat="44.002504838429196" lon="12.634317479550528"><ele>13.0</ele><time>2026-04-24T14:32:31Z</time></trkpt><trkpt lat="44.00241573758742" lon="12.634397070121183"><ele>13.0</ele><time>2026-04-24T14:32:33Z</time></trkpt><trkpt lat="44.00237958483893" lon="12.634483086957271"><ele>12.833333333333332</ele><time>2026-04-24T14:32:34Z</time></trkpt><trkpt lat="44.00236606277051" lon="12.634588502909768"><ele>12.666666666666666</ele><time>2026-04-24T14:32:35Z</time></trkpt><trkpt lat="44.00236960450576" lon="12.634702532544518"><ele>12.5</ele><time>2026-04-24T14:32:36Z</time></trkpt><trkpt lat="44.00238122810725" lon="12.634817426080723"><ele>12.333333333333332</ele><time>2026-04-24T14:32:37Z</time></trkpt><trkpt lat="44.002383822723814" lon="12.634940120792956"><ele>12.166666666666666</ele><time>2026-04-24T14:32:38Z</time></trkpt><trkpt lat="44.00236270198617" lon="12.635076340731361"><ele>12.0</ele><time>2026-04-24T14:32:39Z</time></trkpt><trkpt lat="44.00229154938345" lon="12.63519783994502"><ele>11.75</ele><time>2026-04-24T14:32:40Z</time></trkpt><trkpt lat="44.00222783631157" lon="12.6353420345952"><ele>11.5</ele><time>2026-04-24T14:32:41Z</time></trkpt><trkpt lat="44.002156327995735" lon="12.63550387073734"><ele>11.25</ele><time>2026-04-24T14:32:42Z</time></trkpt><trkpt lat="44.00208122631431" lon="12.635674937123218"><ele>11.0</ele><time>2026-04-24T14:32:43Z</time></trkpt><trkpt lat="44.00201251053276" lon="12.63585944873055"><ele>11.0</ele><time>2026-04-24T14:32:44Z</time></trkpt><trkpt lat="44.00193151724802" lon="12.636041958963144"><ele>11.0</ele><time>2026-04-24T14:32:45Z</time></trkpt><trkpt lat="44.00185610194182" lon="12.636232599322716"><ele>11.0</ele><time>2026-04-24T14:32:46Z</time></trkpt><trkpt lat="44.00178651262214" lon="12.636425002347607"><ele>11.0</ele><time>2026-04-24T14:32:47Z</time></trkpt><trkpt lat="44.0017254571579" lon="12.63660481097557"><ele>11.0</ele><time>2026-04-24T14:32:48Z</time></trkpt><trkpt lat="44.00166938923489" lon="12.636781763546242"><ele>11.0</ele><time>2026-04-24T14:32:49Z</time></trkpt><trkpt lat="44.0016155993703" lon="12.636964095705277"><ele>11.0</ele><time>2026-04-24T14:32:50Z</time></trkpt><trkpt lat="44.0015740794054" lon="12.637160161786117"><ele>11.0</ele><time>2026-04-24T14:32:51Z</time></trkpt><trkpt lat="44.001531962473386" lon="12.637358882416397"><ele>11.0</ele><time>2026-04-24T14:32:52Z</time></trkpt><trkpt lat="44.001493665400744" lon="12.637562039729904"><ele>11.0</ele><time>2026-04-24T14:32:53Z</time></trkpt><trkpt lat="44.00146035139779" lon="12.637766597457249"><ele>11.0</ele><time>2026-04-24T14:32:54Z</time></trkpt><trkpt lat="44.00142845347935" lon="12.637967180277885"><ele>11.0</ele><time>2026-04-24T14:32:55Z</time></trkpt><trkpt lat="44.00139889563044" lon="12.63816335177767"><ele>11.0</ele><time>2026-04-24T14:32:56Z</time></trkpt><trkpt lat="44.00137025813242" lon="12.638366185407516"><ele>11.0</ele><time>2026-04-24T14:32:57Z</time></trkpt><trkpt lat="44.00133800185034" lon="12.63857382037583"><ele>11.0</ele><time>2026-04-24T14:32:58Z</time></trkpt><trkpt lat="44.00130231537573" lon="12.638776809602192"><ele>11.0</ele><time>2026-04-24T14:32:59Z</time></trkpt><trkpt lat="44.001266520887555" lon="12.638977916390886"><ele>11.0</ele><time>2026-04-24T14:33:00Z</time></trkpt><trkpt lat="44.00122549802773" lon="12.639174357438563"><ele>11.0</ele><time>2026-04-24T14:33:01Z</time></trkpt><trkpt lat="44.00118749499984" lon="12.639360030698539"><ele>10.600000000000001</ele><time>2026-04-24T14:33:02Z</time></trkpt><trkpt lat="44.00114720670699" lon="12.639511872255731"><ele>10.200000000000001</ele><time>2026-04-24T14:33:03Z</time></trkpt><trkpt lat="44.001112898678095" lon="12.639639446970246"><ele>9.8</ele><time>2026-04-24T14:33:04Z</time></trkpt><trkpt lat="44.00108255756449" lon="12.639757328673813"><ele>9.4</ele><time>2026-04-24T14:33:05Z</time></trkpt><trkpt lat="44.001049362129784" lon="12.639882965862574"><ele>9.0</ele><time>2026-04-24T14:33:06Z</time></trkpt><trkpt lat="44.001015649343884" lon="12.640015278701329"><ele>9.0</ele><time>2026-04-24T14:33:07Z</time></trkpt><trkpt lat="44.00098620770692" lon="12.640145764294818"><ele>9.0</ele><time>2026-04-24T14:33:08Z</time></trkpt><trkpt lat="44.00096070519168" lon="12.64027368064377"><ele>9.0</ele><time>2026-04-24T14:33:09Z</time></trkpt><trkpt lat="44.000934974907366" lon="12.640415760508283"><ele>9.0</ele><time>2026-04-24T14:33:10Z</time></trkpt><trkpt lat="44.000911375020394" lon="12.640575171028585"><ele>9.0</ele><time>2026-04-24T14:33:11Z</time></trkpt><trkpt lat="44.00088406867609" lon="12.640738100430635"><ele>9.5</ele><time>2026-04-24T14:33:12Z</time></trkpt><trkpt lat="44.00085570477411" lon="12.64089879464642"><ele>10.0</ele><time>2026-04-24T14:33:13Z</time></trkpt><trkpt lat="44.00082656209818" lon="12.641064529041211"><ele>10.5</ele><time>2026-04-24T14:33:14Z</time></trkpt><trkpt lat="44.000791891973435" lon="12.641221420627604"><ele>11.0</ele><time>2026-04-24T14:33:15Z</time></trkpt><trkpt lat="44.00075708985916" lon="12.641373125330698"><ele>9.5</ele><time>2026-04-24T14:33:16Z</time></trkpt><trkpt lat="44.00071562754866" lon="12.641525984563025"><ele>8.0</ele><time>2026-04-24T14:33:17Z</time></trkpt><trkpt lat="44.000651224995075" lon="12.641675028659828"><ele>6.5</ele><time>2026-04-24T14:33:18Z</time></trkpt><trkpt lat="44.00060898727734" lon="12.641853474438504"><ele>5.0</ele><time>2026-04-24T14:33:19Z</time></trkpt><trkpt lat="44.00055085504833" lon="12.6420030528266"><ele>5.0</ele><time>2026-04-24T14:33:20Z</time></trkpt><trkpt lat="44.00048989529486" lon="12.642135551959079"><ele>5.0</ele><time>2026-04-24T14:33:21Z</time></trkpt><trkpt lat="44.00043396183923" lon="12.642257214547959"><ele>5.0</ele><time>2026-04-24T14:33:22Z</time></trkpt><trkpt lat="44.00037736154431" lon="12.642389617490386"><ele>5.0</ele><time>2026-04-24T14:33:23Z</time></trkpt><trkpt lat="44.00032759038248" lon="12.642525635422981"><ele>5.0</ele><time>2026-04-24T14:33:24Z</time></trkpt><trkpt lat="44.00027816598905" lon="12.642659172244304"><ele>5.0</ele><time>2026-04-24T14:33:25Z</time></trkpt><trkpt lat="44.00022719168036" lon="12.642795716062185"><ele>5.0</ele><time>2026-04-24T14:33:26Z</time></trkpt><trkpt lat="44.000172556848455" lon="12.642938554289831"><ele>5.0</ele><time>2026-04-24T14:33:27Z</time></trkpt><trkpt lat="44.00011841967953" lon="12.643076109784912"><ele>5.0</ele><time>2026-04-24T14:33:28Z</time></trkpt><trkpt lat="44.000066226748444" lon="12.643214183116262"><ele>5.25</ele><time>2026-04-24T14:33:29Z</time></trkpt><trkpt lat="44.00001213154788" lon="12.643351026291661"><ele>5.5</ele><time>2026-04-24T14:33:30Z</time></trkpt><trkpt lat="43.99996073494573" lon="12.643488385055665"><ele>5.75</ele><time>2026-04-24T14:33:31Z</time></trkpt><trkpt lat="43.99990030272902" lon="12.64363264689832"><ele>6.0</ele><time>2026-04-24T14:33:32Z</time></trkpt><trkpt lat="43.999839550934105" lon="12.64379492671859"><ele>5.333333333333333</ele><time>2026-04-24T14:33:33Z</time></trkpt><trkpt lat="43.99977043994197" lon="12.643975552479537"><ele>4.666666666666666</ele><time>2026-04-24T14:33:34Z</time></trkpt><trkpt lat="43.999684662392326" lon="12.644160115391292"><ele>4.0</ele><time>2026-04-24T14:33:35Z</time></trkpt><trkpt lat="43.99960522786218" lon="12.644363111852062"><ele>3.75</ele><time>2026-04-24T14:33:36Z</time></trkpt><trkpt lat="43.99953305502288" lon="12.644547550835247"><ele>3.5</ele><time>2026-04-24T14:33:37Z</time></trkpt><trkpt lat="43.999474229551076" lon="12.644732376861421"><ele>3.25</ele><time>2026-04-24T14:33:38Z</time></trkpt><trkpt lat="43.99940961324119" lon="12.64489641693003"><ele>3.0</ele><time>2026-04-24T14:33:39Z</time></trkpt><trkpt lat="43.999345875263856" lon="12.645052946983595"><ele>3.0</ele><time>2026-04-24T14:33:40Z</time></trkpt><trkpt lat="43.99927929336064" lon="12.645218860788216"><ele>3.0</ele><time>2026-04-24T14:33:41Z</time></trkpt><trkpt lat="43.999214095027085" lon="12.645391636046218"><ele>3.0</ele><time>2026-04-24T14:33:42Z</time></trkpt><trkpt lat="43.99914971406578" lon="12.645556593265884"><ele>3.0</ele><time>2026-04-24T14:33:43Z</time></trkpt><trkpt lat="43.99908755589444" lon="12.645712618928792"><ele>3.8</ele><time>2026-04-24T14:33:44Z</time></trkpt><trkpt lat="43.99903237295593" lon="12.645854635315798"><ele>4.6</ele><time>2026-04-24T14:33:45Z</time></trkpt><trkpt lat="43.99898008741217" lon="12.645988349435125"><ele>5.3999999999999995</ele><time>2026-04-24T14:33:46Z</time></trkpt><trkpt lat="43.99893447839795" lon="12.646108593952825"><ele>6.199999999999999</ele><time>2026-04-24T14:33:47Z</time></trkpt><trkpt lat="43.99888789028562" lon="12.64622354674322"><ele>7.0</ele><time>2026-04-24T14:33:48Z</time></trkpt><trkpt lat="43.99884107017223" lon="12.646327432763435"><ele>7.0</ele><time>2026-04-24T14:33:49Z</time></trkpt><trkpt lat="43.99879427353511" lon="12.646415302706988"><ele>6.999999999999999</ele><time>2026-04-24T14:33:50Z</time></trkpt><trkpt lat="43.998751101767766" lon="12.6464943047691"><ele>6.999999999999999</ele><time>2026-04-24T14:33:51Z</time></trkpt><trkpt lat="43.99867894330211" lon="12.6466134929035"><ele>7.0</ele><time>2026-04-24T14:33:53Z</time></trkpt><trkpt lat="43.99857484160548" lon="12.646685931643919"><ele>7.0</ele><time>2026-04-24T14:33:55Z</time></trkpt><trkpt lat="43.998500261849074" lon="12.646722242230991"><ele>7.000000000000001</ele><time>2026-04-24T14:33:56Z</time></trkpt><trkpt lat="43.99842627539292" lon="12.64677060383034"><ele>7.0</ele><time>2026-04-24T14:33:57Z</time></trkpt><trkpt lat="43.99837853604193" lon="12.646865079864783"><ele>7.0</ele><time>2026-04-24T14:33:58Z</time></trkpt><trkpt lat="43.998352305090044" lon="12.646967391168236"><ele>7.0</ele><time>2026-04-24T14:33:59Z</time></trkpt><trkpt lat="43.99834721615415" lon="12.647088439902873"><ele>7.000000000000001</ele><time>2026-04-24T14:34:00Z</time></trkpt><trkpt lat="43.99833473389999" lon="12.647224784704111"><ele>7.0</ele><time>2026-04-24T14:34:01Z</time></trkpt><trkpt lat="43.99830720136786" lon="12.647370357371779"><ele>7.199999999999999</ele><time>2026-04-24T14:34:02Z</time></trkpt><trkpt lat="43.99825394597687" lon="12.647484536986152"><ele>7.3999999999999995</ele><time>2026-04-24T14:34:03Z</time></trkpt><trkpt lat="43.99816720103326" lon="12.647523474677127"><ele>7.6000000000000005</ele><time>2026-04-24T14:34:04Z</time></trkpt><trkpt lat="43.998076443132184" lon="12.647652962691264"><ele>7.800000000000001</ele><time>2026-04-24T14:34:05Z</time></trkpt><trkpt lat="43.9979960129886" lon="12.647763375150538"><ele>8.0</ele><time>2026-04-24T14:34:06Z</time></trkpt><trkpt lat="43.99791308210826" lon="12.647869172303736"><ele>8.0</ele><time>2026-04-24T14:34:07Z</time></trkpt><trkpt lat="43.997819426955274" lon="12.64797352030985"><ele>8.0</ele><time>2026-04-24T14:34:08Z</time></trkpt><trkpt lat="43.997701442541775" lon="12.648039990496134"><ele>8.0</ele><time>2026-04-24T14:34:09Z</time></trkpt><trkpt lat="43.99757684861562" lon="12.64809351231871"><ele>8.0</ele><time>2026-04-24T14:34:10Z</time></trkpt><trkpt lat="43.99745304701961" lon="12.648130573583211"><ele>8.75</ele><time>2026-04-24T14:34:11Z</time></trkpt><trkpt lat="43.997324522712766" lon="12.648164675638304"><ele>9.5</ele><time>2026-04-24T14:34:12Z</time></trkpt><trkpt lat="43.99719761149704" lon="12.64819871227895"><ele>10.25</ele><time>2026-04-24T14:34:13Z</time></trkpt><trkpt lat="43.99707664275563" lon="12.648228714160672"><ele>11.0</ele><time>2026-04-24T14:34:14Z</time></trkpt><trkpt lat="43.99695660211021" lon="12.648249391096229"><ele>11.0</ele><time>2026-04-24T14:34:15Z</time></trkpt><trkpt lat="43.99683872911799" lon="12.64827707888847"><ele>11.0</ele><time>2026-04-24T14:34:16Z</time></trkpt><trkpt lat="43.99672681322024" lon="12.648299835884016"><ele>11.0</ele><time>2026-04-24T14:34:17Z</time></trkpt><trkpt lat="43.99660841958784" lon="12.648329902457963"><ele>11.0</ele><time>2026-04-24T14:34:18Z</time></trkpt><trkpt lat="43.996486821642755" lon="12.648342278807297"><ele>10.75</ele><time>2026-04-24T14:34:19Z</time></trkpt><trkpt lat="43.99636897653432" lon="12.648370353382914"><ele>10.5</ele><time>2026-04-24T14:34:20Z</time></trkpt><trkpt lat="43.99625065459022" lon="12.64839933814222"><ele>10.25</ele><time>2026-04-24T14:34:21Z</time></trkpt><trkpt lat="43.99613767948874" lon="12.64842853358712"><ele>10.0</ele><time>2026-04-24T14:34:22Z</time></trkpt><trkpt lat="43.996026045450265" lon="12.648457256295009"><ele>10.0</ele><time>2026-04-24T14:34:23Z</time></trkpt><trkpt lat="43.995915910946685" lon="12.648491618863721"><ele>10.0</ele><time>2026-04-24T14:34:24Z</time></trkpt><trkpt lat="43.995809664698264" lon="12.648517434251017"><ele>10.0</ele><time>2026-04-24T14:34:25Z</time></trkpt><trkpt lat="43.99570030278733" lon="12.648541574066392"><ele>10.0</ele><time>2026-04-24T14:34:26Z</time></trkpt><trkpt lat="43.99559229771871" lon="12.648565014504646"><ele>10.0</ele><time>2026-04-24T14:34:27Z</time></trkpt><trkpt lat="43.99548915094253" lon="12.648587177126586"><ele>9.833333333333334</ele><time>2026-04-24T14:34:28Z</time></trkpt><trkpt lat="43.99539642973973" lon="12.648606638909568"><ele>9.666666666666668</ele><time>2026-04-24T14:34:29Z</time></trkpt><trkpt lat="43.995322878148826" lon="12.648622077055247"><ele>9.5</ele><time>2026-04-24T14:34:30Z</time></trkpt><trkpt lat="43.995223907120135" lon="12.648673428995552"><ele>9.333333333333334</ele><time>2026-04-24T14:34:32Z</time></trkpt><trkpt lat="43.99516271878536" lon="12.648703088257864"><ele>9.166666666666666</ele><time>2026-04-24T14:34:38Z</time></trkpt><trkpt lat="43.99508418595465" lon="12.648682135713415"><ele>9.0</ele><time>2026-04-24T14:34:40Z</time></trkpt><trkpt lat="43.995019931796314" lon="12.648707269434794"><ele>9.8</ele><time>2026-04-24T14:34:41Z</time></trkpt><trkpt lat="43.9949346157946" lon="12.648758322208234"><ele>10.600000000000001</ele><time>2026-04-24T14:34:42Z</time></trkpt><trkpt lat="43.99482156522847" lon="12.64882255721283"><ele>11.4</ele><time>2026-04-24T14:34:43Z</time></trkpt><trkpt lat="43.99471171865406" lon="12.648874138786121"><ele>12.200000000000001</ele><time>2026-04-24T14:34:44Z</time></trkpt><trkpt lat="43.99461087643994" lon="12.648928127934832"><ele>13.0</ele><time>2026-04-24T14:34:45Z</time></trkpt><trkpt lat="43.99451165734788" lon="12.648991173273142"><ele>12.999999999999998</ele><time>2026-04-24T14:34:46Z</time></trkpt><trkpt lat="43.994416272557515" lon="12.649064135665373"><ele>13.0</ele><time>2026-04-24T14:34:47Z</time></trkpt><trkpt lat="43.99433457054453" lon="12.64913227221472"><ele>13.0</ele><time>2026-04-24T14:34:48Z</time></trkpt><trkpt lat="43.994260151257855" lon="12.649191078480609"><ele>13.0</ele><time>2026-04-24T14:34:49Z</time></trkpt><trkpt lat="43.994191908315166" lon="12.649250699487416"><ele>12.999999999999998</ele><time>2026-04-24T14:34:50Z</time></trkpt><trkpt lat="43.99412964085095" lon="12.6492990163817"><ele>13.0</ele><time>2026-04-24T14:34:51Z</time></trkpt><trkpt lat="43.99403677735665" lon="12.649399566549409"><ele>13.2</ele><time>2026-04-24T14:34:53Z</time></trkpt><trkpt lat="43.99395888951466" lon="12.649510166572567"><ele>13.4</ele><time>2026-04-24T14:34:55Z</time></trkpt><trkpt lat="43.99388100854447" lon="12.649613733416379"><ele>13.599999999999998</ele><time>2026-04-24T14:34:57Z</time></trkpt><trkpt lat="43.99380574432006" lon="12.649712947744977"><ele>13.799999999999999</ele><time>2026-04-24T14:34:59Z</time></trkpt><trkpt lat="43.993748905891245" lon="12.649798220958466"><ele>14.0</ele><time>2026-04-24T14:35:01Z</time></trkpt><trkpt lat="43.993675695416954" lon="12.64992255276862"><ele>14.000000000000002</ele><time>2026-04-24T14:35:03Z</time></trkpt><trkpt lat="43.993626923834434" lon="12.650011783550982"><ele>14.0</ele><time>2026-04-24T14:35:04Z</time></trkpt><trkpt lat="43.99357197848506" lon="12.650098755027432"><ele>14.0</ele><time>2026-04-24T14:35:05Z</time></trkpt><trkpt lat="43.99348421059038" lon="12.650210120218478"><ele>14.0</ele><time>2026-04-24T14:35:07Z</time></trkpt><trkpt lat="43.9934314860548" lon="12.650301514524832"><ele>14.000000000000002</ele><time>2026-04-24T14:35:10Z</time></trkpt><trkpt lat="43.993379456159346" lon="12.650374644076404"><ele>14.0</ele><time>2026-04-24T14:35:12Z</time></trkpt><trkpt lat="43.993338573064065" lon="12.650465166171191"><ele>13.6</ele><time>2026-04-24T14:35:14Z</time></trkpt><trkpt lat="43.993291744344965" lon="12.650598137318116"><ele>13.2</ele><time>2026-04-24T14:35:16Z</time></trkpt><trkpt lat="43.99326053524789" lon="12.650677330770634"><ele>12.799999999999999</ele><time>2026-04-24T14:35:17Z</time></trkpt><trkpt lat="43.99320201191262" lon="12.650840140112532"><ele>12.399999999999999</ele><time>2026-04-24T14:35:19Z</time></trkpt><trkpt lat="43.99316597712547" lon="12.650931837276538"><ele>12.0</ele><time>2026-04-24T14:35:20Z</time></trkpt><trkpt lat="43.993128702107995" lon="12.651024968992644"><ele>12.0</ele><time>2026-04-24T14:35:21Z</time></trkpt><trkpt lat="43.99308536089922" lon="12.651120970608474"><ele>12.0</ele><time>2026-04-24T14:35:22Z</time></trkpt><trkpt lat="43.99303729839843" lon="12.651220824725423"><ele>12.0</ele><time>2026-04-24T14:35:23Z</time></trkpt><trkpt lat="43.992984945568466" lon="12.6513252674212"><ele>12.0</ele><time>2026-04-24T14:35:24Z</time></trkpt><trkpt lat="43.992941013235445" lon="12.651435064382207"><ele>12.0</ele><time>2026-04-24T14:35:25Z</time></trkpt><trkpt lat="43.992896519566315" lon="12.651538467999385"><ele>12.0</ele><time>2026-04-24T14:35:26Z</time></trkpt><trkpt lat="43.99285069860057" lon="12.651647552525844"><ele>12.0</ele><time>2026-04-24T14:35:27Z</time></trkpt><trkpt lat="43.99280435315953" lon="12.651751604839578"><ele>12.0</ele><time>2026-04-24T14:35:28Z</time></trkpt><trkpt lat="43.99275699645638" lon="12.651857951748905"><ele>12.0</ele><time>2026-04-24T14:35:29Z</time></trkpt><trkpt lat="43.99271454086425" lon="12.65194777024624"><ele>12.0</ele><time>2026-04-24T14:35:30Z</time></trkpt><trkpt lat="43.99267695632912" lon="12.65202771641749"><ele>12.0</ele><time>2026-04-24T14:35:31Z</time></trkpt><trkpt lat="43.99264304359677" lon="12.652106277189501"><ele>12.0</ele><time>2026-04-24T14:35:32Z</time></trkpt><trkpt lat="43.99260575217068" lon="12.652203166201781"><ele>12.2</ele><time>2026-04-24T14:35:33Z</time></trkpt><trkpt lat="43.99256408431607" lon="12.652315833997442"><ele>12.399999999999999</ele><time>2026-04-24T14:35:34Z</time></trkpt><trkpt lat="43.992518417475715" lon="12.652434278938816"><ele>12.600000000000001</ele><time>2026-04-24T14:35:35Z</time></trkpt><trkpt lat="43.99247135808846" lon="12.652562870339647"><ele>12.8</ele><time>2026-04-24T14:35:36Z</time></trkpt><trkpt lat="43.992420699250275" lon="12.652691537205278"><ele>13.0</ele><time>2026-04-24T14:35:37Z</time></trkpt><trkpt lat="43.99236879223309" lon="12.652824545173779"><ele>13.0</ele><time>2026-04-24T14:35:38Z</time></trkpt><trkpt lat="43.99232100426004" lon="12.652964228921109"><ele>13.0</ele><time>2026-04-24T14:35:39Z</time></trkpt><trkpt lat="43.9922779247514" lon="12.653088741107831"><ele>13.0</ele><time>2026-04-24T14:35:40Z</time></trkpt><trkpt lat="43.99223871903841" lon="12.653209633318236"><ele>13.0</ele><time>2026-04-24T14:35:41Z</time></trkpt><trkpt lat="43.99220815491629" lon="12.653333964778568"><ele>13.0</ele><time>2026-04-24T14:35:42Z</time></trkpt><trkpt lat="43.99218139248798" lon="12.65345168462608"><ele>12.999999999999998</ele><time>2026-04-24T14:35:43Z</time></trkpt><trkpt lat="43.992158290229014" lon="12.653554613695084"><ele>13.0</ele><time>2026-04-24T14:35:44Z</time></trkpt><trkpt lat="43.992136991171776" lon="12.653661527232707"><ele>13.0</ele><time>2026-04-24T14:35:45Z</time></trkpt><trkpt lat="43.99211348428835" lon="12.653771964682381"><ele>13.0</ele><time>2026-04-24T14:35:46Z</time></trkpt><trkpt lat="43.99209280586416" lon="12.653882515988073"><ele>12.999999999999998</ele><time>2026-04-24T14:35:47Z</time></trkpt><trkpt lat="43.99207466817174" lon="12.653988947086484"><ele>13.0</ele><time>2026-04-24T14:35:48Z</time></trkpt><trkpt lat="43.99206118324913" lon="12.654098834529336"><ele>13.285714285714285</ele><time>2026-04-24T14:35:49Z</time></trkpt><trkpt lat="43.99205056506854" lon="12.65419798187789"><ele>13.571428571428573</ele><time>2026-04-24T14:35:50Z</time></trkpt><trkpt lat="43.99203978839261" lon="12.654290648080918"><ele>13.857142857142858</ele><time>2026-04-24T14:35:51Z</time></trkpt><trkpt lat="43.99203037279496" lon="12.6543931493519"><ele>14.142857142857142</ele><time>2026-04-24T14:35:52Z</time></trkpt><trkpt lat="43.99202260483929" lon="12.654501768713374"><ele>14.428571428571427</ele><time>2026-04-24T14:35:53Z</time></trkpt><trkpt lat="43.99201403422443" lon="12.654614022384868"><ele>14.714285714285715</ele><time>2026-04-24T14:35:54Z</time></trkpt><trkpt lat="43.99200528345894" lon="12.654716349529135"><ele>15.0</ele><time>2026-04-24T14:35:55Z</time></trkpt><trkpt lat="43.99200295644936" lon="12.65480573060195"><ele>15.0</ele><time>2026-04-24T14:35:56Z</time></trkpt><trkpt lat="43.99200145858923" lon="12.654906372678406"><ele>15.0</ele><time>2026-04-24T14:35:57Z</time></trkpt><trkpt lat="43.99199899282586" lon="12.655012451354542"><ele>15.0</ele><time>2026-04-24T14:35:58Z</time></trkpt><trkpt lat="43.99199698776679" lon="12.655120746218662"><ele>15.0</ele><time>2026-04-24T14:35:59Z</time></trkpt><trkpt lat="43.99199673116092" lon="12.655234605739828"><ele>15.0</ele><time>2026-04-24T14:36:00Z</time></trkpt><trkpt lat="43.99199657277771" lon="12.655349464226347"><ele>15.0</ele><time>2026-04-24T14:36:01Z</time></trkpt><trkpt lat="43.991997558877266" lon="12.65545867244179"><ele>15.0</ele><time>2026-04-24T14:36:02Z</time></trkpt><trkpt lat="43.992005330832484" lon="12.655565142786402"><ele>15.0</ele><time>2026-04-24T14:36:03Z</time></trkpt><trkpt lat="43.99201284885851" lon="12.655675510430912"><ele>15.0</ele><time>2026-04-24T14:36:04Z</time></trkpt><trkpt lat="43.992026778982094" lon="12.655790354817468"><ele>15.0</ele><time>2026-04-24T14:36:05Z</time></trkpt><trkpt lat="43.99204526339723" lon="12.655909846553154"><ele>15.0</ele><time>2026-04-24T14:36:06Z</time></trkpt><trkpt lat="43.992066706021326" lon="12.656040901210615"><ele>15.0</ele><time>2026-04-24T14:36:07Z</time></trkpt><trkpt lat="43.992089675270705" lon="12.656185651942133"><ele>14.8</ele><time>2026-04-24T14:36:08Z</time></trkpt><trkpt lat="43.992110716685815" lon="12.656334726912558"><ele>14.6</ele><time>2026-04-24T14:36:09Z</time></trkpt><trkpt lat="43.9921305889835" lon="12.656488343078722"><ele>14.399999999999999</ele><time>2026-04-24T14:36:10Z</time></trkpt><trkpt lat="43.99214690096018" lon="12.65663624445101"><ele>14.2</ele><time>2026-04-24T14:36:11Z</time></trkpt><trkpt lat="43.99216391403375" lon="12.656759256539058"><ele>14.0</ele><time>2026-04-24T14:36:12Z</time></trkpt><trkpt lat="43.99218266760328" lon="12.65687698836831"><ele>14.000000000000002</ele><time>2026-04-24T14:36:13Z</time></trkpt><trkpt lat="43.99220078933955" lon="12.656994043387883"><ele>14.0</ele><time>2026-04-24T14:36:14Z</time></trkpt><trkpt lat="43.99221618483603" lon="12.657106726620386"><ele>14.0</ele><time>2026-04-24T14:36:15Z</time></trkpt><trkpt lat="43.992230418322436" lon="12.65721318501313"><ele>14.0</ele><time>2026-04-24T14:36:16Z</time></trkpt><trkpt lat="43.99224385061565" lon="12.657312342918997"><ele>14.000000000000002</ele><time>2026-04-24T14:36:17Z</time></trkpt><trkpt lat="43.992256257514086" lon="12.657402055729799"><ele>14.0</ele><time>2026-04-24T14:36:18Z</time></trkpt><trkpt lat="43.992274359174665" lon="12.657503773973485"><ele>14.0</ele><time>2026-04-24T14:36:20Z</time></trkpt><trkpt lat="43.992280172889" lon="12.657601763003209"><ele>14.0</ele><time>2026-04-24T14:36:23Z</time></trkpt><trkpt lat="43.992281869917534" lon="12.657689634728428"><ele>14.0</ele><time>2026-04-24T14:36:25Z</time></trkpt><trkpt lat="43.992288729166496" lon="12.657777702813831"><ele>14.0</ele><time>2026-04-24T14:36:27Z</time></trkpt><trkpt lat="43.992279838334404" lon="12.657889132942122"><ele>14.0</ele><time>2026-04-24T14:36:34Z</time></trkpt><trkpt lat="43.992315065869406" lon="12.657974907399334"><ele>14.0</ele><time>2026-04-24T14:36:37Z</time></trkpt><trkpt lat="43.992329005603104" lon="12.65806360692907"><ele>14.0</ele><time>2026-04-24T14:36:39Z</time></trkpt><trkpt lat="43.99235291493094" lon="12.658178225820011"><ele>13.799999999999999</ele><time>2026-04-24T14:36:54Z</time></trkpt><trkpt lat="43.99237802758516" lon="12.658343360617252"><ele>13.599999999999998</ele><time>2026-04-24T14:36:56Z</time></trkpt><trkpt lat="43.992399547869695" lon="12.658440615028349"><ele>13.4</ele><time>2026-04-24T14:36:57Z</time></trkpt><trkpt lat="43.99238032279845" lon="12.658555702813722"><ele>13.2</ele><time>2026-04-24T14:36:58Z</time></trkpt><trkpt lat="43.992396621601195" lon="12.65867317493122"><ele>13.0</ele><time>2026-04-24T14:36:59Z</time></trkpt><trkpt lat="43.99241393033883" lon="12.658798323636969"><ele>13.0</ele><time>2026-04-24T14:37:00Z</time></trkpt><trkpt lat="43.99243530753984" lon="12.65894391303851"><ele>13.0</ele><time>2026-04-24T14:37:01Z</time></trkpt><trkpt lat="43.992458720069926" lon="12.65909563823834"><ele>13.0</ele><time>2026-04-24T14:37:02Z</time></trkpt><trkpt lat="43.99250512386339" lon="12.659242702619713"><ele>13.0</ele><time>2026-04-24T14:37:03Z</time></trkpt><trkpt lat="43.99252161358608" lon="12.659396493825888"><ele>13.0</ele><time>2026-04-24T14:37:04Z</time></trkpt><trkpt lat="43.99254006689815" lon="12.659542166731969"><ele>13.0</ele><time>2026-04-24T14:37:05Z</time></trkpt><trkpt lat="43.99255866697324" lon="12.659671506162722"><ele>13.0</ele><time>2026-04-24T14:37:06Z</time></trkpt><trkpt lat="43.99255811435135" lon="12.659811665137585"><ele>13.0</ele><time>2026-04-24T14:37:07Z</time></trkpt><trkpt lat="43.992589363218045" lon="12.659945718210802"><ele>13.0</ele><time>2026-04-24T14:37:08Z</time></trkpt><trkpt lat="43.99260539859288" lon="12.660079093154067"><ele>13.0</ele><time>2026-04-24T14:37:09Z</time></trkpt><trkpt lat="43.99262470356462" lon="12.66021559042562"><ele>13.2</ele><time>2026-04-24T14:37:10Z</time></trkpt><trkpt lat="43.99262787375754" lon="12.660351395829698"><ele>13.4</ele><time>2026-04-24T14:37:11Z</time></trkpt><trkpt lat="43.992645863618115" lon="12.660486533300764"><ele>13.599999999999998</ele><time>2026-04-24T14:37:12Z</time></trkpt><trkpt lat="43.992663585385486" lon="12.660620468492304"><ele>13.799999999999999</ele><time>2026-04-24T14:37:13Z</time></trkpt><trkpt lat="43.99268132796123" lon="12.660754560910764"><ele>14.0</ele><time>2026-04-24T14:37:14Z</time></trkpt><trkpt lat="43.99269678784606" lon="12.660875883039186"><ele>14.000000000000002</ele><time>2026-04-24T14:37:15Z</time></trkpt><trkpt lat="43.99271002713395" lon="12.660980625127053"><ele>14.0</ele><time>2026-04-24T14:37:16Z</time></trkpt><trkpt lat="43.99272150666201" lon="12.661071444276228"><ele>14.0</ele><time>2026-04-24T14:37:17Z</time></trkpt><trkpt lat="43.99274155840669" lon="12.66123309551669"><ele>14.0</ele><time>2026-04-24T14:37:19Z</time></trkpt><trkpt lat="43.9927526135559" lon="12.661326873710982"><ele>14.000000000000002</ele><time>2026-04-24T14:37:20Z</time></trkpt><trkpt lat="43.99276444784369" lon="12.661485540609116"><ele>14.0</ele><time>2026-04-24T14:37:22Z</time></trkpt><trkpt lat="43.992766050177146" lon="12.661578680584324"><ele>13.833333333333334</ele><time>2026-04-24T14:37:23Z</time></trkpt><trkpt lat="43.99276071748997" lon="12.661671588425234"><ele>13.666666666666668</ele><time>2026-04-24T14:37:24Z</time></trkpt><trkpt lat="43.99275227024778" lon="12.661817939921258"><ele>13.5</ele><time>2026-04-24T14:37:26Z</time></trkpt><trkpt lat="43.992723795084125" lon="12.661944438149938"><ele>13.333333333333332</ele><time>2026-04-24T14:37:28Z</time></trkpt><trkpt lat="43.99269483048349" lon="12.662036124919789"><ele>13.166666666666666</ele><time>2026-04-24T14:37:30Z</time></trkpt><trkpt lat="43.99265384912127" lon="12.662176095646867"><ele>13.0</ele><time>2026-04-24T14:37:33Z</time></trkpt><trkpt lat="43.99261687040817" lon="12.662338161097743"><ele>13.0</ele><time>2026-04-24T14:37:35Z</time></trkpt><trkpt lat="43.99258448678323" lon="12.662440352345179"><ele>13.0</ele><time>2026-04-24T14:37:36Z</time></trkpt><trkpt lat="43.99254062805615" lon="12.662567639023733"><ele>13.0</ele><time>2026-04-24T14:37:37Z</time></trkpt><trkpt lat="43.99249913712822" lon="12.662704916807746"><ele>13.0</ele><time>2026-04-24T14:37:38Z</time></trkpt><trkpt lat="43.99244272964914" lon="12.66285546142662"><ele>13.0</ele><time>2026-04-24T14:37:39Z</time></trkpt><trkpt lat="43.99237565468766" lon="12.663010609339883"><ele>13.0</ele><time>2026-04-24T14:37:40Z</time></trkpt><trkpt lat="43.99230290611829" lon="12.663162282876536"><ele>13.0</ele><time>2026-04-24T14:37:41Z</time></trkpt><trkpt lat="43.99223045758904" lon="12.663314283368011"><ele>13.0</ele><time>2026-04-24T14:37:42Z</time></trkpt><trkpt lat="43.99216585677632" lon="12.663443856911817"><ele>13.0</ele><time>2026-04-24T14:37:43Z</time></trkpt><trkpt lat="43.99211147157638" lon="12.66355208068406"><ele>12.833333333333332</ele><time>2026-04-24T14:37:44Z</time></trkpt><trkpt lat="43.9920618543273" lon="12.663651352228825"><ele>12.666666666666666</ele><time>2026-04-24T14:37:45Z</time></trkpt><trkpt lat="43.99201875858773" lon="12.6637263956704"><ele>12.5</ele><time>2026-04-24T14:37:46Z</time></trkpt><trkpt lat="43.99196594826524" lon="12.663820529888643"><ele>12.333333333333332</ele><time>2026-04-24T14:37:48Z</time></trkpt><trkpt lat="43.991923390789125" lon="12.663926687104503"><ele>12.166666666666666</ele><time>2026-04-24T14:37:50Z</time></trkpt><trkpt lat="43.99187568154512" lon="12.663986107815912"><ele>12.0</ele><time>2026-04-24T14:37:51Z</time></trkpt><trkpt lat="43.991849210686595" lon="12.664071224201471"><ele>12.0</ele><time>2026-04-24T14:37:52Z</time></trkpt><trkpt lat="43.99178332179153" lon="12.664181297344497"><ele>12.0</ele><time>2026-04-24T14:37:54Z</time></trkpt><trkpt lat="43.991719979090355" lon="12.66433091038434"><ele>12.0</ele><time>2026-04-24T14:38:05Z</time></trkpt><trkpt lat="43.9916521350271" lon="12.664466135052491"><ele>12.0</ele><time>2026-04-24T14:38:06Z</time></trkpt><trkpt lat="43.99157210844938" lon="12.664597825935944"><ele>11.5</ele><time>2026-04-24T14:38:07Z</time></trkpt><trkpt lat="43.99148103377948" lon="12.664693131542135"><ele>11.0</ele><time>2026-04-24T14:38:08Z</time></trkpt><trkpt lat="43.99140777627991" lon="12.66482294488011"><ele>10.5</ele><time>2026-04-24T14:38:09Z</time></trkpt><trkpt lat="43.991325013657566" lon="12.66497110469679"><ele>10.0</ele><time>2026-04-24T14:38:10Z</time></trkpt><trkpt lat="43.991248036569125" lon="12.665135354330856"><ele>10.0</ele><time>2026-04-24T14:38:11Z</time></trkpt><trkpt lat="43.99116172795673" lon="12.665286666251648"><ele>10.0</ele><time>2026-04-24T14:38:12Z</time></trkpt><trkpt lat="43.99107072168273" lon="12.665449695839055"><ele>10.0</ele><time>2026-04-24T14:38:13Z</time></trkpt><trkpt lat="43.99097282548089" lon="12.665619965751397"><ele>10.0</ele><time>2026-04-24T14:38:14Z</time></trkpt><trkpt lat="43.99087301008817" lon="12.66579025026083"><ele>10.0</ele><time>2026-04-24T14:38:15Z</time></trkpt><trkpt lat="43.99077488348624" lon="12.665958271614805"><ele>10.0</ele><time>2026-04-24T14:38:16Z</time></trkpt><trkpt lat="43.990679485636505" lon="12.666114655531894"><ele>10.0</ele><time>2026-04-24T14:38:17Z</time></trkpt><trkpt lat="43.99058620763487" lon="12.666272789308481"><ele>9.75</ele><time>2026-04-24T14:38:18Z</time></trkpt><trkpt lat="43.99049901553401" lon="12.66643580338663"><ele>9.5</ele><time>2026-04-24T14:38:19Z</time></trkpt><trkpt lat="43.99041742051817" lon="12.666611238414639"><ele>9.25</ele><time>2026-04-24T14:38:20Z</time></trkpt><trkpt lat="43.990344954093764" lon="12.666791022511202"><ele>9.0</ele><time>2026-04-24T14:38:21Z</time></trkpt><trkpt lat="43.99028501088253" lon="12.666967629578682"><ele>9.6</ele><time>2026-04-24T14:38:22Z</time></trkpt><trkpt lat="43.99023165225596" lon="12.667137523023184"><ele>10.2</ele><time>2026-04-24T14:38:23Z</time></trkpt><trkpt lat="43.990195543458114" lon="12.667283260182131"><ele>10.799999999999999</ele><time>2026-04-24T14:38:24Z</time></trkpt><trkpt lat="43.99016288998975" lon="12.66740679695477"><ele>11.4</ele><time>2026-04-24T14:38:25Z</time></trkpt><trkpt lat="43.9901282174178" lon="12.667523512595643"><ele>12.0</ele><time>2026-04-24T14:38:26Z</time></trkpt><trkpt lat="43.99008421388219" lon="12.667640757937631"><ele>12.0</ele><time>2026-04-24T14:38:27Z</time></trkpt><trkpt lat="43.99004211570603" lon="12.66775436036867"><ele>12.0</ele><time>2026-04-24T14:38:28Z</time></trkpt><trkpt lat="43.989998683470205" lon="12.667873347197936"><ele>12.0</ele><time>2026-04-24T14:38:29Z</time></trkpt><trkpt lat="43.989961159141316" lon="12.667975860302896"><ele>12.0</ele><time>2026-04-24T14:38:30Z</time></trkpt><trkpt lat="43.98992301480286" lon="12.66808822547804"><ele>12.0</ele><time>2026-04-24T14:38:31Z</time></trkpt><trkpt lat="43.98987625012259" lon="12.668204137523174"><ele>12.0</ele><time>2026-04-24T14:38:32Z</time></trkpt><trkpt lat="43.98982694957603" lon="12.668331820781278"><ele>12.0</ele><time>2026-04-24T14:38:33Z</time></trkpt><trkpt lat="43.98977671140193" lon="12.668471675991844"><ele>12.0</ele><time>2026-04-24T14:38:34Z</time></trkpt><trkpt lat="43.98972859237198" lon="12.66858445991542"><ele>12.0</ele><time>2026-04-24T14:38:35Z</time></trkpt><trkpt lat="43.98968264170287" lon="12.668687839377043"><ele>12.0</ele><time>2026-04-24T14:38:36Z</time></trkpt><trkpt lat="43.98963337038881" lon="12.668794343946644"><ele>11.4</ele><time>2026-04-24T14:38:37Z</time></trkpt><trkpt lat="43.98958723949052" lon="12.668883614261148"><ele>10.799999999999999</ele><time>2026-04-24T14:38:38Z</time></trkpt><trkpt lat="43.989546258779114" lon="12.668961169389709"><ele>10.2</ele><time>2026-04-24T14:38:39Z</time></trkpt><trkpt lat="43.98950543434123" lon="12.669071234005854"><ele>9.6</ele><time>2026-04-24T14:38:40Z</time></trkpt><trkpt lat="43.98945794566052" lon="12.66920074247581"><ele>9.0</ele><time>2026-04-24T14:38:41Z</time></trkpt><trkpt lat="43.989399389512364" lon="12.669330528756605"><ele>8.6</ele><time>2026-04-24T14:38:42Z</time></trkpt><trkpt lat="43.98933890509255" lon="12.66945726009833"><ele>8.2</ele><time>2026-04-24T14:38:43Z</time></trkpt><trkpt lat="43.98927423433196" lon="12.669585796440842"><ele>7.799999999999999</ele><time>2026-04-24T14:38:44Z</time></trkpt><trkpt lat="43.989211691432864" lon="12.669704626346544"><ele>7.3999999999999995</ele><time>2026-04-24T14:38:45Z</time></trkpt><trkpt lat="43.98915411732382" lon="12.669815558860394"><ele>7.0</ele><time>2026-04-24T14:38:46Z</time></trkpt><trkpt lat="43.98910197570331" lon="12.669923714093974"><ele>7.000000000000001</ele><time>2026-04-24T14:38:47Z</time></trkpt><trkpt lat="43.989047628937" lon="12.670017252473391"><ele>7.0</ele><time>2026-04-24T14:38:48Z</time></trkpt><trkpt lat="43.9890076955127" lon="12.670098891183656"><ele>7.0</ele><time>2026-04-24T14:38:49Z</time></trkpt><trkpt lat="43.98895363828895" lon="12.670209702336416"><ele>7.0</ele><time>2026-04-24T14:38:51Z</time></trkpt><trkpt lat="43.98889958136701" lon="12.670312633364988"><ele>7.000000000000001</ele><time>2026-04-24T14:38:53Z</time></trkpt><trkpt lat="43.98885408767623" lon="12.67039864489258"><ele>7.0</ele><time>2026-04-24T14:38:55Z</time></trkpt><trkpt lat="43.9887855809825" lon="12.670530279056512"><ele>7.0</ele><time>2026-04-24T14:39:13Z</time></trkpt><trkpt lat="43.98871437790823" lon="12.670652467830713"><ele>7.0</ele><time>2026-04-24T14:39:14Z</time></trkpt><trkpt lat="43.988624879547274" lon="12.670796582479175"><ele>7.0</ele><time>2026-04-24T14:39:15Z</time></trkpt><trkpt lat="43.98853755602518" lon="12.670953664281337"><ele>7.0</ele><time>2026-04-24T14:39:16Z</time></trkpt><trkpt lat="43.98844389523468" lon="12.671107769844667"><ele>7.666666666666667</ele><time>2026-04-24T14:39:17Z</time></trkpt><trkpt lat="43.98834036984034" lon="12.671287831852686"><ele>8.333333333333334</ele><time>2026-04-24T14:39:18Z</time></trkpt><trkpt lat="43.988236400005725" lon="12.671455870352705"><ele>9.0</ele><time>2026-04-24T14:39:19Z</time></trkpt><trkpt lat="43.9881545809908" lon="12.67160112839882"><ele>9.0</ele><time>2026-04-24T14:39:20Z</time></trkpt><trkpt lat="43.98806197989831" lon="12.67174888513319"><ele>9.0</ele><time>2026-04-24T14:39:21Z</time></trkpt><trkpt lat="43.987982019062166" lon="12.671876815584621"><ele>9.0</ele><time>2026-04-24T14:39:22Z</time></trkpt><trkpt lat="43.98791169327812" lon="12.671977294574129"><ele>9.0</ele><time>2026-04-24T14:39:23Z</time></trkpt><trkpt lat="43.987838044423555" lon="12.672048486326954"><ele>8.333333333333334</ele><time>2026-04-24T14:39:24Z</time></trkpt><trkpt lat="43.98775856406323" lon="12.67208660233709"><ele>7.666666666666667</ele><time>2026-04-24T14:39:25Z</time></trkpt><trkpt lat="43.987675998133746" lon="12.672112688526255"><ele>7.0</ele><time>2026-04-24T14:39:26Z</time></trkpt><trkpt lat="43.987608108877616" lon="12.672148213371676"><ele>6.333333333333334</ele><time>2026-04-24T14:39:27Z</time></trkpt><trkpt lat="43.98754678625063" lon="12.672290156724724"><ele>5.666666666666667</ele><time>2026-04-24T14:39:29Z</time></trkpt><trkpt lat="43.987552925867796" lon="12.672408409363165"><ele>5.0</ele><time>2026-04-24T14:39:30Z</time></trkpt><trkpt lat="43.98757130489521" lon="12.672541159808446"><ele>5.0</ele><time>2026-04-24T14:39:31Z</time></trkpt><trkpt lat="43.98755028019005" lon="12.672686124817787"><ele>5.0</ele><time>2026-04-24T14:39:32Z</time></trkpt><trkpt lat="43.987495198230654" lon="12.672834294714773"><ele>5.0</ele><time>2026-04-24T14:39:33Z</time></trkpt><trkpt lat="43.98737820510525" lon="12.672972876496662"><ele>5.0</ele><time>2026-04-24T14:39:34Z</time></trkpt><trkpt lat="43.98728807267374" lon="12.67316002778442"><ele>4.333333333333334</ele><time>2026-04-24T14:39:35Z</time></trkpt><trkpt lat="43.9871777842376" lon="12.67332816844302"><ele>3.666666666666667</ele><time>2026-04-24T14:39:36Z</time></trkpt><trkpt lat="43.98707024139012" lon="12.673501517627614"><ele>3.0</ele><time>2026-04-24T14:39:37Z</time></trkpt><trkpt lat="43.986965111843126" lon="12.673683559879318"><ele>3.0</ele><time>2026-04-24T14:39:38Z</time></trkpt><trkpt lat="43.98685363043932" lon="12.673871679747238"><ele>3.0</ele><time>2026-04-24T14:39:39Z</time></trkpt><trkpt lat="43.98673952232174" lon="12.674064552078622"><ele>3.0</ele><time>2026-04-24T14:39:40Z</time></trkpt><trkpt lat="43.98662477206582" lon="12.674258094481443"><ele>3.333333333333333</ele><time>2026-04-24T14:39:41Z</time></trkpt><trkpt lat="43.98651023520524" lon="12.67445435912859"><ele>3.6666666666666665</ele><time>2026-04-24T14:39:42Z</time></trkpt><trkpt lat="43.986400622913166" lon="12.674649774267563"><ele>4.0</ele><time>2026-04-24T14:39:43Z</time></trkpt><trkpt lat="43.986295632349886" lon="12.674840508075036"><ele>4.0</ele><time>2026-04-24T14:39:44Z</time></trkpt><trkpt lat="43.98619508589771" lon="12.675023482267742"><ele>4.0</ele><time>2026-04-24T14:39:45Z</time></trkpt><trkpt lat="43.986095908135454" lon="12.675191900390606"><ele>4.0</ele><time>2026-04-24T14:39:46Z</time></trkpt><trkpt lat="43.98599845250064" lon="12.675352074042038"><ele>4.0</ele><time>2026-04-24T14:39:47Z</time></trkpt><trkpt lat="43.985901663792475" lon="12.67551216503215"><ele>4.0</ele><time>2026-04-24T14:39:48Z</time></trkpt><trkpt lat="43.98580848764286" lon="12.675669455708338"><ele>4.0</ele><time>2026-04-24T14:39:49Z</time></trkpt><trkpt lat="43.98571931411645" lon="12.675827921948878"><ele>4.0</ele><time>2026-04-24T14:39:50Z</time></trkpt><trkpt lat="43.985625680176895" lon="12.675988510999863"><ele>4.0</ele><time>2026-04-24T14:39:51Z</time></trkpt><trkpt lat="43.98552929493787" lon="12.676155430504545"><ele>4.0</ele><time>2026-04-24T14:39:52Z</time></trkpt><trkpt lat="43.985433584690036" lon="12.676325571976184"><ele>4.0</ele><time>2026-04-24T14:39:53Z</time></trkpt><trkpt lat="43.98533871233221" lon="12.676489851546425"><ele>4.0</ele><time>2026-04-24T14:39:54Z</time></trkpt><trkpt lat="43.98525398192321" lon="12.676637551380303"><ele>4.0</ele><time>2026-04-24T14:39:55Z</time></trkpt><trkpt lat="43.9851782156265" lon="12.676764088072396"><ele>4.0</ele><time>2026-04-24T14:39:56Z</time></trkpt><trkpt lat="43.985111766594954" lon="12.676881693983125"><ele>4.0</ele><time>2026-04-24T14:39:57Z</time></trkpt><trkpt lat="43.985049572926286" lon="12.676990238407114"><ele>4.166666666666666</ele><time>2026-04-24T14:39:58Z</time></trkpt><trkpt lat="43.984994685722945" lon="12.677081402861981"><ele>4.333333333333333</ele><time>2026-04-24T14:39:59Z</time></trkpt><trkpt lat="43.984921924577584" lon="12.67719955365501"><ele>4.5</ele><time>2026-04-24T14:40:01Z</time></trkpt><trkpt lat="43.984871484097354" lon="12.677280504751202"><ele>4.666666666666667</ele><time>2026-04-24T14:40:03Z</time></trkpt><trkpt lat="43.98482658036637" lon="12.677357409450646"><ele>4.833333333333334</ele><time>2026-04-24T14:40:07Z</time></trkpt><trkpt lat="43.984784707147874" lon="12.677447870088095"><ele>5.0</ele><time>2026-04-24T14:40:14Z</time></trkpt><trkpt lat="43.98468987815829" lon="12.67762359554597"><ele>5.0</ele><time>2026-04-24T14:40:16Z</time></trkpt><trkpt lat="43.98461883727909" lon="12.677742463586318"><ele>5.0</ele><time>2026-04-24T14:40:17Z</time></trkpt><trkpt lat="43.984541256482416" lon="12.677884315189285"><ele>5.0</ele><time>2026-04-24T14:40:18Z</time></trkpt><trkpt lat="43.9844531884744" lon="12.678036711322257"><ele>5.0</ele><time>2026-04-24T14:40:19Z</time></trkpt><trkpt lat="43.984357818557726" lon="12.678195489725193"><ele>5.333333333333334</ele><time>2026-04-24T14:40:20Z</time></trkpt><trkpt lat="43.98426521969768" lon="12.678353382648515"><ele>5.666666666666667</ele><time>2026-04-24T14:40:21Z</time></trkpt><trkpt lat="43.984164440775174" lon="12.678519520390982"><ele>6.0</ele><time>2026-04-24T14:40:22Z</time></trkpt><trkpt lat="43.98405965555248" lon="12.67869328339761"><ele>5.0</ele><time>2026-04-24T14:40:23Z</time></trkpt><trkpt lat="43.983951451460186" lon="12.678868635853512"><ele>4.0</ele><time>2026-04-24T14:40:24Z</time></trkpt><trkpt lat="43.98384181749493" lon="12.679050514052042"><ele>3.0</ele><time>2026-04-24T14:40:25Z</time></trkpt><trkpt lat="43.983734230914294" lon="12.679223725331287"><ele>3.0</ele><time>2026-04-24T14:40:26Z</time></trkpt><trkpt lat="43.9836191597774" lon="12.679408884948714"><ele>3.0</ele><time>2026-04-24T14:40:27Z</time></trkpt><trkpt lat="43.983506543804175" lon="12.679585042993144"><ele>3.0</ele><time>2026-04-24T14:40:28Z</time></trkpt><trkpt lat="43.98339888231101" lon="12.679761046899355"><ele>3.0</ele><time>2026-04-24T14:40:29Z</time></trkpt><trkpt lat="43.98328753555938" lon="12.679948666630308"><ele>3.0</ele><time>2026-04-24T14:40:30Z</time></trkpt><trkpt lat="43.983169951890375" lon="12.680135890574327"><ele>3.0</ele><time>2026-04-24T14:40:31Z</time></trkpt><trkpt lat="43.98304423413593" lon="12.680318629049973"><ele>2.0</ele><time>2026-04-24T14:40:32Z</time></trkpt><trkpt lat="43.982924057657655" lon="12.68050359094197"><ele>1.0</ele><time>2026-04-24T14:40:33Z</time></trkpt><trkpt lat="43.982800663872425" lon="12.680691657070641"><ele>0.0</ele><time>2026-04-24T14:40:34Z</time></trkpt><trkpt lat="43.98267628548579" lon="12.680874405724834"><ele>0.0</ele><time>2026-04-24T14:40:35Z</time></trkpt><trkpt lat="43.98255658840408" lon="12.681051456121677"><ele>0.0</ele><time>2026-04-24T14:40:36Z</time></trkpt><trkpt lat="43.98243867584914" lon="12.68122673159094"><ele>0.0</ele><time>2026-04-24T14:40:37Z</time></trkpt><trkpt lat="43.982323592909424" lon="12.681396182780494"><ele>0.6666666666666666</ele><time>2026-04-24T14:40:38Z</time></trkpt><trkpt lat="43.982206534850285" lon="12.681569452185675"><ele>1.3333333333333333</ele><time>2026-04-24T14:40:39Z</time></trkpt><trkpt lat="43.98209043167627" lon="12.681737331161077"><ele>2.0</ele><time>2026-04-24T14:40:40Z</time></trkpt><trkpt lat="43.98197417189814" lon="12.681903945332186"><ele>2.0</ele><time>2026-04-24T14:40:41Z</time></trkpt><trkpt lat="43.981862918917194" lon="12.682070190762273"><ele>2.0</ele><time>2026-04-24T14:40:42Z</time></trkpt><trkpt lat="43.981749098673184" lon="12.68224093971709"><ele>2.0</ele><time>2026-04-24T14:40:43Z</time></trkpt><trkpt lat="43.98163439037975" lon="12.682413454297524"><ele>2.6666666666666665</ele><time>2026-04-24T14:40:44Z</time></trkpt><trkpt lat="43.98152306132401" lon="12.682579993538969"><ele>3.333333333333333</ele><time>2026-04-24T14:40:45Z</time></trkpt><trkpt lat="43.98141107996545" lon="12.682740910054813"><ele>4.0</ele><time>2026-04-24T14:40:46Z</time></trkpt><trkpt lat="43.98130245743496" lon="12.682905127941765"><ele>4.0</ele><time>2026-04-24T14:40:47Z</time></trkpt><trkpt lat="43.98119526494362" lon="12.683063368611672"><ele>4.0</ele><time>2026-04-24T14:40:48Z</time></trkpt><trkpt lat="43.981091678972035" lon="12.683217042372728"><ele>4.0</ele><time>2026-04-24T14:40:49Z</time></trkpt><trkpt lat="43.980996695430605" lon="12.683357731869098"><ele>4.0</ele><time>2026-04-24T14:40:50Z</time></trkpt><trkpt lat="43.980908739539075" lon="12.683488800642698"><ele>4.5</ele><time>2026-04-24T14:40:51Z</time></trkpt><trkpt lat="43.98082584109844" lon="12.683611200009052"><ele>5.0</ele><time>2026-04-24T14:40:52Z</time></trkpt><trkpt lat="43.9807460537715" lon="12.683724607742251"><ele>5.5</ele><time>2026-04-24T14:40:53Z</time></trkpt><trkpt lat="43.9806680765728" lon="12.68383493028602"><ele>6.0</ele><time>2026-04-24T14:40:54Z</time></trkpt><trkpt lat="43.98058752814813" lon="12.683950761153381"><ele>6.0</ele><time>2026-04-24T14:40:55Z</time></trkpt><trkpt lat="43.9805055082298" lon="12.684062011768425"><ele>6.0</ele><time>2026-04-24T14:40:56Z</time></trkpt><trkpt lat="43.98042331351169" lon="12.684177871622813"><ele>6.0</ele><time>2026-04-24T14:40:57Z</time></trkpt><trkpt lat="43.98034048837746" lon="12.684290314494607"><ele>6.0</ele><time>2026-04-24T14:40:58Z</time></trkpt><trkpt lat="43.9802622595886" lon="12.684406857039578"><ele>6.25</ele><time>2026-04-24T14:40:59Z</time></trkpt><trkpt lat="43.98017762131086" lon="12.684529912159393"><ele>6.5</ele><time>2026-04-24T14:41:00Z</time></trkpt><trkpt lat="43.98009210118016" lon="12.684654680002382"><ele>6.75</ele><time>2026-04-24T14:41:01Z</time></trkpt><trkpt lat="43.98000440737134" lon="12.684781393300147"><ele>7.0</ele><time>2026-04-24T14:41:02Z</time></trkpt><trkpt lat="43.97991803593419" lon="12.684915175617359"><ele>7.0</ele><time>2026-04-24T14:41:03Z</time></trkpt><trkpt lat="43.97983140423765" lon="12.685042652479995"><ele>7.0</ele><time>2026-04-24T14:41:04Z</time></trkpt><trkpt lat="43.979747816226684" lon="12.685163111273758"><ele>7.0</ele><time>2026-04-24T14:41:05Z</time></trkpt><trkpt lat="43.97966840017756" lon="12.68528825245416"><ele>7.0</ele><time>2026-04-24T14:41:06Z</time></trkpt><trkpt lat="43.97958626692443" lon="12.685405241709633"><ele>6.75</ele><time>2026-04-24T14:41:07Z</time></trkpt><trkpt lat="43.97950581037588" lon="12.685523040432363"><ele>6.5</ele><time>2026-04-24T14:41:08Z</time></trkpt><trkpt lat="43.97942130353449" lon="12.685639923232769"><ele>6.25</ele><time>2026-04-24T14:41:09Z</time></trkpt><trkpt lat="43.9793413955781" lon="12.685755860785358"><ele>6.0</ele><time>2026-04-24T14:41:10Z</time></trkpt><trkpt lat="43.97927148274119" lon="12.685863841173695"><ele>6.0</ele><time>2026-04-24T14:41:11Z</time></trkpt><trkpt lat="43.979207925763966" lon="12.685975325902055"><ele>6.0</ele><time>2026-04-24T14:41:12Z</time></trkpt><trkpt lat="43.97915404194415" lon="12.686087564101754"><ele>6.0</ele><time>2026-04-24T14:41:13Z</time></trkpt><trkpt lat="43.9791113982862" lon="12.686191208395075"><ele>6.0</ele><time>2026-04-24T14:41:14Z</time></trkpt><trkpt lat="43.97905090674329" lon="12.68626629761723"><ele>6.0</ele><time>2026-04-24T14:41:15Z</time></trkpt><trkpt lat="43.978969291740476" lon="12.686331562756495"><ele>5.75</ele><time>2026-04-24T14:41:16Z</time></trkpt><trkpt lat="43.97888190285713" lon="12.686411316056637"><ele>5.5</ele><time>2026-04-24T14:41:17Z</time></trkpt><trkpt lat="43.97881683431613" lon="12.68653305479561"><ele>5.25</ele><time>2026-04-24T14:41:18Z</time></trkpt><trkpt lat="43.97875669015406" lon="12.686683442050155"><ele>5.0</ele><time>2026-04-24T14:41:19Z</time></trkpt><trkpt lat="43.978678461964236" lon="12.686830381854167"><ele>4.75</ele><time>2026-04-24T14:41:20Z</time></trkpt><trkpt lat="43.97858317270408" lon="12.686969803996726"><ele>4.5</ele><time>2026-04-24T14:41:21Z</time></trkpt><trkpt lat="43.97849296759057" lon="12.687112812598095"><ele>4.25</ele><time>2026-04-24T14:41:22Z</time></trkpt><trkpt lat="43.97840572229766" lon="12.687263284625013"><ele>4.0</ele><time>2026-04-24T14:41:23Z</time></trkpt><trkpt lat="43.97831554697874" lon="12.687405224528392"><ele>4.0</ele><time>2026-04-24T14:41:24Z</time></trkpt><trkpt lat="43.978228743144896" lon="12.687554566106506"><ele>4.0</ele><time>2026-04-24T14:41:25Z</time></trkpt><trkpt lat="43.97814666910783" lon="12.687711289092054"><ele>4.0</ele><time>2026-04-24T14:41:26Z</time></trkpt><trkpt lat="43.97806986010296" lon="12.687870099166375"><ele>4.0</ele><time>2026-04-24T14:41:27Z</time></trkpt><trkpt lat="43.977991009444544" lon="12.68802776980155"><ele>3.75</ele><time>2026-04-24T14:41:28Z</time></trkpt><trkpt lat="43.97790959548381" lon="12.688181428336746"><ele>3.5</ele><time>2026-04-24T14:41:29Z</time></trkpt><trkpt lat="43.977827965592205" lon="12.68834104009546"><ele>3.25</ele><time>2026-04-24T14:41:30Z</time></trkpt><trkpt lat="43.97774660210551" lon="12.688505993823041"><ele>3.0</ele><time>2026-04-24T14:41:31Z</time></trkpt><trkpt lat="43.97766222691672" lon="12.688668874517646"><ele>3.0</ele><time>2026-04-24T14:41:32Z</time></trkpt><trkpt lat="43.97758096032408" lon="12.688832271478248"><ele>3.0</ele><time>2026-04-24T14:41:33Z</time></trkpt><trkpt lat="43.97749780657743" lon="12.68899935431553"><ele>3.0</ele><time>2026-04-24T14:41:34Z</time></trkpt><trkpt lat="43.977414980780445" lon="12.689169355520729"><ele>3.0</ele><time>2026-04-24T14:41:35Z</time></trkpt><trkpt lat="43.97733359902585" lon="12.689332143379783"><ele>3.25</ele><time>2026-04-24T14:41:36Z</time></trkpt><trkpt lat="43.977250049615705" lon="12.689494355762303"><ele>3.5</ele><time>2026-04-24T14:41:37Z</time></trkpt><trkpt lat="43.977165393350916" lon="12.689653052196709"><ele>3.75</ele><time>2026-04-24T14:41:38Z</time></trkpt><trkpt lat="43.97708459658844" lon="12.689813378785317"><ele>4.0</ele><time>2026-04-24T14:41:39Z</time></trkpt><trkpt lat="43.977005493293404" lon="12.689968834626228"><ele>4.0</ele><time>2026-04-24T14:41:40Z</time></trkpt><trkpt lat="43.97692440230428" lon="12.690126141583788"><ele>4.0</ele><time>2026-04-24T14:41:41Z</time></trkpt><trkpt lat="43.97684893191685" lon="12.690282146048402"><ele>4.0</ele><time>2026-04-24T14:41:42Z</time></trkpt><trkpt lat="43.976772715730405" lon="12.690431621093884"><ele>4.0</ele><time>2026-04-24T14:41:43Z</time></trkpt><trkpt lat="43.976697962797445" lon="12.690576809929604"><ele>4.25</ele><time>2026-04-24T14:41:44Z</time></trkpt><trkpt lat="43.97662620995521" lon="12.690730964830099"><ele>4.5</ele><time>2026-04-24T14:41:45Z</time></trkpt><trkpt lat="43.97655127332788" lon="12.690893522861815"><ele>4.75</ele><time>2026-04-24T14:41:46Z</time></trkpt><trkpt lat="43.976478030378395" lon="12.691048047960372"><ele>5.0</ele><time>2026-04-24T14:41:47Z</time></trkpt><trkpt lat="43.97640451677361" lon="12.691193342527052"><ele>5.0</ele><time>2026-04-24T14:41:48Z</time></trkpt><trkpt lat="43.97632856712564" lon="12.691345084902379"><ele>5.0</ele><time>2026-04-24T14:41:49Z</time></trkpt><trkpt lat="43.97625006282786" lon="12.6915058710839"><ele>5.0</ele><time>2026-04-24T14:41:50Z</time></trkpt><trkpt lat="43.97616869940027" lon="12.691658922062368"><ele>5.0</ele><time>2026-04-24T14:41:51Z</time></trkpt><trkpt lat="43.976093409956725" lon="12.691800839207001"><ele>4.75</ele><time>2026-04-24T14:41:52Z</time></trkpt><trkpt lat="43.976024192704514" lon="12.691939215989297"><ele>4.5</ele><time>2026-04-24T14:41:53Z</time></trkpt><trkpt lat="43.975956053669606" lon="12.69208146576276"><ele>4.25</ele><time>2026-04-24T14:41:54Z</time></trkpt><trkpt lat="43.97589349345353" lon="12.692209273733193"><ele>4.0</ele><time>2026-04-24T14:41:55Z</time></trkpt><trkpt lat="43.9758349513339" lon="12.692323568170288"><ele>4.0</ele><time>2026-04-24T14:41:56Z</time></trkpt><trkpt lat="43.975782998925766" lon="12.692432121173457"><ele>4.0</ele><time>2026-04-24T14:41:57Z</time></trkpt><trkpt lat="43.975724912440704" lon="12.692548601966578"><ele>4.0</ele><time>2026-04-24T14:41:58Z</time></trkpt><trkpt lat="43.975663460001776" lon="12.692663165669893"><ele>4.0</ele><time>2026-04-24T14:41:59Z</time></trkpt><trkpt lat="43.9755971504831" lon="12.692796425381786"><ele>4.0</ele><time>2026-04-24T14:42:00Z</time></trkpt><trkpt lat="43.975518729998115" lon="12.69293988113893"><ele>3.5</ele><time>2026-04-24T14:42:01Z</time></trkpt><trkpt lat="43.97543183544539" lon="12.693100329448418"><ele>3.0</ele><time>2026-04-24T14:42:02Z</time></trkpt><trkpt lat="43.97536346396308" lon="12.693242696173993"><ele>2.5</ele><time>2026-04-24T14:42:03Z</time></trkpt><trkpt lat="43.97529658601389" lon="12.693370725769972"><ele>2.0</ele><time>2026-04-24T14:42:04Z</time></trkpt><trkpt lat="43.97522806340791" lon="12.693492239758108"><ele>2.25</ele><time>2026-04-24T14:42:05Z</time></trkpt><trkpt lat="43.9751525912871" lon="12.693645178443964"><ele>2.5</ele><time>2026-04-24T14:42:06Z</time></trkpt><trkpt lat="43.97507305006975" lon="12.693803289521751"><ele>2.75</ele><time>2026-04-24T14:42:07Z</time></trkpt><trkpt lat="43.97499911682161" lon="12.693940055785612"><ele>3.0</ele><time>2026-04-24T14:42:08Z</time></trkpt><trkpt lat="43.97493036310087" lon="12.694062124377853"><ele>3.0</ele><time>2026-04-24T14:42:09Z</time></trkpt><trkpt lat="43.97486802741719" lon="12.694177048886685"><ele>3.0</ele><time>2026-04-24T14:42:10Z</time></trkpt><trkpt lat="43.97481592085757" lon="12.69427100435748"><ele>3.0</ele><time>2026-04-24T14:42:11Z</time></trkpt><trkpt lat="43.97476167865041" lon="12.6943561643927"><ele>3.0</ele><time>2026-04-24T14:42:13Z</time></trkpt><trkpt lat="43.97471905943403" lon="12.69448213008559"><ele>3.0</ele><time>2026-04-24T14:42:55Z</time></trkpt><trkpt lat="43.97467248309189" lon="12.6945584560012"><ele>3.0</ele><time>2026-04-24T14:42:56Z</time></trkpt><trkpt lat="43.974619181588736" lon="12.694654446686725"><ele>3.0</ele><time>2026-04-24T14:42:57Z</time></trkpt><trkpt lat="43.97455570124929" lon="12.694767099052868"><ele>3.0</ele><time>2026-04-24T14:42:58Z</time></trkpt><trkpt lat="43.97448494774404" lon="12.694903027762876"><ele>3.0</ele><time>2026-04-24T14:42:59Z</time></trkpt><trkpt lat="43.97441326003318" lon="12.695039853309734"><ele>3.0</ele><time>2026-04-24T14:43:00Z</time></trkpt><trkpt lat="43.97433471717849" lon="12.69519210079371"><ele>3.0</ele><time>2026-04-24T14:43:01Z</time></trkpt><trkpt lat="43.974248448126076" lon="12.695356104722094"><ele>3.0</ele><time>2026-04-24T14:43:02Z</time></trkpt><trkpt lat="43.974155262189186" lon="12.695523627156078"><ele>3.0</ele><time>2026-04-24T14:43:03Z</time></trkpt><trkpt lat="43.974067747533134" lon="12.695685541604378"><ele>3.0</ele><time>2026-04-24T14:43:04Z</time></trkpt><trkpt lat="43.97397679633147" lon="12.695857100569757"><ele>3.0</ele><time>2026-04-24T14:43:05Z</time></trkpt><trkpt lat="43.97388099244867" lon="12.696038329488026"><ele>3.0</ele><time>2026-04-24T14:43:06Z</time></trkpt><trkpt lat="43.97378503576735" lon="12.696220902148625"><ele>3.0</ele><time>2026-04-24T14:43:07Z</time></trkpt><trkpt lat="43.97368114367998" lon="12.696408943057332"><ele>3.333333333333333</ele><time>2026-04-24T14:43:08Z</time></trkpt><trkpt lat="43.97357608203102" lon="12.696601544274147"><ele>3.6666666666666665</ele><time>2026-04-24T14:43:09Z</time></trkpt><trkpt lat="43.97347724119974" lon="12.69680613137608"><ele>4.0</ele><time>2026-04-24T14:43:10Z</time></trkpt><trkpt lat="43.97337613683349" lon="12.697005118495884"><ele>3.6666666666666665</ele><time>2026-04-24T14:43:11Z</time></trkpt><trkpt lat="43.97327230791238" lon="12.697208676449428"><ele>3.333333333333333</ele><time>2026-04-24T14:43:12Z</time></trkpt><trkpt lat="43.97317228568193" lon="12.697409860980585"><ele>3.0</ele><time>2026-04-24T14:43:13Z</time></trkpt><trkpt lat="43.97307271683573" lon="12.69761639635642"><ele>2.3333333333333335</ele><time>2026-04-24T14:43:14Z</time></trkpt><trkpt lat="43.972976781811504" lon="12.697824408985603"><ele>1.6666666666666665</ele><time>2026-04-24T14:43:15Z</time></trkpt><trkpt lat="43.97287838677713" lon="12.69803422367001"><ele>1.0</ele><time>2026-04-24T14:43:16Z</time></trkpt><trkpt lat="43.97278137831721" lon="12.698246773367435"><ele>1.0</ele><time>2026-04-24T14:43:17Z</time></trkpt><trkpt lat="43.97268668547532" lon="12.698455036760317"><ele>1.0</ele><time>2026-04-24T14:43:18Z</time></trkpt><trkpt lat="43.97259103046548" lon="12.698654896108444"><ele>1.0</ele><time>2026-04-24T14:43:19Z</time></trkpt><trkpt lat="43.97249725450955" lon="12.698848859486827"><ele>0.3333333333333333</ele><time>2026-04-24T14:43:20Z</time></trkpt><trkpt lat="43.972402177859045" lon="12.699035759412997"><ele>-0.3333333333333333</ele><time>2026-04-24T14:43:21Z</time></trkpt><trkpt lat="43.972312434319065" lon="12.699218611323893"><ele>-1.0</ele><time>2026-04-24T14:43:22Z</time></trkpt><trkpt lat="43.97222907077656" lon="12.699395485230369"><ele>-0.75</ele><time>2026-04-24T14:43:23Z</time></trkpt><trkpt lat="43.97214941122163" lon="12.699567423297117"><ele>-0.5</ele><time>2026-04-24T14:43:24Z</time></trkpt><trkpt lat="43.972070526866204" lon="12.699733612378742"><ele>-0.25</ele><time>2026-04-24T14:43:25Z</time></trkpt><trkpt lat="43.971990358778726" lon="12.699906886252949"><ele>0.0</ele><time>2026-04-24T14:43:26Z</time></trkpt><trkpt lat="43.971905470773095" lon="12.700078635950769"><ele>0.0</ele><time>2026-04-24T14:43:27Z</time></trkpt><trkpt lat="43.97181653253999" lon="12.700253481670345"><ele>0.0</ele><time>2026-04-24T14:43:28Z</time></trkpt><trkpt lat="43.97173042377418" lon="12.700428318088498"><ele>0.0</ele><time>2026-04-24T14:43:29Z</time></trkpt><trkpt lat="43.97165127093576" lon="12.700590044428333"><ele>0.0</ele><time>2026-04-24T14:43:30Z</time></trkpt><trkpt lat="43.971576089549465" lon="12.700744957847784"><ele>0.0</ele><time>2026-04-24T14:43:31Z</time></trkpt><trkpt lat="43.97150877195318" lon="12.700886537340583"><ele>0.0</ele><time>2026-04-24T14:43:32Z</time></trkpt><trkpt lat="43.97144515431607" lon="12.701016165041207"><ele>0.0</ele><time>2026-04-24T14:43:33Z</time></trkpt><trkpt lat="43.97138711473038" lon="12.70113755431927"><ele>0.0</ele><time>2026-04-24T14:43:34Z</time></trkpt><trkpt lat="43.97133610028256" lon="12.701252306935132"><ele>0.0</ele><time>2026-04-24T14:43:35Z</time></trkpt><trkpt lat="43.97128940021091" lon="12.70136430557368"><ele>-0.16666666666666666</ele><time>2026-04-24T14:43:36Z</time></trkpt><trkpt lat="43.97124514030526" lon="12.70146819815679"><ele>-0.3333333333333333</ele><time>2026-04-24T14:43:37Z</time></trkpt><trkpt lat="43.97119807004827" lon="12.701566079738466"><ele>-0.5</ele><time>2026-04-24T14:43:38Z</time></trkpt><trkpt lat="43.971152961326574" lon="12.70164942915011"><ele>-0.6666666666666666</ele><time>2026-04-24T14:43:39Z</time></trkpt><trkpt lat="43.971099604838955" lon="12.701720044976561"><ele>-0.8333333333333333</ele><time>2026-04-24T14:43:40Z</time></trkpt><trkpt lat="43.971031231220515" lon="12.701773263104966"><ele>-1.0</ele><time>2026-04-24T14:43:41Z</time></trkpt><trkpt lat="43.97095382515645" lon="12.701817034626362"><ele>-0.9999999999999999</ele><time>2026-04-24T14:43:42Z</time></trkpt><trkpt lat="43.97088863571898" lon="12.701879351708309"><ele>-1.0</ele><time>2026-04-24T14:43:43Z</time></trkpt><trkpt lat="43.97084470651427" lon="12.701967843853494"><ele>-1.0</ele><time>2026-04-24T14:43:44Z</time></trkpt><trkpt lat="43.97082565737703" lon="12.702070159627471"><ele>-1.0</ele><time>2026-04-24T14:43:45Z</time></trkpt><trkpt lat="43.97083214177111" lon="12.70218678098397"><ele>-0.9999999999999999</ele><time>2026-04-24T14:43:46Z</time></trkpt><trkpt lat="43.97087339358612" lon="12.702288667735408"><ele>-1.0</ele><time>2026-04-24T14:43:47Z</time></trkpt><trkpt lat="43.970827419165715" lon="12.702428257916168"><ele>-0.6000000000000001</ele><time>2026-04-24T14:43:48Z</time></trkpt><trkpt lat="43.970786766951306" lon="12.702555582816993"><ele>-0.20000000000000007</ele><time>2026-04-24T14:43:49Z</time></trkpt><trkpt lat="43.97073504631917" lon="12.702692874846974"><ele>0.20000000000000007</ele><time>2026-04-24T14:43:50Z</time></trkpt><trkpt lat="43.970673952688266" lon="12.702833514282217"><ele>0.6000000000000001</ele><time>2026-04-24T14:43:51Z</time></trkpt><trkpt lat="43.97061216421235" lon="12.70297046085787"><ele>1.0</ele><time>2026-04-24T14:43:52Z</time></trkpt><trkpt lat="43.97055300581595" lon="12.70311243566621"><ele>1.2000000000000002</ele><time>2026-04-24T14:43:53Z</time></trkpt><trkpt lat="43.97049301141841" lon="12.703253649018922"><ele>1.4000000000000001</ele><time>2026-04-24T14:43:54Z</time></trkpt><trkpt lat="43.970433309133895" lon="12.703382073225201"><ele>1.6</ele><time>2026-04-24T14:43:55Z</time></trkpt><trkpt lat="43.97037640746123" lon="12.703499841752228"><ele>1.8</ele><time>2026-04-24T14:43:56Z</time></trkpt><trkpt lat="43.970325514954126" lon="12.703618960519002"><ele>2.0</ele><time>2026-04-24T14:43:57Z</time></trkpt><trkpt lat="43.970273302487755" lon="12.703742749941789"><ele>2.2</ele><time>2026-04-24T14:43:58Z</time></trkpt><trkpt lat="43.97022573992801" lon="12.703869855041399"><ele>2.4000000000000004</ele><time>2026-04-24T14:43:59Z</time></trkpt><trkpt lat="43.970177412092" lon="12.704004641362822"><ele>2.5999999999999996</ele><time>2026-04-24T14:44:00Z</time></trkpt><trkpt lat="43.97012645453907" lon="12.70411664424568"><ele>2.8</ele><time>2026-04-24T14:44:01Z</time></trkpt><trkpt lat="43.97008205528623" lon="12.70422178896345"><ele>3.0</ele><time>2026-04-24T14:44:02Z</time></trkpt><trkpt lat="43.970041938813736" lon="12.704329447132444"><ele>3.0</ele><time>2026-04-24T14:44:03Z</time></trkpt><trkpt lat="43.96999514055747" lon="12.704439637697917"><ele>3.0</ele><time>2026-04-24T14:44:04Z</time></trkpt><trkpt lat="43.96994592658199" lon="12.70455605574886"><ele>3.0</ele><time>2026-04-24T14:44:05Z</time></trkpt><trkpt lat="43.969893440703245" lon="12.704678608969042"><ele>3.0</ele><time>2026-04-24T14:44:06Z</time></trkpt><trkpt lat="43.96984108114854" lon="12.704814576278569"><ele>3.0</ele><time>2026-04-24T14:44:07Z</time></trkpt><trkpt lat="43.96978876070107" lon="12.704958575054059"><ele>3.0</ele><time>2026-04-24T14:44:08Z</time></trkpt><trkpt lat="43.96972752644451" lon="12.705123699228526"><ele>3.0</ele><time>2026-04-24T14:44:09Z</time></trkpt><trkpt lat="43.969659530987876" lon="12.705306987405423"><ele>3.0</ele><time>2026-04-24T14:44:10Z</time></trkpt><trkpt lat="43.96958659604563" lon="12.705507178065744"><ele>3.0</ele><time>2026-04-24T14:44:11Z</time></trkpt><trkpt lat="43.96950745285447" lon="12.705718829033918"><ele>3.0</ele><time>2026-04-24T14:44:12Z</time></trkpt><trkpt lat="43.96941943874272" lon="12.70593333179072"><ele>3.0</ele><time>2026-04-24T14:44:13Z</time></trkpt><trkpt lat="43.9693221204722" lon="12.706150846808072"><ele>3.0</ele><time>2026-04-24T14:44:14Z</time></trkpt><trkpt lat="43.96921704806799" lon="12.70637437542632"><ele>2.6666666666666665</ele><time>2026-04-24T14:44:15Z</time></trkpt><trkpt lat="43.96911383396524" lon="12.7065880917374"><ele>2.333333333333333</ele><time>2026-04-24T14:44:16Z</time></trkpt><trkpt lat="43.969014248918675" lon="12.706786686606266"><ele>2.0</ele><time>2026-04-24T14:44:17Z</time></trkpt><trkpt lat="43.968913002874594" lon="12.706982455024724"><ele>2.0</ele><time>2026-04-24T14:44:18Z</time></trkpt><trkpt lat="43.968806746763676" lon="12.707187776336003"><ele>2.0</ele><time>2026-04-24T14:44:19Z</time></trkpt><trkpt lat="43.96869546152498" lon="12.707389164067422"><ele>2.0</ele><time>2026-04-24T14:44:20Z</time></trkpt><trkpt lat="43.9685772062295" lon="12.707585468752187"><ele>1.6666666666666665</ele><time>2026-04-24T14:44:21Z</time></trkpt><trkpt lat="43.968458181405694" lon="12.707782630491323"><ele>1.3333333333333333</ele><time>2026-04-24T14:44:22Z</time></trkpt><trkpt lat="43.96833443619264" lon="12.707983817373107"><ele>1.0</ele><time>2026-04-24T14:44:23Z</time></trkpt><trkpt lat="43.96820505854575" lon="12.708187249489143"><ele>1.0</ele><time>2026-04-24T14:44:24Z</time></trkpt><trkpt lat="43.968067816268494" lon="12.708381948601122"><ele>1.0</ele><time>2026-04-24T14:44:25Z</time></trkpt><trkpt lat="43.9679229238182" lon="12.708573335657606"><ele>1.0</ele><time>2026-04-24T14:44:26Z</time></trkpt><trkpt lat="43.96776738637315" lon="12.708766317944756"><ele>1.0</ele><time>2026-04-24T14:44:27Z</time></trkpt><trkpt lat="43.96760749634732" lon="12.708965722116124"><ele>1.0</ele><time>2026-04-24T14:44:28Z</time></trkpt><trkpt lat="43.96742802013909" lon="12.709156651498093"><ele>1.0</ele><time>2026-04-24T14:44:29Z</time></trkpt><trkpt lat="43.96724051006682" lon="12.709362154994446"><ele>2.0</ele><time>2026-04-24T14:44:30Z</time></trkpt><trkpt lat="43.967043389811465" lon="12.709561652061769"><ele>3.0</ele><time>2026-04-24T14:44:31Z</time></trkpt><trkpt lat="43.96684456551025" lon="12.709752536383334"><ele>6.0</ele><time>2026-04-24T14:44:32Z</time></trkpt><trkpt lat="43.96664521336504" lon="12.709931290716689"><ele>9.0</ele><time>2026-04-24T14:44:33Z</time></trkpt><trkpt lat="43.96645724938636" lon="12.710117451486378"><ele>8.666666666666666</ele><time>2026-04-24T14:44:34Z</time></trkpt><trkpt lat="43.96626059657182" lon="12.71027399957032"><ele>8.333333333333332</ele><time>2026-04-24T14:44:35Z</time></trkpt><trkpt lat="43.966071303913495" lon="12.71042492248361"><ele>8.0</ele><time>2026-04-24T14:44:36Z</time></trkpt><trkpt lat="43.96589690119679" lon="12.710563240430808"><ele>9.0</ele><time>2026-04-24T14:44:37Z</time></trkpt><trkpt lat="43.965727058520706" lon="12.710680149506281"><ele>10.0</ele><time>2026-04-24T14:44:38Z</time></trkpt><trkpt lat="43.965568764818514" lon="12.710799866891104"><ele>11.0</ele><time>2026-04-24T14:44:39Z</time></trkpt><trkpt lat="43.96541202983831" lon="12.710913719990696"><ele>11.0</ele><time>2026-04-24T14:44:40Z</time></trkpt><trkpt lat="43.965252837548434" lon="12.711027279162119"><ele>11.0</ele><time>2026-04-24T14:44:41Z</time></trkpt><trkpt lat="43.96509172041164" lon="12.711134994948944"><ele>11.0</ele><time>2026-04-24T14:44:42Z</time></trkpt><trkpt lat="43.96492500633621" lon="12.711251414671777"><ele>9.666666666666666</ele><time>2026-04-24T14:44:43Z</time></trkpt><trkpt lat="43.96475681723903" lon="12.711360323090291"><ele>8.333333333333334</ele><time>2026-04-24T14:44:44Z</time></trkpt><trkpt lat="43.96459140298864" lon="12.711465293533282"><ele>7.0</ele><time>2026-04-24T14:44:45Z</time></trkpt><trkpt lat="43.96442772145286" lon="12.711570997288208"><ele>7.0</ele><time>2026-04-24T14:44:46Z</time></trkpt><trkpt lat="43.96426042417124" lon="12.71167737795594"><ele>7.0</ele><time>2026-04-24T14:44:47Z</time></trkpt><trkpt lat="43.964092589398035" lon="12.711784987730503"><ele>7.0</ele><time>2026-04-24T14:44:48Z</time></trkpt><trkpt lat="43.96392847557756" lon="12.711899300418727"><ele>6.666666666666667</ele><time>2026-04-24T14:44:49Z</time></trkpt><trkpt lat="43.963761385210255" lon="12.71201451123736"><ele>6.333333333333334</ele><time>2026-04-24T14:44:50Z</time></trkpt><trkpt lat="43.96359574450901" lon="12.712132441452685"><ele>6.0</ele><time>2026-04-24T14:44:51Z</time></trkpt><trkpt lat="43.963420252241455" lon="12.712228759725104"><ele>7.666666666666666</ele><time>2026-04-24T14:44:52Z</time></trkpt><trkpt lat="43.96325092131058" lon="12.712341016564745"><ele>9.333333333333332</ele><time>2026-04-24T14:44:53Z</time></trkpt><trkpt lat="43.96308175722781" lon="12.712475203242331"><ele>11.0</ele><time>2026-04-24T14:44:54Z</time></trkpt><trkpt lat="43.96290430675889" lon="12.712591016620472"><ele>11.0</ele><time>2026-04-24T14:44:55Z</time></trkpt><trkpt lat="43.96272691730705" lon="12.712709930835752"><ele>11.0</ele><time>2026-04-24T14:44:56Z</time></trkpt><trkpt lat="43.96254678432393" lon="12.712832065135943"><ele>11.0</ele><time>2026-04-24T14:44:57Z</time></trkpt><trkpt lat="43.96236580556539" lon="12.712956230878122"><ele>12.0</ele><time>2026-04-24T14:44:58Z</time></trkpt><trkpt lat="43.962174482002" lon="12.713060307581529"><ele>13.0</ele><time>2026-04-24T14:44:59Z</time></trkpt><trkpt lat="43.961994205980005" lon="12.713208794789379"><ele>14.0</ele><time>2026-04-24T14:45:00Z</time></trkpt><trkpt lat="43.96180775298527" lon="12.713334095481883"><ele>14.333333333333334</ele><time>2026-04-24T14:45:01Z</time></trkpt><trkpt lat="43.96162159880265" lon="12.7134587841376"><ele>14.666666666666668</ele><time>2026-04-24T14:45:02Z</time></trkpt><trkpt lat="43.96144663742574" lon="12.713582641384106"><ele>15.0</ele><time>2026-04-24T14:45:03Z</time></trkpt><trkpt lat="43.96127503198305" lon="12.71371509493364"><ele>15.333333333333332</ele><time>2026-04-24T14:45:04Z</time></trkpt><trkpt lat="43.96110943564745" lon="12.713851263651678"><ele>15.666666666666666</ele><time>2026-04-24T14:45:05Z</time></trkpt><trkpt lat="43.96094648828048" lon="12.713995233161121"><ele>16.0</ele><time>2026-04-24T14:45:06Z</time></trkpt><trkpt lat="43.960788770938265" lon="12.714147085998057"><ele>16.333333333333332</ele><time>2026-04-24T14:45:07Z</time></trkpt><trkpt lat="43.9606314950781" lon="12.714306944056535"><ele>16.666666666666668</ele><time>2026-04-24T14:45:08Z</time></trkpt><trkpt lat="43.96047893131397" lon="12.714477991667136"><ele>17.0</ele><time>2026-04-24T14:45:09Z</time></trkpt><trkpt lat="43.960326889578056" lon="12.714653270065455"><ele>17.333333333333336</ele><time>2026-04-24T14:45:10Z</time></trkpt><trkpt lat="43.960179559856755" lon="12.714837884011633"><ele>17.666666666666668</ele><time>2026-04-24T14:45:11Z</time></trkpt><trkpt lat="43.96003702494999" lon="12.715033813166057"><ele>18.0</ele><time>2026-04-24T14:45:12Z</time></trkpt><trkpt lat="43.95989564659574" lon="12.715242701984984"><ele>19.0</ele><time>2026-04-24T14:45:13Z</time></trkpt><trkpt lat="43.95976197830201" lon="12.715453805550643"><ele>20.0</ele><time>2026-04-24T14:45:14Z</time></trkpt><trkpt lat="43.95963868482902" lon="12.715675243004194"><ele>21.0</ele><time>2026-04-24T14:45:15Z</time></trkpt><trkpt lat="43.959522315489494" lon="12.715896870208045"><ele>20.0</ele><time>2026-04-24T14:45:16Z</time></trkpt><trkpt lat="43.959410111258634" lon="12.716124002576118"><ele>19.0</ele><time>2026-04-24T14:45:17Z</time></trkpt><trkpt lat="43.9593068990834" lon="12.716362085927784"><ele>18.0</ele><time>2026-04-24T14:45:18Z</time></trkpt><trkpt lat="43.95921532070782" lon="12.716602057642225"><ele>18.0</ele><time>2026-04-24T14:45:19Z</time></trkpt><trkpt lat="43.95912510393306" lon="12.716854505188465"><ele>18.0</ele><time>2026-04-24T14:45:20Z</time></trkpt><trkpt lat="43.9590396451243" lon="12.717103161473345"><ele>18.0</ele><time>2026-04-24T14:45:21Z</time></trkpt><trkpt lat="43.958957264263525" lon="12.717359033587925"><ele>18.0</ele><time>2026-04-24T14:45:22Z</time></trkpt><trkpt lat="43.958884302797735" lon="12.717619220612578"><ele>18.0</ele><time>2026-04-24T14:45:23Z</time></trkpt><trkpt lat="43.95881774665727" lon="12.717886834052868"><ele>18.0</ele><time>2026-04-24T14:45:24Z</time></trkpt><trkpt lat="43.95875808173374" lon="12.71814763569528"><ele>17.0</ele><time>2026-04-24T14:45:25Z</time></trkpt><trkpt lat="43.958706193579985" lon="12.718387925683059"><ele>16.0</ele><time>2026-04-24T14:45:26Z</time></trkpt><trkpt lat="43.958660978322136" lon="12.718613577384788"><ele>15.0</ele><time>2026-04-24T14:45:27Z</time></trkpt><trkpt lat="43.95862294066353" lon="12.718829888213419"><ele>14.5</ele><time>2026-04-24T14:45:28Z</time></trkpt><trkpt lat="43.95858989995413" lon="12.719039012415784"><ele>14.0</ele><time>2026-04-24T14:45:29Z</time></trkpt><trkpt lat="43.95855865362489" lon="12.719232138310465"><ele>13.5</ele><time>2026-04-24T14:45:30Z</time></trkpt><trkpt lat="43.95853081700488" lon="12.71941632191526"><ele>13.0</ele><time>2026-04-24T14:45:31Z</time></trkpt><trkpt lat="43.95850653472836" lon="12.71957978471697"><ele>13.0</ele><time>2026-04-24T14:45:32Z</time></trkpt><trkpt lat="43.95848381252237" lon="12.719712242764102"><ele>13.0</ele><time>2026-04-24T14:45:33Z</time></trkpt><trkpt lat="43.958463794110976" lon="12.719811477384534"><ele>13.0</ele><time>2026-04-24T14:45:34Z</time></trkpt><trkpt lat="43.95842517209368" lon="12.719963916667806"><ele>13.0</ele><time>2026-04-24T14:45:36Z</time></trkpt><trkpt lat="43.95833975679896" lon="12.720088175359033"><ele>13.0</ele><time>2026-04-24T14:45:38Z</time></trkpt><trkpt lat="43.95827878557558" lon="12.72015770436948"><ele>13.833333333333332</ele><time>2026-04-24T14:45:39Z</time></trkpt><trkpt lat="43.95823467303781" lon="12.720237301793045"><ele>14.666666666666666</ele><time>2026-04-24T14:45:40Z</time></trkpt><trkpt lat="43.95821904015972" lon="12.720330798219992"><ele>15.5</ele><time>2026-04-24T14:45:41Z</time></trkpt><trkpt lat="43.95823481854329" lon="12.72043887524851"><ele>16.333333333333332</ele><time>2026-04-24T14:45:42Z</time></trkpt><trkpt lat="43.95827272226687" lon="12.720539740849375"><ele>17.166666666666668</ele><time>2026-04-24T14:45:43Z</time></trkpt><trkpt lat="43.958302178364654" lon="12.720656514123876"><ele>18.0</ele><time>2026-04-24T14:45:44Z</time></trkpt><trkpt lat="43.958301798341864" lon="12.720793721502993"><ele>18.0</ele><time>2026-04-24T14:45:45Z</time></trkpt><trkpt lat="43.958283195581096" lon="12.720951957427376"><ele>18.0</ele><time>2026-04-24T14:45:46Z</time></trkpt><trkpt lat="43.95825378300027" lon="12.721128626344033"><ele>18.0</ele><time>2026-04-24T14:45:47Z</time></trkpt><trkpt lat="43.95822284971892" lon="12.721327057086807"><ele>18.0</ele><time>2026-04-24T14:45:48Z</time></trkpt><trkpt lat="43.958189159204416" lon="12.721542367773036"><ele>17.666666666666668</ele><time>2026-04-24T14:45:49Z</time></trkpt><trkpt lat="43.958147703786835" lon="12.721770155995156"><ele>17.333333333333336</ele><time>2026-04-24T14:45:50Z</time></trkpt><trkpt lat="43.95810575516792" lon="12.722007278019694"><ele>17.0</ele><time>2026-04-24T14:45:51Z</time></trkpt><trkpt lat="43.95805889819964" lon="12.722266679701578"><ele>15.666666666666668</ele><time>2026-04-24T14:45:52Z</time></trkpt><trkpt lat="43.95800994263147" lon="12.722546841102698"><ele>14.333333333333332</ele><time>2026-04-24T14:45:53Z</time></trkpt><trkpt lat="43.957956352893795" lon="12.722829097855412"><ele>13.0</ele><time>2026-04-24T14:45:54Z</time></trkpt><trkpt lat="43.95789462952526" lon="12.723096847607247"><ele>12.333333333333332</ele><time>2026-04-24T14:45:55Z</time></trkpt><trkpt lat="43.95782506618682" lon="12.723369606784704"><ele>11.666666666666666</ele><time>2026-04-24T14:45:56Z</time></trkpt><trkpt lat="43.95775501194506" lon="12.723647339657399"><ele>11.0</ele><time>2026-04-24T14:45:57Z</time></trkpt><trkpt lat="43.957681848751314" lon="12.723930811048008"><ele>11.333333333333332</ele><time>2026-04-24T14:45:58Z</time></trkpt><trkpt lat="43.95760503003185" lon="12.724222739585526"><ele>11.666666666666666</ele><time>2026-04-24T14:45:59Z</time></trkpt><trkpt lat="43.95752275539477" lon="12.724509666952383"><ele>12.0</ele><time>2026-04-24T14:46:00Z</time></trkpt><trkpt lat="43.957431602700346" lon="12.72478932846429"><ele>12.0</ele><time>2026-04-24T14:46:01Z</time></trkpt><trkpt lat="43.95733491293312" lon="12.725058828872212"><ele>12.0</ele><time>2026-04-24T14:46:02Z</time></trkpt><trkpt lat="43.95723891759916" lon="12.725318171057316"><ele>12.0</ele><time>2026-04-24T14:46:03Z</time></trkpt><trkpt lat="43.95714307501116" lon="12.725564372687618"><ele>11.666666666666666</ele><time>2026-04-24T14:46:04Z</time></trkpt><trkpt lat="43.95704262935623" lon="12.72579664557267"><ele>11.333333333333332</ele><time>2026-04-24T14:46:05Z</time></trkpt><trkpt lat="43.956942844238895" lon="12.726013762331748"><ele>11.0</ele><time>2026-04-24T14:46:06Z</time></trkpt><trkpt lat="43.95684435010966" lon="12.726217676987277"><ele>12.0</ele><time>2026-04-24T14:46:07Z</time></trkpt><trkpt lat="43.95674255064086" lon="12.726417897216386"><ele>13.0</ele><time>2026-04-24T14:46:08Z</time></trkpt><trkpt lat="43.95663633911845" lon="12.72661956687203"><ele>14.0</ele><time>2026-04-24T14:46:09Z</time></trkpt><trkpt lat="43.9565309168481" lon="12.726822807463877"><ele>14.0</ele><time>2026-04-24T14:46:10Z</time></trkpt><trkpt lat="43.95642273063082" lon="12.727027425845854"><ele>14.0</ele><time>2026-04-24T14:46:11Z</time></trkpt><trkpt lat="43.95630934114145" lon="12.727222306642231"><ele>14.0</ele><time>2026-04-24T14:46:12Z</time></trkpt><trkpt lat="43.956191907973746" lon="12.727418528505067"><ele>14.0</ele><time>2026-04-24T14:46:13Z</time></trkpt><trkpt lat="43.95607828580644" lon="12.727606344322481"><ele>14.0</ele><time>2026-04-24T14:46:14Z</time></trkpt><trkpt lat="43.95596989668347" lon="12.727774045551687"><ele>14.0</ele><time>2026-04-24T14:46:15Z</time></trkpt><trkpt lat="43.955860947212656" lon="12.727926520386756"><ele>14.75</ele><time>2026-04-24T14:46:16Z</time></trkpt><trkpt lat="43.95574897503112" lon="12.728079948974594"><ele>15.5</ele><time>2026-04-24T14:46:17Z</time></trkpt><trkpt lat="43.955639739803885" lon="12.728224057739963"><ele>16.25</ele><time>2026-04-24T14:46:18Z</time></trkpt><trkpt lat="43.9555478390438" lon="12.728360829853587"><ele>17.0</ele><time>2026-04-24T14:46:19Z</time></trkpt><trkpt lat="43.95546095741005" lon="12.728478210154442"><ele>17.0</ele><time>2026-04-24T14:46:20Z</time></trkpt><trkpt lat="43.95537762578577" lon="12.728581491677973"><ele>17.0</ele><time>2026-04-24T14:46:21Z</time></trkpt><trkpt lat="43.95529708556006" lon="12.728678210040725"><ele>17.0</ele><time>2026-04-24T14:46:22Z</time></trkpt><trkpt lat="43.95522241883681" lon="12.728758760862448"><ele>17.0</ele><time>2026-04-24T14:46:23Z</time></trkpt><trkpt lat="43.95515117172486" lon="12.728842227037267"><ele>17.0</ele><time>2026-04-24T14:46:25Z</time></trkpt><trkpt lat="43.95506468682496" lon="12.72891521835272"><ele>16.8</ele><time>2026-04-24T14:46:28Z</time></trkpt><trkpt lat="43.95495687753316" lon="12.728908817864157"><ele>16.6</ele><time>2026-04-24T14:46:30Z</time></trkpt><trkpt lat="43.95484816211468" lon="12.728893314093222"><ele>16.400000000000002</ele><time>2026-04-24T14:46:32Z</time></trkpt><trkpt lat="43.954747919233505" lon="12.728979972360294"><ele>16.2</ele><time>2026-04-24T14:46:34Z</time></trkpt><trkpt lat="43.95471087439423" lon="12.729071964161035"><ele>16.0</ele><time>2026-04-24T14:46:35Z</time></trkpt><trkpt lat="43.95468725629268" lon="12.729181837205072"><ele>15.999999999999998</ele><time>2026-04-24T14:46:36Z</time></trkpt><trkpt lat="43.95467105074575" lon="12.729293910109236"><ele>16.0</ele><time>2026-04-24T14:46:37Z</time></trkpt><trkpt lat="43.954646226790715" lon="12.729401614562668"><ele>16.0</ele><time>2026-04-24T14:46:38Z</time></trkpt><trkpt lat="43.95459785662124" lon="12.729499188473724"><ele>16.0</ele><time>2026-04-24T14:46:39Z</time></trkpt><trkpt lat="43.95453162596081" lon="12.729589300822395"><ele>15.999999999999998</ele><time>2026-04-24T14:46:40Z</time></trkpt><trkpt lat="43.95444743883292" lon="12.729674176412514"><ele>16.0</ele><time>2026-04-24T14:46:41Z</time></trkpt><trkpt lat="43.95435739837374" lon="12.729764643163017"><ele>16.25</ele><time>2026-04-24T14:46:42Z</time></trkpt><trkpt lat="43.9542641068596" lon="12.729860583026344"><ele>16.5</ele><time>2026-04-24T14:46:43Z</time></trkpt><trkpt lat="43.954168074085636" lon="12.729956139782345"><ele>16.75</ele><time>2026-04-24T14:46:44Z</time></trkpt><trkpt lat="43.95407222315009" lon="12.730058914306923"><ele>17.0</ele><time>2026-04-24T14:46:45Z</time></trkpt><trkpt lat="43.953971399653064" lon="12.730168946614176"><ele>16.75</ele><time>2026-04-24T14:46:46Z</time></trkpt><trkpt lat="43.95386828877805" lon="12.730283001459572"><ele>16.5</ele><time>2026-04-24T14:46:47Z</time></trkpt><trkpt lat="43.95375878405467" lon="12.73040354532188"><ele>16.25</ele><time>2026-04-24T14:46:48Z</time></trkpt><trkpt lat="43.95363838983675" lon="12.730537758161189"><ele>16.0</ele><time>2026-04-24T14:46:49Z</time></trkpt><trkpt lat="43.953510077435745" lon="12.730684081658284"><ele>16.0</ele><time>2026-04-24T14:46:50Z</time></trkpt><trkpt lat="43.95337574970325" lon="12.73083474545059"><ele>16.0</ele><time>2026-04-24T14:46:51Z</time></trkpt><trkpt lat="43.95324506007469" lon="12.730987707540628"><ele>16.0</ele><time>2026-04-24T14:46:52Z</time></trkpt><trkpt lat="43.95310574523442" lon="12.731158311644167"><ele>16.0</ele><time>2026-04-24T14:46:53Z</time></trkpt><trkpt lat="43.952960738658895" lon="12.73133332364385"><ele>16.0</ele><time>2026-04-24T14:46:54Z</time></trkpt><trkpt lat="43.95281639842628" lon="12.731506020028217"><ele>16.0</ele><time>2026-04-24T14:46:55Z</time></trkpt><trkpt lat="43.95268281335169" lon="12.731665286264676"><ele>16.0</ele><time>2026-04-24T14:46:56Z</time></trkpt><trkpt lat="43.9525522274862" lon="12.731819218084349"><ele>16.0</ele><time>2026-04-24T14:46:57Z</time></trkpt><trkpt lat="43.952425811793574" lon="12.731973062662945"><ele>16.0</ele><time>2026-04-24T14:46:58Z</time></trkpt><trkpt lat="43.952308255996236" lon="12.732130900752988"><ele>14.666666666666666</ele><time>2026-04-24T14:46:59Z</time></trkpt><trkpt lat="43.95219196502279" lon="12.73229110413654"><ele>13.333333333333332</ele><time>2026-04-24T14:47:00Z</time></trkpt><trkpt lat="43.95208032666685" lon="12.732448426049976"><ele>12.0</ele><time>2026-04-24T14:47:01Z</time></trkpt><trkpt lat="43.951976091567914" lon="12.73260929689427"><ele>12.666666666666668</ele><time>2026-04-24T14:47:02Z</time></trkpt><trkpt lat="43.95187760817094" lon="12.73277679536537"><ele>13.333333333333334</ele><time>2026-04-24T14:47:03Z</time></trkpt><trkpt lat="43.951781541402056" lon="12.732945358502493"><ele>14.0</ele><time>2026-04-24T14:47:04Z</time></trkpt><trkpt lat="43.951685891603425" lon="12.73311561175023"><ele>14.0</ele><time>2026-04-24T14:47:05Z</time></trkpt><trkpt lat="43.95159474269621" lon="12.733285380519616"><ele>14.0</ele><time>2026-04-24T14:47:06Z</time></trkpt><trkpt lat="43.95150955681726" lon="12.733462431035875"><ele>14.0</ele><time>2026-04-24T14:47:07Z</time></trkpt><trkpt lat="43.95143250049507" lon="12.733647782275872"><ele>14.0</ele><time>2026-04-24T14:47:08Z</time></trkpt><trkpt lat="43.95136232209041" lon="12.733846380512345"><ele>14.0</ele><time>2026-04-24T14:47:09Z</time></trkpt><trkpt lat="43.95129943124227" lon="12.734058734906485"><ele>14.0</ele><time>2026-04-24T14:47:10Z</time></trkpt><trkpt lat="43.95124083679526" lon="12.734279312415552"><ele>13.333333333333334</ele><time>2026-04-24T14:47:11Z</time></trkpt><trkpt lat="43.9511816854904" lon="12.734507970317074"><ele>12.666666666666668</ele><time>2026-04-24T14:47:12Z</time></trkpt><trkpt lat="43.9511233692821" lon="12.734743721646533"><ele>12.0</ele><time>2026-04-24T14:47:13Z</time></trkpt><trkpt lat="43.951074650083676" lon="12.734979971443842"><ele>12.0</ele><time>2026-04-24T14:47:14Z</time></trkpt><trkpt lat="43.95103211058599" lon="12.735217218145419"><ele>12.0</ele><time>2026-04-24T14:47:15Z</time></trkpt><trkpt lat="43.95099846745528" lon="12.73544982821234"><ele>12.0</ele><time>2026-04-24T14:47:16Z</time></trkpt><trkpt lat="43.95097123827494" lon="12.735673282751476"><ele>12.0</ele><time>2026-04-24T14:47:17Z</time></trkpt><trkpt lat="43.9509480502215" lon="12.735897347716799"><ele>12.0</ele><time>2026-04-24T14:47:18Z</time></trkpt><trkpt lat="43.95093113314456" lon="12.736118435999488"><ele>12.0</ele><time>2026-04-24T14:47:19Z</time></trkpt><trkpt lat="43.950918842133014" lon="12.736344318903559"><ele>12.333333333333332</ele><time>2026-04-24T14:47:20Z</time></trkpt><trkpt lat="43.95091080806379" lon="12.736566488494118"><ele>12.666666666666666</ele><time>2026-04-24T14:47:21Z</time></trkpt><trkpt lat="43.95090786852382" lon="12.736788938482498"><ele>13.0</ele><time>2026-04-24T14:47:22Z</time></trkpt><trkpt lat="43.950908291541666" lon="12.737010242296703"><ele>13.333333333333332</ele><time>2026-04-24T14:47:23Z</time></trkpt><trkpt lat="43.950912576577814" lon="12.737222392535301"><ele>13.666666666666668</ele><time>2026-04-24T14:47:24Z</time></trkpt><trkpt lat="43.95092370561716" lon="12.737437534023584"><ele>14.0</ele><time>2026-04-24T14:47:25Z</time></trkpt><trkpt lat="43.95093955461328" lon="12.737653241620572"><ele>14.0</ele><time>2026-04-24T14:47:26Z</time></trkpt><trkpt lat="43.950958714811264" lon="12.737866570147263"><ele>14.0</ele><time>2026-04-24T14:47:27Z</time></trkpt><trkpt lat="43.95098283076604" lon="12.73808347367739"><ele>14.0</ele><time>2026-04-24T14:47:28Z</time></trkpt><trkpt lat="43.9510150036915" lon="12.738304681778262"><ele>14.0</ele><time>2026-04-24T14:47:29Z</time></trkpt><trkpt lat="43.951048120165886" lon="12.738530031277318"><ele>14.0</ele><time>2026-04-24T14:47:30Z</time></trkpt><trkpt lat="43.951085725407" lon="12.738755296565849"><ele>14.0</ele><time>2026-04-24T14:47:31Z</time></trkpt><trkpt lat="43.95112839418957" lon="12.738985114952042"><ele>14.0</ele><time>2026-04-24T14:47:32Z</time></trkpt><trkpt lat="43.951174543620375" lon="12.739210820158327"><ele>14.0</ele><time>2026-04-24T14:47:33Z</time></trkpt><trkpt lat="43.95122112064245" lon="12.739442776284934"><ele>14.0</ele><time>2026-04-24T14:47:34Z</time></trkpt><trkpt lat="43.95127546136142" lon="12.739680498647328"><ele>14.0</ele><time>2026-04-24T14:47:35Z</time></trkpt><trkpt lat="43.951337144336" lon="12.739925247028637"><ele>14.0</ele><time>2026-04-24T14:47:36Z</time></trkpt><trkpt lat="43.95140140491328" lon="12.740169991151948"><ele>14.0</ele><time>2026-04-24T14:47:37Z</time></trkpt><trkpt lat="43.95146598575913" lon="12.740404928698474"><ele>14.0</ele><time>2026-04-24T14:47:38Z</time></trkpt><trkpt lat="43.951526420217554" lon="12.740627918882224"><ele>14.0</ele><time>2026-04-24T14:47:39Z</time></trkpt><trkpt lat="43.95158461181134" lon="12.740830986175128"><ele>14.0</ele><time>2026-04-24T14:47:40Z</time></trkpt><trkpt lat="43.95164100049009" lon="12.741018068990002"><ele>14.0</ele><time>2026-04-24T14:47:41Z</time></trkpt><trkpt lat="43.951691658933996" lon="12.741190273517113"><ele>14.0</ele><time>2026-04-24T14:47:42Z</time></trkpt><trkpt lat="43.951746106610315" lon="12.74135746409391"><ele>14.0</ele><time>2026-04-24T14:47:43Z</time></trkpt><trkpt lat="43.9517920940705" lon="12.741515617669684"><ele>14.0</ele><time>2026-04-24T14:47:44Z</time></trkpt><trkpt lat="43.95183439857255" lon="12.741658270741647"><ele>14.0</ele><time>2026-04-24T14:47:45Z</time></trkpt><trkpt lat="43.95187335533503" lon="12.741792909347902"><ele>14.0</ele><time>2026-04-24T14:47:46Z</time></trkpt><trkpt lat="43.95191559909187" lon="12.741933296652363"><ele>14.0</ele><time>2026-04-24T14:47:47Z</time></trkpt><trkpt lat="43.95196119525839" lon="12.74209016356231"><ele>14.0</ele><time>2026-04-24T14:47:48Z</time></trkpt><trkpt lat="43.9520119871332" lon="12.742254154023003"><ele>14.0</ele><time>2026-04-24T14:47:49Z</time></trkpt><trkpt lat="43.95206480789076" lon="12.742424296975457"><ele>14.0</ele><time>2026-04-24T14:47:50Z</time></trkpt><trkpt lat="43.952118835563034" lon="12.74260538504134"><ele>14.0</ele><time>2026-04-24T14:47:51Z</time></trkpt><trkpt lat="43.952175525954296" lon="12.742788442342112"><ele>14.0</ele><time>2026-04-24T14:47:52Z</time></trkpt><trkpt lat="43.95223042857278" lon="12.742970900929775"><ele>13.5</ele><time>2026-04-24T14:47:53Z</time></trkpt><trkpt lat="43.95228141159692" lon="12.743146256373642"><ele>13.0</ele><time>2026-04-24T14:47:54Z</time></trkpt><trkpt lat="43.95233128513106" lon="12.743315635689282"><ele>12.5</ele><time>2026-04-24T14:47:55Z</time></trkpt><trkpt lat="43.952380380908004" lon="12.743484281624655"><ele>12.0</ele><time>2026-04-24T14:47:56Z</time></trkpt><trkpt lat="43.95242623062601" lon="12.743651685554607"><ele>12.0</ele><time>2026-04-24T14:47:57Z</time></trkpt><trkpt lat="43.9524722112379" lon="12.743821509072864"><ele>12.0</ele><time>2026-04-24T14:47:58Z</time></trkpt><trkpt lat="43.952521328850274" lon="12.74399538680167"><ele>12.0</ele><time>2026-04-24T14:47:59Z</time></trkpt><trkpt lat="43.95256454521869" lon="12.744172584843168"><ele>12.0</ele><time>2026-04-24T14:48:00Z</time></trkpt><trkpt lat="43.95261059933623" lon="12.744341198098391"><ele>12.5</ele><time>2026-04-24T14:48:01Z</time></trkpt><trkpt lat="43.9526595961159" lon="12.74450839032543"><ele>13.0</ele><time>2026-04-24T14:48:02Z</time></trkpt><trkpt lat="43.95270538987715" lon="12.744675638903718"><ele>13.5</ele><time>2026-04-24T14:48:03Z</time></trkpt><trkpt lat="43.9527498307992" lon="12.74483835570445"><ele>14.0</ele><time>2026-04-24T14:48:04Z</time></trkpt><trkpt lat="43.95279069417241" lon="12.744999990536291"><ele>14.0</ele><time>2026-04-24T14:48:05Z</time></trkpt><trkpt lat="43.95282362659843" lon="12.74515002031264"><ele>14.0</ele><time>2026-04-24T14:48:06Z</time></trkpt><trkpt lat="43.95285409574752" lon="12.745296457251397"><ele>14.0</ele><time>2026-04-24T14:48:07Z</time></trkpt><trkpt lat="43.9528861901482" lon="12.745455088081622"><ele>14.0</ele><time>2026-04-24T14:48:08Z</time></trkpt><trkpt lat="43.952917618541825" lon="12.745621175170104"><ele>14.0</ele><time>2026-04-24T14:48:09Z</time></trkpt><trkpt lat="43.95294840558573" lon="12.745785644924053"><ele>13.999999999999998</ele><time>2026-04-24T14:48:10Z</time></trkpt><trkpt lat="43.952975648952254" lon="12.745933501653049"><ele>13.999999999999998</ele><time>2026-04-24T14:48:11Z</time></trkpt><trkpt lat="43.95300327832242" lon="12.746071799236187"><ele>14.0</ele><time>2026-04-24T14:48:12Z</time></trkpt><trkpt lat="43.95302687271618" lon="12.746215774370823"><ele>14.0</ele><time>2026-04-24T14:48:13Z</time></trkpt><trkpt lat="43.9530499268927" lon="12.7463761159628"><ele>13.75</ele><time>2026-04-24T14:48:14Z</time></trkpt><trkpt lat="43.9530728694542" lon="12.746546568392972"><ele>13.5</ele><time>2026-04-24T14:48:15Z</time></trkpt><trkpt lat="43.95309776728905" lon="12.746725476421284"><ele>13.25</ele><time>2026-04-24T14:48:16Z</time></trkpt><trkpt lat="43.953121007937916" lon="12.746913300493581"><ele>13.0</ele><time>2026-04-24T14:48:17Z</time></trkpt><trkpt lat="43.953141143529045" lon="12.747110048728228"><ele>12.333333333333332</ele><time>2026-04-24T14:48:18Z</time></trkpt><trkpt lat="43.95316122030399" lon="12.747312639263123"><ele>11.666666666666666</ele><time>2026-04-24T14:48:19Z</time></trkpt><trkpt lat="43.95317755407618" lon="12.747519613049494"><ele>11.0</ele><time>2026-04-24T14:48:20Z</time></trkpt><trkpt lat="43.95318731244208" lon="12.747735637910662"><ele>10.666666666666666</ele><time>2026-04-24T14:48:21Z</time></trkpt><trkpt lat="43.95319604190713" lon="12.747958531696652"><ele>10.333333333333334</ele><time>2026-04-24T14:48:22Z</time></trkpt><trkpt lat="43.953204575759656" lon="12.74816542661798"><ele>10.0</ele><time>2026-04-24T14:48:23Z</time></trkpt><trkpt lat="43.95321233798248" lon="12.748366313068443"><ele>9.75</ele><time>2026-04-24T14:48:24Z</time></trkpt><trkpt lat="43.95321609160994" lon="12.748565273740988"><ele>9.5</ele><time>2026-04-24T14:48:25Z</time></trkpt><trkpt lat="43.95321406509833" lon="12.7487593683882"><ele>9.25</ele><time>2026-04-24T14:48:26Z</time></trkpt><trkpt lat="43.953211810051364" lon="12.748948962426315"><ele>9.0</ele><time>2026-04-24T14:48:27Z</time></trkpt><trkpt lat="43.953209034785516" lon="12.749135363335244"><ele>9.0</ele><time>2026-04-24T14:48:28Z</time></trkpt><trkpt lat="43.953207297072375" lon="12.749325247156499"><ele>9.0</ele><time>2026-04-24T14:48:29Z</time></trkpt><trkpt lat="43.95320295711151" lon="12.749520221593167"><ele>9.0</ele><time>2026-04-24T14:48:30Z</time></trkpt><trkpt lat="43.95320198325248" lon="12.74969385011016"><ele>9.0</ele><time>2026-04-24T14:48:31Z</time></trkpt><trkpt lat="43.95320278660709" lon="12.749857274098812"><ele>9.25</ele><time>2026-04-24T14:48:32Z</time></trkpt><trkpt lat="43.953201319914164" lon="12.750035440739765"><ele>9.5</ele><time>2026-04-24T14:48:33Z</time></trkpt><trkpt lat="43.95320069421802" lon="12.750230632973897"><ele>9.75</ele><time>2026-04-24T14:48:34Z</time></trkpt><trkpt lat="43.95319957028691" lon="12.750438147358146"><ele>10.0</ele><time>2026-04-24T14:48:35Z</time></trkpt><trkpt lat="43.95319685803497" lon="12.750647796061248"><ele>10.666666666666668</ele><time>2026-04-24T14:48:36Z</time></trkpt><trkpt lat="43.953193363334336" lon="12.750865963121575"><ele>11.333333333333334</ele><time>2026-04-24T14:48:37Z</time></trkpt><trkpt lat="43.95318911245005" lon="12.751085409958264"><ele>12.0</ele><time>2026-04-24T14:48:38Z</time></trkpt><trkpt lat="43.9531838912374" lon="12.75128842693316"><ele>12.0</ele><time>2026-04-24T14:48:39Z</time></trkpt><trkpt lat="43.953179410259594" lon="12.75147440625377"><ele>12.0</ele><time>2026-04-24T14:48:40Z</time></trkpt><trkpt lat="43.95317155328592" lon="12.751647033192297"><ele>12.0</ele><time>2026-04-24T14:48:41Z</time></trkpt><trkpt lat="43.953164215848275" lon="12.751803723533426"><ele>12.0</ele><time>2026-04-24T14:48:42Z</time></trkpt><trkpt lat="43.95315900128886" lon="12.75195076159252"><ele>12.2</ele><time>2026-04-24T14:48:43Z</time></trkpt><trkpt lat="43.95315926642087" lon="12.752103835017477"><ele>12.399999999999999</ele><time>2026-04-24T14:48:44Z</time></trkpt><trkpt lat="43.95316111698601" lon="12.752261781110033"><ele>12.600000000000001</ele><time>2026-04-24T14:48:45Z</time></trkpt><trkpt lat="43.95315937302212" lon="12.752419696156531"><ele>12.8</ele><time>2026-04-24T14:48:46Z</time></trkpt><trkpt lat="43.95315637098964" lon="12.752563318366365"><ele>13.0</ele><time>2026-04-24T14:48:47Z</time></trkpt><trkpt lat="43.95315374974558" lon="12.752690801193335"><ele>13.0</ele><time>2026-04-24T14:48:48Z</time></trkpt><trkpt lat="43.953153712283516" lon="12.752827250101458"><ele>13.0</ele><time>2026-04-24T14:48:49Z</time></trkpt><trkpt lat="43.95315735050796" lon="12.752976657027302"><ele>13.0</ele><time>2026-04-24T14:48:50Z</time></trkpt><trkpt lat="43.953154747539806" lon="12.75313725924289"><ele>13.0</ele><time>2026-04-24T14:48:51Z</time></trkpt><trkpt lat="43.9531415228211" lon="12.753298882784573"><ele>13.0</ele><time>2026-04-24T14:48:52Z</time></trkpt><trkpt lat="43.953106402411485" lon="12.753467013612717"><ele>12.25</ele><time>2026-04-24T14:48:53Z</time></trkpt><trkpt lat="43.953054594111336" lon="12.753632126748698"><ele>11.5</ele><time>2026-04-24T14:48:54Z</time></trkpt><trkpt lat="43.95298311511853" lon="12.753792310553056"><ele>10.75</ele><time>2026-04-24T14:48:55Z</time></trkpt><trkpt lat="43.95288963868392" lon="12.753947069489392"><ele>10.0</ele><time>2026-04-24T14:48:56Z</time></trkpt><trkpt lat="43.95278139246764" lon="12.75409966064045"><ele>10.0</ele><time>2026-04-24T14:48:57Z</time></trkpt><trkpt lat="43.952672927066075" lon="12.75425359701807"><ele>10.0</ele><time>2026-04-24T14:48:58Z</time></trkpt><trkpt lat="43.952581974053444" lon="12.754390262028926"><ele>10.0</ele><time>2026-04-24T14:48:59Z</time></trkpt><trkpt lat="43.952501506338955" lon="12.75451565930539"><ele>10.0</ele><time>2026-04-24T14:49:00Z</time></trkpt><trkpt lat="43.95243698920876" lon="12.754651897115746"><ele>10.0</ele><time>2026-04-24T14:49:01Z</time></trkpt><trkpt lat="43.952382284432325" lon="12.75478826568242"><ele>10.0</ele><time>2026-04-24T14:49:02Z</time></trkpt><trkpt lat="43.95235394520407" lon="12.754931370517427"><ele>10.0</ele><time>2026-04-24T14:49:03Z</time></trkpt><trkpt lat="43.95234786294549" lon="12.755081977340067"><ele>10.0</ele><time>2026-04-24T14:49:04Z</time></trkpt><trkpt lat="43.95237668455928" lon="12.755229808153588"><ele>10.0</ele><time>2026-04-24T14:49:05Z</time></trkpt><trkpt lat="43.952431554816705" lon="12.75537437860507"><ele>10.0</ele><time>2026-04-24T14:49:06Z</time></trkpt><trkpt lat="43.95251849920965" lon="12.755494015773989"><ele>10.0</ele><time>2026-04-24T14:49:07Z</time></trkpt><trkpt lat="43.952622068450026" lon="12.755577788910712"><ele>10.0</ele><time>2026-04-24T14:49:08Z</time></trkpt><trkpt lat="43.95274535629219" lon="12.755629192231536"><ele>10.0</ele><time>2026-04-24T14:49:09Z</time></trkpt><trkpt lat="43.95287918478475" lon="12.755634267868947"><ele>9.75</ele><time>2026-04-24T14:49:10Z</time></trkpt><trkpt lat="43.95301694374121" lon="12.75560200612498"><ele>9.5</ele><time>2026-04-24T14:49:11Z</time></trkpt><trkpt lat="43.95315633812472" lon="12.755533614500942"><ele>9.25</ele><time>2026-04-24T14:49:12Z</time></trkpt><trkpt lat="43.953300144576254" lon="12.755432002069924"><ele>9.0</ele><time>2026-04-24T14:49:13Z</time></trkpt><trkpt lat="43.95344525644574" lon="12.75530884426347"><ele>9.0</ele><time>2026-04-24T14:49:14Z</time></trkpt><trkpt lat="43.95358345107382" lon="12.75517411678942"><ele>9.0</ele><time>2026-04-24T14:49:15Z</time></trkpt><trkpt lat="43.9537027887397" lon="12.755030644790947"><ele>9.0</ele><time>2026-04-24T14:49:16Z</time></trkpt><trkpt lat="43.95380241594407" lon="12.754875571268578"><ele>9.0</ele><time>2026-04-24T14:49:17Z</time></trkpt><trkpt lat="43.953890130047014" lon="12.754708171439267"><ele>9.0</ele><time>2026-04-24T14:49:18Z</time></trkpt><trkpt lat="43.95396162199933" lon="12.754532536302701"><ele>9.0</ele><time>2026-04-24T14:49:19Z</time></trkpt><trkpt lat="43.95401315449065" lon="12.754354476578907"><ele>9.0</ele><time>2026-04-24T14:49:20Z</time></trkpt><trkpt lat="43.95404643003305" lon="12.754177965425175"><ele>9.2</ele><time>2026-04-24T14:49:21Z</time></trkpt><trkpt lat="43.9540681730389" lon="12.75401453412188"><ele>9.4</ele><time>2026-04-24T14:49:22Z</time></trkpt><trkpt lat="43.95408605205491" lon="12.753868312270086"><ele>9.6</ele><time>2026-04-24T14:49:23Z</time></trkpt><trkpt lat="43.95409938817147" lon="12.753748786718267"><ele>9.8</ele><time>2026-04-24T14:49:24Z</time></trkpt><trkpt lat="43.95411293446869" lon="12.7536586916238"><ele>10.0</ele><time>2026-04-24T14:49:25Z</time></trkpt><trkpt lat="43.95417187908569" lon="12.753507496446138"><ele>9.833333333333334</ele><time>2026-04-24T14:49:27Z</time></trkpt><trkpt lat="43.95422586502434" lon="12.753446162137895"><ele>9.666666666666668</ele><time>2026-04-24T14:49:28Z</time></trkpt><trkpt lat="43.954296829048765" lon="12.753406496761574"><ele>9.5</ele><time>2026-04-24T14:49:29Z</time></trkpt><trkpt lat="43.95437280956079" lon="12.75339383745184"><ele>9.333333333333334</ele><time>2026-04-24T14:49:30Z</time></trkpt><trkpt lat="43.95445784156758" lon="12.753412818339482"><ele>9.166666666666666</ele><time>2026-04-24T14:49:31Z</time></trkpt><trkpt lat="43.95454737111947" lon="12.753480924024903"><ele>9.0</ele><time>2026-04-24T14:49:32Z</time></trkpt><trkpt lat="43.954621415081554" lon="12.753594614111792"><ele>8.8</ele><time>2026-04-24T14:49:33Z</time></trkpt><trkpt lat="43.95471020771507" lon="12.75366389174652"><ele>8.600000000000001</ele><time>2026-04-24T14:49:34Z</time></trkpt><trkpt lat="43.954813807515166" lon="12.753693289612507"><ele>8.4</ele><time>2026-04-24T14:49:35Z</time></trkpt><trkpt lat="43.95491792867043" lon="12.753735032584263"><ele>8.200000000000001</ele><time>2026-04-24T14:49:36Z</time></trkpt><trkpt lat="43.95502124481438" lon="12.75377151106657"><ele>8.0</ele><time>2026-04-24T14:49:37Z</time></trkpt><trkpt lat="43.95512660482997" lon="12.753820467692256"><ele>7.75</ele><time>2026-04-24T14:49:38Z</time></trkpt><trkpt lat="43.955228698912556" lon="12.753898681481642"><ele>7.5</ele><time>2026-04-24T14:49:39Z</time></trkpt><trkpt lat="43.955328166324506" lon="12.753999564536326"><ele>7.25</ele><time>2026-04-24T14:49:40Z</time></trkpt><trkpt lat="43.955429276035055" lon="12.754111653372341"><ele>7.0</ele><time>2026-04-24T14:49:41Z</time></trkpt><trkpt lat="43.955534893442575" lon="12.754223992872049"><ele>7.0</ele><time>2026-04-24T14:49:42Z</time></trkpt><trkpt lat="43.955640356395776" lon="12.754329627827433"><ele>7.0</ele><time>2026-04-24T14:49:43Z</time></trkpt><trkpt lat="43.95574824090175" lon="12.75443151365978"><ele>7.0</ele><time>2026-04-24T14:49:44Z</time></trkpt><trkpt lat="43.95585383669694" lon="12.754528174811314"><ele>7.0</ele><time>2026-04-24T14:49:45Z</time></trkpt><trkpt lat="43.955954513135715" lon="12.754615191264092"><ele>7.25</ele><time>2026-04-24T14:49:46Z</time></trkpt><trkpt lat="43.95606594974142" lon="12.754713126804715"><ele>7.5</ele><time>2026-04-24T14:49:47Z</time></trkpt><trkpt lat="43.95618230475833" lon="12.754806971511622"><ele>7.75</ele><time>2026-04-24T14:49:48Z</time></trkpt><trkpt lat="43.95629554578069" lon="12.75490618340397"><ele>8.0</ele><time>2026-04-24T14:49:49Z</time></trkpt><trkpt lat="43.95640641693961" lon="12.755006043847903"><ele>8.0</ele><time>2026-04-24T14:49:50Z</time></trkpt><trkpt lat="43.956514460351755" lon="12.755104413305352"><ele>8.0</ele><time>2026-04-24T14:49:51Z</time></trkpt><trkpt lat="43.95662243957909" lon="12.755197316207692"><ele>8.0</ele><time>2026-04-24T14:49:52Z</time></trkpt><trkpt lat="43.95673304600169" lon="12.755288579621975"><ele>8.0</ele><time>2026-04-24T14:49:53Z</time></trkpt><trkpt lat="43.95684150342068" lon="12.755379956173881"><ele>8.4</ele><time>2026-04-24T14:49:54Z</time></trkpt><trkpt lat="43.956947585054486" lon="12.755476299150953"><ele>8.8</ele><time>2026-04-24T14:49:55Z</time></trkpt><trkpt lat="43.95704008440237" lon="12.755557186594112"><ele>9.2</ele><time>2026-04-24T14:49:56Z</time></trkpt><trkpt lat="43.95712690175243" lon="12.755626673536044"><ele>9.6</ele><time>2026-04-24T14:49:57Z</time></trkpt><trkpt lat="43.957198770282154" lon="12.75568018796175"><ele>10.0</ele><time>2026-04-24T14:49:58Z</time></trkpt><trkpt lat="43.957261599282965" lon="12.755733030137105"><ele>10.0</ele><time>2026-04-24T14:49:59Z</time></trkpt><trkpt lat="43.957320022348796" lon="12.75578797788641"><ele>10.0</ele><time>2026-04-24T14:50:00Z</time></trkpt><trkpt lat="43.95737485435356" lon="12.755838781350832"><ele>10.0</ele><time>2026-04-24T14:50:01Z</time></trkpt><trkpt lat="43.957421737583445" lon="12.755903251302847"><ele>10.0</ele><time>2026-04-24T14:50:02Z</time></trkpt><trkpt lat="43.957461177834446" lon="12.755974157755947"><ele>10.0</ele><time>2026-04-24T14:50:03Z</time></trkpt><trkpt lat="43.95751828155965" lon="12.756053477469544"><ele>10.0</ele><time>2026-04-24T14:50:04Z</time></trkpt><trkpt lat="43.95758412723345" lon="12.756102596065906"><ele>10.0</ele><time>2026-04-24T14:50:05Z</time></trkpt><trkpt lat="43.957651500398775" lon="12.756112357283211"><ele>9.4</ele><time>2026-04-24T14:50:06Z</time></trkpt><trkpt lat="43.95773133731238" lon="12.756081928749404"><ele>8.8</ele><time>2026-04-24T14:50:07Z</time></trkpt><trkpt lat="43.957814013219064" lon="12.756052056168699"><ele>8.2</ele><time>2026-04-24T14:50:08Z</time></trkpt><trkpt lat="43.9579002534056" lon="12.756051632235591"><ele>7.6</ele><time>2026-04-24T14:50:09Z</time></trkpt><trkpt lat="43.957982323794056" lon="12.756049219895944"><ele>7.0</ele><time>2026-04-24T14:50:10Z</time></trkpt><trkpt lat="43.95809759963454" lon="12.756055652925818"><ele>7.0</ele><time>2026-04-24T14:50:12Z</time></trkpt><trkpt lat="43.95819225483686" lon="12.756068118166937"><ele>6.999999999999999</ele><time>2026-04-24T14:50:14Z</time></trkpt><trkpt lat="43.95830376895017" lon="12.756081415112872"><ele>6.999999999999999</ele><time>2026-04-24T14:50:16Z</time></trkpt><trkpt lat="43.95837468376272" lon="12.756089157938476"><ele>7.0</ele><time>2026-04-24T14:50:17Z</time></trkpt><trkpt lat="43.958442564026896" lon="12.756099586020966"><ele>7.0</ele><time>2026-04-24T14:50:18Z</time></trkpt><trkpt lat="43.95857496935058" lon="12.75612222580773"><ele>7.166666666666667</ele><time>2026-04-24T14:50:20Z</time></trkpt><trkpt lat="43.9586382735518" lon="12.756126564300034"><ele>7.333333333333334</ele><time>2026-04-24T14:50:21Z</time></trkpt><trkpt lat="43.95873872772615" lon="12.756142578684189"><ele>7.5</ele><time>2026-04-24T14:50:23Z</time></trkpt><trkpt lat="43.95880708383085" lon="12.75614482141318"><ele>7.666666666666666</ele><time>2026-04-24T14:50:28Z</time></trkpt><trkpt lat="43.95887144304248" lon="12.756151884409567"><ele>7.833333333333333</ele><time>2026-04-24T14:50:30Z</time></trkpt><trkpt lat="43.95899076045735" lon="12.756154232296016"><ele>8.0</ele><time>2026-04-24T14:50:32Z</time></trkpt><trkpt lat="43.95906375174149" lon="12.75615223892679"><ele>8.0</ele><time>2026-04-24T14:50:33Z</time></trkpt><trkpt lat="43.95912957311219" lon="12.756160710087206"><ele>7.999999999999999</ele><time>2026-04-24T14:50:34Z</time></trkpt><trkpt lat="43.95921230298084" lon="12.756171303448035"><ele>8.0</ele><time>2026-04-24T14:50:35Z</time></trkpt><trkpt lat="43.95928861404354" lon="12.75618015808849"><ele>8.0</ele><time>2026-04-24T14:50:36Z</time></trkpt><trkpt lat="43.959347525943535" lon="12.756213044403017"><ele>7.999999999999999</ele><time>2026-04-24T14:50:37Z</time></trkpt><trkpt lat="43.959427856495644" lon="12.756227264891146"><ele>8.0</ele><time>2026-04-24T14:50:39Z</time></trkpt><trkpt lat="43.95950100084989" lon="12.756251368984664"><ele>8.0</ele><time>2026-04-24T14:50:42Z</time></trkpt><trkpt lat="43.95957618720091" lon="12.75628252243107"><ele>8.166666666666666</ele><time>2026-04-24T14:50:44Z</time></trkpt><trkpt lat="43.95964938978036" lon="12.756278648591406"><ele>8.333333333333332</ele><time>2026-04-24T14:50:46Z</time></trkpt><trkpt lat="43.95974392397707" lon="12.75630660558943"><ele>8.5</ele><time>2026-04-24T14:50:48Z</time></trkpt><trkpt lat="43.959869993792196" lon="12.756321674066687"><ele>8.666666666666666</ele><time>2026-04-24T14:50:50Z</time></trkpt><trkpt lat="43.95993927556011" lon="12.756329180674722"><ele>8.833333333333334</ele><time>2026-04-24T14:50:51Z</time></trkpt><trkpt lat="43.96000627472316" lon="12.756314987392066"><ele>9.0</ele><time>2026-04-24T14:50:52Z</time></trkpt><trkpt lat="43.96016583254137" lon="12.756348410803483"><ele>9.0</ele><time>2026-04-24T14:50:54Z</time></trkpt><trkpt lat="43.960255895261376" lon="12.756365765789962"><ele>9.0</ele><time>2026-04-24T14:50:55Z</time></trkpt><trkpt lat="43.960344091661675" lon="12.75637998590941"><ele>9.0</ele><time>2026-04-24T14:50:56Z</time></trkpt><trkpt lat="43.96041826450948" lon="12.756389145455705"><ele>9.0</ele><time>2026-04-24T14:50:57Z</time></trkpt><trkpt lat="43.96048798187597" lon="12.756393517095225"><ele>9.0</ele><time>2026-04-24T14:50:58Z</time></trkpt><trkpt lat="43.96055833640193" lon="12.756393934827592"><ele>9.0</ele><time>2026-04-24T14:50:59Z</time></trkpt><trkpt lat="43.960637616250786" lon="12.756400722741166"><ele>9.0</ele><time>2026-04-24T14:51:00Z</time></trkpt><trkpt lat="43.960719077643006" lon="12.756410040587594"><ele>9.0</ele><time>2026-04-24T14:51:01Z</time></trkpt><trkpt lat="43.96080917117472" lon="12.75641292188815"><ele>9.0</ele><time>2026-04-24T14:51:02Z</time></trkpt><trkpt lat="43.96090307002918" lon="12.756424878571172"><ele>9.0</ele><time>2026-04-24T14:51:03Z</time></trkpt><trkpt lat="43.96100615470388" lon="12.756441932986082"><ele>9.0</ele><time>2026-04-24T14:51:04Z</time></trkpt><trkpt lat="43.96111552847229" lon="12.756454904480043"><ele>8.0</ele><time>2026-04-24T14:51:05Z</time></trkpt><trkpt lat="43.96123694592554" lon="12.756470520824204"><ele>7.0</ele><time>2026-04-24T14:51:06Z</time></trkpt><trkpt lat="43.96135723361523" lon="12.756482553329683"><ele>6.0</ele><time>2026-04-24T14:51:07Z</time></trkpt><trkpt lat="43.961488343607456" lon="12.756499195349653"><ele>5.0</ele><time>2026-04-24T14:51:08Z</time></trkpt><trkpt lat="43.96162997418322" lon="12.756512140310043"><ele>5.25</ele><time>2026-04-24T14:51:09Z</time></trkpt><trkpt lat="43.961784298964496" lon="12.756519726586793"><ele>5.5</ele><time>2026-04-24T14:51:10Z</time></trkpt><trkpt lat="43.96192282574014" lon="12.756531593848463"><ele>5.75</ele><time>2026-04-24T14:51:11Z</time></trkpt><trkpt lat="43.96203894954832" lon="12.756564944060315"><ele>6.0</ele><time>2026-04-24T14:51:12Z</time></trkpt><trkpt lat="43.962137140409226" lon="12.756576701531948"><ele>6.0</ele><time>2026-04-24T14:51:13Z</time></trkpt><trkpt lat="43.962217409972084" lon="12.75659680563492"><ele>6.0</ele><time>2026-04-24T14:51:14Z</time></trkpt><trkpt lat="43.96228357478625" lon="12.756634166428427"><ele>6.0</ele><time>2026-04-24T14:51:15Z</time></trkpt><trkpt lat="43.96234661962286" lon="12.756675470202469"><ele>6.0</ele><time>2026-04-24T14:51:16Z</time></trkpt><trkpt lat="43.962381173167465" lon="12.756760795950528"><ele>6.0</ele><time>2026-04-24T14:51:17Z</time></trkpt><trkpt lat="43.96246947869308" lon="12.756841055915409"><ele>6.0</ele><time>2026-04-24T14:51:19Z</time></trkpt><trkpt lat="43.962529903202594" lon="12.756795439218948"><ele>6.4</ele><time>2026-04-24T14:51:20Z</time></trkpt><trkpt lat="43.96260325686669" lon="12.75672851681923"><ele>6.8</ele><time>2026-04-24T14:51:21Z</time></trkpt><trkpt lat="43.96269601956898" lon="12.756666184588632"><ele>7.200000000000001</ele><time>2026-04-24T14:51:22Z</time></trkpt><trkpt lat="43.962799125433975" lon="12.75663626520449"><ele>7.6000000000000005</ele><time>2026-04-24T14:51:23Z</time></trkpt><trkpt lat="43.962888023567196" lon="12.75662302830296"><ele>8.0</ele><time>2026-04-24T14:51:24Z</time></trkpt><trkpt lat="43.962979602107836" lon="12.75658842513631"><ele>7.999999999999999</ele><time>2026-04-24T14:51:26Z</time></trkpt><trkpt lat="43.96304894514683" lon="12.756601881120561"><ele>8.0</ele><time>2026-04-24T14:51:32Z</time></trkpt><trkpt lat="43.96310342908877" lon="12.756535247052987"><ele>8.0</ele><time>2026-04-24T14:51:33Z</time></trkpt><trkpt lat="43.96317969887353" lon="12.756585304961584"><ele>8.0</ele><time>2026-04-24T14:51:34Z</time></trkpt><trkpt lat="43.96325011861448" lon="12.75657637758018"><ele>7.999999999999999</ele><time>2026-04-24T14:51:35Z</time></trkpt><trkpt lat="43.96333342580541" lon="12.756565816404354"><ele>8.0</ele><time>2026-04-24T14:51:36Z</time></trkpt><trkpt lat="43.96340899217282" lon="12.756556236391772"><ele>8.666666666666666</ele><time>2026-04-24T14:51:37Z</time></trkpt><trkpt lat="43.96348408228808" lon="12.75654588566344"><ele>9.333333333333332</ele><time>2026-04-24T14:51:38Z</time></trkpt><trkpt lat="43.96355925538982" lon="12.75651963022963"><ele>10.0</ele><time>2026-04-24T14:51:39Z</time></trkpt><trkpt lat="43.963643820988956" lon="12.756519298249204"><ele>10.666666666666666</ele><time>2026-04-24T14:51:40Z</time></trkpt><trkpt lat="43.963726715572456" lon="12.756516117759569"><ele>11.333333333333334</ele><time>2026-04-24T14:51:41Z</time></trkpt><trkpt lat="43.96380866635308" lon="12.756507999089385"><ele>12.0</ele><time>2026-04-24T14:51:42Z</time></trkpt><trkpt lat="43.96389161276273" lon="12.756492314090082"><ele>12.0</ele><time>2026-04-24T14:51:43Z</time></trkpt><trkpt lat="43.963975532151075" lon="12.756481047110633"><ele>12.0</ele><time>2026-04-24T14:51:44Z</time></trkpt><trkpt lat="43.964060868070156" lon="12.756470591482485"><ele>12.0</ele><time>2026-04-24T14:51:45Z</time></trkpt><trkpt lat="43.9641511598305" lon="12.75645906759617"><ele>12.0</ele><time>2026-04-24T14:51:46Z</time></trkpt><trkpt lat="43.96424237821424" lon="12.756441429300658"><ele>12.0</ele><time>2026-04-24T14:51:47Z</time></trkpt><trkpt lat="43.96433235926152" lon="12.75642588451817"><ele>12.0</ele><time>2026-04-24T14:51:48Z</time></trkpt><trkpt lat="43.96442176934426" lon="12.756421792219186"><ele>12.5</ele><time>2026-04-24T14:51:49Z</time></trkpt><trkpt lat="43.964506883316346" lon="12.75641487733238"><ele>13.0</ele><time>2026-04-24T14:51:50Z</time></trkpt><trkpt lat="43.96459140058253" lon="12.756416143128588"><ele>13.5</ele><time>2026-04-24T14:51:51Z</time></trkpt><trkpt lat="43.96466692371536" lon="12.756430695648735"><ele>14.0</ele><time>2026-04-24T14:51:52Z</time></trkpt><trkpt lat="43.96473161061275" lon="12.756425224628975"><ele>14.5</ele><time>2026-04-24T14:51:53Z</time></trkpt><trkpt lat="43.96485983143185" lon="12.756445970876209"><ele>15.0</ele><time>2026-04-24T14:51:55Z</time></trkpt><trkpt lat="43.96493387381474" lon="12.756448107251735"><ele>15.0</ele><time>2026-04-24T14:51:56Z</time></trkpt><trkpt lat="43.96501407941018" lon="12.756456541465885"><ele>15.0</ele><time>2026-04-24T14:51:57Z</time></trkpt><trkpt lat="43.96509712618633" lon="12.756464766480642"><ele>15.0</ele><time>2026-04-24T14:51:58Z</time></trkpt><trkpt lat="43.965171957977326" lon="12.756479438569075"><ele>15.0</ele><time>2026-04-24T14:51:59Z</time></trkpt><trkpt lat="43.965242236207025" lon="12.756493301086943"><ele>15.0</ele><time>2026-04-24T14:52:00Z</time></trkpt><trkpt lat="43.965351667766804" lon="12.756516023810683"><ele>15.0</ele><time>2026-04-24T14:52:02Z</time></trkpt><trkpt lat="43.9654743088686" lon="12.756556876425"><ele>14.333333333333334</ele><time>2026-04-24T14:52:04Z</time></trkpt><trkpt lat="43.965544265850994" lon="12.756565764542557"><ele>13.666666666666666</ele><time>2026-04-24T14:52:05Z</time></trkpt><trkpt lat="43.9656608954492" lon="12.756571057437741"><ele>13.0</ele><time>2026-04-24T14:52:07Z</time></trkpt><trkpt lat="43.965726272195504" lon="12.756567690952636"><ele>12.333333333333332</ele><time>2026-04-24T14:52:08Z</time></trkpt><trkpt lat="43.9657977278459" lon="12.75658785506577"><ele>11.666666666666666</ele><time>2026-04-24T14:52:09Z</time></trkpt><trkpt lat="43.965875610476864" lon="12.756594537004847"><ele>11.0</ele><time>2026-04-24T14:52:10Z</time></trkpt><trkpt lat="43.96595817278922" lon="12.756605644719794"><ele>10.714285714285715</ele><time>2026-04-24T14:52:11Z</time></trkpt><trkpt lat="43.96602581123978" lon="12.756619225706826"><ele>10.428571428571429</ele><time>2026-04-24T14:52:12Z</time></trkpt><trkpt lat="43.96609137956262" lon="12.756630738735872"><ele>10.142857142857142</ele><time>2026-04-24T14:52:13Z</time></trkpt><trkpt lat="43.96615664882283" lon="12.756632201574265"><ele>9.857142857142858</ele><time>2026-04-24T14:52:14Z</time></trkpt><trkpt lat="43.96622184532417" lon="12.75663702435704"><ele>9.571428571428571</ele><time>2026-04-24T14:52:15Z</time></trkpt><trkpt lat="43.966283327680934" lon="12.756685423241935"><ele>9.285714285714286</ele><time>2026-04-24T14:52:16Z</time></trkpt><trkpt lat="43.96638806694252" lon="12.756704279302294"><ele>9.0</ele><time>2026-04-24T14:52:18Z</time></trkpt><trkpt lat="43.96648705548051" lon="12.756722100069423"><ele>9.000000000000002</ele><time>2026-04-24T14:52:20Z</time></trkpt><trkpt lat="43.96655309924248" lon="12.756734499933753"><ele>9.0</ele><time>2026-04-24T14:52:22Z</time></trkpt><trkpt lat="43.96662318224917" lon="12.756736787266192"><ele>9.0</ele><time>2026-04-24T14:52:26Z</time></trkpt><trkpt lat="43.966695488456544" lon="12.756737587311898"><ele>9.0</ele><time>2026-04-24T14:52:45Z</time></trkpt><trkpt lat="43.9667512755062" lon="12.756644869030689"><ele>9.0</ele><time>2026-04-24T14:52:47Z</time></trkpt><trkpt lat="43.966775686411715" lon="12.756557181957975"><ele>9.000000000000002</ele><time>2026-04-24T14:52:48Z</time></trkpt><trkpt lat="43.96679618325446" lon="12.756466224556426"><ele>9.0</ele><time>2026-04-24T14:52:49Z</time></trkpt><trkpt lat="43.966817380621826" lon="12.756345444357152"><ele>8.5</ele><time>2026-04-24T14:52:51Z</time></trkpt><trkpt lat="43.96681471342416" lon="12.756248006220618"><ele>8.0</ele><time>2026-04-24T14:52:55Z</time></trkpt><trkpt lat="43.96678999090457" lon="12.756139575637643"><ele>7.5</ele><time>2026-04-24T14:53:47Z</time></trkpt><trkpt lat="43.96682900617589" lon="12.756040952241927"><ele>7.0</ele><time>2026-04-24T14:53:49Z</time></trkpt><trkpt lat="43.96686538491472" lon="12.755951530403705"><ele>6.5</ele><time>2026-04-24T14:53:51Z</time></trkpt><trkpt lat="43.96690758489616" lon="12.755769238738864"><ele>6.0</ele><time>2026-04-24T14:53:54Z</time></trkpt><trkpt lat="43.966937715361155" lon="12.755625533438641"><ele>6.0</ele><time>2026-04-24T14:53:56Z</time></trkpt><trkpt lat="43.96699519333955" lon="12.755528670250602"><ele>6.0</ele><time>2026-04-24T14:53:58Z</time></trkpt><trkpt lat="43.96702754916901" lon="12.75540437146869"><ele>6.0</ele><time>2026-04-24T14:54:00Z</time></trkpt><trkpt lat="43.9670677374274" lon="12.755249983519818"><ele>6.0</ele><time>2026-04-24T14:54:02Z</time></trkpt><trkpt lat="43.967097940188" lon="12.755108635169323"><ele>6.0</ele><time>2026-04-24T14:54:04Z</time></trkpt><trkpt lat="43.96712626622907" lon="12.755026374367917"><ele>6.199999999999999</ele><time>2026-04-24T14:54:05Z</time></trkpt><trkpt lat="43.96717093745994" lon="12.754877618520348"><ele>6.3999999999999995</ele><time>2026-04-24T14:54:07Z</time></trkpt><trkpt lat="43.96721026908182" lon="12.754724860651526"><ele>6.6</ele><time>2026-04-24T14:54:09Z</time></trkpt><trkpt lat="43.96723964838455" lon="12.7546043776651"><ele>6.8</ele><time>2026-04-24T14:54:11Z</time></trkpt><trkpt lat="43.967263811919985" lon="12.754511872952966"><ele>7.0</ele><time>2026-04-24T14:54:13Z</time></trkpt><trkpt lat="43.967298069824714" lon="12.754432254451562"><ele>7.000000000000001</ele><time>2026-04-24T14:54:16Z</time></trkpt><trkpt lat="43.96742902480195" lon="12.754504978732582"><ele>7.0</ele><time>2026-04-24T14:54:23Z</time></trkpt><trkpt lat="43.967492125654275" lon="12.754529822062432"><ele>7.0</ele><time>2026-04-24T14:54:25Z</time></trkpt><trkpt lat="43.96755927322524" lon="12.754555963051189"><ele>7.0</ele><time>2026-04-24T14:54:27Z</time></trkpt><trkpt lat="43.96763103754998" lon="12.754595046214195"><ele>7.000000000000001</ele><time>2026-04-24T14:54:30Z</time></trkpt><trkpt lat="43.96764446168824" lon="12.754680959583652"><ele>7.0</ele><time>2026-04-24T14:57:22Z</time></trkpt><trkpt lat="43.96757835113023" lon="12.754656965900121"><ele>7.000000000000001</ele><time>2026-04-24T14:58:05Z</time></trkpt><trkpt lat="43.9675120513942" lon="12.754632390541849"><ele>7.0</ele><time>2026-04-24T14:58:07Z</time></trkpt><trkpt lat="43.96745042177798" lon="12.75457139138221"><ele>7.0</ele><time>2026-04-24T14:58:10Z</time></trkpt><trkpt lat="43.96743573773045" lon="12.75443321548399"><ele>7.0</ele><time>2026-04-24T14:58:13Z</time></trkpt><trkpt lat="43.96745894744148" lon="12.754293016969712"><ele>7.000000000000001</ele><time>2026-04-24T14:58:15Z</time></trkpt><trkpt lat="43.96749478001722" lon="12.754163866485777"><ele>7.0</ele><time>2026-04-24T14:58:17Z</time></trkpt><trkpt lat="43.9675302807891" lon="12.754041849016975"><ele>6.0</ele><time>2026-04-24T14:58:19Z</time></trkpt><trkpt lat="43.967561872335004" lon="12.753924782691499"><ele>4.999999999999999</ele><time>2026-04-24T14:58:21Z</time></trkpt><trkpt lat="43.96760266068722" lon="12.753780906705163"><ele>4.0</ele><time>2026-04-24T14:58:23Z</time></trkpt><trkpt lat="43.9676422383802" lon="12.753643397447537"><ele>3.0</ele><time>2026-04-24T14:58:25Z</time></trkpt><trkpt lat="43.967686400785496" lon="12.753498970639038"><ele>2.0</ele><time>2026-04-24T14:58:27Z</time></trkpt><trkpt lat="43.96770727693282" lon="12.753402985407307"><ele>2.0</ele><time>2026-04-24T14:58:29Z</time></trkpt><trkpt lat="43.96757879020268" lon="12.75330611962439"><ele>2.0</ele><time>2026-04-24T14:58:33Z</time></trkpt><trkpt lat="43.96747695176719" lon="12.753225018931754"><ele>2.0</ele><time>2026-04-24T14:58:35Z</time></trkpt><trkpt lat="43.96740138704958" lon="12.75315277110811"><ele>2.0</ele><time>2026-04-24T14:58:37Z</time></trkpt><trkpt lat="43.967303085850965" lon="12.75311175698965"><ele>3.2</ele><time>2026-04-24T14:58:39Z</time></trkpt><trkpt lat="43.967235424474524" lon="12.753048150292386"><ele>4.4</ele><time>2026-04-24T14:58:44Z</time></trkpt><trkpt lat="43.96710928104111" lon="12.752949934467486"><ele>5.6000000000000005</ele><time>2026-04-24T14:58:46Z</time></trkpt><trkpt lat="43.96700872948835" lon="12.752953193606906"><ele>6.800000000000001</ele><time>2026-04-24T14:58:47Z</time></trkpt><trkpt lat="43.96694132051136" lon="12.752944199656781"><ele>8.0</ele><time>2026-04-24T14:58:48Z</time></trkpt><trkpt lat="43.966894140315574" lon="12.752886247735358"><ele>7.999999999999999</ele><time>2026-04-24T14:58:49Z</time></trkpt><trkpt lat="43.96684971381728" lon="12.752822371145314"><ele>8.0</ele><time>2026-04-24T14:58:50Z</time></trkpt><trkpt lat="43.96681177821847" lon="12.752741576835778"><ele>8.0</ele><time>2026-04-24T14:58:51Z</time></trkpt><trkpt lat="43.966736030556824" lon="12.752670682136554"><ele>8.0</ele><time>2026-04-24T14:58:53Z</time></trkpt><trkpt lat="43.966663968971915" lon="12.752643612632273"><ele>7.999999999999999</ele><time>2026-04-24T14:58:55Z</time></trkpt><trkpt lat="43.966609874577046" lon="12.752576927920146"><ele>8.0</ele><time>2026-04-24T14:58:58Z</time></trkpt><trkpt lat="43.96651659936262" lon="12.75251002265468"><ele>7.6000000000000005</ele><time>2026-04-24T14:59:00Z</time></trkpt><trkpt lat="43.96645196763086" lon="12.752464395414506"><ele>7.200000000000001</ele><time>2026-04-24T14:59:01Z</time></trkpt><trkpt lat="43.96639795137436" lon="12.752338746232862"><ele>6.8</ele><time>2026-04-24T14:59:03Z</time></trkpt><trkpt lat="43.96634287233372" lon="12.752272484093863"><ele>6.4</ele><time>2026-04-24T14:59:06Z</time></trkpt><trkpt lat="43.96623430016265" lon="12.752397588720749"><ele>6.0</ele><time>2026-04-24T14:59:09Z</time></trkpt><trkpt lat="43.96619538370859" lon="12.75248642545239"><ele>6.0</ele><time>2026-04-24T14:59:10Z</time></trkpt><trkpt lat="43.966155054617666" lon="12.752582318779357"><ele>6.0</ele><time>2026-04-24T14:59:11Z</time></trkpt><trkpt lat="43.96611703023801" lon="12.75269464063912"><ele>6.0</ele><time>2026-04-24T14:59:12Z</time></trkpt><trkpt lat="43.96607913037144" lon="12.752812972003559"><ele>6.0</ele><time>2026-04-24T14:59:13Z</time></trkpt><trkpt lat="43.96603696962057" lon="12.752937736740297"><ele>6.0</ele><time>2026-04-24T14:59:14Z</time></trkpt><trkpt lat="43.96599993858962" lon="12.753060432342233"><ele>6.0</ele><time>2026-04-24T14:59:15Z</time></trkpt><trkpt lat="43.96596179337939" lon="12.753151499284042"><ele>6.0</ele><time>2026-04-24T14:59:16Z</time></trkpt><trkpt lat="43.96589929996439" lon="12.753274536790526"><ele>6.0</ele><time>2026-04-24T14:59:18Z</time></trkpt><trkpt lat="43.9658452112553" lon="12.753367135300488"><ele>6.0</ele><time>2026-04-24T14:59:20Z</time></trkpt><trkpt lat="43.96580838742185" lon="12.753469614511118"><ele>6.0</ele><time>2026-04-24T14:59:22Z</time></trkpt><trkpt lat="43.965759493270944" lon="12.75359316722712"><ele>6.166666666666667</ele><time>2026-04-24T14:59:24Z</time></trkpt><trkpt lat="43.96568950214816" lon="12.753732942444115"><ele>6.333333333333334</ele><time>2026-04-24T14:59:26Z</time></trkpt><trkpt lat="43.96564380073672" lon="12.753806165938828"><ele>6.5</ele><time>2026-04-24T14:59:27Z</time></trkpt><trkpt lat="43.965595039233264" lon="12.75388620063431"><ele>6.666666666666667</ele><time>2026-04-24T14:59:28Z</time></trkpt><trkpt lat="43.965546730341835" lon="12.753969502074655"><ele>6.833333333333334</ele><time>2026-04-24T14:59:29Z</time></trkpt><trkpt lat="43.965500035243956" lon="12.75405901461464"><ele>7.0</ele><time>2026-04-24T14:59:30Z</time></trkpt><trkpt lat="43.96545342515694" lon="12.754136118060371"><ele>7.000000000000001</ele><time>2026-04-24T14:59:31Z</time></trkpt><trkpt lat="43.965408097223204" lon="12.754204622635713"><ele>7.0</ele><time>2026-04-24T14:59:32Z</time></trkpt><trkpt lat="43.96536194910732" lon="12.754278552770165"><ele>7.0</ele><time>2026-04-24T14:59:33Z</time></trkpt><trkpt lat="43.9653221305136" lon="12.754354204438355"><ele>7.0</ele><time>2026-04-24T14:59:34Z</time></trkpt><trkpt lat="43.965251321757265" lon="12.754492128292693"><ele>7.000000000000001</ele><time>2026-04-24T14:59:36Z</time></trkpt><trkpt lat="43.96525351702809" lon="12.75462459074463"><ele>7.0</ele><time>2026-04-24T14:59:38Z</time></trkpt><trkpt lat="43.965336058861126" lon="12.754714437945095"><ele>7.166666666666667</ele><time>2026-04-24T14:59:40Z</time></trkpt><trkpt lat="43.96542525488933" lon="12.7548016809155"><ele>7.333333333333334</ele><time>2026-04-24T14:59:42Z</time></trkpt><trkpt lat="43.96547275639323" lon="12.754866849092965"><ele>7.5</ele><time>2026-04-24T14:59:44Z</time></trkpt><trkpt lat="43.965528072132024" lon="12.754967551820085"><ele>7.666666666666666</ele><time>2026-04-24T14:59:47Z</time></trkpt><trkpt lat="43.96556096778674" lon="12.755108168964123"><ele>7.833333333333333</ele><time>2026-04-24T14:59:49Z</time></trkpt><trkpt lat="43.96561447385083" lon="12.755175072124553"><ele>8.0</ele><time>2026-04-24T14:59:50Z</time></trkpt><trkpt lat="43.96569403128325" lon="12.755247314175415"><ele>8.0</ele><time>2026-04-24T14:59:51Z</time></trkpt><trkpt lat="43.965774245644475" lon="12.755320567797447"><ele>8.0</ele><time>2026-04-24T14:59:52Z</time></trkpt><trkpt lat="43.96585625419686" lon="12.755391052331857"><ele>8.0</ele><time>2026-04-24T14:59:53Z</time></trkpt><trkpt lat="43.96593859176702" lon="12.75547027031641"><ele>8.0</ele><time>2026-04-24T14:59:54Z</time></trkpt><trkpt lat="43.96601681880254" lon="12.755559658799825"><ele>8.0</ele><time>2026-04-24T14:59:55Z</time></trkpt><trkpt lat="43.96610471676144" lon="12.755645209585612"><ele>7.833333333333333</ele><time>2026-04-24T14:59:56Z</time></trkpt><trkpt lat="43.966189271040456" lon="12.7557300480819"><ele>7.666666666666666</ele><time>2026-04-24T14:59:57Z</time></trkpt><trkpt lat="43.96625196806128" lon="12.755788713277436"><ele>7.5</ele><time>2026-04-24T14:59:58Z</time></trkpt><trkpt lat="43.96635397948816" lon="12.755881046674734"><ele>7.333333333333334</ele><time>2026-04-24T15:00:00Z</time></trkpt><trkpt lat="43.96643076776174" lon="12.75591834886307"><ele>7.166666666666667</ele><time>2026-04-24T15:00:02Z</time></trkpt><trkpt lat="43.96647803724146" lon="12.755978076643233"><ele>7.0</ele><time>2026-04-24T15:00:03Z</time></trkpt><trkpt lat="43.96656109640089" lon="12.756031893666457"><ele>7.333333333333334</ele><time>2026-04-24T15:00:04Z</time></trkpt><trkpt lat="43.96663850017089" lon="12.756100795005839"><ele>7.666666666666667</ele><time>2026-04-24T15:00:05Z</time></trkpt><trkpt lat="43.96669966630051" lon="12.756173773929818"><ele>8.0</ele><time>2026-04-24T15:00:06Z</time></trkpt><trkpt lat="43.966753162861934" lon="12.756238640245854"><ele>8.333333333333334</ele><time>2026-04-24T15:00:07Z</time></trkpt><trkpt lat="43.96677828835833" lon="12.756323246521406"><ele>8.666666666666666</ele><time>2026-04-24T15:00:08Z</time></trkpt><trkpt lat="43.966770774387115" lon="12.756424435511947"><ele>9.0</ele><time>2026-04-24T15:00:09Z</time></trkpt><trkpt lat="43.966743189118766" lon="12.756536357224235"><ele>9.0</ele><time>2026-04-24T15:00:10Z</time></trkpt><trkpt lat="43.96670907588558" lon="12.756659568828896"><ele>9.0</ele><time>2026-04-24T15:00:11Z</time></trkpt><trkpt lat="43.96667259004807" lon="12.756786011211904"><ele>9.0</ele><time>2026-04-24T15:00:12Z</time></trkpt><trkpt lat="43.966637175678756" lon="12.756915213166959"><ele>9.0</ele><time>2026-04-24T15:00:13Z</time></trkpt><trkpt lat="43.96660784753038" lon="12.757046616457929"><ele>9.0</ele><time>2026-04-24T15:00:14Z</time></trkpt><trkpt lat="43.9665784245859" lon="12.757166879220184"><ele>9.0</ele><time>2026-04-24T15:00:15Z</time></trkpt><trkpt lat="43.966550746436525" lon="12.757281394239696"><ele>9.0</ele><time>2026-04-24T15:00:16Z</time></trkpt><trkpt lat="43.96651913963246" lon="12.757407470302661"><ele>9.0</ele><time>2026-04-24T15:00:17Z</time></trkpt><trkpt lat="43.96648668277872" lon="12.757533438155262"><ele>9.0</ele><time>2026-04-24T15:00:18Z</time></trkpt><trkpt lat="43.966459514439414" lon="12.757665538569508"><ele>9.0</ele><time>2026-04-24T15:00:19Z</time></trkpt><trkpt lat="43.966413153013406" lon="12.757788410436627"><ele>9.0</ele><time>2026-04-24T15:00:20Z</time></trkpt><trkpt lat="43.966380687516796" lon="12.757917750645584"><ele>9.0</ele><time>2026-04-24T15:00:21Z</time></trkpt><trkpt lat="43.96636312436368" lon="12.758053313600499"><ele>9.0</ele><time>2026-04-24T15:00:22Z</time></trkpt><trkpt lat="43.96633140088689" lon="12.758177010045378"><ele>9.0</ele><time>2026-04-24T15:00:23Z</time></trkpt><trkpt lat="43.96630345647555" lon="12.758291099268355"><ele>9.0</ele><time>2026-04-24T15:00:24Z</time></trkpt><trkpt lat="43.9662768266734" lon="12.758398353636695"><ele>9.0</ele><time>2026-04-24T15:00:25Z</time></trkpt><trkpt lat="43.96624704853705" lon="12.758502625852143"><ele>9.0</ele><time>2026-04-24T15:00:26Z</time></trkpt><trkpt lat="43.9662176310411" lon="12.758620678687087"><ele>9.0</ele><time>2026-04-24T15:00:27Z</time></trkpt><trkpt lat="43.966185915119745" lon="12.75874907293708"><ele>9.0</ele><time>2026-04-24T15:00:28Z</time></trkpt><trkpt lat="43.966151657933565" lon="12.758883876285363"><ele>9.0</ele><time>2026-04-24T15:00:29Z</time></trkpt><trkpt lat="43.96612171889364" lon="12.7590246935588"><ele>8.75</ele><time>2026-04-24T15:00:30Z</time></trkpt><trkpt lat="43.96606919694718" lon="12.7591653120386"><ele>8.5</ele><time>2026-04-24T15:00:31Z</time></trkpt><trkpt lat="43.9660311365028" lon="12.759317503778721"><ele>8.25</ele><time>2026-04-24T15:00:32Z</time></trkpt><trkpt lat="43.965998950046746" lon="12.759470835933106"><ele>8.0</ele><time>2026-04-24T15:00:33Z</time></trkpt><trkpt lat="43.9659598281286" lon="12.759628604732834"><ele>7.25</ele><time>2026-04-24T15:00:34Z</time></trkpt><trkpt lat="43.96591751904098" lon="12.759788113125806"><ele>6.5</ele><time>2026-04-24T15:00:35Z</time></trkpt><trkpt lat="43.96587721574048" lon="12.75994542862933"><ele>5.75</ele><time>2026-04-24T15:00:36Z</time></trkpt><trkpt lat="43.96583789803227" lon="12.760098018371012"><ele>5.0</ele><time>2026-04-24T15:00:37Z</time></trkpt><trkpt lat="43.96580040534384" lon="12.760255275767909"><ele>8.0</ele><time>2026-04-24T15:00:38Z</time></trkpt><trkpt lat="43.96576268436289" lon="12.760401813507666"><ele>11.0</ele><time>2026-04-24T15:00:39Z</time></trkpt><trkpt lat="43.96572558652235" lon="12.760545136276477"><ele>14.0</ele><time>2026-04-24T15:00:40Z</time></trkpt><trkpt lat="43.96569444146105" lon="12.760688754750962"><ele>17.0</ele><time>2026-04-24T15:00:41Z</time></trkpt><trkpt lat="43.96564786868447" lon="12.760828182938255"><ele>20.0</ele><time>2026-04-24T15:00:42Z</time></trkpt><trkpt lat="43.965610439471554" lon="12.760975291094566"><ele>19.75</ele><time>2026-04-24T15:00:43Z</time></trkpt><trkpt lat="43.9655713269521" lon="12.761127592009643"><ele>19.5</ele><time>2026-04-24T15:00:44Z</time></trkpt><trkpt lat="43.965531518777475" lon="12.761282589432625"><ele>19.25</ele><time>2026-04-24T15:00:45Z</time></trkpt><trkpt lat="43.96549252899937" lon="12.761434400215824"><ele>19.0</ele><time>2026-04-24T15:00:46Z</time></trkpt><trkpt lat="43.96545349463749" lon="12.761586384440552"><ele>19.0</ele><time>2026-04-24T15:00:47Z</time></trkpt><trkpt lat="43.96541272767381" lon="12.76174556279943"><ele>19.0</ele><time>2026-04-24T15:00:48Z</time></trkpt><trkpt lat="43.965372692912574" lon="12.76190313252925"><ele>19.0</ele><time>2026-04-24T15:00:49Z</time></trkpt><trkpt lat="43.96533378957712" lon="12.762059672206009"><ele>19.0</ele><time>2026-04-24T15:00:50Z</time></trkpt><trkpt lat="43.96529637973421" lon="12.762210215672853"><ele>18.599999999999998</ele><time>2026-04-24T15:00:51Z</time></trkpt><trkpt lat="43.965258560768646" lon="12.762357012296398"><ele>18.2</ele><time>2026-04-24T15:00:52Z</time></trkpt><trkpt lat="43.965221121037125" lon="12.762502362297969"><ele>17.799999999999997</ele><time>2026-04-24T15:00:53Z</time></trkpt><trkpt lat="43.96519021754936" lon="12.762623197412355"><ele>17.4</ele><time>2026-04-24T15:00:54Z</time></trkpt><trkpt lat="43.96518433185615" lon="12.76271464649127"><ele>17.0</ele><time>2026-04-24T15:00:55Z</time></trkpt><trkpt lat="43.96514813237891" lon="12.76281556351619"><ele>17.0</ele><time>2026-04-24T15:00:57Z</time></trkpt><trkpt lat="43.96513159428371" lon="12.762928892788096"><ele>17.0</ele><time>2026-04-24T15:01:06Z</time></trkpt><trkpt lat="43.96510260158234" lon="12.763009594470642"><ele>17.0</ele><time>2026-04-24T15:01:07Z</time></trkpt><trkpt lat="43.965062033689485" lon="12.763135723169118"><ele>17.0</ele><time>2026-04-24T15:01:08Z</time></trkpt><trkpt lat="43.96502352771281" lon="12.763247046847331"><ele>17.0</ele><time>2026-04-24T15:01:09Z</time></trkpt><trkpt lat="43.96498254970734" lon="12.763382917298019"><ele>17.0</ele><time>2026-04-24T15:01:10Z</time></trkpt><trkpt lat="43.96494077421455" lon="12.7635322276735"><ele>19.6</ele><time>2026-04-24T15:01:11Z</time></trkpt><trkpt lat="43.96490089365423" lon="12.763682812471929"><ele>22.2</ele><time>2026-04-24T15:01:12Z</time></trkpt><trkpt lat="43.964864639395124" lon="12.76381418224643"><ele>24.8</ele><time>2026-04-24T15:01:13Z</time></trkpt><trkpt lat="43.96483688149835" lon="12.763925739690295"><ele>27.4</ele><time>2026-04-24T15:01:14Z</time></trkpt><trkpt lat="43.964813591738505" lon="12.76402373025462"><ele>30.0</ele><time>2026-04-24T15:01:15Z</time></trkpt><trkpt lat="43.9647825825548" lon="12.76417194936954"><ele>30.0</ele><time>2026-04-24T15:01:17Z</time></trkpt><trkpt lat="43.96479781396675" lon="12.764291833871148"><ele>30.0</ele><time>2026-04-24T15:01:19Z</time></trkpt><trkpt lat="43.96495111385179" lon="12.76431957394015"><ele>30.0</ele><time>2026-04-24T15:01:21Z</time></trkpt><trkpt lat="43.96502749007256" lon="12.76432696927107"><ele>30.0</ele><time>2026-04-24T15:01:22Z</time></trkpt><trkpt lat="43.96513045846587" lon="12.764327951556009"><ele>30.0</ele><time>2026-04-24T15:01:24Z</time></trkpt><trkpt lat="43.96521447185834" lon="12.764304639183257"><ele>27.2</ele><time>2026-04-24T15:01:27Z</time></trkpt><trkpt lat="43.96523991684591" lon="12.764163428657223"><ele>24.4</ele><time>2026-04-24T15:01:29Z</time></trkpt><trkpt lat="43.96526524428728" lon="12.764059509523003"><ele>21.6</ele><time>2026-04-24T15:01:30Z</time></trkpt><trkpt lat="43.96529592648229" lon="12.763932461666174"><ele>18.8</ele><time>2026-04-24T15:01:31Z</time></trkpt><trkpt lat="43.9653358675269" lon="12.763786927722077"><ele>16.0</ele><time>2026-04-24T15:01:32Z</time></trkpt><trkpt lat="43.96537835474089" lon="12.763634399631423"><ele>16.2</ele><time>2026-04-24T15:01:33Z</time></trkpt><trkpt lat="43.96541669706924" lon="12.763494829423538"><ele>16.400000000000002</ele><time>2026-04-24T15:01:34Z</time></trkpt><trkpt lat="43.96545269943379" lon="12.76336587693828"><ele>16.6</ele><time>2026-04-24T15:01:35Z</time></trkpt><trkpt lat="43.96550049689478" lon="12.76325710128255"><ele>16.8</ele><time>2026-04-24T15:01:36Z</time></trkpt><trkpt lat="43.965529528939236" lon="12.763148950729255"><ele>17.0</ele><time>2026-04-24T15:01:37Z</time></trkpt><trkpt lat="43.96555567972082" lon="12.763058455013246"><ele>17.0</ele><time>2026-04-24T15:01:38Z</time></trkpt><trkpt lat="43.965586108035" lon="12.762952808572432"><ele>17.0</ele><time>2026-04-24T15:01:40Z</time></trkpt><trkpt lat="43.965533287360444" lon="12.762877282923009"><ele>17.0</ele><time>2026-04-24T15:03:23Z</time></trkpt><trkpt lat="43.965579312631206" lon="12.762791490713553"><ele>17.0</ele><time>2026-04-24T15:03:26Z</time></trkpt><trkpt lat="43.965624850270096" lon="12.762690334303981"><ele>17.0</ele><time>2026-04-24T15:03:28Z</time></trkpt><trkpt lat="43.965653546910765" lon="12.76255728230177"><ele>17.0</ele><time>2026-04-24T15:03:30Z</time></trkpt><trkpt lat="43.96568763108491" lon="12.762415363290994"><ele>17.0</ele><time>2026-04-24T15:03:32Z</time></trkpt><trkpt lat="43.96571547941679" lon="12.762324342572596"><ele>17.0</ele><time>2026-04-24T15:03:33Z</time></trkpt><trkpt lat="43.96574031291778" lon="12.762237713436656"><ele>17.0</ele><time>2026-04-24T15:03:34Z</time></trkpt><trkpt lat="43.96579795989774" lon="12.762080515122186"><ele>17.0</ele><time>2026-04-24T15:03:36Z</time></trkpt><trkpt lat="43.96583009474936" lon="12.761992229231604"><ele>17.0</ele><time>2026-04-24T15:03:37Z</time></trkpt><trkpt lat="43.96585756429925" lon="12.761901205532983"><ele>17.0</ele><time>2026-04-24T15:03:38Z</time></trkpt><trkpt lat="43.96590811242702" lon="12.76175385874606"><ele>15.0</ele><time>2026-04-24T15:03:40Z</time></trkpt><trkpt lat="43.96594339468194" lon="12.761638539821318"><ele>13.0</ele><time>2026-04-24T15:03:42Z</time></trkpt><trkpt lat="43.965975407860356" lon="12.76154134638976"><ele>11.0</ele><time>2026-04-24T15:03:44Z</time></trkpt><trkpt lat="43.9660253853557" lon="12.761635939080017"><ele>9.0</ele><time>2026-04-24T15:03:53Z</time></trkpt><trkpt lat="43.96602521326102" lon="12.761750492608899"><ele>7.0</ele><time>2026-04-24T15:03:55Z</time></trkpt><trkpt lat="43.96590998507695" lon="12.761770467013559"><ele>6.0</ele><time>2026-04-24T15:03:56Z</time></trkpt><trkpt lat="43.96587296320513" lon="12.761903552117023"><ele>5.0</ele><time>2026-04-24T15:03:58Z</time></trkpt><trkpt lat="43.96583849695674" lon="12.762027444561344"><ele>4.0</ele><time>2026-04-24T15:04:00Z</time></trkpt><trkpt lat="43.965848755972914" lon="12.762138863942159"><ele>3.0</ele><time>2026-04-24T15:04:02Z</time></trkpt><trkpt lat="43.96616234613251" lon="12.762353955631513"><ele>3.0</ele><time>2026-04-24T15:04:03Z</time></trkpt><trkpt lat="43.966204246472365" lon="12.762464791184074"><ele>3.0</ele><time>2026-04-24T15:04:05Z</time></trkpt><trkpt lat="43.966220621528166" lon="12.762595095113495"><ele>3.0</ele><time>2026-04-24T15:04:07Z</time></trkpt><trkpt lat="43.96621252021477" lon="12.762756848680581"><ele>3.0</ele><time>2026-04-24T15:04:09Z</time></trkpt><trkpt lat="43.9661947170624" lon="12.762900927331028"><ele>3.0</ele><time>2026-04-24T15:04:11Z</time></trkpt><trkpt lat="43.96617788944956" lon="12.762995368766953"><ele>2.8571428571428568</ele><time>2026-04-24T15:04:14Z</time></trkpt><trkpt lat="43.966164689581234" lon="12.763087657340236"><ele>2.7142857142857144</ele><time>2026-04-24T15:04:21Z</time></trkpt><trkpt lat="43.96616122351353" lon="12.762991240008466"><ele>2.571428571428571</ele><time>2026-04-24T15:05:50Z</time></trkpt><trkpt lat="43.96618063632702" lon="12.762884771788029"><ele>2.4285714285714284</ele><time>2026-04-24T15:05:52Z</time></trkpt><trkpt lat="43.96614181578553" lon="12.762801080215262"><ele>2.2857142857142856</ele><time>2026-04-24T15:07:14Z</time></trkpt><trkpt lat="43.96618992203466" lon="12.76286778948908"><ele>2.142857142857143</ele><time>2026-04-24T15:07:19Z</time></trkpt><trkpt lat="43.96616850550249" lon="12.762955306422079"><ele>2.0</ele><time>2026-04-24T15:07:25Z</time></trkpt><trkpt lat="43.966160893034065" lon="12.763062298526648"><ele>2.0</ele><time>2026-04-24T15:07:41Z</time></trkpt><trkpt lat="43.96614324349142" lon="12.763147759121237"><ele>1.9999999999999998</ele><time>2026-04-24T15:07:53Z</time></trkpt><trkpt lat="43.96613560295326" lon="12.763244205048144"><ele>2.0</ele><time>2026-04-24T15:08:00Z</time></trkpt><trkpt lat="43.96612281199489" lon="12.763334368310208"><ele>2.0</ele><time>2026-04-24T15:08:07Z</time></trkpt><trkpt lat="43.966145034834234" lon="12.763426105397608"><ele>1.9999999999999998</ele><time>2026-04-24T15:09:31Z</time></trkpt><trkpt lat="43.96617771896189" lon="12.763515284684576"><ele>2.0</ele><time>2026-04-24T15:09:38Z</time></trkpt><trkpt lat="43.96624059175913" lon="12.7635264252198"><ele>2.0</ele><time>2026-04-24T15:15:24Z</time></trkpt><trkpt lat="43.9662742374517" lon="12.763604990197438"><ele>2.0</ele><time>2026-04-24T15:15:43Z</time></trkpt><trkpt lat="43.96628331173178" lon="12.763692938181984"><ele>1.9999999999999998</ele><time>2026-04-24T15:15:50Z</time></trkpt><trkpt lat="43.96631676758227" lon="12.763770367434793"><ele>2.0</ele><time>2026-04-24T15:15:58Z</time></trkpt><trkpt lat="43.96632161251402" lon="12.7638672882641"><ele>2.0</ele><time>2026-04-24T15:16:07Z</time></trkpt><trkpt lat="43.966305006190055" lon="12.763779658346358"><ele>1.9999999999999998</ele><time>2026-04-24T15:16:53Z</time></trkpt><trkpt lat="43.96627269132999" lon="12.763685277551163"><ele>2.0</ele><time>2026-04-24T15:16:59Z</time></trkpt><trkpt lat="43.96625980687439" lon="12.763589328487459"><ele>2.0</ele><time>2026-04-24T15:17:05Z</time></trkpt><trkpt lat="43.966210338727414" lon="12.763526581168389"><ele>2.0</ele><time>2026-04-24T15:17:12Z</time></trkpt><trkpt lat="43.96616032480002" lon="12.763436862904404"><ele>1.9999999999999998</ele><time>2026-04-24T15:17:20Z</time></trkpt><trkpt lat="43.9661462041884" lon="12.763344805421262"><ele>2.0</ele><time>2026-04-24T15:17:26Z</time></trkpt><trkpt lat="43.96614779970565" lon="12.763236404565024"><ele>2.0</ele><time>2026-04-24T15:17:33Z</time></trkpt><trkpt lat="43.96615365196956" lon="12.76313508307774"><ele>1.9999999999999998</ele><time>2026-04-24T15:17:39Z</time></trkpt><trkpt lat="43.96616164284572" lon="12.763042617468095"><ele>2.0</ele><time>2026-04-24T15:17:44Z</time></trkpt><trkpt lat="43.9661673834728" lon="12.762953832879612"><ele>2.0</ele><time>2026-04-24T15:17:50Z</time></trkpt><trkpt lat="43.96616772665843" lon="12.762855450003173"><ele>2.0</ele><time>2026-04-24T15:17:57Z</time></trkpt></trkseg></trk></gpx>